<?xml version="1.0" encoding="UTF-8" standalone="no" ?>
<gpx xmlns="http://www.topografix.com/GPX/1/1" xmlns:xsi="http://www.w3.org/2001/XMLSchema-instance" xsi:schemaLocation="http://www.topografix.com/GPX/1/1 http://www.topografix.com/GPX/1/1/gpx.xsd" version="1.1" creator="VisuGPX - https://www.visugpx.com">
  <metadata>
    <name>Salagou Octon 06 08 2024</name>
    <desc><![CDATA[belle trace niveau sportif ]]></desc>
  </metadata>
  <trk>
    <name><![CDATA[visugpx_hvvXBMgrFm_1]]></name>
    <extensions>
      <line xmlns="http://www.topografix.com/GPX/gpx_style/0/2">
        <color>0000FF</color>
        <width>4</width>
          <extensions>
            <sens>1</sens>
          </extensions>
      </line>
    </extensions>
    <trkseg>
      <trkpt lat="43.64509" lon="3.38995">
        <ele>147.7</ele>
        <time>2024-08-06T06:01:17Z</time>
      </trkpt>
      <trkpt lat="43.6454" lon="3.38971">
        <ele>146.5</ele>
        <time>2024-08-06T06:01:18Z</time>
      </trkpt>
      <trkpt lat="43.64543" lon="3.38968">
        <ele>146.4</ele>
        <time>2024-08-06T06:01:19Z</time>
      </trkpt>
      <trkpt lat="43.64546" lon="3.38966">
        <ele>146.3</ele>
        <time>2024-08-06T06:01:20Z</time>
      </trkpt>
      <trkpt lat="43.64548" lon="3.38964">
        <ele>146.2</ele>
        <time>2024-08-06T06:01:21Z</time>
      </trkpt>
      <trkpt lat="43.6455" lon="3.38962">
        <ele>146.1</ele>
        <time>2024-08-06T06:01:22Z</time>
      </trkpt>
      <trkpt lat="43.64551" lon="3.3896">
        <ele>146.1</ele>
        <time>2024-08-06T06:01:23Z</time>
      </trkpt>
      <trkpt lat="43.64551" lon="3.38958">
        <ele>146.1</ele>
        <time>2024-08-06T06:01:24Z</time>
      </trkpt>
      <trkpt lat="43.64551" lon="3.38956">
        <ele>146.1</ele>
        <time>2024-08-06T06:01:25Z</time>
      </trkpt>
      <trkpt lat="43.64551" lon="3.38953">
        <ele>146.1</ele>
        <time>2024-08-06T06:01:26Z</time>
      </trkpt>
      <trkpt lat="43.6455" lon="3.38951">
        <ele>146</ele>
        <time>2024-08-06T06:01:27Z</time>
      </trkpt>
      <trkpt lat="43.6455" lon="3.3895">
        <ele>146</ele>
        <time>2024-08-06T06:01:28Z</time>
      </trkpt>
      <trkpt lat="43.6455" lon="3.38948">
        <ele>146</ele>
        <time>2024-08-06T06:01:29Z</time>
      </trkpt>
      <trkpt lat="43.6455" lon="3.38947">
        <ele>146</ele>
        <time>2024-08-06T06:01:30Z</time>
      </trkpt>
      <trkpt lat="43.6455" lon="3.38945">
        <ele>146</ele>
        <time>2024-08-06T06:01:31Z</time>
      </trkpt>
      <trkpt lat="43.6455" lon="3.38942">
        <ele>146</ele>
        <time>2024-08-06T06:01:32Z</time>
      </trkpt>
      <trkpt lat="43.64551" lon="3.38939">
        <ele>146</ele>
        <time>2024-08-06T06:01:33Z</time>
      </trkpt>
      <trkpt lat="43.64552" lon="3.38936">
        <ele>146</ele>
        <time>2024-08-06T06:01:34Z</time>
      </trkpt>
      <trkpt lat="43.64553" lon="3.38932">
        <ele>146</ele>
        <time>2024-08-06T06:01:35Z</time>
      </trkpt>
      <trkpt lat="43.64553" lon="3.38927">
        <ele>146</ele>
        <time>2024-08-06T06:01:36Z</time>
      </trkpt>
      <trkpt lat="43.64554" lon="3.38923">
        <ele>146</ele>
        <time>2024-08-06T06:01:37Z</time>
      </trkpt>
      <trkpt lat="43.64554" lon="3.38918">
        <ele>146</ele>
        <time>2024-08-06T06:01:38Z</time>
      </trkpt>
      <trkpt lat="43.64555" lon="3.38915">
        <ele>145.9</ele>
        <time>2024-08-06T06:01:39Z</time>
      </trkpt>
      <trkpt lat="43.64557" lon="3.38911">
        <ele>145.8</ele>
        <time>2024-08-06T06:01:40Z</time>
      </trkpt>
      <trkpt lat="43.64558" lon="3.38907">
        <ele>145.6</ele>
        <time>2024-08-06T06:01:41Z</time>
      </trkpt>
      <trkpt lat="43.64559" lon="3.38902">
        <ele>145.4</ele>
        <time>2024-08-06T06:01:42Z</time>
      </trkpt>
      <trkpt lat="43.64559" lon="3.38898">
        <ele>145.3</ele>
        <time>2024-08-06T06:01:43Z</time>
      </trkpt>
      <trkpt lat="43.64561" lon="3.38894">
        <ele>145.1</ele>
        <time>2024-08-06T06:01:44Z</time>
      </trkpt>
      <trkpt lat="43.64562" lon="3.38889">
        <ele>145</ele>
        <time>2024-08-06T06:01:45Z</time>
      </trkpt>
      <trkpt lat="43.64563" lon="3.38885">
        <ele>145</ele>
        <time>2024-08-06T06:01:46Z</time>
      </trkpt>
      <trkpt lat="43.64564" lon="3.3888">
        <ele>144.9</ele>
        <time>2024-08-06T06:01:47Z</time>
      </trkpt>
      <trkpt lat="43.64564" lon="3.38874">
        <ele>144.8</ele>
        <time>2024-08-06T06:01:48Z</time>
      </trkpt>
      <trkpt lat="43.64564" lon="3.38868">
        <ele>144.8</ele>
        <time>2024-08-06T06:01:49Z</time>
      </trkpt>
      <trkpt lat="43.64564" lon="3.38862">
        <ele>144.7</ele>
        <time>2024-08-06T06:01:50Z</time>
      </trkpt>
      <trkpt lat="43.64564" lon="3.38856">
        <ele>144.6</ele>
        <time>2024-08-06T06:01:51Z</time>
      </trkpt>
      <trkpt lat="43.64564" lon="3.38851">
        <ele>144.4</ele>
        <time>2024-08-06T06:01:52Z</time>
      </trkpt>
      <trkpt lat="43.64564" lon="3.38845">
        <ele>144.3</ele>
        <time>2024-08-06T06:01:53Z</time>
      </trkpt>
      <trkpt lat="43.64564" lon="3.3884">
        <ele>144.2</ele>
        <time>2024-08-06T06:01:54Z</time>
      </trkpt>
      <trkpt lat="43.64564" lon="3.38836">
        <ele>144.1</ele>
        <time>2024-08-06T06:01:55Z</time>
      </trkpt>
      <trkpt lat="43.64564" lon="3.38832">
        <ele>144</ele>
        <time>2024-08-06T06:01:56Z</time>
      </trkpt>
      <trkpt lat="43.64563" lon="3.38828">
        <ele>144</ele>
        <time>2024-08-06T06:01:57Z</time>
      </trkpt>
      <trkpt lat="43.64563" lon="3.38824">
        <ele>144</ele>
        <time>2024-08-06T06:01:58Z</time>
      </trkpt>
      <trkpt lat="43.64564" lon="3.3882">
        <ele>144</ele>
        <time>2024-08-06T06:01:59Z</time>
      </trkpt>
      <trkpt lat="43.64564" lon="3.38816">
        <ele>144</ele>
        <time>2024-08-06T06:02:00Z</time>
      </trkpt>
      <trkpt lat="43.64565" lon="3.38811">
        <ele>144</ele>
        <time>2024-08-06T06:02:01Z</time>
      </trkpt>
      <trkpt lat="43.64567" lon="3.38807">
        <ele>144</ele>
        <time>2024-08-06T06:02:02Z</time>
      </trkpt>
      <trkpt lat="43.64568" lon="3.38802">
        <ele>143.9</ele>
        <time>2024-08-06T06:02:03Z</time>
      </trkpt>
      <trkpt lat="43.6457" lon="3.38797">
        <ele>143.8</ele>
        <time>2024-08-06T06:02:04Z</time>
      </trkpt>
      <trkpt lat="43.64572" lon="3.38791">
        <ele>143.7</ele>
        <time>2024-08-06T06:02:05Z</time>
      </trkpt>
      <trkpt lat="43.64573" lon="3.38784">
        <ele>143.5</ele>
        <time>2024-08-06T06:02:06Z</time>
      </trkpt>
      <trkpt lat="43.64575" lon="3.38778">
        <ele>143.3</ele>
        <time>2024-08-06T06:02:07Z</time>
      </trkpt>
      <trkpt lat="43.64576" lon="3.38771">
        <ele>143.2</ele>
        <time>2024-08-06T06:02:08Z</time>
      </trkpt>
      <trkpt lat="43.64575" lon="3.38764">
        <ele>143.2</ele>
        <time>2024-08-06T06:02:09Z</time>
      </trkpt>
      <trkpt lat="43.64574" lon="3.38757">
        <ele>143.1</ele>
        <time>2024-08-06T06:02:10Z</time>
      </trkpt>
      <trkpt lat="43.64575" lon="3.38752">
        <ele>143</ele>
        <time>2024-08-06T06:02:11Z</time>
      </trkpt>
      <trkpt lat="43.64576" lon="3.38746">
        <ele>143</ele>
        <time>2024-08-06T06:02:12Z</time>
      </trkpt>
      <trkpt lat="43.64577" lon="3.38741">
        <ele>142.9</ele>
        <time>2024-08-06T06:02:13Z</time>
      </trkpt>
      <trkpt lat="43.64579" lon="3.38735">
        <ele>142.9</ele>
        <time>2024-08-06T06:02:14Z</time>
      </trkpt>
      <trkpt lat="43.64581" lon="3.38728">
        <ele>142.9</ele>
        <time>2024-08-06T06:02:15Z</time>
      </trkpt>
      <trkpt lat="43.64584" lon="3.38722">
        <ele>143</ele>
        <time>2024-08-06T06:02:16Z</time>
      </trkpt>
      <trkpt lat="43.64586" lon="3.38716">
        <ele>142.7</ele>
        <time>2024-08-06T06:02:17Z</time>
      </trkpt>
      <trkpt lat="43.64588" lon="3.38709">
        <ele>142.4</ele>
        <time>2024-08-06T06:02:18Z</time>
      </trkpt>
      <trkpt lat="43.64586" lon="3.38703">
        <ele>142.3</ele>
        <time>2024-08-06T06:02:19Z</time>
      </trkpt>
      <trkpt lat="43.64584" lon="3.38697">
        <ele>142.1</ele>
        <time>2024-08-06T06:02:20Z</time>
      </trkpt>
      <trkpt lat="43.64581" lon="3.38691">
        <ele>141.9</ele>
        <time>2024-08-06T06:02:21Z</time>
      </trkpt>
      <trkpt lat="43.64578" lon="3.38684">
        <ele>141.6</ele>
        <time>2024-08-06T06:02:22Z</time>
      </trkpt>
      <trkpt lat="43.64575" lon="3.3868">
        <ele>141.5</ele>
        <time>2024-08-06T06:02:23Z</time>
      </trkpt>
      <trkpt lat="43.64572" lon="3.38677">
        <ele>141.4</ele>
        <time>2024-08-06T06:02:24Z</time>
      </trkpt>
      <trkpt lat="43.64569" lon="3.38675">
        <ele>141.3</ele>
        <time>2024-08-06T06:02:25Z</time>
      </trkpt>
      <trkpt lat="43.64567" lon="3.38673">
        <ele>141.2</ele>
        <time>2024-08-06T06:02:26Z</time>
      </trkpt>
      <trkpt lat="43.64564" lon="3.38672">
        <ele>141.2</ele>
        <time>2024-08-06T06:02:27Z</time>
      </trkpt>
      <trkpt lat="43.64561" lon="3.38671">
        <ele>141.2</ele>
        <time>2024-08-06T06:02:28Z</time>
      </trkpt>
      <trkpt lat="43.64558" lon="3.3867">
        <ele>141.1</ele>
        <time>2024-08-06T06:02:29Z</time>
      </trkpt>
      <trkpt lat="43.64556" lon="3.3867">
        <ele>141.1</ele>
        <time>2024-08-06T06:02:30Z</time>
      </trkpt>
      <trkpt lat="43.64553" lon="3.38669">
        <ele>141.1</ele>
        <time>2024-08-06T06:02:31Z</time>
      </trkpt>
      <trkpt lat="43.6455" lon="3.38667">
        <ele>141</ele>
        <time>2024-08-06T06:02:32Z</time>
      </trkpt>
      <trkpt lat="43.64547" lon="3.38666">
        <ele>141</ele>
        <time>2024-08-06T06:02:33Z</time>
      </trkpt>
      <trkpt lat="43.64545" lon="3.38665">
        <ele>140.9</ele>
        <time>2024-08-06T06:02:34Z</time>
      </trkpt>
      <trkpt lat="43.64541" lon="3.38665">
        <ele>140.9</ele>
        <time>2024-08-06T06:02:35Z</time>
      </trkpt>
      <trkpt lat="43.64538" lon="3.38664">
        <ele>140.9</ele>
        <time>2024-08-06T06:02:36Z</time>
      </trkpt>
      <trkpt lat="43.64534" lon="3.38661">
        <ele>140.8</ele>
        <time>2024-08-06T06:02:37Z</time>
      </trkpt>
      <trkpt lat="43.6453" lon="3.38659">
        <ele>140.7</ele>
        <time>2024-08-06T06:02:38Z</time>
      </trkpt>
      <trkpt lat="43.64526" lon="3.38656">
        <ele>140.6</ele>
        <time>2024-08-06T06:02:39Z</time>
      </trkpt>
      <trkpt lat="43.64522" lon="3.38652">
        <ele>140.4</ele>
        <time>2024-08-06T06:02:40Z</time>
      </trkpt>
      <trkpt lat="43.64519" lon="3.38647">
        <ele>140.2</ele>
        <time>2024-08-06T06:02:41Z</time>
      </trkpt>
      <trkpt lat="43.64515" lon="3.38643">
        <ele>140.1</ele>
        <time>2024-08-06T06:02:42Z</time>
      </trkpt>
      <trkpt lat="43.64512" lon="3.38638">
        <ele>140</ele>
        <time>2024-08-06T06:02:43Z</time>
      </trkpt>
      <trkpt lat="43.64509" lon="3.38634">
        <ele>139.8</ele>
        <time>2024-08-06T06:02:44Z</time>
      </trkpt>
      <trkpt lat="43.64505" lon="3.3863">
        <ele>139.7</ele>
        <time>2024-08-06T06:02:45Z</time>
      </trkpt>
      <trkpt lat="43.64501" lon="3.38628">
        <ele>139.6</ele>
        <time>2024-08-06T06:02:46Z</time>
      </trkpt>
      <trkpt lat="43.64497" lon="3.38627">
        <ele>139.6</ele>
        <time>2024-08-06T06:02:47Z</time>
      </trkpt>
      <trkpt lat="43.64493" lon="3.38627">
        <ele>139.7</ele>
        <time>2024-08-06T06:02:48Z</time>
      </trkpt>
      <trkpt lat="43.64489" lon="3.38627">
        <ele>139.7</ele>
        <time>2024-08-06T06:02:49Z</time>
      </trkpt>
      <trkpt lat="43.64486" lon="3.3863">
        <ele>139.8</ele>
        <time>2024-08-06T06:02:50Z</time>
      </trkpt>
      <trkpt lat="43.64485" lon="3.38633">
        <ele>139.9</ele>
        <time>2024-08-06T06:02:51Z</time>
      </trkpt>
      <trkpt lat="43.64483" lon="3.38637">
        <ele>140</ele>
        <time>2024-08-06T06:02:52Z</time>
      </trkpt>
      <trkpt lat="43.64482" lon="3.38641">
        <ele>140</ele>
        <time>2024-08-06T06:02:53Z</time>
      </trkpt>
      <trkpt lat="43.64481" lon="3.38646">
        <ele>140</ele>
        <time>2024-08-06T06:02:54Z</time>
      </trkpt>
      <trkpt lat="43.6448" lon="3.3865">
        <ele>140</ele>
        <time>2024-08-06T06:02:55Z</time>
      </trkpt>
      <trkpt lat="43.64478" lon="3.38653">
        <ele>140</ele>
        <time>2024-08-06T06:02:56Z</time>
      </trkpt>
      <trkpt lat="43.64476" lon="3.38656">
        <ele>140</ele>
        <time>2024-08-06T06:02:57Z</time>
      </trkpt>
      <trkpt lat="43.64475" lon="3.38658">
        <ele>140</ele>
        <time>2024-08-06T06:02:58Z</time>
      </trkpt>
      <trkpt lat="43.64474" lon="3.38662">
        <ele>140</ele>
        <time>2024-08-06T06:02:59Z</time>
      </trkpt>
      <trkpt lat="43.64473" lon="3.38664">
        <ele>140</ele>
        <time>2024-08-06T06:03:00Z</time>
      </trkpt>
      <trkpt lat="43.64471" lon="3.38667">
        <ele>140.1</ele>
        <time>2024-08-06T06:03:01Z</time>
      </trkpt>
      <trkpt lat="43.64468" lon="3.3867">
        <ele>140.3</ele>
        <time>2024-08-06T06:03:02Z</time>
      </trkpt>
      <trkpt lat="43.64465" lon="3.38671">
        <ele>140.4</ele>
        <time>2024-08-06T06:03:03Z</time>
      </trkpt>
      <trkpt lat="43.64462" lon="3.38671">
        <ele>140.5</ele>
        <time>2024-08-06T06:03:04Z</time>
      </trkpt>
      <trkpt lat="43.64459" lon="3.38671">
        <ele>140.6</ele>
        <time>2024-08-06T06:03:05Z</time>
      </trkpt>
      <trkpt lat="43.64457" lon="3.3867">
        <ele>140.6</ele>
        <time>2024-08-06T06:03:06Z</time>
      </trkpt>
      <trkpt lat="43.64455" lon="3.38668">
        <ele>140.6</ele>
        <time>2024-08-06T06:03:07Z</time>
      </trkpt>
      <trkpt lat="43.64453" lon="3.38667">
        <ele>140.7</ele>
        <time>2024-08-06T06:03:08Z</time>
      </trkpt>
      <trkpt lat="43.64451" lon="3.38666">
        <ele>140.8</ele>
        <time>2024-08-06T06:03:09Z</time>
      </trkpt>
      <trkpt lat="43.64449" lon="3.38665">
        <ele>140.8</ele>
        <time>2024-08-06T06:03:10Z</time>
      </trkpt>
      <trkpt lat="43.64446" lon="3.38663">
        <ele>140.9</ele>
        <time>2024-08-06T06:03:11Z</time>
      </trkpt>
      <trkpt lat="43.64444" lon="3.38661">
        <ele>141</ele>
        <time>2024-08-06T06:03:12Z</time>
      </trkpt>
      <trkpt lat="43.64442" lon="3.3866">
        <ele>141</ele>
        <time>2024-08-06T06:03:13Z</time>
      </trkpt>
      <trkpt lat="43.6444" lon="3.38658">
        <ele>141</ele>
        <time>2024-08-06T06:03:14Z</time>
      </trkpt>
      <trkpt lat="43.64438" lon="3.38656">
        <ele>141</ele>
        <time>2024-08-06T06:03:15Z</time>
      </trkpt>
      <trkpt lat="43.64436" lon="3.38655">
        <ele>141</ele>
        <time>2024-08-06T06:03:16Z</time>
      </trkpt>
      <trkpt lat="43.64434" lon="3.38655">
        <ele>141</ele>
        <time>2024-08-06T06:03:17Z</time>
      </trkpt>
      <trkpt lat="43.64432" lon="3.38654">
        <ele>141</ele>
        <time>2024-08-06T06:03:18Z</time>
      </trkpt>
      <trkpt lat="43.64429" lon="3.38653">
        <ele>141</ele>
        <time>2024-08-06T06:03:19Z</time>
      </trkpt>
      <trkpt lat="43.64427" lon="3.38653">
        <ele>141</ele>
        <time>2024-08-06T06:03:20Z</time>
      </trkpt>
      <trkpt lat="43.64424" lon="3.38653">
        <ele>141</ele>
        <time>2024-08-06T06:03:21Z</time>
      </trkpt>
      <trkpt lat="43.64421" lon="3.38654">
        <ele>141</ele>
        <time>2024-08-06T06:03:22Z</time>
      </trkpt>
      <trkpt lat="43.64418" lon="3.38655">
        <ele>141</ele>
        <time>2024-08-06T06:03:23Z</time>
      </trkpt>
      <trkpt lat="43.64415" lon="3.38656">
        <ele>141</ele>
        <time>2024-08-06T06:03:24Z</time>
      </trkpt>
      <trkpt lat="43.64412" lon="3.38658">
        <ele>141</ele>
        <time>2024-08-06T06:03:25Z</time>
      </trkpt>
      <trkpt lat="43.6441" lon="3.3866">
        <ele>141</ele>
        <time>2024-08-06T06:03:26Z</time>
      </trkpt>
      <trkpt lat="43.64408" lon="3.38662">
        <ele>141</ele>
        <time>2024-08-06T06:03:27Z</time>
      </trkpt>
      <trkpt lat="43.64406" lon="3.38664">
        <ele>141</ele>
        <time>2024-08-06T06:03:28Z</time>
      </trkpt>
      <trkpt lat="43.64404" lon="3.38667">
        <ele>141</ele>
        <time>2024-08-06T06:03:29Z</time>
      </trkpt>
      <trkpt lat="43.64402" lon="3.38669">
        <ele>141</ele>
        <time>2024-08-06T06:03:30Z</time>
      </trkpt>
      <trkpt lat="43.64401" lon="3.38672">
        <ele>141</ele>
        <time>2024-08-06T06:03:31Z</time>
      </trkpt>
      <trkpt lat="43.64399" lon="3.38675">
        <ele>141</ele>
        <time>2024-08-06T06:03:32Z</time>
      </trkpt>
      <trkpt lat="43.64397" lon="3.38678">
        <ele>141</ele>
        <time>2024-08-06T06:03:33Z</time>
      </trkpt>
      <trkpt lat="43.64395" lon="3.38682">
        <ele>141</ele>
        <time>2024-08-06T06:03:34Z</time>
      </trkpt>
      <trkpt lat="43.64394" lon="3.38686">
        <ele>141</ele>
        <time>2024-08-06T06:03:35Z</time>
      </trkpt>
      <trkpt lat="43.64392" lon="3.38691">
        <ele>141</ele>
        <time>2024-08-06T06:03:36Z</time>
      </trkpt>
      <trkpt lat="43.64391" lon="3.38695">
        <ele>141</ele>
        <time>2024-08-06T06:03:37Z</time>
      </trkpt>
      <trkpt lat="43.6439" lon="3.387">
        <ele>141.2</ele>
        <time>2024-08-06T06:03:38Z</time>
      </trkpt>
      <trkpt lat="43.64388" lon="3.38704">
        <ele>141.4</ele>
        <time>2024-08-06T06:03:39Z</time>
      </trkpt>
      <trkpt lat="43.64387" lon="3.38709">
        <ele>141.6</ele>
        <time>2024-08-06T06:03:40Z</time>
      </trkpt>
      <trkpt lat="43.64386" lon="3.38713">
        <ele>141.7</ele>
        <time>2024-08-06T06:03:41Z</time>
      </trkpt>
      <trkpt lat="43.64384" lon="3.38717">
        <ele>141.8</ele>
        <time>2024-08-06T06:03:42Z</time>
      </trkpt>
      <trkpt lat="43.64384" lon="3.38721">
        <ele>142</ele>
        <time>2024-08-06T06:03:43Z</time>
      </trkpt>
      <trkpt lat="43.64383" lon="3.38725">
        <ele>142</ele>
        <time>2024-08-06T06:03:44Z</time>
      </trkpt>
      <trkpt lat="43.64382" lon="3.38728">
        <ele>142.1</ele>
        <time>2024-08-06T06:03:45Z</time>
      </trkpt>
      <trkpt lat="43.64381" lon="3.38731">
        <ele>142.1</ele>
        <time>2024-08-06T06:03:46Z</time>
      </trkpt>
      <trkpt lat="43.6438" lon="3.38734">
        <ele>142.1</ele>
        <time>2024-08-06T06:03:47Z</time>
      </trkpt>
      <trkpt lat="43.64379" lon="3.38737">
        <ele>142.2</ele>
        <time>2024-08-06T06:03:48Z</time>
      </trkpt>
      <trkpt lat="43.64378" lon="3.3874">
        <ele>142.3</ele>
        <time>2024-08-06T06:03:49Z</time>
      </trkpt>
      <trkpt lat="43.64377" lon="3.38743">
        <ele>142.3</ele>
        <time>2024-08-06T06:03:50Z</time>
      </trkpt>
      <trkpt lat="43.64376" lon="3.38746">
        <ele>142.4</ele>
        <time>2024-08-06T06:03:51Z</time>
      </trkpt>
      <trkpt lat="43.64375" lon="3.3875">
        <ele>142.5</ele>
        <time>2024-08-06T06:03:52Z</time>
      </trkpt>
      <trkpt lat="43.64374" lon="3.38754">
        <ele>142.5</ele>
        <time>2024-08-06T06:03:53Z</time>
      </trkpt>
      <trkpt lat="43.64372" lon="3.38758">
        <ele>142.5</ele>
        <time>2024-08-06T06:03:54Z</time>
      </trkpt>
      <trkpt lat="43.64371" lon="3.38762">
        <ele>142.5</ele>
        <time>2024-08-06T06:03:55Z</time>
      </trkpt>
      <trkpt lat="43.6437" lon="3.38765">
        <ele>142.5</ele>
        <time>2024-08-06T06:03:56Z</time>
      </trkpt>
      <trkpt lat="43.64369" lon="3.38769">
        <ele>142.4</ele>
        <time>2024-08-06T06:03:57Z</time>
      </trkpt>
      <trkpt lat="43.64368" lon="3.38772">
        <ele>142.4</ele>
        <time>2024-08-06T06:03:58Z</time>
      </trkpt>
      <trkpt lat="43.64366" lon="3.38776">
        <ele>142.2</ele>
        <time>2024-08-06T06:03:59Z</time>
      </trkpt>
      <trkpt lat="43.64365" lon="3.38779">
        <ele>142.2</ele>
        <time>2024-08-06T06:04:00Z</time>
      </trkpt>
      <trkpt lat="43.64364" lon="3.38782">
        <ele>142.2</ele>
        <time>2024-08-06T06:04:01Z</time>
      </trkpt>
      <trkpt lat="43.64362" lon="3.38786">
        <ele>142.3</ele>
        <time>2024-08-06T06:04:02Z</time>
      </trkpt>
      <trkpt lat="43.6436" lon="3.38789">
        <ele>142.5</ele>
        <time>2024-08-06T06:04:03Z</time>
      </trkpt>
      <trkpt lat="43.64357" lon="3.38791">
        <ele>142.7</ele>
        <time>2024-08-06T06:04:04Z</time>
      </trkpt>
      <trkpt lat="43.64355" lon="3.38794">
        <ele>142.9</ele>
        <time>2024-08-06T06:04:05Z</time>
      </trkpt>
      <trkpt lat="43.64352" lon="3.38795">
        <ele>143.1</ele>
        <time>2024-08-06T06:04:06Z</time>
      </trkpt>
      <trkpt lat="43.6435" lon="3.38795">
        <ele>143.2</ele>
        <time>2024-08-06T06:04:07Z</time>
      </trkpt>
      <trkpt lat="43.64348" lon="3.38795">
        <ele>143.3</ele>
        <time>2024-08-06T06:04:08Z</time>
      </trkpt>
      <trkpt lat="43.64345" lon="3.38793">
        <ele>143.4</ele>
        <time>2024-08-06T06:04:09Z</time>
      </trkpt>
      <trkpt lat="43.64344" lon="3.38791">
        <ele>143.4</ele>
        <time>2024-08-06T06:04:10Z</time>
      </trkpt>
      <trkpt lat="43.64342" lon="3.38789">
        <ele>143.5</ele>
        <time>2024-08-06T06:04:11Z</time>
      </trkpt>
      <trkpt lat="43.64341" lon="3.38787">
        <ele>143.5</ele>
        <time>2024-08-06T06:04:12Z</time>
      </trkpt>
      <trkpt lat="43.64341" lon="3.38784">
        <ele>143.5</ele>
        <time>2024-08-06T06:04:13Z</time>
      </trkpt>
      <trkpt lat="43.64342" lon="3.3878">
        <ele>143.4</ele>
        <time>2024-08-06T06:04:14Z</time>
      </trkpt>
      <trkpt lat="43.64342" lon="3.38777">
        <ele>143.4</ele>
        <time>2024-08-06T06:04:15Z</time>
      </trkpt>
      <trkpt lat="43.64341" lon="3.38773">
        <ele>143.5</ele>
        <time>2024-08-06T06:04:16Z</time>
      </trkpt>
      <trkpt lat="43.64341" lon="3.3877">
        <ele>143.5</ele>
        <time>2024-08-06T06:04:17Z</time>
      </trkpt>
      <trkpt lat="43.6434" lon="3.38766">
        <ele>143.6</ele>
        <time>2024-08-06T06:04:18Z</time>
      </trkpt>
      <trkpt lat="43.64339" lon="3.38763">
        <ele>143.7</ele>
        <time>2024-08-06T06:04:19Z</time>
      </trkpt>
      <trkpt lat="43.64338" lon="3.38759">
        <ele>143.8</ele>
        <time>2024-08-06T06:04:20Z</time>
      </trkpt>
      <trkpt lat="43.64337" lon="3.38756">
        <ele>143.8</ele>
        <time>2024-08-06T06:04:21Z</time>
      </trkpt>
      <trkpt lat="43.64335" lon="3.38753">
        <ele>143.9</ele>
        <time>2024-08-06T06:04:22Z</time>
      </trkpt>
      <trkpt lat="43.64334" lon="3.3875">
        <ele>144</ele>
        <time>2024-08-06T06:04:23Z</time>
      </trkpt>
      <trkpt lat="43.64332" lon="3.38747">
        <ele>143.9</ele>
        <time>2024-08-06T06:04:24Z</time>
      </trkpt>
      <trkpt lat="43.6433" lon="3.38745">
        <ele>143.8</ele>
        <time>2024-08-06T06:04:25Z</time>
      </trkpt>
      <trkpt lat="43.64328" lon="3.38742">
        <ele>143.7</ele>
        <time>2024-08-06T06:04:26Z</time>
      </trkpt>
      <trkpt lat="43.64326" lon="3.3874">
        <ele>143.6</ele>
        <time>2024-08-06T06:04:27Z</time>
      </trkpt>
      <trkpt lat="43.64324" lon="3.38738">
        <ele>143.6</ele>
        <time>2024-08-06T06:04:28Z</time>
      </trkpt>
      <trkpt lat="43.64323" lon="3.38735">
        <ele>143.5</ele>
        <time>2024-08-06T06:04:29Z</time>
      </trkpt>
      <trkpt lat="43.6432" lon="3.38733">
        <ele>143.4</ele>
        <time>2024-08-06T06:04:30Z</time>
      </trkpt>
      <trkpt lat="43.64317" lon="3.38731">
        <ele>143.3</ele>
        <time>2024-08-06T06:04:31Z</time>
      </trkpt>
      <trkpt lat="43.64315" lon="3.38728">
        <ele>143.2</ele>
        <time>2024-08-06T06:04:32Z</time>
      </trkpt>
      <trkpt lat="43.64312" lon="3.38725">
        <ele>143.1</ele>
        <time>2024-08-06T06:04:33Z</time>
      </trkpt>
      <trkpt lat="43.64309" lon="3.38722">
        <ele>143</ele>
        <time>2024-08-06T06:04:34Z</time>
      </trkpt>
      <trkpt lat="43.64306" lon="3.38719">
        <ele>143</ele>
        <time>2024-08-06T06:04:35Z</time>
      </trkpt>
      <trkpt lat="43.64303" lon="3.38716">
        <ele>143.1</ele>
        <time>2024-08-06T06:04:36Z</time>
      </trkpt>
      <trkpt lat="43.64301" lon="3.38712">
        <ele>143.2</ele>
        <time>2024-08-06T06:04:37Z</time>
      </trkpt>
      <trkpt lat="43.64298" lon="3.38709">
        <ele>143.3</ele>
        <time>2024-08-06T06:04:38Z</time>
      </trkpt>
      <trkpt lat="43.64296" lon="3.38706">
        <ele>143.3</ele>
        <time>2024-08-06T06:04:39Z</time>
      </trkpt>
      <trkpt lat="43.64294" lon="3.38702">
        <ele>143.4</ele>
        <time>2024-08-06T06:04:40Z</time>
      </trkpt>
      <trkpt lat="43.64293" lon="3.38699">
        <ele>143.5</ele>
        <time>2024-08-06T06:04:41Z</time>
      </trkpt>
      <trkpt lat="43.64291" lon="3.38695">
        <ele>143.5</ele>
        <time>2024-08-06T06:04:42Z</time>
      </trkpt>
      <trkpt lat="43.6429" lon="3.38692">
        <ele>143.6</ele>
        <time>2024-08-06T06:04:43Z</time>
      </trkpt>
      <trkpt lat="43.64288" lon="3.3869">
        <ele>143.6</ele>
        <time>2024-08-06T06:04:44Z</time>
      </trkpt>
      <trkpt lat="43.64287" lon="3.38686">
        <ele>143.7</ele>
        <time>2024-08-06T06:04:45Z</time>
      </trkpt>
      <trkpt lat="43.64285" lon="3.38683">
        <ele>143.7</ele>
        <time>2024-08-06T06:04:46Z</time>
      </trkpt>
      <trkpt lat="43.64284" lon="3.3868">
        <ele>143.8</ele>
        <time>2024-08-06T06:04:47Z</time>
      </trkpt>
      <trkpt lat="43.64282" lon="3.38676">
        <ele>143.8</ele>
        <time>2024-08-06T06:04:48Z</time>
      </trkpt>
      <trkpt lat="43.6428" lon="3.38672">
        <ele>143.9</ele>
        <time>2024-08-06T06:04:49Z</time>
      </trkpt>
      <trkpt lat="43.64279" lon="3.38669">
        <ele>144</ele>
        <time>2024-08-06T06:04:50Z</time>
      </trkpt>
      <trkpt lat="43.64277" lon="3.38665">
        <ele>144</ele>
        <time>2024-08-06T06:04:51Z</time>
      </trkpt>
      <trkpt lat="43.64276" lon="3.38662">
        <ele>144.1</ele>
        <time>2024-08-06T06:04:52Z</time>
      </trkpt>
      <trkpt lat="43.64274" lon="3.38658">
        <ele>144.1</ele>
        <time>2024-08-06T06:04:53Z</time>
      </trkpt>
      <trkpt lat="43.64273" lon="3.38655">
        <ele>144.2</ele>
        <time>2024-08-06T06:04:54Z</time>
      </trkpt>
      <trkpt lat="43.64271" lon="3.38651">
        <ele>144.2</ele>
        <time>2024-08-06T06:04:55Z</time>
      </trkpt>
      <trkpt lat="43.64269" lon="3.38648">
        <ele>144.3</ele>
        <time>2024-08-06T06:04:56Z</time>
      </trkpt>
      <trkpt lat="43.64268" lon="3.38644">
        <ele>144.4</ele>
        <time>2024-08-06T06:04:57Z</time>
      </trkpt>
      <trkpt lat="43.64266" lon="3.38641">
        <ele>144.4</ele>
        <time>2024-08-06T06:04:58Z</time>
      </trkpt>
      <trkpt lat="43.64265" lon="3.38638">
        <ele>144.5</ele>
        <time>2024-08-06T06:04:59Z</time>
      </trkpt>
      <trkpt lat="43.64263" lon="3.38635">
        <ele>144.5</ele>
        <time>2024-08-06T06:05:00Z</time>
      </trkpt>
      <trkpt lat="43.64262" lon="3.38631">
        <ele>144.6</ele>
        <time>2024-08-06T06:05:01Z</time>
      </trkpt>
      <trkpt lat="43.6426" lon="3.38627">
        <ele>144.6</ele>
        <time>2024-08-06T06:05:02Z</time>
      </trkpt>
      <trkpt lat="43.64258" lon="3.38624">
        <ele>144.7</ele>
        <time>2024-08-06T06:05:03Z</time>
      </trkpt>
      <trkpt lat="43.64257" lon="3.38621">
        <ele>144.7</ele>
        <time>2024-08-06T06:05:04Z</time>
      </trkpt>
      <trkpt lat="43.64255" lon="3.38618">
        <ele>144.8</ele>
        <time>2024-08-06T06:05:05Z</time>
      </trkpt>
      <trkpt lat="43.64254" lon="3.38615">
        <ele>144.9</ele>
        <time>2024-08-06T06:05:06Z</time>
      </trkpt>
      <trkpt lat="43.64252" lon="3.38611">
        <ele>144.9</ele>
        <time>2024-08-06T06:05:07Z</time>
      </trkpt>
      <trkpt lat="43.64251" lon="3.38608">
        <ele>145</ele>
        <time>2024-08-06T06:05:08Z</time>
      </trkpt>
      <trkpt lat="43.64249" lon="3.38605">
        <ele>145</ele>
        <time>2024-08-06T06:05:09Z</time>
      </trkpt>
      <trkpt lat="43.64248" lon="3.38603">
        <ele>145.1</ele>
        <time>2024-08-06T06:05:10Z</time>
      </trkpt>
      <trkpt lat="43.64246" lon="3.38599">
        <ele>145.1</ele>
        <time>2024-08-06T06:05:11Z</time>
      </trkpt>
      <trkpt lat="43.64245" lon="3.38596">
        <ele>145.2</ele>
        <time>2024-08-06T06:05:12Z</time>
      </trkpt>
      <trkpt lat="43.64243" lon="3.38592">
        <ele>145.3</ele>
        <time>2024-08-06T06:05:13Z</time>
      </trkpt>
      <trkpt lat="43.64242" lon="3.38589">
        <ele>145.3</ele>
        <time>2024-08-06T06:05:14Z</time>
      </trkpt>
      <trkpt lat="43.6424" lon="3.38585">
        <ele>145.4</ele>
        <time>2024-08-06T06:05:15Z</time>
      </trkpt>
      <trkpt lat="43.64239" lon="3.38582">
        <ele>145.4</ele>
        <time>2024-08-06T06:05:16Z</time>
      </trkpt>
      <trkpt lat="43.64238" lon="3.38579">
        <ele>145.4</ele>
        <time>2024-08-06T06:05:17Z</time>
      </trkpt>
      <trkpt lat="43.64237" lon="3.38576">
        <ele>145.5</ele>
        <time>2024-08-06T06:05:18Z</time>
      </trkpt>
      <trkpt lat="43.64236" lon="3.38572">
        <ele>145.5</ele>
        <time>2024-08-06T06:05:19Z</time>
      </trkpt>
      <trkpt lat="43.64235" lon="3.38568">
        <ele>145.5</ele>
        <time>2024-08-06T06:05:20Z</time>
      </trkpt>
      <trkpt lat="43.64235" lon="3.38565">
        <ele>145.5</ele>
        <time>2024-08-06T06:05:21Z</time>
      </trkpt>
      <trkpt lat="43.64234" lon="3.38562">
        <ele>145.6</ele>
        <time>2024-08-06T06:05:22Z</time>
      </trkpt>
      <trkpt lat="43.64234" lon="3.38559">
        <ele>145.6</ele>
        <time>2024-08-06T06:05:23Z</time>
      </trkpt>
      <trkpt lat="43.64233" lon="3.38556">
        <ele>145.6</ele>
        <time>2024-08-06T06:05:24Z</time>
      </trkpt>
      <trkpt lat="43.64233" lon="3.38553">
        <ele>145.6</ele>
        <time>2024-08-06T06:05:25Z</time>
      </trkpt>
      <trkpt lat="43.64233" lon="3.38549">
        <ele>145.5</ele>
        <time>2024-08-06T06:05:26Z</time>
      </trkpt>
      <trkpt lat="43.64233" lon="3.38546">
        <ele>145.5</ele>
        <time>2024-08-06T06:05:27Z</time>
      </trkpt>
      <trkpt lat="43.64233" lon="3.38542">
        <ele>145.4</ele>
        <time>2024-08-06T06:05:28Z</time>
      </trkpt>
      <trkpt lat="43.64233" lon="3.38539">
        <ele>145.4</ele>
        <time>2024-08-06T06:05:29Z</time>
      </trkpt>
      <trkpt lat="43.64233" lon="3.38535">
        <ele>145.3</ele>
        <time>2024-08-06T06:05:30Z</time>
      </trkpt>
      <trkpt lat="43.64233" lon="3.38531">
        <ele>145.3</ele>
        <time>2024-08-06T06:05:31Z</time>
      </trkpt>
      <trkpt lat="43.64233" lon="3.38526">
        <ele>145.2</ele>
        <time>2024-08-06T06:05:32Z</time>
      </trkpt>
      <trkpt lat="43.64234" lon="3.38522">
        <ele>144.9</ele>
        <time>2024-08-06T06:05:33Z</time>
      </trkpt>
      <trkpt lat="43.64234" lon="3.38517">
        <ele>144.8</ele>
        <time>2024-08-06T06:05:34Z</time>
      </trkpt>
      <trkpt lat="43.64235" lon="3.38512">
        <ele>144.5</ele>
        <time>2024-08-06T06:05:35Z</time>
      </trkpt>
      <trkpt lat="43.64235" lon="3.38507">
        <ele>144.3</ele>
        <time>2024-08-06T06:05:36Z</time>
      </trkpt>
      <trkpt lat="43.64236" lon="3.38501">
        <ele>144</ele>
        <time>2024-08-06T06:05:37Z</time>
      </trkpt>
      <trkpt lat="43.64237" lon="3.38496">
        <ele>143.9</ele>
        <time>2024-08-06T06:05:38Z</time>
      </trkpt>
      <trkpt lat="43.64237" lon="3.3849">
        <ele>143.9</ele>
        <time>2024-08-06T06:05:39Z</time>
      </trkpt>
      <trkpt lat="43.64238" lon="3.38484">
        <ele>143.9</ele>
        <time>2024-08-06T06:05:40Z</time>
      </trkpt>
      <trkpt lat="43.64239" lon="3.38478">
        <ele>143.8</ele>
        <time>2024-08-06T06:05:41Z</time>
      </trkpt>
      <trkpt lat="43.64239" lon="3.38472">
        <ele>143.8</ele>
        <time>2024-08-06T06:05:42Z</time>
      </trkpt>
      <trkpt lat="43.64239" lon="3.38466">
        <ele>143.7</ele>
        <time>2024-08-06T06:05:43Z</time>
      </trkpt>
      <trkpt lat="43.64239" lon="3.3846">
        <ele>143.6</ele>
        <time>2024-08-06T06:05:44Z</time>
      </trkpt>
      <trkpt lat="43.64239" lon="3.38453">
        <ele>143.5</ele>
        <time>2024-08-06T06:05:45Z</time>
      </trkpt>
      <trkpt lat="43.64239" lon="3.38447">
        <ele>143.4</ele>
        <time>2024-08-06T06:05:46Z</time>
      </trkpt>
      <trkpt lat="43.64239" lon="3.38441">
        <ele>143.4</ele>
        <time>2024-08-06T06:05:47Z</time>
      </trkpt>
      <trkpt lat="43.64239" lon="3.38434">
        <ele>143.4</ele>
        <time>2024-08-06T06:05:48Z</time>
      </trkpt>
      <trkpt lat="43.64238" lon="3.38428">
        <ele>143.4</ele>
        <time>2024-08-06T06:05:49Z</time>
      </trkpt>
      <trkpt lat="43.64238" lon="3.38422">
        <ele>143.4</ele>
        <time>2024-08-06T06:05:50Z</time>
      </trkpt>
      <trkpt lat="43.64238" lon="3.38416">
        <ele>143.4</ele>
        <time>2024-08-06T06:05:51Z</time>
      </trkpt>
      <trkpt lat="43.64237" lon="3.3841">
        <ele>143.6</ele>
        <time>2024-08-06T06:05:52Z</time>
      </trkpt>
      <trkpt lat="43.64237" lon="3.38404">
        <ele>143.7</ele>
        <time>2024-08-06T06:05:53Z</time>
      </trkpt>
      <trkpt lat="43.64237" lon="3.38399">
        <ele>143.8</ele>
        <time>2024-08-06T06:05:54Z</time>
      </trkpt>
      <trkpt lat="43.64238" lon="3.38395">
        <ele>143.8</ele>
        <time>2024-08-06T06:05:55Z</time>
      </trkpt>
      <trkpt lat="43.6424" lon="3.38389">
        <ele>143.7</ele>
        <time>2024-08-06T06:05:56Z</time>
      </trkpt>
      <trkpt lat="43.64239" lon="3.38383">
        <ele>143.9</ele>
        <time>2024-08-06T06:05:57Z</time>
      </trkpt>
      <trkpt lat="43.64238" lon="3.38376">
        <ele>144.1</ele>
        <time>2024-08-06T06:05:58Z</time>
      </trkpt>
      <trkpt lat="43.64239" lon="3.3837">
        <ele>144.2</ele>
        <time>2024-08-06T06:05:59Z</time>
      </trkpt>
      <trkpt lat="43.64239" lon="3.38367">
        <ele>144.3</ele>
        <time>2024-08-06T06:06:00Z</time>
      </trkpt>
      <trkpt lat="43.64239" lon="3.38365">
        <ele>144.3</ele>
        <time>2024-08-06T06:06:01Z</time>
      </trkpt>
      <trkpt lat="43.64239" lon="3.38361">
        <ele>144.4</ele>
        <time>2024-08-06T06:06:02Z</time>
      </trkpt>
      <trkpt lat="43.64239" lon="3.38356">
        <ele>144.7</ele>
        <time>2024-08-06T06:06:03Z</time>
      </trkpt>
      <trkpt lat="43.64239" lon="3.38351">
        <ele>145</ele>
        <time>2024-08-06T06:06:04Z</time>
      </trkpt>
      <trkpt lat="43.64238" lon="3.38347">
        <ele>145.4</ele>
        <time>2024-08-06T06:06:05Z</time>
      </trkpt>
      <trkpt lat="43.64239" lon="3.38343">
        <ele>145.6</ele>
        <time>2024-08-06T06:06:06Z</time>
      </trkpt>
      <trkpt lat="43.6424" lon="3.3834">
        <ele>145.7</ele>
        <time>2024-08-06T06:06:07Z</time>
      </trkpt>
      <trkpt lat="43.64241" lon="3.38337">
        <ele>145.8</ele>
        <time>2024-08-06T06:06:08Z</time>
      </trkpt>
      <trkpt lat="43.64242" lon="3.38334">
        <ele>145.8</ele>
        <time>2024-08-06T06:06:09Z</time>
      </trkpt>
      <trkpt lat="43.64244" lon="3.3833">
        <ele>145.7</ele>
        <time>2024-08-06T06:06:10Z</time>
      </trkpt>
      <trkpt lat="43.64245" lon="3.38325">
        <ele>145.8</ele>
        <time>2024-08-06T06:06:11Z</time>
      </trkpt>
      <trkpt lat="43.64247" lon="3.38319">
        <ele>145.8</ele>
        <time>2024-08-06T06:06:12Z</time>
      </trkpt>
      <trkpt lat="43.64249" lon="3.38314">
        <ele>145.8</ele>
        <time>2024-08-06T06:06:13Z</time>
      </trkpt>
      <trkpt lat="43.64251" lon="3.38309">
        <ele>145.8</ele>
        <time>2024-08-06T06:06:14Z</time>
      </trkpt>
      <trkpt lat="43.64252" lon="3.38305">
        <ele>145.8</ele>
        <time>2024-08-06T06:06:15Z</time>
      </trkpt>
      <trkpt lat="43.64253" lon="3.383">
        <ele>145.7</ele>
        <time>2024-08-06T06:06:16Z</time>
      </trkpt>
      <trkpt lat="43.64254" lon="3.38296">
        <ele>145.6</ele>
        <time>2024-08-06T06:06:17Z</time>
      </trkpt>
      <trkpt lat="43.64256" lon="3.38291">
        <ele>145.5</ele>
        <time>2024-08-06T06:06:18Z</time>
      </trkpt>
      <trkpt lat="43.64257" lon="3.38284">
        <ele>145.4</ele>
        <time>2024-08-06T06:06:19Z</time>
      </trkpt>
      <trkpt lat="43.64258" lon="3.38277">
        <ele>145.4</ele>
        <time>2024-08-06T06:06:20Z</time>
      </trkpt>
      <trkpt lat="43.64258" lon="3.38271">
        <ele>145.5</ele>
        <time>2024-08-06T06:06:21Z</time>
      </trkpt>
      <trkpt lat="43.64258" lon="3.38265">
        <ele>145.6</ele>
        <time>2024-08-06T06:06:22Z</time>
      </trkpt>
      <trkpt lat="43.64257" lon="3.38259">
        <ele>145.7</ele>
        <time>2024-08-06T06:06:23Z</time>
      </trkpt>
      <trkpt lat="43.64256" lon="3.38254">
        <ele>145.8</ele>
        <time>2024-08-06T06:06:24Z</time>
      </trkpt>
      <trkpt lat="43.64254" lon="3.38249">
        <ele>145.9</ele>
        <time>2024-08-06T06:06:25Z</time>
      </trkpt>
      <trkpt lat="43.64251" lon="3.38245">
        <ele>146</ele>
        <time>2024-08-06T06:06:26Z</time>
      </trkpt>
      <trkpt lat="43.64248" lon="3.38242">
        <ele>146.1</ele>
        <time>2024-08-06T06:06:27Z</time>
      </trkpt>
      <trkpt lat="43.64245" lon="3.38239">
        <ele>146.4</ele>
        <time>2024-08-06T06:06:28Z</time>
      </trkpt>
      <trkpt lat="43.64241" lon="3.38237">
        <ele>146.6</ele>
        <time>2024-08-06T06:06:29Z</time>
      </trkpt>
      <trkpt lat="43.64236" lon="3.38234">
        <ele>147</ele>
        <time>2024-08-06T06:06:30Z</time>
      </trkpt>
      <trkpt lat="43.64232" lon="3.38231">
        <ele>147.3</ele>
        <time>2024-08-06T06:06:31Z</time>
      </trkpt>
      <trkpt lat="43.64227" lon="3.3823">
        <ele>147.7</ele>
        <time>2024-08-06T06:06:32Z</time>
      </trkpt>
      <trkpt lat="43.64224" lon="3.38229">
        <ele>147.9</ele>
        <time>2024-08-06T06:06:33Z</time>
      </trkpt>
      <trkpt lat="43.64221" lon="3.38228">
        <ele>148</ele>
        <time>2024-08-06T06:06:34Z</time>
      </trkpt>
      <trkpt lat="43.64218" lon="3.38227">
        <ele>148</ele>
        <time>2024-08-06T06:06:35Z</time>
      </trkpt>
      <trkpt lat="43.64216" lon="3.38226">
        <ele>148</ele>
        <time>2024-08-06T06:06:36Z</time>
      </trkpt>
      <trkpt lat="43.64213" lon="3.38225">
        <ele>148</ele>
        <time>2024-08-06T06:06:37Z</time>
      </trkpt>
      <trkpt lat="43.6421" lon="3.38225">
        <ele>148</ele>
        <time>2024-08-06T06:06:38Z</time>
      </trkpt>
      <trkpt lat="43.64207" lon="3.38224">
        <ele>148</ele>
        <time>2024-08-06T06:06:39Z</time>
      </trkpt>
      <trkpt lat="43.64204" lon="3.38224">
        <ele>148</ele>
        <time>2024-08-06T06:06:40Z</time>
      </trkpt>
      <trkpt lat="43.64201" lon="3.38224">
        <ele>148</ele>
        <time>2024-08-06T06:06:41Z</time>
      </trkpt>
      <trkpt lat="43.64199" lon="3.38226">
        <ele>148.1</ele>
        <time>2024-08-06T06:06:42Z</time>
      </trkpt>
      <trkpt lat="43.64196" lon="3.38227">
        <ele>148.2</ele>
        <time>2024-08-06T06:06:43Z</time>
      </trkpt>
      <trkpt lat="43.64192" lon="3.38227">
        <ele>148.3</ele>
        <time>2024-08-06T06:06:44Z</time>
      </trkpt>
      <trkpt lat="43.64187" lon="3.38226">
        <ele>148.7</ele>
        <time>2024-08-06T06:06:45Z</time>
      </trkpt>
      <trkpt lat="43.64182" lon="3.38225">
        <ele>149</ele>
        <time>2024-08-06T06:06:46Z</time>
      </trkpt>
      <trkpt lat="43.64178" lon="3.38225">
        <ele>149.3</ele>
        <time>2024-08-06T06:06:47Z</time>
      </trkpt>
      <trkpt lat="43.64175" lon="3.38225">
        <ele>149.5</ele>
        <time>2024-08-06T06:06:48Z</time>
      </trkpt>
      <trkpt lat="43.64173" lon="3.38225">
        <ele>149.6</ele>
        <time>2024-08-06T06:06:49Z</time>
      </trkpt>
      <trkpt lat="43.6417" lon="3.38225">
        <ele>149.9</ele>
        <time>2024-08-06T06:06:50Z</time>
      </trkpt>
      <trkpt lat="43.64167" lon="3.38223">
        <ele>150</ele>
        <time>2024-08-06T06:06:51Z</time>
      </trkpt>
      <trkpt lat="43.64165" lon="3.38221">
        <ele>150</ele>
        <time>2024-08-06T06:06:52Z</time>
      </trkpt>
      <trkpt lat="43.64163" lon="3.38219">
        <ele>149.9</ele>
        <time>2024-08-06T06:06:53Z</time>
      </trkpt>
      <trkpt lat="43.64162" lon="3.38217">
        <ele>149.8</ele>
        <time>2024-08-06T06:06:54Z</time>
      </trkpt>
      <trkpt lat="43.64161" lon="3.38213">
        <ele>149.7</ele>
        <time>2024-08-06T06:06:55Z</time>
      </trkpt>
      <trkpt lat="43.6416" lon="3.38211">
        <ele>149.6</ele>
        <time>2024-08-06T06:06:56Z</time>
      </trkpt>
      <trkpt lat="43.64159" lon="3.38208">
        <ele>149.5</ele>
        <time>2024-08-06T06:06:57Z</time>
      </trkpt>
      <trkpt lat="43.64157" lon="3.38207">
        <ele>149.5</ele>
        <time>2024-08-06T06:06:58Z</time>
      </trkpt>
      <trkpt lat="43.64154" lon="3.38205">
        <ele>149.4</ele>
        <time>2024-08-06T06:06:59Z</time>
      </trkpt>
      <trkpt lat="43.64151" lon="3.38206">
        <ele>149.4</ele>
        <time>2024-08-06T06:07:00Z</time>
      </trkpt>
      <trkpt lat="43.64148" lon="3.38208">
        <ele>149.5</ele>
        <time>2024-08-06T06:07:01Z</time>
      </trkpt>
      <trkpt lat="43.64146" lon="3.3821">
        <ele>149.6</ele>
        <time>2024-08-06T06:07:02Z</time>
      </trkpt>
      <trkpt lat="43.64143" lon="3.38212">
        <ele>149.6</ele>
        <time>2024-08-06T06:07:03Z</time>
      </trkpt>
      <trkpt lat="43.6414" lon="3.38213">
        <ele>149.7</ele>
        <time>2024-08-06T06:07:04Z</time>
      </trkpt>
      <trkpt lat="43.64137" lon="3.38214">
        <ele>149.7</ele>
        <time>2024-08-06T06:07:05Z</time>
      </trkpt>
      <trkpt lat="43.64134" lon="3.38214">
        <ele>149.8</ele>
        <time>2024-08-06T06:07:06Z</time>
      </trkpt>
      <trkpt lat="43.64132" lon="3.38213">
        <ele>149.8</ele>
        <time>2024-08-06T06:07:07Z</time>
      </trkpt>
      <trkpt lat="43.64129" lon="3.38211">
        <ele>149.7</ele>
        <time>2024-08-06T06:07:08Z</time>
      </trkpt>
      <trkpt lat="43.64127" lon="3.3821">
        <ele>149.7</ele>
        <time>2024-08-06T06:07:09Z</time>
      </trkpt>
      <trkpt lat="43.64123" lon="3.3821">
        <ele>149.8</ele>
        <time>2024-08-06T06:07:10Z</time>
      </trkpt>
      <trkpt lat="43.6412" lon="3.38209">
        <ele>149.8</ele>
        <time>2024-08-06T06:07:11Z</time>
      </trkpt>
      <trkpt lat="43.64117" lon="3.3821">
        <ele>149.9</ele>
        <time>2024-08-06T06:07:12Z</time>
      </trkpt>
      <trkpt lat="43.64113" lon="3.3821">
        <ele>150</ele>
        <time>2024-08-06T06:07:13Z</time>
      </trkpt>
      <trkpt lat="43.6411" lon="3.38211">
        <ele>150.1</ele>
        <time>2024-08-06T06:07:14Z</time>
      </trkpt>
      <trkpt lat="43.64106" lon="3.38214">
        <ele>150.3</ele>
        <time>2024-08-06T06:07:15Z</time>
      </trkpt>
      <trkpt lat="43.64104" lon="3.38217">
        <ele>150.5</ele>
        <time>2024-08-06T06:07:16Z</time>
      </trkpt>
      <trkpt lat="43.64102" lon="3.3822">
        <ele>150.6</ele>
        <time>2024-08-06T06:07:17Z</time>
      </trkpt>
      <trkpt lat="43.641" lon="3.38223">
        <ele>150.8</ele>
        <time>2024-08-06T06:07:18Z</time>
      </trkpt>
      <trkpt lat="43.64098" lon="3.38226">
        <ele>151.2</ele>
        <time>2024-08-06T06:07:19Z</time>
      </trkpt>
      <trkpt lat="43.64096" lon="3.38229">
        <ele>151.4</ele>
        <time>2024-08-06T06:07:20Z</time>
      </trkpt>
      <trkpt lat="43.64094" lon="3.38231">
        <ele>151.7</ele>
        <time>2024-08-06T06:07:21Z</time>
      </trkpt>
      <trkpt lat="43.64092" lon="3.38233">
        <ele>151.9</ele>
        <time>2024-08-06T06:07:22Z</time>
      </trkpt>
      <trkpt lat="43.64089" lon="3.38235">
        <ele>152.1</ele>
        <time>2024-08-06T06:07:23Z</time>
      </trkpt>
      <trkpt lat="43.64087" lon="3.38236">
        <ele>152.3</ele>
        <time>2024-08-06T06:07:24Z</time>
      </trkpt>
      <trkpt lat="43.64084" lon="3.38237">
        <ele>152.5</ele>
        <time>2024-08-06T06:07:25Z</time>
      </trkpt>
      <trkpt lat="43.64082" lon="3.38238">
        <ele>152.6</ele>
        <time>2024-08-06T06:07:26Z</time>
      </trkpt>
      <trkpt lat="43.6408" lon="3.38239">
        <ele>152.6</ele>
        <time>2024-08-06T06:07:27Z</time>
      </trkpt>
      <trkpt lat="43.64078" lon="3.3824">
        <ele>152.6</ele>
        <time>2024-08-06T06:07:28Z</time>
      </trkpt>
      <trkpt lat="43.64076" lon="3.38242">
        <ele>152.7</ele>
        <time>2024-08-06T06:07:29Z</time>
      </trkpt>
      <trkpt lat="43.64074" lon="3.38243">
        <ele>152.7</ele>
        <time>2024-08-06T06:07:30Z</time>
      </trkpt>
      <trkpt lat="43.64073" lon="3.38246">
        <ele>152.9</ele>
        <time>2024-08-06T06:07:31Z</time>
      </trkpt>
      <trkpt lat="43.64072" lon="3.38249">
        <ele>153</ele>
        <time>2024-08-06T06:07:32Z</time>
      </trkpt>
      <trkpt lat="43.6407" lon="3.38252">
        <ele>153</ele>
        <time>2024-08-06T06:07:33Z</time>
      </trkpt>
      <trkpt lat="43.64069" lon="3.38256">
        <ele>153.1</ele>
        <time>2024-08-06T06:07:34Z</time>
      </trkpt>
      <trkpt lat="43.64069" lon="3.38259">
        <ele>153.2</ele>
        <time>2024-08-06T06:07:35Z</time>
      </trkpt>
      <trkpt lat="43.64069" lon="3.38262">
        <ele>153.2</ele>
        <time>2024-08-06T06:07:36Z</time>
      </trkpt>
      <trkpt lat="43.64071" lon="3.38265">
        <ele>153.2</ele>
        <time>2024-08-06T06:07:37Z</time>
      </trkpt>
      <trkpt lat="43.64072" lon="3.38269">
        <ele>153.3</ele>
        <time>2024-08-06T06:07:38Z</time>
      </trkpt>
      <trkpt lat="43.64073" lon="3.38273">
        <ele>153.3</ele>
        <time>2024-08-06T06:07:39Z</time>
      </trkpt>
      <trkpt lat="43.64073" lon="3.38277">
        <ele>153.4</ele>
        <time>2024-08-06T06:07:40Z</time>
      </trkpt>
      <trkpt lat="43.64073" lon="3.3828">
        <ele>153.3</ele>
        <time>2024-08-06T06:07:41Z</time>
      </trkpt>
      <trkpt lat="43.64072" lon="3.38283">
        <ele>153.3</ele>
        <time>2024-08-06T06:07:42Z</time>
      </trkpt>
      <trkpt lat="43.6407" lon="3.38287">
        <ele>153.3</ele>
        <time>2024-08-06T06:07:43Z</time>
      </trkpt>
      <trkpt lat="43.64068" lon="3.38289">
        <ele>153.3</ele>
        <time>2024-08-06T06:07:44Z</time>
      </trkpt>
      <trkpt lat="43.64066" lon="3.38291">
        <ele>153.3</ele>
        <time>2024-08-06T06:07:45Z</time>
      </trkpt>
      <trkpt lat="43.64063" lon="3.38293">
        <ele>153.3</ele>
        <time>2024-08-06T06:07:46Z</time>
      </trkpt>
      <trkpt lat="43.6406" lon="3.38295">
        <ele>153.3</ele>
        <time>2024-08-06T06:07:47Z</time>
      </trkpt>
      <trkpt lat="43.64057" lon="3.38297">
        <ele>153.3</ele>
        <time>2024-08-06T06:07:48Z</time>
      </trkpt>
      <trkpt lat="43.64054" lon="3.38299">
        <ele>153.3</ele>
        <time>2024-08-06T06:07:49Z</time>
      </trkpt>
      <trkpt lat="43.64051" lon="3.38301">
        <ele>153.3</ele>
        <time>2024-08-06T06:07:50Z</time>
      </trkpt>
      <trkpt lat="43.64048" lon="3.38301">
        <ele>153.4</ele>
        <time>2024-08-06T06:07:51Z</time>
      </trkpt>
      <trkpt lat="43.64045" lon="3.38301">
        <ele>153.5</ele>
        <time>2024-08-06T06:07:52Z</time>
      </trkpt>
      <trkpt lat="43.64043" lon="3.383">
        <ele>153.7</ele>
        <time>2024-08-06T06:07:53Z</time>
      </trkpt>
      <trkpt lat="43.6404" lon="3.38299">
        <ele>153.8</ele>
        <time>2024-08-06T06:07:54Z</time>
      </trkpt>
      <trkpt lat="43.64037" lon="3.38298">
        <ele>153.9</ele>
        <time>2024-08-06T06:07:55Z</time>
      </trkpt>
      <trkpt lat="43.64035" lon="3.38297">
        <ele>154</ele>
        <time>2024-08-06T06:07:56Z</time>
      </trkpt>
      <trkpt lat="43.64033" lon="3.38296">
        <ele>154.2</ele>
        <time>2024-08-06T06:07:57Z</time>
      </trkpt>
      <trkpt lat="43.64031" lon="3.38296">
        <ele>154.2</ele>
        <time>2024-08-06T06:07:58Z</time>
      </trkpt>
      <trkpt lat="43.64029" lon="3.38295">
        <ele>154.3</ele>
        <time>2024-08-06T06:07:59Z</time>
      </trkpt>
      <trkpt lat="43.64026" lon="3.38294">
        <ele>154.5</ele>
        <time>2024-08-06T06:08:00Z</time>
      </trkpt>
      <trkpt lat="43.64024" lon="3.38293">
        <ele>154.7</ele>
        <time>2024-08-06T06:08:01Z</time>
      </trkpt>
      <trkpt lat="43.64021" lon="3.38293">
        <ele>154.8</ele>
        <time>2024-08-06T06:08:02Z</time>
      </trkpt>
      <trkpt lat="43.64018" lon="3.38293">
        <ele>155</ele>
        <time>2024-08-06T06:08:03Z</time>
      </trkpt>
      <trkpt lat="43.64015" lon="3.38293">
        <ele>155.2</ele>
        <time>2024-08-06T06:08:04Z</time>
      </trkpt>
      <trkpt lat="43.64013" lon="3.38292">
        <ele>155.3</ele>
        <time>2024-08-06T06:08:05Z</time>
      </trkpt>
      <trkpt lat="43.6401" lon="3.38292">
        <ele>155.5</ele>
        <time>2024-08-06T06:08:06Z</time>
      </trkpt>
      <trkpt lat="43.64007" lon="3.38292">
        <ele>155.6</ele>
        <time>2024-08-06T06:08:07Z</time>
      </trkpt>
      <trkpt lat="43.64004" lon="3.38291">
        <ele>155.8</ele>
        <time>2024-08-06T06:08:08Z</time>
      </trkpt>
      <trkpt lat="43.64002" lon="3.38289">
        <ele>155.9</ele>
        <time>2024-08-06T06:08:09Z</time>
      </trkpt>
      <trkpt lat="43.63999" lon="3.38287">
        <ele>156</ele>
        <time>2024-08-06T06:08:10Z</time>
      </trkpt>
      <trkpt lat="43.63997" lon="3.38286">
        <ele>156.1</ele>
        <time>2024-08-06T06:08:11Z</time>
      </trkpt>
      <trkpt lat="43.63994" lon="3.38285">
        <ele>156.2</ele>
        <time>2024-08-06T06:08:12Z</time>
      </trkpt>
      <trkpt lat="43.63991" lon="3.38285">
        <ele>156.3</ele>
        <time>2024-08-06T06:08:13Z</time>
      </trkpt>
      <trkpt lat="43.63988" lon="3.38285">
        <ele>156.4</ele>
        <time>2024-08-06T06:08:14Z</time>
      </trkpt>
      <trkpt lat="43.63985" lon="3.38285">
        <ele>156.5</ele>
        <time>2024-08-06T06:08:15Z</time>
      </trkpt>
      <trkpt lat="43.63983" lon="3.38285">
        <ele>156.6</ele>
        <time>2024-08-06T06:08:16Z</time>
      </trkpt>
      <trkpt lat="43.6398" lon="3.38285">
        <ele>156.7</ele>
        <time>2024-08-06T06:08:17Z</time>
      </trkpt>
      <trkpt lat="43.63978" lon="3.38286">
        <ele>156.8</ele>
        <time>2024-08-06T06:08:18Z</time>
      </trkpt>
      <trkpt lat="43.63975" lon="3.38286">
        <ele>156.9</ele>
        <time>2024-08-06T06:08:19Z</time>
      </trkpt>
      <trkpt lat="43.63973" lon="3.38288">
        <ele>157</ele>
        <time>2024-08-06T06:08:20Z</time>
      </trkpt>
      <trkpt lat="43.63971" lon="3.38289">
        <ele>157</ele>
        <time>2024-08-06T06:08:21Z</time>
      </trkpt>
      <trkpt lat="43.63969" lon="3.38291">
        <ele>157.1</ele>
        <time>2024-08-06T06:08:22Z</time>
      </trkpt>
      <trkpt lat="43.63967" lon="3.38293">
        <ele>157.1</ele>
        <time>2024-08-06T06:08:23Z</time>
      </trkpt>
      <trkpt lat="43.63965" lon="3.38296">
        <ele>157.2</ele>
        <time>2024-08-06T06:08:24Z</time>
      </trkpt>
      <trkpt lat="43.63963" lon="3.38297">
        <ele>157.2</ele>
        <time>2024-08-06T06:08:25Z</time>
      </trkpt>
      <trkpt lat="43.63961" lon="3.38299">
        <ele>157.3</ele>
        <time>2024-08-06T06:08:26Z</time>
      </trkpt>
      <trkpt lat="43.6396" lon="3.38303">
        <ele>157.4</ele>
        <time>2024-08-06T06:08:27Z</time>
      </trkpt>
      <trkpt lat="43.63958" lon="3.38305">
        <ele>157.5</ele>
        <time>2024-08-06T06:08:28Z</time>
      </trkpt>
      <trkpt lat="43.63956" lon="3.38309">
        <ele>157.6</ele>
        <time>2024-08-06T06:08:29Z</time>
      </trkpt>
      <trkpt lat="43.63953" lon="3.38311">
        <ele>157.7</ele>
        <time>2024-08-06T06:08:30Z</time>
      </trkpt>
      <trkpt lat="43.6395" lon="3.38313">
        <ele>157.8</ele>
        <time>2024-08-06T06:08:31Z</time>
      </trkpt>
      <trkpt lat="43.63946" lon="3.38314">
        <ele>157.9</ele>
        <time>2024-08-06T06:08:32Z</time>
      </trkpt>
      <trkpt lat="43.63942" lon="3.38316">
        <ele>158</ele>
        <time>2024-08-06T06:08:33Z</time>
      </trkpt>
      <trkpt lat="43.63938" lon="3.38317">
        <ele>158.1</ele>
        <time>2024-08-06T06:08:34Z</time>
      </trkpt>
      <trkpt lat="43.63934" lon="3.38318">
        <ele>158.2</ele>
        <time>2024-08-06T06:08:35Z</time>
      </trkpt>
      <trkpt lat="43.63931" lon="3.38319">
        <ele>158.2</ele>
        <time>2024-08-06T06:08:36Z</time>
      </trkpt>
      <trkpt lat="43.63929" lon="3.3832">
        <ele>158.3</ele>
        <time>2024-08-06T06:08:37Z</time>
      </trkpt>
      <trkpt lat="43.63927" lon="3.3832">
        <ele>158.3</ele>
        <time>2024-08-06T06:08:38Z</time>
      </trkpt>
      <trkpt lat="43.63924" lon="3.3832">
        <ele>158.4</ele>
        <time>2024-08-06T06:08:39Z</time>
      </trkpt>
      <trkpt lat="43.63918" lon="3.38321">
        <ele>158.5</ele>
        <time>2024-08-06T06:08:40Z</time>
      </trkpt>
      <trkpt lat="43.63913" lon="3.3832">
        <ele>158.7</ele>
        <time>2024-08-06T06:08:41Z</time>
      </trkpt>
      <trkpt lat="43.63908" lon="3.38318">
        <ele>158.8</ele>
        <time>2024-08-06T06:08:42Z</time>
      </trkpt>
      <trkpt lat="43.63903" lon="3.38316">
        <ele>158.9</ele>
        <time>2024-08-06T06:08:43Z</time>
      </trkpt>
      <trkpt lat="43.639" lon="3.38313">
        <ele>158.9</ele>
        <time>2024-08-06T06:08:44Z</time>
      </trkpt>
      <trkpt lat="43.63897" lon="3.3831">
        <ele>158.9</ele>
        <time>2024-08-06T06:08:45Z</time>
      </trkpt>
      <trkpt lat="43.63894" lon="3.38306">
        <ele>158.8</ele>
        <time>2024-08-06T06:08:46Z</time>
      </trkpt>
      <trkpt lat="43.63891" lon="3.38303">
        <ele>158.8</ele>
        <time>2024-08-06T06:08:47Z</time>
      </trkpt>
      <trkpt lat="43.63887" lon="3.383">
        <ele>158.9</ele>
        <time>2024-08-06T06:08:48Z</time>
      </trkpt>
      <trkpt lat="43.63885" lon="3.38299">
        <ele>159</ele>
        <time>2024-08-06T06:08:49Z</time>
      </trkpt>
      <trkpt lat="43.63882" lon="3.38298">
        <ele>159.2</ele>
        <time>2024-08-06T06:08:50Z</time>
      </trkpt>
      <trkpt lat="43.63879" lon="3.38298">
        <ele>159.4</ele>
        <time>2024-08-06T06:08:51Z</time>
      </trkpt>
      <trkpt lat="43.63877" lon="3.383">
        <ele>159.7</ele>
        <time>2024-08-06T06:08:52Z</time>
      </trkpt>
      <trkpt lat="43.63874" lon="3.38303">
        <ele>160</ele>
        <time>2024-08-06T06:08:53Z</time>
      </trkpt>
      <trkpt lat="43.63872" lon="3.38305">
        <ele>160.2</ele>
        <time>2024-08-06T06:08:54Z</time>
      </trkpt>
      <trkpt lat="43.63869" lon="3.38306">
        <ele>160.4</ele>
        <time>2024-08-06T06:08:55Z</time>
      </trkpt>
      <trkpt lat="43.63866" lon="3.38305">
        <ele>160.6</ele>
        <time>2024-08-06T06:08:56Z</time>
      </trkpt>
      <trkpt lat="43.63863" lon="3.38303">
        <ele>160.8</ele>
        <time>2024-08-06T06:08:57Z</time>
      </trkpt>
      <trkpt lat="43.6386" lon="3.383">
        <ele>160.8</ele>
        <time>2024-08-06T06:08:58Z</time>
      </trkpt>
      <trkpt lat="43.63857" lon="3.38297">
        <ele>160.9</ele>
        <time>2024-08-06T06:08:59Z</time>
      </trkpt>
      <trkpt lat="43.63855" lon="3.38294">
        <ele>160.9</ele>
        <time>2024-08-06T06:09:00Z</time>
      </trkpt>
      <trkpt lat="43.63852" lon="3.38292">
        <ele>161</ele>
        <time>2024-08-06T06:09:01Z</time>
      </trkpt>
      <trkpt lat="43.6385" lon="3.3829">
        <ele>161.1</ele>
        <time>2024-08-06T06:09:02Z</time>
      </trkpt>
      <trkpt lat="43.63847" lon="3.38288">
        <ele>161.2</ele>
        <time>2024-08-06T06:09:03Z</time>
      </trkpt>
      <trkpt lat="43.63844" lon="3.38287">
        <ele>161.4</ele>
        <time>2024-08-06T06:09:04Z</time>
      </trkpt>
      <trkpt lat="43.63842" lon="3.38285">
        <ele>161.5</ele>
        <time>2024-08-06T06:09:05Z</time>
      </trkpt>
      <trkpt lat="43.63839" lon="3.38284">
        <ele>161.6</ele>
        <time>2024-08-06T06:09:06Z</time>
      </trkpt>
      <trkpt lat="43.63836" lon="3.38285">
        <ele>161.8</ele>
        <time>2024-08-06T06:09:07Z</time>
      </trkpt>
      <trkpt lat="43.63834" lon="3.38286">
        <ele>162</ele>
        <time>2024-08-06T06:09:08Z</time>
      </trkpt>
      <trkpt lat="43.63831" lon="3.38286">
        <ele>162.1</ele>
        <time>2024-08-06T06:09:09Z</time>
      </trkpt>
      <trkpt lat="43.63829" lon="3.38285">
        <ele>162.3</ele>
        <time>2024-08-06T06:09:10Z</time>
      </trkpt>
      <trkpt lat="43.63827" lon="3.38282">
        <ele>162.4</ele>
        <time>2024-08-06T06:09:11Z</time>
      </trkpt>
      <trkpt lat="43.63825" lon="3.38279">
        <ele>162.6</ele>
        <time>2024-08-06T06:09:12Z</time>
      </trkpt>
      <trkpt lat="43.63823" lon="3.38276">
        <ele>162.7</ele>
        <time>2024-08-06T06:09:13Z</time>
      </trkpt>
      <trkpt lat="43.6382" lon="3.38273">
        <ele>162.9</ele>
        <time>2024-08-06T06:09:14Z</time>
      </trkpt>
      <trkpt lat="43.63817" lon="3.38269">
        <ele>163</ele>
        <time>2024-08-06T06:09:15Z</time>
      </trkpt>
      <trkpt lat="43.63815" lon="3.38266">
        <ele>163.2</ele>
        <time>2024-08-06T06:09:16Z</time>
      </trkpt>
      <trkpt lat="43.63813" lon="3.38263">
        <ele>163.3</ele>
        <time>2024-08-06T06:09:17Z</time>
      </trkpt>
      <trkpt lat="43.63811" lon="3.38261">
        <ele>163.5</ele>
        <time>2024-08-06T06:09:18Z</time>
      </trkpt>
      <trkpt lat="43.63809" lon="3.38259">
        <ele>163.7</ele>
        <time>2024-08-06T06:09:19Z</time>
      </trkpt>
      <trkpt lat="43.63807" lon="3.38257">
        <ele>163.9</ele>
        <time>2024-08-06T06:09:20Z</time>
      </trkpt>
      <trkpt lat="43.63805" lon="3.38257">
        <ele>164</ele>
        <time>2024-08-06T06:09:21Z</time>
      </trkpt>
      <trkpt lat="43.63803" lon="3.38256">
        <ele>164.2</ele>
        <time>2024-08-06T06:09:22Z</time>
      </trkpt>
      <trkpt lat="43.638" lon="3.38256">
        <ele>164.4</ele>
        <time>2024-08-06T06:09:23Z</time>
      </trkpt>
      <trkpt lat="43.63798" lon="3.38255">
        <ele>164.5</ele>
        <time>2024-08-06T06:09:24Z</time>
      </trkpt>
      <trkpt lat="43.63795" lon="3.38255">
        <ele>164.8</ele>
        <time>2024-08-06T06:09:25Z</time>
      </trkpt>
      <trkpt lat="43.63793" lon="3.38254">
        <ele>164.9</ele>
        <time>2024-08-06T06:09:26Z</time>
      </trkpt>
      <trkpt lat="43.63792" lon="3.38251">
        <ele>165</ele>
        <time>2024-08-06T06:09:27Z</time>
      </trkpt>
      <trkpt lat="43.63791" lon="3.38249">
        <ele>165</ele>
        <time>2024-08-06T06:09:28Z</time>
      </trkpt>
      <trkpt lat="43.6379" lon="3.38245">
        <ele>165.1</ele>
        <time>2024-08-06T06:09:29Z</time>
      </trkpt>
      <trkpt lat="43.63787" lon="3.38242">
        <ele>165.4</ele>
        <time>2024-08-06T06:09:30Z</time>
      </trkpt>
      <trkpt lat="43.63784" lon="3.38239">
        <ele>165.8</ele>
        <time>2024-08-06T06:09:31Z</time>
      </trkpt>
      <trkpt lat="43.63781" lon="3.38238">
        <ele>166.1</ele>
        <time>2024-08-06T06:09:32Z</time>
      </trkpt>
      <trkpt lat="43.63778" lon="3.38235">
        <ele>166.5</ele>
        <time>2024-08-06T06:09:33Z</time>
      </trkpt>
      <trkpt lat="43.63776" lon="3.38231">
        <ele>166.8</ele>
        <time>2024-08-06T06:09:34Z</time>
      </trkpt>
      <trkpt lat="43.63774" lon="3.38228">
        <ele>167</ele>
        <time>2024-08-06T06:09:35Z</time>
      </trkpt>
      <trkpt lat="43.63772" lon="3.38225">
        <ele>167.3</ele>
        <time>2024-08-06T06:09:36Z</time>
      </trkpt>
      <trkpt lat="43.6377" lon="3.38223">
        <ele>167.5</ele>
        <time>2024-08-06T06:09:37Z</time>
      </trkpt>
      <trkpt lat="43.63767" lon="3.38221">
        <ele>167.9</ele>
        <time>2024-08-06T06:09:38Z</time>
      </trkpt>
      <trkpt lat="43.63764" lon="3.3822">
        <ele>168.2</ele>
        <time>2024-08-06T06:09:39Z</time>
      </trkpt>
      <trkpt lat="43.63762" lon="3.38219">
        <ele>168.4</ele>
        <time>2024-08-06T06:09:40Z</time>
      </trkpt>
      <trkpt lat="43.63761" lon="3.38219">
        <ele>168.4</ele>
        <time>2024-08-06T06:09:41Z</time>
      </trkpt>
      <trkpt lat="43.63759" lon="3.3822">
        <ele>168.5</ele>
        <time>2024-08-06T06:09:42Z</time>
      </trkpt>
      <trkpt lat="43.63757" lon="3.38221">
        <ele>168.6</ele>
        <time>2024-08-06T06:09:43Z</time>
      </trkpt>
      <trkpt lat="43.63755" lon="3.38221">
        <ele>168.7</ele>
        <time>2024-08-06T06:09:44Z</time>
      </trkpt>
      <trkpt lat="43.63753" lon="3.38221">
        <ele>168.9</ele>
        <time>2024-08-06T06:09:45Z</time>
      </trkpt>
      <trkpt lat="43.63751" lon="3.3822">
        <ele>169.1</ele>
        <time>2024-08-06T06:09:46Z</time>
      </trkpt>
      <trkpt lat="43.63749" lon="3.3822">
        <ele>169.3</ele>
        <time>2024-08-06T06:09:47Z</time>
      </trkpt>
      <trkpt lat="43.63747" lon="3.38221">
        <ele>169.4</ele>
        <time>2024-08-06T06:09:48Z</time>
      </trkpt>
      <trkpt lat="43.63745" lon="3.38222">
        <ele>169.6</ele>
        <time>2024-08-06T06:09:49Z</time>
      </trkpt>
      <trkpt lat="43.63743" lon="3.38223">
        <ele>169.7</ele>
        <time>2024-08-06T06:09:50Z</time>
      </trkpt>
      <trkpt lat="43.6374" lon="3.38224">
        <ele>170</ele>
        <time>2024-08-06T06:09:51Z</time>
      </trkpt>
      <trkpt lat="43.63738" lon="3.38224">
        <ele>170.2</ele>
        <time>2024-08-06T06:09:52Z</time>
      </trkpt>
      <trkpt lat="43.63734" lon="3.38224">
        <ele>170.6</ele>
        <time>2024-08-06T06:09:53Z</time>
      </trkpt>
      <trkpt lat="43.63731" lon="3.38223">
        <ele>171</ele>
        <time>2024-08-06T06:09:54Z</time>
      </trkpt>
      <trkpt lat="43.63729" lon="3.38223">
        <ele>171.2</ele>
        <time>2024-08-06T06:09:55Z</time>
      </trkpt>
      <trkpt lat="43.63726" lon="3.38222">
        <ele>171.6</ele>
        <time>2024-08-06T06:09:56Z</time>
      </trkpt>
      <trkpt lat="43.63724" lon="3.38221">
        <ele>171.9</ele>
        <time>2024-08-06T06:09:57Z</time>
      </trkpt>
      <trkpt lat="43.63722" lon="3.3822">
        <ele>172.1</ele>
        <time>2024-08-06T06:09:58Z</time>
      </trkpt>
      <trkpt lat="43.6372" lon="3.38219">
        <ele>172.3</ele>
        <time>2024-08-06T06:09:59Z</time>
      </trkpt>
      <trkpt lat="43.63717" lon="3.38218">
        <ele>172.7</ele>
        <time>2024-08-06T06:10:00Z</time>
      </trkpt>
      <trkpt lat="43.63715" lon="3.38218">
        <ele>172.9</ele>
        <time>2024-08-06T06:10:01Z</time>
      </trkpt>
      <trkpt lat="43.63712" lon="3.38217">
        <ele>173.2</ele>
        <time>2024-08-06T06:10:02Z</time>
      </trkpt>
      <trkpt lat="43.6371" lon="3.38216">
        <ele>173.4</ele>
        <time>2024-08-06T06:10:03Z</time>
      </trkpt>
      <trkpt lat="43.63707" lon="3.38214">
        <ele>173.8</ele>
        <time>2024-08-06T06:10:04Z</time>
      </trkpt>
      <trkpt lat="43.63705" lon="3.38212">
        <ele>174</ele>
        <time>2024-08-06T06:10:05Z</time>
      </trkpt>
      <trkpt lat="43.63703" lon="3.38211">
        <ele>174.2</ele>
        <time>2024-08-06T06:10:06Z</time>
      </trkpt>
      <trkpt lat="43.63702" lon="3.38209">
        <ele>174.3</ele>
        <time>2024-08-06T06:10:07Z</time>
      </trkpt>
      <trkpt lat="43.637" lon="3.38209">
        <ele>174.5</ele>
        <time>2024-08-06T06:10:08Z</time>
      </trkpt>
      <trkpt lat="43.63697" lon="3.38209">
        <ele>174.8</ele>
        <time>2024-08-06T06:10:09Z</time>
      </trkpt>
      <trkpt lat="43.63695" lon="3.38209">
        <ele>174.9</ele>
        <time>2024-08-06T06:10:10Z</time>
      </trkpt>
      <trkpt lat="43.63692" lon="3.3821">
        <ele>175.2</ele>
        <time>2024-08-06T06:10:11Z</time>
      </trkpt>
      <trkpt lat="43.6369" lon="3.38211">
        <ele>175.3</ele>
        <time>2024-08-06T06:10:12Z</time>
      </trkpt>
      <trkpt lat="43.63687" lon="3.38211">
        <ele>175.5</ele>
        <time>2024-08-06T06:10:13Z</time>
      </trkpt>
      <trkpt lat="43.63685" lon="3.38211">
        <ele>175.7</ele>
        <time>2024-08-06T06:10:14Z</time>
      </trkpt>
      <trkpt lat="43.63683" lon="3.38212">
        <ele>175.8</ele>
        <time>2024-08-06T06:10:15Z</time>
      </trkpt>
      <trkpt lat="43.6368" lon="3.38213">
        <ele>176</ele>
        <time>2024-08-06T06:10:16Z</time>
      </trkpt>
      <trkpt lat="43.63678" lon="3.38214">
        <ele>176.2</ele>
        <time>2024-08-06T06:10:17Z</time>
      </trkpt>
      <trkpt lat="43.63676" lon="3.38215">
        <ele>176.3</ele>
        <time>2024-08-06T06:10:18Z</time>
      </trkpt>
      <trkpt lat="43.63673" lon="3.38216">
        <ele>176.5</ele>
        <time>2024-08-06T06:10:19Z</time>
      </trkpt>
      <trkpt lat="43.63671" lon="3.38217">
        <ele>176.7</ele>
        <time>2024-08-06T06:10:20Z</time>
      </trkpt>
      <trkpt lat="43.63669" lon="3.38218">
        <ele>176.8</ele>
        <time>2024-08-06T06:10:21Z</time>
      </trkpt>
      <trkpt lat="43.63666" lon="3.3822">
        <ele>177</ele>
        <time>2024-08-06T06:10:22Z</time>
      </trkpt>
      <trkpt lat="43.63664" lon="3.38222">
        <ele>177.2</ele>
        <time>2024-08-06T06:10:23Z</time>
      </trkpt>
      <trkpt lat="43.63661" lon="3.38223">
        <ele>177.4</ele>
        <time>2024-08-06T06:10:24Z</time>
      </trkpt>
      <trkpt lat="43.63659" lon="3.38223">
        <ele>177.5</ele>
        <time>2024-08-06T06:10:25Z</time>
      </trkpt>
      <trkpt lat="43.63657" lon="3.38224">
        <ele>177.7</ele>
        <time>2024-08-06T06:10:26Z</time>
      </trkpt>
      <trkpt lat="43.63655" lon="3.38226">
        <ele>177.8</ele>
        <time>2024-08-06T06:10:27Z</time>
      </trkpt>
      <trkpt lat="43.63654" lon="3.38228">
        <ele>177.8</ele>
        <time>2024-08-06T06:10:28Z</time>
      </trkpt>
      <trkpt lat="43.63651" lon="3.38229">
        <ele>178</ele>
        <time>2024-08-06T06:10:29Z</time>
      </trkpt>
      <trkpt lat="43.63649" lon="3.38229">
        <ele>178.2</ele>
        <time>2024-08-06T06:10:30Z</time>
      </trkpt>
      <trkpt lat="43.63646" lon="3.38227">
        <ele>178.4</ele>
        <time>2024-08-06T06:10:31Z</time>
      </trkpt>
      <trkpt lat="43.63644" lon="3.38226">
        <ele>178.6</ele>
        <time>2024-08-06T06:10:32Z</time>
      </trkpt>
      <trkpt lat="43.63642" lon="3.38224">
        <ele>178.8</ele>
        <time>2024-08-06T06:10:33Z</time>
      </trkpt>
      <trkpt lat="43.63641" lon="3.38221">
        <ele>178.9</ele>
        <time>2024-08-06T06:10:34Z</time>
      </trkpt>
      <trkpt lat="43.63641" lon="3.38217">
        <ele>179</ele>
        <time>2024-08-06T06:10:35Z</time>
      </trkpt>
      <trkpt lat="43.63642" lon="3.38213">
        <ele>179.1</ele>
        <time>2024-08-06T06:10:36Z</time>
      </trkpt>
      <trkpt lat="43.63642" lon="3.38209">
        <ele>179.2</ele>
        <time>2024-08-06T06:10:37Z</time>
      </trkpt>
      <trkpt lat="43.63642" lon="3.38205">
        <ele>179.3</ele>
        <time>2024-08-06T06:10:38Z</time>
      </trkpt>
      <trkpt lat="43.63642" lon="3.38202">
        <ele>179.4</ele>
        <time>2024-08-06T06:10:39Z</time>
      </trkpt>
      <trkpt lat="43.63642" lon="3.38198">
        <ele>179.6</ele>
        <time>2024-08-06T06:10:40Z</time>
      </trkpt>
      <trkpt lat="43.63643" lon="3.38195">
        <ele>179.5</ele>
        <time>2024-08-06T06:10:41Z</time>
      </trkpt>
      <trkpt lat="43.63645" lon="3.3819">
        <ele>179.3</ele>
        <time>2024-08-06T06:10:42Z</time>
      </trkpt>
      <trkpt lat="43.63647" lon="3.38186">
        <ele>179.1</ele>
        <time>2024-08-06T06:10:43Z</time>
      </trkpt>
      <trkpt lat="43.63649" lon="3.38182">
        <ele>178.9</ele>
        <time>2024-08-06T06:10:44Z</time>
      </trkpt>
      <trkpt lat="43.63651" lon="3.38177">
        <ele>178.7</ele>
        <time>2024-08-06T06:10:45Z</time>
      </trkpt>
      <trkpt lat="43.63651" lon="3.38172">
        <ele>178.7</ele>
        <time>2024-08-06T06:10:46Z</time>
      </trkpt>
      <trkpt lat="43.63651" lon="3.38168">
        <ele>178.7</ele>
        <time>2024-08-06T06:10:47Z</time>
      </trkpt>
      <trkpt lat="43.6365" lon="3.38164">
        <ele>178.8</ele>
        <time>2024-08-06T06:10:48Z</time>
      </trkpt>
      <trkpt lat="43.63649" lon="3.38162">
        <ele>179</ele>
        <time>2024-08-06T06:10:49Z</time>
      </trkpt>
      <trkpt lat="43.63648" lon="3.38159">
        <ele>179.1</ele>
        <time>2024-08-06T06:10:50Z</time>
      </trkpt>
      <trkpt lat="43.63648" lon="3.38156">
        <ele>179.1</ele>
        <time>2024-08-06T06:10:51Z</time>
      </trkpt>
      <trkpt lat="43.63648" lon="3.38151">
        <ele>179.2</ele>
        <time>2024-08-06T06:10:52Z</time>
      </trkpt>
      <trkpt lat="43.63647" lon="3.38147">
        <ele>179.3</ele>
        <time>2024-08-06T06:10:53Z</time>
      </trkpt>
      <trkpt lat="43.63647" lon="3.38142">
        <ele>179.4</ele>
        <time>2024-08-06T06:10:54Z</time>
      </trkpt>
      <trkpt lat="43.63646" lon="3.38138">
        <ele>179.5</ele>
        <time>2024-08-06T06:10:55Z</time>
      </trkpt>
      <trkpt lat="43.63645" lon="3.38134">
        <ele>179.6</ele>
        <time>2024-08-06T06:10:56Z</time>
      </trkpt>
      <trkpt lat="43.63645" lon="3.3813">
        <ele>179.6</ele>
        <time>2024-08-06T06:10:57Z</time>
      </trkpt>
      <trkpt lat="43.63644" lon="3.38125">
        <ele>179.6</ele>
        <time>2024-08-06T06:10:58Z</time>
      </trkpt>
      <trkpt lat="43.63643" lon="3.38121">
        <ele>179.7</ele>
        <time>2024-08-06T06:10:59Z</time>
      </trkpt>
      <trkpt lat="43.63642" lon="3.38116">
        <ele>179.8</ele>
        <time>2024-08-06T06:11:00Z</time>
      </trkpt>
      <trkpt lat="43.63642" lon="3.38112">
        <ele>179.8</ele>
        <time>2024-08-06T06:11:01Z</time>
      </trkpt>
      <trkpt lat="43.6364" lon="3.38108">
        <ele>179.8</ele>
        <time>2024-08-06T06:11:02Z</time>
      </trkpt>
      <trkpt lat="43.63638" lon="3.38104">
        <ele>179.8</ele>
        <time>2024-08-06T06:11:03Z</time>
      </trkpt>
      <trkpt lat="43.63636" lon="3.38099">
        <ele>179.8</ele>
        <time>2024-08-06T06:11:04Z</time>
      </trkpt>
      <trkpt lat="43.63635" lon="3.38093">
        <ele>179.7</ele>
        <time>2024-08-06T06:11:05Z</time>
      </trkpt>
      <trkpt lat="43.63634" lon="3.38088">
        <ele>179.7</ele>
        <time>2024-08-06T06:11:06Z</time>
      </trkpt>
      <trkpt lat="43.63632" lon="3.38083">
        <ele>179.7</ele>
        <time>2024-08-06T06:11:07Z</time>
      </trkpt>
      <trkpt lat="43.63631" lon="3.38079">
        <ele>179.8</ele>
        <time>2024-08-06T06:11:08Z</time>
      </trkpt>
      <trkpt lat="43.6363" lon="3.38075">
        <ele>179.9</ele>
        <time>2024-08-06T06:11:09Z</time>
      </trkpt>
      <trkpt lat="43.63629" lon="3.38071">
        <ele>179.9</ele>
        <time>2024-08-06T06:11:10Z</time>
      </trkpt>
      <trkpt lat="43.63627" lon="3.38068">
        <ele>180</ele>
        <time>2024-08-06T06:11:11Z</time>
      </trkpt>
      <trkpt lat="43.63625" lon="3.38064">
        <ele>180.2</ele>
        <time>2024-08-06T06:11:12Z</time>
      </trkpt>
      <trkpt lat="43.63625" lon="3.38061">
        <ele>180.1</ele>
        <time>2024-08-06T06:11:13Z</time>
      </trkpt>
      <trkpt lat="43.63625" lon="3.38057">
        <ele>180</ele>
        <time>2024-08-06T06:11:14Z</time>
      </trkpt>
      <trkpt lat="43.63625" lon="3.38053">
        <ele>180</ele>
        <time>2024-08-06T06:11:15Z</time>
      </trkpt>
      <trkpt lat="43.63626" lon="3.38049">
        <ele>179.9</ele>
        <time>2024-08-06T06:11:16Z</time>
      </trkpt>
      <trkpt lat="43.63625" lon="3.38045">
        <ele>180</ele>
        <time>2024-08-06T06:11:17Z</time>
      </trkpt>
      <trkpt lat="43.63624" lon="3.38043">
        <ele>180.1</ele>
        <time>2024-08-06T06:11:18Z</time>
      </trkpt>
      <trkpt lat="43.63622" lon="3.38041">
        <ele>180.2</ele>
        <time>2024-08-06T06:11:19Z</time>
      </trkpt>
      <trkpt lat="43.63621" lon="3.38038">
        <ele>180.3</ele>
        <time>2024-08-06T06:11:20Z</time>
      </trkpt>
      <trkpt lat="43.63619" lon="3.38035">
        <ele>180.4</ele>
        <time>2024-08-06T06:11:21Z</time>
      </trkpt>
      <trkpt lat="43.63617" lon="3.38033">
        <ele>180.6</ele>
        <time>2024-08-06T06:11:22Z</time>
      </trkpt>
      <trkpt lat="43.63615" lon="3.38031">
        <ele>180.7</ele>
        <time>2024-08-06T06:11:23Z</time>
      </trkpt>
      <trkpt lat="43.63612" lon="3.3803">
        <ele>180.9</ele>
        <time>2024-08-06T06:11:24Z</time>
      </trkpt>
      <trkpt lat="43.63608" lon="3.38029">
        <ele>181.2</ele>
        <time>2024-08-06T06:11:25Z</time>
      </trkpt>
      <trkpt lat="43.63605" lon="3.38028">
        <ele>181.4</ele>
        <time>2024-08-06T06:11:26Z</time>
      </trkpt>
      <trkpt lat="43.63603" lon="3.38025">
        <ele>181.7</ele>
        <time>2024-08-06T06:11:27Z</time>
      </trkpt>
      <trkpt lat="43.63601" lon="3.38021">
        <ele>182</ele>
        <time>2024-08-06T06:11:28Z</time>
      </trkpt>
      <trkpt lat="43.63602" lon="3.38017">
        <ele>182</ele>
        <time>2024-08-06T06:11:29Z</time>
      </trkpt>
      <trkpt lat="43.63603" lon="3.38014">
        <ele>182.1</ele>
        <time>2024-08-06T06:11:30Z</time>
      </trkpt>
      <trkpt lat="43.63605" lon="3.38011">
        <ele>182</ele>
        <time>2024-08-06T06:11:31Z</time>
      </trkpt>
      <trkpt lat="43.63607" lon="3.38008">
        <ele>182</ele>
        <time>2024-08-06T06:11:32Z</time>
      </trkpt>
      <trkpt lat="43.6361" lon="3.38005">
        <ele>181.9</ele>
        <time>2024-08-06T06:11:33Z</time>
      </trkpt>
      <trkpt lat="43.63612" lon="3.38001">
        <ele>181.9</ele>
        <time>2024-08-06T06:11:34Z</time>
      </trkpt>
      <trkpt lat="43.63613" lon="3.37997">
        <ele>182</ele>
        <time>2024-08-06T06:11:35Z</time>
      </trkpt>
      <trkpt lat="43.63614" lon="3.37993">
        <ele>182</ele>
        <time>2024-08-06T06:11:36Z</time>
      </trkpt>
      <trkpt lat="43.63615" lon="3.37989">
        <ele>182.1</ele>
        <time>2024-08-06T06:11:37Z</time>
      </trkpt>
      <trkpt lat="43.63616" lon="3.37984">
        <ele>182.2</ele>
        <time>2024-08-06T06:11:38Z</time>
      </trkpt>
      <trkpt lat="43.63617" lon="3.37979">
        <ele>182.3</ele>
        <time>2024-08-06T06:11:39Z</time>
      </trkpt>
      <trkpt lat="43.63618" lon="3.37975">
        <ele>182.4</ele>
        <time>2024-08-06T06:11:40Z</time>
      </trkpt>
      <trkpt lat="43.63619" lon="3.37971">
        <ele>182.5</ele>
        <time>2024-08-06T06:11:41Z</time>
      </trkpt>
      <trkpt lat="43.6362" lon="3.37968">
        <ele>182.5</ele>
        <time>2024-08-06T06:11:42Z</time>
      </trkpt>
      <trkpt lat="43.63622" lon="3.37964">
        <ele>182.5</ele>
        <time>2024-08-06T06:11:43Z</time>
      </trkpt>
      <trkpt lat="43.63623" lon="3.37961">
        <ele>182.5</ele>
        <time>2024-08-06T06:11:44Z</time>
      </trkpt>
      <trkpt lat="43.63624" lon="3.37958">
        <ele>182.6</ele>
        <time>2024-08-06T06:11:45Z</time>
      </trkpt>
      <trkpt lat="43.63626" lon="3.37954">
        <ele>182.6</ele>
        <time>2024-08-06T06:11:46Z</time>
      </trkpt>
      <trkpt lat="43.63628" lon="3.37951">
        <ele>182.5</ele>
        <time>2024-08-06T06:11:47Z</time>
      </trkpt>
      <trkpt lat="43.63629" lon="3.37947">
        <ele>182.6</ele>
        <time>2024-08-06T06:11:48Z</time>
      </trkpt>
      <trkpt lat="43.63631" lon="3.37943">
        <ele>182.6</ele>
        <time>2024-08-06T06:11:49Z</time>
      </trkpt>
      <trkpt lat="43.63633" lon="3.3794">
        <ele>182.6</ele>
        <time>2024-08-06T06:11:50Z</time>
      </trkpt>
      <trkpt lat="43.63634" lon="3.37936">
        <ele>182.7</ele>
        <time>2024-08-06T06:11:51Z</time>
      </trkpt>
      <trkpt lat="43.63636" lon="3.37932">
        <ele>182.7</ele>
        <time>2024-08-06T06:11:52Z</time>
      </trkpt>
      <trkpt lat="43.63638" lon="3.37928">
        <ele>182.7</ele>
        <time>2024-08-06T06:11:53Z</time>
      </trkpt>
      <trkpt lat="43.6364" lon="3.37924">
        <ele>182.7</ele>
        <time>2024-08-06T06:11:54Z</time>
      </trkpt>
      <trkpt lat="43.63642" lon="3.37919">
        <ele>182.7</ele>
        <time>2024-08-06T06:11:55Z</time>
      </trkpt>
      <trkpt lat="43.63644" lon="3.37915">
        <ele>182.7</ele>
        <time>2024-08-06T06:11:56Z</time>
      </trkpt>
      <trkpt lat="43.63645" lon="3.37911">
        <ele>182.7</ele>
        <time>2024-08-06T06:11:57Z</time>
      </trkpt>
      <trkpt lat="43.63647" lon="3.37907">
        <ele>182.7</ele>
        <time>2024-08-06T06:11:58Z</time>
      </trkpt>
      <trkpt lat="43.63648" lon="3.37902">
        <ele>182.7</ele>
        <time>2024-08-06T06:11:59Z</time>
      </trkpt>
      <trkpt lat="43.63649" lon="3.37898">
        <ele>182.7</ele>
        <time>2024-08-06T06:12:00Z</time>
      </trkpt>
      <trkpt lat="43.63651" lon="3.37893">
        <ele>182.6</ele>
        <time>2024-08-06T06:12:01Z</time>
      </trkpt>
      <trkpt lat="43.63652" lon="3.37889">
        <ele>182.6</ele>
        <time>2024-08-06T06:12:02Z</time>
      </trkpt>
      <trkpt lat="43.63653" lon="3.37883">
        <ele>182.6</ele>
        <time>2024-08-06T06:12:03Z</time>
      </trkpt>
      <trkpt lat="43.63653" lon="3.37879">
        <ele>182.7</ele>
        <time>2024-08-06T06:12:04Z</time>
      </trkpt>
      <trkpt lat="43.63654" lon="3.37874">
        <ele>182.6</ele>
        <time>2024-08-06T06:12:05Z</time>
      </trkpt>
      <trkpt lat="43.63655" lon="3.3787">
        <ele>182.5</ele>
        <time>2024-08-06T06:12:06Z</time>
      </trkpt>
      <trkpt lat="43.63656" lon="3.37865">
        <ele>182.5</ele>
        <time>2024-08-06T06:12:07Z</time>
      </trkpt>
      <trkpt lat="43.63656" lon="3.37862">
        <ele>182.5</ele>
        <time>2024-08-06T06:12:08Z</time>
      </trkpt>
      <trkpt lat="43.63656" lon="3.37858">
        <ele>182.7</ele>
        <time>2024-08-06T06:12:09Z</time>
      </trkpt>
      <trkpt lat="43.63656" lon="3.37855">
        <ele>182.9</ele>
        <time>2024-08-06T06:12:10Z</time>
      </trkpt>
      <trkpt lat="43.63657" lon="3.37852">
        <ele>182.9</ele>
        <time>2024-08-06T06:12:11Z</time>
      </trkpt>
      <trkpt lat="43.63657" lon="3.37849">
        <ele>183.1</ele>
        <time>2024-08-06T06:12:12Z</time>
      </trkpt>
      <trkpt lat="43.63657" lon="3.37845">
        <ele>183.4</ele>
        <time>2024-08-06T06:12:13Z</time>
      </trkpt>
      <trkpt lat="43.63657" lon="3.37841">
        <ele>183.6</ele>
        <time>2024-08-06T06:12:14Z</time>
      </trkpt>
      <trkpt lat="43.63658" lon="3.37836">
        <ele>183.8</ele>
        <time>2024-08-06T06:12:15Z</time>
      </trkpt>
      <trkpt lat="43.63658" lon="3.37831">
        <ele>184</ele>
        <time>2024-08-06T06:12:16Z</time>
      </trkpt>
      <trkpt lat="43.63658" lon="3.37826">
        <ele>184.2</ele>
        <time>2024-08-06T06:12:17Z</time>
      </trkpt>
      <trkpt lat="43.63658" lon="3.37821">
        <ele>184.4</ele>
        <time>2024-08-06T06:12:18Z</time>
      </trkpt>
      <trkpt lat="43.63659" lon="3.37816">
        <ele>184.5</ele>
        <time>2024-08-06T06:12:19Z</time>
      </trkpt>
      <trkpt lat="43.63659" lon="3.37811">
        <ele>184.6</ele>
        <time>2024-08-06T06:12:20Z</time>
      </trkpt>
      <trkpt lat="43.63659" lon="3.37806">
        <ele>184.8</ele>
        <time>2024-08-06T06:12:21Z</time>
      </trkpt>
      <trkpt lat="43.6366" lon="3.37801">
        <ele>184.9</ele>
        <time>2024-08-06T06:12:22Z</time>
      </trkpt>
      <trkpt lat="43.6366" lon="3.37796">
        <ele>185.1</ele>
        <time>2024-08-06T06:12:23Z</time>
      </trkpt>
      <trkpt lat="43.63661" lon="3.37791">
        <ele>185.1</ele>
        <time>2024-08-06T06:12:24Z</time>
      </trkpt>
      <trkpt lat="43.63661" lon="3.37786">
        <ele>185.3</ele>
        <time>2024-08-06T06:12:25Z</time>
      </trkpt>
      <trkpt lat="43.63661" lon="3.37781">
        <ele>185.5</ele>
        <time>2024-08-06T06:12:26Z</time>
      </trkpt>
      <trkpt lat="43.63661" lon="3.37776">
        <ele>185.6</ele>
        <time>2024-08-06T06:12:27Z</time>
      </trkpt>
      <trkpt lat="43.63661" lon="3.3777">
        <ele>185.6</ele>
        <time>2024-08-06T06:12:28Z</time>
      </trkpt>
      <trkpt lat="43.63661" lon="3.37765">
        <ele>185.6</ele>
        <time>2024-08-06T06:12:29Z</time>
      </trkpt>
      <trkpt lat="43.63661" lon="3.3776">
        <ele>185.6</ele>
        <time>2024-08-06T06:12:30Z</time>
      </trkpt>
      <trkpt lat="43.63661" lon="3.37755">
        <ele>185.6</ele>
        <time>2024-08-06T06:12:31Z</time>
      </trkpt>
      <trkpt lat="43.63661" lon="3.3775">
        <ele>185.6</ele>
        <time>2024-08-06T06:12:32Z</time>
      </trkpt>
      <trkpt lat="43.63661" lon="3.37745">
        <ele>185.6</ele>
        <time>2024-08-06T06:12:33Z</time>
      </trkpt>
      <trkpt lat="43.63661" lon="3.3774">
        <ele>185.7</ele>
        <time>2024-08-06T06:12:34Z</time>
      </trkpt>
      <trkpt lat="43.63661" lon="3.37735">
        <ele>185.7</ele>
        <time>2024-08-06T06:12:35Z</time>
      </trkpt>
      <trkpt lat="43.6366" lon="3.3773">
        <ele>185.9</ele>
        <time>2024-08-06T06:12:36Z</time>
      </trkpt>
      <trkpt lat="43.6366" lon="3.37725">
        <ele>185.9</ele>
        <time>2024-08-06T06:12:37Z</time>
      </trkpt>
      <trkpt lat="43.6366" lon="3.3772">
        <ele>186</ele>
        <time>2024-08-06T06:12:38Z</time>
      </trkpt>
      <trkpt lat="43.6366" lon="3.37715">
        <ele>186.2</ele>
        <time>2024-08-06T06:12:39Z</time>
      </trkpt>
      <trkpt lat="43.63659" lon="3.3771">
        <ele>186.4</ele>
        <time>2024-08-06T06:12:40Z</time>
      </trkpt>
      <trkpt lat="43.63658" lon="3.37706">
        <ele>186.6</ele>
        <time>2024-08-06T06:12:41Z</time>
      </trkpt>
      <trkpt lat="43.63658" lon="3.37702">
        <ele>186.7</ele>
        <time>2024-08-06T06:12:42Z</time>
      </trkpt>
      <trkpt lat="43.63657" lon="3.37697">
        <ele>187</ele>
        <time>2024-08-06T06:12:43Z</time>
      </trkpt>
      <trkpt lat="43.63656" lon="3.37693">
        <ele>187.1</ele>
        <time>2024-08-06T06:12:44Z</time>
      </trkpt>
      <trkpt lat="43.63655" lon="3.3769">
        <ele>187.2</ele>
        <time>2024-08-06T06:12:45Z</time>
      </trkpt>
      <trkpt lat="43.63653" lon="3.37686">
        <ele>187.3</ele>
        <time>2024-08-06T06:12:46Z</time>
      </trkpt>
      <trkpt lat="43.6365" lon="3.37683">
        <ele>187.6</ele>
        <time>2024-08-06T06:12:47Z</time>
      </trkpt>
      <trkpt lat="43.63648" lon="3.37681">
        <ele>187.7</ele>
        <time>2024-08-06T06:12:48Z</time>
      </trkpt>
      <trkpt lat="43.63645" lon="3.37678">
        <ele>187.9</ele>
        <time>2024-08-06T06:12:49Z</time>
      </trkpt>
      <trkpt lat="43.63643" lon="3.37676">
        <ele>188</ele>
        <time>2024-08-06T06:12:50Z</time>
      </trkpt>
      <trkpt lat="43.6364" lon="3.37674">
        <ele>188.2</ele>
        <time>2024-08-06T06:12:51Z</time>
      </trkpt>
      <trkpt lat="43.63636" lon="3.37673">
        <ele>188.4</ele>
        <time>2024-08-06T06:12:52Z</time>
      </trkpt>
      <trkpt lat="43.63633" lon="3.37671">
        <ele>188.5</ele>
        <time>2024-08-06T06:12:53Z</time>
      </trkpt>
      <trkpt lat="43.6363" lon="3.3767">
        <ele>188.7</ele>
        <time>2024-08-06T06:12:54Z</time>
      </trkpt>
      <trkpt lat="43.63626" lon="3.37668">
        <ele>189</ele>
        <time>2024-08-06T06:12:55Z</time>
      </trkpt>
      <trkpt lat="43.63623" lon="3.37666">
        <ele>189.1</ele>
        <time>2024-08-06T06:12:56Z</time>
      </trkpt>
      <trkpt lat="43.6362" lon="3.37665">
        <ele>189.4</ele>
        <time>2024-08-06T06:12:57Z</time>
      </trkpt>
      <trkpt lat="43.63617" lon="3.37663">
        <ele>189.6</ele>
        <time>2024-08-06T06:12:58Z</time>
      </trkpt>
      <trkpt lat="43.63614" lon="3.37662">
        <ele>189.8</ele>
        <time>2024-08-06T06:12:59Z</time>
      </trkpt>
      <trkpt lat="43.63612" lon="3.3766">
        <ele>189.9</ele>
        <time>2024-08-06T06:13:00Z</time>
      </trkpt>
      <trkpt lat="43.63609" lon="3.37658">
        <ele>190.2</ele>
        <time>2024-08-06T06:13:01Z</time>
      </trkpt>
      <trkpt lat="43.63606" lon="3.37656">
        <ele>190.6</ele>
        <time>2024-08-06T06:13:02Z</time>
      </trkpt>
      <trkpt lat="43.63603" lon="3.37653">
        <ele>190.9</ele>
        <time>2024-08-06T06:13:03Z</time>
      </trkpt>
      <trkpt lat="43.636" lon="3.37651">
        <ele>191.2</ele>
        <time>2024-08-06T06:13:04Z</time>
      </trkpt>
      <trkpt lat="43.63597" lon="3.37648">
        <ele>191.5</ele>
        <time>2024-08-06T06:13:05Z</time>
      </trkpt>
      <trkpt lat="43.63595" lon="3.37645">
        <ele>191.7</ele>
        <time>2024-08-06T06:13:06Z</time>
      </trkpt>
      <trkpt lat="43.63592" lon="3.37641">
        <ele>192.1</ele>
        <time>2024-08-06T06:13:07Z</time>
      </trkpt>
      <trkpt lat="43.6359" lon="3.37638">
        <ele>192.3</ele>
        <time>2024-08-06T06:13:08Z</time>
      </trkpt>
      <trkpt lat="43.63589" lon="3.37634">
        <ele>192.7</ele>
        <time>2024-08-06T06:13:09Z</time>
      </trkpt>
      <trkpt lat="43.63587" lon="3.37631">
        <ele>193.1</ele>
        <time>2024-08-06T06:13:10Z</time>
      </trkpt>
      <trkpt lat="43.63586" lon="3.37627">
        <ele>193.5</ele>
        <time>2024-08-06T06:13:11Z</time>
      </trkpt>
      <trkpt lat="43.63585" lon="3.37623">
        <ele>193.9</ele>
        <time>2024-08-06T06:13:12Z</time>
      </trkpt>
      <trkpt lat="43.63585" lon="3.37619">
        <ele>194.2</ele>
        <time>2024-08-06T06:13:13Z</time>
      </trkpt>
      <trkpt lat="43.63585" lon="3.37615">
        <ele>194.5</ele>
        <time>2024-08-06T06:13:14Z</time>
      </trkpt>
      <trkpt lat="43.63584" lon="3.3761">
        <ele>194.9</ele>
        <time>2024-08-06T06:13:15Z</time>
      </trkpt>
      <trkpt lat="43.63584" lon="3.37606">
        <ele>195.1</ele>
        <time>2024-08-06T06:13:16Z</time>
      </trkpt>
      <trkpt lat="43.63583" lon="3.37602">
        <ele>195.4</ele>
        <time>2024-08-06T06:13:17Z</time>
      </trkpt>
      <trkpt lat="43.63583" lon="3.37597">
        <ele>195.6</ele>
        <time>2024-08-06T06:13:18Z</time>
      </trkpt>
      <trkpt lat="43.63582" lon="3.37593">
        <ele>195.9</ele>
        <time>2024-08-06T06:13:19Z</time>
      </trkpt>
      <trkpt lat="43.63581" lon="3.37589">
        <ele>196.2</ele>
        <time>2024-08-06T06:13:20Z</time>
      </trkpt>
      <trkpt lat="43.63581" lon="3.37585">
        <ele>196.4</ele>
        <time>2024-08-06T06:13:21Z</time>
      </trkpt>
      <trkpt lat="43.6358" lon="3.37582">
        <ele>196.7</ele>
        <time>2024-08-06T06:13:22Z</time>
      </trkpt>
      <trkpt lat="43.63579" lon="3.37578">
        <ele>197.1</ele>
        <time>2024-08-06T06:13:23Z</time>
      </trkpt>
      <trkpt lat="43.63578" lon="3.37573">
        <ele>197.6</ele>
        <time>2024-08-06T06:13:24Z</time>
      </trkpt>
      <trkpt lat="43.63577" lon="3.37569">
        <ele>198.1</ele>
        <time>2024-08-06T06:13:25Z</time>
      </trkpt>
      <trkpt lat="43.63576" lon="3.37565">
        <ele>198.5</ele>
        <time>2024-08-06T06:13:26Z</time>
      </trkpt>
      <trkpt lat="43.63576" lon="3.37561">
        <ele>198.7</ele>
        <time>2024-08-06T06:13:27Z</time>
      </trkpt>
      <trkpt lat="43.63575" lon="3.37557">
        <ele>199.1</ele>
        <time>2024-08-06T06:13:28Z</time>
      </trkpt>
      <trkpt lat="43.63575" lon="3.37553">
        <ele>199.3</ele>
        <time>2024-08-06T06:13:29Z</time>
      </trkpt>
      <trkpt lat="43.63574" lon="3.37549">
        <ele>199.7</ele>
        <time>2024-08-06T06:13:30Z</time>
      </trkpt>
      <trkpt lat="43.63574" lon="3.37545">
        <ele>200</ele>
        <time>2024-08-06T06:13:31Z</time>
      </trkpt>
      <trkpt lat="43.63573" lon="3.37541">
        <ele>200.4</ele>
        <time>2024-08-06T06:13:32Z</time>
      </trkpt>
      <trkpt lat="43.63573" lon="3.37536">
        <ele>200.7</ele>
        <time>2024-08-06T06:13:33Z</time>
      </trkpt>
      <trkpt lat="43.63573" lon="3.37533">
        <ele>200.9</ele>
        <time>2024-08-06T06:13:34Z</time>
      </trkpt>
      <trkpt lat="43.63573" lon="3.37529">
        <ele>201.2</ele>
        <time>2024-08-06T06:13:35Z</time>
      </trkpt>
      <trkpt lat="43.63573" lon="3.37525">
        <ele>201.4</ele>
        <time>2024-08-06T06:13:36Z</time>
      </trkpt>
      <trkpt lat="43.63573" lon="3.37522">
        <ele>201.6</ele>
        <time>2024-08-06T06:13:37Z</time>
      </trkpt>
      <trkpt lat="43.63574" lon="3.37519">
        <ele>201.5</ele>
        <time>2024-08-06T06:13:38Z</time>
      </trkpt>
      <trkpt lat="43.63574" lon="3.37517">
        <ele>201.7</ele>
        <time>2024-08-06T06:13:39Z</time>
      </trkpt>
      <trkpt lat="43.63575" lon="3.37516">
        <ele>201.5</ele>
        <time>2024-08-06T06:13:40Z</time>
      </trkpt>
      <trkpt lat="43.63575" lon="3.37516">
        <ele>201.5</ele>
        <time>2024-08-06T06:13:41Z</time>
      </trkpt>
      <trkpt lat="43.63578" lon="3.37513">
        <ele>201.1</ele>
        <time>2024-08-06T06:13:42Z</time>
      </trkpt>
      <trkpt lat="43.63579" lon="3.37512">
        <ele>201</ele>
        <time>2024-08-06T06:13:43Z</time>
      </trkpt>
      <trkpt lat="43.63579" lon="3.37512">
        <ele>201</ele>
        <time>2024-08-06T06:13:44Z</time>
      </trkpt>
      <trkpt lat="43.63581" lon="3.37512">
        <ele>200.6</ele>
        <time>2024-08-06T06:13:45Z</time>
      </trkpt>
      <trkpt lat="43.63582" lon="3.37513">
        <ele>200.3</ele>
        <time>2024-08-06T06:13:46Z</time>
      </trkpt>
      <trkpt lat="43.63584" lon="3.37513">
        <ele>199.9</ele>
        <time>2024-08-06T06:13:47Z</time>
      </trkpt>
      <trkpt lat="43.63585" lon="3.37512">
        <ele>199.8</ele>
        <time>2024-08-06T06:13:48Z</time>
      </trkpt>
      <trkpt lat="43.63585" lon="3.37512">
        <ele>199.8</ele>
        <time>2024-08-06T06:13:49Z</time>
      </trkpt>
      <trkpt lat="43.63585" lon="3.37512">
        <ele>199.8</ele>
        <time>2024-08-06T06:13:50Z</time>
      </trkpt>
      <trkpt lat="43.63589" lon="3.37506">
        <ele>199.4</ele>
        <time>2024-08-06T06:14:02Z</time>
      </trkpt>
      <trkpt lat="43.63593" lon="3.37501">
        <ele>198.9</ele>
        <time>2024-08-06T06:14:03Z</time>
      </trkpt>
      <trkpt lat="43.63596" lon="3.37496">
        <ele>198.6</ele>
        <time>2024-08-06T06:14:04Z</time>
      </trkpt>
      <trkpt lat="43.63599" lon="3.3749">
        <ele>198.3</ele>
        <time>2024-08-06T06:14:05Z</time>
      </trkpt>
      <trkpt lat="43.63602" lon="3.37482">
        <ele>198.3</ele>
        <time>2024-08-06T06:14:06Z</time>
      </trkpt>
      <trkpt lat="43.63604" lon="3.37474">
        <ele>198.4</ele>
        <time>2024-08-06T06:14:07Z</time>
      </trkpt>
      <trkpt lat="43.63605" lon="3.37464">
        <ele>198.5</ele>
        <time>2024-08-06T06:14:08Z</time>
      </trkpt>
      <trkpt lat="43.63606" lon="3.37455">
        <ele>198.5</ele>
        <time>2024-08-06T06:14:09Z</time>
      </trkpt>
      <trkpt lat="43.63606" lon="3.37448">
        <ele>198.7</ele>
        <time>2024-08-06T06:14:10Z</time>
      </trkpt>
      <trkpt lat="43.63607" lon="3.37442">
        <ele>198.8</ele>
        <time>2024-08-06T06:14:11Z</time>
      </trkpt>
      <trkpt lat="43.63608" lon="3.37437">
        <ele>199</ele>
        <time>2024-08-06T06:14:12Z</time>
      </trkpt>
      <trkpt lat="43.63609" lon="3.37433">
        <ele>199.1</ele>
        <time>2024-08-06T06:14:13Z</time>
      </trkpt>
      <trkpt lat="43.6361" lon="3.3743">
        <ele>199.2</ele>
        <time>2024-08-06T06:14:14Z</time>
      </trkpt>
      <trkpt lat="43.6361" lon="3.37426">
        <ele>199.5</ele>
        <time>2024-08-06T06:14:15Z</time>
      </trkpt>
      <trkpt lat="43.63611" lon="3.3742">
        <ele>199.8</ele>
        <time>2024-08-06T06:14:16Z</time>
      </trkpt>
      <trkpt lat="43.63612" lon="3.37415">
        <ele>200</ele>
        <time>2024-08-06T06:14:17Z</time>
      </trkpt>
      <trkpt lat="43.63613" lon="3.3741">
        <ele>200.3</ele>
        <time>2024-08-06T06:14:18Z</time>
      </trkpt>
      <trkpt lat="43.63613" lon="3.37405">
        <ele>200.7</ele>
        <time>2024-08-06T06:14:19Z</time>
      </trkpt>
      <trkpt lat="43.63613" lon="3.37398">
        <ele>201.2</ele>
        <time>2024-08-06T06:14:20Z</time>
      </trkpt>
      <trkpt lat="43.63612" lon="3.37392">
        <ele>201.7</ele>
        <time>2024-08-06T06:14:21Z</time>
      </trkpt>
      <trkpt lat="43.63612" lon="3.37387">
        <ele>202</ele>
        <time>2024-08-06T06:14:22Z</time>
      </trkpt>
      <trkpt lat="43.63611" lon="3.37381">
        <ele>202.3</ele>
        <time>2024-08-06T06:14:23Z</time>
      </trkpt>
      <trkpt lat="43.63611" lon="3.37376">
        <ele>202.5</ele>
        <time>2024-08-06T06:14:24Z</time>
      </trkpt>
      <trkpt lat="43.6361" lon="3.37371">
        <ele>202.7</ele>
        <time>2024-08-06T06:14:25Z</time>
      </trkpt>
      <trkpt lat="43.63609" lon="3.37366">
        <ele>203</ele>
        <time>2024-08-06T06:14:26Z</time>
      </trkpt>
      <trkpt lat="43.63608" lon="3.37361">
        <ele>203.2</ele>
        <time>2024-08-06T06:14:27Z</time>
      </trkpt>
      <trkpt lat="43.63607" lon="3.37357">
        <ele>203.6</ele>
        <time>2024-08-06T06:14:28Z</time>
      </trkpt>
      <trkpt lat="43.63607" lon="3.37352">
        <ele>204</ele>
        <time>2024-08-06T06:14:29Z</time>
      </trkpt>
      <trkpt lat="43.63608" lon="3.37347">
        <ele>204.2</ele>
        <time>2024-08-06T06:14:30Z</time>
      </trkpt>
      <trkpt lat="43.63608" lon="3.37342">
        <ele>204.6</ele>
        <time>2024-08-06T06:14:31Z</time>
      </trkpt>
      <trkpt lat="43.63609" lon="3.37338">
        <ele>204.8</ele>
        <time>2024-08-06T06:14:32Z</time>
      </trkpt>
      <trkpt lat="43.6361" lon="3.37333">
        <ele>205.1</ele>
        <time>2024-08-06T06:14:33Z</time>
      </trkpt>
      <trkpt lat="43.63611" lon="3.37329">
        <ele>205.3</ele>
        <time>2024-08-06T06:14:34Z</time>
      </trkpt>
      <trkpt lat="43.63612" lon="3.37324">
        <ele>205.6</ele>
        <time>2024-08-06T06:14:35Z</time>
      </trkpt>
      <trkpt lat="43.63613" lon="3.37319">
        <ele>205.8</ele>
        <time>2024-08-06T06:14:36Z</time>
      </trkpt>
      <trkpt lat="43.63614" lon="3.37314">
        <ele>205.9</ele>
        <time>2024-08-06T06:14:37Z</time>
      </trkpt>
      <trkpt lat="43.63615" lon="3.37309">
        <ele>206.1</ele>
        <time>2024-08-06T06:14:38Z</time>
      </trkpt>
      <trkpt lat="43.63617" lon="3.37304">
        <ele>206</ele>
        <time>2024-08-06T06:14:39Z</time>
      </trkpt>
      <trkpt lat="43.63617" lon="3.373">
        <ele>206.2</ele>
        <time>2024-08-06T06:14:40Z</time>
      </trkpt>
      <trkpt lat="43.63618" lon="3.37295">
        <ele>206.2</ele>
        <time>2024-08-06T06:14:41Z</time>
      </trkpt>
      <trkpt lat="43.63619" lon="3.37291">
        <ele>206.3</ele>
        <time>2024-08-06T06:14:42Z</time>
      </trkpt>
      <trkpt lat="43.6362" lon="3.37286">
        <ele>206.3</ele>
        <time>2024-08-06T06:14:43Z</time>
      </trkpt>
      <trkpt lat="43.6362" lon="3.37282">
        <ele>206.5</ele>
        <time>2024-08-06T06:14:44Z</time>
      </trkpt>
      <trkpt lat="43.63621" lon="3.37277">
        <ele>206.6</ele>
        <time>2024-08-06T06:14:45Z</time>
      </trkpt>
      <trkpt lat="43.63621" lon="3.37272">
        <ele>206.8</ele>
        <time>2024-08-06T06:14:46Z</time>
      </trkpt>
      <trkpt lat="43.63621" lon="3.37268">
        <ele>206.9</ele>
        <time>2024-08-06T06:14:47Z</time>
      </trkpt>
      <trkpt lat="43.63621" lon="3.37263">
        <ele>207.1</ele>
        <time>2024-08-06T06:14:48Z</time>
      </trkpt>
      <trkpt lat="43.63622" lon="3.37258">
        <ele>207.1</ele>
        <time>2024-08-06T06:14:49Z</time>
      </trkpt>
      <trkpt lat="43.63622" lon="3.37254">
        <ele>207.3</ele>
        <time>2024-08-06T06:14:50Z</time>
      </trkpt>
      <trkpt lat="43.63621" lon="3.37249">
        <ele>207.5</ele>
        <time>2024-08-06T06:14:51Z</time>
      </trkpt>
      <trkpt lat="43.6362" lon="3.37245">
        <ele>207.5</ele>
        <time>2024-08-06T06:14:52Z</time>
      </trkpt>
      <trkpt lat="43.63619" lon="3.37241">
        <ele>207.4</ele>
        <time>2024-08-06T06:14:53Z</time>
      </trkpt>
      <trkpt lat="43.63619" lon="3.37236">
        <ele>207.1</ele>
        <time>2024-08-06T06:14:54Z</time>
      </trkpt>
      <trkpt lat="43.63619" lon="3.37232">
        <ele>206.9</ele>
        <time>2024-08-06T06:14:55Z</time>
      </trkpt>
      <trkpt lat="43.6362" lon="3.37227">
        <ele>206.6</ele>
        <time>2024-08-06T06:14:56Z</time>
      </trkpt>
      <trkpt lat="43.63621" lon="3.37222">
        <ele>206.3</ele>
        <time>2024-08-06T06:14:57Z</time>
      </trkpt>
      <trkpt lat="43.63623" lon="3.37219">
        <ele>206.1</ele>
        <time>2024-08-06T06:14:58Z</time>
      </trkpt>
      <trkpt lat="43.63626" lon="3.37217">
        <ele>205.8</ele>
        <time>2024-08-06T06:14:59Z</time>
      </trkpt>
      <trkpt lat="43.63628" lon="3.37217">
        <ele>205.7</ele>
        <time>2024-08-06T06:15:00Z</time>
      </trkpt>
      <trkpt lat="43.63632" lon="3.37217">
        <ele>205.4</ele>
        <time>2024-08-06T06:15:01Z</time>
      </trkpt>
      <trkpt lat="43.63636" lon="3.37217">
        <ele>205</ele>
        <time>2024-08-06T06:15:02Z</time>
      </trkpt>
      <trkpt lat="43.6364" lon="3.37218">
        <ele>204.7</ele>
        <time>2024-08-06T06:15:03Z</time>
      </trkpt>
      <trkpt lat="43.63644" lon="3.37218">
        <ele>204.3</ele>
        <time>2024-08-06T06:15:04Z</time>
      </trkpt>
      <trkpt lat="43.63649" lon="3.37218">
        <ele>203.8</ele>
        <time>2024-08-06T06:15:05Z</time>
      </trkpt>
      <trkpt lat="43.63653" lon="3.37215">
        <ele>203.2</ele>
        <time>2024-08-06T06:15:06Z</time>
      </trkpt>
      <trkpt lat="43.63656" lon="3.3721">
        <ele>202.7</ele>
        <time>2024-08-06T06:15:07Z</time>
      </trkpt>
      <trkpt lat="43.63658" lon="3.37205">
        <ele>202.3</ele>
        <time>2024-08-06T06:15:08Z</time>
      </trkpt>
      <trkpt lat="43.63659" lon="3.37199">
        <ele>202</ele>
        <time>2024-08-06T06:15:09Z</time>
      </trkpt>
      <trkpt lat="43.63661" lon="3.37192">
        <ele>201.6</ele>
        <time>2024-08-06T06:15:10Z</time>
      </trkpt>
      <trkpt lat="43.63662" lon="3.37184">
        <ele>201.5</ele>
        <time>2024-08-06T06:15:11Z</time>
      </trkpt>
      <trkpt lat="43.63663" lon="3.37178">
        <ele>201.4</ele>
        <time>2024-08-06T06:15:12Z</time>
      </trkpt>
      <trkpt lat="43.63663" lon="3.37171">
        <ele>201.4</ele>
        <time>2024-08-06T06:15:13Z</time>
      </trkpt>
      <trkpt lat="43.63664" lon="3.37165">
        <ele>201.4</ele>
        <time>2024-08-06T06:15:14Z</time>
      </trkpt>
      <trkpt lat="43.63665" lon="3.3716">
        <ele>201.4</ele>
        <time>2024-08-06T06:15:15Z</time>
      </trkpt>
      <trkpt lat="43.63665" lon="3.37156">
        <ele>201.6</ele>
        <time>2024-08-06T06:15:16Z</time>
      </trkpt>
      <trkpt lat="43.63666" lon="3.37151">
        <ele>201.6</ele>
        <time>2024-08-06T06:15:17Z</time>
      </trkpt>
      <trkpt lat="43.63668" lon="3.37148">
        <ele>201.5</ele>
        <time>2024-08-06T06:15:18Z</time>
      </trkpt>
      <trkpt lat="43.6367" lon="3.37144">
        <ele>201.4</ele>
        <time>2024-08-06T06:15:19Z</time>
      </trkpt>
      <trkpt lat="43.63673" lon="3.3714">
        <ele>201.1</ele>
        <time>2024-08-06T06:15:20Z</time>
      </trkpt>
      <trkpt lat="43.63676" lon="3.37135">
        <ele>200.9</ele>
        <time>2024-08-06T06:15:21Z</time>
      </trkpt>
      <trkpt lat="43.63679" lon="3.37131">
        <ele>200.7</ele>
        <time>2024-08-06T06:15:22Z</time>
      </trkpt>
      <trkpt lat="43.63683" lon="3.37125">
        <ele>200.4</ele>
        <time>2024-08-06T06:15:23Z</time>
      </trkpt>
      <trkpt lat="43.63687" lon="3.3712">
        <ele>199.9</ele>
        <time>2024-08-06T06:15:24Z</time>
      </trkpt>
      <trkpt lat="43.63691" lon="3.37116">
        <ele>199.4</ele>
        <time>2024-08-06T06:15:25Z</time>
      </trkpt>
      <trkpt lat="43.63695" lon="3.37111">
        <ele>198.9</ele>
        <time>2024-08-06T06:15:26Z</time>
      </trkpt>
      <trkpt lat="43.63699" lon="3.37106">
        <ele>198.7</ele>
        <time>2024-08-06T06:15:27Z</time>
      </trkpt>
      <trkpt lat="43.63702" lon="3.37101">
        <ele>198.4</ele>
        <time>2024-08-06T06:15:28Z</time>
      </trkpt>
      <trkpt lat="43.63705" lon="3.37097">
        <ele>198.1</ele>
        <time>2024-08-06T06:15:29Z</time>
      </trkpt>
      <trkpt lat="43.63708" lon="3.37092">
        <ele>197.8</ele>
        <time>2024-08-06T06:15:30Z</time>
      </trkpt>
      <trkpt lat="43.63712" lon="3.37088">
        <ele>197.1</ele>
        <time>2024-08-06T06:15:31Z</time>
      </trkpt>
      <trkpt lat="43.63715" lon="3.37084">
        <ele>196.5</ele>
        <time>2024-08-06T06:15:32Z</time>
      </trkpt>
      <trkpt lat="43.63718" lon="3.37079">
        <ele>196.2</ele>
        <time>2024-08-06T06:15:33Z</time>
      </trkpt>
      <trkpt lat="43.63721" lon="3.37074">
        <ele>196</ele>
        <time>2024-08-06T06:15:34Z</time>
      </trkpt>
      <trkpt lat="43.63725" lon="3.37069">
        <ele>195.6</ele>
        <time>2024-08-06T06:15:35Z</time>
      </trkpt>
      <trkpt lat="43.63728" lon="3.37064">
        <ele>195.3</ele>
        <time>2024-08-06T06:15:36Z</time>
      </trkpt>
      <trkpt lat="43.63731" lon="3.3706">
        <ele>194.9</ele>
        <time>2024-08-06T06:15:37Z</time>
      </trkpt>
      <trkpt lat="43.63733" lon="3.37057">
        <ele>194.6</ele>
        <time>2024-08-06T06:15:38Z</time>
      </trkpt>
      <trkpt lat="43.63735" lon="3.37054">
        <ele>194.3</ele>
        <time>2024-08-06T06:15:39Z</time>
      </trkpt>
      <trkpt lat="43.63737" lon="3.37052">
        <ele>194</ele>
        <time>2024-08-06T06:15:40Z</time>
      </trkpt>
      <trkpt lat="43.63739" lon="3.37049">
        <ele>193.7</ele>
        <time>2024-08-06T06:15:41Z</time>
      </trkpt>
      <trkpt lat="43.63741" lon="3.37046">
        <ele>193.4</ele>
        <time>2024-08-06T06:15:42Z</time>
      </trkpt>
      <trkpt lat="43.63744" lon="3.37044">
        <ele>192.8</ele>
        <time>2024-08-06T06:15:43Z</time>
      </trkpt>
      <trkpt lat="43.63747" lon="3.37041">
        <ele>192.2</ele>
        <time>2024-08-06T06:15:44Z</time>
      </trkpt>
      <trkpt lat="43.6375" lon="3.37038">
        <ele>191.6</ele>
        <time>2024-08-06T06:15:45Z</time>
      </trkpt>
      <trkpt lat="43.63754" lon="3.37034">
        <ele>191.2</ele>
        <time>2024-08-06T06:15:46Z</time>
      </trkpt>
      <trkpt lat="43.63758" lon="3.37031">
        <ele>190.8</ele>
        <time>2024-08-06T06:15:47Z</time>
      </trkpt>
      <trkpt lat="43.63761" lon="3.37028">
        <ele>190.4</ele>
        <time>2024-08-06T06:15:48Z</time>
      </trkpt>
      <trkpt lat="43.63764" lon="3.37025">
        <ele>190.2</ele>
        <time>2024-08-06T06:15:49Z</time>
      </trkpt>
      <trkpt lat="43.63767" lon="3.37022">
        <ele>189.9</ele>
        <time>2024-08-06T06:15:50Z</time>
      </trkpt>
      <trkpt lat="43.63769" lon="3.37019">
        <ele>189.8</ele>
        <time>2024-08-06T06:15:51Z</time>
      </trkpt>
      <trkpt lat="43.63773" lon="3.37016">
        <ele>189.3</ele>
        <time>2024-08-06T06:15:52Z</time>
      </trkpt>
      <trkpt lat="43.63776" lon="3.37013">
        <ele>188.9</ele>
        <time>2024-08-06T06:15:53Z</time>
      </trkpt>
      <trkpt lat="43.63779" lon="3.37009">
        <ele>188.5</ele>
        <time>2024-08-06T06:15:54Z</time>
      </trkpt>
      <trkpt lat="43.63783" lon="3.37005">
        <ele>188.1</ele>
        <time>2024-08-06T06:15:55Z</time>
      </trkpt>
      <trkpt lat="43.63786" lon="3.37002">
        <ele>187.8</ele>
        <time>2024-08-06T06:15:56Z</time>
      </trkpt>
      <trkpt lat="43.63788" lon="3.36998">
        <ele>187.6</ele>
        <time>2024-08-06T06:15:57Z</time>
      </trkpt>
      <trkpt lat="43.63791" lon="3.36995">
        <ele>187.4</ele>
        <time>2024-08-06T06:15:58Z</time>
      </trkpt>
      <trkpt lat="43.63794" lon="3.36991">
        <ele>187.1</ele>
        <time>2024-08-06T06:15:59Z</time>
      </trkpt>
      <trkpt lat="43.63796" lon="3.36987">
        <ele>187</ele>
        <time>2024-08-06T06:16:00Z</time>
      </trkpt>
      <trkpt lat="43.63799" lon="3.36982">
        <ele>186.7</ele>
        <time>2024-08-06T06:16:01Z</time>
      </trkpt>
      <trkpt lat="43.63803" lon="3.3698">
        <ele>186.2</ele>
        <time>2024-08-06T06:16:02Z</time>
      </trkpt>
      <trkpt lat="43.63807" lon="3.36978">
        <ele>185.6</ele>
        <time>2024-08-06T06:16:03Z</time>
      </trkpt>
      <trkpt lat="43.63812" lon="3.36975">
        <ele>185.2</ele>
        <time>2024-08-06T06:16:04Z</time>
      </trkpt>
      <trkpt lat="43.63817" lon="3.3697">
        <ele>184.9</ele>
        <time>2024-08-06T06:16:05Z</time>
      </trkpt>
      <trkpt lat="43.6382" lon="3.36964">
        <ele>184.9</ele>
        <time>2024-08-06T06:16:06Z</time>
      </trkpt>
      <trkpt lat="43.63822" lon="3.36957">
        <ele>185</ele>
        <time>2024-08-06T06:16:07Z</time>
      </trkpt>
      <trkpt lat="43.63823" lon="3.3695">
        <ele>185.2</ele>
        <time>2024-08-06T06:16:08Z</time>
      </trkpt>
      <trkpt lat="43.63825" lon="3.36944">
        <ele>185.2</ele>
        <time>2024-08-06T06:16:09Z</time>
      </trkpt>
      <trkpt lat="43.63827" lon="3.36938">
        <ele>185.3</ele>
        <time>2024-08-06T06:16:10Z</time>
      </trkpt>
      <trkpt lat="43.63829" lon="3.36932">
        <ele>185.4</ele>
        <time>2024-08-06T06:16:11Z</time>
      </trkpt>
      <trkpt lat="43.63831" lon="3.36926">
        <ele>185.6</ele>
        <time>2024-08-06T06:16:12Z</time>
      </trkpt>
      <trkpt lat="43.63832" lon="3.36922">
        <ele>185.7</ele>
        <time>2024-08-06T06:16:13Z</time>
      </trkpt>
      <trkpt lat="43.63833" lon="3.36917">
        <ele>186</ele>
        <time>2024-08-06T06:16:14Z</time>
      </trkpt>
      <trkpt lat="43.63834" lon="3.36913">
        <ele>186.1</ele>
        <time>2024-08-06T06:16:15Z</time>
      </trkpt>
      <trkpt lat="43.63836" lon="3.36909">
        <ele>186</ele>
        <time>2024-08-06T06:16:16Z</time>
      </trkpt>
      <trkpt lat="43.63838" lon="3.36907">
        <ele>185.8</ele>
        <time>2024-08-06T06:16:17Z</time>
      </trkpt>
      <trkpt lat="43.6384" lon="3.36906">
        <ele>185.7</ele>
        <time>2024-08-06T06:16:18Z</time>
      </trkpt>
      <trkpt lat="43.63843" lon="3.36907">
        <ele>185.3</ele>
        <time>2024-08-06T06:16:19Z</time>
      </trkpt>
      <trkpt lat="43.63847" lon="3.36909">
        <ele>184.8</ele>
        <time>2024-08-06T06:16:20Z</time>
      </trkpt>
      <trkpt lat="43.63851" lon="3.36911">
        <ele>184.3</ele>
        <time>2024-08-06T06:16:21Z</time>
      </trkpt>
      <trkpt lat="43.63855" lon="3.36912">
        <ele>183.8</ele>
        <time>2024-08-06T06:16:22Z</time>
      </trkpt>
      <trkpt lat="43.63859" lon="3.36914">
        <ele>183.3</ele>
        <time>2024-08-06T06:16:23Z</time>
      </trkpt>
      <trkpt lat="43.63864" lon="3.36917">
        <ele>182.8</ele>
        <time>2024-08-06T06:16:24Z</time>
      </trkpt>
      <trkpt lat="43.63869" lon="3.36919">
        <ele>182.4</ele>
        <time>2024-08-06T06:16:25Z</time>
      </trkpt>
      <trkpt lat="43.63874" lon="3.36921">
        <ele>182</ele>
        <time>2024-08-06T06:16:26Z</time>
      </trkpt>
      <trkpt lat="43.63879" lon="3.36923">
        <ele>181.6</ele>
        <time>2024-08-06T06:16:27Z</time>
      </trkpt>
      <trkpt lat="43.63884" lon="3.36926">
        <ele>181.3</ele>
        <time>2024-08-06T06:16:28Z</time>
      </trkpt>
      <trkpt lat="43.6389" lon="3.36929">
        <ele>181</ele>
        <time>2024-08-06T06:16:29Z</time>
      </trkpt>
      <trkpt lat="43.63895" lon="3.36931">
        <ele>180.8</ele>
        <time>2024-08-06T06:16:30Z</time>
      </trkpt>
      <trkpt lat="43.63901" lon="3.36934">
        <ele>180.5</ele>
        <time>2024-08-06T06:16:31Z</time>
      </trkpt>
      <trkpt lat="43.63907" lon="3.36935">
        <ele>180.1</ele>
        <time>2024-08-06T06:16:32Z</time>
      </trkpt>
      <trkpt lat="43.63912" lon="3.36937">
        <ele>179.8</ele>
        <time>2024-08-06T06:16:33Z</time>
      </trkpt>
      <trkpt lat="43.63918" lon="3.36938">
        <ele>179.4</ele>
        <time>2024-08-06T06:16:34Z</time>
      </trkpt>
      <trkpt lat="43.63924" lon="3.36939">
        <ele>179.1</ele>
        <time>2024-08-06T06:16:35Z</time>
      </trkpt>
      <trkpt lat="43.6393" lon="3.36941">
        <ele>178.8</ele>
        <time>2024-08-06T06:16:36Z</time>
      </trkpt>
      <trkpt lat="43.63935" lon="3.36942">
        <ele>178.5</ele>
        <time>2024-08-06T06:16:37Z</time>
      </trkpt>
      <trkpt lat="43.63941" lon="3.36943">
        <ele>178.2</ele>
        <time>2024-08-06T06:16:38Z</time>
      </trkpt>
      <trkpt lat="43.63947" lon="3.36944">
        <ele>177.8</ele>
        <time>2024-08-06T06:16:39Z</time>
      </trkpt>
      <trkpt lat="43.63952" lon="3.36945">
        <ele>177.4</ele>
        <time>2024-08-06T06:16:40Z</time>
      </trkpt>
      <trkpt lat="43.63957" lon="3.36945">
        <ele>177.1</ele>
        <time>2024-08-06T06:16:41Z</time>
      </trkpt>
      <trkpt lat="43.63962" lon="3.36945">
        <ele>176.7</ele>
        <time>2024-08-06T06:16:42Z</time>
      </trkpt>
      <trkpt lat="43.63968" lon="3.36944">
        <ele>176.3</ele>
        <time>2024-08-06T06:16:43Z</time>
      </trkpt>
      <trkpt lat="43.63973" lon="3.36942">
        <ele>176</ele>
        <time>2024-08-06T06:16:44Z</time>
      </trkpt>
      <trkpt lat="43.63978" lon="3.36939">
        <ele>175.8</ele>
        <time>2024-08-06T06:16:45Z</time>
      </trkpt>
      <trkpt lat="43.63982" lon="3.36935">
        <ele>175.6</ele>
        <time>2024-08-06T06:16:46Z</time>
      </trkpt>
      <trkpt lat="43.63986" lon="3.36932">
        <ele>175.5</ele>
        <time>2024-08-06T06:16:47Z</time>
      </trkpt>
      <trkpt lat="43.6399" lon="3.3693">
        <ele>175.2</ele>
        <time>2024-08-06T06:16:48Z</time>
      </trkpt>
      <trkpt lat="43.63995" lon="3.36929">
        <ele>174.9</ele>
        <time>2024-08-06T06:16:49Z</time>
      </trkpt>
      <trkpt lat="43.64" lon="3.3693">
        <ele>174.5</ele>
        <time>2024-08-06T06:16:50Z</time>
      </trkpt>
      <trkpt lat="43.64005" lon="3.36933">
        <ele>173.9</ele>
        <time>2024-08-06T06:16:51Z</time>
      </trkpt>
      <trkpt lat="43.6401" lon="3.36937">
        <ele>173.3</ele>
        <time>2024-08-06T06:16:52Z</time>
      </trkpt>
      <trkpt lat="43.64016" lon="3.36941">
        <ele>172.5</ele>
        <time>2024-08-06T06:16:53Z</time>
      </trkpt>
      <trkpt lat="43.64021" lon="3.36945">
        <ele>171.7</ele>
        <time>2024-08-06T06:16:54Z</time>
      </trkpt>
      <trkpt lat="43.64026" lon="3.36949">
        <ele>171.2</ele>
        <time>2024-08-06T06:16:55Z</time>
      </trkpt>
      <trkpt lat="43.64032" lon="3.36953">
        <ele>170.8</ele>
        <time>2024-08-06T06:16:56Z</time>
      </trkpt>
      <trkpt lat="43.64036" lon="3.36955">
        <ele>170.6</ele>
        <time>2024-08-06T06:16:57Z</time>
      </trkpt>
      <trkpt lat="43.64041" lon="3.36958">
        <ele>170.3</ele>
        <time>2024-08-06T06:16:58Z</time>
      </trkpt>
      <trkpt lat="43.64044" lon="3.36963">
        <ele>170</ele>
        <time>2024-08-06T06:16:59Z</time>
      </trkpt>
      <trkpt lat="43.64047" lon="3.3697">
        <ele>169.7</ele>
        <time>2024-08-06T06:17:00Z</time>
      </trkpt>
      <trkpt lat="43.6405" lon="3.36978">
        <ele>169.2</ele>
        <time>2024-08-06T06:17:01Z</time>
      </trkpt>
      <trkpt lat="43.64053" lon="3.36985">
        <ele>168.7</ele>
        <time>2024-08-06T06:17:02Z</time>
      </trkpt>
      <trkpt lat="43.64057" lon="3.36991">
        <ele>168.3</ele>
        <time>2024-08-06T06:17:03Z</time>
      </trkpt>
      <trkpt lat="43.64063" lon="3.36996">
        <ele>167.9</ele>
        <time>2024-08-06T06:17:04Z</time>
      </trkpt>
      <trkpt lat="43.64068" lon="3.37001">
        <ele>167.5</ele>
        <time>2024-08-06T06:17:05Z</time>
      </trkpt>
      <trkpt lat="43.64073" lon="3.37005">
        <ele>167.2</ele>
        <time>2024-08-06T06:17:06Z</time>
      </trkpt>
      <trkpt lat="43.64078" lon="3.37009">
        <ele>166.9</ele>
        <time>2024-08-06T06:17:07Z</time>
      </trkpt>
      <trkpt lat="43.64083" lon="3.37012">
        <ele>166.6</ele>
        <time>2024-08-06T06:17:08Z</time>
      </trkpt>
      <trkpt lat="43.64086" lon="3.37016">
        <ele>166.2</ele>
        <time>2024-08-06T06:17:09Z</time>
      </trkpt>
      <trkpt lat="43.6409" lon="3.37019">
        <ele>165.8</ele>
        <time>2024-08-06T06:17:10Z</time>
      </trkpt>
      <trkpt lat="43.64093" lon="3.37023">
        <ele>165.5</ele>
        <time>2024-08-06T06:17:11Z</time>
      </trkpt>
      <trkpt lat="43.64097" lon="3.37027">
        <ele>165</ele>
        <time>2024-08-06T06:17:12Z</time>
      </trkpt>
      <trkpt lat="43.641" lon="3.37032">
        <ele>164.6</ele>
        <time>2024-08-06T06:17:13Z</time>
      </trkpt>
      <trkpt lat="43.64105" lon="3.37037">
        <ele>164.1</ele>
        <time>2024-08-06T06:17:14Z</time>
      </trkpt>
      <trkpt lat="43.64109" lon="3.37042">
        <ele>163.6</ele>
        <time>2024-08-06T06:17:15Z</time>
      </trkpt>
      <trkpt lat="43.64113" lon="3.37047">
        <ele>163.2</ele>
        <time>2024-08-06T06:17:16Z</time>
      </trkpt>
      <trkpt lat="43.64117" lon="3.37053">
        <ele>162.7</ele>
        <time>2024-08-06T06:17:17Z</time>
      </trkpt>
      <trkpt lat="43.6412" lon="3.3706">
        <ele>162</ele>
        <time>2024-08-06T06:17:18Z</time>
      </trkpt>
      <trkpt lat="43.64124" lon="3.37068">
        <ele>161.2</ele>
        <time>2024-08-06T06:17:19Z</time>
      </trkpt>
      <trkpt lat="43.64128" lon="3.37075">
        <ele>160.4</ele>
        <time>2024-08-06T06:17:20Z</time>
      </trkpt>
      <trkpt lat="43.64131" lon="3.37082">
        <ele>159.7</ele>
        <time>2024-08-06T06:17:21Z</time>
      </trkpt>
      <trkpt lat="43.64134" lon="3.37089">
        <ele>159</ele>
        <time>2024-08-06T06:17:22Z</time>
      </trkpt>
      <trkpt lat="43.64135" lon="3.37096">
        <ele>158.5</ele>
        <time>2024-08-06T06:17:23Z</time>
      </trkpt>
      <trkpt lat="43.64135" lon="3.37102">
        <ele>158.1</ele>
        <time>2024-08-06T06:17:24Z</time>
      </trkpt>
      <trkpt lat="43.64134" lon="3.37106">
        <ele>158</ele>
        <time>2024-08-06T06:17:25Z</time>
      </trkpt>
      <trkpt lat="43.64134" lon="3.37109">
        <ele>157.8</ele>
        <time>2024-08-06T06:17:26Z</time>
      </trkpt>
      <trkpt lat="43.64135" lon="3.37112">
        <ele>157.6</ele>
        <time>2024-08-06T06:17:27Z</time>
      </trkpt>
      <trkpt lat="43.64136" lon="3.37114">
        <ele>157.4</ele>
        <time>2024-08-06T06:17:28Z</time>
      </trkpt>
      <trkpt lat="43.64138" lon="3.37115">
        <ele>157.1</ele>
        <time>2024-08-06T06:17:29Z</time>
      </trkpt>
      <trkpt lat="43.6414" lon="3.37116">
        <ele>156.9</ele>
        <time>2024-08-06T06:17:30Z</time>
      </trkpt>
      <trkpt lat="43.64142" lon="3.37117">
        <ele>156.7</ele>
        <time>2024-08-06T06:17:31Z</time>
      </trkpt>
      <trkpt lat="43.64145" lon="3.37118">
        <ele>156.3</ele>
        <time>2024-08-06T06:17:32Z</time>
      </trkpt>
      <trkpt lat="43.64149" lon="3.37119">
        <ele>155.9</ele>
        <time>2024-08-06T06:17:33Z</time>
      </trkpt>
      <trkpt lat="43.64153" lon="3.3712">
        <ele>155.5</ele>
        <time>2024-08-06T06:17:34Z</time>
      </trkpt>
      <trkpt lat="43.64157" lon="3.3712">
        <ele>155</ele>
        <time>2024-08-06T06:17:35Z</time>
      </trkpt>
      <trkpt lat="43.64159" lon="3.3712">
        <ele>154.8</ele>
        <time>2024-08-06T06:17:36Z</time>
      </trkpt>
      <trkpt lat="43.64162" lon="3.3712">
        <ele>154.5</ele>
        <time>2024-08-06T06:17:37Z</time>
      </trkpt>
      <trkpt lat="43.64164" lon="3.37119">
        <ele>154.3</ele>
        <time>2024-08-06T06:17:38Z</time>
      </trkpt>
      <trkpt lat="43.64166" lon="3.37119">
        <ele>154.1</ele>
        <time>2024-08-06T06:17:39Z</time>
      </trkpt>
      <trkpt lat="43.64169" lon="3.37118">
        <ele>153.6</ele>
        <time>2024-08-06T06:17:40Z</time>
      </trkpt>
      <trkpt lat="43.64172" lon="3.37117">
        <ele>153</ele>
        <time>2024-08-06T06:17:41Z</time>
      </trkpt>
      <trkpt lat="43.64177" lon="3.37118">
        <ele>152.1</ele>
        <time>2024-08-06T06:17:42Z</time>
      </trkpt>
      <trkpt lat="43.64181" lon="3.37119">
        <ele>151.4</ele>
        <time>2024-08-06T06:17:43Z</time>
      </trkpt>
      <trkpt lat="43.64186" lon="3.37119">
        <ele>150.5</ele>
        <time>2024-08-06T06:17:44Z</time>
      </trkpt>
      <trkpt lat="43.64191" lon="3.37119">
        <ele>149.6</ele>
        <time>2024-08-06T06:17:45Z</time>
      </trkpt>
      <trkpt lat="43.64196" lon="3.37118">
        <ele>148.9</ele>
        <time>2024-08-06T06:17:46Z</time>
      </trkpt>
      <trkpt lat="43.64202" lon="3.37117">
        <ele>148.4</ele>
        <time>2024-08-06T06:17:47Z</time>
      </trkpt>
      <trkpt lat="43.64208" lon="3.37115">
        <ele>148</ele>
        <time>2024-08-06T06:17:48Z</time>
      </trkpt>
      <trkpt lat="43.64214" lon="3.37114">
        <ele>147.5</ele>
        <time>2024-08-06T06:17:49Z</time>
      </trkpt>
      <trkpt lat="43.64221" lon="3.37113">
        <ele>147</ele>
        <time>2024-08-06T06:17:50Z</time>
      </trkpt>
      <trkpt lat="43.64228" lon="3.37112">
        <ele>146.6</ele>
        <time>2024-08-06T06:17:51Z</time>
      </trkpt>
      <trkpt lat="43.64234" lon="3.37109">
        <ele>146.2</ele>
        <time>2024-08-06T06:17:52Z</time>
      </trkpt>
      <trkpt lat="43.64241" lon="3.37106">
        <ele>145.6</ele>
        <time>2024-08-06T06:17:53Z</time>
      </trkpt>
      <trkpt lat="43.64247" lon="3.37104">
        <ele>145.2</ele>
        <time>2024-08-06T06:17:54Z</time>
      </trkpt>
      <trkpt lat="43.64252" lon="3.37103">
        <ele>144.9</ele>
        <time>2024-08-06T06:17:55Z</time>
      </trkpt>
      <trkpt lat="43.64258" lon="3.37102">
        <ele>144.7</ele>
        <time>2024-08-06T06:17:56Z</time>
      </trkpt>
      <trkpt lat="43.64264" lon="3.37103">
        <ele>144.5</ele>
        <time>2024-08-06T06:17:57Z</time>
      </trkpt>
      <trkpt lat="43.6427" lon="3.37104">
        <ele>144.3</ele>
        <time>2024-08-06T06:17:58Z</time>
      </trkpt>
      <trkpt lat="43.64275" lon="3.37105">
        <ele>144.1</ele>
        <time>2024-08-06T06:17:59Z</time>
      </trkpt>
      <trkpt lat="43.64281" lon="3.37105">
        <ele>143.9</ele>
        <time>2024-08-06T06:18:00Z</time>
      </trkpt>
      <trkpt lat="43.64287" lon="3.37107">
        <ele>143.7</ele>
        <time>2024-08-06T06:18:01Z</time>
      </trkpt>
      <trkpt lat="43.64293" lon="3.3711">
        <ele>143.5</ele>
        <time>2024-08-06T06:18:02Z</time>
      </trkpt>
      <trkpt lat="43.64298" lon="3.37114">
        <ele>143.2</ele>
        <time>2024-08-06T06:18:03Z</time>
      </trkpt>
      <trkpt lat="43.64303" lon="3.37116">
        <ele>142.9</ele>
        <time>2024-08-06T06:18:04Z</time>
      </trkpt>
      <trkpt lat="43.64307" lon="3.37113">
        <ele>142.9</ele>
        <time>2024-08-06T06:18:05Z</time>
      </trkpt>
      <trkpt lat="43.64309" lon="3.37109">
        <ele>142.9</ele>
        <time>2024-08-06T06:18:06Z</time>
      </trkpt>
      <trkpt lat="43.6431" lon="3.37104">
        <ele>142.8</ele>
        <time>2024-08-06T06:18:07Z</time>
      </trkpt>
      <trkpt lat="43.64309" lon="3.37098">
        <ele>142.8</ele>
        <time>2024-08-06T06:18:08Z</time>
      </trkpt>
      <trkpt lat="43.64307" lon="3.37093">
        <ele>142.9</ele>
        <time>2024-08-06T06:18:09Z</time>
      </trkpt>
      <trkpt lat="43.64306" lon="3.37089">
        <ele>143</ele>
        <time>2024-08-06T06:18:10Z</time>
      </trkpt>
      <trkpt lat="43.64305" lon="3.37085">
        <ele>143</ele>
        <time>2024-08-06T06:18:11Z</time>
      </trkpt>
      <trkpt lat="43.64305" lon="3.37081">
        <ele>142.9</ele>
        <time>2024-08-06T06:18:12Z</time>
      </trkpt>
      <trkpt lat="43.64306" lon="3.37076">
        <ele>142.7</ele>
        <time>2024-08-06T06:18:13Z</time>
      </trkpt>
      <trkpt lat="43.64308" lon="3.37073">
        <ele>142.5</ele>
        <time>2024-08-06T06:18:14Z</time>
      </trkpt>
      <trkpt lat="43.64312" lon="3.37071">
        <ele>142.2</ele>
        <time>2024-08-06T06:18:15Z</time>
      </trkpt>
      <trkpt lat="43.64315" lon="3.3707">
        <ele>142</ele>
        <time>2024-08-06T06:18:16Z</time>
      </trkpt>
      <trkpt lat="43.64318" lon="3.37067">
        <ele>141.8</ele>
        <time>2024-08-06T06:18:17Z</time>
      </trkpt>
      <trkpt lat="43.64321" lon="3.37064">
        <ele>141.6</ele>
        <time>2024-08-06T06:18:18Z</time>
      </trkpt>
      <trkpt lat="43.64324" lon="3.3706">
        <ele>141.4</ele>
        <time>2024-08-06T06:18:19Z</time>
      </trkpt>
      <trkpt lat="43.64326" lon="3.37057">
        <ele>141.3</ele>
        <time>2024-08-06T06:18:20Z</time>
      </trkpt>
      <trkpt lat="43.64328" lon="3.37053">
        <ele>141.1</ele>
        <time>2024-08-06T06:18:21Z</time>
      </trkpt>
      <trkpt lat="43.6433" lon="3.3705">
        <ele>140.9</ele>
        <time>2024-08-06T06:18:22Z</time>
      </trkpt>
      <trkpt lat="43.64334" lon="3.37047">
        <ele>140.7</ele>
        <time>2024-08-06T06:18:23Z</time>
      </trkpt>
      <trkpt lat="43.64338" lon="3.37045">
        <ele>140.3</ele>
        <time>2024-08-06T06:18:24Z</time>
      </trkpt>
      <trkpt lat="43.64342" lon="3.37042">
        <ele>140</ele>
        <time>2024-08-06T06:18:25Z</time>
      </trkpt>
      <trkpt lat="43.64346" lon="3.37036">
        <ele>139.7</ele>
        <time>2024-08-06T06:18:26Z</time>
      </trkpt>
      <trkpt lat="43.64348" lon="3.37032">
        <ele>139.5</ele>
        <time>2024-08-06T06:18:27Z</time>
      </trkpt>
      <trkpt lat="43.64348" lon="3.37028">
        <ele>139.5</ele>
        <time>2024-08-06T06:18:28Z</time>
      </trkpt>
      <trkpt lat="43.64348" lon="3.37024">
        <ele>139.5</ele>
        <time>2024-08-06T06:18:29Z</time>
      </trkpt>
      <trkpt lat="43.64348" lon="3.37021">
        <ele>139.6</ele>
        <time>2024-08-06T06:18:30Z</time>
      </trkpt>
      <trkpt lat="43.64349" lon="3.37018">
        <ele>139.6</ele>
        <time>2024-08-06T06:18:31Z</time>
      </trkpt>
      <trkpt lat="43.64351" lon="3.37016">
        <ele>139.6</ele>
        <time>2024-08-06T06:18:32Z</time>
      </trkpt>
      <trkpt lat="43.64353" lon="3.37013">
        <ele>139.7</ele>
        <time>2024-08-06T06:18:33Z</time>
      </trkpt>
      <trkpt lat="43.64354" lon="3.3701">
        <ele>139.7</ele>
        <time>2024-08-06T06:18:34Z</time>
      </trkpt>
      <trkpt lat="43.64354" lon="3.37005">
        <ele>139.9</ele>
        <time>2024-08-06T06:18:35Z</time>
      </trkpt>
      <trkpt lat="43.64356" lon="3.37001">
        <ele>140</ele>
        <time>2024-08-06T06:18:36Z</time>
      </trkpt>
      <trkpt lat="43.64358" lon="3.36997">
        <ele>140</ele>
        <time>2024-08-06T06:18:37Z</time>
      </trkpt>
      <trkpt lat="43.64361" lon="3.36993">
        <ele>140</ele>
        <time>2024-08-06T06:18:38Z</time>
      </trkpt>
      <trkpt lat="43.64364" lon="3.36989">
        <ele>139.8</ele>
        <time>2024-08-06T06:18:39Z</time>
      </trkpt>
      <trkpt lat="43.64367" lon="3.36985">
        <ele>139.6</ele>
        <time>2024-08-06T06:18:40Z</time>
      </trkpt>
      <trkpt lat="43.6437" lon="3.36981">
        <ele>139.4</ele>
        <time>2024-08-06T06:18:41Z</time>
      </trkpt>
      <trkpt lat="43.64371" lon="3.36977">
        <ele>139.3</ele>
        <time>2024-08-06T06:18:42Z</time>
      </trkpt>
      <trkpt lat="43.64372" lon="3.36972">
        <ele>139.2</ele>
        <time>2024-08-06T06:18:43Z</time>
      </trkpt>
      <trkpt lat="43.64372" lon="3.36967">
        <ele>139.2</ele>
        <time>2024-08-06T06:18:44Z</time>
      </trkpt>
      <trkpt lat="43.64372" lon="3.36961">
        <ele>139.2</ele>
        <time>2024-08-06T06:18:45Z</time>
      </trkpt>
      <trkpt lat="43.64371" lon="3.36954">
        <ele>139.3</ele>
        <time>2024-08-06T06:18:46Z</time>
      </trkpt>
      <trkpt lat="43.64369" lon="3.36949">
        <ele>139.4</ele>
        <time>2024-08-06T06:18:47Z</time>
      </trkpt>
      <trkpt lat="43.64367" lon="3.36943">
        <ele>139.5</ele>
        <time>2024-08-06T06:18:48Z</time>
      </trkpt>
      <trkpt lat="43.64366" lon="3.36937">
        <ele>139.4</ele>
        <time>2024-08-06T06:18:49Z</time>
      </trkpt>
      <trkpt lat="43.64367" lon="3.36932">
        <ele>139.2</ele>
        <time>2024-08-06T06:18:50Z</time>
      </trkpt>
      <trkpt lat="43.64366" lon="3.36927">
        <ele>139.1</ele>
        <time>2024-08-06T06:18:51Z</time>
      </trkpt>
      <trkpt lat="43.64365" lon="3.36923">
        <ele>139.1</ele>
        <time>2024-08-06T06:18:52Z</time>
      </trkpt>
      <trkpt lat="43.64364" lon="3.36921">
        <ele>139</ele>
        <time>2024-08-06T06:18:53Z</time>
      </trkpt>
      <trkpt lat="43.64363" lon="3.36918">
        <ele>139</ele>
        <time>2024-08-06T06:18:54Z</time>
      </trkpt>
      <trkpt lat="43.64362" lon="3.36916">
        <ele>139</ele>
        <time>2024-08-06T06:18:55Z</time>
      </trkpt>
      <trkpt lat="43.6436" lon="3.36915">
        <ele>139.1</ele>
        <time>2024-08-06T06:18:56Z</time>
      </trkpt>
      <trkpt lat="43.64357" lon="3.36914">
        <ele>139.3</ele>
        <time>2024-08-06T06:18:57Z</time>
      </trkpt>
      <trkpt lat="43.64354" lon="3.36911">
        <ele>139.5</ele>
        <time>2024-08-06T06:18:58Z</time>
      </trkpt>
      <trkpt lat="43.6435" lon="3.36907">
        <ele>139.8</ele>
        <time>2024-08-06T06:18:59Z</time>
      </trkpt>
      <trkpt lat="43.64347" lon="3.36902">
        <ele>140</ele>
        <time>2024-08-06T06:19:00Z</time>
      </trkpt>
      <trkpt lat="43.64346" lon="3.36896">
        <ele>140.1</ele>
        <time>2024-08-06T06:19:01Z</time>
      </trkpt>
      <trkpt lat="43.64346" lon="3.3689">
        <ele>140.1</ele>
        <time>2024-08-06T06:19:02Z</time>
      </trkpt>
      <trkpt lat="43.64345" lon="3.36884">
        <ele>140.1</ele>
        <time>2024-08-06T06:19:03Z</time>
      </trkpt>
      <trkpt lat="43.64344" lon="3.36879">
        <ele>140.1</ele>
        <time>2024-08-06T06:19:04Z</time>
      </trkpt>
      <trkpt lat="43.64343" lon="3.36874">
        <ele>140.1</ele>
        <time>2024-08-06T06:19:05Z</time>
      </trkpt>
      <trkpt lat="43.64342" lon="3.36868">
        <ele>140.1</ele>
        <time>2024-08-06T06:19:06Z</time>
      </trkpt>
      <trkpt lat="43.64342" lon="3.36862">
        <ele>140.1</ele>
        <time>2024-08-06T06:19:07Z</time>
      </trkpt>
      <trkpt lat="43.64342" lon="3.36856">
        <ele>139.9</ele>
        <time>2024-08-06T06:19:08Z</time>
      </trkpt>
      <trkpt lat="43.64342" lon="3.36852">
        <ele>139.7</ele>
        <time>2024-08-06T06:19:09Z</time>
      </trkpt>
      <trkpt lat="43.64341" lon="3.36848">
        <ele>139.7</ele>
        <time>2024-08-06T06:19:10Z</time>
      </trkpt>
      <trkpt lat="43.6434" lon="3.36843">
        <ele>139.6</ele>
        <time>2024-08-06T06:19:11Z</time>
      </trkpt>
      <trkpt lat="43.64339" lon="3.36839">
        <ele>139.6</ele>
        <time>2024-08-06T06:19:12Z</time>
      </trkpt>
      <trkpt lat="43.64338" lon="3.36833">
        <ele>139.5</ele>
        <time>2024-08-06T06:19:13Z</time>
      </trkpt>
      <trkpt lat="43.64336" lon="3.36827">
        <ele>139.5</ele>
        <time>2024-08-06T06:19:14Z</time>
      </trkpt>
      <trkpt lat="43.64335" lon="3.36821">
        <ele>139.4</ele>
        <time>2024-08-06T06:19:15Z</time>
      </trkpt>
      <trkpt lat="43.64334" lon="3.36815">
        <ele>139.3</ele>
        <time>2024-08-06T06:19:16Z</time>
      </trkpt>
      <trkpt lat="43.64333" lon="3.36809">
        <ele>139.2</ele>
        <time>2024-08-06T06:19:17Z</time>
      </trkpt>
      <trkpt lat="43.64331" lon="3.36804">
        <ele>139.3</ele>
        <time>2024-08-06T06:19:18Z</time>
      </trkpt>
      <trkpt lat="43.64329" lon="3.36799">
        <ele>139.6</ele>
        <time>2024-08-06T06:19:19Z</time>
      </trkpt>
      <trkpt lat="43.64328" lon="3.36795">
        <ele>139.6</ele>
        <time>2024-08-06T06:19:20Z</time>
      </trkpt>
      <trkpt lat="43.64327" lon="3.36793">
        <ele>139.7</ele>
        <time>2024-08-06T06:19:21Z</time>
      </trkpt>
      <trkpt lat="43.64326" lon="3.36792">
        <ele>139.8</ele>
        <time>2024-08-06T06:19:22Z</time>
      </trkpt>
      <trkpt lat="43.64325" lon="3.3679">
        <ele>139.9</ele>
        <time>2024-08-06T06:19:23Z</time>
      </trkpt>
      <trkpt lat="43.64324" lon="3.36788">
        <ele>139.9</ele>
        <time>2024-08-06T06:19:24Z</time>
      </trkpt>
      <trkpt lat="43.64323" lon="3.36786">
        <ele>140</ele>
        <time>2024-08-06T06:19:25Z</time>
      </trkpt>
      <trkpt lat="43.64323" lon="3.36784">
        <ele>139.9</ele>
        <time>2024-08-06T06:19:26Z</time>
      </trkpt>
      <trkpt lat="43.64323" lon="3.36782">
        <ele>139.9</ele>
        <time>2024-08-06T06:19:27Z</time>
      </trkpt>
      <trkpt lat="43.64322" lon="3.3678">
        <ele>139.9</ele>
        <time>2024-08-06T06:19:28Z</time>
      </trkpt>
      <trkpt lat="43.64321" lon="3.36779">
        <ele>139.9</ele>
        <time>2024-08-06T06:19:29Z</time>
      </trkpt>
      <trkpt lat="43.64321" lon="3.36778">
        <ele>139.9</ele>
        <time>2024-08-06T06:19:30Z</time>
      </trkpt>
      <trkpt lat="43.64321" lon="3.36777">
        <ele>139.9</ele>
        <time>2024-08-06T06:19:31Z</time>
      </trkpt>
      <trkpt lat="43.6432" lon="3.36775">
        <ele>139.9</ele>
        <time>2024-08-06T06:19:32Z</time>
      </trkpt>
      <trkpt lat="43.64321" lon="3.36774">
        <ele>139.8</ele>
        <time>2024-08-06T06:19:33Z</time>
      </trkpt>
      <trkpt lat="43.64321" lon="3.36773">
        <ele>139.8</ele>
        <time>2024-08-06T06:19:34Z</time>
      </trkpt>
      <trkpt lat="43.6432" lon="3.36771">
        <ele>139.8</ele>
        <time>2024-08-06T06:19:35Z</time>
      </trkpt>
      <trkpt lat="43.64319" lon="3.36768">
        <ele>139.9</ele>
        <time>2024-08-06T06:19:36Z</time>
      </trkpt>
      <trkpt lat="43.64318" lon="3.36764">
        <ele>139.8</ele>
        <time>2024-08-06T06:19:37Z</time>
      </trkpt>
      <trkpt lat="43.64316" lon="3.3676">
        <ele>139.8</ele>
        <time>2024-08-06T06:19:38Z</time>
      </trkpt>
      <trkpt lat="43.64316" lon="3.36756">
        <ele>139.8</ele>
        <time>2024-08-06T06:19:39Z</time>
      </trkpt>
      <trkpt lat="43.64316" lon="3.36752">
        <ele>139.7</ele>
        <time>2024-08-06T06:19:40Z</time>
      </trkpt>
      <trkpt lat="43.64317" lon="3.36748">
        <ele>139.6</ele>
        <time>2024-08-06T06:19:41Z</time>
      </trkpt>
      <trkpt lat="43.64317" lon="3.36744">
        <ele>139.6</ele>
        <time>2024-08-06T06:19:42Z</time>
      </trkpt>
      <trkpt lat="43.64317" lon="3.36741">
        <ele>139.6</ele>
        <time>2024-08-06T06:19:43Z</time>
      </trkpt>
      <trkpt lat="43.64316" lon="3.36738">
        <ele>139.7</ele>
        <time>2024-08-06T06:19:44Z</time>
      </trkpt>
      <trkpt lat="43.64317" lon="3.36735">
        <ele>139.7</ele>
        <time>2024-08-06T06:19:45Z</time>
      </trkpt>
      <trkpt lat="43.64318" lon="3.36732">
        <ele>139.6</ele>
        <time>2024-08-06T06:19:46Z</time>
      </trkpt>
      <trkpt lat="43.64319" lon="3.36729">
        <ele>139.5</ele>
        <time>2024-08-06T06:19:47Z</time>
      </trkpt>
      <trkpt lat="43.64321" lon="3.36726">
        <ele>139.3</ele>
        <time>2024-08-06T06:19:48Z</time>
      </trkpt>
      <trkpt lat="43.64322" lon="3.36721">
        <ele>139.2</ele>
        <time>2024-08-06T06:19:49Z</time>
      </trkpt>
      <trkpt lat="43.64322" lon="3.36716">
        <ele>139.1</ele>
        <time>2024-08-06T06:19:50Z</time>
      </trkpt>
      <trkpt lat="43.64321" lon="3.36712">
        <ele>139.2</ele>
        <time>2024-08-06T06:19:51Z</time>
      </trkpt>
      <trkpt lat="43.6432" lon="3.36707">
        <ele>139.2</ele>
        <time>2024-08-06T06:19:52Z</time>
      </trkpt>
      <trkpt lat="43.64319" lon="3.36701">
        <ele>139.2</ele>
        <time>2024-08-06T06:19:53Z</time>
      </trkpt>
      <trkpt lat="43.64318" lon="3.36695">
        <ele>139.1</ele>
        <time>2024-08-06T06:19:54Z</time>
      </trkpt>
      <trkpt lat="43.64317" lon="3.3669">
        <ele>139.2</ele>
        <time>2024-08-06T06:19:55Z</time>
      </trkpt>
      <trkpt lat="43.64315" lon="3.36685">
        <ele>139.3</ele>
        <time>2024-08-06T06:19:56Z</time>
      </trkpt>
      <trkpt lat="43.64313" lon="3.36681">
        <ele>139.5</ele>
        <time>2024-08-06T06:19:57Z</time>
      </trkpt>
      <trkpt lat="43.64311" lon="3.36676">
        <ele>139.6</ele>
        <time>2024-08-06T06:19:58Z</time>
      </trkpt>
      <trkpt lat="43.64309" lon="3.36671">
        <ele>139.8</ele>
        <time>2024-08-06T06:19:59Z</time>
      </trkpt>
      <trkpt lat="43.64306" lon="3.36666">
        <ele>139.9</ele>
        <time>2024-08-06T06:20:00Z</time>
      </trkpt>
      <trkpt lat="43.64303" lon="3.36663">
        <ele>140</ele>
        <time>2024-08-06T06:20:01Z</time>
      </trkpt>
      <trkpt lat="43.64299" lon="3.36659">
        <ele>140</ele>
        <time>2024-08-06T06:20:02Z</time>
      </trkpt>
      <trkpt lat="43.64296" lon="3.36657">
        <ele>140</ele>
        <time>2024-08-06T06:20:03Z</time>
      </trkpt>
      <trkpt lat="43.64292" lon="3.36654">
        <ele>140</ele>
        <time>2024-08-06T06:20:04Z</time>
      </trkpt>
      <trkpt lat="43.64288" lon="3.36651">
        <ele>140.1</ele>
        <time>2024-08-06T06:20:05Z</time>
      </trkpt>
      <trkpt lat="43.64286" lon="3.36647">
        <ele>140</ele>
        <time>2024-08-06T06:20:06Z</time>
      </trkpt>
      <trkpt lat="43.64285" lon="3.36642">
        <ele>139.9</ele>
        <time>2024-08-06T06:20:07Z</time>
      </trkpt>
      <trkpt lat="43.64285" lon="3.36636">
        <ele>139.7</ele>
        <time>2024-08-06T06:20:08Z</time>
      </trkpt>
      <trkpt lat="43.64285" lon="3.3663">
        <ele>139.7</ele>
        <time>2024-08-06T06:20:09Z</time>
      </trkpt>
      <trkpt lat="43.64285" lon="3.36624">
        <ele>139.7</ele>
        <time>2024-08-06T06:20:10Z</time>
      </trkpt>
      <trkpt lat="43.64284" lon="3.36618">
        <ele>139.8</ele>
        <time>2024-08-06T06:20:11Z</time>
      </trkpt>
      <trkpt lat="43.64284" lon="3.36612">
        <ele>139.8</ele>
        <time>2024-08-06T06:20:12Z</time>
      </trkpt>
      <trkpt lat="43.64284" lon="3.36606">
        <ele>139.9</ele>
        <time>2024-08-06T06:20:13Z</time>
      </trkpt>
      <trkpt lat="43.64283" lon="3.366">
        <ele>140.1</ele>
        <time>2024-08-06T06:20:14Z</time>
      </trkpt>
      <trkpt lat="43.64282" lon="3.36595">
        <ele>140.3</ele>
        <time>2024-08-06T06:20:15Z</time>
      </trkpt>
      <trkpt lat="43.64281" lon="3.3659">
        <ele>140.6</ele>
        <time>2024-08-06T06:20:16Z</time>
      </trkpt>
      <trkpt lat="43.6428" lon="3.36584">
        <ele>140.8</ele>
        <time>2024-08-06T06:20:17Z</time>
      </trkpt>
      <trkpt lat="43.6428" lon="3.36579">
        <ele>140.8</ele>
        <time>2024-08-06T06:20:18Z</time>
      </trkpt>
      <trkpt lat="43.6428" lon="3.36574">
        <ele>140.8</ele>
        <time>2024-08-06T06:20:19Z</time>
      </trkpt>
      <trkpt lat="43.64279" lon="3.36569">
        <ele>140.9</ele>
        <time>2024-08-06T06:20:20Z</time>
      </trkpt>
      <trkpt lat="43.64279" lon="3.36563">
        <ele>140.9</ele>
        <time>2024-08-06T06:20:21Z</time>
      </trkpt>
      <trkpt lat="43.64278" lon="3.36557">
        <ele>141</ele>
        <time>2024-08-06T06:20:22Z</time>
      </trkpt>
      <trkpt lat="43.64276" lon="3.36553">
        <ele>141.1</ele>
        <time>2024-08-06T06:20:23Z</time>
      </trkpt>
      <trkpt lat="43.64274" lon="3.36548">
        <ele>141.1</ele>
        <time>2024-08-06T06:20:24Z</time>
      </trkpt>
      <trkpt lat="43.64273" lon="3.36545">
        <ele>141.2</ele>
        <time>2024-08-06T06:20:25Z</time>
      </trkpt>
      <trkpt lat="43.64274" lon="3.36541">
        <ele>141.1</ele>
        <time>2024-08-06T06:20:26Z</time>
      </trkpt>
      <trkpt lat="43.64273" lon="3.36537">
        <ele>141.2</ele>
        <time>2024-08-06T06:20:27Z</time>
      </trkpt>
      <trkpt lat="43.64275" lon="3.36531">
        <ele>141.1</ele>
        <time>2024-08-06T06:20:28Z</time>
      </trkpt>
      <trkpt lat="43.64277" lon="3.36523">
        <ele>140.9</ele>
        <time>2024-08-06T06:20:29Z</time>
      </trkpt>
      <trkpt lat="43.64279" lon="3.36516">
        <ele>140.5</ele>
        <time>2024-08-06T06:20:30Z</time>
      </trkpt>
      <trkpt lat="43.6428" lon="3.36507">
        <ele>140.2</ele>
        <time>2024-08-06T06:20:31Z</time>
      </trkpt>
      <trkpt lat="43.6428" lon="3.365">
        <ele>139.9</ele>
        <time>2024-08-06T06:20:32Z</time>
      </trkpt>
      <trkpt lat="43.64281" lon="3.36493">
        <ele>140.1</ele>
        <time>2024-08-06T06:20:33Z</time>
      </trkpt>
      <trkpt lat="43.64283" lon="3.36487">
        <ele>140.2</ele>
        <time>2024-08-06T06:20:34Z</time>
      </trkpt>
      <trkpt lat="43.64284" lon="3.36481">
        <ele>140.3</ele>
        <time>2024-08-06T06:20:35Z</time>
      </trkpt>
      <trkpt lat="43.64285" lon="3.36475">
        <ele>140.4</ele>
        <time>2024-08-06T06:20:36Z</time>
      </trkpt>
      <trkpt lat="43.64286" lon="3.36469">
        <ele>140.6</ele>
        <time>2024-08-06T06:20:37Z</time>
      </trkpt>
      <trkpt lat="43.64287" lon="3.36461">
        <ele>141</ele>
        <time>2024-08-06T06:20:38Z</time>
      </trkpt>
      <trkpt lat="43.64288" lon="3.36453">
        <ele>141.4</ele>
        <time>2024-08-06T06:20:39Z</time>
      </trkpt>
      <trkpt lat="43.64289" lon="3.36444">
        <ele>141.8</ele>
        <time>2024-08-06T06:20:40Z</time>
      </trkpt>
      <trkpt lat="43.6429" lon="3.36437">
        <ele>142.2</ele>
        <time>2024-08-06T06:20:41Z</time>
      </trkpt>
      <trkpt lat="43.64292" lon="3.36429">
        <ele>142.6</ele>
        <time>2024-08-06T06:20:42Z</time>
      </trkpt>
      <trkpt lat="43.64293" lon="3.36423">
        <ele>142.8</ele>
        <time>2024-08-06T06:20:43Z</time>
      </trkpt>
      <trkpt lat="43.64295" lon="3.36417">
        <ele>142.9</ele>
        <time>2024-08-06T06:20:44Z</time>
      </trkpt>
      <trkpt lat="43.64297" lon="3.36412">
        <ele>142.8</ele>
        <time>2024-08-06T06:20:45Z</time>
      </trkpt>
      <trkpt lat="43.64298" lon="3.36407">
        <ele>143</ele>
        <time>2024-08-06T06:20:46Z</time>
      </trkpt>
      <trkpt lat="43.643" lon="3.36402">
        <ele>143</ele>
        <time>2024-08-06T06:20:47Z</time>
      </trkpt>
      <trkpt lat="43.64302" lon="3.36398">
        <ele>142.9</ele>
        <time>2024-08-06T06:20:48Z</time>
      </trkpt>
      <trkpt lat="43.64303" lon="3.36393">
        <ele>143.1</ele>
        <time>2024-08-06T06:20:49Z</time>
      </trkpt>
      <trkpt lat="43.64305" lon="3.36389">
        <ele>143.1</ele>
        <time>2024-08-06T06:20:50Z</time>
      </trkpt>
      <trkpt lat="43.64306" lon="3.36385">
        <ele>143.1</ele>
        <time>2024-08-06T06:20:51Z</time>
      </trkpt>
      <trkpt lat="43.64307" lon="3.3638">
        <ele>143.3</ele>
        <time>2024-08-06T06:20:52Z</time>
      </trkpt>
      <trkpt lat="43.64308" lon="3.36375">
        <ele>143.5</ele>
        <time>2024-08-06T06:20:53Z</time>
      </trkpt>
      <trkpt lat="43.64311" lon="3.36372">
        <ele>143.5</ele>
        <time>2024-08-06T06:20:54Z</time>
      </trkpt>
      <trkpt lat="43.64315" lon="3.36369">
        <ele>143.5</ele>
        <time>2024-08-06T06:20:55Z</time>
      </trkpt>
      <trkpt lat="43.64319" lon="3.36366">
        <ele>143.4</ele>
        <time>2024-08-06T06:20:56Z</time>
      </trkpt>
      <trkpt lat="43.64323" lon="3.36363">
        <ele>143.3</ele>
        <time>2024-08-06T06:20:57Z</time>
      </trkpt>
      <trkpt lat="43.64326" lon="3.36359">
        <ele>143.2</ele>
        <time>2024-08-06T06:20:58Z</time>
      </trkpt>
      <trkpt lat="43.64329" lon="3.36354">
        <ele>143</ele>
        <time>2024-08-06T06:20:59Z</time>
      </trkpt>
      <trkpt lat="43.64332" lon="3.36349">
        <ele>142.7</ele>
        <time>2024-08-06T06:21:00Z</time>
      </trkpt>
      <trkpt lat="43.64335" lon="3.36344">
        <ele>142.2</ele>
        <time>2024-08-06T06:21:01Z</time>
      </trkpt>
      <trkpt lat="43.64338" lon="3.36338">
        <ele>141.8</ele>
        <time>2024-08-06T06:21:02Z</time>
      </trkpt>
      <trkpt lat="43.64341" lon="3.36332">
        <ele>141.5</ele>
        <time>2024-08-06T06:21:03Z</time>
      </trkpt>
      <trkpt lat="43.64343" lon="3.36325">
        <ele>141.5</ele>
        <time>2024-08-06T06:21:04Z</time>
      </trkpt>
      <trkpt lat="43.64346" lon="3.36319">
        <ele>141.4</ele>
        <time>2024-08-06T06:21:05Z</time>
      </trkpt>
      <trkpt lat="43.64348" lon="3.36314">
        <ele>141.3</ele>
        <time>2024-08-06T06:21:06Z</time>
      </trkpt>
      <trkpt lat="43.64349" lon="3.36311">
        <ele>141.2</ele>
        <time>2024-08-06T06:21:07Z</time>
      </trkpt>
      <trkpt lat="43.64352" lon="3.36307">
        <ele>141</ele>
        <time>2024-08-06T06:21:08Z</time>
      </trkpt>
      <trkpt lat="43.64354" lon="3.36304">
        <ele>140.9</ele>
        <time>2024-08-06T06:21:09Z</time>
      </trkpt>
      <trkpt lat="43.64358" lon="3.363">
        <ele>140.6</ele>
        <time>2024-08-06T06:21:10Z</time>
      </trkpt>
      <trkpt lat="43.64361" lon="3.36298">
        <ele>140.3</ele>
        <time>2024-08-06T06:21:11Z</time>
      </trkpt>
      <trkpt lat="43.64364" lon="3.36298">
        <ele>140.1</ele>
        <time>2024-08-06T06:21:12Z</time>
      </trkpt>
      <trkpt lat="43.64367" lon="3.36297">
        <ele>139.9</ele>
        <time>2024-08-06T06:21:13Z</time>
      </trkpt>
      <trkpt lat="43.64369" lon="3.36295">
        <ele>139.9</ele>
        <time>2024-08-06T06:21:14Z</time>
      </trkpt>
      <trkpt lat="43.64372" lon="3.36294">
        <ele>139.8</ele>
        <time>2024-08-06T06:21:15Z</time>
      </trkpt>
      <trkpt lat="43.64375" lon="3.36293">
        <ele>139.7</ele>
        <time>2024-08-06T06:21:16Z</time>
      </trkpt>
      <trkpt lat="43.64379" lon="3.36291">
        <ele>139.6</ele>
        <time>2024-08-06T06:21:17Z</time>
      </trkpt>
      <trkpt lat="43.64381" lon="3.36288">
        <ele>139.7</ele>
        <time>2024-08-06T06:21:18Z</time>
      </trkpt>
      <trkpt lat="43.64383" lon="3.36285">
        <ele>139.7</ele>
        <time>2024-08-06T06:21:19Z</time>
      </trkpt>
      <trkpt lat="43.64385" lon="3.36282">
        <ele>139.9</ele>
        <time>2024-08-06T06:21:20Z</time>
      </trkpt>
      <trkpt lat="43.64386" lon="3.36279">
        <ele>140</ele>
        <time>2024-08-06T06:21:21Z</time>
      </trkpt>
      <trkpt lat="43.64387" lon="3.36274">
        <ele>140.3</ele>
        <time>2024-08-06T06:21:22Z</time>
      </trkpt>
      <trkpt lat="43.64389" lon="3.36271">
        <ele>140.5</ele>
        <time>2024-08-06T06:21:23Z</time>
      </trkpt>
      <trkpt lat="43.6439" lon="3.36267">
        <ele>140.7</ele>
        <time>2024-08-06T06:21:24Z</time>
      </trkpt>
      <trkpt lat="43.64392" lon="3.36264">
        <ele>140.7</ele>
        <time>2024-08-06T06:21:25Z</time>
      </trkpt>
      <trkpt lat="43.64393" lon="3.36261">
        <ele>140.8</ele>
        <time>2024-08-06T06:21:26Z</time>
      </trkpt>
      <trkpt lat="43.64394" lon="3.36258">
        <ele>140.9</ele>
        <time>2024-08-06T06:21:27Z</time>
      </trkpt>
      <trkpt lat="43.64395" lon="3.36255">
        <ele>141</ele>
        <time>2024-08-06T06:21:28Z</time>
      </trkpt>
      <trkpt lat="43.64396" lon="3.36252">
        <ele>141.1</ele>
        <time>2024-08-06T06:21:29Z</time>
      </trkpt>
      <trkpt lat="43.64397" lon="3.36249">
        <ele>141.1</ele>
        <time>2024-08-06T06:21:30Z</time>
      </trkpt>
      <trkpt lat="43.64397" lon="3.36246">
        <ele>141.2</ele>
        <time>2024-08-06T06:21:31Z</time>
      </trkpt>
      <trkpt lat="43.64395" lon="3.36242">
        <ele>141.6</ele>
        <time>2024-08-06T06:21:32Z</time>
      </trkpt>
      <trkpt lat="43.64393" lon="3.36239">
        <ele>141.9</ele>
        <time>2024-08-06T06:21:33Z</time>
      </trkpt>
      <trkpt lat="43.64391" lon="3.36236">
        <ele>142.2</ele>
        <time>2024-08-06T06:21:34Z</time>
      </trkpt>
      <trkpt lat="43.6439" lon="3.36234">
        <ele>142.4</ele>
        <time>2024-08-06T06:21:35Z</time>
      </trkpt>
      <trkpt lat="43.64389" lon="3.36232">
        <ele>142.6</ele>
        <time>2024-08-06T06:21:36Z</time>
      </trkpt>
      <trkpt lat="43.64388" lon="3.36229">
        <ele>142.8</ele>
        <time>2024-08-06T06:21:37Z</time>
      </trkpt>
      <trkpt lat="43.64387" lon="3.36227">
        <ele>142.9</ele>
        <time>2024-08-06T06:21:38Z</time>
      </trkpt>
      <trkpt lat="43.64386" lon="3.36225">
        <ele>143.1</ele>
        <time>2024-08-06T06:21:39Z</time>
      </trkpt>
      <trkpt lat="43.64384" lon="3.36222">
        <ele>143.4</ele>
        <time>2024-08-06T06:21:40Z</time>
      </trkpt>
      <trkpt lat="43.64383" lon="3.36219">
        <ele>143.5</ele>
        <time>2024-08-06T06:21:41Z</time>
      </trkpt>
      <trkpt lat="43.64381" lon="3.36217">
        <ele>143.7</ele>
        <time>2024-08-06T06:21:42Z</time>
      </trkpt>
      <trkpt lat="43.64379" lon="3.36215">
        <ele>144</ele>
        <time>2024-08-06T06:21:43Z</time>
      </trkpt>
      <trkpt lat="43.64378" lon="3.36213">
        <ele>144.2</ele>
        <time>2024-08-06T06:21:44Z</time>
      </trkpt>
      <trkpt lat="43.64378" lon="3.36211">
        <ele>144.3</ele>
        <time>2024-08-06T06:21:45Z</time>
      </trkpt>
      <trkpt lat="43.64378" lon="3.3621">
        <ele>144.3</ele>
        <time>2024-08-06T06:21:46Z</time>
      </trkpt>
      <trkpt lat="43.64378" lon="3.36209">
        <ele>144.3</ele>
        <time>2024-08-06T06:21:47Z</time>
      </trkpt>
      <trkpt lat="43.64378" lon="3.36209">
        <ele>144.3</ele>
        <time>2024-08-06T06:21:48Z</time>
      </trkpt>
      <trkpt lat="43.6438" lon="3.36202">
        <ele>144.3</ele>
        <time>2024-08-06T06:22:01Z</time>
      </trkpt>
      <trkpt lat="43.64381" lon="3.36197">
        <ele>144.3</ele>
        <time>2024-08-06T06:22:02Z</time>
      </trkpt>
      <trkpt lat="43.6438" lon="3.36192">
        <ele>145</ele>
        <time>2024-08-06T06:22:03Z</time>
      </trkpt>
      <trkpt lat="43.64379" lon="3.36189">
        <ele>145.6</ele>
        <time>2024-08-06T06:22:04Z</time>
      </trkpt>
      <trkpt lat="43.64378" lon="3.36186">
        <ele>146.2</ele>
        <time>2024-08-06T06:22:05Z</time>
      </trkpt>
      <trkpt lat="43.64376" lon="3.36183">
        <ele>147</ele>
        <time>2024-08-06T06:22:06Z</time>
      </trkpt>
      <trkpt lat="43.64374" lon="3.3618">
        <ele>147.7</ele>
        <time>2024-08-06T06:22:07Z</time>
      </trkpt>
      <trkpt lat="43.64371" lon="3.36178">
        <ele>148.4</ele>
        <time>2024-08-06T06:22:08Z</time>
      </trkpt>
      <trkpt lat="43.64369" lon="3.36176">
        <ele>148.9</ele>
        <time>2024-08-06T06:22:09Z</time>
      </trkpt>
      <trkpt lat="43.64368" lon="3.36173">
        <ele>149.5</ele>
        <time>2024-08-06T06:22:10Z</time>
      </trkpt>
      <trkpt lat="43.64367" lon="3.36171">
        <ele>149.8</ele>
        <time>2024-08-06T06:22:11Z</time>
      </trkpt>
      <trkpt lat="43.64368" lon="3.36168">
        <ele>150.1</ele>
        <time>2024-08-06T06:22:12Z</time>
      </trkpt>
      <trkpt lat="43.64368" lon="3.36166">
        <ele>150.3</ele>
        <time>2024-08-06T06:22:13Z</time>
      </trkpt>
      <trkpt lat="43.64369" lon="3.36163">
        <ele>150.4</ele>
        <time>2024-08-06T06:22:14Z</time>
      </trkpt>
      <trkpt lat="43.6437" lon="3.36158">
        <ele>150.7</ele>
        <time>2024-08-06T06:22:15Z</time>
      </trkpt>
      <trkpt lat="43.64373" lon="3.36153">
        <ele>150.7</ele>
        <time>2024-08-06T06:22:16Z</time>
      </trkpt>
      <trkpt lat="43.64376" lon="3.36148">
        <ele>150.7</ele>
        <time>2024-08-06T06:22:17Z</time>
      </trkpt>
      <trkpt lat="43.64378" lon="3.36143">
        <ele>150.9</ele>
        <time>2024-08-06T06:22:18Z</time>
      </trkpt>
      <trkpt lat="43.6438" lon="3.36137">
        <ele>151.1</ele>
        <time>2024-08-06T06:22:19Z</time>
      </trkpt>
      <trkpt lat="43.64381" lon="3.36132">
        <ele>151.3</ele>
        <time>2024-08-06T06:22:20Z</time>
      </trkpt>
      <trkpt lat="43.64382" lon="3.36127">
        <ele>151.6</ele>
        <time>2024-08-06T06:22:21Z</time>
      </trkpt>
      <trkpt lat="43.64386" lon="3.36123">
        <ele>151.5</ele>
        <time>2024-08-06T06:22:22Z</time>
      </trkpt>
      <trkpt lat="43.6439" lon="3.36118">
        <ele>151.4</ele>
        <time>2024-08-06T06:22:23Z</time>
      </trkpt>
      <trkpt lat="43.64394" lon="3.36114">
        <ele>151.2</ele>
        <time>2024-08-06T06:22:24Z</time>
      </trkpt>
      <trkpt lat="43.64399" lon="3.3611">
        <ele>151</ele>
        <time>2024-08-06T06:22:25Z</time>
      </trkpt>
      <trkpt lat="43.64404" lon="3.36108">
        <ele>150.7</ele>
        <time>2024-08-06T06:22:26Z</time>
      </trkpt>
      <trkpt lat="43.6441" lon="3.36105">
        <ele>150.3</ele>
        <time>2024-08-06T06:22:27Z</time>
      </trkpt>
      <trkpt lat="43.64416" lon="3.36101">
        <ele>150.2</ele>
        <time>2024-08-06T06:22:28Z</time>
      </trkpt>
      <trkpt lat="43.64422" lon="3.36096">
        <ele>150.2</ele>
        <time>2024-08-06T06:22:29Z</time>
      </trkpt>
      <trkpt lat="43.64427" lon="3.3609">
        <ele>150.5</ele>
        <time>2024-08-06T06:22:30Z</time>
      </trkpt>
      <trkpt lat="43.64432" lon="3.36084">
        <ele>150.8</ele>
        <time>2024-08-06T06:22:31Z</time>
      </trkpt>
      <trkpt lat="43.64436" lon="3.36078">
        <ele>151</ele>
        <time>2024-08-06T06:22:32Z</time>
      </trkpt>
      <trkpt lat="43.64442" lon="3.36075">
        <ele>150.8</ele>
        <time>2024-08-06T06:22:33Z</time>
      </trkpt>
      <trkpt lat="43.64448" lon="3.36076">
        <ele>150.3</ele>
        <time>2024-08-06T06:22:34Z</time>
      </trkpt>
      <trkpt lat="43.64453" lon="3.36074">
        <ele>150.1</ele>
        <time>2024-08-06T06:22:35Z</time>
      </trkpt>
      <trkpt lat="43.64458" lon="3.36071">
        <ele>149.9</ele>
        <time>2024-08-06T06:22:36Z</time>
      </trkpt>
      <trkpt lat="43.64461" lon="3.36068">
        <ele>149.9</ele>
        <time>2024-08-06T06:22:37Z</time>
      </trkpt>
      <trkpt lat="43.64464" lon="3.36067">
        <ele>149.8</ele>
        <time>2024-08-06T06:22:38Z</time>
      </trkpt>
      <trkpt lat="43.64467" lon="3.36066">
        <ele>149.6</ele>
        <time>2024-08-06T06:22:39Z</time>
      </trkpt>
      <trkpt lat="43.64469" lon="3.36065">
        <ele>149.6</ele>
        <time>2024-08-06T06:22:40Z</time>
      </trkpt>
      <trkpt lat="43.64472" lon="3.36062">
        <ele>149.6</ele>
        <time>2024-08-06T06:22:41Z</time>
      </trkpt>
      <trkpt lat="43.64475" lon="3.3606">
        <ele>149.5</ele>
        <time>2024-08-06T06:22:42Z</time>
      </trkpt>
      <trkpt lat="43.64478" lon="3.36057">
        <ele>149.5</ele>
        <time>2024-08-06T06:22:43Z</time>
      </trkpt>
      <trkpt lat="43.64482" lon="3.36055">
        <ele>149.3</ele>
        <time>2024-08-06T06:22:44Z</time>
      </trkpt>
      <trkpt lat="43.64487" lon="3.36052">
        <ele>149.2</ele>
        <time>2024-08-06T06:22:45Z</time>
      </trkpt>
      <trkpt lat="43.64492" lon="3.36048">
        <ele>149.1</ele>
        <time>2024-08-06T06:22:46Z</time>
      </trkpt>
      <trkpt lat="43.64498" lon="3.36045">
        <ele>148.9</ele>
        <time>2024-08-06T06:22:47Z</time>
      </trkpt>
      <trkpt lat="43.64504" lon="3.36041">
        <ele>148.8</ele>
        <time>2024-08-06T06:22:48Z</time>
      </trkpt>
      <trkpt lat="43.64509" lon="3.36039">
        <ele>148.5</ele>
        <time>2024-08-06T06:22:49Z</time>
      </trkpt>
      <trkpt lat="43.64515" lon="3.36037">
        <ele>148.3</ele>
        <time>2024-08-06T06:22:50Z</time>
      </trkpt>
      <trkpt lat="43.6452" lon="3.36035">
        <ele>148</ele>
        <time>2024-08-06T06:22:51Z</time>
      </trkpt>
      <trkpt lat="43.64527" lon="3.36032">
        <ele>147.8</ele>
        <time>2024-08-06T06:22:52Z</time>
      </trkpt>
      <trkpt lat="43.64533" lon="3.3603">
        <ele>147.7</ele>
        <time>2024-08-06T06:22:53Z</time>
      </trkpt>
      <trkpt lat="43.64539" lon="3.36027">
        <ele>147.6</ele>
        <time>2024-08-06T06:22:54Z</time>
      </trkpt>
      <trkpt lat="43.64546" lon="3.36028">
        <ele>147.3</ele>
        <time>2024-08-06T06:22:55Z</time>
      </trkpt>
      <trkpt lat="43.64553" lon="3.36029">
        <ele>147</ele>
        <time>2024-08-06T06:22:56Z</time>
      </trkpt>
      <trkpt lat="43.6456" lon="3.36027">
        <ele>146.7</ele>
        <time>2024-08-06T06:22:57Z</time>
      </trkpt>
      <trkpt lat="43.64567" lon="3.36024">
        <ele>146.2</ele>
        <time>2024-08-06T06:22:58Z</time>
      </trkpt>
      <trkpt lat="43.64572" lon="3.36022">
        <ele>145.9</ele>
        <time>2024-08-06T06:22:59Z</time>
      </trkpt>
      <trkpt lat="43.64576" lon="3.36021">
        <ele>145.7</ele>
        <time>2024-08-06T06:23:00Z</time>
      </trkpt>
      <trkpt lat="43.6458" lon="3.36022">
        <ele>145.4</ele>
        <time>2024-08-06T06:23:01Z</time>
      </trkpt>
      <trkpt lat="43.64584" lon="3.36023">
        <ele>145.1</ele>
        <time>2024-08-06T06:23:02Z</time>
      </trkpt>
      <trkpt lat="43.64587" lon="3.36025">
        <ele>144.7</ele>
        <time>2024-08-06T06:23:03Z</time>
      </trkpt>
      <trkpt lat="43.64589" lon="3.36028">
        <ele>144.4</ele>
        <time>2024-08-06T06:23:04Z</time>
      </trkpt>
      <trkpt lat="43.6459" lon="3.36031">
        <ele>144.2</ele>
        <time>2024-08-06T06:23:05Z</time>
      </trkpt>
      <trkpt lat="43.64591" lon="3.36035">
        <ele>143.9</ele>
        <time>2024-08-06T06:23:06Z</time>
      </trkpt>
      <trkpt lat="43.64595" lon="3.36038">
        <ele>143.4</ele>
        <time>2024-08-06T06:23:07Z</time>
      </trkpt>
      <trkpt lat="43.646" lon="3.36042">
        <ele>142.7</ele>
        <time>2024-08-06T06:23:08Z</time>
      </trkpt>
      <trkpt lat="43.64604" lon="3.36044">
        <ele>142.2</ele>
        <time>2024-08-06T06:23:09Z</time>
      </trkpt>
      <trkpt lat="43.64608" lon="3.36044">
        <ele>141.8</ele>
        <time>2024-08-06T06:23:10Z</time>
      </trkpt>
      <trkpt lat="43.64611" lon="3.36042">
        <ele>141.5</ele>
        <time>2024-08-06T06:23:11Z</time>
      </trkpt>
      <trkpt lat="43.64613" lon="3.3604">
        <ele>141.6</ele>
        <time>2024-08-06T06:23:12Z</time>
      </trkpt>
      <trkpt lat="43.64615" lon="3.36037">
        <ele>141.7</ele>
        <time>2024-08-06T06:23:13Z</time>
      </trkpt>
      <trkpt lat="43.64617" lon="3.36035">
        <ele>141.7</ele>
        <time>2024-08-06T06:23:14Z</time>
      </trkpt>
      <trkpt lat="43.6462" lon="3.36032">
        <ele>141.8</ele>
        <time>2024-08-06T06:23:15Z</time>
      </trkpt>
      <trkpt lat="43.64623" lon="3.36028">
        <ele>142</ele>
        <time>2024-08-06T06:23:16Z</time>
      </trkpt>
      <trkpt lat="43.64625" lon="3.36024">
        <ele>142.1</ele>
        <time>2024-08-06T06:23:17Z</time>
      </trkpt>
      <trkpt lat="43.64627" lon="3.36019">
        <ele>142.1</ele>
        <time>2024-08-06T06:23:18Z</time>
      </trkpt>
      <trkpt lat="43.64629" lon="3.36015">
        <ele>142.2</ele>
        <time>2024-08-06T06:23:19Z</time>
      </trkpt>
      <trkpt lat="43.64632" lon="3.36013">
        <ele>142.1</ele>
        <time>2024-08-06T06:23:20Z</time>
      </trkpt>
      <trkpt lat="43.64635" lon="3.3601">
        <ele>142.1</ele>
        <time>2024-08-06T06:23:21Z</time>
      </trkpt>
      <trkpt lat="43.64638" lon="3.36007">
        <ele>142</ele>
        <time>2024-08-06T06:23:22Z</time>
      </trkpt>
      <trkpt lat="43.64641" lon="3.36004">
        <ele>142.2</ele>
        <time>2024-08-06T06:23:23Z</time>
      </trkpt>
      <trkpt lat="43.64644" lon="3.36003">
        <ele>142.5</ele>
        <time>2024-08-06T06:23:24Z</time>
      </trkpt>
      <trkpt lat="43.64648" lon="3.36002">
        <ele>142.9</ele>
        <time>2024-08-06T06:23:25Z</time>
      </trkpt>
      <trkpt lat="43.64651" lon="3.36002">
        <ele>143.2</ele>
        <time>2024-08-06T06:23:26Z</time>
      </trkpt>
      <trkpt lat="43.64654" lon="3.36002">
        <ele>143.6</ele>
        <time>2024-08-06T06:23:27Z</time>
      </trkpt>
      <trkpt lat="43.64657" lon="3.36005">
        <ele>143.7</ele>
        <time>2024-08-06T06:23:28Z</time>
      </trkpt>
      <trkpt lat="43.6466" lon="3.36008">
        <ele>143.8</ele>
        <time>2024-08-06T06:23:29Z</time>
      </trkpt>
      <trkpt lat="43.64662" lon="3.36012">
        <ele>143.8</ele>
        <time>2024-08-06T06:23:30Z</time>
      </trkpt>
      <trkpt lat="43.64665" lon="3.36016">
        <ele>143.7</ele>
        <time>2024-08-06T06:23:31Z</time>
      </trkpt>
      <trkpt lat="43.64668" lon="3.36019">
        <ele>143.6</ele>
        <time>2024-08-06T06:23:32Z</time>
      </trkpt>
      <trkpt lat="43.64671" lon="3.36023">
        <ele>143.3</ele>
        <time>2024-08-06T06:23:33Z</time>
      </trkpt>
      <trkpt lat="43.64675" lon="3.36027">
        <ele>143.1</ele>
        <time>2024-08-06T06:23:34Z</time>
      </trkpt>
      <trkpt lat="43.64678" lon="3.3603">
        <ele>142.9</ele>
        <time>2024-08-06T06:23:35Z</time>
      </trkpt>
      <trkpt lat="43.64681" lon="3.36035">
        <ele>142.7</ele>
        <time>2024-08-06T06:23:36Z</time>
      </trkpt>
      <trkpt lat="43.64684" lon="3.36039">
        <ele>142.6</ele>
        <time>2024-08-06T06:23:37Z</time>
      </trkpt>
      <trkpt lat="43.64685" lon="3.36044">
        <ele>142.4</ele>
        <time>2024-08-06T06:23:38Z</time>
      </trkpt>
      <trkpt lat="43.64687" lon="3.3605">
        <ele>142.2</ele>
        <time>2024-08-06T06:23:39Z</time>
      </trkpt>
      <trkpt lat="43.6469" lon="3.36055">
        <ele>142</ele>
        <time>2024-08-06T06:23:40Z</time>
      </trkpt>
      <trkpt lat="43.64693" lon="3.36059">
        <ele>141.7</ele>
        <time>2024-08-06T06:23:41Z</time>
      </trkpt>
      <trkpt lat="43.64697" lon="3.36063">
        <ele>141.4</ele>
        <time>2024-08-06T06:23:42Z</time>
      </trkpt>
      <trkpt lat="43.647" lon="3.36066">
        <ele>141.1</ele>
        <time>2024-08-06T06:23:43Z</time>
      </trkpt>
      <trkpt lat="43.64704" lon="3.36069">
        <ele>140.9</ele>
        <time>2024-08-06T06:23:44Z</time>
      </trkpt>
      <trkpt lat="43.64707" lon="3.36073">
        <ele>140.6</ele>
        <time>2024-08-06T06:23:45Z</time>
      </trkpt>
      <trkpt lat="43.64709" lon="3.36078">
        <ele>140.3</ele>
        <time>2024-08-06T06:23:46Z</time>
      </trkpt>
      <trkpt lat="43.64712" lon="3.36082">
        <ele>140.1</ele>
        <time>2024-08-06T06:23:47Z</time>
      </trkpt>
      <trkpt lat="43.64716" lon="3.36086">
        <ele>139.9</ele>
        <time>2024-08-06T06:23:48Z</time>
      </trkpt>
      <trkpt lat="43.64719" lon="3.36088">
        <ele>139.8</ele>
        <time>2024-08-06T06:23:49Z</time>
      </trkpt>
      <trkpt lat="43.64721" lon="3.36091">
        <ele>139.7</ele>
        <time>2024-08-06T06:23:50Z</time>
      </trkpt>
      <trkpt lat="43.64724" lon="3.36094">
        <ele>139.6</ele>
        <time>2024-08-06T06:23:51Z</time>
      </trkpt>
      <trkpt lat="43.64726" lon="3.36097">
        <ele>139.4</ele>
        <time>2024-08-06T06:23:52Z</time>
      </trkpt>
      <trkpt lat="43.6473" lon="3.36099">
        <ele>139.2</ele>
        <time>2024-08-06T06:23:53Z</time>
      </trkpt>
      <trkpt lat="43.64733" lon="3.36096">
        <ele>139.2</ele>
        <time>2024-08-06T06:23:54Z</time>
      </trkpt>
      <trkpt lat="43.64736" lon="3.36093">
        <ele>139.2</ele>
        <time>2024-08-06T06:23:55Z</time>
      </trkpt>
      <trkpt lat="43.64738" lon="3.36087">
        <ele>139.3</ele>
        <time>2024-08-06T06:23:56Z</time>
      </trkpt>
      <trkpt lat="43.6474" lon="3.36083">
        <ele>139.4</ele>
        <time>2024-08-06T06:23:57Z</time>
      </trkpt>
      <trkpt lat="43.64742" lon="3.36078">
        <ele>139.5</ele>
        <time>2024-08-06T06:23:58Z</time>
      </trkpt>
      <trkpt lat="43.64744" lon="3.36073">
        <ele>139.6</ele>
        <time>2024-08-06T06:23:59Z</time>
      </trkpt>
      <trkpt lat="43.64747" lon="3.36069">
        <ele>139.6</ele>
        <time>2024-08-06T06:24:00Z</time>
      </trkpt>
      <trkpt lat="43.6475" lon="3.36066">
        <ele>139.6</ele>
        <time>2024-08-06T06:24:01Z</time>
      </trkpt>
      <trkpt lat="43.64753" lon="3.36062">
        <ele>139.6</ele>
        <time>2024-08-06T06:24:02Z</time>
      </trkpt>
      <trkpt lat="43.64756" lon="3.36059">
        <ele>139.4</ele>
        <time>2024-08-06T06:24:03Z</time>
      </trkpt>
      <trkpt lat="43.64759" lon="3.36057">
        <ele>139.3</ele>
        <time>2024-08-06T06:24:04Z</time>
      </trkpt>
      <trkpt lat="43.64762" lon="3.36055">
        <ele>139.2</ele>
        <time>2024-08-06T06:24:05Z</time>
      </trkpt>
      <trkpt lat="43.64763" lon="3.36053">
        <ele>139.2</ele>
        <time>2024-08-06T06:24:06Z</time>
      </trkpt>
      <trkpt lat="43.64765" lon="3.3605">
        <ele>139.1</ele>
        <time>2024-08-06T06:24:07Z</time>
      </trkpt>
      <trkpt lat="43.64767" lon="3.36048">
        <ele>139</ele>
        <time>2024-08-06T06:24:08Z</time>
      </trkpt>
      <trkpt lat="43.64768" lon="3.36045">
        <ele>139.1</ele>
        <time>2024-08-06T06:24:09Z</time>
      </trkpt>
      <trkpt lat="43.64769" lon="3.36043">
        <ele>139.1</ele>
        <time>2024-08-06T06:24:10Z</time>
      </trkpt>
      <trkpt lat="43.6477" lon="3.3604">
        <ele>139.1</ele>
        <time>2024-08-06T06:24:11Z</time>
      </trkpt>
      <trkpt lat="43.64771" lon="3.36037">
        <ele>139.2</ele>
        <time>2024-08-06T06:24:12Z</time>
      </trkpt>
      <trkpt lat="43.64772" lon="3.36034">
        <ele>139.2</ele>
        <time>2024-08-06T06:24:13Z</time>
      </trkpt>
      <trkpt lat="43.64773" lon="3.3603">
        <ele>139.3</ele>
        <time>2024-08-06T06:24:14Z</time>
      </trkpt>
      <trkpt lat="43.64774" lon="3.36027">
        <ele>139.3</ele>
        <time>2024-08-06T06:24:15Z</time>
      </trkpt>
      <trkpt lat="43.64776" lon="3.36023">
        <ele>139.5</ele>
        <time>2024-08-06T06:24:16Z</time>
      </trkpt>
      <trkpt lat="43.64778" lon="3.36019">
        <ele>139.6</ele>
        <time>2024-08-06T06:24:17Z</time>
      </trkpt>
      <trkpt lat="43.64779" lon="3.36015">
        <ele>139.8</ele>
        <time>2024-08-06T06:24:18Z</time>
      </trkpt>
      <trkpt lat="43.64781" lon="3.36011">
        <ele>139.8</ele>
        <time>2024-08-06T06:24:19Z</time>
      </trkpt>
      <trkpt lat="43.64782" lon="3.36006">
        <ele>140</ele>
        <time>2024-08-06T06:24:20Z</time>
      </trkpt>
      <trkpt lat="43.64784" lon="3.36003">
        <ele>139.9</ele>
        <time>2024-08-06T06:24:21Z</time>
      </trkpt>
      <trkpt lat="43.64785" lon="3.36">
        <ele>140</ele>
        <time>2024-08-06T06:24:22Z</time>
      </trkpt>
      <trkpt lat="43.64786" lon="3.35997">
        <ele>140</ele>
        <time>2024-08-06T06:24:23Z</time>
      </trkpt>
      <trkpt lat="43.64788" lon="3.35993">
        <ele>139.9</ele>
        <time>2024-08-06T06:24:24Z</time>
      </trkpt>
      <trkpt lat="43.64789" lon="3.35989">
        <ele>139.9</ele>
        <time>2024-08-06T06:24:25Z</time>
      </trkpt>
      <trkpt lat="43.64791" lon="3.35985">
        <ele>139.9</ele>
        <time>2024-08-06T06:24:26Z</time>
      </trkpt>
      <trkpt lat="43.64793" lon="3.35981">
        <ele>139.9</ele>
        <time>2024-08-06T06:24:27Z</time>
      </trkpt>
      <trkpt lat="43.64794" lon="3.35977">
        <ele>140</ele>
        <time>2024-08-06T06:24:28Z</time>
      </trkpt>
      <trkpt lat="43.64796" lon="3.35973">
        <ele>140</ele>
        <time>2024-08-06T06:24:29Z</time>
      </trkpt>
      <trkpt lat="43.64798" lon="3.35968">
        <ele>140.1</ele>
        <time>2024-08-06T06:24:30Z</time>
      </trkpt>
      <trkpt lat="43.64799" lon="3.35964">
        <ele>140.2</ele>
        <time>2024-08-06T06:24:31Z</time>
      </trkpt>
      <trkpt lat="43.64801" lon="3.3596">
        <ele>140.3</ele>
        <time>2024-08-06T06:24:32Z</time>
      </trkpt>
      <trkpt lat="43.64802" lon="3.35956">
        <ele>140.5</ele>
        <time>2024-08-06T06:24:33Z</time>
      </trkpt>
      <trkpt lat="43.64804" lon="3.35953">
        <ele>140.5</ele>
        <time>2024-08-06T06:24:34Z</time>
      </trkpt>
      <trkpt lat="43.64805" lon="3.3595">
        <ele>140.6</ele>
        <time>2024-08-06T06:24:35Z</time>
      </trkpt>
      <trkpt lat="43.64806" lon="3.35947">
        <ele>140.8</ele>
        <time>2024-08-06T06:24:36Z</time>
      </trkpt>
      <trkpt lat="43.64807" lon="3.35944">
        <ele>140.9</ele>
        <time>2024-08-06T06:24:37Z</time>
      </trkpt>
      <trkpt lat="43.64809" lon="3.3594">
        <ele>140.8</ele>
        <time>2024-08-06T06:24:38Z</time>
      </trkpt>
      <trkpt lat="43.64811" lon="3.35936">
        <ele>140.7</ele>
        <time>2024-08-06T06:24:39Z</time>
      </trkpt>
      <trkpt lat="43.64813" lon="3.35932">
        <ele>140.6</ele>
        <time>2024-08-06T06:24:40Z</time>
      </trkpt>
      <trkpt lat="43.64815" lon="3.35929">
        <ele>140.5</ele>
        <time>2024-08-06T06:24:41Z</time>
      </trkpt>
      <trkpt lat="43.64817" lon="3.35925">
        <ele>140.5</ele>
        <time>2024-08-06T06:24:42Z</time>
      </trkpt>
      <trkpt lat="43.64819" lon="3.35921">
        <ele>140.4</ele>
        <time>2024-08-06T06:24:43Z</time>
      </trkpt>
      <trkpt lat="43.64821" lon="3.35917">
        <ele>140.3</ele>
        <time>2024-08-06T06:24:44Z</time>
      </trkpt>
      <trkpt lat="43.64823" lon="3.35914">
        <ele>140.3</ele>
        <time>2024-08-06T06:24:45Z</time>
      </trkpt>
      <trkpt lat="43.64824" lon="3.35909">
        <ele>140.5</ele>
        <time>2024-08-06T06:24:46Z</time>
      </trkpt>
      <trkpt lat="43.64826" lon="3.35905">
        <ele>140.5</ele>
        <time>2024-08-06T06:24:47Z</time>
      </trkpt>
      <trkpt lat="43.64829" lon="3.359">
        <ele>140.6</ele>
        <time>2024-08-06T06:24:48Z</time>
      </trkpt>
      <trkpt lat="43.6483" lon="3.35894">
        <ele>140.9</ele>
        <time>2024-08-06T06:24:49Z</time>
      </trkpt>
      <trkpt lat="43.64831" lon="3.35889">
        <ele>141.2</ele>
        <time>2024-08-06T06:24:50Z</time>
      </trkpt>
      <trkpt lat="43.64832" lon="3.35883">
        <ele>141.3</ele>
        <time>2024-08-06T06:24:51Z</time>
      </trkpt>
      <trkpt lat="43.64833" lon="3.35878">
        <ele>141.4</ele>
        <time>2024-08-06T06:24:52Z</time>
      </trkpt>
      <trkpt lat="43.64834" lon="3.35873">
        <ele>141.5</ele>
        <time>2024-08-06T06:24:53Z</time>
      </trkpt>
      <trkpt lat="43.64835" lon="3.35868">
        <ele>141.6</ele>
        <time>2024-08-06T06:24:54Z</time>
      </trkpt>
      <trkpt lat="43.64836" lon="3.35863">
        <ele>141.6</ele>
        <time>2024-08-06T06:24:55Z</time>
      </trkpt>
      <trkpt lat="43.64838" lon="3.35858">
        <ele>141.4</ele>
        <time>2024-08-06T06:24:56Z</time>
      </trkpt>
      <trkpt lat="43.64839" lon="3.35853">
        <ele>141.2</ele>
        <time>2024-08-06T06:24:57Z</time>
      </trkpt>
      <trkpt lat="43.6484" lon="3.35849">
        <ele>140.9</ele>
        <time>2024-08-06T06:24:58Z</time>
      </trkpt>
      <trkpt lat="43.64841" lon="3.35845">
        <ele>140.8</ele>
        <time>2024-08-06T06:24:59Z</time>
      </trkpt>
      <trkpt lat="43.64842" lon="3.3584">
        <ele>140.5</ele>
        <time>2024-08-06T06:25:00Z</time>
      </trkpt>
      <trkpt lat="43.64843" lon="3.35836">
        <ele>140.4</ele>
        <time>2024-08-06T06:25:01Z</time>
      </trkpt>
      <trkpt lat="43.64845" lon="3.35831">
        <ele>140.2</ele>
        <time>2024-08-06T06:25:02Z</time>
      </trkpt>
      <trkpt lat="43.64846" lon="3.35827">
        <ele>140.3</ele>
        <time>2024-08-06T06:25:03Z</time>
      </trkpt>
      <trkpt lat="43.64848" lon="3.35822">
        <ele>140.4</ele>
        <time>2024-08-06T06:25:04Z</time>
      </trkpt>
      <trkpt lat="43.64849" lon="3.35818">
        <ele>140.4</ele>
        <time>2024-08-06T06:25:05Z</time>
      </trkpt>
      <trkpt lat="43.6485" lon="3.35814">
        <ele>140.5</ele>
        <time>2024-08-06T06:25:06Z</time>
      </trkpt>
      <trkpt lat="43.6485" lon="3.3581">
        <ele>140.6</ele>
        <time>2024-08-06T06:25:07Z</time>
      </trkpt>
      <trkpt lat="43.64852" lon="3.35805">
        <ele>140.6</ele>
        <time>2024-08-06T06:25:08Z</time>
      </trkpt>
      <trkpt lat="43.64853" lon="3.35799">
        <ele>140.5</ele>
        <time>2024-08-06T06:25:09Z</time>
      </trkpt>
      <trkpt lat="43.64855" lon="3.35794">
        <ele>140.3</ele>
        <time>2024-08-06T06:25:10Z</time>
      </trkpt>
      <trkpt lat="43.64857" lon="3.35789">
        <ele>140.2</ele>
        <time>2024-08-06T06:25:11Z</time>
      </trkpt>
      <trkpt lat="43.64858" lon="3.35785">
        <ele>140.1</ele>
        <time>2024-08-06T06:25:12Z</time>
      </trkpt>
      <trkpt lat="43.64859" lon="3.3578">
        <ele>140.1</ele>
        <time>2024-08-06T06:25:13Z</time>
      </trkpt>
      <trkpt lat="43.64859" lon="3.35776">
        <ele>140.1</ele>
        <time>2024-08-06T06:25:14Z</time>
      </trkpt>
      <trkpt lat="43.64859" lon="3.35772">
        <ele>140.1</ele>
        <time>2024-08-06T06:25:15Z</time>
      </trkpt>
      <trkpt lat="43.64859" lon="3.35769">
        <ele>140.1</ele>
        <time>2024-08-06T06:25:16Z</time>
      </trkpt>
      <trkpt lat="43.64859" lon="3.35766">
        <ele>140.1</ele>
        <time>2024-08-06T06:25:17Z</time>
      </trkpt>
      <trkpt lat="43.6486" lon="3.35762">
        <ele>140.1</ele>
        <time>2024-08-06T06:25:18Z</time>
      </trkpt>
      <trkpt lat="43.64861" lon="3.3576">
        <ele>140</ele>
        <time>2024-08-06T06:25:19Z</time>
      </trkpt>
      <trkpt lat="43.64863" lon="3.35756">
        <ele>140</ele>
        <time>2024-08-06T06:25:20Z</time>
      </trkpt>
      <trkpt lat="43.64866" lon="3.35752">
        <ele>140</ele>
        <time>2024-08-06T06:25:21Z</time>
      </trkpt>
      <trkpt lat="43.6487" lon="3.35749">
        <ele>140</ele>
        <time>2024-08-06T06:25:22Z</time>
      </trkpt>
      <trkpt lat="43.64874" lon="3.35747">
        <ele>140.1</ele>
        <time>2024-08-06T06:25:23Z</time>
      </trkpt>
      <trkpt lat="43.64877" lon="3.35744">
        <ele>140.1</ele>
        <time>2024-08-06T06:25:24Z</time>
      </trkpt>
      <trkpt lat="43.64881" lon="3.35741">
        <ele>140.1</ele>
        <time>2024-08-06T06:25:25Z</time>
      </trkpt>
      <trkpt lat="43.64884" lon="3.35739">
        <ele>140.1</ele>
        <time>2024-08-06T06:25:26Z</time>
      </trkpt>
      <trkpt lat="43.64887" lon="3.35737">
        <ele>140</ele>
        <time>2024-08-06T06:25:27Z</time>
      </trkpt>
      <trkpt lat="43.6489" lon="3.35733">
        <ele>140</ele>
        <time>2024-08-06T06:25:28Z</time>
      </trkpt>
      <trkpt lat="43.64894" lon="3.35729">
        <ele>140</ele>
        <time>2024-08-06T06:25:29Z</time>
      </trkpt>
      <trkpt lat="43.64896" lon="3.35725">
        <ele>140</ele>
        <time>2024-08-06T06:25:30Z</time>
      </trkpt>
      <trkpt lat="43.64899" lon="3.35721">
        <ele>140</ele>
        <time>2024-08-06T06:25:31Z</time>
      </trkpt>
      <trkpt lat="43.64902" lon="3.35716">
        <ele>140.1</ele>
        <time>2024-08-06T06:25:32Z</time>
      </trkpt>
      <trkpt lat="43.64905" lon="3.35713">
        <ele>140.1</ele>
        <time>2024-08-06T06:25:33Z</time>
      </trkpt>
      <trkpt lat="43.64907" lon="3.35709">
        <ele>140.2</ele>
        <time>2024-08-06T06:25:34Z</time>
      </trkpt>
      <trkpt lat="43.6491" lon="3.35706">
        <ele>140.1</ele>
        <time>2024-08-06T06:25:35Z</time>
      </trkpt>
      <trkpt lat="43.64913" lon="3.35702">
        <ele>140.1</ele>
        <time>2024-08-06T06:25:36Z</time>
      </trkpt>
      <trkpt lat="43.64915" lon="3.35698">
        <ele>140.1</ele>
        <time>2024-08-06T06:25:37Z</time>
      </trkpt>
      <trkpt lat="43.64918" lon="3.35694">
        <ele>140</ele>
        <time>2024-08-06T06:25:38Z</time>
      </trkpt>
      <trkpt lat="43.64921" lon="3.3569">
        <ele>140.1</ele>
        <time>2024-08-06T06:25:39Z</time>
      </trkpt>
      <trkpt lat="43.64924" lon="3.35687">
        <ele>140.2</ele>
        <time>2024-08-06T06:25:40Z</time>
      </trkpt>
      <trkpt lat="43.64927" lon="3.35684">
        <ele>140.2</ele>
        <time>2024-08-06T06:25:41Z</time>
      </trkpt>
      <trkpt lat="43.6493" lon="3.35682">
        <ele>140.3</ele>
        <time>2024-08-06T06:25:42Z</time>
      </trkpt>
      <trkpt lat="43.64933" lon="3.3568">
        <ele>140.3</ele>
        <time>2024-08-06T06:25:43Z</time>
      </trkpt>
      <trkpt lat="43.64936" lon="3.35679">
        <ele>140.3</ele>
        <time>2024-08-06T06:25:44Z</time>
      </trkpt>
      <trkpt lat="43.64939" lon="3.35677">
        <ele>140.3</ele>
        <time>2024-08-06T06:25:45Z</time>
      </trkpt>
      <trkpt lat="43.64943" lon="3.35676">
        <ele>140.3</ele>
        <time>2024-08-06T06:25:46Z</time>
      </trkpt>
      <trkpt lat="43.64946" lon="3.35675">
        <ele>140.3</ele>
        <time>2024-08-06T06:25:47Z</time>
      </trkpt>
      <trkpt lat="43.6495" lon="3.35673">
        <ele>140.2</ele>
        <time>2024-08-06T06:25:48Z</time>
      </trkpt>
      <trkpt lat="43.64953" lon="3.35672">
        <ele>140.1</ele>
        <time>2024-08-06T06:25:49Z</time>
      </trkpt>
      <trkpt lat="43.64957" lon="3.3567">
        <ele>140.1</ele>
        <time>2024-08-06T06:25:50Z</time>
      </trkpt>
      <trkpt lat="43.64961" lon="3.35667">
        <ele>140</ele>
        <time>2024-08-06T06:25:51Z</time>
      </trkpt>
      <trkpt lat="43.64964" lon="3.35663">
        <ele>140</ele>
        <time>2024-08-06T06:25:52Z</time>
      </trkpt>
      <trkpt lat="43.64966" lon="3.35658">
        <ele>140</ele>
        <time>2024-08-06T06:25:53Z</time>
      </trkpt>
      <trkpt lat="43.64967" lon="3.35653">
        <ele>140</ele>
        <time>2024-08-06T06:25:54Z</time>
      </trkpt>
      <trkpt lat="43.64969" lon="3.35648">
        <ele>140</ele>
        <time>2024-08-06T06:25:55Z</time>
      </trkpt>
      <trkpt lat="43.6497" lon="3.35642">
        <ele>140</ele>
        <time>2024-08-06T06:25:56Z</time>
      </trkpt>
      <trkpt lat="43.64972" lon="3.35636">
        <ele>140</ele>
        <time>2024-08-06T06:25:57Z</time>
      </trkpt>
      <trkpt lat="43.64973" lon="3.3563">
        <ele>140</ele>
        <time>2024-08-06T06:25:58Z</time>
      </trkpt>
      <trkpt lat="43.64974" lon="3.35625">
        <ele>140</ele>
        <time>2024-08-06T06:25:59Z</time>
      </trkpt>
      <trkpt lat="43.64975" lon="3.3562">
        <ele>140</ele>
        <time>2024-08-06T06:26:00Z</time>
      </trkpt>
      <trkpt lat="43.64977" lon="3.35615">
        <ele>140</ele>
        <time>2024-08-06T06:26:01Z</time>
      </trkpt>
      <trkpt lat="43.64977" lon="3.35611">
        <ele>140</ele>
        <time>2024-08-06T06:26:02Z</time>
      </trkpt>
      <trkpt lat="43.64978" lon="3.35608">
        <ele>140.1</ele>
        <time>2024-08-06T06:26:03Z</time>
      </trkpt>
      <trkpt lat="43.64979" lon="3.35604">
        <ele>140.1</ele>
        <time>2024-08-06T06:26:04Z</time>
      </trkpt>
      <trkpt lat="43.6498" lon="3.356">
        <ele>140.2</ele>
        <time>2024-08-06T06:26:05Z</time>
      </trkpt>
      <trkpt lat="43.64981" lon="3.35595">
        <ele>140.2</ele>
        <time>2024-08-06T06:26:06Z</time>
      </trkpt>
      <trkpt lat="43.64982" lon="3.3559">
        <ele>140.2</ele>
        <time>2024-08-06T06:26:07Z</time>
      </trkpt>
      <trkpt lat="43.64983" lon="3.35584">
        <ele>140.2</ele>
        <time>2024-08-06T06:26:08Z</time>
      </trkpt>
      <trkpt lat="43.64985" lon="3.35578">
        <ele>140.2</ele>
        <time>2024-08-06T06:26:09Z</time>
      </trkpt>
      <trkpt lat="43.64986" lon="3.35571">
        <ele>140.2</ele>
        <time>2024-08-06T06:26:10Z</time>
      </trkpt>
      <trkpt lat="43.64987" lon="3.35566">
        <ele>140.3</ele>
        <time>2024-08-06T06:26:11Z</time>
      </trkpt>
      <trkpt lat="43.64989" lon="3.35561">
        <ele>140.3</ele>
        <time>2024-08-06T06:26:12Z</time>
      </trkpt>
      <trkpt lat="43.6499" lon="3.35556">
        <ele>140.3</ele>
        <time>2024-08-06T06:26:13Z</time>
      </trkpt>
      <trkpt lat="43.64991" lon="3.35552">
        <ele>140.3</ele>
        <time>2024-08-06T06:26:14Z</time>
      </trkpt>
      <trkpt lat="43.64992" lon="3.35547">
        <ele>140.3</ele>
        <time>2024-08-06T06:26:15Z</time>
      </trkpt>
      <trkpt lat="43.64993" lon="3.35543">
        <ele>140.3</ele>
        <time>2024-08-06T06:26:16Z</time>
      </trkpt>
      <trkpt lat="43.64994" lon="3.35539">
        <ele>140.2</ele>
        <time>2024-08-06T06:26:17Z</time>
      </trkpt>
      <trkpt lat="43.64995" lon="3.35534">
        <ele>140.2</ele>
        <time>2024-08-06T06:26:18Z</time>
      </trkpt>
      <trkpt lat="43.64995" lon="3.35529">
        <ele>140.2</ele>
        <time>2024-08-06T06:26:19Z</time>
      </trkpt>
      <trkpt lat="43.64995" lon="3.35523">
        <ele>140.1</ele>
        <time>2024-08-06T06:26:20Z</time>
      </trkpt>
      <trkpt lat="43.64994" lon="3.35517">
        <ele>140.1</ele>
        <time>2024-08-06T06:26:21Z</time>
      </trkpt>
      <trkpt lat="43.64993" lon="3.35511">
        <ele>140.1</ele>
        <time>2024-08-06T06:26:22Z</time>
      </trkpt>
      <trkpt lat="43.6499" lon="3.35506">
        <ele>140.1</ele>
        <time>2024-08-06T06:26:23Z</time>
      </trkpt>
      <trkpt lat="43.64987" lon="3.35502">
        <ele>140</ele>
        <time>2024-08-06T06:26:24Z</time>
      </trkpt>
      <trkpt lat="43.64983" lon="3.35499">
        <ele>140</ele>
        <time>2024-08-06T06:26:25Z</time>
      </trkpt>
      <trkpt lat="43.6498" lon="3.35496">
        <ele>139.9</ele>
        <time>2024-08-06T06:26:26Z</time>
      </trkpt>
      <trkpt lat="43.64976" lon="3.35494">
        <ele>139.8</ele>
        <time>2024-08-06T06:26:27Z</time>
      </trkpt>
      <trkpt lat="43.64971" lon="3.35492">
        <ele>139.8</ele>
        <time>2024-08-06T06:26:28Z</time>
      </trkpt>
      <trkpt lat="43.64967" lon="3.3549">
        <ele>139.8</ele>
        <time>2024-08-06T06:26:29Z</time>
      </trkpt>
      <trkpt lat="43.64963" lon="3.35488">
        <ele>139.9</ele>
        <time>2024-08-06T06:26:30Z</time>
      </trkpt>
      <trkpt lat="43.64958" lon="3.35487">
        <ele>140</ele>
        <time>2024-08-06T06:26:31Z</time>
      </trkpt>
      <trkpt lat="43.64954" lon="3.35485">
        <ele>140.1</ele>
        <time>2024-08-06T06:26:32Z</time>
      </trkpt>
      <trkpt lat="43.64951" lon="3.35484">
        <ele>140.2</ele>
        <time>2024-08-06T06:26:33Z</time>
      </trkpt>
      <trkpt lat="43.64947" lon="3.35482">
        <ele>140.3</ele>
        <time>2024-08-06T06:26:34Z</time>
      </trkpt>
      <trkpt lat="43.64944" lon="3.35481">
        <ele>140.3</ele>
        <time>2024-08-06T06:26:35Z</time>
      </trkpt>
      <trkpt lat="43.6494" lon="3.3548">
        <ele>140.4</ele>
        <time>2024-08-06T06:26:36Z</time>
      </trkpt>
      <trkpt lat="43.64937" lon="3.35478">
        <ele>140.4</ele>
        <time>2024-08-06T06:26:37Z</time>
      </trkpt>
      <trkpt lat="43.64934" lon="3.35476">
        <ele>140.5</ele>
        <time>2024-08-06T06:26:38Z</time>
      </trkpt>
      <trkpt lat="43.64931" lon="3.35472">
        <ele>140.5</ele>
        <time>2024-08-06T06:26:39Z</time>
      </trkpt>
      <trkpt lat="43.64928" lon="3.35468">
        <ele>140.6</ele>
        <time>2024-08-06T06:26:40Z</time>
      </trkpt>
      <trkpt lat="43.64925" lon="3.35463">
        <ele>140.7</ele>
        <time>2024-08-06T06:26:41Z</time>
      </trkpt>
      <trkpt lat="43.64923" lon="3.3546">
        <ele>140.8</ele>
        <time>2024-08-06T06:26:42Z</time>
      </trkpt>
      <trkpt lat="43.64921" lon="3.35456">
        <ele>140.8</ele>
        <time>2024-08-06T06:26:43Z</time>
      </trkpt>
      <trkpt lat="43.64918" lon="3.35452">
        <ele>141</ele>
        <time>2024-08-06T06:26:44Z</time>
      </trkpt>
      <trkpt lat="43.64916" lon="3.35448">
        <ele>141</ele>
        <time>2024-08-06T06:26:45Z</time>
      </trkpt>
      <trkpt lat="43.64913" lon="3.35443">
        <ele>140.9</ele>
        <time>2024-08-06T06:26:46Z</time>
      </trkpt>
      <trkpt lat="43.64911" lon="3.35438">
        <ele>140.8</ele>
        <time>2024-08-06T06:26:47Z</time>
      </trkpt>
      <trkpt lat="43.64909" lon="3.35432">
        <ele>140.6</ele>
        <time>2024-08-06T06:26:48Z</time>
      </trkpt>
      <trkpt lat="43.64909" lon="3.35426">
        <ele>140.3</ele>
        <time>2024-08-06T06:26:49Z</time>
      </trkpt>
      <trkpt lat="43.64909" lon="3.35419">
        <ele>140.1</ele>
        <time>2024-08-06T06:26:50Z</time>
      </trkpt>
      <trkpt lat="43.64911" lon="3.35413">
        <ele>140</ele>
        <time>2024-08-06T06:26:51Z</time>
      </trkpt>
      <trkpt lat="43.64915" lon="3.35408">
        <ele>140</ele>
        <time>2024-08-06T06:26:52Z</time>
      </trkpt>
      <trkpt lat="43.64918" lon="3.35405">
        <ele>140</ele>
        <time>2024-08-06T06:26:53Z</time>
      </trkpt>
      <trkpt lat="43.64922" lon="3.35401">
        <ele>140</ele>
        <time>2024-08-06T06:26:54Z</time>
      </trkpt>
      <trkpt lat="43.64926" lon="3.35398">
        <ele>140</ele>
        <time>2024-08-06T06:26:55Z</time>
      </trkpt>
      <trkpt lat="43.64929" lon="3.35394">
        <ele>140</ele>
        <time>2024-08-06T06:26:56Z</time>
      </trkpt>
      <trkpt lat="43.64931" lon="3.3539">
        <ele>140</ele>
        <time>2024-08-06T06:26:57Z</time>
      </trkpt>
      <trkpt lat="43.64933" lon="3.35386">
        <ele>139.9</ele>
        <time>2024-08-06T06:26:58Z</time>
      </trkpt>
      <trkpt lat="43.64935" lon="3.35382">
        <ele>139.8</ele>
        <time>2024-08-06T06:26:59Z</time>
      </trkpt>
      <trkpt lat="43.64937" lon="3.35376">
        <ele>139.7</ele>
        <time>2024-08-06T06:27:00Z</time>
      </trkpt>
      <trkpt lat="43.64938" lon="3.35371">
        <ele>139.5</ele>
        <time>2024-08-06T06:27:01Z</time>
      </trkpt>
      <trkpt lat="43.6494" lon="3.35364">
        <ele>139.2</ele>
        <time>2024-08-06T06:27:02Z</time>
      </trkpt>
      <trkpt lat="43.6494" lon="3.35358">
        <ele>139.3</ele>
        <time>2024-08-06T06:27:03Z</time>
      </trkpt>
      <trkpt lat="43.64941" lon="3.35352">
        <ele>139.4</ele>
        <time>2024-08-06T06:27:04Z</time>
      </trkpt>
      <trkpt lat="43.64941" lon="3.35346">
        <ele>139.6</ele>
        <time>2024-08-06T06:27:05Z</time>
      </trkpt>
      <trkpt lat="43.6494" lon="3.35341">
        <ele>139.8</ele>
        <time>2024-08-06T06:27:06Z</time>
      </trkpt>
      <trkpt lat="43.64939" lon="3.35335">
        <ele>140</ele>
        <time>2024-08-06T06:27:07Z</time>
      </trkpt>
      <trkpt lat="43.64937" lon="3.3533">
        <ele>139.9</ele>
        <time>2024-08-06T06:27:08Z</time>
      </trkpt>
      <trkpt lat="43.64935" lon="3.35326">
        <ele>139.8</ele>
        <time>2024-08-06T06:27:09Z</time>
      </trkpt>
      <trkpt lat="43.64933" lon="3.35323">
        <ele>139.8</ele>
        <time>2024-08-06T06:27:10Z</time>
      </trkpt>
      <trkpt lat="43.6493" lon="3.35319">
        <ele>139.8</ele>
        <time>2024-08-06T06:27:11Z</time>
      </trkpt>
      <trkpt lat="43.64927" lon="3.35315">
        <ele>139.8</ele>
        <time>2024-08-06T06:27:12Z</time>
      </trkpt>
      <trkpt lat="43.64924" lon="3.35311">
        <ele>139.8</ele>
        <time>2024-08-06T06:27:13Z</time>
      </trkpt>
      <trkpt lat="43.64921" lon="3.35306">
        <ele>139.8</ele>
        <time>2024-08-06T06:27:14Z</time>
      </trkpt>
      <trkpt lat="43.64919" lon="3.35302">
        <ele>139.9</ele>
        <time>2024-08-06T06:27:15Z</time>
      </trkpt>
      <trkpt lat="43.64916" lon="3.35298">
        <ele>140</ele>
        <time>2024-08-06T06:27:16Z</time>
      </trkpt>
      <trkpt lat="43.64915" lon="3.35293">
        <ele>140</ele>
        <time>2024-08-06T06:27:17Z</time>
      </trkpt>
      <trkpt lat="43.64914" lon="3.35287">
        <ele>140.1</ele>
        <time>2024-08-06T06:27:18Z</time>
      </trkpt>
      <trkpt lat="43.64914" lon="3.35282">
        <ele>140.1</ele>
        <time>2024-08-06T06:27:19Z</time>
      </trkpt>
      <trkpt lat="43.64914" lon="3.35277">
        <ele>140.1</ele>
        <time>2024-08-06T06:27:20Z</time>
      </trkpt>
      <trkpt lat="43.64914" lon="3.35272">
        <ele>140.1</ele>
        <time>2024-08-06T06:27:21Z</time>
      </trkpt>
      <trkpt lat="43.64914" lon="3.35268">
        <ele>140.1</ele>
        <time>2024-08-06T06:27:22Z</time>
      </trkpt>
      <trkpt lat="43.64915" lon="3.35263">
        <ele>140.1</ele>
        <time>2024-08-06T06:27:23Z</time>
      </trkpt>
      <trkpt lat="43.64916" lon="3.35258">
        <ele>140</ele>
        <time>2024-08-06T06:27:24Z</time>
      </trkpt>
      <trkpt lat="43.64918" lon="3.35252">
        <ele>140</ele>
        <time>2024-08-06T06:27:25Z</time>
      </trkpt>
      <trkpt lat="43.64919" lon="3.35247">
        <ele>139.9</ele>
        <time>2024-08-06T06:27:26Z</time>
      </trkpt>
      <trkpt lat="43.64921" lon="3.35242">
        <ele>139.8</ele>
        <time>2024-08-06T06:27:27Z</time>
      </trkpt>
      <trkpt lat="43.64921" lon="3.35237">
        <ele>139.8</ele>
        <time>2024-08-06T06:27:28Z</time>
      </trkpt>
      <trkpt lat="43.64922" lon="3.35232">
        <ele>139.7</ele>
        <time>2024-08-06T06:27:29Z</time>
      </trkpt>
      <trkpt lat="43.64922" lon="3.35227">
        <ele>139.6</ele>
        <time>2024-08-06T06:27:30Z</time>
      </trkpt>
      <trkpt lat="43.64923" lon="3.35221">
        <ele>139.5</ele>
        <time>2024-08-06T06:27:31Z</time>
      </trkpt>
      <trkpt lat="43.64923" lon="3.35215">
        <ele>139.5</ele>
        <time>2024-08-06T06:27:32Z</time>
      </trkpt>
      <trkpt lat="43.64923" lon="3.3521">
        <ele>139.5</ele>
        <time>2024-08-06T06:27:33Z</time>
      </trkpt>
      <trkpt lat="43.64922" lon="3.35204">
        <ele>139.6</ele>
        <time>2024-08-06T06:27:34Z</time>
      </trkpt>
      <trkpt lat="43.64921" lon="3.35198">
        <ele>139.7</ele>
        <time>2024-08-06T06:27:35Z</time>
      </trkpt>
      <trkpt lat="43.64918" lon="3.35193">
        <ele>139.9</ele>
        <time>2024-08-06T06:27:36Z</time>
      </trkpt>
      <trkpt lat="43.64914" lon="3.35189">
        <ele>139.8</ele>
        <time>2024-08-06T06:27:37Z</time>
      </trkpt>
      <trkpt lat="43.64911" lon="3.35186">
        <ele>139.8</ele>
        <time>2024-08-06T06:27:38Z</time>
      </trkpt>
      <trkpt lat="43.64907" lon="3.35184">
        <ele>139.8</ele>
        <time>2024-08-06T06:27:39Z</time>
      </trkpt>
      <trkpt lat="43.64903" lon="3.35182">
        <ele>139.8</ele>
        <time>2024-08-06T06:27:40Z</time>
      </trkpt>
      <trkpt lat="43.64899" lon="3.3518">
        <ele>139.8</ele>
        <time>2024-08-06T06:27:41Z</time>
      </trkpt>
      <trkpt lat="43.64895" lon="3.35179">
        <ele>139.9</ele>
        <time>2024-08-06T06:27:42Z</time>
      </trkpt>
      <trkpt lat="43.64892" lon="3.35177">
        <ele>139.9</ele>
        <time>2024-08-06T06:27:43Z</time>
      </trkpt>
      <trkpt lat="43.64889" lon="3.35175">
        <ele>140</ele>
        <time>2024-08-06T06:27:44Z</time>
      </trkpt>
      <trkpt lat="43.64885" lon="3.35173">
        <ele>140.1</ele>
        <time>2024-08-06T06:27:45Z</time>
      </trkpt>
      <trkpt lat="43.64881" lon="3.3517">
        <ele>140.3</ele>
        <time>2024-08-06T06:27:46Z</time>
      </trkpt>
      <trkpt lat="43.64878" lon="3.35166">
        <ele>140.4</ele>
        <time>2024-08-06T06:27:47Z</time>
      </trkpt>
      <trkpt lat="43.64876" lon="3.35161">
        <ele>140.4</ele>
        <time>2024-08-06T06:27:48Z</time>
      </trkpt>
      <trkpt lat="43.64873" lon="3.35156">
        <ele>140.4</ele>
        <time>2024-08-06T06:27:49Z</time>
      </trkpt>
      <trkpt lat="43.64871" lon="3.35152">
        <ele>140.3</ele>
        <time>2024-08-06T06:27:50Z</time>
      </trkpt>
      <trkpt lat="43.6487" lon="3.35146">
        <ele>140.2</ele>
        <time>2024-08-06T06:27:51Z</time>
      </trkpt>
      <trkpt lat="43.64868" lon="3.35141">
        <ele>140.1</ele>
        <time>2024-08-06T06:27:52Z</time>
      </trkpt>
      <trkpt lat="43.64866" lon="3.35135">
        <ele>140</ele>
        <time>2024-08-06T06:27:53Z</time>
      </trkpt>
      <trkpt lat="43.64865" lon="3.3513">
        <ele>140</ele>
        <time>2024-08-06T06:27:54Z</time>
      </trkpt>
      <trkpt lat="43.64864" lon="3.35124">
        <ele>139.9</ele>
        <time>2024-08-06T06:27:55Z</time>
      </trkpt>
      <trkpt lat="43.64863" lon="3.35119">
        <ele>140</ele>
        <time>2024-08-06T06:27:56Z</time>
      </trkpt>
      <trkpt lat="43.64864" lon="3.35113">
        <ele>139.9</ele>
        <time>2024-08-06T06:27:57Z</time>
      </trkpt>
      <trkpt lat="43.64864" lon="3.35108">
        <ele>139.9</ele>
        <time>2024-08-06T06:27:58Z</time>
      </trkpt>
      <trkpt lat="43.64865" lon="3.35103">
        <ele>139.9</ele>
        <time>2024-08-06T06:27:59Z</time>
      </trkpt>
      <trkpt lat="43.64865" lon="3.35097">
        <ele>139.9</ele>
        <time>2024-08-06T06:28:00Z</time>
      </trkpt>
      <trkpt lat="43.64866" lon="3.35092">
        <ele>139.8</ele>
        <time>2024-08-06T06:28:01Z</time>
      </trkpt>
      <trkpt lat="43.64868" lon="3.35088">
        <ele>139.8</ele>
        <time>2024-08-06T06:28:02Z</time>
      </trkpt>
      <trkpt lat="43.64869" lon="3.35083">
        <ele>139.7</ele>
        <time>2024-08-06T06:28:03Z</time>
      </trkpt>
      <trkpt lat="43.6487" lon="3.35079">
        <ele>139.7</ele>
        <time>2024-08-06T06:28:04Z</time>
      </trkpt>
      <trkpt lat="43.6487" lon="3.35073">
        <ele>139.8</ele>
        <time>2024-08-06T06:28:05Z</time>
      </trkpt>
      <trkpt lat="43.6487" lon="3.35068">
        <ele>139.9</ele>
        <time>2024-08-06T06:28:06Z</time>
      </trkpt>
      <trkpt lat="43.6487" lon="3.35063">
        <ele>139.9</ele>
        <time>2024-08-06T06:28:07Z</time>
      </trkpt>
      <trkpt lat="43.64869" lon="3.3506">
        <ele>140</ele>
        <time>2024-08-06T06:28:08Z</time>
      </trkpt>
      <trkpt lat="43.64869" lon="3.35056">
        <ele>140</ele>
        <time>2024-08-06T06:28:09Z</time>
      </trkpt>
      <trkpt lat="43.6487" lon="3.35053">
        <ele>140</ele>
        <time>2024-08-06T06:28:10Z</time>
      </trkpt>
      <trkpt lat="43.6487" lon="3.3505">
        <ele>139.9</ele>
        <time>2024-08-06T06:28:11Z</time>
      </trkpt>
      <trkpt lat="43.6487" lon="3.35047">
        <ele>139.9</ele>
        <time>2024-08-06T06:28:12Z</time>
      </trkpt>
      <trkpt lat="43.64868" lon="3.35043">
        <ele>139.9</ele>
        <time>2024-08-06T06:28:13Z</time>
      </trkpt>
      <trkpt lat="43.64865" lon="3.35039">
        <ele>139.9</ele>
        <time>2024-08-06T06:28:14Z</time>
      </trkpt>
      <trkpt lat="43.64863" lon="3.35035">
        <ele>139.9</ele>
        <time>2024-08-06T06:28:15Z</time>
      </trkpt>
      <trkpt lat="43.64861" lon="3.35029">
        <ele>140</ele>
        <time>2024-08-06T06:28:16Z</time>
      </trkpt>
      <trkpt lat="43.64859" lon="3.35024">
        <ele>140.1</ele>
        <time>2024-08-06T06:28:17Z</time>
      </trkpt>
      <trkpt lat="43.64858" lon="3.35018">
        <ele>140.1</ele>
        <time>2024-08-06T06:28:18Z</time>
      </trkpt>
      <trkpt lat="43.64857" lon="3.35014">
        <ele>140.1</ele>
        <time>2024-08-06T06:28:19Z</time>
      </trkpt>
      <trkpt lat="43.64855" lon="3.35009">
        <ele>140.2</ele>
        <time>2024-08-06T06:28:20Z</time>
      </trkpt>
      <trkpt lat="43.64854" lon="3.35005">
        <ele>140.3</ele>
        <time>2024-08-06T06:28:21Z</time>
      </trkpt>
      <trkpt lat="43.64852" lon="3.35">
        <ele>140.3</ele>
        <time>2024-08-06T06:28:22Z</time>
      </trkpt>
      <trkpt lat="43.64851" lon="3.34995">
        <ele>140.2</ele>
        <time>2024-08-06T06:28:23Z</time>
      </trkpt>
      <trkpt lat="43.64852" lon="3.3499">
        <ele>140</ele>
        <time>2024-08-06T06:28:24Z</time>
      </trkpt>
      <trkpt lat="43.64854" lon="3.34985">
        <ele>139.7</ele>
        <time>2024-08-06T06:28:25Z</time>
      </trkpt>
      <trkpt lat="43.64854" lon="3.34981">
        <ele>139.6</ele>
        <time>2024-08-06T06:28:26Z</time>
      </trkpt>
      <trkpt lat="43.64855" lon="3.34976">
        <ele>139.4</ele>
        <time>2024-08-06T06:28:27Z</time>
      </trkpt>
      <trkpt lat="43.64855" lon="3.34972">
        <ele>139.2</ele>
        <time>2024-08-06T06:28:28Z</time>
      </trkpt>
      <trkpt lat="43.64855" lon="3.34968">
        <ele>139.3</ele>
        <time>2024-08-06T06:28:29Z</time>
      </trkpt>
      <trkpt lat="43.64854" lon="3.34964">
        <ele>139.5</ele>
        <time>2024-08-06T06:28:30Z</time>
      </trkpt>
      <trkpt lat="43.64853" lon="3.34959">
        <ele>139.6</ele>
        <time>2024-08-06T06:28:31Z</time>
      </trkpt>
      <trkpt lat="43.64851" lon="3.34954">
        <ele>139.8</ele>
        <time>2024-08-06T06:28:32Z</time>
      </trkpt>
      <trkpt lat="43.6485" lon="3.3495">
        <ele>139.9</ele>
        <time>2024-08-06T06:28:33Z</time>
      </trkpt>
      <trkpt lat="43.64849" lon="3.34946">
        <ele>140</ele>
        <time>2024-08-06T06:28:34Z</time>
      </trkpt>
      <trkpt lat="43.64848" lon="3.34942">
        <ele>140</ele>
        <time>2024-08-06T06:28:35Z</time>
      </trkpt>
      <trkpt lat="43.64846" lon="3.3494">
        <ele>139.9</ele>
        <time>2024-08-06T06:28:36Z</time>
      </trkpt>
      <trkpt lat="43.64845" lon="3.34937">
        <ele>139.9</ele>
        <time>2024-08-06T06:28:37Z</time>
      </trkpt>
      <trkpt lat="43.64843" lon="3.34934">
        <ele>139.9</ele>
        <time>2024-08-06T06:28:38Z</time>
      </trkpt>
      <trkpt lat="43.64842" lon="3.3493">
        <ele>139.8</ele>
        <time>2024-08-06T06:28:39Z</time>
      </trkpt>
      <trkpt lat="43.64841" lon="3.34927">
        <ele>139.8</ele>
        <time>2024-08-06T06:28:40Z</time>
      </trkpt>
      <trkpt lat="43.6484" lon="3.34922">
        <ele>139.8</ele>
        <time>2024-08-06T06:28:41Z</time>
      </trkpt>
      <trkpt lat="43.64839" lon="3.34918">
        <ele>139.8</ele>
        <time>2024-08-06T06:28:42Z</time>
      </trkpt>
      <trkpt lat="43.64839" lon="3.34911">
        <ele>139.8</ele>
        <time>2024-08-06T06:28:43Z</time>
      </trkpt>
      <trkpt lat="43.64838" lon="3.34905">
        <ele>139.9</ele>
        <time>2024-08-06T06:28:44Z</time>
      </trkpt>
      <trkpt lat="43.64838" lon="3.349">
        <ele>139.9</ele>
        <time>2024-08-06T06:28:45Z</time>
      </trkpt>
      <trkpt lat="43.64838" lon="3.34896">
        <ele>140</ele>
        <time>2024-08-06T06:28:46Z</time>
      </trkpt>
      <trkpt lat="43.64839" lon="3.34892">
        <ele>140</ele>
        <time>2024-08-06T06:28:47Z</time>
      </trkpt>
      <trkpt lat="43.6484" lon="3.34888">
        <ele>140</ele>
        <time>2024-08-06T06:28:48Z</time>
      </trkpt>
      <trkpt lat="43.64842" lon="3.34885">
        <ele>140.2</ele>
        <time>2024-08-06T06:28:49Z</time>
      </trkpt>
      <trkpt lat="43.64845" lon="3.34883">
        <ele>140.4</ele>
        <time>2024-08-06T06:28:50Z</time>
      </trkpt>
      <trkpt lat="43.64848" lon="3.34881">
        <ele>140.6</ele>
        <time>2024-08-06T06:28:51Z</time>
      </trkpt>
      <trkpt lat="43.64851" lon="3.34878">
        <ele>140.9</ele>
        <time>2024-08-06T06:28:52Z</time>
      </trkpt>
      <trkpt lat="43.64853" lon="3.34875">
        <ele>141.2</ele>
        <time>2024-08-06T06:28:53Z</time>
      </trkpt>
      <trkpt lat="43.64855" lon="3.34872">
        <ele>141.6</ele>
        <time>2024-08-06T06:28:54Z</time>
      </trkpt>
      <trkpt lat="43.64857" lon="3.34869">
        <ele>141.9</ele>
        <time>2024-08-06T06:28:55Z</time>
      </trkpt>
      <trkpt lat="43.64859" lon="3.34866">
        <ele>142.3</ele>
        <time>2024-08-06T06:28:56Z</time>
      </trkpt>
      <trkpt lat="43.64861" lon="3.34862">
        <ele>142.9</ele>
        <time>2024-08-06T06:28:57Z</time>
      </trkpt>
      <trkpt lat="43.64863" lon="3.34859">
        <ele>143.3</ele>
        <time>2024-08-06T06:28:58Z</time>
      </trkpt>
      <trkpt lat="43.64865" lon="3.34857">
        <ele>143.6</ele>
        <time>2024-08-06T06:28:59Z</time>
      </trkpt>
      <trkpt lat="43.64867" lon="3.34854">
        <ele>143.9</ele>
        <time>2024-08-06T06:29:00Z</time>
      </trkpt>
      <trkpt lat="43.64869" lon="3.34852">
        <ele>144.2</ele>
        <time>2024-08-06T06:29:01Z</time>
      </trkpt>
      <trkpt lat="43.64871" lon="3.34849">
        <ele>144.6</ele>
        <time>2024-08-06T06:29:02Z</time>
      </trkpt>
      <trkpt lat="43.64873" lon="3.34846">
        <ele>144.9</ele>
        <time>2024-08-06T06:29:03Z</time>
      </trkpt>
      <trkpt lat="43.64874" lon="3.34843">
        <ele>145.2</ele>
        <time>2024-08-06T06:29:04Z</time>
      </trkpt>
      <trkpt lat="43.64876" lon="3.3484">
        <ele>145.6</ele>
        <time>2024-08-06T06:29:05Z</time>
      </trkpt>
      <trkpt lat="43.64877" lon="3.34836">
        <ele>146</ele>
        <time>2024-08-06T06:29:06Z</time>
      </trkpt>
      <trkpt lat="43.64879" lon="3.34833">
        <ele>146.3</ele>
        <time>2024-08-06T06:29:07Z</time>
      </trkpt>
      <trkpt lat="43.6488" lon="3.3483">
        <ele>146.4</ele>
        <time>2024-08-06T06:29:08Z</time>
      </trkpt>
      <trkpt lat="43.64881" lon="3.34827">
        <ele>146.6</ele>
        <time>2024-08-06T06:29:09Z</time>
      </trkpt>
      <trkpt lat="43.64882" lon="3.34824">
        <ele>146.8</ele>
        <time>2024-08-06T06:29:10Z</time>
      </trkpt>
      <trkpt lat="43.64884" lon="3.34822">
        <ele>147</ele>
        <time>2024-08-06T06:29:11Z</time>
      </trkpt>
      <trkpt lat="43.64885" lon="3.3482">
        <ele>147.1</ele>
        <time>2024-08-06T06:29:12Z</time>
      </trkpt>
      <trkpt lat="43.64887" lon="3.34818">
        <ele>147.4</ele>
        <time>2024-08-06T06:29:13Z</time>
      </trkpt>
      <trkpt lat="43.64888" lon="3.34815">
        <ele>147.6</ele>
        <time>2024-08-06T06:29:14Z</time>
      </trkpt>
      <trkpt lat="43.6489" lon="3.34813">
        <ele>147.8</ele>
        <time>2024-08-06T06:29:15Z</time>
      </trkpt>
      <trkpt lat="43.64892" lon="3.3481">
        <ele>148</ele>
        <time>2024-08-06T06:29:16Z</time>
      </trkpt>
      <trkpt lat="43.64893" lon="3.34806">
        <ele>148.3</ele>
        <time>2024-08-06T06:29:17Z</time>
      </trkpt>
      <trkpt lat="43.64894" lon="3.34804">
        <ele>148.4</ele>
        <time>2024-08-06T06:29:18Z</time>
      </trkpt>
      <trkpt lat="43.64896" lon="3.34802">
        <ele>148.5</ele>
        <time>2024-08-06T06:29:19Z</time>
      </trkpt>
      <trkpt lat="43.64897" lon="3.348">
        <ele>148.6</ele>
        <time>2024-08-06T06:29:20Z</time>
      </trkpt>
      <trkpt lat="43.64899" lon="3.34798">
        <ele>148.7</ele>
        <time>2024-08-06T06:29:21Z</time>
      </trkpt>
      <trkpt lat="43.64901" lon="3.34796">
        <ele>148.9</ele>
        <time>2024-08-06T06:29:22Z</time>
      </trkpt>
      <trkpt lat="43.64903" lon="3.34795">
        <ele>149</ele>
        <time>2024-08-06T06:29:23Z</time>
      </trkpt>
      <trkpt lat="43.64905" lon="3.34793">
        <ele>149.2</ele>
        <time>2024-08-06T06:29:24Z</time>
      </trkpt>
      <trkpt lat="43.64907" lon="3.3479">
        <ele>149.3</ele>
        <time>2024-08-06T06:29:25Z</time>
      </trkpt>
      <trkpt lat="43.64909" lon="3.34787">
        <ele>149.4</ele>
        <time>2024-08-06T06:29:26Z</time>
      </trkpt>
      <trkpt lat="43.64911" lon="3.34785">
        <ele>149.6</ele>
        <time>2024-08-06T06:29:27Z</time>
      </trkpt>
      <trkpt lat="43.64913" lon="3.34782">
        <ele>149.7</ele>
        <time>2024-08-06T06:29:28Z</time>
      </trkpt>
      <trkpt lat="43.64914" lon="3.3478">
        <ele>149.8</ele>
        <time>2024-08-06T06:29:29Z</time>
      </trkpt>
      <trkpt lat="43.64916" lon="3.34778">
        <ele>150</ele>
        <time>2024-08-06T06:29:30Z</time>
      </trkpt>
      <trkpt lat="43.64917" lon="3.34775">
        <ele>150.2</ele>
        <time>2024-08-06T06:29:31Z</time>
      </trkpt>
      <trkpt lat="43.64919" lon="3.34772">
        <ele>150.7</ele>
        <time>2024-08-06T06:29:32Z</time>
      </trkpt>
      <trkpt lat="43.6492" lon="3.34769">
        <ele>151</ele>
        <time>2024-08-06T06:29:33Z</time>
      </trkpt>
      <trkpt lat="43.64922" lon="3.34766">
        <ele>151.4</ele>
        <time>2024-08-06T06:29:34Z</time>
      </trkpt>
      <trkpt lat="43.64924" lon="3.34764">
        <ele>151.8</ele>
        <time>2024-08-06T06:29:35Z</time>
      </trkpt>
      <trkpt lat="43.64926" lon="3.34762">
        <ele>152.1</ele>
        <time>2024-08-06T06:29:36Z</time>
      </trkpt>
      <trkpt lat="43.64927" lon="3.3476">
        <ele>152.4</ele>
        <time>2024-08-06T06:29:37Z</time>
      </trkpt>
      <trkpt lat="43.64929" lon="3.34757">
        <ele>152.8</ele>
        <time>2024-08-06T06:29:38Z</time>
      </trkpt>
      <trkpt lat="43.64931" lon="3.34755">
        <ele>153.2</ele>
        <time>2024-08-06T06:29:39Z</time>
      </trkpt>
      <trkpt lat="43.64933" lon="3.34753">
        <ele>153.5</ele>
        <time>2024-08-06T06:29:40Z</time>
      </trkpt>
      <trkpt lat="43.64935" lon="3.3475">
        <ele>154</ele>
        <time>2024-08-06T06:29:41Z</time>
      </trkpt>
      <trkpt lat="43.64936" lon="3.34747">
        <ele>154.2</ele>
        <time>2024-08-06T06:29:42Z</time>
      </trkpt>
      <trkpt lat="43.64939" lon="3.34745">
        <ele>154.6</ele>
        <time>2024-08-06T06:29:43Z</time>
      </trkpt>
      <trkpt lat="43.6494" lon="3.34742">
        <ele>154.8</ele>
        <time>2024-08-06T06:29:44Z</time>
      </trkpt>
      <trkpt lat="43.64942" lon="3.3474">
        <ele>155.1</ele>
        <time>2024-08-06T06:29:45Z</time>
      </trkpt>
      <trkpt lat="43.64944" lon="3.34738">
        <ele>155.4</ele>
        <time>2024-08-06T06:29:46Z</time>
      </trkpt>
      <trkpt lat="43.64945" lon="3.34736">
        <ele>155.5</ele>
        <time>2024-08-06T06:29:47Z</time>
      </trkpt>
      <trkpt lat="43.64947" lon="3.34734">
        <ele>155.7</ele>
        <time>2024-08-06T06:29:48Z</time>
      </trkpt>
      <trkpt lat="43.64948" lon="3.34731">
        <ele>155.8</ele>
        <time>2024-08-06T06:29:49Z</time>
      </trkpt>
      <trkpt lat="43.6495" lon="3.34729">
        <ele>156</ele>
        <time>2024-08-06T06:29:50Z</time>
      </trkpt>
      <trkpt lat="43.64952" lon="3.34726">
        <ele>156.1</ele>
        <time>2024-08-06T06:29:51Z</time>
      </trkpt>
      <trkpt lat="43.64953" lon="3.34723">
        <ele>156.3</ele>
        <time>2024-08-06T06:29:52Z</time>
      </trkpt>
      <trkpt lat="43.64954" lon="3.34719">
        <ele>156.4</ele>
        <time>2024-08-06T06:29:53Z</time>
      </trkpt>
      <trkpt lat="43.64956" lon="3.34717">
        <ele>156.5</ele>
        <time>2024-08-06T06:29:54Z</time>
      </trkpt>
      <trkpt lat="43.64957" lon="3.34714">
        <ele>156.6</ele>
        <time>2024-08-06T06:29:55Z</time>
      </trkpt>
      <trkpt lat="43.64959" lon="3.34711">
        <ele>156.7</ele>
        <time>2024-08-06T06:29:56Z</time>
      </trkpt>
      <trkpt lat="43.6496" lon="3.34708">
        <ele>156.8</ele>
        <time>2024-08-06T06:29:57Z</time>
      </trkpt>
      <trkpt lat="43.64962" lon="3.34706">
        <ele>157</ele>
        <time>2024-08-06T06:29:58Z</time>
      </trkpt>
      <trkpt lat="43.64964" lon="3.34703">
        <ele>157.2</ele>
        <time>2024-08-06T06:29:59Z</time>
      </trkpt>
      <trkpt lat="43.64966" lon="3.34701">
        <ele>157.4</ele>
        <time>2024-08-06T06:30:00Z</time>
      </trkpt>
      <trkpt lat="43.64967" lon="3.34698">
        <ele>157.5</ele>
        <time>2024-08-06T06:30:01Z</time>
      </trkpt>
      <trkpt lat="43.64969" lon="3.34695">
        <ele>157.8</ele>
        <time>2024-08-06T06:30:02Z</time>
      </trkpt>
      <trkpt lat="43.6497" lon="3.34693">
        <ele>157.9</ele>
        <time>2024-08-06T06:30:03Z</time>
      </trkpt>
      <trkpt lat="43.64972" lon="3.3469">
        <ele>158.1</ele>
        <time>2024-08-06T06:30:04Z</time>
      </trkpt>
      <trkpt lat="43.64973" lon="3.34687">
        <ele>158.3</ele>
        <time>2024-08-06T06:30:05Z</time>
      </trkpt>
      <trkpt lat="43.64975" lon="3.34685">
        <ele>158.5</ele>
        <time>2024-08-06T06:30:06Z</time>
      </trkpt>
      <trkpt lat="43.64976" lon="3.34682">
        <ele>158.7</ele>
        <time>2024-08-06T06:30:07Z</time>
      </trkpt>
      <trkpt lat="43.64977" lon="3.34679">
        <ele>158.9</ele>
        <time>2024-08-06T06:30:08Z</time>
      </trkpt>
      <trkpt lat="43.64978" lon="3.34675">
        <ele>159.1</ele>
        <time>2024-08-06T06:30:09Z</time>
      </trkpt>
      <trkpt lat="43.64979" lon="3.34672">
        <ele>159.3</ele>
        <time>2024-08-06T06:30:10Z</time>
      </trkpt>
      <trkpt lat="43.6498" lon="3.34669">
        <ele>159.5</ele>
        <time>2024-08-06T06:30:11Z</time>
      </trkpt>
      <trkpt lat="43.64981" lon="3.34666">
        <ele>159.7</ele>
        <time>2024-08-06T06:30:12Z</time>
      </trkpt>
      <trkpt lat="43.64982" lon="3.34663">
        <ele>159.8</ele>
        <time>2024-08-06T06:30:13Z</time>
      </trkpt>
      <trkpt lat="43.64983" lon="3.3466">
        <ele>160</ele>
        <time>2024-08-06T06:30:14Z</time>
      </trkpt>
      <trkpt lat="43.64984" lon="3.34656">
        <ele>160.2</ele>
        <time>2024-08-06T06:30:15Z</time>
      </trkpt>
      <trkpt lat="43.64986" lon="3.34653">
        <ele>160.5</ele>
        <time>2024-08-06T06:30:16Z</time>
      </trkpt>
      <trkpt lat="43.64987" lon="3.3465">
        <ele>160.7</ele>
        <time>2024-08-06T06:30:17Z</time>
      </trkpt>
      <trkpt lat="43.64989" lon="3.34647">
        <ele>160.9</ele>
        <time>2024-08-06T06:30:18Z</time>
      </trkpt>
      <trkpt lat="43.6499" lon="3.34645">
        <ele>161.1</ele>
        <time>2024-08-06T06:30:19Z</time>
      </trkpt>
      <trkpt lat="43.64992" lon="3.34642">
        <ele>161.3</ele>
        <time>2024-08-06T06:30:20Z</time>
      </trkpt>
      <trkpt lat="43.64994" lon="3.34639">
        <ele>161.6</ele>
        <time>2024-08-06T06:30:21Z</time>
      </trkpt>
      <trkpt lat="43.64995" lon="3.34636">
        <ele>161.8</ele>
        <time>2024-08-06T06:30:22Z</time>
      </trkpt>
      <trkpt lat="43.64997" lon="3.34633">
        <ele>162.1</ele>
        <time>2024-08-06T06:30:23Z</time>
      </trkpt>
      <trkpt lat="43.64999" lon="3.3463">
        <ele>162.5</ele>
        <time>2024-08-06T06:30:24Z</time>
      </trkpt>
      <trkpt lat="43.65" lon="3.34627">
        <ele>162.9</ele>
        <time>2024-08-06T06:30:25Z</time>
      </trkpt>
      <trkpt lat="43.65002" lon="3.34624">
        <ele>163.1</ele>
        <time>2024-08-06T06:30:26Z</time>
      </trkpt>
      <trkpt lat="43.65003" lon="3.34621">
        <ele>163.4</ele>
        <time>2024-08-06T06:30:27Z</time>
      </trkpt>
      <trkpt lat="43.65005" lon="3.34618">
        <ele>163.7</ele>
        <time>2024-08-06T06:30:28Z</time>
      </trkpt>
      <trkpt lat="43.65006" lon="3.34615">
        <ele>163.9</ele>
        <time>2024-08-06T06:30:29Z</time>
      </trkpt>
      <trkpt lat="43.65007" lon="3.34612">
        <ele>164.2</ele>
        <time>2024-08-06T06:30:30Z</time>
      </trkpt>
      <trkpt lat="43.65009" lon="3.34609">
        <ele>164.3</ele>
        <time>2024-08-06T06:30:31Z</time>
      </trkpt>
      <trkpt lat="43.6501" lon="3.34606">
        <ele>164.3</ele>
        <time>2024-08-06T06:30:32Z</time>
      </trkpt>
      <trkpt lat="43.65012" lon="3.34603">
        <ele>164.4</ele>
        <time>2024-08-06T06:30:33Z</time>
      </trkpt>
      <trkpt lat="43.65013" lon="3.346">
        <ele>164.4</ele>
        <time>2024-08-06T06:30:34Z</time>
      </trkpt>
      <trkpt lat="43.65013" lon="3.34596">
        <ele>164.4</ele>
        <time>2024-08-06T06:30:35Z</time>
      </trkpt>
      <trkpt lat="43.65013" lon="3.34592">
        <ele>164.4</ele>
        <time>2024-08-06T06:30:36Z</time>
      </trkpt>
      <trkpt lat="43.65013" lon="3.34589">
        <ele>164.4</ele>
        <time>2024-08-06T06:30:37Z</time>
      </trkpt>
      <trkpt lat="43.65014" lon="3.34584">
        <ele>164.5</ele>
        <time>2024-08-06T06:30:38Z</time>
      </trkpt>
      <trkpt lat="43.65014" lon="3.34581">
        <ele>164.8</ele>
        <time>2024-08-06T06:30:39Z</time>
      </trkpt>
      <trkpt lat="43.65014" lon="3.34577">
        <ele>165.2</ele>
        <time>2024-08-06T06:30:40Z</time>
      </trkpt>
      <trkpt lat="43.65015" lon="3.34574">
        <ele>165.7</ele>
        <time>2024-08-06T06:30:41Z</time>
      </trkpt>
      <trkpt lat="43.65017" lon="3.34571">
        <ele>166.3</ele>
        <time>2024-08-06T06:30:42Z</time>
      </trkpt>
      <trkpt lat="43.65018" lon="3.34568">
        <ele>166.8</ele>
        <time>2024-08-06T06:30:43Z</time>
      </trkpt>
      <trkpt lat="43.65019" lon="3.34565">
        <ele>167.3</ele>
        <time>2024-08-06T06:30:44Z</time>
      </trkpt>
      <trkpt lat="43.65019" lon="3.34561">
        <ele>167.8</ele>
        <time>2024-08-06T06:30:45Z</time>
      </trkpt>
      <trkpt lat="43.6502" lon="3.34558">
        <ele>168.3</ele>
        <time>2024-08-06T06:30:46Z</time>
      </trkpt>
      <trkpt lat="43.65021" lon="3.34556">
        <ele>168.7</ele>
        <time>2024-08-06T06:30:47Z</time>
      </trkpt>
      <trkpt lat="43.65023" lon="3.34554">
        <ele>169.3</ele>
        <time>2024-08-06T06:30:48Z</time>
      </trkpt>
      <trkpt lat="43.65024" lon="3.34551">
        <ele>169.9</ele>
        <time>2024-08-06T06:30:49Z</time>
      </trkpt>
      <trkpt lat="43.65025" lon="3.34549">
        <ele>170.3</ele>
        <time>2024-08-06T06:30:50Z</time>
      </trkpt>
      <trkpt lat="43.65026" lon="3.34547">
        <ele>170.7</ele>
        <time>2024-08-06T06:30:51Z</time>
      </trkpt>
      <trkpt lat="43.65026" lon="3.34544">
        <ele>171</ele>
        <time>2024-08-06T06:30:52Z</time>
      </trkpt>
      <trkpt lat="43.65028" lon="3.34541">
        <ele>171.6</ele>
        <time>2024-08-06T06:30:53Z</time>
      </trkpt>
      <trkpt lat="43.65029" lon="3.34538">
        <ele>172</ele>
        <time>2024-08-06T06:30:54Z</time>
      </trkpt>
      <trkpt lat="43.6503" lon="3.34535">
        <ele>172.3</ele>
        <time>2024-08-06T06:30:55Z</time>
      </trkpt>
      <trkpt lat="43.6503" lon="3.34533">
        <ele>172.5</ele>
        <time>2024-08-06T06:30:56Z</time>
      </trkpt>
      <trkpt lat="43.65031" lon="3.34531">
        <ele>172.8</ele>
        <time>2024-08-06T06:30:57Z</time>
      </trkpt>
      <trkpt lat="43.65032" lon="3.34529">
        <ele>173</ele>
        <time>2024-08-06T06:30:58Z</time>
      </trkpt>
      <trkpt lat="43.65034" lon="3.34528">
        <ele>173.2</ele>
        <time>2024-08-06T06:30:59Z</time>
      </trkpt>
      <trkpt lat="43.65036" lon="3.34526">
        <ele>173.5</ele>
        <time>2024-08-06T06:31:00Z</time>
      </trkpt>
      <trkpt lat="43.65038" lon="3.34525">
        <ele>173.7</ele>
        <time>2024-08-06T06:31:01Z</time>
      </trkpt>
      <trkpt lat="43.65039" lon="3.34523">
        <ele>174</ele>
        <time>2024-08-06T06:31:02Z</time>
      </trkpt>
      <trkpt lat="43.6504" lon="3.34521">
        <ele>174.3</ele>
        <time>2024-08-06T06:31:03Z</time>
      </trkpt>
      <trkpt lat="43.65042" lon="3.34519">
        <ele>174.6</ele>
        <time>2024-08-06T06:31:04Z</time>
      </trkpt>
      <trkpt lat="43.65043" lon="3.34517">
        <ele>174.9</ele>
        <time>2024-08-06T06:31:05Z</time>
      </trkpt>
      <trkpt lat="43.65045" lon="3.34515">
        <ele>175.3</ele>
        <time>2024-08-06T06:31:06Z</time>
      </trkpt>
      <trkpt lat="43.65046" lon="3.34513">
        <ele>175.6</ele>
        <time>2024-08-06T06:31:07Z</time>
      </trkpt>
      <trkpt lat="43.65048" lon="3.34512">
        <ele>175.8</ele>
        <time>2024-08-06T06:31:08Z</time>
      </trkpt>
      <trkpt lat="43.65049" lon="3.3451">
        <ele>176.2</ele>
        <time>2024-08-06T06:31:09Z</time>
      </trkpt>
      <trkpt lat="43.65051" lon="3.34509">
        <ele>176.4</ele>
        <time>2024-08-06T06:31:10Z</time>
      </trkpt>
      <trkpt lat="43.65053" lon="3.34507">
        <ele>176.8</ele>
        <time>2024-08-06T06:31:11Z</time>
      </trkpt>
      <trkpt lat="43.65054" lon="3.34506">
        <ele>177</ele>
        <time>2024-08-06T06:31:12Z</time>
      </trkpt>
      <trkpt lat="43.65056" lon="3.34504">
        <ele>177.5</ele>
        <time>2024-08-06T06:31:13Z</time>
      </trkpt>
      <trkpt lat="43.65058" lon="3.34504">
        <ele>177.7</ele>
        <time>2024-08-06T06:31:14Z</time>
      </trkpt>
      <trkpt lat="43.65059" lon="3.34502">
        <ele>178.1</ele>
        <time>2024-08-06T06:31:15Z</time>
      </trkpt>
      <trkpt lat="43.6506" lon="3.345">
        <ele>178.5</ele>
        <time>2024-08-06T06:31:16Z</time>
      </trkpt>
      <trkpt lat="43.65061" lon="3.34497">
        <ele>178.9</ele>
        <time>2024-08-06T06:31:17Z</time>
      </trkpt>
      <trkpt lat="43.65062" lon="3.34494">
        <ele>179.3</ele>
        <time>2024-08-06T06:31:18Z</time>
      </trkpt>
      <trkpt lat="43.65064" lon="3.34491">
        <ele>179.9</ele>
        <time>2024-08-06T06:31:19Z</time>
      </trkpt>
      <trkpt lat="43.65064" lon="3.34489">
        <ele>180.1</ele>
        <time>2024-08-06T06:31:20Z</time>
      </trkpt>
      <trkpt lat="43.65064" lon="3.34487">
        <ele>180.3</ele>
        <time>2024-08-06T06:31:21Z</time>
      </trkpt>
      <trkpt lat="43.65063" lon="3.34486">
        <ele>180.3</ele>
        <time>2024-08-06T06:31:22Z</time>
      </trkpt>
      <trkpt lat="43.65062" lon="3.34485">
        <ele>180.3</ele>
        <time>2024-08-06T06:31:23Z</time>
      </trkpt>
      <trkpt lat="43.6506" lon="3.34484">
        <ele>180.2</ele>
        <time>2024-08-06T06:31:24Z</time>
      </trkpt>
      <trkpt lat="43.65058" lon="3.34484">
        <ele>180</ele>
        <time>2024-08-06T06:31:25Z</time>
      </trkpt>
      <trkpt lat="43.65056" lon="3.34484">
        <ele>179.8</ele>
        <time>2024-08-06T06:31:26Z</time>
      </trkpt>
      <trkpt lat="43.65055" lon="3.34483">
        <ele>179.8</ele>
        <time>2024-08-06T06:31:27Z</time>
      </trkpt>
      <trkpt lat="43.65055" lon="3.34483">
        <ele>179.8</ele>
        <time>2024-08-06T06:31:28Z</time>
      </trkpt>
      <trkpt lat="43.65055" lon="3.34483">
        <ele>179.8</ele>
        <time>2024-08-06T06:31:29Z</time>
      </trkpt>
      <trkpt lat="43.65055" lon="3.34483">
        <ele>179.8</ele>
        <time>2024-08-06T06:31:30Z</time>
      </trkpt>
      <trkpt lat="43.65052" lon="3.3448">
        <ele>179.8</ele>
        <time>2024-08-06T06:31:49Z</time>
      </trkpt>
      <trkpt lat="43.65049" lon="3.34477">
        <ele>179.8</ele>
        <time>2024-08-06T06:31:50Z</time>
      </trkpt>
      <trkpt lat="43.65047" lon="3.34474">
        <ele>179.9</ele>
        <time>2024-08-06T06:31:51Z</time>
      </trkpt>
      <trkpt lat="43.65045" lon="3.34471">
        <ele>180</ele>
        <time>2024-08-06T06:31:52Z</time>
      </trkpt>
      <trkpt lat="43.65043" lon="3.34469">
        <ele>180.1</ele>
        <time>2024-08-06T06:31:53Z</time>
      </trkpt>
      <trkpt lat="43.6504" lon="3.34466">
        <ele>180.1</ele>
        <time>2024-08-06T06:31:54Z</time>
      </trkpt>
      <trkpt lat="43.65037" lon="3.34463">
        <ele>180.1</ele>
        <time>2024-08-06T06:31:55Z</time>
      </trkpt>
      <trkpt lat="43.65034" lon="3.3446">
        <ele>180.1</ele>
        <time>2024-08-06T06:31:56Z</time>
      </trkpt>
      <trkpt lat="43.6503" lon="3.34456">
        <ele>180</ele>
        <time>2024-08-06T06:31:57Z</time>
      </trkpt>
      <trkpt lat="43.65026" lon="3.34452">
        <ele>180</ele>
        <time>2024-08-06T06:31:58Z</time>
      </trkpt>
      <trkpt lat="43.65022" lon="3.34448">
        <ele>179.8</ele>
        <time>2024-08-06T06:31:59Z</time>
      </trkpt>
      <trkpt lat="43.65018" lon="3.34444">
        <ele>179.6</ele>
        <time>2024-08-06T06:32:00Z</time>
      </trkpt>
      <trkpt lat="43.65015" lon="3.34441">
        <ele>179.4</ele>
        <time>2024-08-06T06:32:01Z</time>
      </trkpt>
      <trkpt lat="43.65012" lon="3.34436">
        <ele>179.2</ele>
        <time>2024-08-06T06:32:02Z</time>
      </trkpt>
      <trkpt lat="43.6501" lon="3.34431">
        <ele>179.1</ele>
        <time>2024-08-06T06:32:03Z</time>
      </trkpt>
      <trkpt lat="43.65008" lon="3.34426">
        <ele>179</ele>
        <time>2024-08-06T06:32:04Z</time>
      </trkpt>
      <trkpt lat="43.65006" lon="3.34422">
        <ele>178.8</ele>
        <time>2024-08-06T06:32:05Z</time>
      </trkpt>
      <trkpt lat="43.65003" lon="3.34417">
        <ele>178.5</ele>
        <time>2024-08-06T06:32:06Z</time>
      </trkpt>
      <trkpt lat="43.65" lon="3.34413">
        <ele>178.3</ele>
        <time>2024-08-06T06:32:07Z</time>
      </trkpt>
      <trkpt lat="43.64997" lon="3.34411">
        <ele>178.1</ele>
        <time>2024-08-06T06:32:08Z</time>
      </trkpt>
      <trkpt lat="43.64994" lon="3.3441">
        <ele>177.8</ele>
        <time>2024-08-06T06:32:09Z</time>
      </trkpt>
      <trkpt lat="43.64991" lon="3.34408">
        <ele>177.6</ele>
        <time>2024-08-06T06:32:10Z</time>
      </trkpt>
      <trkpt lat="43.64989" lon="3.34406">
        <ele>177.4</ele>
        <time>2024-08-06T06:32:11Z</time>
      </trkpt>
      <trkpt lat="43.64986" lon="3.34403">
        <ele>177.2</ele>
        <time>2024-08-06T06:32:12Z</time>
      </trkpt>
      <trkpt lat="43.64984" lon="3.34401">
        <ele>177.1</ele>
        <time>2024-08-06T06:32:13Z</time>
      </trkpt>
      <trkpt lat="43.64982" lon="3.34398">
        <ele>177</ele>
        <time>2024-08-06T06:32:14Z</time>
      </trkpt>
      <trkpt lat="43.64982" lon="3.34394">
        <ele>177.2</ele>
        <time>2024-08-06T06:32:15Z</time>
      </trkpt>
      <trkpt lat="43.64983" lon="3.34388">
        <ele>177.5</ele>
        <time>2024-08-06T06:32:16Z</time>
      </trkpt>
      <trkpt lat="43.64984" lon="3.34383">
        <ele>177.6</ele>
        <time>2024-08-06T06:32:17Z</time>
      </trkpt>
      <trkpt lat="43.64986" lon="3.34379">
        <ele>177.8</ele>
        <time>2024-08-06T06:32:18Z</time>
      </trkpt>
      <trkpt lat="43.64987" lon="3.34376">
        <ele>177.9</ele>
        <time>2024-08-06T06:32:19Z</time>
      </trkpt>
      <trkpt lat="43.64988" lon="3.34373">
        <ele>177.9</ele>
        <time>2024-08-06T06:32:20Z</time>
      </trkpt>
      <trkpt lat="43.64989" lon="3.34372">
        <ele>177.9</ele>
        <time>2024-08-06T06:32:21Z</time>
      </trkpt>
      <trkpt lat="43.64989" lon="3.3437">
        <ele>177.9</ele>
        <time>2024-08-06T06:32:22Z</time>
      </trkpt>
      <trkpt lat="43.6499" lon="3.34365">
        <ele>177.8</ele>
        <time>2024-08-06T06:32:23Z</time>
      </trkpt>
      <trkpt lat="43.64991" lon="3.3436">
        <ele>177.6</ele>
        <time>2024-08-06T06:32:24Z</time>
      </trkpt>
      <trkpt lat="43.64992" lon="3.34355">
        <ele>177.1</ele>
        <time>2024-08-06T06:32:25Z</time>
      </trkpt>
      <trkpt lat="43.64993" lon="3.34349">
        <ele>176.7</ele>
        <time>2024-08-06T06:32:26Z</time>
      </trkpt>
      <trkpt lat="43.64994" lon="3.34345">
        <ele>176.4</ele>
        <time>2024-08-06T06:32:27Z</time>
      </trkpt>
      <trkpt lat="43.64996" lon="3.34342">
        <ele>176.3</ele>
        <time>2024-08-06T06:32:28Z</time>
      </trkpt>
      <trkpt lat="43.64997" lon="3.34338">
        <ele>176</ele>
        <time>2024-08-06T06:32:29Z</time>
      </trkpt>
      <trkpt lat="43.64998" lon="3.34335">
        <ele>175.9</ele>
        <time>2024-08-06T06:32:30Z</time>
      </trkpt>
      <trkpt lat="43.64999" lon="3.34331">
        <ele>176.1</ele>
        <time>2024-08-06T06:32:31Z</time>
      </trkpt>
      <trkpt lat="43.64999" lon="3.34328">
        <ele>176.3</ele>
        <time>2024-08-06T06:32:32Z</time>
      </trkpt>
      <trkpt lat="43.65" lon="3.34325">
        <ele>176.6</ele>
        <time>2024-08-06T06:32:33Z</time>
      </trkpt>
      <trkpt lat="43.64999" lon="3.34323">
        <ele>176.6</ele>
        <time>2024-08-06T06:32:34Z</time>
      </trkpt>
      <trkpt lat="43.64999" lon="3.34321">
        <ele>176.8</ele>
        <time>2024-08-06T06:32:35Z</time>
      </trkpt>
      <trkpt lat="43.64999" lon="3.34318">
        <ele>177</ele>
        <time>2024-08-06T06:32:36Z</time>
      </trkpt>
      <trkpt lat="43.64999" lon="3.34315">
        <ele>177.2</ele>
        <time>2024-08-06T06:32:37Z</time>
      </trkpt>
      <trkpt lat="43.64999" lon="3.34313">
        <ele>177.3</ele>
        <time>2024-08-06T06:32:38Z</time>
      </trkpt>
      <trkpt lat="43.64997" lon="3.3431">
        <ele>177.3</ele>
        <time>2024-08-06T06:32:39Z</time>
      </trkpt>
      <trkpt lat="43.64996" lon="3.34308">
        <ele>177.3</ele>
        <time>2024-08-06T06:32:40Z</time>
      </trkpt>
      <trkpt lat="43.64996" lon="3.34305">
        <ele>177.5</ele>
        <time>2024-08-06T06:32:41Z</time>
      </trkpt>
      <trkpt lat="43.64995" lon="3.34301">
        <ele>177.9</ele>
        <time>2024-08-06T06:32:42Z</time>
      </trkpt>
      <trkpt lat="43.64994" lon="3.34298">
        <ele>178.2</ele>
        <time>2024-08-06T06:32:43Z</time>
      </trkpt>
      <trkpt lat="43.64993" lon="3.34295">
        <ele>178.5</ele>
        <time>2024-08-06T06:32:44Z</time>
      </trkpt>
      <trkpt lat="43.64993" lon="3.34292">
        <ele>178.9</ele>
        <time>2024-08-06T06:32:45Z</time>
      </trkpt>
      <trkpt lat="43.64992" lon="3.34288">
        <ele>179.4</ele>
        <time>2024-08-06T06:32:46Z</time>
      </trkpt>
      <trkpt lat="43.64991" lon="3.34284">
        <ele>179.8</ele>
        <time>2024-08-06T06:32:47Z</time>
      </trkpt>
      <trkpt lat="43.64989" lon="3.34281">
        <ele>180</ele>
        <time>2024-08-06T06:32:48Z</time>
      </trkpt>
      <trkpt lat="43.64986" lon="3.34279">
        <ele>179.8</ele>
        <time>2024-08-06T06:32:49Z</time>
      </trkpt>
      <trkpt lat="43.64984" lon="3.34277">
        <ele>179.8</ele>
        <time>2024-08-06T06:32:50Z</time>
      </trkpt>
      <trkpt lat="43.64982" lon="3.34275">
        <ele>179.8</ele>
        <time>2024-08-06T06:32:51Z</time>
      </trkpt>
      <trkpt lat="43.64981" lon="3.34272">
        <ele>180.2</ele>
        <time>2024-08-06T06:32:52Z</time>
      </trkpt>
      <trkpt lat="43.64979" lon="3.3427">
        <ele>180.2</ele>
        <time>2024-08-06T06:32:53Z</time>
      </trkpt>
      <trkpt lat="43.64978" lon="3.34267">
        <ele>180.5</ele>
        <time>2024-08-06T06:32:54Z</time>
      </trkpt>
      <trkpt lat="43.64977" lon="3.34264">
        <ele>180.8</ele>
        <time>2024-08-06T06:32:55Z</time>
      </trkpt>
      <trkpt lat="43.64976" lon="3.34261">
        <ele>181</ele>
        <time>2024-08-06T06:32:56Z</time>
      </trkpt>
      <trkpt lat="43.64974" lon="3.34258">
        <ele>181.1</ele>
        <time>2024-08-06T06:32:57Z</time>
      </trkpt>
      <trkpt lat="43.64972" lon="3.34255">
        <ele>181.2</ele>
        <time>2024-08-06T06:32:58Z</time>
      </trkpt>
      <trkpt lat="43.6497" lon="3.34251">
        <ele>181.2</ele>
        <time>2024-08-06T06:32:59Z</time>
      </trkpt>
      <trkpt lat="43.64968" lon="3.34246">
        <ele>181.1</ele>
        <time>2024-08-06T06:33:00Z</time>
      </trkpt>
      <trkpt lat="43.64966" lon="3.34242">
        <ele>180.9</ele>
        <time>2024-08-06T06:33:01Z</time>
      </trkpt>
      <trkpt lat="43.64964" lon="3.34238">
        <ele>180.8</ele>
        <time>2024-08-06T06:33:02Z</time>
      </trkpt>
      <trkpt lat="43.64963" lon="3.34234">
        <ele>180.9</ele>
        <time>2024-08-06T06:33:03Z</time>
      </trkpt>
      <trkpt lat="43.64962" lon="3.3423">
        <ele>181</ele>
        <time>2024-08-06T06:33:04Z</time>
      </trkpt>
      <trkpt lat="43.64961" lon="3.34227">
        <ele>181.1</ele>
        <time>2024-08-06T06:33:05Z</time>
      </trkpt>
      <trkpt lat="43.64959" lon="3.34223">
        <ele>181.1</ele>
        <time>2024-08-06T06:33:06Z</time>
      </trkpt>
      <trkpt lat="43.64957" lon="3.34218">
        <ele>180.9</ele>
        <time>2024-08-06T06:33:07Z</time>
      </trkpt>
      <trkpt lat="43.64954" lon="3.34214">
        <ele>180.6</ele>
        <time>2024-08-06T06:33:08Z</time>
      </trkpt>
      <trkpt lat="43.64951" lon="3.34211">
        <ele>180.1</ele>
        <time>2024-08-06T06:33:09Z</time>
      </trkpt>
      <trkpt lat="43.64949" lon="3.34207">
        <ele>180</ele>
        <time>2024-08-06T06:33:10Z</time>
      </trkpt>
      <trkpt lat="43.64948" lon="3.34202">
        <ele>180.1</ele>
        <time>2024-08-06T06:33:11Z</time>
      </trkpt>
      <trkpt lat="43.64947" lon="3.34197">
        <ele>180.3</ele>
        <time>2024-08-06T06:33:12Z</time>
      </trkpt>
      <trkpt lat="43.64946" lon="3.34192">
        <ele>180.4</ele>
        <time>2024-08-06T06:33:13Z</time>
      </trkpt>
      <trkpt lat="43.64944" lon="3.34187">
        <ele>180.2</ele>
        <time>2024-08-06T06:33:14Z</time>
      </trkpt>
      <trkpt lat="43.64942" lon="3.34183">
        <ele>179.9</ele>
        <time>2024-08-06T06:33:15Z</time>
      </trkpt>
      <trkpt lat="43.6494" lon="3.34178">
        <ele>179.7</ele>
        <time>2024-08-06T06:33:16Z</time>
      </trkpt>
      <trkpt lat="43.64939" lon="3.34173">
        <ele>179.7</ele>
        <time>2024-08-06T06:33:17Z</time>
      </trkpt>
      <trkpt lat="43.64939" lon="3.34168">
        <ele>180</ele>
        <time>2024-08-06T06:33:18Z</time>
      </trkpt>
      <trkpt lat="43.64938" lon="3.34163">
        <ele>179.7</ele>
        <time>2024-08-06T06:33:19Z</time>
      </trkpt>
      <trkpt lat="43.64938" lon="3.34158">
        <ele>179.6</ele>
        <time>2024-08-06T06:33:20Z</time>
      </trkpt>
      <trkpt lat="43.64937" lon="3.34153">
        <ele>179.3</ele>
        <time>2024-08-06T06:33:21Z</time>
      </trkpt>
      <trkpt lat="43.64937" lon="3.34148">
        <ele>179.2</ele>
        <time>2024-08-06T06:33:22Z</time>
      </trkpt>
      <trkpt lat="43.64937" lon="3.34143">
        <ele>179</ele>
        <time>2024-08-06T06:33:23Z</time>
      </trkpt>
      <trkpt lat="43.64938" lon="3.34138">
        <ele>179</ele>
        <time>2024-08-06T06:33:24Z</time>
      </trkpt>
      <trkpt lat="43.6494" lon="3.34133">
        <ele>179.1</ele>
        <time>2024-08-06T06:33:25Z</time>
      </trkpt>
      <trkpt lat="43.64941" lon="3.34128">
        <ele>179.1</ele>
        <time>2024-08-06T06:33:26Z</time>
      </trkpt>
      <trkpt lat="43.6494" lon="3.34123">
        <ele>178.8</ele>
        <time>2024-08-06T06:33:27Z</time>
      </trkpt>
      <trkpt lat="43.64939" lon="3.34117">
        <ele>178.4</ele>
        <time>2024-08-06T06:33:28Z</time>
      </trkpt>
      <trkpt lat="43.64936" lon="3.34114">
        <ele>177.9</ele>
        <time>2024-08-06T06:33:29Z</time>
      </trkpt>
      <trkpt lat="43.64934" lon="3.34109">
        <ele>177.5</ele>
        <time>2024-08-06T06:33:30Z</time>
      </trkpt>
      <trkpt lat="43.64932" lon="3.34104">
        <ele>177.2</ele>
        <time>2024-08-06T06:33:31Z</time>
      </trkpt>
      <trkpt lat="43.64931" lon="3.34099">
        <ele>177.1</ele>
        <time>2024-08-06T06:33:32Z</time>
      </trkpt>
      <trkpt lat="43.64931" lon="3.34094">
        <ele>177.1</ele>
        <time>2024-08-06T06:33:33Z</time>
      </trkpt>
      <trkpt lat="43.6493" lon="3.34088">
        <ele>176.9</ele>
        <time>2024-08-06T06:33:34Z</time>
      </trkpt>
      <trkpt lat="43.64929" lon="3.34082">
        <ele>176.6</ele>
        <time>2024-08-06T06:33:35Z</time>
      </trkpt>
      <trkpt lat="43.64929" lon="3.34074">
        <ele>176.5</ele>
        <time>2024-08-06T06:33:36Z</time>
      </trkpt>
      <trkpt lat="43.6493" lon="3.34067">
        <ele>176.6</ele>
        <time>2024-08-06T06:33:37Z</time>
      </trkpt>
      <trkpt lat="43.6493" lon="3.34059">
        <ele>176.5</ele>
        <time>2024-08-06T06:33:38Z</time>
      </trkpt>
      <trkpt lat="43.6493" lon="3.34052">
        <ele>176.2</ele>
        <time>2024-08-06T06:33:39Z</time>
      </trkpt>
      <trkpt lat="43.6493" lon="3.34044">
        <ele>175.8</ele>
        <time>2024-08-06T06:33:40Z</time>
      </trkpt>
      <trkpt lat="43.6493" lon="3.34037">
        <ele>175.4</ele>
        <time>2024-08-06T06:33:41Z</time>
      </trkpt>
      <trkpt lat="43.64931" lon="3.34031">
        <ele>175.3</ele>
        <time>2024-08-06T06:33:42Z</time>
      </trkpt>
      <trkpt lat="43.64932" lon="3.34026">
        <ele>175.2</ele>
        <time>2024-08-06T06:33:43Z</time>
      </trkpt>
      <trkpt lat="43.64933" lon="3.34024">
        <ele>175.3</ele>
        <time>2024-08-06T06:33:44Z</time>
      </trkpt>
      <trkpt lat="43.64933" lon="3.34022">
        <ele>175.1</ele>
        <time>2024-08-06T06:33:45Z</time>
      </trkpt>
      <trkpt lat="43.64934" lon="3.34022">
        <ele>175.3</ele>
        <time>2024-08-06T06:33:46Z</time>
      </trkpt>
      <trkpt lat="43.64934" lon="3.34022">
        <ele>175.3</ele>
        <time>2024-08-06T06:33:47Z</time>
      </trkpt>
      <trkpt lat="43.64936" lon="3.34017">
        <ele>175.4</ele>
        <time>2024-08-06T06:33:52Z</time>
      </trkpt>
      <trkpt lat="43.64937" lon="3.34014">
        <ele>175.4</ele>
        <time>2024-08-06T06:33:53Z</time>
      </trkpt>
      <trkpt lat="43.64938" lon="3.34011">
        <ele>175.4</ele>
        <time>2024-08-06T06:33:54Z</time>
      </trkpt>
      <trkpt lat="43.64938" lon="3.34008">
        <ele>175.2</ele>
        <time>2024-08-06T06:33:55Z</time>
      </trkpt>
      <trkpt lat="43.64938" lon="3.34005">
        <ele>175</ele>
        <time>2024-08-06T06:33:56Z</time>
      </trkpt>
      <trkpt lat="43.64938" lon="3.34002">
        <ele>174.8</ele>
        <time>2024-08-06T06:33:57Z</time>
      </trkpt>
      <trkpt lat="43.64938" lon="3.33999">
        <ele>174.5</ele>
        <time>2024-08-06T06:33:58Z</time>
      </trkpt>
      <trkpt lat="43.64938" lon="3.33994">
        <ele>174.1</ele>
        <time>2024-08-06T06:33:59Z</time>
      </trkpt>
      <trkpt lat="43.64939" lon="3.33991">
        <ele>174</ele>
        <time>2024-08-06T06:34:00Z</time>
      </trkpt>
      <trkpt lat="43.64938" lon="3.33987">
        <ele>173.4</ele>
        <time>2024-08-06T06:34:01Z</time>
      </trkpt>
      <trkpt lat="43.64938" lon="3.33983">
        <ele>173.1</ele>
        <time>2024-08-06T06:34:02Z</time>
      </trkpt>
      <trkpt lat="43.64939" lon="3.33979">
        <ele>172.9</ele>
        <time>2024-08-06T06:34:03Z</time>
      </trkpt>
      <trkpt lat="43.6494" lon="3.33974">
        <ele>172.5</ele>
        <time>2024-08-06T06:34:04Z</time>
      </trkpt>
      <trkpt lat="43.64942" lon="3.3397">
        <ele>172.3</ele>
        <time>2024-08-06T06:34:05Z</time>
      </trkpt>
      <trkpt lat="43.64944" lon="3.33966">
        <ele>172</ele>
        <time>2024-08-06T06:34:06Z</time>
      </trkpt>
      <trkpt lat="43.64945" lon="3.33962">
        <ele>171.6</ele>
        <time>2024-08-06T06:34:07Z</time>
      </trkpt>
      <trkpt lat="43.64946" lon="3.33957">
        <ele>170.9</ele>
        <time>2024-08-06T06:34:08Z</time>
      </trkpt>
      <trkpt lat="43.64946" lon="3.33952">
        <ele>170.2</ele>
        <time>2024-08-06T06:34:09Z</time>
      </trkpt>
      <trkpt lat="43.64944" lon="3.33947">
        <ele>169.3</ele>
        <time>2024-08-06T06:34:10Z</time>
      </trkpt>
      <trkpt lat="43.6494" lon="3.33944">
        <ele>168.6</ele>
        <time>2024-08-06T06:34:11Z</time>
      </trkpt>
      <trkpt lat="43.64936" lon="3.3394">
        <ele>168</ele>
        <time>2024-08-06T06:34:12Z</time>
      </trkpt>
      <trkpt lat="43.64932" lon="3.33935">
        <ele>167.2</ele>
        <time>2024-08-06T06:34:13Z</time>
      </trkpt>
      <trkpt lat="43.64929" lon="3.3393">
        <ele>166.6</ele>
        <time>2024-08-06T06:34:14Z</time>
      </trkpt>
      <trkpt lat="43.64927" lon="3.33923">
        <ele>165.9</ele>
        <time>2024-08-06T06:34:15Z</time>
      </trkpt>
      <trkpt lat="43.64926" lon="3.33918">
        <ele>165.4</ele>
        <time>2024-08-06T06:34:16Z</time>
      </trkpt>
      <trkpt lat="43.64926" lon="3.33913">
        <ele>165</ele>
        <time>2024-08-06T06:34:17Z</time>
      </trkpt>
      <trkpt lat="43.64926" lon="3.33908">
        <ele>164.6</ele>
        <time>2024-08-06T06:34:18Z</time>
      </trkpt>
      <trkpt lat="43.64924" lon="3.33902">
        <ele>164.1</ele>
        <time>2024-08-06T06:34:19Z</time>
      </trkpt>
      <trkpt lat="43.64922" lon="3.33897">
        <ele>163.6</ele>
        <time>2024-08-06T06:34:20Z</time>
      </trkpt>
      <trkpt lat="43.64919" lon="3.3389">
        <ele>163.1</ele>
        <time>2024-08-06T06:34:21Z</time>
      </trkpt>
      <trkpt lat="43.64917" lon="3.33885">
        <ele>162.6</ele>
        <time>2024-08-06T06:34:22Z</time>
      </trkpt>
      <trkpt lat="43.64915" lon="3.3388">
        <ele>162</ele>
        <time>2024-08-06T06:34:23Z</time>
      </trkpt>
      <trkpt lat="43.64914" lon="3.33876">
        <ele>161.5</ele>
        <time>2024-08-06T06:34:24Z</time>
      </trkpt>
      <trkpt lat="43.64913" lon="3.3387">
        <ele>160.9</ele>
        <time>2024-08-06T06:34:25Z</time>
      </trkpt>
      <trkpt lat="43.64915" lon="3.33864">
        <ele>160.3</ele>
        <time>2024-08-06T06:34:26Z</time>
      </trkpt>
      <trkpt lat="43.64917" lon="3.33857">
        <ele>159.9</ele>
        <time>2024-08-06T06:34:27Z</time>
      </trkpt>
      <trkpt lat="43.6492" lon="3.3385">
        <ele>159.8</ele>
        <time>2024-08-06T06:34:28Z</time>
      </trkpt>
      <trkpt lat="43.64924" lon="3.33844">
        <ele>159.7</ele>
        <time>2024-08-06T06:34:29Z</time>
      </trkpt>
      <trkpt lat="43.64927" lon="3.33839">
        <ele>159.7</ele>
        <time>2024-08-06T06:34:30Z</time>
      </trkpt>
      <trkpt lat="43.6493" lon="3.33836">
        <ele>159.6</ele>
        <time>2024-08-06T06:34:31Z</time>
      </trkpt>
      <trkpt lat="43.64933" lon="3.33834">
        <ele>159.6</ele>
        <time>2024-08-06T06:34:32Z</time>
      </trkpt>
      <trkpt lat="43.64936" lon="3.33832">
        <ele>159.6</ele>
        <time>2024-08-06T06:34:33Z</time>
      </trkpt>
      <trkpt lat="43.6494" lon="3.3383">
        <ele>159.7</ele>
        <time>2024-08-06T06:34:34Z</time>
      </trkpt>
      <trkpt lat="43.64943" lon="3.33826">
        <ele>159.7</ele>
        <time>2024-08-06T06:34:35Z</time>
      </trkpt>
      <trkpt lat="43.64947" lon="3.33823">
        <ele>159.9</ele>
        <time>2024-08-06T06:34:36Z</time>
      </trkpt>
      <trkpt lat="43.6495" lon="3.33818">
        <ele>159.9</ele>
        <time>2024-08-06T06:34:37Z</time>
      </trkpt>
      <trkpt lat="43.64954" lon="3.33815">
        <ele>160.1</ele>
        <time>2024-08-06T06:34:38Z</time>
      </trkpt>
      <trkpt lat="43.64958" lon="3.33812">
        <ele>160.3</ele>
        <time>2024-08-06T06:34:39Z</time>
      </trkpt>
      <trkpt lat="43.64963" lon="3.33811">
        <ele>160.7</ele>
        <time>2024-08-06T06:34:40Z</time>
      </trkpt>
      <trkpt lat="43.64967" lon="3.33807">
        <ele>160.7</ele>
        <time>2024-08-06T06:34:41Z</time>
      </trkpt>
      <trkpt lat="43.6497" lon="3.33803">
        <ele>160.7</ele>
        <time>2024-08-06T06:34:42Z</time>
      </trkpt>
      <trkpt lat="43.64972" lon="3.33799">
        <ele>160.7</ele>
        <time>2024-08-06T06:34:43Z</time>
      </trkpt>
      <trkpt lat="43.64974" lon="3.33795">
        <ele>160.7</ele>
        <time>2024-08-06T06:34:44Z</time>
      </trkpt>
      <trkpt lat="43.64976" lon="3.3379">
        <ele>160.6</ele>
        <time>2024-08-06T06:34:45Z</time>
      </trkpt>
      <trkpt lat="43.64978" lon="3.33784">
        <ele>160.5</ele>
        <time>2024-08-06T06:34:46Z</time>
      </trkpt>
      <trkpt lat="43.6498" lon="3.33778">
        <ele>160.3</ele>
        <time>2024-08-06T06:34:47Z</time>
      </trkpt>
      <trkpt lat="43.64983" lon="3.33772">
        <ele>160.1</ele>
        <time>2024-08-06T06:34:48Z</time>
      </trkpt>
      <trkpt lat="43.64986" lon="3.33767">
        <ele>159.9</ele>
        <time>2024-08-06T06:34:49Z</time>
      </trkpt>
      <trkpt lat="43.6499" lon="3.33762">
        <ele>159.7</ele>
        <time>2024-08-06T06:34:50Z</time>
      </trkpt>
      <trkpt lat="43.64994" lon="3.33756">
        <ele>159.4</ele>
        <time>2024-08-06T06:34:51Z</time>
      </trkpt>
      <trkpt lat="43.64998" lon="3.33751">
        <ele>159.1</ele>
        <time>2024-08-06T06:34:52Z</time>
      </trkpt>
      <trkpt lat="43.65003" lon="3.33746">
        <ele>159.1</ele>
        <time>2024-08-06T06:34:53Z</time>
      </trkpt>
      <trkpt lat="43.65007" lon="3.33741">
        <ele>159.1</ele>
        <time>2024-08-06T06:34:54Z</time>
      </trkpt>
      <trkpt lat="43.6501" lon="3.33736">
        <ele>159</ele>
        <time>2024-08-06T06:34:55Z</time>
      </trkpt>
      <trkpt lat="43.65012" lon="3.3373">
        <ele>158.8</ele>
        <time>2024-08-06T06:34:56Z</time>
      </trkpt>
      <trkpt lat="43.65013" lon="3.33724">
        <ele>158.6</ele>
        <time>2024-08-06T06:34:57Z</time>
      </trkpt>
      <trkpt lat="43.65011" lon="3.33718">
        <ele>158.1</ele>
        <time>2024-08-06T06:34:58Z</time>
      </trkpt>
      <trkpt lat="43.65011" lon="3.33712">
        <ele>157.7</ele>
        <time>2024-08-06T06:34:59Z</time>
      </trkpt>
      <trkpt lat="43.6501" lon="3.33705">
        <ele>157.1</ele>
        <time>2024-08-06T06:35:00Z</time>
      </trkpt>
      <trkpt lat="43.65012" lon="3.33699">
        <ele>156.8</ele>
        <time>2024-08-06T06:35:01Z</time>
      </trkpt>
      <trkpt lat="43.65014" lon="3.33693">
        <ele>156.4</ele>
        <time>2024-08-06T06:35:02Z</time>
      </trkpt>
      <trkpt lat="43.65017" lon="3.3369">
        <ele>156.4</ele>
        <time>2024-08-06T06:35:03Z</time>
      </trkpt>
      <trkpt lat="43.65021" lon="3.33687">
        <ele>156.3</ele>
        <time>2024-08-06T06:35:04Z</time>
      </trkpt>
      <trkpt lat="43.65024" lon="3.33684">
        <ele>156.2</ele>
        <time>2024-08-06T06:35:05Z</time>
      </trkpt>
      <trkpt lat="43.65025" lon="3.3368">
        <ele>155.9</ele>
        <time>2024-08-06T06:35:06Z</time>
      </trkpt>
      <trkpt lat="43.65026" lon="3.33676">
        <ele>155.7</ele>
        <time>2024-08-06T06:35:07Z</time>
      </trkpt>
      <trkpt lat="43.65025" lon="3.33673">
        <ele>155.4</ele>
        <time>2024-08-06T06:35:08Z</time>
      </trkpt>
      <trkpt lat="43.65025" lon="3.3367">
        <ele>155.2</ele>
        <time>2024-08-06T06:35:09Z</time>
      </trkpt>
      <trkpt lat="43.65024" lon="3.33666">
        <ele>155</ele>
        <time>2024-08-06T06:35:10Z</time>
      </trkpt>
      <trkpt lat="43.65024" lon="3.33661">
        <ele>154.8</ele>
        <time>2024-08-06T06:35:11Z</time>
      </trkpt>
      <trkpt lat="43.65025" lon="3.33655">
        <ele>154.5</ele>
        <time>2024-08-06T06:35:12Z</time>
      </trkpt>
      <trkpt lat="43.65025" lon="3.3365">
        <ele>154.3</ele>
        <time>2024-08-06T06:35:13Z</time>
      </trkpt>
      <trkpt lat="43.65026" lon="3.33644">
        <ele>154.1</ele>
        <time>2024-08-06T06:35:14Z</time>
      </trkpt>
      <trkpt lat="43.65026" lon="3.33637">
        <ele>153.8</ele>
        <time>2024-08-06T06:35:15Z</time>
      </trkpt>
      <trkpt lat="43.65028" lon="3.3363">
        <ele>153.4</ele>
        <time>2024-08-06T06:35:16Z</time>
      </trkpt>
      <trkpt lat="43.6503" lon="3.33623">
        <ele>152.8</ele>
        <time>2024-08-06T06:35:17Z</time>
      </trkpt>
      <trkpt lat="43.65031" lon="3.33616">
        <ele>152.2</ele>
        <time>2024-08-06T06:35:18Z</time>
      </trkpt>
      <trkpt lat="43.65032" lon="3.33609">
        <ele>151.8</ele>
        <time>2024-08-06T06:35:19Z</time>
      </trkpt>
      <trkpt lat="43.65034" lon="3.33601">
        <ele>151.4</ele>
        <time>2024-08-06T06:35:20Z</time>
      </trkpt>
      <trkpt lat="43.65035" lon="3.33593">
        <ele>151.1</ele>
        <time>2024-08-06T06:35:21Z</time>
      </trkpt>
      <trkpt lat="43.65036" lon="3.33584">
        <ele>150.7</ele>
        <time>2024-08-06T06:35:22Z</time>
      </trkpt>
      <trkpt lat="43.65037" lon="3.33575">
        <ele>150.3</ele>
        <time>2024-08-06T06:35:23Z</time>
      </trkpt>
      <trkpt lat="43.65038" lon="3.33566">
        <ele>149.8</ele>
        <time>2024-08-06T06:35:24Z</time>
      </trkpt>
      <trkpt lat="43.6504" lon="3.33557">
        <ele>149.2</ele>
        <time>2024-08-06T06:35:25Z</time>
      </trkpt>
      <trkpt lat="43.65043" lon="3.33548">
        <ele>148.6</ele>
        <time>2024-08-06T06:35:26Z</time>
      </trkpt>
      <trkpt lat="43.65046" lon="3.33539">
        <ele>148.1</ele>
        <time>2024-08-06T06:35:27Z</time>
      </trkpt>
      <trkpt lat="43.65049" lon="3.33531">
        <ele>147.6</ele>
        <time>2024-08-06T06:35:28Z</time>
      </trkpt>
      <trkpt lat="43.65053" lon="3.33524">
        <ele>147.2</ele>
        <time>2024-08-06T06:35:29Z</time>
      </trkpt>
      <trkpt lat="43.65055" lon="3.33517">
        <ele>147</ele>
        <time>2024-08-06T06:35:30Z</time>
      </trkpt>
      <trkpt lat="43.65055" lon="3.33511">
        <ele>147</ele>
        <time>2024-08-06T06:35:31Z</time>
      </trkpt>
      <trkpt lat="43.65054" lon="3.33505">
        <ele>147.1</ele>
        <time>2024-08-06T06:35:32Z</time>
      </trkpt>
      <trkpt lat="43.65053" lon="3.33499">
        <ele>147.1</ele>
        <time>2024-08-06T06:35:33Z</time>
      </trkpt>
      <trkpt lat="43.65052" lon="3.33493">
        <ele>147.1</ele>
        <time>2024-08-06T06:35:34Z</time>
      </trkpt>
      <trkpt lat="43.65051" lon="3.33487">
        <ele>147.1</ele>
        <time>2024-08-06T06:35:35Z</time>
      </trkpt>
      <trkpt lat="43.65051" lon="3.33482">
        <ele>147.1</ele>
        <time>2024-08-06T06:35:36Z</time>
      </trkpt>
      <trkpt lat="43.65051" lon="3.33476">
        <ele>147</ele>
        <time>2024-08-06T06:35:37Z</time>
      </trkpt>
      <trkpt lat="43.65052" lon="3.33469">
        <ele>146.8</ele>
        <time>2024-08-06T06:35:38Z</time>
      </trkpt>
      <trkpt lat="43.65054" lon="3.33462">
        <ele>146.3</ele>
        <time>2024-08-06T06:35:39Z</time>
      </trkpt>
      <trkpt lat="43.65056" lon="3.33455">
        <ele>145.7</ele>
        <time>2024-08-06T06:35:40Z</time>
      </trkpt>
      <trkpt lat="43.65058" lon="3.33448">
        <ele>145.2</ele>
        <time>2024-08-06T06:35:41Z</time>
      </trkpt>
      <trkpt lat="43.6506" lon="3.33441">
        <ele>144.9</ele>
        <time>2024-08-06T06:35:42Z</time>
      </trkpt>
      <trkpt lat="43.65062" lon="3.33434">
        <ele>144.6</ele>
        <time>2024-08-06T06:35:43Z</time>
      </trkpt>
      <trkpt lat="43.65065" lon="3.33426">
        <ele>144.3</ele>
        <time>2024-08-06T06:35:44Z</time>
      </trkpt>
      <trkpt lat="43.65066" lon="3.33418">
        <ele>144</ele>
        <time>2024-08-06T06:35:45Z</time>
      </trkpt>
      <trkpt lat="43.65067" lon="3.3341">
        <ele>143.9</ele>
        <time>2024-08-06T06:35:46Z</time>
      </trkpt>
      <trkpt lat="43.65067" lon="3.33401">
        <ele>143.8</ele>
        <time>2024-08-06T06:35:47Z</time>
      </trkpt>
      <trkpt lat="43.65066" lon="3.33393">
        <ele>143.7</ele>
        <time>2024-08-06T06:35:48Z</time>
      </trkpt>
      <trkpt lat="43.65064" lon="3.33387">
        <ele>143.7</ele>
        <time>2024-08-06T06:35:49Z</time>
      </trkpt>
      <trkpt lat="43.65063" lon="3.33382">
        <ele>143.7</ele>
        <time>2024-08-06T06:35:50Z</time>
      </trkpt>
      <trkpt lat="43.65062" lon="3.33377">
        <ele>143.8</ele>
        <time>2024-08-06T06:35:51Z</time>
      </trkpt>
      <trkpt lat="43.65061" lon="3.33372">
        <ele>143.8</ele>
        <time>2024-08-06T06:35:52Z</time>
      </trkpt>
      <trkpt lat="43.6506" lon="3.33369">
        <ele>143.8</ele>
        <time>2024-08-06T06:35:53Z</time>
      </trkpt>
      <trkpt lat="43.6506" lon="3.33367">
        <ele>143.8</ele>
        <time>2024-08-06T06:35:54Z</time>
      </trkpt>
      <trkpt lat="43.65058" lon="3.33363">
        <ele>143.9</ele>
        <time>2024-08-06T06:35:55Z</time>
      </trkpt>
      <trkpt lat="43.65055" lon="3.33361">
        <ele>144</ele>
        <time>2024-08-06T06:35:56Z</time>
      </trkpt>
      <trkpt lat="43.65051" lon="3.3336">
        <ele>144</ele>
        <time>2024-08-06T06:35:57Z</time>
      </trkpt>
      <trkpt lat="43.65047" lon="3.3336">
        <ele>144</ele>
        <time>2024-08-06T06:35:58Z</time>
      </trkpt>
      <trkpt lat="43.65043" lon="3.3336">
        <ele>144</ele>
        <time>2024-08-06T06:35:59Z</time>
      </trkpt>
      <trkpt lat="43.6504" lon="3.33361">
        <ele>144</ele>
        <time>2024-08-06T06:36:00Z</time>
      </trkpt>
      <trkpt lat="43.65036" lon="3.33361">
        <ele>144</ele>
        <time>2024-08-06T06:36:01Z</time>
      </trkpt>
      <trkpt lat="43.65032" lon="3.33361">
        <ele>144</ele>
        <time>2024-08-06T06:36:02Z</time>
      </trkpt>
      <trkpt lat="43.65028" lon="3.33361">
        <ele>144</ele>
        <time>2024-08-06T06:36:03Z</time>
      </trkpt>
      <trkpt lat="43.65023" lon="3.3336">
        <ele>143.8</ele>
        <time>2024-08-06T06:36:04Z</time>
      </trkpt>
      <trkpt lat="43.65019" lon="3.3336">
        <ele>143.7</ele>
        <time>2024-08-06T06:36:05Z</time>
      </trkpt>
      <trkpt lat="43.65015" lon="3.3336">
        <ele>143.5</ele>
        <time>2024-08-06T06:36:06Z</time>
      </trkpt>
      <trkpt lat="43.65011" lon="3.33359">
        <ele>143.4</ele>
        <time>2024-08-06T06:36:07Z</time>
      </trkpt>
      <trkpt lat="43.65006" lon="3.33359">
        <ele>143.2</ele>
        <time>2024-08-06T06:36:08Z</time>
      </trkpt>
      <trkpt lat="43.65002" lon="3.33358">
        <ele>143</ele>
        <time>2024-08-06T06:36:09Z</time>
      </trkpt>
      <trkpt lat="43.64998" lon="3.33358">
        <ele>142.8</ele>
        <time>2024-08-06T06:36:10Z</time>
      </trkpt>
      <trkpt lat="43.64995" lon="3.33357">
        <ele>142.5</ele>
        <time>2024-08-06T06:36:11Z</time>
      </trkpt>
      <trkpt lat="43.64993" lon="3.33357">
        <ele>142.4</ele>
        <time>2024-08-06T06:36:12Z</time>
      </trkpt>
      <trkpt lat="43.6499" lon="3.33356">
        <ele>142.2</ele>
        <time>2024-08-06T06:36:13Z</time>
      </trkpt>
      <trkpt lat="43.64989" lon="3.33356">
        <ele>142.2</ele>
        <time>2024-08-06T06:36:14Z</time>
      </trkpt>
      <trkpt lat="43.64987" lon="3.33355">
        <ele>142</ele>
        <time>2024-08-06T06:36:15Z</time>
      </trkpt>
      <trkpt lat="43.64986" lon="3.33354">
        <ele>142</ele>
        <time>2024-08-06T06:36:16Z</time>
      </trkpt>
      <trkpt lat="43.64985" lon="3.33354">
        <ele>141.9</ele>
        <time>2024-08-06T06:36:17Z</time>
      </trkpt>
      <trkpt lat="43.64984" lon="3.33353">
        <ele>141.9</ele>
        <time>2024-08-06T06:36:18Z</time>
      </trkpt>
      <trkpt lat="43.64983" lon="3.33352">
        <ele>141.8</ele>
        <time>2024-08-06T06:36:19Z</time>
      </trkpt>
      <trkpt lat="43.64982" lon="3.33352">
        <ele>141.8</ele>
        <time>2024-08-06T06:36:20Z</time>
      </trkpt>
      <trkpt lat="43.64982" lon="3.33352">
        <ele>141.8</ele>
        <time>2024-08-06T06:36:21Z</time>
      </trkpt>
      <trkpt lat="43.64982" lon="3.33351">
        <ele>141.8</ele>
        <time>2024-08-06T06:36:22Z</time>
      </trkpt>
      <trkpt lat="43.64982" lon="3.33351">
        <ele>141.8</ele>
        <time>2024-08-06T06:36:23Z</time>
      </trkpt>
      <trkpt lat="43.64981" lon="3.3335">
        <ele>141.8</ele>
        <time>2024-08-06T06:36:24Z</time>
      </trkpt>
      <trkpt lat="43.64981" lon="3.33349">
        <ele>141.8</ele>
        <time>2024-08-06T06:36:25Z</time>
      </trkpt>
      <trkpt lat="43.6498" lon="3.33349">
        <ele>141.8</ele>
        <time>2024-08-06T06:36:26Z</time>
      </trkpt>
      <trkpt lat="43.64979" lon="3.33349">
        <ele>141.7</ele>
        <time>2024-08-06T06:36:27Z</time>
      </trkpt>
      <trkpt lat="43.64979" lon="3.33349">
        <ele>141.7</ele>
        <time>2024-08-06T06:36:28Z</time>
      </trkpt>
      <trkpt lat="43.64978" lon="3.3335">
        <ele>141.6</ele>
        <time>2024-08-06T06:36:29Z</time>
      </trkpt>
      <trkpt lat="43.64976" lon="3.33349">
        <ele>141.6</ele>
        <time>2024-08-06T06:36:30Z</time>
      </trkpt>
      <trkpt lat="43.64973" lon="3.33349">
        <ele>141.5</ele>
        <time>2024-08-06T06:36:31Z</time>
      </trkpt>
      <trkpt lat="43.64969" lon="3.33348">
        <ele>141.5</ele>
        <time>2024-08-06T06:36:32Z</time>
      </trkpt>
      <trkpt lat="43.64965" lon="3.33347">
        <ele>141.6</ele>
        <time>2024-08-06T06:36:33Z</time>
      </trkpt>
      <trkpt lat="43.64961" lon="3.33345">
        <ele>141.7</ele>
        <time>2024-08-06T06:36:34Z</time>
      </trkpt>
      <trkpt lat="43.64957" lon="3.33344">
        <ele>141.8</ele>
        <time>2024-08-06T06:36:35Z</time>
      </trkpt>
      <trkpt lat="43.64954" lon="3.33342">
        <ele>141.9</ele>
        <time>2024-08-06T06:36:36Z</time>
      </trkpt>
      <trkpt lat="43.64951" lon="3.3334">
        <ele>141.9</ele>
        <time>2024-08-06T06:36:37Z</time>
      </trkpt>
      <trkpt lat="43.64948" lon="3.33339">
        <ele>142</ele>
        <time>2024-08-06T06:36:38Z</time>
      </trkpt>
      <trkpt lat="43.64946" lon="3.33338">
        <ele>142</ele>
        <time>2024-08-06T06:36:39Z</time>
      </trkpt>
      <trkpt lat="43.64944" lon="3.33338">
        <ele>142</ele>
        <time>2024-08-06T06:36:40Z</time>
      </trkpt>
      <trkpt lat="43.64942" lon="3.33337">
        <ele>142</ele>
        <time>2024-08-06T06:36:41Z</time>
      </trkpt>
      <trkpt lat="43.64941" lon="3.33337">
        <ele>142</ele>
        <time>2024-08-06T06:36:42Z</time>
      </trkpt>
      <trkpt lat="43.6494" lon="3.33337">
        <ele>142</ele>
        <time>2024-08-06T06:36:43Z</time>
      </trkpt>
      <trkpt lat="43.6494" lon="3.33337">
        <ele>142</ele>
        <time>2024-08-06T06:36:44Z</time>
      </trkpt>
      <trkpt lat="43.64944" lon="3.33337">
        <ele>142</ele>
        <time>2024-08-06T06:37:52Z</time>
      </trkpt>
      <trkpt lat="43.64942" lon="3.33337">
        <ele>142</ele>
        <time>2024-08-06T06:37:53Z</time>
      </trkpt>
      <trkpt lat="43.6494" lon="3.33336">
        <ele>142</ele>
        <time>2024-08-06T06:37:54Z</time>
      </trkpt>
      <trkpt lat="43.64937" lon="3.33335">
        <ele>142</ele>
        <time>2024-08-06T06:37:55Z</time>
      </trkpt>
      <trkpt lat="43.64934" lon="3.33334">
        <ele>142</ele>
        <time>2024-08-06T06:37:56Z</time>
      </trkpt>
      <trkpt lat="43.64932" lon="3.33333">
        <ele>142</ele>
        <time>2024-08-06T06:37:57Z</time>
      </trkpt>
      <trkpt lat="43.6493" lon="3.33332">
        <ele>142</ele>
        <time>2024-08-06T06:37:58Z</time>
      </trkpt>
      <trkpt lat="43.64928" lon="3.3333">
        <ele>142</ele>
        <time>2024-08-06T06:37:59Z</time>
      </trkpt>
      <trkpt lat="43.64926" lon="3.33329">
        <ele>141.9</ele>
        <time>2024-08-06T06:38:00Z</time>
      </trkpt>
      <trkpt lat="43.64925" lon="3.33325">
        <ele>141.9</ele>
        <time>2024-08-06T06:38:01Z</time>
      </trkpt>
      <trkpt lat="43.64925" lon="3.3332">
        <ele>141.9</ele>
        <time>2024-08-06T06:38:02Z</time>
      </trkpt>
      <trkpt lat="43.64925" lon="3.33314">
        <ele>141.8</ele>
        <time>2024-08-06T06:38:03Z</time>
      </trkpt>
      <trkpt lat="43.64924" lon="3.33309">
        <ele>141.8</ele>
        <time>2024-08-06T06:38:04Z</time>
      </trkpt>
      <trkpt lat="43.64924" lon="3.33304">
        <ele>141.7</ele>
        <time>2024-08-06T06:38:05Z</time>
      </trkpt>
      <trkpt lat="43.64924" lon="3.333">
        <ele>141.6</ele>
        <time>2024-08-06T06:38:06Z</time>
      </trkpt>
      <trkpt lat="43.64924" lon="3.33297">
        <ele>141.5</ele>
        <time>2024-08-06T06:38:07Z</time>
      </trkpt>
      <trkpt lat="43.64924" lon="3.33294">
        <ele>141.4</ele>
        <time>2024-08-06T06:38:08Z</time>
      </trkpt>
      <trkpt lat="43.64924" lon="3.3329">
        <ele>141.3</ele>
        <time>2024-08-06T06:38:09Z</time>
      </trkpt>
      <trkpt lat="43.64924" lon="3.33287">
        <ele>141.2</ele>
        <time>2024-08-06T06:38:10Z</time>
      </trkpt>
      <trkpt lat="43.64924" lon="3.33284">
        <ele>141.2</ele>
        <time>2024-08-06T06:38:11Z</time>
      </trkpt>
      <trkpt lat="43.64924" lon="3.3328">
        <ele>141.1</ele>
        <time>2024-08-06T06:38:12Z</time>
      </trkpt>
      <trkpt lat="43.64923" lon="3.33278">
        <ele>141</ele>
        <time>2024-08-06T06:38:13Z</time>
      </trkpt>
      <trkpt lat="43.64923" lon="3.33275">
        <ele>141</ele>
        <time>2024-08-06T06:38:14Z</time>
      </trkpt>
      <trkpt lat="43.64922" lon="3.33272">
        <ele>141</ele>
        <time>2024-08-06T06:38:15Z</time>
      </trkpt>
      <trkpt lat="43.64921" lon="3.3327">
        <ele>141</ele>
        <time>2024-08-06T06:38:16Z</time>
      </trkpt>
      <trkpt lat="43.64921" lon="3.33267">
        <ele>141</ele>
        <time>2024-08-06T06:38:17Z</time>
      </trkpt>
      <trkpt lat="43.6492" lon="3.33265">
        <ele>141</ele>
        <time>2024-08-06T06:38:18Z</time>
      </trkpt>
      <trkpt lat="43.6492" lon="3.33265">
        <ele>141</ele>
        <time>2024-08-06T06:38:19Z</time>
      </trkpt>
      <trkpt lat="43.6492" lon="3.33264">
        <ele>141</ele>
        <time>2024-08-06T06:38:20Z</time>
      </trkpt>
      <trkpt lat="43.64916" lon="3.33263">
        <ele>141</ele>
        <time>2024-08-06T06:38:40Z</time>
      </trkpt>
      <trkpt lat="43.64913" lon="3.33262">
        <ele>141</ele>
        <time>2024-08-06T06:38:41Z</time>
      </trkpt>
      <trkpt lat="43.6491" lon="3.33261">
        <ele>141</ele>
        <time>2024-08-06T06:38:42Z</time>
      </trkpt>
      <trkpt lat="43.64907" lon="3.3326">
        <ele>141</ele>
        <time>2024-08-06T06:38:43Z</time>
      </trkpt>
      <trkpt lat="43.64904" lon="3.33258">
        <ele>141</ele>
        <time>2024-08-06T06:38:44Z</time>
      </trkpt>
      <trkpt lat="43.64901" lon="3.33257">
        <ele>141</ele>
        <time>2024-08-06T06:38:45Z</time>
      </trkpt>
      <trkpt lat="43.64898" lon="3.33256">
        <ele>141</ele>
        <time>2024-08-06T06:38:46Z</time>
      </trkpt>
      <trkpt lat="43.64894" lon="3.33253">
        <ele>141</ele>
        <time>2024-08-06T06:38:47Z</time>
      </trkpt>
      <trkpt lat="43.64891" lon="3.33249">
        <ele>141</ele>
        <time>2024-08-06T06:38:48Z</time>
      </trkpt>
      <trkpt lat="43.6489" lon="3.33245">
        <ele>140.8</ele>
        <time>2024-08-06T06:38:49Z</time>
      </trkpt>
      <trkpt lat="43.64889" lon="3.33242">
        <ele>140.7</ele>
        <time>2024-08-06T06:38:50Z</time>
      </trkpt>
      <trkpt lat="43.64887" lon="3.33239">
        <ele>140.6</ele>
        <time>2024-08-06T06:38:51Z</time>
      </trkpt>
      <trkpt lat="43.64885" lon="3.33235">
        <ele>140.5</ele>
        <time>2024-08-06T06:38:52Z</time>
      </trkpt>
      <trkpt lat="43.64883" lon="3.33232">
        <ele>140.5</ele>
        <time>2024-08-06T06:38:53Z</time>
      </trkpt>
      <trkpt lat="43.64882" lon="3.33227">
        <ele>140.4</ele>
        <time>2024-08-06T06:38:54Z</time>
      </trkpt>
      <trkpt lat="43.6488" lon="3.33223">
        <ele>140.3</ele>
        <time>2024-08-06T06:38:55Z</time>
      </trkpt>
      <trkpt lat="43.64879" lon="3.33219">
        <ele>140.4</ele>
        <time>2024-08-06T06:38:56Z</time>
      </trkpt>
      <trkpt lat="43.64877" lon="3.33214">
        <ele>140.4</ele>
        <time>2024-08-06T06:38:57Z</time>
      </trkpt>
      <trkpt lat="43.64874" lon="3.3321">
        <ele>140.5</ele>
        <time>2024-08-06T06:38:58Z</time>
      </trkpt>
      <trkpt lat="43.6487" lon="3.33206">
        <ele>140.7</ele>
        <time>2024-08-06T06:38:59Z</time>
      </trkpt>
      <trkpt lat="43.64867" lon="3.33202">
        <ele>140.8</ele>
        <time>2024-08-06T06:39:00Z</time>
      </trkpt>
      <trkpt lat="43.64864" lon="3.33198">
        <ele>140.9</ele>
        <time>2024-08-06T06:39:01Z</time>
      </trkpt>
      <trkpt lat="43.6486" lon="3.33195">
        <ele>141</ele>
        <time>2024-08-06T06:39:02Z</time>
      </trkpt>
      <trkpt lat="43.64857" lon="3.33191">
        <ele>141</ele>
        <time>2024-08-06T06:39:03Z</time>
      </trkpt>
      <trkpt lat="43.64855" lon="3.33188">
        <ele>141</ele>
        <time>2024-08-06T06:39:04Z</time>
      </trkpt>
      <trkpt lat="43.64852" lon="3.33185">
        <ele>141</ele>
        <time>2024-08-06T06:39:05Z</time>
      </trkpt>
      <trkpt lat="43.6485" lon="3.33181">
        <ele>140.9</ele>
        <time>2024-08-06T06:39:06Z</time>
      </trkpt>
      <trkpt lat="43.64847" lon="3.33176">
        <ele>140.8</ele>
        <time>2024-08-06T06:39:07Z</time>
      </trkpt>
      <trkpt lat="43.64844" lon="3.33171">
        <ele>140.8</ele>
        <time>2024-08-06T06:39:08Z</time>
      </trkpt>
      <trkpt lat="43.64842" lon="3.33167">
        <ele>140.7</ele>
        <time>2024-08-06T06:39:09Z</time>
      </trkpt>
      <trkpt lat="43.6484" lon="3.33163">
        <ele>140.7</ele>
        <time>2024-08-06T06:39:10Z</time>
      </trkpt>
      <trkpt lat="43.64838" lon="3.33159">
        <ele>140.6</ele>
        <time>2024-08-06T06:39:11Z</time>
      </trkpt>
      <trkpt lat="43.64835" lon="3.33154">
        <ele>140.5</ele>
        <time>2024-08-06T06:39:12Z</time>
      </trkpt>
      <trkpt lat="43.64832" lon="3.33149">
        <ele>140.4</ele>
        <time>2024-08-06T06:39:13Z</time>
      </trkpt>
      <trkpt lat="43.6483" lon="3.33143">
        <ele>140.3</ele>
        <time>2024-08-06T06:39:14Z</time>
      </trkpt>
      <trkpt lat="43.64827" lon="3.33137">
        <ele>140.2</ele>
        <time>2024-08-06T06:39:15Z</time>
      </trkpt>
      <trkpt lat="43.64825" lon="3.33131">
        <ele>140.2</ele>
        <time>2024-08-06T06:39:16Z</time>
      </trkpt>
      <trkpt lat="43.64821" lon="3.33127">
        <ele>140.3</ele>
        <time>2024-08-06T06:39:17Z</time>
      </trkpt>
      <trkpt lat="43.64818" lon="3.33124">
        <ele>140.3</ele>
        <time>2024-08-06T06:39:18Z</time>
      </trkpt>
      <trkpt lat="43.64815" lon="3.33121">
        <ele>140.2</ele>
        <time>2024-08-06T06:39:19Z</time>
      </trkpt>
      <trkpt lat="43.64812" lon="3.33118">
        <ele>140.2</ele>
        <time>2024-08-06T06:39:20Z</time>
      </trkpt>
      <trkpt lat="43.64809" lon="3.33114">
        <ele>140.1</ele>
        <time>2024-08-06T06:39:21Z</time>
      </trkpt>
      <trkpt lat="43.64805" lon="3.33111">
        <ele>140</ele>
        <time>2024-08-06T06:39:22Z</time>
      </trkpt>
      <trkpt lat="43.64801" lon="3.33108">
        <ele>140.3</ele>
        <time>2024-08-06T06:39:23Z</time>
      </trkpt>
      <trkpt lat="43.64799" lon="3.33103">
        <ele>140.4</ele>
        <time>2024-08-06T06:39:24Z</time>
      </trkpt>
      <trkpt lat="43.64796" lon="3.331">
        <ele>140.6</ele>
        <time>2024-08-06T06:39:25Z</time>
      </trkpt>
      <trkpt lat="43.64792" lon="3.33097">
        <ele>140.7</ele>
        <time>2024-08-06T06:39:26Z</time>
      </trkpt>
      <trkpt lat="43.6479" lon="3.33094">
        <ele>140.8</ele>
        <time>2024-08-06T06:39:27Z</time>
      </trkpt>
      <trkpt lat="43.64787" lon="3.33089">
        <ele>140.8</ele>
        <time>2024-08-06T06:39:28Z</time>
      </trkpt>
      <trkpt lat="43.64784" lon="3.33084">
        <ele>140.8</ele>
        <time>2024-08-06T06:39:29Z</time>
      </trkpt>
      <trkpt lat="43.64782" lon="3.33079">
        <ele>140.8</ele>
        <time>2024-08-06T06:39:30Z</time>
      </trkpt>
      <trkpt lat="43.64779" lon="3.33073">
        <ele>141</ele>
        <time>2024-08-06T06:39:31Z</time>
      </trkpt>
      <trkpt lat="43.64776" lon="3.33067">
        <ele>141.1</ele>
        <time>2024-08-06T06:39:32Z</time>
      </trkpt>
      <trkpt lat="43.64772" lon="3.33063">
        <ele>141.2</ele>
        <time>2024-08-06T06:39:33Z</time>
      </trkpt>
      <trkpt lat="43.64768" lon="3.33059">
        <ele>141.4</ele>
        <time>2024-08-06T06:39:34Z</time>
      </trkpt>
      <trkpt lat="43.64766" lon="3.33056">
        <ele>141.4</ele>
        <time>2024-08-06T06:39:35Z</time>
      </trkpt>
      <trkpt lat="43.64763" lon="3.33053">
        <ele>141.4</ele>
        <time>2024-08-06T06:39:36Z</time>
      </trkpt>
      <trkpt lat="43.64761" lon="3.3305">
        <ele>141.4</ele>
        <time>2024-08-06T06:39:37Z</time>
      </trkpt>
      <trkpt lat="43.64759" lon="3.33045">
        <ele>141.3</ele>
        <time>2024-08-06T06:39:38Z</time>
      </trkpt>
      <trkpt lat="43.64757" lon="3.33041">
        <ele>141.2</ele>
        <time>2024-08-06T06:39:39Z</time>
      </trkpt>
      <trkpt lat="43.64754" lon="3.33039">
        <ele>141.3</ele>
        <time>2024-08-06T06:39:40Z</time>
      </trkpt>
      <trkpt lat="43.64751" lon="3.33036">
        <ele>141.3</ele>
        <time>2024-08-06T06:39:41Z</time>
      </trkpt>
      <trkpt lat="43.64748" lon="3.33032">
        <ele>141.2</ele>
        <time>2024-08-06T06:39:42Z</time>
      </trkpt>
      <trkpt lat="43.64746" lon="3.33028">
        <ele>141.2</ele>
        <time>2024-08-06T06:39:43Z</time>
      </trkpt>
      <trkpt lat="43.64743" lon="3.33024">
        <ele>141.1</ele>
        <time>2024-08-06T06:39:44Z</time>
      </trkpt>
      <trkpt lat="43.6474" lon="3.33019">
        <ele>141</ele>
        <time>2024-08-06T06:39:45Z</time>
      </trkpt>
      <trkpt lat="43.64737" lon="3.33013">
        <ele>140.9</ele>
        <time>2024-08-06T06:39:46Z</time>
      </trkpt>
      <trkpt lat="43.64733" lon="3.33009">
        <ele>140.9</ele>
        <time>2024-08-06T06:39:47Z</time>
      </trkpt>
      <trkpt lat="43.6473" lon="3.33004">
        <ele>140.9</ele>
        <time>2024-08-06T06:39:48Z</time>
      </trkpt>
      <trkpt lat="43.64726" lon="3.33">
        <ele>140.9</ele>
        <time>2024-08-06T06:39:49Z</time>
      </trkpt>
      <trkpt lat="43.64722" lon="3.32997">
        <ele>140.9</ele>
        <time>2024-08-06T06:39:50Z</time>
      </trkpt>
      <trkpt lat="43.64717" lon="3.32994">
        <ele>140.7</ele>
        <time>2024-08-06T06:39:51Z</time>
      </trkpt>
      <trkpt lat="43.64713" lon="3.32992">
        <ele>140.6</ele>
        <time>2024-08-06T06:39:52Z</time>
      </trkpt>
      <trkpt lat="43.64708" lon="3.3299">
        <ele>140.5</ele>
        <time>2024-08-06T06:39:53Z</time>
      </trkpt>
      <trkpt lat="43.64703" lon="3.32989">
        <ele>140.3</ele>
        <time>2024-08-06T06:39:54Z</time>
      </trkpt>
      <trkpt lat="43.64699" lon="3.32989">
        <ele>140.3</ele>
        <time>2024-08-06T06:39:55Z</time>
      </trkpt>
      <trkpt lat="43.64694" lon="3.32989">
        <ele>140.2</ele>
        <time>2024-08-06T06:39:56Z</time>
      </trkpt>
      <trkpt lat="43.6469" lon="3.3299">
        <ele>140.2</ele>
        <time>2024-08-06T06:39:57Z</time>
      </trkpt>
      <trkpt lat="43.64685" lon="3.32992">
        <ele>140.2</ele>
        <time>2024-08-06T06:39:58Z</time>
      </trkpt>
      <trkpt lat="43.64681" lon="3.32995">
        <ele>140.2</ele>
        <time>2024-08-06T06:39:59Z</time>
      </trkpt>
      <trkpt lat="43.64677" lon="3.32998">
        <ele>140.3</ele>
        <time>2024-08-06T06:40:00Z</time>
      </trkpt>
      <trkpt lat="43.64674" lon="3.33">
        <ele>140.3</ele>
        <time>2024-08-06T06:40:01Z</time>
      </trkpt>
      <trkpt lat="43.6467" lon="3.33001">
        <ele>140.2</ele>
        <time>2024-08-06T06:40:02Z</time>
      </trkpt>
      <trkpt lat="43.64667" lon="3.33003">
        <ele>140.2</ele>
        <time>2024-08-06T06:40:03Z</time>
      </trkpt>
      <trkpt lat="43.64663" lon="3.33004">
        <ele>140.3</ele>
        <time>2024-08-06T06:40:04Z</time>
      </trkpt>
      <trkpt lat="43.64659" lon="3.33005">
        <ele>140.3</ele>
        <time>2024-08-06T06:40:05Z</time>
      </trkpt>
      <trkpt lat="43.64655" lon="3.33007">
        <ele>140.4</ele>
        <time>2024-08-06T06:40:06Z</time>
      </trkpt>
      <trkpt lat="43.64651" lon="3.33009">
        <ele>140.5</ele>
        <time>2024-08-06T06:40:07Z</time>
      </trkpt>
      <trkpt lat="43.64647" lon="3.3301">
        <ele>140.5</ele>
        <time>2024-08-06T06:40:08Z</time>
      </trkpt>
      <trkpt lat="43.64644" lon="3.33011">
        <ele>140.5</ele>
        <time>2024-08-06T06:40:09Z</time>
      </trkpt>
      <trkpt lat="43.6464" lon="3.33009">
        <ele>140.3</ele>
        <time>2024-08-06T06:40:10Z</time>
      </trkpt>
      <trkpt lat="43.64636" lon="3.33007">
        <ele>140.3</ele>
        <time>2024-08-06T06:40:11Z</time>
      </trkpt>
      <trkpt lat="43.64632" lon="3.33007">
        <ele>140.4</ele>
        <time>2024-08-06T06:40:12Z</time>
      </trkpt>
      <trkpt lat="43.64629" lon="3.33009">
        <ele>140.6</ele>
        <time>2024-08-06T06:40:13Z</time>
      </trkpt>
      <trkpt lat="43.64625" lon="3.33011">
        <ele>140.7</ele>
        <time>2024-08-06T06:40:14Z</time>
      </trkpt>
      <trkpt lat="43.64621" lon="3.33012">
        <ele>140.8</ele>
        <time>2024-08-06T06:40:15Z</time>
      </trkpt>
      <trkpt lat="43.64619" lon="3.33011">
        <ele>140.8</ele>
        <time>2024-08-06T06:40:16Z</time>
      </trkpt>
      <trkpt lat="43.64616" lon="3.33009">
        <ele>140.9</ele>
        <time>2024-08-06T06:40:17Z</time>
      </trkpt>
      <trkpt lat="43.64614" lon="3.33006">
        <ele>140.9</ele>
        <time>2024-08-06T06:40:18Z</time>
      </trkpt>
      <trkpt lat="43.6461" lon="3.33003">
        <ele>141</ele>
        <time>2024-08-06T06:40:19Z</time>
      </trkpt>
      <trkpt lat="43.64606" lon="3.33001">
        <ele>141.2</ele>
        <time>2024-08-06T06:40:20Z</time>
      </trkpt>
      <trkpt lat="43.64602" lon="3.32997">
        <ele>141.3</ele>
        <time>2024-08-06T06:40:21Z</time>
      </trkpt>
      <trkpt lat="43.64598" lon="3.32993">
        <ele>141.5</ele>
        <time>2024-08-06T06:40:22Z</time>
      </trkpt>
      <trkpt lat="43.64594" lon="3.3299">
        <ele>141.6</ele>
        <time>2024-08-06T06:40:23Z</time>
      </trkpt>
      <trkpt lat="43.64589" lon="3.32987">
        <ele>141.8</ele>
        <time>2024-08-06T06:40:24Z</time>
      </trkpt>
      <trkpt lat="43.64586" lon="3.32985">
        <ele>141.9</ele>
        <time>2024-08-06T06:40:25Z</time>
      </trkpt>
      <trkpt lat="43.64581" lon="3.32983">
        <ele>142.1</ele>
        <time>2024-08-06T06:40:26Z</time>
      </trkpt>
      <trkpt lat="43.64578" lon="3.32981">
        <ele>142.2</ele>
        <time>2024-08-06T06:40:27Z</time>
      </trkpt>
      <trkpt lat="43.64575" lon="3.32978">
        <ele>142.3</ele>
        <time>2024-08-06T06:40:28Z</time>
      </trkpt>
      <trkpt lat="43.64573" lon="3.32977">
        <ele>142.4</ele>
        <time>2024-08-06T06:40:29Z</time>
      </trkpt>
      <trkpt lat="43.64571" lon="3.32975">
        <ele>142.4</ele>
        <time>2024-08-06T06:40:30Z</time>
      </trkpt>
      <trkpt lat="43.64569" lon="3.32972">
        <ele>142.5</ele>
        <time>2024-08-06T06:40:31Z</time>
      </trkpt>
      <trkpt lat="43.64567" lon="3.32969">
        <ele>142.6</ele>
        <time>2024-08-06T06:40:32Z</time>
      </trkpt>
      <trkpt lat="43.64566" lon="3.32965">
        <ele>142.6</ele>
        <time>2024-08-06T06:40:33Z</time>
      </trkpt>
      <trkpt lat="43.64564" lon="3.32961">
        <ele>142.7</ele>
        <time>2024-08-06T06:40:34Z</time>
      </trkpt>
      <trkpt lat="43.64562" lon="3.32957">
        <ele>142.8</ele>
        <time>2024-08-06T06:40:35Z</time>
      </trkpt>
      <trkpt lat="43.6456" lon="3.32953">
        <ele>142.8</ele>
        <time>2024-08-06T06:40:36Z</time>
      </trkpt>
      <trkpt lat="43.64557" lon="3.3295">
        <ele>142.9</ele>
        <time>2024-08-06T06:40:37Z</time>
      </trkpt>
      <trkpt lat="43.64554" lon="3.32946">
        <ele>143.1</ele>
        <time>2024-08-06T06:40:38Z</time>
      </trkpt>
      <trkpt lat="43.64553" lon="3.32941">
        <ele>143</ele>
        <time>2024-08-06T06:40:39Z</time>
      </trkpt>
      <trkpt lat="43.64552" lon="3.32937">
        <ele>142.9</ele>
        <time>2024-08-06T06:40:40Z</time>
      </trkpt>
      <trkpt lat="43.6455" lon="3.32933">
        <ele>142.8</ele>
        <time>2024-08-06T06:40:41Z</time>
      </trkpt>
      <trkpt lat="43.64547" lon="3.32928">
        <ele>142.7</ele>
        <time>2024-08-06T06:40:42Z</time>
      </trkpt>
      <trkpt lat="43.64544" lon="3.32924">
        <ele>142.7</ele>
        <time>2024-08-06T06:40:43Z</time>
      </trkpt>
      <trkpt lat="43.64542" lon="3.32923">
        <ele>142.7</ele>
        <time>2024-08-06T06:40:44Z</time>
      </trkpt>
      <trkpt lat="43.64539" lon="3.32921">
        <ele>142.8</ele>
        <time>2024-08-06T06:40:45Z</time>
      </trkpt>
      <trkpt lat="43.64537" lon="3.32919">
        <ele>142.8</ele>
        <time>2024-08-06T06:40:46Z</time>
      </trkpt>
      <trkpt lat="43.64534" lon="3.32916">
        <ele>142.8</ele>
        <time>2024-08-06T06:40:47Z</time>
      </trkpt>
      <trkpt lat="43.64531" lon="3.32912">
        <ele>142.7</ele>
        <time>2024-08-06T06:40:48Z</time>
      </trkpt>
      <trkpt lat="43.64528" lon="3.32909">
        <ele>142.7</ele>
        <time>2024-08-06T06:40:49Z</time>
      </trkpt>
      <trkpt lat="43.64524" lon="3.32905">
        <ele>142.7</ele>
        <time>2024-08-06T06:40:50Z</time>
      </trkpt>
      <trkpt lat="43.64521" lon="3.32901">
        <ele>142.7</ele>
        <time>2024-08-06T06:40:51Z</time>
      </trkpt>
      <trkpt lat="43.64518" lon="3.32895">
        <ele>142.6</ele>
        <time>2024-08-06T06:40:52Z</time>
      </trkpt>
      <trkpt lat="43.64515" lon="3.3289">
        <ele>142.5</ele>
        <time>2024-08-06T06:40:53Z</time>
      </trkpt>
      <trkpt lat="43.64511" lon="3.32885">
        <ele>142.2</ele>
        <time>2024-08-06T06:40:54Z</time>
      </trkpt>
      <trkpt lat="43.64507" lon="3.3288">
        <ele>141.9</ele>
        <time>2024-08-06T06:40:55Z</time>
      </trkpt>
      <trkpt lat="43.64503" lon="3.32874">
        <ele>141.3</ele>
        <time>2024-08-06T06:40:56Z</time>
      </trkpt>
      <trkpt lat="43.64498" lon="3.32867">
        <ele>140.8</ele>
        <time>2024-08-06T06:40:57Z</time>
      </trkpt>
      <trkpt lat="43.64494" lon="3.32859">
        <ele>140.6</ele>
        <time>2024-08-06T06:40:58Z</time>
      </trkpt>
      <trkpt lat="43.6449" lon="3.32852">
        <ele>140.8</ele>
        <time>2024-08-06T06:40:59Z</time>
      </trkpt>
      <trkpt lat="43.64486" lon="3.32847">
        <ele>141</ele>
        <time>2024-08-06T06:41:00Z</time>
      </trkpt>
      <trkpt lat="43.64481" lon="3.32841">
        <ele>141.1</ele>
        <time>2024-08-06T06:41:01Z</time>
      </trkpt>
      <trkpt lat="43.64475" lon="3.32838">
        <ele>141.2</ele>
        <time>2024-08-06T06:41:02Z</time>
      </trkpt>
      <trkpt lat="43.6447" lon="3.32835">
        <ele>141.2</ele>
        <time>2024-08-06T06:41:03Z</time>
      </trkpt>
      <trkpt lat="43.64466" lon="3.32831">
        <ele>141.2</ele>
        <time>2024-08-06T06:41:04Z</time>
      </trkpt>
      <trkpt lat="43.64464" lon="3.32825">
        <ele>141.1</ele>
        <time>2024-08-06T06:41:05Z</time>
      </trkpt>
      <trkpt lat="43.64461" lon="3.32819">
        <ele>141.1</ele>
        <time>2024-08-06T06:41:06Z</time>
      </trkpt>
      <trkpt lat="43.6446" lon="3.32814">
        <ele>141.1</ele>
        <time>2024-08-06T06:41:07Z</time>
      </trkpt>
      <trkpt lat="43.64459" lon="3.32809">
        <ele>141</ele>
        <time>2024-08-06T06:41:08Z</time>
      </trkpt>
      <trkpt lat="43.64458" lon="3.32807">
        <ele>141</ele>
        <time>2024-08-06T06:41:09Z</time>
      </trkpt>
      <trkpt lat="43.64456" lon="3.32806">
        <ele>141.2</ele>
        <time>2024-08-06T06:41:10Z</time>
      </trkpt>
      <trkpt lat="43.64455" lon="3.32803">
        <ele>141.1</ele>
        <time>2024-08-06T06:41:11Z</time>
      </trkpt>
      <trkpt lat="43.64454" lon="3.32799">
        <ele>141.1</ele>
        <time>2024-08-06T06:41:12Z</time>
      </trkpt>
      <trkpt lat="43.64452" lon="3.32796">
        <ele>141.1</ele>
        <time>2024-08-06T06:41:13Z</time>
      </trkpt>
      <trkpt lat="43.64449" lon="3.32793">
        <ele>141.2</ele>
        <time>2024-08-06T06:41:14Z</time>
      </trkpt>
      <trkpt lat="43.64445" lon="3.32789">
        <ele>141.4</ele>
        <time>2024-08-06T06:41:15Z</time>
      </trkpt>
      <trkpt lat="43.64441" lon="3.32788">
        <ele>141.5</ele>
        <time>2024-08-06T06:41:16Z</time>
      </trkpt>
      <trkpt lat="43.64436" lon="3.32788">
        <ele>141.7</ele>
        <time>2024-08-06T06:41:17Z</time>
      </trkpt>
      <trkpt lat="43.64431" lon="3.32788">
        <ele>141.9</ele>
        <time>2024-08-06T06:41:18Z</time>
      </trkpt>
      <trkpt lat="43.64426" lon="3.3279">
        <ele>142.1</ele>
        <time>2024-08-06T06:41:19Z</time>
      </trkpt>
      <trkpt lat="43.64422" lon="3.32791">
        <ele>142.3</ele>
        <time>2024-08-06T06:41:20Z</time>
      </trkpt>
      <trkpt lat="43.64417" lon="3.32792">
        <ele>142.5</ele>
        <time>2024-08-06T06:41:21Z</time>
      </trkpt>
      <trkpt lat="43.64412" lon="3.32792">
        <ele>142.7</ele>
        <time>2024-08-06T06:41:22Z</time>
      </trkpt>
      <trkpt lat="43.64408" lon="3.3279">
        <ele>142.8</ele>
        <time>2024-08-06T06:41:23Z</time>
      </trkpt>
      <trkpt lat="43.64403" lon="3.32789">
        <ele>142.9</ele>
        <time>2024-08-06T06:41:24Z</time>
      </trkpt>
      <trkpt lat="43.64398" lon="3.32787">
        <ele>143</ele>
        <time>2024-08-06T06:41:25Z</time>
      </trkpt>
      <trkpt lat="43.64393" lon="3.32783">
        <ele>143</ele>
        <time>2024-08-06T06:41:26Z</time>
      </trkpt>
      <trkpt lat="43.64387" lon="3.32779">
        <ele>143.1</ele>
        <time>2024-08-06T06:41:27Z</time>
      </trkpt>
      <trkpt lat="43.64382" lon="3.32775">
        <ele>142.9</ele>
        <time>2024-08-06T06:41:28Z</time>
      </trkpt>
      <trkpt lat="43.64377" lon="3.32773">
        <ele>142.8</ele>
        <time>2024-08-06T06:41:29Z</time>
      </trkpt>
      <trkpt lat="43.64372" lon="3.32771">
        <ele>142.8</ele>
        <time>2024-08-06T06:41:30Z</time>
      </trkpt>
      <trkpt lat="43.64367" lon="3.3277">
        <ele>142.9</ele>
        <time>2024-08-06T06:41:31Z</time>
      </trkpt>
      <trkpt lat="43.64362" lon="3.32769">
        <ele>143</ele>
        <time>2024-08-06T06:41:32Z</time>
      </trkpt>
      <trkpt lat="43.64359" lon="3.32768">
        <ele>143</ele>
        <time>2024-08-06T06:41:33Z</time>
      </trkpt>
      <trkpt lat="43.64356" lon="3.32766">
        <ele>142.8</ele>
        <time>2024-08-06T06:41:34Z</time>
      </trkpt>
      <trkpt lat="43.64353" lon="3.32764">
        <ele>142.7</ele>
        <time>2024-08-06T06:41:35Z</time>
      </trkpt>
      <trkpt lat="43.6435" lon="3.32763">
        <ele>142.6</ele>
        <time>2024-08-06T06:41:36Z</time>
      </trkpt>
      <trkpt lat="43.64347" lon="3.32762">
        <ele>142.6</ele>
        <time>2024-08-06T06:41:37Z</time>
      </trkpt>
      <trkpt lat="43.64344" lon="3.32761">
        <ele>142.6</ele>
        <time>2024-08-06T06:41:38Z</time>
      </trkpt>
      <trkpt lat="43.64341" lon="3.32761">
        <ele>142.6</ele>
        <time>2024-08-06T06:41:39Z</time>
      </trkpt>
      <trkpt lat="43.64338" lon="3.32761">
        <ele>142.7</ele>
        <time>2024-08-06T06:41:40Z</time>
      </trkpt>
      <trkpt lat="43.64335" lon="3.32762">
        <ele>142.8</ele>
        <time>2024-08-06T06:41:41Z</time>
      </trkpt>
      <trkpt lat="43.64332" lon="3.32763">
        <ele>142.9</ele>
        <time>2024-08-06T06:41:42Z</time>
      </trkpt>
      <trkpt lat="43.6433" lon="3.32766">
        <ele>143.1</ele>
        <time>2024-08-06T06:41:43Z</time>
      </trkpt>
      <trkpt lat="43.64328" lon="3.32771">
        <ele>143.5</ele>
        <time>2024-08-06T06:41:44Z</time>
      </trkpt>
      <trkpt lat="43.64324" lon="3.32774">
        <ele>143.7</ele>
        <time>2024-08-06T06:41:45Z</time>
      </trkpt>
      <trkpt lat="43.6432" lon="3.32777">
        <ele>143.9</ele>
        <time>2024-08-06T06:41:46Z</time>
      </trkpt>
      <trkpt lat="43.64315" lon="3.32779">
        <ele>144.1</ele>
        <time>2024-08-06T06:41:47Z</time>
      </trkpt>
      <trkpt lat="43.64312" lon="3.32778">
        <ele>144</ele>
        <time>2024-08-06T06:41:48Z</time>
      </trkpt>
      <trkpt lat="43.64309" lon="3.32777">
        <ele>143.9</ele>
        <time>2024-08-06T06:41:49Z</time>
      </trkpt>
      <trkpt lat="43.64307" lon="3.32775">
        <ele>143.7</ele>
        <time>2024-08-06T06:41:50Z</time>
      </trkpt>
      <trkpt lat="43.64305" lon="3.32773">
        <ele>143.5</ele>
        <time>2024-08-06T06:41:51Z</time>
      </trkpt>
      <trkpt lat="43.64303" lon="3.32772">
        <ele>143.4</ele>
        <time>2024-08-06T06:41:52Z</time>
      </trkpt>
      <trkpt lat="43.643" lon="3.3277">
        <ele>143.2</ele>
        <time>2024-08-06T06:41:53Z</time>
      </trkpt>
      <trkpt lat="43.64297" lon="3.32768">
        <ele>142.9</ele>
        <time>2024-08-06T06:41:54Z</time>
      </trkpt>
      <trkpt lat="43.64294" lon="3.32765">
        <ele>142.6</ele>
        <time>2024-08-06T06:41:55Z</time>
      </trkpt>
      <trkpt lat="43.64291" lon="3.32762">
        <ele>142.3</ele>
        <time>2024-08-06T06:41:56Z</time>
      </trkpt>
      <trkpt lat="43.64289" lon="3.32758">
        <ele>141.9</ele>
        <time>2024-08-06T06:41:57Z</time>
      </trkpt>
      <trkpt lat="43.64286" lon="3.32755">
        <ele>141.5</ele>
        <time>2024-08-06T06:41:58Z</time>
      </trkpt>
      <trkpt lat="43.64283" lon="3.32753">
        <ele>141.3</ele>
        <time>2024-08-06T06:41:59Z</time>
      </trkpt>
      <trkpt lat="43.64281" lon="3.3275">
        <ele>141</ele>
        <time>2024-08-06T06:42:00Z</time>
      </trkpt>
      <trkpt lat="43.64278" lon="3.32746">
        <ele>140.7</ele>
        <time>2024-08-06T06:42:01Z</time>
      </trkpt>
      <trkpt lat="43.64275" lon="3.32743">
        <ele>140.8</ele>
        <time>2024-08-06T06:42:02Z</time>
      </trkpt>
      <trkpt lat="43.64271" lon="3.32741">
        <ele>141</ele>
        <time>2024-08-06T06:42:03Z</time>
      </trkpt>
      <trkpt lat="43.64266" lon="3.32741">
        <ele>141.5</ele>
        <time>2024-08-06T06:42:04Z</time>
      </trkpt>
      <trkpt lat="43.64261" lon="3.32739">
        <ele>141.8</ele>
        <time>2024-08-06T06:42:05Z</time>
      </trkpt>
      <trkpt lat="43.64256" lon="3.32737">
        <ele>142</ele>
        <time>2024-08-06T06:42:06Z</time>
      </trkpt>
      <trkpt lat="43.64251" lon="3.32735">
        <ele>142.3</ele>
        <time>2024-08-06T06:42:07Z</time>
      </trkpt>
      <trkpt lat="43.64247" lon="3.32734">
        <ele>142.4</ele>
        <time>2024-08-06T06:42:08Z</time>
      </trkpt>
      <trkpt lat="43.64242" lon="3.32733">
        <ele>142.6</ele>
        <time>2024-08-06T06:42:09Z</time>
      </trkpt>
      <trkpt lat="43.64238" lon="3.32731">
        <ele>142.7</ele>
        <time>2024-08-06T06:42:10Z</time>
      </trkpt>
      <trkpt lat="43.64234" lon="3.3273">
        <ele>142.8</ele>
        <time>2024-08-06T06:42:11Z</time>
      </trkpt>
      <trkpt lat="43.6423" lon="3.32731">
        <ele>143.2</ele>
        <time>2024-08-06T06:42:12Z</time>
      </trkpt>
      <trkpt lat="43.64226" lon="3.32732">
        <ele>143.5</ele>
        <time>2024-08-06T06:42:13Z</time>
      </trkpt>
      <trkpt lat="43.64223" lon="3.32731">
        <ele>143.6</ele>
        <time>2024-08-06T06:42:14Z</time>
      </trkpt>
      <trkpt lat="43.6422" lon="3.32727">
        <ele>143.4</ele>
        <time>2024-08-06T06:42:15Z</time>
      </trkpt>
      <trkpt lat="43.64216" lon="3.32725">
        <ele>143.2</ele>
        <time>2024-08-06T06:42:16Z</time>
      </trkpt>
      <trkpt lat="43.64212" lon="3.32723">
        <ele>143.1</ele>
        <time>2024-08-06T06:42:17Z</time>
      </trkpt>
      <trkpt lat="43.64209" lon="3.32718">
        <ele>142.5</ele>
        <time>2024-08-06T06:42:18Z</time>
      </trkpt>
      <trkpt lat="43.64206" lon="3.32712">
        <ele>142</ele>
        <time>2024-08-06T06:42:19Z</time>
      </trkpt>
      <trkpt lat="43.64203" lon="3.32707">
        <ele>141.6</ele>
        <time>2024-08-06T06:42:20Z</time>
      </trkpt>
      <trkpt lat="43.64199" lon="3.32703">
        <ele>141.4</ele>
        <time>2024-08-06T06:42:21Z</time>
      </trkpt>
      <trkpt lat="43.64196" lon="3.327">
        <ele>141.3</ele>
        <time>2024-08-06T06:42:22Z</time>
      </trkpt>
      <trkpt lat="43.64194" lon="3.32698">
        <ele>141.3</ele>
        <time>2024-08-06T06:42:23Z</time>
      </trkpt>
      <trkpt lat="43.64193" lon="3.32696">
        <ele>141.1</ele>
        <time>2024-08-06T06:42:24Z</time>
      </trkpt>
      <trkpt lat="43.64192" lon="3.32694">
        <ele>141</ele>
        <time>2024-08-06T06:42:25Z</time>
      </trkpt>
      <trkpt lat="43.64192" lon="3.32691">
        <ele>140.8</ele>
        <time>2024-08-06T06:42:26Z</time>
      </trkpt>
      <trkpt lat="43.64192" lon="3.32688">
        <ele>140.6</ele>
        <time>2024-08-06T06:42:27Z</time>
      </trkpt>
      <trkpt lat="43.64193" lon="3.32686">
        <ele>140.4</ele>
        <time>2024-08-06T06:42:28Z</time>
      </trkpt>
      <trkpt lat="43.64193" lon="3.32684">
        <ele>140.3</ele>
        <time>2024-08-06T06:42:29Z</time>
      </trkpt>
      <trkpt lat="43.64194" lon="3.32682">
        <ele>140.1</ele>
        <time>2024-08-06T06:42:30Z</time>
      </trkpt>
      <trkpt lat="43.64194" lon="3.32681">
        <ele>140</ele>
        <time>2024-08-06T06:42:31Z</time>
      </trkpt>
      <trkpt lat="43.64195" lon="3.32679">
        <ele>139.9</ele>
        <time>2024-08-06T06:42:32Z</time>
      </trkpt>
      <trkpt lat="43.64195" lon="3.32677">
        <ele>139.7</ele>
        <time>2024-08-06T06:42:33Z</time>
      </trkpt>
      <trkpt lat="43.64194" lon="3.32676">
        <ele>139.7</ele>
        <time>2024-08-06T06:42:34Z</time>
      </trkpt>
      <trkpt lat="43.64194" lon="3.32674">
        <ele>139.5</ele>
        <time>2024-08-06T06:42:35Z</time>
      </trkpt>
      <trkpt lat="43.64193" lon="3.32671">
        <ele>139.4</ele>
        <time>2024-08-06T06:42:36Z</time>
      </trkpt>
      <trkpt lat="43.64193" lon="3.32668">
        <ele>139.1</ele>
        <time>2024-08-06T06:42:37Z</time>
      </trkpt>
      <trkpt lat="43.64192" lon="3.32666">
        <ele>139.1</ele>
        <time>2024-08-06T06:42:38Z</time>
      </trkpt>
      <trkpt lat="43.64191" lon="3.32664">
        <ele>139.1</ele>
        <time>2024-08-06T06:42:39Z</time>
      </trkpt>
      <trkpt lat="43.64191" lon="3.32662">
        <ele>139.1</ele>
        <time>2024-08-06T06:42:40Z</time>
      </trkpt>
      <trkpt lat="43.6419" lon="3.3266">
        <ele>139.2</ele>
        <time>2024-08-06T06:42:41Z</time>
      </trkpt>
      <trkpt lat="43.6419" lon="3.32658">
        <ele>139.2</ele>
        <time>2024-08-06T06:42:42Z</time>
      </trkpt>
      <trkpt lat="43.64191" lon="3.32656">
        <ele>139.1</ele>
        <time>2024-08-06T06:42:43Z</time>
      </trkpt>
      <trkpt lat="43.64191" lon="3.32653">
        <ele>139.1</ele>
        <time>2024-08-06T06:42:44Z</time>
      </trkpt>
      <trkpt lat="43.64191" lon="3.3265">
        <ele>139.1</ele>
        <time>2024-08-06T06:42:45Z</time>
      </trkpt>
      <trkpt lat="43.64192" lon="3.32646">
        <ele>139.1</ele>
        <time>2024-08-06T06:42:46Z</time>
      </trkpt>
      <trkpt lat="43.64192" lon="3.32642">
        <ele>139.1</ele>
        <time>2024-08-06T06:42:47Z</time>
      </trkpt>
      <trkpt lat="43.64193" lon="3.32637">
        <ele>139.1</ele>
        <time>2024-08-06T06:42:48Z</time>
      </trkpt>
      <trkpt lat="43.64194" lon="3.32631">
        <ele>139.3</ele>
        <time>2024-08-06T06:42:49Z</time>
      </trkpt>
      <trkpt lat="43.64194" lon="3.32625">
        <ele>139.5</ele>
        <time>2024-08-06T06:42:50Z</time>
      </trkpt>
      <trkpt lat="43.64194" lon="3.32619">
        <ele>139.7</ele>
        <time>2024-08-06T06:42:51Z</time>
      </trkpt>
      <trkpt lat="43.64195" lon="3.32614">
        <ele>139.9</ele>
        <time>2024-08-06T06:42:52Z</time>
      </trkpt>
      <trkpt lat="43.64196" lon="3.32609">
        <ele>140.1</ele>
        <time>2024-08-06T06:42:53Z</time>
      </trkpt>
      <trkpt lat="43.64197" lon="3.32604">
        <ele>140.3</ele>
        <time>2024-08-06T06:42:54Z</time>
      </trkpt>
      <trkpt lat="43.64198" lon="3.32599">
        <ele>140.5</ele>
        <time>2024-08-06T06:42:55Z</time>
      </trkpt>
      <trkpt lat="43.642" lon="3.32594">
        <ele>140.7</ele>
        <time>2024-08-06T06:42:56Z</time>
      </trkpt>
      <trkpt lat="43.64201" lon="3.32589">
        <ele>140.8</ele>
        <time>2024-08-06T06:42:57Z</time>
      </trkpt>
      <trkpt lat="43.64202" lon="3.32585">
        <ele>141</ele>
        <time>2024-08-06T06:42:58Z</time>
      </trkpt>
      <trkpt lat="43.64204" lon="3.3258">
        <ele>141</ele>
        <time>2024-08-06T06:42:59Z</time>
      </trkpt>
      <trkpt lat="43.64205" lon="3.32575">
        <ele>141</ele>
        <time>2024-08-06T06:43:00Z</time>
      </trkpt>
      <trkpt lat="43.64206" lon="3.3257">
        <ele>141</ele>
        <time>2024-08-06T06:43:01Z</time>
      </trkpt>
      <trkpt lat="43.64207" lon="3.32566">
        <ele>141</ele>
        <time>2024-08-06T06:43:02Z</time>
      </trkpt>
      <trkpt lat="43.64208" lon="3.32561">
        <ele>141</ele>
        <time>2024-08-06T06:43:03Z</time>
      </trkpt>
      <trkpt lat="43.64209" lon="3.32557">
        <ele>141</ele>
        <time>2024-08-06T06:43:04Z</time>
      </trkpt>
      <trkpt lat="43.64211" lon="3.32553">
        <ele>141</ele>
        <time>2024-08-06T06:43:05Z</time>
      </trkpt>
      <trkpt lat="43.64212" lon="3.32548">
        <ele>141</ele>
        <time>2024-08-06T06:43:06Z</time>
      </trkpt>
      <trkpt lat="43.64213" lon="3.32544">
        <ele>141</ele>
        <time>2024-08-06T06:43:07Z</time>
      </trkpt>
      <trkpt lat="43.64214" lon="3.32539">
        <ele>141</ele>
        <time>2024-08-06T06:43:08Z</time>
      </trkpt>
      <trkpt lat="43.64215" lon="3.32534">
        <ele>141</ele>
        <time>2024-08-06T06:43:09Z</time>
      </trkpt>
      <trkpt lat="43.64216" lon="3.32529">
        <ele>141</ele>
        <time>2024-08-06T06:43:10Z</time>
      </trkpt>
      <trkpt lat="43.64218" lon="3.32524">
        <ele>141</ele>
        <time>2024-08-06T06:43:11Z</time>
      </trkpt>
      <trkpt lat="43.64219" lon="3.32519">
        <ele>141</ele>
        <time>2024-08-06T06:43:12Z</time>
      </trkpt>
      <trkpt lat="43.6422" lon="3.32514">
        <ele>141</ele>
        <time>2024-08-06T06:43:13Z</time>
      </trkpt>
      <trkpt lat="43.64221" lon="3.3251">
        <ele>141</ele>
        <time>2024-08-06T06:43:14Z</time>
      </trkpt>
      <trkpt lat="43.64223" lon="3.32505">
        <ele>141</ele>
        <time>2024-08-06T06:43:15Z</time>
      </trkpt>
      <trkpt lat="43.64223" lon="3.32501">
        <ele>141</ele>
        <time>2024-08-06T06:43:16Z</time>
      </trkpt>
      <trkpt lat="43.64224" lon="3.32498">
        <ele>141</ele>
        <time>2024-08-06T06:43:17Z</time>
      </trkpt>
      <trkpt lat="43.64226" lon="3.32496">
        <ele>141</ele>
        <time>2024-08-06T06:43:18Z</time>
      </trkpt>
      <trkpt lat="43.64228" lon="3.32495">
        <ele>141</ele>
        <time>2024-08-06T06:43:19Z</time>
      </trkpt>
      <trkpt lat="43.6423" lon="3.32496">
        <ele>141</ele>
        <time>2024-08-06T06:43:20Z</time>
      </trkpt>
      <trkpt lat="43.64232" lon="3.32497">
        <ele>141</ele>
        <time>2024-08-06T06:43:21Z</time>
      </trkpt>
      <trkpt lat="43.64235" lon="3.32499">
        <ele>141</ele>
        <time>2024-08-06T06:43:22Z</time>
      </trkpt>
      <trkpt lat="43.64238" lon="3.325">
        <ele>141</ele>
        <time>2024-08-06T06:43:23Z</time>
      </trkpt>
      <trkpt lat="43.64242" lon="3.32502">
        <ele>141</ele>
        <time>2024-08-06T06:43:24Z</time>
      </trkpt>
      <trkpt lat="43.64245" lon="3.32503">
        <ele>141</ele>
        <time>2024-08-06T06:43:25Z</time>
      </trkpt>
      <trkpt lat="43.64248" lon="3.32504">
        <ele>141</ele>
        <time>2024-08-06T06:43:26Z</time>
      </trkpt>
      <trkpt lat="43.64252" lon="3.32506">
        <ele>141</ele>
        <time>2024-08-06T06:43:27Z</time>
      </trkpt>
      <trkpt lat="43.64255" lon="3.32507">
        <ele>141</ele>
        <time>2024-08-06T06:43:28Z</time>
      </trkpt>
      <trkpt lat="43.64258" lon="3.32509">
        <ele>141</ele>
        <time>2024-08-06T06:43:29Z</time>
      </trkpt>
      <trkpt lat="43.64261" lon="3.3251">
        <ele>141</ele>
        <time>2024-08-06T06:43:30Z</time>
      </trkpt>
      <trkpt lat="43.64264" lon="3.32512">
        <ele>141</ele>
        <time>2024-08-06T06:43:31Z</time>
      </trkpt>
      <trkpt lat="43.64267" lon="3.32514">
        <ele>141</ele>
        <time>2024-08-06T06:43:32Z</time>
      </trkpt>
      <trkpt lat="43.64271" lon="3.32516">
        <ele>141</ele>
        <time>2024-08-06T06:43:33Z</time>
      </trkpt>
      <trkpt lat="43.64275" lon="3.32518">
        <ele>141</ele>
        <time>2024-08-06T06:43:34Z</time>
      </trkpt>
      <trkpt lat="43.64279" lon="3.3252">
        <ele>141</ele>
        <time>2024-08-06T06:43:35Z</time>
      </trkpt>
      <trkpt lat="43.64283" lon="3.32521">
        <ele>141</ele>
        <time>2024-08-06T06:43:36Z</time>
      </trkpt>
      <trkpt lat="43.64287" lon="3.32523">
        <ele>141</ele>
        <time>2024-08-06T06:43:37Z</time>
      </trkpt>
      <trkpt lat="43.6429" lon="3.32525">
        <ele>141</ele>
        <time>2024-08-06T06:43:38Z</time>
      </trkpt>
      <trkpt lat="43.64294" lon="3.32527">
        <ele>141</ele>
        <time>2024-08-06T06:43:39Z</time>
      </trkpt>
      <trkpt lat="43.64298" lon="3.32529">
        <ele>141</ele>
        <time>2024-08-06T06:43:40Z</time>
      </trkpt>
      <trkpt lat="43.64301" lon="3.3253">
        <ele>140.9</ele>
        <time>2024-08-06T06:43:41Z</time>
      </trkpt>
      <trkpt lat="43.64305" lon="3.32532">
        <ele>140.9</ele>
        <time>2024-08-06T06:43:42Z</time>
      </trkpt>
      <trkpt lat="43.64309" lon="3.32533">
        <ele>140.8</ele>
        <time>2024-08-06T06:43:43Z</time>
      </trkpt>
      <trkpt lat="43.64312" lon="3.32535">
        <ele>140.7</ele>
        <time>2024-08-06T06:43:44Z</time>
      </trkpt>
      <trkpt lat="43.64316" lon="3.32536">
        <ele>140.7</ele>
        <time>2024-08-06T06:43:45Z</time>
      </trkpt>
      <trkpt lat="43.6432" lon="3.32538">
        <ele>140.6</ele>
        <time>2024-08-06T06:43:46Z</time>
      </trkpt>
      <trkpt lat="43.64323" lon="3.32538">
        <ele>140.6</ele>
        <time>2024-08-06T06:43:47Z</time>
      </trkpt>
      <trkpt lat="43.64327" lon="3.32539">
        <ele>140.6</ele>
        <time>2024-08-06T06:43:48Z</time>
      </trkpt>
      <trkpt lat="43.64331" lon="3.32539">
        <ele>140.6</ele>
        <time>2024-08-06T06:43:49Z</time>
      </trkpt>
      <trkpt lat="43.64335" lon="3.32539">
        <ele>140.6</ele>
        <time>2024-08-06T06:43:50Z</time>
      </trkpt>
      <trkpt lat="43.64338" lon="3.3254">
        <ele>140.5</ele>
        <time>2024-08-06T06:43:51Z</time>
      </trkpt>
      <trkpt lat="43.64342" lon="3.32539">
        <ele>140.4</ele>
        <time>2024-08-06T06:43:52Z</time>
      </trkpt>
      <trkpt lat="43.64346" lon="3.32539">
        <ele>140.3</ele>
        <time>2024-08-06T06:43:53Z</time>
      </trkpt>
      <trkpt lat="43.6435" lon="3.32539">
        <ele>140.2</ele>
        <time>2024-08-06T06:43:54Z</time>
      </trkpt>
      <trkpt lat="43.64355" lon="3.32539">
        <ele>140.1</ele>
        <time>2024-08-06T06:43:55Z</time>
      </trkpt>
      <trkpt lat="43.64359" lon="3.32539">
        <ele>140</ele>
        <time>2024-08-06T06:43:56Z</time>
      </trkpt>
      <trkpt lat="43.64363" lon="3.32539">
        <ele>140</ele>
        <time>2024-08-06T06:43:57Z</time>
      </trkpt>
      <trkpt lat="43.64367" lon="3.32538">
        <ele>140.1</ele>
        <time>2024-08-06T06:43:58Z</time>
      </trkpt>
      <trkpt lat="43.64372" lon="3.32538">
        <ele>140.1</ele>
        <time>2024-08-06T06:43:59Z</time>
      </trkpt>
      <trkpt lat="43.64376" lon="3.32537">
        <ele>140.2</ele>
        <time>2024-08-06T06:44:00Z</time>
      </trkpt>
      <trkpt lat="43.64381" lon="3.32537">
        <ele>140.2</ele>
        <time>2024-08-06T06:44:01Z</time>
      </trkpt>
      <trkpt lat="43.64385" lon="3.32535">
        <ele>140.2</ele>
        <time>2024-08-06T06:44:02Z</time>
      </trkpt>
      <trkpt lat="43.64389" lon="3.32534">
        <ele>140.2</ele>
        <time>2024-08-06T06:44:03Z</time>
      </trkpt>
      <trkpt lat="43.64393" lon="3.32533">
        <ele>140.3</ele>
        <time>2024-08-06T06:44:04Z</time>
      </trkpt>
      <trkpt lat="43.64397" lon="3.32533">
        <ele>140.4</ele>
        <time>2024-08-06T06:44:05Z</time>
      </trkpt>
      <trkpt lat="43.64402" lon="3.32532">
        <ele>140.5</ele>
        <time>2024-08-06T06:44:06Z</time>
      </trkpt>
      <trkpt lat="43.64406" lon="3.32531">
        <ele>140.6</ele>
        <time>2024-08-06T06:44:07Z</time>
      </trkpt>
      <trkpt lat="43.6441" lon="3.3253">
        <ele>140.7</ele>
        <time>2024-08-06T06:44:08Z</time>
      </trkpt>
      <trkpt lat="43.64413" lon="3.3253">
        <ele>140.8</ele>
        <time>2024-08-06T06:44:09Z</time>
      </trkpt>
      <trkpt lat="43.64417" lon="3.32529">
        <ele>140.9</ele>
        <time>2024-08-06T06:44:10Z</time>
      </trkpt>
      <trkpt lat="43.64422" lon="3.32528">
        <ele>140.8</ele>
        <time>2024-08-06T06:44:11Z</time>
      </trkpt>
      <trkpt lat="43.64426" lon="3.32527">
        <ele>140.7</ele>
        <time>2024-08-06T06:44:12Z</time>
      </trkpt>
      <trkpt lat="43.64431" lon="3.32526">
        <ele>140.6</ele>
        <time>2024-08-06T06:44:13Z</time>
      </trkpt>
      <trkpt lat="43.64436" lon="3.32524">
        <ele>140.5</ele>
        <time>2024-08-06T06:44:14Z</time>
      </trkpt>
      <trkpt lat="43.6444" lon="3.32523">
        <ele>140.4</ele>
        <time>2024-08-06T06:44:15Z</time>
      </trkpt>
      <trkpt lat="43.64444" lon="3.32522">
        <ele>140.4</ele>
        <time>2024-08-06T06:44:16Z</time>
      </trkpt>
      <trkpt lat="43.64448" lon="3.3252">
        <ele>140.5</ele>
        <time>2024-08-06T06:44:17Z</time>
      </trkpt>
      <trkpt lat="43.64452" lon="3.32518">
        <ele>140.6</ele>
        <time>2024-08-06T06:44:18Z</time>
      </trkpt>
      <trkpt lat="43.64457" lon="3.32517">
        <ele>140.6</ele>
        <time>2024-08-06T06:44:19Z</time>
      </trkpt>
      <trkpt lat="43.64461" lon="3.32515">
        <ele>140.6</ele>
        <time>2024-08-06T06:44:20Z</time>
      </trkpt>
      <trkpt lat="43.64465" lon="3.32514">
        <ele>140.6</ele>
        <time>2024-08-06T06:44:21Z</time>
      </trkpt>
      <trkpt lat="43.64468" lon="3.32513">
        <ele>140.6</ele>
        <time>2024-08-06T06:44:22Z</time>
      </trkpt>
      <trkpt lat="43.64472" lon="3.32514">
        <ele>140.5</ele>
        <time>2024-08-06T06:44:23Z</time>
      </trkpt>
      <trkpt lat="43.64475" lon="3.32514">
        <ele>140.5</ele>
        <time>2024-08-06T06:44:24Z</time>
      </trkpt>
      <trkpt lat="43.64478" lon="3.32514">
        <ele>140.5</ele>
        <time>2024-08-06T06:44:25Z</time>
      </trkpt>
      <trkpt lat="43.64482" lon="3.32514">
        <ele>140.5</ele>
        <time>2024-08-06T06:44:26Z</time>
      </trkpt>
      <trkpt lat="43.64486" lon="3.32513">
        <ele>140.5</ele>
        <time>2024-08-06T06:44:27Z</time>
      </trkpt>
      <trkpt lat="43.64489" lon="3.32511">
        <ele>140.6</ele>
        <time>2024-08-06T06:44:28Z</time>
      </trkpt>
      <trkpt lat="43.64493" lon="3.32508">
        <ele>140.7</ele>
        <time>2024-08-06T06:44:29Z</time>
      </trkpt>
      <trkpt lat="43.64496" lon="3.32505">
        <ele>140.8</ele>
        <time>2024-08-06T06:44:30Z</time>
      </trkpt>
      <trkpt lat="43.645" lon="3.32503">
        <ele>140.9</ele>
        <time>2024-08-06T06:44:31Z</time>
      </trkpt>
      <trkpt lat="43.64504" lon="3.32501">
        <ele>140.8</ele>
        <time>2024-08-06T06:44:32Z</time>
      </trkpt>
      <trkpt lat="43.64508" lon="3.32498">
        <ele>140.9</ele>
        <time>2024-08-06T06:44:33Z</time>
      </trkpt>
      <trkpt lat="43.64511" lon="3.32495">
        <ele>141</ele>
        <time>2024-08-06T06:44:34Z</time>
      </trkpt>
      <trkpt lat="43.64515" lon="3.32493">
        <ele>141</ele>
        <time>2024-08-06T06:44:35Z</time>
      </trkpt>
      <trkpt lat="43.64518" lon="3.3249">
        <ele>141.1</ele>
        <time>2024-08-06T06:44:36Z</time>
      </trkpt>
      <trkpt lat="43.64521" lon="3.32487">
        <ele>141.2</ele>
        <time>2024-08-06T06:44:37Z</time>
      </trkpt>
      <trkpt lat="43.64524" lon="3.32485">
        <ele>141.2</ele>
        <time>2024-08-06T06:44:38Z</time>
      </trkpt>
      <trkpt lat="43.64527" lon="3.32482">
        <ele>141.3</ele>
        <time>2024-08-06T06:44:39Z</time>
      </trkpt>
      <trkpt lat="43.64531" lon="3.3248">
        <ele>141.4</ele>
        <time>2024-08-06T06:44:40Z</time>
      </trkpt>
      <trkpt lat="43.64534" lon="3.32479">
        <ele>141.3</ele>
        <time>2024-08-06T06:44:41Z</time>
      </trkpt>
      <trkpt lat="43.64538" lon="3.32479">
        <ele>141.2</ele>
        <time>2024-08-06T06:44:42Z</time>
      </trkpt>
      <trkpt lat="43.64542" lon="3.32479">
        <ele>141.1</ele>
        <time>2024-08-06T06:44:43Z</time>
      </trkpt>
      <trkpt lat="43.64546" lon="3.3248">
        <ele>141</ele>
        <time>2024-08-06T06:44:44Z</time>
      </trkpt>
      <trkpt lat="43.6455" lon="3.32481">
        <ele>140.8</ele>
        <time>2024-08-06T06:44:45Z</time>
      </trkpt>
      <trkpt lat="43.64554" lon="3.32483">
        <ele>140.6</ele>
        <time>2024-08-06T06:44:46Z</time>
      </trkpt>
      <trkpt lat="43.64558" lon="3.32485">
        <ele>140.6</ele>
        <time>2024-08-06T06:44:47Z</time>
      </trkpt>
      <trkpt lat="43.64562" lon="3.32486">
        <ele>140.6</ele>
        <time>2024-08-06T06:44:48Z</time>
      </trkpt>
      <trkpt lat="43.64567" lon="3.32487">
        <ele>140.7</ele>
        <time>2024-08-06T06:44:49Z</time>
      </trkpt>
      <trkpt lat="43.6457" lon="3.32487">
        <ele>140.7</ele>
        <time>2024-08-06T06:44:50Z</time>
      </trkpt>
      <trkpt lat="43.64574" lon="3.32486">
        <ele>140.8</ele>
        <time>2024-08-06T06:44:51Z</time>
      </trkpt>
      <trkpt lat="43.64578" lon="3.32485">
        <ele>140.9</ele>
        <time>2024-08-06T06:44:52Z</time>
      </trkpt>
      <trkpt lat="43.64582" lon="3.32482">
        <ele>141</ele>
        <time>2024-08-06T06:44:53Z</time>
      </trkpt>
      <trkpt lat="43.64584" lon="3.3248">
        <ele>141</ele>
        <time>2024-08-06T06:44:54Z</time>
      </trkpt>
      <trkpt lat="43.64587" lon="3.32477">
        <ele>141.1</ele>
        <time>2024-08-06T06:44:55Z</time>
      </trkpt>
      <trkpt lat="43.64591" lon="3.32475">
        <ele>141.2</ele>
        <time>2024-08-06T06:44:56Z</time>
      </trkpt>
      <trkpt lat="43.64595" lon="3.32474">
        <ele>141.4</ele>
        <time>2024-08-06T06:44:57Z</time>
      </trkpt>
      <trkpt lat="43.64599" lon="3.32472">
        <ele>141.6</ele>
        <time>2024-08-06T06:44:58Z</time>
      </trkpt>
      <trkpt lat="43.64603" lon="3.3247">
        <ele>141.8</ele>
        <time>2024-08-06T06:44:59Z</time>
      </trkpt>
      <trkpt lat="43.64606" lon="3.32467">
        <ele>142.2</ele>
        <time>2024-08-06T06:45:00Z</time>
      </trkpt>
      <trkpt lat="43.64608" lon="3.32464">
        <ele>142.4</ele>
        <time>2024-08-06T06:45:01Z</time>
      </trkpt>
      <trkpt lat="43.64611" lon="3.3246">
        <ele>142.9</ele>
        <time>2024-08-06T06:45:02Z</time>
      </trkpt>
      <trkpt lat="43.64613" lon="3.32457">
        <ele>143.2</ele>
        <time>2024-08-06T06:45:03Z</time>
      </trkpt>
      <trkpt lat="43.64617" lon="3.32454">
        <ele>143.5</ele>
        <time>2024-08-06T06:45:04Z</time>
      </trkpt>
      <trkpt lat="43.6462" lon="3.32453">
        <ele>143.7</ele>
        <time>2024-08-06T06:45:05Z</time>
      </trkpt>
      <trkpt lat="43.64623" lon="3.3245">
        <ele>144</ele>
        <time>2024-08-06T06:45:06Z</time>
      </trkpt>
      <trkpt lat="43.64626" lon="3.32447">
        <ele>144.4</ele>
        <time>2024-08-06T06:45:07Z</time>
      </trkpt>
      <trkpt lat="43.64629" lon="3.32444">
        <ele>144.7</ele>
        <time>2024-08-06T06:45:08Z</time>
      </trkpt>
      <trkpt lat="43.64631" lon="3.3244">
        <ele>145.1</ele>
        <time>2024-08-06T06:45:09Z</time>
      </trkpt>
      <trkpt lat="43.64632" lon="3.32436">
        <ele>145.5</ele>
        <time>2024-08-06T06:45:10Z</time>
      </trkpt>
      <trkpt lat="43.64633" lon="3.32432">
        <ele>145.9</ele>
        <time>2024-08-06T06:45:11Z</time>
      </trkpt>
      <trkpt lat="43.64635" lon="3.32428">
        <ele>146.5</ele>
        <time>2024-08-06T06:45:12Z</time>
      </trkpt>
      <trkpt lat="43.64637" lon="3.32424">
        <ele>147</ele>
        <time>2024-08-06T06:45:13Z</time>
      </trkpt>
      <trkpt lat="43.64639" lon="3.3242">
        <ele>147.6</ele>
        <time>2024-08-06T06:45:14Z</time>
      </trkpt>
      <trkpt lat="43.64641" lon="3.32417">
        <ele>148.1</ele>
        <time>2024-08-06T06:45:15Z</time>
      </trkpt>
      <trkpt lat="43.64642" lon="3.32412">
        <ele>148.2</ele>
        <time>2024-08-06T06:45:16Z</time>
      </trkpt>
      <trkpt lat="43.64643" lon="3.32408">
        <ele>148.3</ele>
        <time>2024-08-06T06:45:17Z</time>
      </trkpt>
      <trkpt lat="43.64644" lon="3.32403">
        <ele>148.5</ele>
        <time>2024-08-06T06:45:18Z</time>
      </trkpt>
      <trkpt lat="43.64646" lon="3.32399">
        <ele>148.7</ele>
        <time>2024-08-06T06:45:19Z</time>
      </trkpt>
      <trkpt lat="43.64648" lon="3.32395">
        <ele>148.9</ele>
        <time>2024-08-06T06:45:20Z</time>
      </trkpt>
      <trkpt lat="43.64651" lon="3.32391">
        <ele>149.3</ele>
        <time>2024-08-06T06:45:21Z</time>
      </trkpt>
      <trkpt lat="43.64653" lon="3.32388">
        <ele>149.5</ele>
        <time>2024-08-06T06:45:22Z</time>
      </trkpt>
      <trkpt lat="43.64656" lon="3.32384">
        <ele>149.8</ele>
        <time>2024-08-06T06:45:23Z</time>
      </trkpt>
      <trkpt lat="43.64659" lon="3.32382">
        <ele>150.2</ele>
        <time>2024-08-06T06:45:24Z</time>
      </trkpt>
      <trkpt lat="43.64662" lon="3.32378">
        <ele>150.5</ele>
        <time>2024-08-06T06:45:25Z</time>
      </trkpt>
      <trkpt lat="43.64665" lon="3.32375">
        <ele>150.8</ele>
        <time>2024-08-06T06:45:26Z</time>
      </trkpt>
      <trkpt lat="43.64667" lon="3.32373">
        <ele>151</ele>
        <time>2024-08-06T06:45:27Z</time>
      </trkpt>
      <trkpt lat="43.6467" lon="3.3237">
        <ele>151.1</ele>
        <time>2024-08-06T06:45:28Z</time>
      </trkpt>
      <trkpt lat="43.64673" lon="3.32368">
        <ele>151.2</ele>
        <time>2024-08-06T06:45:29Z</time>
      </trkpt>
      <trkpt lat="43.64675" lon="3.32365">
        <ele>151.3</ele>
        <time>2024-08-06T06:45:30Z</time>
      </trkpt>
      <trkpt lat="43.64677" lon="3.32362">
        <ele>151.4</ele>
        <time>2024-08-06T06:45:31Z</time>
      </trkpt>
      <trkpt lat="43.64679" lon="3.3236">
        <ele>151.4</ele>
        <time>2024-08-06T06:45:32Z</time>
      </trkpt>
      <trkpt lat="43.64682" lon="3.32358">
        <ele>151.4</ele>
        <time>2024-08-06T06:45:33Z</time>
      </trkpt>
      <trkpt lat="43.64685" lon="3.32356">
        <ele>151.5</ele>
        <time>2024-08-06T06:45:34Z</time>
      </trkpt>
      <trkpt lat="43.64688" lon="3.32355">
        <ele>151.5</ele>
        <time>2024-08-06T06:45:35Z</time>
      </trkpt>
      <trkpt lat="43.64691" lon="3.32353">
        <ele>151.6</ele>
        <time>2024-08-06T06:45:36Z</time>
      </trkpt>
      <trkpt lat="43.64693" lon="3.32352">
        <ele>151.6</ele>
        <time>2024-08-06T06:45:37Z</time>
      </trkpt>
      <trkpt lat="43.64696" lon="3.32351">
        <ele>151.6</ele>
        <time>2024-08-06T06:45:38Z</time>
      </trkpt>
      <trkpt lat="43.64698" lon="3.32349">
        <ele>151.5</ele>
        <time>2024-08-06T06:45:39Z</time>
      </trkpt>
      <trkpt lat="43.64701" lon="3.32348">
        <ele>151.4</ele>
        <time>2024-08-06T06:45:40Z</time>
      </trkpt>
      <trkpt lat="43.64703" lon="3.32345">
        <ele>151.3</ele>
        <time>2024-08-06T06:45:41Z</time>
      </trkpt>
      <trkpt lat="43.64705" lon="3.32343">
        <ele>151.2</ele>
        <time>2024-08-06T06:45:42Z</time>
      </trkpt>
      <trkpt lat="43.64706" lon="3.3234">
        <ele>151.1</ele>
        <time>2024-08-06T06:45:43Z</time>
      </trkpt>
      <trkpt lat="43.64708" lon="3.32338">
        <ele>151.1</ele>
        <time>2024-08-06T06:45:44Z</time>
      </trkpt>
      <trkpt lat="43.64709" lon="3.32336">
        <ele>151</ele>
        <time>2024-08-06T06:45:45Z</time>
      </trkpt>
      <trkpt lat="43.6471" lon="3.32334">
        <ele>151</ele>
        <time>2024-08-06T06:45:46Z</time>
      </trkpt>
      <trkpt lat="43.6471" lon="3.32331">
        <ele>151</ele>
        <time>2024-08-06T06:45:47Z</time>
      </trkpt>
      <trkpt lat="43.64712" lon="3.32328">
        <ele>150.9</ele>
        <time>2024-08-06T06:45:48Z</time>
      </trkpt>
      <trkpt lat="43.64713" lon="3.32323">
        <ele>150.9</ele>
        <time>2024-08-06T06:45:49Z</time>
      </trkpt>
      <trkpt lat="43.64714" lon="3.32319">
        <ele>150.8</ele>
        <time>2024-08-06T06:45:50Z</time>
      </trkpt>
      <trkpt lat="43.64716" lon="3.32313">
        <ele>150.8</ele>
        <time>2024-08-06T06:45:51Z</time>
      </trkpt>
      <trkpt lat="43.64717" lon="3.32308">
        <ele>150.8</ele>
        <time>2024-08-06T06:45:52Z</time>
      </trkpt>
      <trkpt lat="43.64719" lon="3.32303">
        <ele>150.9</ele>
        <time>2024-08-06T06:45:53Z</time>
      </trkpt>
      <trkpt lat="43.6472" lon="3.32297">
        <ele>150.9</ele>
        <time>2024-08-06T06:45:54Z</time>
      </trkpt>
      <trkpt lat="43.64721" lon="3.32292">
        <ele>151</ele>
        <time>2024-08-06T06:45:55Z</time>
      </trkpt>
      <trkpt lat="43.64721" lon="3.32287">
        <ele>151</ele>
        <time>2024-08-06T06:45:56Z</time>
      </trkpt>
      <trkpt lat="43.64721" lon="3.32281">
        <ele>151</ele>
        <time>2024-08-06T06:45:57Z</time>
      </trkpt>
      <trkpt lat="43.64723" lon="3.32276">
        <ele>150.9</ele>
        <time>2024-08-06T06:45:58Z</time>
      </trkpt>
      <trkpt lat="43.64724" lon="3.32271">
        <ele>150.7</ele>
        <time>2024-08-06T06:45:59Z</time>
      </trkpt>
      <trkpt lat="43.64726" lon="3.32265">
        <ele>150.5</ele>
        <time>2024-08-06T06:46:00Z</time>
      </trkpt>
      <trkpt lat="43.64727" lon="3.3226">
        <ele>150.3</ele>
        <time>2024-08-06T06:46:01Z</time>
      </trkpt>
      <trkpt lat="43.64728" lon="3.32256">
        <ele>150.2</ele>
        <time>2024-08-06T06:46:02Z</time>
      </trkpt>
      <trkpt lat="43.64729" lon="3.32251">
        <ele>150</ele>
        <time>2024-08-06T06:46:03Z</time>
      </trkpt>
      <trkpt lat="43.64729" lon="3.32247">
        <ele>150.1</ele>
        <time>2024-08-06T06:46:04Z</time>
      </trkpt>
      <trkpt lat="43.64729" lon="3.32243">
        <ele>150.3</ele>
        <time>2024-08-06T06:46:05Z</time>
      </trkpt>
      <trkpt lat="43.64729" lon="3.32238">
        <ele>150.5</ele>
        <time>2024-08-06T06:46:06Z</time>
      </trkpt>
      <trkpt lat="43.64728" lon="3.32234">
        <ele>150.7</ele>
        <time>2024-08-06T06:46:07Z</time>
      </trkpt>
      <trkpt lat="43.64727" lon="3.3223">
        <ele>150.8</ele>
        <time>2024-08-06T06:46:08Z</time>
      </trkpt>
      <trkpt lat="43.64726" lon="3.32226">
        <ele>151</ele>
        <time>2024-08-06T06:46:09Z</time>
      </trkpt>
      <trkpt lat="43.64725" lon="3.32221">
        <ele>151.1</ele>
        <time>2024-08-06T06:46:10Z</time>
      </trkpt>
      <trkpt lat="43.64724" lon="3.32217">
        <ele>151.3</ele>
        <time>2024-08-06T06:46:11Z</time>
      </trkpt>
      <trkpt lat="43.64723" lon="3.32212">
        <ele>151.4</ele>
        <time>2024-08-06T06:46:12Z</time>
      </trkpt>
      <trkpt lat="43.64722" lon="3.32208">
        <ele>151.5</ele>
        <time>2024-08-06T06:46:13Z</time>
      </trkpt>
      <trkpt lat="43.6472" lon="3.32205">
        <ele>151.5</ele>
        <time>2024-08-06T06:46:14Z</time>
      </trkpt>
      <trkpt lat="43.64719" lon="3.32201">
        <ele>151.6</ele>
        <time>2024-08-06T06:46:15Z</time>
      </trkpt>
      <trkpt lat="43.64719" lon="3.32196">
        <ele>151.7</ele>
        <time>2024-08-06T06:46:16Z</time>
      </trkpt>
      <trkpt lat="43.64719" lon="3.32192">
        <ele>151.8</ele>
        <time>2024-08-06T06:46:17Z</time>
      </trkpt>
      <trkpt lat="43.6472" lon="3.32188">
        <ele>152.1</ele>
        <time>2024-08-06T06:46:18Z</time>
      </trkpt>
      <trkpt lat="43.6472" lon="3.32184">
        <ele>152.2</ele>
        <time>2024-08-06T06:46:19Z</time>
      </trkpt>
      <trkpt lat="43.6472" lon="3.32179">
        <ele>152.4</ele>
        <time>2024-08-06T06:46:20Z</time>
      </trkpt>
      <trkpt lat="43.6472" lon="3.32174">
        <ele>152.5</ele>
        <time>2024-08-06T06:46:21Z</time>
      </trkpt>
      <trkpt lat="43.64719" lon="3.32169">
        <ele>152.6</ele>
        <time>2024-08-06T06:46:22Z</time>
      </trkpt>
      <trkpt lat="43.64718" lon="3.32164">
        <ele>152.6</ele>
        <time>2024-08-06T06:46:23Z</time>
      </trkpt>
      <trkpt lat="43.64717" lon="3.3216">
        <ele>152.5</ele>
        <time>2024-08-06T06:46:24Z</time>
      </trkpt>
      <trkpt lat="43.64716" lon="3.32155">
        <ele>152.4</ele>
        <time>2024-08-06T06:46:25Z</time>
      </trkpt>
      <trkpt lat="43.64715" lon="3.32151">
        <ele>152.4</ele>
        <time>2024-08-06T06:46:26Z</time>
      </trkpt>
      <trkpt lat="43.64714" lon="3.32147">
        <ele>152.3</ele>
        <time>2024-08-06T06:46:27Z</time>
      </trkpt>
      <trkpt lat="43.64714" lon="3.32142">
        <ele>152.4</ele>
        <time>2024-08-06T06:46:28Z</time>
      </trkpt>
      <trkpt lat="43.64713" lon="3.32138">
        <ele>152.4</ele>
        <time>2024-08-06T06:46:29Z</time>
      </trkpt>
      <trkpt lat="43.64713" lon="3.32135">
        <ele>152.5</ele>
        <time>2024-08-06T06:46:30Z</time>
      </trkpt>
      <trkpt lat="43.64712" lon="3.3213">
        <ele>152.6</ele>
        <time>2024-08-06T06:46:31Z</time>
      </trkpt>
      <trkpt lat="43.64711" lon="3.32126">
        <ele>152.7</ele>
        <time>2024-08-06T06:46:32Z</time>
      </trkpt>
      <trkpt lat="43.6471" lon="3.32121">
        <ele>152.8</ele>
        <time>2024-08-06T06:46:33Z</time>
      </trkpt>
      <trkpt lat="43.64709" lon="3.32116">
        <ele>152.9</ele>
        <time>2024-08-06T06:46:34Z</time>
      </trkpt>
      <trkpt lat="43.64708" lon="3.32112">
        <ele>152.9</ele>
        <time>2024-08-06T06:46:35Z</time>
      </trkpt>
      <trkpt lat="43.64707" lon="3.32108">
        <ele>153</ele>
        <time>2024-08-06T06:46:36Z</time>
      </trkpt>
      <trkpt lat="43.64706" lon="3.32104">
        <ele>153.1</ele>
        <time>2024-08-06T06:46:37Z</time>
      </trkpt>
      <trkpt lat="43.64705" lon="3.32099">
        <ele>153.2</ele>
        <time>2024-08-06T06:46:38Z</time>
      </trkpt>
      <trkpt lat="43.64705" lon="3.32094">
        <ele>153.4</ele>
        <time>2024-08-06T06:46:39Z</time>
      </trkpt>
      <trkpt lat="43.64704" lon="3.3209">
        <ele>153.4</ele>
        <time>2024-08-06T06:46:40Z</time>
      </trkpt>
      <trkpt lat="43.64702" lon="3.32086">
        <ele>153.4</ele>
        <time>2024-08-06T06:46:41Z</time>
      </trkpt>
      <trkpt lat="43.647" lon="3.32082">
        <ele>153.4</ele>
        <time>2024-08-06T06:46:42Z</time>
      </trkpt>
      <trkpt lat="43.64697" lon="3.32078">
        <ele>153.4</ele>
        <time>2024-08-06T06:46:43Z</time>
      </trkpt>
      <trkpt lat="43.64694" lon="3.32075">
        <ele>153.3</ele>
        <time>2024-08-06T06:46:44Z</time>
      </trkpt>
      <trkpt lat="43.64691" lon="3.32071">
        <ele>153.6</ele>
        <time>2024-08-06T06:46:45Z</time>
      </trkpt>
      <trkpt lat="43.64688" lon="3.32068">
        <ele>153.8</ele>
        <time>2024-08-06T06:46:46Z</time>
      </trkpt>
      <trkpt lat="43.64685" lon="3.32065">
        <ele>154</ele>
        <time>2024-08-06T06:46:47Z</time>
      </trkpt>
      <trkpt lat="43.64682" lon="3.32062">
        <ele>154.2</ele>
        <time>2024-08-06T06:46:48Z</time>
      </trkpt>
      <trkpt lat="43.64679" lon="3.32059">
        <ele>154.4</ele>
        <time>2024-08-06T06:46:49Z</time>
      </trkpt>
      <trkpt lat="43.64676" lon="3.32056">
        <ele>154.6</ele>
        <time>2024-08-06T06:46:50Z</time>
      </trkpt>
      <trkpt lat="43.64673" lon="3.32053">
        <ele>154.8</ele>
        <time>2024-08-06T06:46:51Z</time>
      </trkpt>
      <trkpt lat="43.64671" lon="3.32049">
        <ele>154.9</ele>
        <time>2024-08-06T06:46:52Z</time>
      </trkpt>
      <trkpt lat="43.64669" lon="3.32045">
        <ele>155</ele>
        <time>2024-08-06T06:46:53Z</time>
      </trkpt>
      <trkpt lat="43.64667" lon="3.32042">
        <ele>155</ele>
        <time>2024-08-06T06:46:54Z</time>
      </trkpt>
      <trkpt lat="43.64665" lon="3.32038">
        <ele>154.9</ele>
        <time>2024-08-06T06:46:55Z</time>
      </trkpt>
      <trkpt lat="43.64664" lon="3.32033">
        <ele>154.8</ele>
        <time>2024-08-06T06:46:56Z</time>
      </trkpt>
      <trkpt lat="43.64662" lon="3.32029">
        <ele>154.7</ele>
        <time>2024-08-06T06:46:57Z</time>
      </trkpt>
      <trkpt lat="43.64661" lon="3.32024">
        <ele>154.7</ele>
        <time>2024-08-06T06:46:58Z</time>
      </trkpt>
      <trkpt lat="43.6466" lon="3.3202">
        <ele>154.8</ele>
        <time>2024-08-06T06:46:59Z</time>
      </trkpt>
      <trkpt lat="43.64659" lon="3.32015">
        <ele>154.9</ele>
        <time>2024-08-06T06:47:00Z</time>
      </trkpt>
      <trkpt lat="43.64659" lon="3.3201">
        <ele>155.1</ele>
        <time>2024-08-06T06:47:01Z</time>
      </trkpt>
      <trkpt lat="43.6466" lon="3.32006">
        <ele>155.3</ele>
        <time>2024-08-06T06:47:02Z</time>
      </trkpt>
      <trkpt lat="43.64661" lon="3.32">
        <ele>155.6</ele>
        <time>2024-08-06T06:47:03Z</time>
      </trkpt>
      <trkpt lat="43.64663" lon="3.31996">
        <ele>155.7</ele>
        <time>2024-08-06T06:47:04Z</time>
      </trkpt>
      <trkpt lat="43.64664" lon="3.31992">
        <ele>155.8</ele>
        <time>2024-08-06T06:47:05Z</time>
      </trkpt>
      <trkpt lat="43.64665" lon="3.31987">
        <ele>155.9</ele>
        <time>2024-08-06T06:47:06Z</time>
      </trkpt>
      <trkpt lat="43.64666" lon="3.31982">
        <ele>155.9</ele>
        <time>2024-08-06T06:47:07Z</time>
      </trkpt>
      <trkpt lat="43.64667" lon="3.31977">
        <ele>156</ele>
        <time>2024-08-06T06:47:08Z</time>
      </trkpt>
      <trkpt lat="43.64668" lon="3.31973">
        <ele>156.1</ele>
        <time>2024-08-06T06:47:09Z</time>
      </trkpt>
      <trkpt lat="43.64668" lon="3.31969">
        <ele>156.2</ele>
        <time>2024-08-06T06:47:10Z</time>
      </trkpt>
      <trkpt lat="43.64669" lon="3.31965">
        <ele>156.4</ele>
        <time>2024-08-06T06:47:11Z</time>
      </trkpt>
      <trkpt lat="43.64669" lon="3.31962">
        <ele>156.5</ele>
        <time>2024-08-06T06:47:12Z</time>
      </trkpt>
      <trkpt lat="43.6467" lon="3.31958">
        <ele>156.7</ele>
        <time>2024-08-06T06:47:13Z</time>
      </trkpt>
      <trkpt lat="43.64671" lon="3.31954">
        <ele>156.9</ele>
        <time>2024-08-06T06:47:14Z</time>
      </trkpt>
      <trkpt lat="43.64671" lon="3.3195">
        <ele>157</ele>
        <time>2024-08-06T06:47:15Z</time>
      </trkpt>
      <trkpt lat="43.64671" lon="3.31947">
        <ele>157.1</ele>
        <time>2024-08-06T06:47:16Z</time>
      </trkpt>
      <trkpt lat="43.64672" lon="3.31943">
        <ele>157.2</ele>
        <time>2024-08-06T06:47:17Z</time>
      </trkpt>
      <trkpt lat="43.64673" lon="3.31939">
        <ele>157.1</ele>
        <time>2024-08-06T06:47:18Z</time>
      </trkpt>
      <trkpt lat="43.64673" lon="3.31935">
        <ele>157</ele>
        <time>2024-08-06T06:47:19Z</time>
      </trkpt>
      <trkpt lat="43.64674" lon="3.31931">
        <ele>157</ele>
        <time>2024-08-06T06:47:20Z</time>
      </trkpt>
      <trkpt lat="43.64675" lon="3.31926">
        <ele>157</ele>
        <time>2024-08-06T06:47:21Z</time>
      </trkpt>
      <trkpt lat="43.64676" lon="3.31921">
        <ele>157.1</ele>
        <time>2024-08-06T06:47:22Z</time>
      </trkpt>
      <trkpt lat="43.64676" lon="3.31916">
        <ele>157</ele>
        <time>2024-08-06T06:47:23Z</time>
      </trkpt>
      <trkpt lat="43.64677" lon="3.31911">
        <ele>157.1</ele>
        <time>2024-08-06T06:47:24Z</time>
      </trkpt>
      <trkpt lat="43.64678" lon="3.31906">
        <ele>157.2</ele>
        <time>2024-08-06T06:47:25Z</time>
      </trkpt>
      <trkpt lat="43.64678" lon="3.319">
        <ele>157.2</ele>
        <time>2024-08-06T06:47:26Z</time>
      </trkpt>
      <trkpt lat="43.64679" lon="3.31895">
        <ele>157.3</ele>
        <time>2024-08-06T06:47:27Z</time>
      </trkpt>
      <trkpt lat="43.64679" lon="3.31891">
        <ele>157.3</ele>
        <time>2024-08-06T06:47:28Z</time>
      </trkpt>
      <trkpt lat="43.6468" lon="3.31886">
        <ele>157.4</ele>
        <time>2024-08-06T06:47:29Z</time>
      </trkpt>
      <trkpt lat="43.6468" lon="3.31882">
        <ele>157.4</ele>
        <time>2024-08-06T06:47:30Z</time>
      </trkpt>
      <trkpt lat="43.64681" lon="3.31877">
        <ele>157.5</ele>
        <time>2024-08-06T06:47:31Z</time>
      </trkpt>
      <trkpt lat="43.64682" lon="3.31872">
        <ele>157.7</ele>
        <time>2024-08-06T06:47:32Z</time>
      </trkpt>
      <trkpt lat="43.64683" lon="3.31868">
        <ele>157.8</ele>
        <time>2024-08-06T06:47:33Z</time>
      </trkpt>
      <trkpt lat="43.64684" lon="3.31864">
        <ele>157.9</ele>
        <time>2024-08-06T06:47:34Z</time>
      </trkpt>
      <trkpt lat="43.64685" lon="3.3186">
        <ele>158</ele>
        <time>2024-08-06T06:47:35Z</time>
      </trkpt>
      <trkpt lat="43.64687" lon="3.31855">
        <ele>158.4</ele>
        <time>2024-08-06T06:47:36Z</time>
      </trkpt>
      <trkpt lat="43.64687" lon="3.3185">
        <ele>158.5</ele>
        <time>2024-08-06T06:47:37Z</time>
      </trkpt>
      <trkpt lat="43.64688" lon="3.31845">
        <ele>158.7</ele>
        <time>2024-08-06T06:47:38Z</time>
      </trkpt>
      <trkpt lat="43.64688" lon="3.31841">
        <ele>158.9</ele>
        <time>2024-08-06T06:47:39Z</time>
      </trkpt>
      <trkpt lat="43.64687" lon="3.31836">
        <ele>158.9</ele>
        <time>2024-08-06T06:47:40Z</time>
      </trkpt>
      <trkpt lat="43.64687" lon="3.31832">
        <ele>158.9</ele>
        <time>2024-08-06T06:47:41Z</time>
      </trkpt>
      <trkpt lat="43.64686" lon="3.31827">
        <ele>158.9</ele>
        <time>2024-08-06T06:47:42Z</time>
      </trkpt>
      <trkpt lat="43.64685" lon="3.31822">
        <ele>158.8</ele>
        <time>2024-08-06T06:47:43Z</time>
      </trkpt>
      <trkpt lat="43.64684" lon="3.31817">
        <ele>158.7</ele>
        <time>2024-08-06T06:47:44Z</time>
      </trkpt>
      <trkpt lat="43.64683" lon="3.31813">
        <ele>158.7</ele>
        <time>2024-08-06T06:47:45Z</time>
      </trkpt>
      <trkpt lat="43.64683" lon="3.31809">
        <ele>158.7</ele>
        <time>2024-08-06T06:47:46Z</time>
      </trkpt>
      <trkpt lat="43.64682" lon="3.31804">
        <ele>158.7</ele>
        <time>2024-08-06T06:47:47Z</time>
      </trkpt>
      <trkpt lat="43.64681" lon="3.31799">
        <ele>158.7</ele>
        <time>2024-08-06T06:47:48Z</time>
      </trkpt>
      <trkpt lat="43.64681" lon="3.31795">
        <ele>158.7</ele>
        <time>2024-08-06T06:47:49Z</time>
      </trkpt>
      <trkpt lat="43.6468" lon="3.3179">
        <ele>158.7</ele>
        <time>2024-08-06T06:47:50Z</time>
      </trkpt>
      <trkpt lat="43.6468" lon="3.31786">
        <ele>158.8</ele>
        <time>2024-08-06T06:47:51Z</time>
      </trkpt>
      <trkpt lat="43.6468" lon="3.31781">
        <ele>158.9</ele>
        <time>2024-08-06T06:47:52Z</time>
      </trkpt>
      <trkpt lat="43.6468" lon="3.31777">
        <ele>158.9</ele>
        <time>2024-08-06T06:47:53Z</time>
      </trkpt>
      <trkpt lat="43.6468" lon="3.31773">
        <ele>159</ele>
        <time>2024-08-06T06:47:54Z</time>
      </trkpt>
      <trkpt lat="43.6468" lon="3.31768">
        <ele>159.1</ele>
        <time>2024-08-06T06:47:55Z</time>
      </trkpt>
      <trkpt lat="43.64679" lon="3.31764">
        <ele>159.1</ele>
        <time>2024-08-06T06:47:56Z</time>
      </trkpt>
      <trkpt lat="43.64679" lon="3.3176">
        <ele>159.1</ele>
        <time>2024-08-06T06:47:57Z</time>
      </trkpt>
      <trkpt lat="43.64679" lon="3.31756">
        <ele>159.2</ele>
        <time>2024-08-06T06:47:58Z</time>
      </trkpt>
      <trkpt lat="43.64679" lon="3.31752">
        <ele>159.3</ele>
        <time>2024-08-06T06:47:59Z</time>
      </trkpt>
      <trkpt lat="43.64678" lon="3.31748">
        <ele>159.3</ele>
        <time>2024-08-06T06:48:00Z</time>
      </trkpt>
      <trkpt lat="43.64678" lon="3.31743">
        <ele>159.3</ele>
        <time>2024-08-06T06:48:01Z</time>
      </trkpt>
      <trkpt lat="43.64678" lon="3.31739">
        <ele>159.4</ele>
        <time>2024-08-06T06:48:02Z</time>
      </trkpt>
      <trkpt lat="43.64678" lon="3.31734">
        <ele>159.5</ele>
        <time>2024-08-06T06:48:03Z</time>
      </trkpt>
      <trkpt lat="43.64678" lon="3.3173">
        <ele>159.5</ele>
        <time>2024-08-06T06:48:04Z</time>
      </trkpt>
      <trkpt lat="43.64677" lon="3.31726">
        <ele>159.4</ele>
        <time>2024-08-06T06:48:05Z</time>
      </trkpt>
      <trkpt lat="43.64677" lon="3.31721">
        <ele>159.5</ele>
        <time>2024-08-06T06:48:06Z</time>
      </trkpt>
      <trkpt lat="43.64677" lon="3.31716">
        <ele>159.8</ele>
        <time>2024-08-06T06:48:07Z</time>
      </trkpt>
      <trkpt lat="43.64676" lon="3.31711">
        <ele>159.9</ele>
        <time>2024-08-06T06:48:08Z</time>
      </trkpt>
      <trkpt lat="43.64676" lon="3.31706">
        <ele>160.1</ele>
        <time>2024-08-06T06:48:09Z</time>
      </trkpt>
      <trkpt lat="43.64675" lon="3.31701">
        <ele>160.3</ele>
        <time>2024-08-06T06:48:10Z</time>
      </trkpt>
      <trkpt lat="43.64674" lon="3.31696">
        <ele>160.4</ele>
        <time>2024-08-06T06:48:11Z</time>
      </trkpt>
      <trkpt lat="43.64673" lon="3.31691">
        <ele>160.6</ele>
        <time>2024-08-06T06:48:12Z</time>
      </trkpt>
      <trkpt lat="43.64672" lon="3.31686">
        <ele>160.7</ele>
        <time>2024-08-06T06:48:13Z</time>
      </trkpt>
      <trkpt lat="43.64671" lon="3.31681">
        <ele>160.8</ele>
        <time>2024-08-06T06:48:14Z</time>
      </trkpt>
      <trkpt lat="43.64669" lon="3.31676">
        <ele>160.8</ele>
        <time>2024-08-06T06:48:15Z</time>
      </trkpt>
      <trkpt lat="43.64668" lon="3.31672">
        <ele>160.9</ele>
        <time>2024-08-06T06:48:16Z</time>
      </trkpt>
      <trkpt lat="43.64667" lon="3.31668">
        <ele>161</ele>
        <time>2024-08-06T06:48:17Z</time>
      </trkpt>
      <trkpt lat="43.64666" lon="3.31664">
        <ele>161</ele>
        <time>2024-08-06T06:48:18Z</time>
      </trkpt>
      <trkpt lat="43.64664" lon="3.3166">
        <ele>160.7</ele>
        <time>2024-08-06T06:48:19Z</time>
      </trkpt>
      <trkpt lat="43.64663" lon="3.31656">
        <ele>160.6</ele>
        <time>2024-08-06T06:48:20Z</time>
      </trkpt>
      <trkpt lat="43.64661" lon="3.31652">
        <ele>160.4</ele>
        <time>2024-08-06T06:48:21Z</time>
      </trkpt>
      <trkpt lat="43.6466" lon="3.31646">
        <ele>160.5</ele>
        <time>2024-08-06T06:48:22Z</time>
      </trkpt>
      <trkpt lat="43.64658" lon="3.31641">
        <ele>160.3</ele>
        <time>2024-08-06T06:48:23Z</time>
      </trkpt>
      <trkpt lat="43.64656" lon="3.31636">
        <ele>160.3</ele>
        <time>2024-08-06T06:48:24Z</time>
      </trkpt>
      <trkpt lat="43.64654" lon="3.31632">
        <ele>160.3</ele>
        <time>2024-08-06T06:48:25Z</time>
      </trkpt>
      <trkpt lat="43.64652" lon="3.31629">
        <ele>160.3</ele>
        <time>2024-08-06T06:48:26Z</time>
      </trkpt>
      <trkpt lat="43.6465" lon="3.31625">
        <ele>160.3</ele>
        <time>2024-08-06T06:48:27Z</time>
      </trkpt>
      <trkpt lat="43.64648" lon="3.31621">
        <ele>160.4</ele>
        <time>2024-08-06T06:48:28Z</time>
      </trkpt>
      <trkpt lat="43.64646" lon="3.31617">
        <ele>160.4</ele>
        <time>2024-08-06T06:48:29Z</time>
      </trkpt>
      <trkpt lat="43.64645" lon="3.31613">
        <ele>160.7</ele>
        <time>2024-08-06T06:48:30Z</time>
      </trkpt>
      <trkpt lat="43.64643" lon="3.31609">
        <ele>160.8</ele>
        <time>2024-08-06T06:48:31Z</time>
      </trkpt>
      <trkpt lat="43.64641" lon="3.31605">
        <ele>160.9</ele>
        <time>2024-08-06T06:48:32Z</time>
      </trkpt>
      <trkpt lat="43.6464" lon="3.31601">
        <ele>161.2</ele>
        <time>2024-08-06T06:48:33Z</time>
      </trkpt>
      <trkpt lat="43.64638" lon="3.31596">
        <ele>161.5</ele>
        <time>2024-08-06T06:48:34Z</time>
      </trkpt>
      <trkpt lat="43.64637" lon="3.31592">
        <ele>161.7</ele>
        <time>2024-08-06T06:48:35Z</time>
      </trkpt>
      <trkpt lat="43.64635" lon="3.31588">
        <ele>161.7</ele>
        <time>2024-08-06T06:48:36Z</time>
      </trkpt>
      <trkpt lat="43.64633" lon="3.31583">
        <ele>161.8</ele>
        <time>2024-08-06T06:48:37Z</time>
      </trkpt>
      <trkpt lat="43.64631" lon="3.31579">
        <ele>161.6</ele>
        <time>2024-08-06T06:48:38Z</time>
      </trkpt>
      <trkpt lat="43.6463" lon="3.31575">
        <ele>161.7</ele>
        <time>2024-08-06T06:48:39Z</time>
      </trkpt>
      <trkpt lat="43.64629" lon="3.31571">
        <ele>161.8</ele>
        <time>2024-08-06T06:48:40Z</time>
      </trkpt>
      <trkpt lat="43.64628" lon="3.31567">
        <ele>161.8</ele>
        <time>2024-08-06T06:48:41Z</time>
      </trkpt>
      <trkpt lat="43.64626" lon="3.31563">
        <ele>161.7</ele>
        <time>2024-08-06T06:48:42Z</time>
      </trkpt>
      <trkpt lat="43.64625" lon="3.31559">
        <ele>161.8</ele>
        <time>2024-08-06T06:48:43Z</time>
      </trkpt>
      <trkpt lat="43.64623" lon="3.31555">
        <ele>161.6</ele>
        <time>2024-08-06T06:48:44Z</time>
      </trkpt>
      <trkpt lat="43.64622" lon="3.31551">
        <ele>161.7</ele>
        <time>2024-08-06T06:48:45Z</time>
      </trkpt>
      <trkpt lat="43.6462" lon="3.31547">
        <ele>161.6</ele>
        <time>2024-08-06T06:48:46Z</time>
      </trkpt>
      <trkpt lat="43.64619" lon="3.31543">
        <ele>161.8</ele>
        <time>2024-08-06T06:48:47Z</time>
      </trkpt>
      <trkpt lat="43.64617" lon="3.31538">
        <ele>161.9</ele>
        <time>2024-08-06T06:48:48Z</time>
      </trkpt>
      <trkpt lat="43.64615" lon="3.31534">
        <ele>162</ele>
        <time>2024-08-06T06:48:49Z</time>
      </trkpt>
      <trkpt lat="43.64614" lon="3.31529">
        <ele>162.3</ele>
        <time>2024-08-06T06:48:50Z</time>
      </trkpt>
      <trkpt lat="43.64612" lon="3.31524">
        <ele>162.4</ele>
        <time>2024-08-06T06:48:51Z</time>
      </trkpt>
      <trkpt lat="43.64611" lon="3.31519">
        <ele>162.6</ele>
        <time>2024-08-06T06:48:52Z</time>
      </trkpt>
      <trkpt lat="43.6461" lon="3.31514">
        <ele>162.8</ele>
        <time>2024-08-06T06:48:53Z</time>
      </trkpt>
      <trkpt lat="43.64609" lon="3.3151">
        <ele>162.9</ele>
        <time>2024-08-06T06:48:54Z</time>
      </trkpt>
      <trkpt lat="43.64608" lon="3.31505">
        <ele>163.1</ele>
        <time>2024-08-06T06:48:55Z</time>
      </trkpt>
      <trkpt lat="43.64606" lon="3.31501">
        <ele>163</ele>
        <time>2024-08-06T06:48:56Z</time>
      </trkpt>
      <trkpt lat="43.64605" lon="3.31497">
        <ele>162.9</ele>
        <time>2024-08-06T06:48:57Z</time>
      </trkpt>
      <trkpt lat="43.64604" lon="3.31493">
        <ele>162.8</ele>
        <time>2024-08-06T06:48:58Z</time>
      </trkpt>
      <trkpt lat="43.64602" lon="3.31489">
        <ele>162.6</ele>
        <time>2024-08-06T06:48:59Z</time>
      </trkpt>
      <trkpt lat="43.64601" lon="3.31485">
        <ele>162.6</ele>
        <time>2024-08-06T06:49:00Z</time>
      </trkpt>
      <trkpt lat="43.64599" lon="3.31481">
        <ele>162.4</ele>
        <time>2024-08-06T06:49:01Z</time>
      </trkpt>
      <trkpt lat="43.64598" lon="3.31477">
        <ele>162.4</ele>
        <time>2024-08-06T06:49:02Z</time>
      </trkpt>
      <trkpt lat="43.64597" lon="3.31473">
        <ele>162.4</ele>
        <time>2024-08-06T06:49:03Z</time>
      </trkpt>
      <trkpt lat="43.64596" lon="3.31469">
        <ele>162.4</ele>
        <time>2024-08-06T06:49:04Z</time>
      </trkpt>
      <trkpt lat="43.64595" lon="3.31465">
        <ele>162.4</ele>
        <time>2024-08-06T06:49:05Z</time>
      </trkpt>
      <trkpt lat="43.64594" lon="3.31461">
        <ele>162.3</ele>
        <time>2024-08-06T06:49:06Z</time>
      </trkpt>
      <trkpt lat="43.64593" lon="3.31457">
        <ele>162.2</ele>
        <time>2024-08-06T06:49:07Z</time>
      </trkpt>
      <trkpt lat="43.64592" lon="3.31453">
        <ele>162.2</ele>
        <time>2024-08-06T06:49:08Z</time>
      </trkpt>
      <trkpt lat="43.64591" lon="3.31448">
        <ele>162.1</ele>
        <time>2024-08-06T06:49:09Z</time>
      </trkpt>
      <trkpt lat="43.64591" lon="3.31442">
        <ele>162.1</ele>
        <time>2024-08-06T06:49:10Z</time>
      </trkpt>
      <trkpt lat="43.64591" lon="3.31437">
        <ele>162</ele>
        <time>2024-08-06T06:49:11Z</time>
      </trkpt>
      <trkpt lat="43.64591" lon="3.31431">
        <ele>162</ele>
        <time>2024-08-06T06:49:12Z</time>
      </trkpt>
      <trkpt lat="43.64591" lon="3.31426">
        <ele>161.9</ele>
        <time>2024-08-06T06:49:13Z</time>
      </trkpt>
      <trkpt lat="43.64591" lon="3.3142">
        <ele>161.9</ele>
        <time>2024-08-06T06:49:14Z</time>
      </trkpt>
      <trkpt lat="43.64591" lon="3.31415">
        <ele>161.8</ele>
        <time>2024-08-06T06:49:15Z</time>
      </trkpt>
      <trkpt lat="43.64592" lon="3.3141">
        <ele>161.7</ele>
        <time>2024-08-06T06:49:16Z</time>
      </trkpt>
      <trkpt lat="43.64592" lon="3.31405">
        <ele>161.5</ele>
        <time>2024-08-06T06:49:17Z</time>
      </trkpt>
      <trkpt lat="43.64593" lon="3.31401">
        <ele>161.5</ele>
        <time>2024-08-06T06:49:18Z</time>
      </trkpt>
      <trkpt lat="43.64593" lon="3.31395">
        <ele>161.3</ele>
        <time>2024-08-06T06:49:19Z</time>
      </trkpt>
      <trkpt lat="43.64594" lon="3.31391">
        <ele>161.2</ele>
        <time>2024-08-06T06:49:20Z</time>
      </trkpt>
      <trkpt lat="43.64595" lon="3.31386">
        <ele>161.3</ele>
        <time>2024-08-06T06:49:21Z</time>
      </trkpt>
      <trkpt lat="43.64595" lon="3.31381">
        <ele>161.3</ele>
        <time>2024-08-06T06:49:22Z</time>
      </trkpt>
      <trkpt lat="43.64595" lon="3.31377">
        <ele>161.3</ele>
        <time>2024-08-06T06:49:23Z</time>
      </trkpt>
      <trkpt lat="43.64596" lon="3.31372">
        <ele>161.4</ele>
        <time>2024-08-06T06:49:24Z</time>
      </trkpt>
      <trkpt lat="43.64596" lon="3.31367">
        <ele>161.4</ele>
        <time>2024-08-06T06:49:25Z</time>
      </trkpt>
      <trkpt lat="43.64597" lon="3.31362">
        <ele>161.5</ele>
        <time>2024-08-06T06:49:26Z</time>
      </trkpt>
      <trkpt lat="43.64599" lon="3.31358">
        <ele>161.6</ele>
        <time>2024-08-06T06:49:27Z</time>
      </trkpt>
      <trkpt lat="43.646" lon="3.31353">
        <ele>161.6</ele>
        <time>2024-08-06T06:49:28Z</time>
      </trkpt>
      <trkpt lat="43.64601" lon="3.31348">
        <ele>161.6</ele>
        <time>2024-08-06T06:49:29Z</time>
      </trkpt>
      <trkpt lat="43.64602" lon="3.31343">
        <ele>161.6</ele>
        <time>2024-08-06T06:49:30Z</time>
      </trkpt>
      <trkpt lat="43.64603" lon="3.31338">
        <ele>161.5</ele>
        <time>2024-08-06T06:49:31Z</time>
      </trkpt>
      <trkpt lat="43.64604" lon="3.31334">
        <ele>161.5</ele>
        <time>2024-08-06T06:49:32Z</time>
      </trkpt>
      <trkpt lat="43.64605" lon="3.31331">
        <ele>161.6</ele>
        <time>2024-08-06T06:49:33Z</time>
      </trkpt>
      <trkpt lat="43.64606" lon="3.31328">
        <ele>161.6</ele>
        <time>2024-08-06T06:49:34Z</time>
      </trkpt>
      <trkpt lat="43.64607" lon="3.31324">
        <ele>161.7</ele>
        <time>2024-08-06T06:49:35Z</time>
      </trkpt>
      <trkpt lat="43.64608" lon="3.3132">
        <ele>161.8</ele>
        <time>2024-08-06T06:49:36Z</time>
      </trkpt>
      <trkpt lat="43.64609" lon="3.31316">
        <ele>161.8</ele>
        <time>2024-08-06T06:49:37Z</time>
      </trkpt>
      <trkpt lat="43.6461" lon="3.31312">
        <ele>161.9</ele>
        <time>2024-08-06T06:49:38Z</time>
      </trkpt>
      <trkpt lat="43.64612" lon="3.31308">
        <ele>162.1</ele>
        <time>2024-08-06T06:49:39Z</time>
      </trkpt>
      <trkpt lat="43.64613" lon="3.31303">
        <ele>162</ele>
        <time>2024-08-06T06:49:40Z</time>
      </trkpt>
      <trkpt lat="43.64614" lon="3.31299">
        <ele>162</ele>
        <time>2024-08-06T06:49:41Z</time>
      </trkpt>
      <trkpt lat="43.64615" lon="3.31295">
        <ele>161.9</ele>
        <time>2024-08-06T06:49:42Z</time>
      </trkpt>
      <trkpt lat="43.64616" lon="3.31291">
        <ele>161.8</ele>
        <time>2024-08-06T06:49:43Z</time>
      </trkpt>
      <trkpt lat="43.64617" lon="3.31288">
        <ele>161.8</ele>
        <time>2024-08-06T06:49:44Z</time>
      </trkpt>
      <trkpt lat="43.64618" lon="3.31284">
        <ele>161.7</ele>
        <time>2024-08-06T06:49:45Z</time>
      </trkpt>
      <trkpt lat="43.64619" lon="3.3128">
        <ele>161.6</ele>
        <time>2024-08-06T06:49:46Z</time>
      </trkpt>
      <trkpt lat="43.64621" lon="3.31276">
        <ele>161.7</ele>
        <time>2024-08-06T06:49:47Z</time>
      </trkpt>
      <trkpt lat="43.64623" lon="3.31271">
        <ele>161.9</ele>
        <time>2024-08-06T06:49:48Z</time>
      </trkpt>
      <trkpt lat="43.64624" lon="3.31267">
        <ele>161.9</ele>
        <time>2024-08-06T06:49:49Z</time>
      </trkpt>
      <trkpt lat="43.64626" lon="3.31263">
        <ele>162.1</ele>
        <time>2024-08-06T06:49:50Z</time>
      </trkpt>
      <trkpt lat="43.64628" lon="3.3126">
        <ele>162.2</ele>
        <time>2024-08-06T06:49:51Z</time>
      </trkpt>
      <trkpt lat="43.6463" lon="3.31257">
        <ele>162.4</ele>
        <time>2024-08-06T06:49:52Z</time>
      </trkpt>
      <trkpt lat="43.64632" lon="3.31254">
        <ele>162.5</ele>
        <time>2024-08-06T06:49:53Z</time>
      </trkpt>
      <trkpt lat="43.64634" lon="3.31251">
        <ele>162.6</ele>
        <time>2024-08-06T06:49:54Z</time>
      </trkpt>
      <trkpt lat="43.64637" lon="3.31248">
        <ele>162.8</ele>
        <time>2024-08-06T06:49:55Z</time>
      </trkpt>
      <trkpt lat="43.6464" lon="3.31246">
        <ele>162.9</ele>
        <time>2024-08-06T06:49:56Z</time>
      </trkpt>
      <trkpt lat="43.64642" lon="3.31243">
        <ele>162.9</ele>
        <time>2024-08-06T06:49:57Z</time>
      </trkpt>
      <trkpt lat="43.64645" lon="3.3124">
        <ele>162.9</ele>
        <time>2024-08-06T06:49:58Z</time>
      </trkpt>
      <trkpt lat="43.64648" lon="3.31237">
        <ele>163</ele>
        <time>2024-08-06T06:49:59Z</time>
      </trkpt>
      <trkpt lat="43.6465" lon="3.31234">
        <ele>163.1</ele>
        <time>2024-08-06T06:50:00Z</time>
      </trkpt>
      <trkpt lat="43.64652" lon="3.31231">
        <ele>163.1</ele>
        <time>2024-08-06T06:50:01Z</time>
      </trkpt>
      <trkpt lat="43.64655" lon="3.31228">
        <ele>163.2</ele>
        <time>2024-08-06T06:50:02Z</time>
      </trkpt>
      <trkpt lat="43.64658" lon="3.31225">
        <ele>163.4</ele>
        <time>2024-08-06T06:50:03Z</time>
      </trkpt>
      <trkpt lat="43.6466" lon="3.31222">
        <ele>163.5</ele>
        <time>2024-08-06T06:50:04Z</time>
      </trkpt>
      <trkpt lat="43.64663" lon="3.31219">
        <ele>163.6</ele>
        <time>2024-08-06T06:50:05Z</time>
      </trkpt>
      <trkpt lat="43.64665" lon="3.31216">
        <ele>163.7</ele>
        <time>2024-08-06T06:50:06Z</time>
      </trkpt>
      <trkpt lat="43.64668" lon="3.31213">
        <ele>163.7</ele>
        <time>2024-08-06T06:50:07Z</time>
      </trkpt>
      <trkpt lat="43.6467" lon="3.3121">
        <ele>163.7</ele>
        <time>2024-08-06T06:50:08Z</time>
      </trkpt>
      <trkpt lat="43.64673" lon="3.31208">
        <ele>163.7</ele>
        <time>2024-08-06T06:50:09Z</time>
      </trkpt>
      <trkpt lat="43.64676" lon="3.31205">
        <ele>163.7</ele>
        <time>2024-08-06T06:50:10Z</time>
      </trkpt>
      <trkpt lat="43.64678" lon="3.31202">
        <ele>163.7</ele>
        <time>2024-08-06T06:50:11Z</time>
      </trkpt>
      <trkpt lat="43.64681" lon="3.31199">
        <ele>163.7</ele>
        <time>2024-08-06T06:50:12Z</time>
      </trkpt>
      <trkpt lat="43.64684" lon="3.31195">
        <ele>163.6</ele>
        <time>2024-08-06T06:50:13Z</time>
      </trkpt>
      <trkpt lat="43.64687" lon="3.31192">
        <ele>163.7</ele>
        <time>2024-08-06T06:50:14Z</time>
      </trkpt>
      <trkpt lat="43.64689" lon="3.31189">
        <ele>163.8</ele>
        <time>2024-08-06T06:50:15Z</time>
      </trkpt>
      <trkpt lat="43.64692" lon="3.31187">
        <ele>163.9</ele>
        <time>2024-08-06T06:50:16Z</time>
      </trkpt>
      <trkpt lat="43.64695" lon="3.31184">
        <ele>164</ele>
        <time>2024-08-06T06:50:17Z</time>
      </trkpt>
      <trkpt lat="43.64697" lon="3.31181">
        <ele>164.1</ele>
        <time>2024-08-06T06:50:18Z</time>
      </trkpt>
      <trkpt lat="43.647" lon="3.31178">
        <ele>164.3</ele>
        <time>2024-08-06T06:50:19Z</time>
      </trkpt>
      <trkpt lat="43.64702" lon="3.31175">
        <ele>164.4</ele>
        <time>2024-08-06T06:50:20Z</time>
      </trkpt>
      <trkpt lat="43.64705" lon="3.31172">
        <ele>164.5</ele>
        <time>2024-08-06T06:50:21Z</time>
      </trkpt>
      <trkpt lat="43.64708" lon="3.31169">
        <ele>164.5</ele>
        <time>2024-08-06T06:50:22Z</time>
      </trkpt>
      <trkpt lat="43.6471" lon="3.31167">
        <ele>164.6</ele>
        <time>2024-08-06T06:50:23Z</time>
      </trkpt>
      <trkpt lat="43.64713" lon="3.31164">
        <ele>164.6</ele>
        <time>2024-08-06T06:50:24Z</time>
      </trkpt>
      <trkpt lat="43.64715" lon="3.31162">
        <ele>164.7</ele>
        <time>2024-08-06T06:50:25Z</time>
      </trkpt>
      <trkpt lat="43.64718" lon="3.31159">
        <ele>164.8</ele>
        <time>2024-08-06T06:50:26Z</time>
      </trkpt>
      <trkpt lat="43.64721" lon="3.31156">
        <ele>164.9</ele>
        <time>2024-08-06T06:50:27Z</time>
      </trkpt>
      <trkpt lat="43.64723" lon="3.31152">
        <ele>165</ele>
        <time>2024-08-06T06:50:28Z</time>
      </trkpt>
      <trkpt lat="43.64725" lon="3.31149">
        <ele>165.1</ele>
        <time>2024-08-06T06:50:29Z</time>
      </trkpt>
      <trkpt lat="43.64728" lon="3.31147">
        <ele>165.3</ele>
        <time>2024-08-06T06:50:30Z</time>
      </trkpt>
      <trkpt lat="43.64731" lon="3.31144">
        <ele>165.4</ele>
        <time>2024-08-06T06:50:31Z</time>
      </trkpt>
      <trkpt lat="43.64734" lon="3.31141">
        <ele>165.5</ele>
        <time>2024-08-06T06:50:32Z</time>
      </trkpt>
      <trkpt lat="43.64737" lon="3.31138">
        <ele>165.5</ele>
        <time>2024-08-06T06:50:33Z</time>
      </trkpt>
      <trkpt lat="43.64739" lon="3.31135">
        <ele>165.5</ele>
        <time>2024-08-06T06:50:34Z</time>
      </trkpt>
      <trkpt lat="43.64741" lon="3.31132">
        <ele>165.4</ele>
        <time>2024-08-06T06:50:35Z</time>
      </trkpt>
      <trkpt lat="43.64744" lon="3.31129">
        <ele>165.4</ele>
        <time>2024-08-06T06:50:36Z</time>
      </trkpt>
      <trkpt lat="43.64746" lon="3.31125">
        <ele>165.4</ele>
        <time>2024-08-06T06:50:37Z</time>
      </trkpt>
      <trkpt lat="43.64749" lon="3.31122">
        <ele>165.4</ele>
        <time>2024-08-06T06:50:38Z</time>
      </trkpt>
      <trkpt lat="43.64752" lon="3.31118">
        <ele>165.4</ele>
        <time>2024-08-06T06:50:39Z</time>
      </trkpt>
      <trkpt lat="43.64754" lon="3.31114">
        <ele>165.4</ele>
        <time>2024-08-06T06:50:40Z</time>
      </trkpt>
      <trkpt lat="43.64756" lon="3.31111">
        <ele>165.4</ele>
        <time>2024-08-06T06:50:41Z</time>
      </trkpt>
      <trkpt lat="43.64758" lon="3.31107">
        <ele>165.5</ele>
        <time>2024-08-06T06:50:42Z</time>
      </trkpt>
      <trkpt lat="43.6476" lon="3.31104">
        <ele>165.6</ele>
        <time>2024-08-06T06:50:43Z</time>
      </trkpt>
      <trkpt lat="43.64763" lon="3.311">
        <ele>165.7</ele>
        <time>2024-08-06T06:50:44Z</time>
      </trkpt>
      <trkpt lat="43.64767" lon="3.31099">
        <ele>166</ele>
        <time>2024-08-06T06:50:45Z</time>
      </trkpt>
      <trkpt lat="43.6477" lon="3.31099">
        <ele>166.1</ele>
        <time>2024-08-06T06:50:46Z</time>
      </trkpt>
      <trkpt lat="43.64773" lon="3.311">
        <ele>166.3</ele>
        <time>2024-08-06T06:50:47Z</time>
      </trkpt>
      <trkpt lat="43.64777" lon="3.31101">
        <ele>166.6</ele>
        <time>2024-08-06T06:50:48Z</time>
      </trkpt>
      <trkpt lat="43.6478" lon="3.31102">
        <ele>166.8</ele>
        <time>2024-08-06T06:50:49Z</time>
      </trkpt>
      <trkpt lat="43.64783" lon="3.31104">
        <ele>167.1</ele>
        <time>2024-08-06T06:50:50Z</time>
      </trkpt>
      <trkpt lat="43.64786" lon="3.31106">
        <ele>167.4</ele>
        <time>2024-08-06T06:50:51Z</time>
      </trkpt>
      <trkpt lat="43.6479" lon="3.31108">
        <ele>167.7</ele>
        <time>2024-08-06T06:50:52Z</time>
      </trkpt>
      <trkpt lat="43.64793" lon="3.3111">
        <ele>168</ele>
        <time>2024-08-06T06:50:53Z</time>
      </trkpt>
      <trkpt lat="43.64796" lon="3.31112">
        <ele>168.3</ele>
        <time>2024-08-06T06:50:54Z</time>
      </trkpt>
      <trkpt lat="43.648" lon="3.31114">
        <ele>168.7</ele>
        <time>2024-08-06T06:50:55Z</time>
      </trkpt>
      <trkpt lat="43.64803" lon="3.31115">
        <ele>169</ele>
        <time>2024-08-06T06:50:56Z</time>
      </trkpt>
      <trkpt lat="43.64807" lon="3.31117">
        <ele>169.3</ele>
        <time>2024-08-06T06:50:57Z</time>
      </trkpt>
      <trkpt lat="43.6481" lon="3.31119">
        <ele>169.5</ele>
        <time>2024-08-06T06:50:58Z</time>
      </trkpt>
      <trkpt lat="43.64813" lon="3.31121">
        <ele>169.7</ele>
        <time>2024-08-06T06:50:59Z</time>
      </trkpt>
      <trkpt lat="43.64816" lon="3.31122">
        <ele>169.9</ele>
        <time>2024-08-06T06:51:00Z</time>
      </trkpt>
      <trkpt lat="43.6482" lon="3.31124">
        <ele>170.2</ele>
        <time>2024-08-06T06:51:01Z</time>
      </trkpt>
      <trkpt lat="43.64823" lon="3.31126">
        <ele>170.5</ele>
        <time>2024-08-06T06:51:02Z</time>
      </trkpt>
      <trkpt lat="43.64827" lon="3.31126">
        <ele>170.7</ele>
        <time>2024-08-06T06:51:03Z</time>
      </trkpt>
      <trkpt lat="43.64831" lon="3.31127">
        <ele>171</ele>
        <time>2024-08-06T06:51:04Z</time>
      </trkpt>
      <trkpt lat="43.64834" lon="3.31126">
        <ele>171.1</ele>
        <time>2024-08-06T06:51:05Z</time>
      </trkpt>
      <trkpt lat="43.64838" lon="3.31125">
        <ele>171.3</ele>
        <time>2024-08-06T06:51:06Z</time>
      </trkpt>
      <trkpt lat="43.64841" lon="3.31123">
        <ele>171.4</ele>
        <time>2024-08-06T06:51:07Z</time>
      </trkpt>
      <trkpt lat="43.64844" lon="3.3112">
        <ele>171.5</ele>
        <time>2024-08-06T06:51:08Z</time>
      </trkpt>
      <trkpt lat="43.64847" lon="3.31118">
        <ele>171.7</ele>
        <time>2024-08-06T06:51:09Z</time>
      </trkpt>
      <trkpt lat="43.6485" lon="3.31116">
        <ele>171.9</ele>
        <time>2024-08-06T06:51:10Z</time>
      </trkpt>
      <trkpt lat="43.64853" lon="3.31115">
        <ele>172.2</ele>
        <time>2024-08-06T06:51:11Z</time>
      </trkpt>
      <trkpt lat="43.64856" lon="3.31113">
        <ele>172.5</ele>
        <time>2024-08-06T06:51:12Z</time>
      </trkpt>
      <trkpt lat="43.64859" lon="3.31112">
        <ele>172.8</ele>
        <time>2024-08-06T06:51:13Z</time>
      </trkpt>
      <trkpt lat="43.64862" lon="3.31111">
        <ele>173</ele>
        <time>2024-08-06T06:51:14Z</time>
      </trkpt>
      <trkpt lat="43.64866" lon="3.3111">
        <ele>173.1</ele>
        <time>2024-08-06T06:51:15Z</time>
      </trkpt>
      <trkpt lat="43.6487" lon="3.31109">
        <ele>173.3</ele>
        <time>2024-08-06T06:51:16Z</time>
      </trkpt>
      <trkpt lat="43.64873" lon="3.31109">
        <ele>173.4</ele>
        <time>2024-08-06T06:51:17Z</time>
      </trkpt>
      <trkpt lat="43.64876" lon="3.3111">
        <ele>173.5</ele>
        <time>2024-08-06T06:51:18Z</time>
      </trkpt>
      <trkpt lat="43.64879" lon="3.3111">
        <ele>173.6</ele>
        <time>2024-08-06T06:51:19Z</time>
      </trkpt>
      <trkpt lat="43.64883" lon="3.31111">
        <ele>173.8</ele>
        <time>2024-08-06T06:51:20Z</time>
      </trkpt>
      <trkpt lat="43.64886" lon="3.31111">
        <ele>173.9</ele>
        <time>2024-08-06T06:51:21Z</time>
      </trkpt>
      <trkpt lat="43.64889" lon="3.31111">
        <ele>174</ele>
        <time>2024-08-06T06:51:22Z</time>
      </trkpt>
      <trkpt lat="43.64892" lon="3.31112">
        <ele>174</ele>
        <time>2024-08-06T06:51:23Z</time>
      </trkpt>
      <trkpt lat="43.64895" lon="3.31112">
        <ele>174</ele>
        <time>2024-08-06T06:51:24Z</time>
      </trkpt>
      <trkpt lat="43.64897" lon="3.31112">
        <ele>174</ele>
        <time>2024-08-06T06:51:25Z</time>
      </trkpt>
      <trkpt lat="43.649" lon="3.31113">
        <ele>174</ele>
        <time>2024-08-06T06:51:26Z</time>
      </trkpt>
      <trkpt lat="43.64903" lon="3.31113">
        <ele>174</ele>
        <time>2024-08-06T06:51:27Z</time>
      </trkpt>
      <trkpt lat="43.64906" lon="3.31114">
        <ele>173.9</ele>
        <time>2024-08-06T06:51:28Z</time>
      </trkpt>
      <trkpt lat="43.64908" lon="3.31115">
        <ele>173.9</ele>
        <time>2024-08-06T06:51:29Z</time>
      </trkpt>
      <trkpt lat="43.6491" lon="3.31115">
        <ele>173.9</ele>
        <time>2024-08-06T06:51:30Z</time>
      </trkpt>
      <trkpt lat="43.64912" lon="3.31116">
        <ele>173.9</ele>
        <time>2024-08-06T06:51:31Z</time>
      </trkpt>
      <trkpt lat="43.64915" lon="3.31118">
        <ele>173.8</ele>
        <time>2024-08-06T06:51:32Z</time>
      </trkpt>
      <trkpt lat="43.64918" lon="3.31118">
        <ele>173.8</ele>
        <time>2024-08-06T06:51:33Z</time>
      </trkpt>
      <trkpt lat="43.64922" lon="3.31116">
        <ele>173.8</ele>
        <time>2024-08-06T06:51:34Z</time>
      </trkpt>
      <trkpt lat="43.64924" lon="3.31113">
        <ele>173.9</ele>
        <time>2024-08-06T06:51:35Z</time>
      </trkpt>
      <trkpt lat="43.64926" lon="3.3111">
        <ele>174</ele>
        <time>2024-08-06T06:51:36Z</time>
      </trkpt>
      <trkpt lat="43.64927" lon="3.31106">
        <ele>174.2</ele>
        <time>2024-08-06T06:51:37Z</time>
      </trkpt>
      <trkpt lat="43.64929" lon="3.31102">
        <ele>174.3</ele>
        <time>2024-08-06T06:51:38Z</time>
      </trkpt>
      <trkpt lat="43.64931" lon="3.31098">
        <ele>174.5</ele>
        <time>2024-08-06T06:51:39Z</time>
      </trkpt>
      <trkpt lat="43.64933" lon="3.31094">
        <ele>174.6</ele>
        <time>2024-08-06T06:51:40Z</time>
      </trkpt>
      <trkpt lat="43.64934" lon="3.3109">
        <ele>174.8</ele>
        <time>2024-08-06T06:51:41Z</time>
      </trkpt>
      <trkpt lat="43.64936" lon="3.31087">
        <ele>174.9</ele>
        <time>2024-08-06T06:51:42Z</time>
      </trkpt>
      <trkpt lat="43.64937" lon="3.31083">
        <ele>175</ele>
        <time>2024-08-06T06:51:43Z</time>
      </trkpt>
      <trkpt lat="43.64939" lon="3.3108">
        <ele>175</ele>
        <time>2024-08-06T06:51:44Z</time>
      </trkpt>
      <trkpt lat="43.64941" lon="3.31077">
        <ele>175</ele>
        <time>2024-08-06T06:51:45Z</time>
      </trkpt>
      <trkpt lat="43.64942" lon="3.31073">
        <ele>175</ele>
        <time>2024-08-06T06:51:46Z</time>
      </trkpt>
      <trkpt lat="43.64944" lon="3.31069">
        <ele>175</ele>
        <time>2024-08-06T06:51:47Z</time>
      </trkpt>
      <trkpt lat="43.64946" lon="3.31065">
        <ele>175</ele>
        <time>2024-08-06T06:51:48Z</time>
      </trkpt>
      <trkpt lat="43.64948" lon="3.31062">
        <ele>175.1</ele>
        <time>2024-08-06T06:51:49Z</time>
      </trkpt>
      <trkpt lat="43.6495" lon="3.31058">
        <ele>175.2</ele>
        <time>2024-08-06T06:51:50Z</time>
      </trkpt>
      <trkpt lat="43.64953" lon="3.31054">
        <ele>175.3</ele>
        <time>2024-08-06T06:51:51Z</time>
      </trkpt>
      <trkpt lat="43.64955" lon="3.3105">
        <ele>175.4</ele>
        <time>2024-08-06T06:51:52Z</time>
      </trkpt>
      <trkpt lat="43.64957" lon="3.31046">
        <ele>175.5</ele>
        <time>2024-08-06T06:51:53Z</time>
      </trkpt>
      <trkpt lat="43.64959" lon="3.31042">
        <ele>175.5</ele>
        <time>2024-08-06T06:51:54Z</time>
      </trkpt>
      <trkpt lat="43.6496" lon="3.31039">
        <ele>175.6</ele>
        <time>2024-08-06T06:51:55Z</time>
      </trkpt>
      <trkpt lat="43.64962" lon="3.31036">
        <ele>175.6</ele>
        <time>2024-08-06T06:51:56Z</time>
      </trkpt>
      <trkpt lat="43.64964" lon="3.31033">
        <ele>175.7</ele>
        <time>2024-08-06T06:51:57Z</time>
      </trkpt>
      <trkpt lat="43.64966" lon="3.31031">
        <ele>175.8</ele>
        <time>2024-08-06T06:51:58Z</time>
      </trkpt>
      <trkpt lat="43.64967" lon="3.31028">
        <ele>175.8</ele>
        <time>2024-08-06T06:51:59Z</time>
      </trkpt>
      <trkpt lat="43.64969" lon="3.31025">
        <ele>176</ele>
        <time>2024-08-06T06:52:00Z</time>
      </trkpt>
      <trkpt lat="43.64971" lon="3.31022">
        <ele>176.2</ele>
        <time>2024-08-06T06:52:01Z</time>
      </trkpt>
      <trkpt lat="43.64973" lon="3.31018">
        <ele>176.4</ele>
        <time>2024-08-06T06:52:02Z</time>
      </trkpt>
      <trkpt lat="43.64976" lon="3.31014">
        <ele>176.5</ele>
        <time>2024-08-06T06:52:03Z</time>
      </trkpt>
      <trkpt lat="43.64978" lon="3.31011">
        <ele>176.6</ele>
        <time>2024-08-06T06:52:04Z</time>
      </trkpt>
      <trkpt lat="43.6498" lon="3.31008">
        <ele>176.7</ele>
        <time>2024-08-06T06:52:05Z</time>
      </trkpt>
      <trkpt lat="43.64983" lon="3.31005">
        <ele>176.8</ele>
        <time>2024-08-06T06:52:06Z</time>
      </trkpt>
      <trkpt lat="43.64985" lon="3.31001">
        <ele>177</ele>
        <time>2024-08-06T06:52:07Z</time>
      </trkpt>
      <trkpt lat="43.64987" lon="3.30998">
        <ele>177.1</ele>
        <time>2024-08-06T06:52:08Z</time>
      </trkpt>
      <trkpt lat="43.64989" lon="3.30994">
        <ele>177.3</ele>
        <time>2024-08-06T06:52:09Z</time>
      </trkpt>
      <trkpt lat="43.64991" lon="3.30991">
        <ele>177.4</ele>
        <time>2024-08-06T06:52:10Z</time>
      </trkpt>
      <trkpt lat="43.64993" lon="3.30988">
        <ele>177.6</ele>
        <time>2024-08-06T06:52:11Z</time>
      </trkpt>
      <trkpt lat="43.64995" lon="3.30985">
        <ele>177.9</ele>
        <time>2024-08-06T06:52:12Z</time>
      </trkpt>
      <trkpt lat="43.64997" lon="3.30982">
        <ele>178.2</ele>
        <time>2024-08-06T06:52:13Z</time>
      </trkpt>
      <trkpt lat="43.64999" lon="3.30979">
        <ele>178.5</ele>
        <time>2024-08-06T06:52:14Z</time>
      </trkpt>
      <trkpt lat="43.65001" lon="3.30976">
        <ele>178.7</ele>
        <time>2024-08-06T06:52:15Z</time>
      </trkpt>
      <trkpt lat="43.65003" lon="3.30973">
        <ele>178.7</ele>
        <time>2024-08-06T06:52:16Z</time>
      </trkpt>
      <trkpt lat="43.65005" lon="3.3097">
        <ele>178.7</ele>
        <time>2024-08-06T06:52:17Z</time>
      </trkpt>
      <trkpt lat="43.65007" lon="3.30967">
        <ele>178.7</ele>
        <time>2024-08-06T06:52:18Z</time>
      </trkpt>
      <trkpt lat="43.6501" lon="3.30964">
        <ele>178.7</ele>
        <time>2024-08-06T06:52:19Z</time>
      </trkpt>
      <trkpt lat="43.65012" lon="3.30961">
        <ele>178.7</ele>
        <time>2024-08-06T06:52:20Z</time>
      </trkpt>
      <trkpt lat="43.65014" lon="3.30957">
        <ele>178.8</ele>
        <time>2024-08-06T06:52:21Z</time>
      </trkpt>
      <trkpt lat="43.65015" lon="3.30954">
        <ele>178.9</ele>
        <time>2024-08-06T06:52:22Z</time>
      </trkpt>
      <trkpt lat="43.65016" lon="3.3095">
        <ele>179.1</ele>
        <time>2024-08-06T06:52:23Z</time>
      </trkpt>
      <trkpt lat="43.65016" lon="3.30945">
        <ele>179.4</ele>
        <time>2024-08-06T06:52:24Z</time>
      </trkpt>
      <trkpt lat="43.65014" lon="3.30941">
        <ele>179.7</ele>
        <time>2024-08-06T06:52:25Z</time>
      </trkpt>
      <trkpt lat="43.65011" lon="3.30937">
        <ele>180</ele>
        <time>2024-08-06T06:52:26Z</time>
      </trkpt>
      <trkpt lat="43.65008" lon="3.30934">
        <ele>180.2</ele>
        <time>2024-08-06T06:52:27Z</time>
      </trkpt>
      <trkpt lat="43.65006" lon="3.30932">
        <ele>180.3</ele>
        <time>2024-08-06T06:52:28Z</time>
      </trkpt>
      <trkpt lat="43.65004" lon="3.3093">
        <ele>180.5</ele>
        <time>2024-08-06T06:52:29Z</time>
      </trkpt>
      <trkpt lat="43.65002" lon="3.30927">
        <ele>180.6</ele>
        <time>2024-08-06T06:52:30Z</time>
      </trkpt>
      <trkpt lat="43.64999" lon="3.30925">
        <ele>180.6</ele>
        <time>2024-08-06T06:52:31Z</time>
      </trkpt>
      <trkpt lat="43.64996" lon="3.30923">
        <ele>180.4</ele>
        <time>2024-08-06T06:52:32Z</time>
      </trkpt>
      <trkpt lat="43.64994" lon="3.3092">
        <ele>180.3</ele>
        <time>2024-08-06T06:52:33Z</time>
      </trkpt>
      <trkpt lat="43.64992" lon="3.30917">
        <ele>180.1</ele>
        <time>2024-08-06T06:52:34Z</time>
      </trkpt>
      <trkpt lat="43.6499" lon="3.30915">
        <ele>179.9</ele>
        <time>2024-08-06T06:52:35Z</time>
      </trkpt>
      <trkpt lat="43.64988" lon="3.30912">
        <ele>179.8</ele>
        <time>2024-08-06T06:52:36Z</time>
      </trkpt>
      <trkpt lat="43.64987" lon="3.30909">
        <ele>179.7</ele>
        <time>2024-08-06T06:52:37Z</time>
      </trkpt>
      <trkpt lat="43.64985" lon="3.30906">
        <ele>179.6</ele>
        <time>2024-08-06T06:52:38Z</time>
      </trkpt>
      <trkpt lat="43.64984" lon="3.30902">
        <ele>179.6</ele>
        <time>2024-08-06T06:52:39Z</time>
      </trkpt>
      <trkpt lat="43.64985" lon="3.30897">
        <ele>179.8</ele>
        <time>2024-08-06T06:52:40Z</time>
      </trkpt>
      <trkpt lat="43.64985" lon="3.30893">
        <ele>179.8</ele>
        <time>2024-08-06T06:52:41Z</time>
      </trkpt>
      <trkpt lat="43.64986" lon="3.30888">
        <ele>180</ele>
        <time>2024-08-06T06:52:42Z</time>
      </trkpt>
      <trkpt lat="43.64986" lon="3.30885">
        <ele>179.9</ele>
        <time>2024-08-06T06:52:43Z</time>
      </trkpt>
      <trkpt lat="43.64987" lon="3.30881">
        <ele>179.9</ele>
        <time>2024-08-06T06:52:44Z</time>
      </trkpt>
      <trkpt lat="43.64989" lon="3.30875">
        <ele>180</ele>
        <time>2024-08-06T06:52:45Z</time>
      </trkpt>
      <trkpt lat="43.6499" lon="3.3087">
        <ele>180</ele>
        <time>2024-08-06T06:52:46Z</time>
      </trkpt>
      <trkpt lat="43.64991" lon="3.30865">
        <ele>180.1</ele>
        <time>2024-08-06T06:52:47Z</time>
      </trkpt>
      <trkpt lat="43.64992" lon="3.30861">
        <ele>180.1</ele>
        <time>2024-08-06T06:52:48Z</time>
      </trkpt>
      <trkpt lat="43.64994" lon="3.30857">
        <ele>180.2</ele>
        <time>2024-08-06T06:52:49Z</time>
      </trkpt>
      <trkpt lat="43.64995" lon="3.30853">
        <ele>180.2</ele>
        <time>2024-08-06T06:52:50Z</time>
      </trkpt>
      <trkpt lat="43.64996" lon="3.30849">
        <ele>180.2</ele>
        <time>2024-08-06T06:52:51Z</time>
      </trkpt>
      <trkpt lat="43.64997" lon="3.30846">
        <ele>180.2</ele>
        <time>2024-08-06T06:52:52Z</time>
      </trkpt>
      <trkpt lat="43.64998" lon="3.30842">
        <ele>180.1</ele>
        <time>2024-08-06T06:52:53Z</time>
      </trkpt>
      <trkpt lat="43.65" lon="3.30838">
        <ele>180.2</ele>
        <time>2024-08-06T06:52:54Z</time>
      </trkpt>
      <trkpt lat="43.65001" lon="3.30835">
        <ele>180.1</ele>
        <time>2024-08-06T06:52:55Z</time>
      </trkpt>
      <trkpt lat="43.65002" lon="3.30831">
        <ele>180.1</ele>
        <time>2024-08-06T06:52:56Z</time>
      </trkpt>
      <trkpt lat="43.65003" lon="3.30827">
        <ele>180</ele>
        <time>2024-08-06T06:52:57Z</time>
      </trkpt>
      <trkpt lat="43.65004" lon="3.30824">
        <ele>180</ele>
        <time>2024-08-06T06:52:58Z</time>
      </trkpt>
      <trkpt lat="43.65005" lon="3.3082">
        <ele>180</ele>
        <time>2024-08-06T06:52:59Z</time>
      </trkpt>
      <trkpt lat="43.65006" lon="3.30817">
        <ele>180</ele>
        <time>2024-08-06T06:53:00Z</time>
      </trkpt>
      <trkpt lat="43.65008" lon="3.30813">
        <ele>180.1</ele>
        <time>2024-08-06T06:53:01Z</time>
      </trkpt>
      <trkpt lat="43.65009" lon="3.30809">
        <ele>180.1</ele>
        <time>2024-08-06T06:53:02Z</time>
      </trkpt>
      <trkpt lat="43.65011" lon="3.30805">
        <ele>180.2</ele>
        <time>2024-08-06T06:53:03Z</time>
      </trkpt>
      <trkpt lat="43.65012" lon="3.30801">
        <ele>180.2</ele>
        <time>2024-08-06T06:53:04Z</time>
      </trkpt>
      <trkpt lat="43.65013" lon="3.30797">
        <ele>180.2</ele>
        <time>2024-08-06T06:53:05Z</time>
      </trkpt>
      <trkpt lat="43.65015" lon="3.30793">
        <ele>180.4</ele>
        <time>2024-08-06T06:53:06Z</time>
      </trkpt>
      <trkpt lat="43.65016" lon="3.30789">
        <ele>180.5</ele>
        <time>2024-08-06T06:53:07Z</time>
      </trkpt>
      <trkpt lat="43.65017" lon="3.30786">
        <ele>180.6</ele>
        <time>2024-08-06T06:53:08Z</time>
      </trkpt>
      <trkpt lat="43.65019" lon="3.30782">
        <ele>180.8</ele>
        <time>2024-08-06T06:53:09Z</time>
      </trkpt>
      <trkpt lat="43.65021" lon="3.30778">
        <ele>181</ele>
        <time>2024-08-06T06:53:10Z</time>
      </trkpt>
      <trkpt lat="43.65022" lon="3.30773">
        <ele>181</ele>
        <time>2024-08-06T06:53:11Z</time>
      </trkpt>
      <trkpt lat="43.65024" lon="3.30769">
        <ele>181.1</ele>
        <time>2024-08-06T06:53:12Z</time>
      </trkpt>
      <trkpt lat="43.65026" lon="3.30764">
        <ele>181.2</ele>
        <time>2024-08-06T06:53:13Z</time>
      </trkpt>
      <trkpt lat="43.65028" lon="3.3076">
        <ele>181.4</ele>
        <time>2024-08-06T06:53:14Z</time>
      </trkpt>
      <trkpt lat="43.6503" lon="3.30757">
        <ele>181.4</ele>
        <time>2024-08-06T06:53:15Z</time>
      </trkpt>
      <trkpt lat="43.65032" lon="3.30753">
        <ele>181.4</ele>
        <time>2024-08-06T06:53:16Z</time>
      </trkpt>
      <trkpt lat="43.65034" lon="3.30749">
        <ele>181.4</ele>
        <time>2024-08-06T06:53:17Z</time>
      </trkpt>
      <trkpt lat="43.65035" lon="3.30746">
        <ele>181.3</ele>
        <time>2024-08-06T06:53:18Z</time>
      </trkpt>
      <trkpt lat="43.65037" lon="3.30743">
        <ele>181.3</ele>
        <time>2024-08-06T06:53:19Z</time>
      </trkpt>
      <trkpt lat="43.65039" lon="3.3074">
        <ele>181.4</ele>
        <time>2024-08-06T06:53:20Z</time>
      </trkpt>
      <trkpt lat="43.65042" lon="3.30737">
        <ele>181.6</ele>
        <time>2024-08-06T06:53:21Z</time>
      </trkpt>
      <trkpt lat="43.65044" lon="3.30734">
        <ele>181.7</ele>
        <time>2024-08-06T06:53:22Z</time>
      </trkpt>
      <trkpt lat="43.65047" lon="3.30731">
        <ele>182</ele>
        <time>2024-08-06T06:53:23Z</time>
      </trkpt>
      <trkpt lat="43.65049" lon="3.30729">
        <ele>182.2</ele>
        <time>2024-08-06T06:53:24Z</time>
      </trkpt>
      <trkpt lat="43.65051" lon="3.30725">
        <ele>182.4</ele>
        <time>2024-08-06T06:53:25Z</time>
      </trkpt>
      <trkpt lat="43.65053" lon="3.30722">
        <ele>182.6</ele>
        <time>2024-08-06T06:53:26Z</time>
      </trkpt>
      <trkpt lat="43.65055" lon="3.30719">
        <ele>182.8</ele>
        <time>2024-08-06T06:53:27Z</time>
      </trkpt>
      <trkpt lat="43.65058" lon="3.30716">
        <ele>182.9</ele>
        <time>2024-08-06T06:53:28Z</time>
      </trkpt>
      <trkpt lat="43.6506" lon="3.30712">
        <ele>182.9</ele>
        <time>2024-08-06T06:53:29Z</time>
      </trkpt>
      <trkpt lat="43.65063" lon="3.30709">
        <ele>182.9</ele>
        <time>2024-08-06T06:53:30Z</time>
      </trkpt>
      <trkpt lat="43.65065" lon="3.30706">
        <ele>183</ele>
        <time>2024-08-06T06:53:31Z</time>
      </trkpt>
      <trkpt lat="43.65067" lon="3.30702">
        <ele>183</ele>
        <time>2024-08-06T06:53:32Z</time>
      </trkpt>
      <trkpt lat="43.6507" lon="3.30699">
        <ele>183.1</ele>
        <time>2024-08-06T06:53:33Z</time>
      </trkpt>
      <trkpt lat="43.65072" lon="3.30696">
        <ele>183.2</ele>
        <time>2024-08-06T06:53:34Z</time>
      </trkpt>
      <trkpt lat="43.65074" lon="3.30693">
        <ele>183.3</ele>
        <time>2024-08-06T06:53:35Z</time>
      </trkpt>
      <trkpt lat="43.65076" lon="3.3069">
        <ele>183.3</ele>
        <time>2024-08-06T06:53:36Z</time>
      </trkpt>
      <trkpt lat="43.65079" lon="3.30687">
        <ele>183.4</ele>
        <time>2024-08-06T06:53:37Z</time>
      </trkpt>
      <trkpt lat="43.65081" lon="3.30683">
        <ele>183.4</ele>
        <time>2024-08-06T06:53:38Z</time>
      </trkpt>
      <trkpt lat="43.65083" lon="3.3068">
        <ele>183.4</ele>
        <time>2024-08-06T06:53:39Z</time>
      </trkpt>
      <trkpt lat="43.65085" lon="3.30677">
        <ele>183.4</ele>
        <time>2024-08-06T06:53:40Z</time>
      </trkpt>
      <trkpt lat="43.65087" lon="3.30673">
        <ele>183.4</ele>
        <time>2024-08-06T06:53:41Z</time>
      </trkpt>
      <trkpt lat="43.65089" lon="3.3067">
        <ele>183.3</ele>
        <time>2024-08-06T06:53:42Z</time>
      </trkpt>
      <trkpt lat="43.65091" lon="3.30667">
        <ele>183.3</ele>
        <time>2024-08-06T06:53:43Z</time>
      </trkpt>
      <trkpt lat="43.65093" lon="3.30664">
        <ele>183.3</ele>
        <time>2024-08-06T06:53:44Z</time>
      </trkpt>
      <trkpt lat="43.65095" lon="3.3066">
        <ele>183.3</ele>
        <time>2024-08-06T06:53:45Z</time>
      </trkpt>
      <trkpt lat="43.65098" lon="3.30658">
        <ele>183.4</ele>
        <time>2024-08-06T06:53:46Z</time>
      </trkpt>
      <trkpt lat="43.651" lon="3.30655">
        <ele>183.4</ele>
        <time>2024-08-06T06:53:47Z</time>
      </trkpt>
      <trkpt lat="43.65102" lon="3.30651">
        <ele>183.5</ele>
        <time>2024-08-06T06:53:48Z</time>
      </trkpt>
      <trkpt lat="43.65104" lon="3.30648">
        <ele>183.6</ele>
        <time>2024-08-06T06:53:49Z</time>
      </trkpt>
      <trkpt lat="43.65106" lon="3.30645">
        <ele>183.7</ele>
        <time>2024-08-06T06:53:50Z</time>
      </trkpt>
      <trkpt lat="43.65109" lon="3.30642">
        <ele>183.9</ele>
        <time>2024-08-06T06:53:51Z</time>
      </trkpt>
      <trkpt lat="43.65111" lon="3.30639">
        <ele>184</ele>
        <time>2024-08-06T06:53:52Z</time>
      </trkpt>
      <trkpt lat="43.65113" lon="3.30635">
        <ele>184</ele>
        <time>2024-08-06T06:53:53Z</time>
      </trkpt>
      <trkpt lat="43.65115" lon="3.30632">
        <ele>184</ele>
        <time>2024-08-06T06:53:54Z</time>
      </trkpt>
      <trkpt lat="43.65117" lon="3.30628">
        <ele>184</ele>
        <time>2024-08-06T06:53:55Z</time>
      </trkpt>
      <trkpt lat="43.65119" lon="3.30625">
        <ele>184.1</ele>
        <time>2024-08-06T06:53:56Z</time>
      </trkpt>
      <trkpt lat="43.65122" lon="3.30622">
        <ele>184.2</ele>
        <time>2024-08-06T06:53:57Z</time>
      </trkpt>
      <trkpt lat="43.65124" lon="3.30619">
        <ele>184.2</ele>
        <time>2024-08-06T06:53:58Z</time>
      </trkpt>
      <trkpt lat="43.65127" lon="3.30616">
        <ele>184.3</ele>
        <time>2024-08-06T06:53:59Z</time>
      </trkpt>
      <trkpt lat="43.65129" lon="3.30612">
        <ele>184.3</ele>
        <time>2024-08-06T06:54:00Z</time>
      </trkpt>
      <trkpt lat="43.65132" lon="3.30609">
        <ele>184.3</ele>
        <time>2024-08-06T06:54:01Z</time>
      </trkpt>
      <trkpt lat="43.65135" lon="3.30604">
        <ele>184.2</ele>
        <time>2024-08-06T06:54:02Z</time>
      </trkpt>
      <trkpt lat="43.65137" lon="3.30601">
        <ele>184.1</ele>
        <time>2024-08-06T06:54:03Z</time>
      </trkpt>
      <trkpt lat="43.6514" lon="3.30597">
        <ele>184</ele>
        <time>2024-08-06T06:54:04Z</time>
      </trkpt>
      <trkpt lat="43.65143" lon="3.30593">
        <ele>183.9</ele>
        <time>2024-08-06T06:54:05Z</time>
      </trkpt>
      <trkpt lat="43.65146" lon="3.30588">
        <ele>183.8</ele>
        <time>2024-08-06T06:54:06Z</time>
      </trkpt>
      <trkpt lat="43.65148" lon="3.30584">
        <ele>183.7</ele>
        <time>2024-08-06T06:54:07Z</time>
      </trkpt>
      <trkpt lat="43.65152" lon="3.30581">
        <ele>183.8</ele>
        <time>2024-08-06T06:54:08Z</time>
      </trkpt>
      <trkpt lat="43.65155" lon="3.30579">
        <ele>183.9</ele>
        <time>2024-08-06T06:54:09Z</time>
      </trkpt>
      <trkpt lat="43.65158" lon="3.30577">
        <ele>184</ele>
        <time>2024-08-06T06:54:10Z</time>
      </trkpt>
      <trkpt lat="43.65161" lon="3.30576">
        <ele>184.1</ele>
        <time>2024-08-06T06:54:11Z</time>
      </trkpt>
      <trkpt lat="43.65164" lon="3.30574">
        <ele>184.2</ele>
        <time>2024-08-06T06:54:12Z</time>
      </trkpt>
      <trkpt lat="43.65168" lon="3.30572">
        <ele>184.3</ele>
        <time>2024-08-06T06:54:13Z</time>
      </trkpt>
      <trkpt lat="43.65172" lon="3.3057">
        <ele>184.3</ele>
        <time>2024-08-06T06:54:14Z</time>
      </trkpt>
      <trkpt lat="43.65176" lon="3.30569">
        <ele>184.5</ele>
        <time>2024-08-06T06:54:15Z</time>
      </trkpt>
      <trkpt lat="43.6518" lon="3.30568">
        <ele>184.6</ele>
        <time>2024-08-06T06:54:16Z</time>
      </trkpt>
      <trkpt lat="43.65183" lon="3.30566">
        <ele>184.6</ele>
        <time>2024-08-06T06:54:17Z</time>
      </trkpt>
      <trkpt lat="43.65187" lon="3.30565">
        <ele>184.7</ele>
        <time>2024-08-06T06:54:18Z</time>
      </trkpt>
      <trkpt lat="43.6519" lon="3.30564">
        <ele>184.7</ele>
        <time>2024-08-06T06:54:19Z</time>
      </trkpt>
      <trkpt lat="43.65193" lon="3.30562">
        <ele>184.6</ele>
        <time>2024-08-06T06:54:20Z</time>
      </trkpt>
      <trkpt lat="43.65196" lon="3.30562">
        <ele>184.6</ele>
        <time>2024-08-06T06:54:21Z</time>
      </trkpt>
      <trkpt lat="43.65199" lon="3.3056">
        <ele>184.4</ele>
        <time>2024-08-06T06:54:22Z</time>
      </trkpt>
      <trkpt lat="43.65202" lon="3.3056">
        <ele>184.3</ele>
        <time>2024-08-06T06:54:23Z</time>
      </trkpt>
      <trkpt lat="43.65205" lon="3.3056">
        <ele>184.2</ele>
        <time>2024-08-06T06:54:24Z</time>
      </trkpt>
      <trkpt lat="43.65208" lon="3.3056">
        <ele>184.2</ele>
        <time>2024-08-06T06:54:25Z</time>
      </trkpt>
      <trkpt lat="43.65211" lon="3.3056">
        <ele>184.1</ele>
        <time>2024-08-06T06:54:26Z</time>
      </trkpt>
      <trkpt lat="43.65214" lon="3.3056">
        <ele>184</ele>
        <time>2024-08-06T06:54:27Z</time>
      </trkpt>
      <trkpt lat="43.65217" lon="3.30559">
        <ele>184</ele>
        <time>2024-08-06T06:54:28Z</time>
      </trkpt>
      <trkpt lat="43.6522" lon="3.30557">
        <ele>184</ele>
        <time>2024-08-06T06:54:29Z</time>
      </trkpt>
      <trkpt lat="43.65222" lon="3.30553">
        <ele>184</ele>
        <time>2024-08-06T06:54:30Z</time>
      </trkpt>
      <trkpt lat="43.65224" lon="3.30549">
        <ele>183.9</ele>
        <time>2024-08-06T06:54:31Z</time>
      </trkpt>
      <trkpt lat="43.65226" lon="3.30545">
        <ele>183.7</ele>
        <time>2024-08-06T06:54:32Z</time>
      </trkpt>
      <trkpt lat="43.65229" lon="3.3054">
        <ele>183.5</ele>
        <time>2024-08-06T06:54:33Z</time>
      </trkpt>
      <trkpt lat="43.65231" lon="3.30536">
        <ele>183.4</ele>
        <time>2024-08-06T06:54:34Z</time>
      </trkpt>
      <trkpt lat="43.65234" lon="3.30532">
        <ele>183.2</ele>
        <time>2024-08-06T06:54:35Z</time>
      </trkpt>
      <trkpt lat="43.65237" lon="3.30528">
        <ele>182.9</ele>
        <time>2024-08-06T06:54:36Z</time>
      </trkpt>
      <trkpt lat="43.6524" lon="3.30524">
        <ele>182.8</ele>
        <time>2024-08-06T06:54:37Z</time>
      </trkpt>
      <trkpt lat="43.65243" lon="3.30521">
        <ele>182.6</ele>
        <time>2024-08-06T06:54:38Z</time>
      </trkpt>
      <trkpt lat="43.65247" lon="3.30517">
        <ele>182.5</ele>
        <time>2024-08-06T06:54:39Z</time>
      </trkpt>
      <trkpt lat="43.6525" lon="3.30514">
        <ele>182.5</ele>
        <time>2024-08-06T06:54:40Z</time>
      </trkpt>
      <trkpt lat="43.65253" lon="3.3051">
        <ele>182.6</ele>
        <time>2024-08-06T06:54:41Z</time>
      </trkpt>
      <trkpt lat="43.65256" lon="3.30507">
        <ele>182.6</ele>
        <time>2024-08-06T06:54:42Z</time>
      </trkpt>
      <trkpt lat="43.65259" lon="3.30503">
        <ele>182.6</ele>
        <time>2024-08-06T06:54:43Z</time>
      </trkpt>
      <trkpt lat="43.65262" lon="3.305">
        <ele>182.6</ele>
        <time>2024-08-06T06:54:44Z</time>
      </trkpt>
      <trkpt lat="43.65265" lon="3.30496">
        <ele>182.6</ele>
        <time>2024-08-06T06:54:45Z</time>
      </trkpt>
      <trkpt lat="43.65268" lon="3.30493">
        <ele>182.7</ele>
        <time>2024-08-06T06:54:46Z</time>
      </trkpt>
      <trkpt lat="43.6527" lon="3.30491">
        <ele>182.7</ele>
        <time>2024-08-06T06:54:47Z</time>
      </trkpt>
      <trkpt lat="43.65273" lon="3.30488">
        <ele>182.9</ele>
        <time>2024-08-06T06:54:48Z</time>
      </trkpt>
      <trkpt lat="43.65276" lon="3.30484">
        <ele>183.1</ele>
        <time>2024-08-06T06:54:49Z</time>
      </trkpt>
      <trkpt lat="43.65278" lon="3.30481">
        <ele>183.4</ele>
        <time>2024-08-06T06:54:50Z</time>
      </trkpt>
      <trkpt lat="43.65281" lon="3.30478">
        <ele>183.5</ele>
        <time>2024-08-06T06:54:51Z</time>
      </trkpt>
      <trkpt lat="43.65284" lon="3.30475">
        <ele>183.6</ele>
        <time>2024-08-06T06:54:52Z</time>
      </trkpt>
      <trkpt lat="43.65287" lon="3.30473">
        <ele>183.6</ele>
        <time>2024-08-06T06:54:53Z</time>
      </trkpt>
      <trkpt lat="43.65289" lon="3.3047">
        <ele>183.6</ele>
        <time>2024-08-06T06:54:54Z</time>
      </trkpt>
      <trkpt lat="43.65291" lon="3.30467">
        <ele>183.6</ele>
        <time>2024-08-06T06:54:55Z</time>
      </trkpt>
      <trkpt lat="43.65293" lon="3.30465">
        <ele>183.6</ele>
        <time>2024-08-06T06:54:56Z</time>
      </trkpt>
      <trkpt lat="43.65296" lon="3.30462">
        <ele>183.7</ele>
        <time>2024-08-06T06:54:57Z</time>
      </trkpt>
      <trkpt lat="43.65298" lon="3.30459">
        <ele>183.8</ele>
        <time>2024-08-06T06:54:58Z</time>
      </trkpt>
      <trkpt lat="43.65301" lon="3.30456">
        <ele>184</ele>
        <time>2024-08-06T06:54:59Z</time>
      </trkpt>
      <trkpt lat="43.65304" lon="3.30453">
        <ele>184.3</ele>
        <time>2024-08-06T06:55:00Z</time>
      </trkpt>
      <trkpt lat="43.65307" lon="3.3045">
        <ele>184.6</ele>
        <time>2024-08-06T06:55:01Z</time>
      </trkpt>
      <trkpt lat="43.65309" lon="3.30448">
        <ele>184.8</ele>
        <time>2024-08-06T06:55:02Z</time>
      </trkpt>
      <trkpt lat="43.65312" lon="3.30445">
        <ele>185</ele>
        <time>2024-08-06T06:55:03Z</time>
      </trkpt>
      <trkpt lat="43.65315" lon="3.30442">
        <ele>185</ele>
        <time>2024-08-06T06:55:04Z</time>
      </trkpt>
      <trkpt lat="43.65318" lon="3.30439">
        <ele>185</ele>
        <time>2024-08-06T06:55:05Z</time>
      </trkpt>
      <trkpt lat="43.6532" lon="3.30436">
        <ele>185</ele>
        <time>2024-08-06T06:55:06Z</time>
      </trkpt>
      <trkpt lat="43.65322" lon="3.30434">
        <ele>185</ele>
        <time>2024-08-06T06:55:07Z</time>
      </trkpt>
      <trkpt lat="43.65325" lon="3.30431">
        <ele>185</ele>
        <time>2024-08-06T06:55:08Z</time>
      </trkpt>
      <trkpt lat="43.65328" lon="3.30428">
        <ele>185</ele>
        <time>2024-08-06T06:55:09Z</time>
      </trkpt>
      <trkpt lat="43.65331" lon="3.30425">
        <ele>185</ele>
        <time>2024-08-06T06:55:10Z</time>
      </trkpt>
      <trkpt lat="43.65333" lon="3.30423">
        <ele>185</ele>
        <time>2024-08-06T06:55:11Z</time>
      </trkpt>
      <trkpt lat="43.65336" lon="3.3042">
        <ele>185.1</ele>
        <time>2024-08-06T06:55:12Z</time>
      </trkpt>
      <trkpt lat="43.65338" lon="3.30416">
        <ele>185.2</ele>
        <time>2024-08-06T06:55:13Z</time>
      </trkpt>
      <trkpt lat="43.65341" lon="3.30413">
        <ele>185.4</ele>
        <time>2024-08-06T06:55:14Z</time>
      </trkpt>
      <trkpt lat="43.65343" lon="3.30411">
        <ele>185.5</ele>
        <time>2024-08-06T06:55:15Z</time>
      </trkpt>
      <trkpt lat="43.65346" lon="3.30408">
        <ele>185.6</ele>
        <time>2024-08-06T06:55:16Z</time>
      </trkpt>
      <trkpt lat="43.65348" lon="3.30405">
        <ele>185.7</ele>
        <time>2024-08-06T06:55:17Z</time>
      </trkpt>
      <trkpt lat="43.65351" lon="3.30402">
        <ele>185.8</ele>
        <time>2024-08-06T06:55:18Z</time>
      </trkpt>
      <trkpt lat="43.65353" lon="3.30399">
        <ele>185.9</ele>
        <time>2024-08-06T06:55:19Z</time>
      </trkpt>
      <trkpt lat="43.65356" lon="3.30396">
        <ele>186</ele>
        <time>2024-08-06T06:55:20Z</time>
      </trkpt>
      <trkpt lat="43.65358" lon="3.30393">
        <ele>186</ele>
        <time>2024-08-06T06:55:21Z</time>
      </trkpt>
      <trkpt lat="43.6536" lon="3.30391">
        <ele>186</ele>
        <time>2024-08-06T06:55:22Z</time>
      </trkpt>
      <trkpt lat="43.65363" lon="3.30388">
        <ele>186.2</ele>
        <time>2024-08-06T06:55:23Z</time>
      </trkpt>
      <trkpt lat="43.65365" lon="3.30385">
        <ele>186.4</ele>
        <time>2024-08-06T06:55:24Z</time>
      </trkpt>
      <trkpt lat="43.65368" lon="3.30382">
        <ele>186.7</ele>
        <time>2024-08-06T06:55:25Z</time>
      </trkpt>
      <trkpt lat="43.6537" lon="3.3038">
        <ele>186.9</ele>
        <time>2024-08-06T06:55:26Z</time>
      </trkpt>
      <trkpt lat="43.65373" lon="3.30377">
        <ele>187.1</ele>
        <time>2024-08-06T06:55:27Z</time>
      </trkpt>
      <trkpt lat="43.65375" lon="3.30375">
        <ele>187.3</ele>
        <time>2024-08-06T06:55:28Z</time>
      </trkpt>
      <trkpt lat="43.65377" lon="3.30372">
        <ele>187.4</ele>
        <time>2024-08-06T06:55:29Z</time>
      </trkpt>
      <trkpt lat="43.6538" lon="3.30369">
        <ele>187.6</ele>
        <time>2024-08-06T06:55:30Z</time>
      </trkpt>
      <trkpt lat="43.65382" lon="3.30366">
        <ele>187.7</ele>
        <time>2024-08-06T06:55:31Z</time>
      </trkpt>
      <trkpt lat="43.65385" lon="3.30364">
        <ele>187.8</ele>
        <time>2024-08-06T06:55:32Z</time>
      </trkpt>
      <trkpt lat="43.65387" lon="3.30361">
        <ele>187.9</ele>
        <time>2024-08-06T06:55:33Z</time>
      </trkpt>
      <trkpt lat="43.6539" lon="3.30358">
        <ele>188.2</ele>
        <time>2024-08-06T06:55:34Z</time>
      </trkpt>
      <trkpt lat="43.65392" lon="3.30356">
        <ele>188.3</ele>
        <time>2024-08-06T06:55:35Z</time>
      </trkpt>
      <trkpt lat="43.65394" lon="3.30353">
        <ele>188.5</ele>
        <time>2024-08-06T06:55:36Z</time>
      </trkpt>
      <trkpt lat="43.65397" lon="3.30351">
        <ele>188.8</ele>
        <time>2024-08-06T06:55:37Z</time>
      </trkpt>
      <trkpt lat="43.65399" lon="3.30348">
        <ele>189</ele>
        <time>2024-08-06T06:55:38Z</time>
      </trkpt>
      <trkpt lat="43.65401" lon="3.30346">
        <ele>189.2</ele>
        <time>2024-08-06T06:55:39Z</time>
      </trkpt>
      <trkpt lat="43.65403" lon="3.30344">
        <ele>189.4</ele>
        <time>2024-08-06T06:55:40Z</time>
      </trkpt>
      <trkpt lat="43.65405" lon="3.30341">
        <ele>189.7</ele>
        <time>2024-08-06T06:55:41Z</time>
      </trkpt>
      <trkpt lat="43.65407" lon="3.30339">
        <ele>190</ele>
        <time>2024-08-06T06:55:42Z</time>
      </trkpt>
      <trkpt lat="43.65409" lon="3.30336">
        <ele>190.3</ele>
        <time>2024-08-06T06:55:43Z</time>
      </trkpt>
      <trkpt lat="43.65411" lon="3.30334">
        <ele>190.5</ele>
        <time>2024-08-06T06:55:44Z</time>
      </trkpt>
      <trkpt lat="43.65414" lon="3.30331">
        <ele>190.9</ele>
        <time>2024-08-06T06:55:45Z</time>
      </trkpt>
      <trkpt lat="43.65416" lon="3.30329">
        <ele>191.1</ele>
        <time>2024-08-06T06:55:46Z</time>
      </trkpt>
      <trkpt lat="43.65418" lon="3.30326">
        <ele>191.3</ele>
        <time>2024-08-06T06:55:47Z</time>
      </trkpt>
      <trkpt lat="43.6542" lon="3.30324">
        <ele>191.5</ele>
        <time>2024-08-06T06:55:48Z</time>
      </trkpt>
      <trkpt lat="43.65422" lon="3.30322">
        <ele>191.6</ele>
        <time>2024-08-06T06:55:49Z</time>
      </trkpt>
      <trkpt lat="43.65424" lon="3.3032">
        <ele>191.7</ele>
        <time>2024-08-06T06:55:50Z</time>
      </trkpt>
      <trkpt lat="43.65426" lon="3.30317">
        <ele>191.9</ele>
        <time>2024-08-06T06:55:51Z</time>
      </trkpt>
      <trkpt lat="43.65428" lon="3.30315">
        <ele>192.1</ele>
        <time>2024-08-06T06:55:52Z</time>
      </trkpt>
      <trkpt lat="43.65431" lon="3.30314">
        <ele>192.2</ele>
        <time>2024-08-06T06:55:53Z</time>
      </trkpt>
      <trkpt lat="43.65433" lon="3.30312">
        <ele>192.4</ele>
        <time>2024-08-06T06:55:54Z</time>
      </trkpt>
      <trkpt lat="43.65435" lon="3.30311">
        <ele>192.5</ele>
        <time>2024-08-06T06:55:55Z</time>
      </trkpt>
      <trkpt lat="43.65438" lon="3.3031">
        <ele>192.6</ele>
        <time>2024-08-06T06:55:56Z</time>
      </trkpt>
      <trkpt lat="43.65441" lon="3.30309">
        <ele>192.8</ele>
        <time>2024-08-06T06:55:57Z</time>
      </trkpt>
      <trkpt lat="43.65443" lon="3.30309">
        <ele>192.8</ele>
        <time>2024-08-06T06:55:58Z</time>
      </trkpt>
      <trkpt lat="43.65445" lon="3.30307">
        <ele>192.9</ele>
        <time>2024-08-06T06:55:59Z</time>
      </trkpt>
      <trkpt lat="43.65447" lon="3.30306">
        <ele>193</ele>
        <time>2024-08-06T06:56:00Z</time>
      </trkpt>
      <trkpt lat="43.6545" lon="3.30305">
        <ele>193.1</ele>
        <time>2024-08-06T06:56:01Z</time>
      </trkpt>
      <trkpt lat="43.65452" lon="3.30304">
        <ele>193.2</ele>
        <time>2024-08-06T06:56:02Z</time>
      </trkpt>
      <trkpt lat="43.65454" lon="3.30303">
        <ele>193.4</ele>
        <time>2024-08-06T06:56:03Z</time>
      </trkpt>
      <trkpt lat="43.65456" lon="3.30304">
        <ele>193.2</ele>
        <time>2024-08-06T06:56:04Z</time>
      </trkpt>
      <trkpt lat="43.65458" lon="3.30304">
        <ele>193.2</ele>
        <time>2024-08-06T06:56:05Z</time>
      </trkpt>
      <trkpt lat="43.6546" lon="3.30305">
        <ele>193.1</ele>
        <time>2024-08-06T06:56:06Z</time>
      </trkpt>
      <trkpt lat="43.65462" lon="3.30305">
        <ele>193.1</ele>
        <time>2024-08-06T06:56:07Z</time>
      </trkpt>
      <trkpt lat="43.65463" lon="3.30306">
        <ele>193</ele>
        <time>2024-08-06T06:56:08Z</time>
      </trkpt>
      <trkpt lat="43.65465" lon="3.30307">
        <ele>192.9</ele>
        <time>2024-08-06T06:56:09Z</time>
      </trkpt>
      <trkpt lat="43.65466" lon="3.30309">
        <ele>192.9</ele>
        <time>2024-08-06T06:56:10Z</time>
      </trkpt>
      <trkpt lat="43.65467" lon="3.30311">
        <ele>192.8</ele>
        <time>2024-08-06T06:56:11Z</time>
      </trkpt>
      <trkpt lat="43.65468" lon="3.30313">
        <ele>192.7</ele>
        <time>2024-08-06T06:56:12Z</time>
      </trkpt>
      <trkpt lat="43.65469" lon="3.30315">
        <ele>192.7</ele>
        <time>2024-08-06T06:56:13Z</time>
      </trkpt>
      <trkpt lat="43.6547" lon="3.30316">
        <ele>192.6</ele>
        <time>2024-08-06T06:56:14Z</time>
      </trkpt>
      <trkpt lat="43.6547" lon="3.30317">
        <ele>192.6</ele>
        <time>2024-08-06T06:56:15Z</time>
      </trkpt>
      <trkpt lat="43.65471" lon="3.30318">
        <ele>192.6</ele>
        <time>2024-08-06T06:56:16Z</time>
      </trkpt>
      <trkpt lat="43.65472" lon="3.30319">
        <ele>192.5</ele>
        <time>2024-08-06T06:56:17Z</time>
      </trkpt>
      <trkpt lat="43.65473" lon="3.30321">
        <ele>192.4</ele>
        <time>2024-08-06T06:56:18Z</time>
      </trkpt>
      <trkpt lat="43.65473" lon="3.30322">
        <ele>192.4</ele>
        <time>2024-08-06T06:56:19Z</time>
      </trkpt>
      <trkpt lat="43.65473" lon="3.30323">
        <ele>192.4</ele>
        <time>2024-08-06T06:56:20Z</time>
      </trkpt>
      <trkpt lat="43.65473" lon="3.30324">
        <ele>192.3</ele>
        <time>2024-08-06T06:56:21Z</time>
      </trkpt>
      <trkpt lat="43.65473" lon="3.30324">
        <ele>192.3</ele>
        <time>2024-08-06T06:56:22Z</time>
      </trkpt>
      <trkpt lat="43.65472" lon="3.30325">
        <ele>192.3</ele>
        <time>2024-08-06T06:56:23Z</time>
      </trkpt>
      <trkpt lat="43.65472" lon="3.30327">
        <ele>192.2</ele>
        <time>2024-08-06T06:56:24Z</time>
      </trkpt>
      <trkpt lat="43.65472" lon="3.30327">
        <ele>192.2</ele>
        <time>2024-08-06T06:56:25Z</time>
      </trkpt>
      <trkpt lat="43.65473" lon="3.30328">
        <ele>192.2</ele>
        <time>2024-08-06T06:56:26Z</time>
      </trkpt>
      <trkpt lat="43.65472" lon="3.30329">
        <ele>192.2</ele>
        <time>2024-08-06T06:56:27Z</time>
      </trkpt>
      <trkpt lat="43.65479" lon="3.30333">
        <ele>192</ele>
        <time>2024-08-06T07:10:00Z</time>
      </trkpt>
      <trkpt lat="43.65481" lon="3.30332">
        <ele>192</ele>
        <time>2024-08-06T07:10:01Z</time>
      </trkpt>
      <trkpt lat="43.65483" lon="3.30332">
        <ele>192</ele>
        <time>2024-08-06T07:10:02Z</time>
      </trkpt>
      <trkpt lat="43.65485" lon="3.30334">
        <ele>192</ele>
        <time>2024-08-06T07:10:03Z</time>
      </trkpt>
      <trkpt lat="43.65486" lon="3.30336">
        <ele>191.9</ele>
        <time>2024-08-06T07:10:04Z</time>
      </trkpt>
      <trkpt lat="43.65488" lon="3.30338">
        <ele>191.8</ele>
        <time>2024-08-06T07:10:05Z</time>
      </trkpt>
      <trkpt lat="43.6549" lon="3.30341">
        <ele>191.7</ele>
        <time>2024-08-06T07:10:06Z</time>
      </trkpt>
      <trkpt lat="43.65492" lon="3.30345">
        <ele>191.6</ele>
        <time>2024-08-06T07:10:07Z</time>
      </trkpt>
      <trkpt lat="43.65493" lon="3.3035">
        <ele>191.4</ele>
        <time>2024-08-06T07:10:08Z</time>
      </trkpt>
      <trkpt lat="43.65495" lon="3.30354">
        <ele>191.3</ele>
        <time>2024-08-06T07:10:09Z</time>
      </trkpt>
      <trkpt lat="43.65497" lon="3.30359">
        <ele>191.1</ele>
        <time>2024-08-06T07:10:10Z</time>
      </trkpt>
      <trkpt lat="43.65499" lon="3.30364">
        <ele>190.9</ele>
        <time>2024-08-06T07:10:11Z</time>
      </trkpt>
      <trkpt lat="43.65502" lon="3.30369">
        <ele>190.7</ele>
        <time>2024-08-06T07:10:12Z</time>
      </trkpt>
      <trkpt lat="43.65504" lon="3.30375">
        <ele>190.5</ele>
        <time>2024-08-06T07:10:13Z</time>
      </trkpt>
      <trkpt lat="43.65506" lon="3.30382">
        <ele>190.2</ele>
        <time>2024-08-06T07:10:14Z</time>
      </trkpt>
      <trkpt lat="43.65508" lon="3.30389">
        <ele>190</ele>
        <time>2024-08-06T07:10:15Z</time>
      </trkpt>
      <trkpt lat="43.65511" lon="3.30396">
        <ele>189.6</ele>
        <time>2024-08-06T07:10:16Z</time>
      </trkpt>
      <trkpt lat="43.65514" lon="3.30404">
        <ele>189.2</ele>
        <time>2024-08-06T07:10:17Z</time>
      </trkpt>
      <trkpt lat="43.65516" lon="3.30411">
        <ele>188.9</ele>
        <time>2024-08-06T07:10:18Z</time>
      </trkpt>
      <trkpt lat="43.65519" lon="3.30418">
        <ele>188.7</ele>
        <time>2024-08-06T07:10:19Z</time>
      </trkpt>
      <trkpt lat="43.65522" lon="3.30425">
        <ele>188.6</ele>
        <time>2024-08-06T07:10:20Z</time>
      </trkpt>
      <trkpt lat="43.65525" lon="3.30432">
        <ele>188.4</ele>
        <time>2024-08-06T07:10:21Z</time>
      </trkpt>
      <trkpt lat="43.65527" lon="3.30438">
        <ele>188.2</ele>
        <time>2024-08-06T07:10:22Z</time>
      </trkpt>
      <trkpt lat="43.65529" lon="3.30445">
        <ele>188.1</ele>
        <time>2024-08-06T07:10:23Z</time>
      </trkpt>
      <trkpt lat="43.65532" lon="3.30451">
        <ele>188.3</ele>
        <time>2024-08-06T07:10:24Z</time>
      </trkpt>
      <trkpt lat="43.65535" lon="3.30458">
        <ele>188.5</ele>
        <time>2024-08-06T07:10:25Z</time>
      </trkpt>
      <trkpt lat="43.65538" lon="3.30465">
        <ele>188.7</ele>
        <time>2024-08-06T07:10:26Z</time>
      </trkpt>
      <trkpt lat="43.6554" lon="3.30472">
        <ele>188.9</ele>
        <time>2024-08-06T07:10:27Z</time>
      </trkpt>
      <trkpt lat="43.65542" lon="3.30477">
        <ele>189.1</ele>
        <time>2024-08-06T07:10:28Z</time>
      </trkpt>
      <trkpt lat="43.65544" lon="3.30482">
        <ele>189.3</ele>
        <time>2024-08-06T07:10:29Z</time>
      </trkpt>
      <trkpt lat="43.65545" lon="3.30487">
        <ele>189.4</ele>
        <time>2024-08-06T07:10:30Z</time>
      </trkpt>
      <trkpt lat="43.65547" lon="3.30492">
        <ele>189.6</ele>
        <time>2024-08-06T07:10:31Z</time>
      </trkpt>
      <trkpt lat="43.65549" lon="3.30496">
        <ele>189.7</ele>
        <time>2024-08-06T07:10:32Z</time>
      </trkpt>
      <trkpt lat="43.65551" lon="3.305">
        <ele>189.8</ele>
        <time>2024-08-06T07:10:33Z</time>
      </trkpt>
      <trkpt lat="43.65553" lon="3.30505">
        <ele>190.1</ele>
        <time>2024-08-06T07:10:34Z</time>
      </trkpt>
      <trkpt lat="43.65555" lon="3.3051">
        <ele>190.3</ele>
        <time>2024-08-06T07:10:35Z</time>
      </trkpt>
      <trkpt lat="43.65558" lon="3.30516">
        <ele>190.8</ele>
        <time>2024-08-06T07:10:36Z</time>
      </trkpt>
      <trkpt lat="43.65559" lon="3.30522">
        <ele>191.1</ele>
        <time>2024-08-06T07:10:37Z</time>
      </trkpt>
      <trkpt lat="43.65561" lon="3.30527">
        <ele>191.4</ele>
        <time>2024-08-06T07:10:38Z</time>
      </trkpt>
      <trkpt lat="43.65563" lon="3.30532">
        <ele>191.7</ele>
        <time>2024-08-06T07:10:39Z</time>
      </trkpt>
      <trkpt lat="43.65565" lon="3.30536">
        <ele>192</ele>
        <time>2024-08-06T07:10:40Z</time>
      </trkpt>
      <trkpt lat="43.65566" lon="3.3054">
        <ele>192.2</ele>
        <time>2024-08-06T07:10:41Z</time>
      </trkpt>
      <trkpt lat="43.65568" lon="3.30545">
        <ele>192.5</ele>
        <time>2024-08-06T07:10:42Z</time>
      </trkpt>
      <trkpt lat="43.65569" lon="3.30549">
        <ele>192.7</ele>
        <time>2024-08-06T07:10:43Z</time>
      </trkpt>
      <trkpt lat="43.65571" lon="3.30553">
        <ele>193</ele>
        <time>2024-08-06T07:10:44Z</time>
      </trkpt>
      <trkpt lat="43.65572" lon="3.30557">
        <ele>193.2</ele>
        <time>2024-08-06T07:10:45Z</time>
      </trkpt>
      <trkpt lat="43.65572" lon="3.30562">
        <ele>193</ele>
        <time>2024-08-06T07:10:46Z</time>
      </trkpt>
      <trkpt lat="43.65573" lon="3.30566">
        <ele>193</ele>
        <time>2024-08-06T07:10:47Z</time>
      </trkpt>
      <trkpt lat="43.65574" lon="3.30571">
        <ele>193</ele>
        <time>2024-08-06T07:10:48Z</time>
      </trkpt>
      <trkpt lat="43.65575" lon="3.30575">
        <ele>192.9</ele>
        <time>2024-08-06T07:10:49Z</time>
      </trkpt>
      <trkpt lat="43.65576" lon="3.30579">
        <ele>192.9</ele>
        <time>2024-08-06T07:10:50Z</time>
      </trkpt>
      <trkpt lat="43.65577" lon="3.30584">
        <ele>192.7</ele>
        <time>2024-08-06T07:10:51Z</time>
      </trkpt>
      <trkpt lat="43.65578" lon="3.30589">
        <ele>192.4</ele>
        <time>2024-08-06T07:10:52Z</time>
      </trkpt>
      <trkpt lat="43.65579" lon="3.30595">
        <ele>192.1</ele>
        <time>2024-08-06T07:10:53Z</time>
      </trkpt>
      <trkpt lat="43.6558" lon="3.30602">
        <ele>191.6</ele>
        <time>2024-08-06T07:10:54Z</time>
      </trkpt>
      <trkpt lat="43.65581" lon="3.30608">
        <ele>191.2</ele>
        <time>2024-08-06T07:10:55Z</time>
      </trkpt>
      <trkpt lat="43.65581" lon="3.30614">
        <ele>190.7</ele>
        <time>2024-08-06T07:10:56Z</time>
      </trkpt>
      <trkpt lat="43.65582" lon="3.3062">
        <ele>190</ele>
        <time>2024-08-06T07:10:57Z</time>
      </trkpt>
      <trkpt lat="43.65583" lon="3.30626">
        <ele>189.4</ele>
        <time>2024-08-06T07:10:58Z</time>
      </trkpt>
      <trkpt lat="43.65585" lon="3.30633">
        <ele>188.7</ele>
        <time>2024-08-06T07:10:59Z</time>
      </trkpt>
      <trkpt lat="43.65587" lon="3.3064">
        <ele>187.9</ele>
        <time>2024-08-06T07:11:00Z</time>
      </trkpt>
      <trkpt lat="43.65589" lon="3.30647">
        <ele>187.2</ele>
        <time>2024-08-06T07:11:01Z</time>
      </trkpt>
      <trkpt lat="43.65592" lon="3.30654">
        <ele>186.5</ele>
        <time>2024-08-06T07:11:02Z</time>
      </trkpt>
      <trkpt lat="43.65595" lon="3.30662">
        <ele>185.9</ele>
        <time>2024-08-06T07:11:03Z</time>
      </trkpt>
      <trkpt lat="43.65598" lon="3.3067">
        <ele>185.4</ele>
        <time>2024-08-06T07:11:04Z</time>
      </trkpt>
      <trkpt lat="43.65602" lon="3.30677">
        <ele>185.3</ele>
        <time>2024-08-06T07:11:05Z</time>
      </trkpt>
      <trkpt lat="43.65606" lon="3.30685">
        <ele>185.2</ele>
        <time>2024-08-06T07:11:06Z</time>
      </trkpt>
      <trkpt lat="43.65611" lon="3.30693">
        <ele>185</ele>
        <time>2024-08-06T07:11:07Z</time>
      </trkpt>
      <trkpt lat="43.65614" lon="3.30702">
        <ele>184.8</ele>
        <time>2024-08-06T07:11:08Z</time>
      </trkpt>
      <trkpt lat="43.65618" lon="3.3071">
        <ele>184.7</ele>
        <time>2024-08-06T07:11:09Z</time>
      </trkpt>
      <trkpt lat="43.65622" lon="3.30718">
        <ele>184.5</ele>
        <time>2024-08-06T07:11:10Z</time>
      </trkpt>
      <trkpt lat="43.65626" lon="3.30726">
        <ele>184.4</ele>
        <time>2024-08-06T07:11:11Z</time>
      </trkpt>
      <trkpt lat="43.6563" lon="3.30733">
        <ele>184.3</ele>
        <time>2024-08-06T07:11:12Z</time>
      </trkpt>
      <trkpt lat="43.65633" lon="3.3074">
        <ele>184.1</ele>
        <time>2024-08-06T07:11:13Z</time>
      </trkpt>
      <trkpt lat="43.65636" lon="3.30747">
        <ele>184</ele>
        <time>2024-08-06T07:11:14Z</time>
      </trkpt>
      <trkpt lat="43.65638" lon="3.30754">
        <ele>183.8</ele>
        <time>2024-08-06T07:11:15Z</time>
      </trkpt>
      <trkpt lat="43.65641" lon="3.30761">
        <ele>183.6</ele>
        <time>2024-08-06T07:11:16Z</time>
      </trkpt>
      <trkpt lat="43.65645" lon="3.30767">
        <ele>183.5</ele>
        <time>2024-08-06T07:11:17Z</time>
      </trkpt>
      <trkpt lat="43.65649" lon="3.30772">
        <ele>183.5</ele>
        <time>2024-08-06T07:11:18Z</time>
      </trkpt>
      <trkpt lat="43.65653" lon="3.30777">
        <ele>183.5</ele>
        <time>2024-08-06T07:11:19Z</time>
      </trkpt>
      <trkpt lat="43.65657" lon="3.30781">
        <ele>183.8</ele>
        <time>2024-08-06T07:11:20Z</time>
      </trkpt>
      <trkpt lat="43.6566" lon="3.30784">
        <ele>184.2</ele>
        <time>2024-08-06T07:11:21Z</time>
      </trkpt>
      <trkpt lat="43.65662" lon="3.30787">
        <ele>184.6</ele>
        <time>2024-08-06T07:11:22Z</time>
      </trkpt>
      <trkpt lat="43.65664" lon="3.30788">
        <ele>184.9</ele>
        <time>2024-08-06T07:11:23Z</time>
      </trkpt>
      <trkpt lat="43.65667" lon="3.30789">
        <ele>185.3</ele>
        <time>2024-08-06T07:11:24Z</time>
      </trkpt>
      <trkpt lat="43.6567" lon="3.30789">
        <ele>185.9</ele>
        <time>2024-08-06T07:11:25Z</time>
      </trkpt>
      <trkpt lat="43.65673" lon="3.3079">
        <ele>186.7</ele>
        <time>2024-08-06T07:11:26Z</time>
      </trkpt>
      <trkpt lat="43.65675" lon="3.3079">
        <ele>187.1</ele>
        <time>2024-08-06T07:11:27Z</time>
      </trkpt>
      <trkpt lat="43.65678" lon="3.3079">
        <ele>187.7</ele>
        <time>2024-08-06T07:11:28Z</time>
      </trkpt>
      <trkpt lat="43.65681" lon="3.30791">
        <ele>188.5</ele>
        <time>2024-08-06T07:11:29Z</time>
      </trkpt>
      <trkpt lat="43.65683" lon="3.30792">
        <ele>189.1</ele>
        <time>2024-08-06T07:11:30Z</time>
      </trkpt>
      <trkpt lat="43.65684" lon="3.30793">
        <ele>189.4</ele>
        <time>2024-08-06T07:11:31Z</time>
      </trkpt>
      <trkpt lat="43.65686" lon="3.30794">
        <ele>190</ele>
        <time>2024-08-06T07:11:32Z</time>
      </trkpt>
      <trkpt lat="43.65689" lon="3.30793">
        <ele>190.5</ele>
        <time>2024-08-06T07:11:33Z</time>
      </trkpt>
      <trkpt lat="43.65692" lon="3.30792">
        <ele>191</ele>
        <time>2024-08-06T07:11:34Z</time>
      </trkpt>
      <trkpt lat="43.65695" lon="3.30791">
        <ele>191.6</ele>
        <time>2024-08-06T07:11:35Z</time>
      </trkpt>
      <trkpt lat="43.65697" lon="3.30789">
        <ele>191.9</ele>
        <time>2024-08-06T07:11:36Z</time>
      </trkpt>
      <trkpt lat="43.657" lon="3.30787">
        <ele>192.6</ele>
        <time>2024-08-06T07:11:37Z</time>
      </trkpt>
      <trkpt lat="43.65703" lon="3.30785">
        <ele>193.2</ele>
        <time>2024-08-06T07:11:38Z</time>
      </trkpt>
      <trkpt lat="43.65705" lon="3.30783">
        <ele>193.5</ele>
        <time>2024-08-06T07:11:39Z</time>
      </trkpt>
      <trkpt lat="43.65708" lon="3.30783">
        <ele>194.5</ele>
        <time>2024-08-06T07:11:40Z</time>
      </trkpt>
      <trkpt lat="43.6571" lon="3.30783">
        <ele>195.2</ele>
        <time>2024-08-06T07:11:41Z</time>
      </trkpt>
      <trkpt lat="43.65712" lon="3.30783">
        <ele>195.9</ele>
        <time>2024-08-06T07:11:42Z</time>
      </trkpt>
      <trkpt lat="43.65713" lon="3.30783">
        <ele>196.2</ele>
        <time>2024-08-06T07:11:43Z</time>
      </trkpt>
      <trkpt lat="43.65713" lon="3.30785">
        <ele>196.7</ele>
        <time>2024-08-06T07:11:44Z</time>
      </trkpt>
      <trkpt lat="43.65713" lon="3.30787">
        <ele>197.1</ele>
        <time>2024-08-06T07:11:45Z</time>
      </trkpt>
      <trkpt lat="43.65711" lon="3.3079">
        <ele>197.1</ele>
        <time>2024-08-06T07:11:46Z</time>
      </trkpt>
      <trkpt lat="43.65709" lon="3.30794">
        <ele>197.2</ele>
        <time>2024-08-06T07:11:47Z</time>
      </trkpt>
      <trkpt lat="43.65708" lon="3.30798">
        <ele>197.7</ele>
        <time>2024-08-06T07:11:48Z</time>
      </trkpt>
      <trkpt lat="43.65706" lon="3.30802">
        <ele>197.8</ele>
        <time>2024-08-06T07:11:49Z</time>
      </trkpt>
      <trkpt lat="43.65705" lon="3.30805">
        <ele>198.1</ele>
        <time>2024-08-06T07:11:50Z</time>
      </trkpt>
      <trkpt lat="43.65704" lon="3.30808">
        <ele>198.2</ele>
        <time>2024-08-06T07:11:51Z</time>
      </trkpt>
      <trkpt lat="43.65703" lon="3.30812">
        <ele>198.5</ele>
        <time>2024-08-06T07:11:52Z</time>
      </trkpt>
      <trkpt lat="43.65702" lon="3.30815">
        <ele>198.7</ele>
        <time>2024-08-06T07:11:53Z</time>
      </trkpt>
      <trkpt lat="43.65701" lon="3.30817">
        <ele>198.7</ele>
        <time>2024-08-06T07:11:54Z</time>
      </trkpt>
      <trkpt lat="43.657" lon="3.3082">
        <ele>198.8</ele>
        <time>2024-08-06T07:11:55Z</time>
      </trkpt>
      <trkpt lat="43.65699" lon="3.30823">
        <ele>198.9</ele>
        <time>2024-08-06T07:11:56Z</time>
      </trkpt>
      <trkpt lat="43.65698" lon="3.30826">
        <ele>199.1</ele>
        <time>2024-08-06T07:11:57Z</time>
      </trkpt>
      <trkpt lat="43.65697" lon="3.30828">
        <ele>199.1</ele>
        <time>2024-08-06T07:11:58Z</time>
      </trkpt>
      <trkpt lat="43.65697" lon="3.30831">
        <ele>199.6</ele>
        <time>2024-08-06T07:11:59Z</time>
      </trkpt>
      <trkpt lat="43.65696" lon="3.30834">
        <ele>199.7</ele>
        <time>2024-08-06T07:12:00Z</time>
      </trkpt>
      <trkpt lat="43.65696" lon="3.30837">
        <ele>200.3</ele>
        <time>2024-08-06T07:12:01Z</time>
      </trkpt>
      <trkpt lat="43.65695" lon="3.30839">
        <ele>200.2</ele>
        <time>2024-08-06T07:12:02Z</time>
      </trkpt>
      <trkpt lat="43.65694" lon="3.30841">
        <ele>200.2</ele>
        <time>2024-08-06T07:12:03Z</time>
      </trkpt>
      <trkpt lat="43.65693" lon="3.30843">
        <ele>200.2</ele>
        <time>2024-08-06T07:12:04Z</time>
      </trkpt>
      <trkpt lat="43.65693" lon="3.30846">
        <ele>200.8</ele>
        <time>2024-08-06T07:12:05Z</time>
      </trkpt>
      <trkpt lat="43.65692" lon="3.30848">
        <ele>200.8</ele>
        <time>2024-08-06T07:12:06Z</time>
      </trkpt>
      <trkpt lat="43.65691" lon="3.30851">
        <ele>200.9</ele>
        <time>2024-08-06T07:12:07Z</time>
      </trkpt>
      <trkpt lat="43.6569" lon="3.30853">
        <ele>200.9</ele>
        <time>2024-08-06T07:12:08Z</time>
      </trkpt>
      <trkpt lat="43.65689" lon="3.30855">
        <ele>200.8</ele>
        <time>2024-08-06T07:12:09Z</time>
      </trkpt>
      <trkpt lat="43.65689" lon="3.30858">
        <ele>201.3</ele>
        <time>2024-08-06T07:12:10Z</time>
      </trkpt>
      <trkpt lat="43.65688" lon="3.3086">
        <ele>201.3</ele>
        <time>2024-08-06T07:12:11Z</time>
      </trkpt>
      <trkpt lat="43.65687" lon="3.30863">
        <ele>201.4</ele>
        <time>2024-08-06T07:12:12Z</time>
      </trkpt>
      <trkpt lat="43.65687" lon="3.30866">
        <ele>201.9</ele>
        <time>2024-08-06T07:12:13Z</time>
      </trkpt>
      <trkpt lat="43.65686" lon="3.30868">
        <ele>201.9</ele>
        <time>2024-08-06T07:12:14Z</time>
      </trkpt>
      <trkpt lat="43.65686" lon="3.30871">
        <ele>202.4</ele>
        <time>2024-08-06T07:12:15Z</time>
      </trkpt>
      <trkpt lat="43.65685" lon="3.30873">
        <ele>202.4</ele>
        <time>2024-08-06T07:12:16Z</time>
      </trkpt>
      <trkpt lat="43.65685" lon="3.30875">
        <ele>202.8</ele>
        <time>2024-08-06T07:12:17Z</time>
      </trkpt>
      <trkpt lat="43.65684" lon="3.30878">
        <ele>202.9</ele>
        <time>2024-08-06T07:12:18Z</time>
      </trkpt>
      <trkpt lat="43.65684" lon="3.30881">
        <ele>203.4</ele>
        <time>2024-08-06T07:12:19Z</time>
      </trkpt>
      <trkpt lat="43.65683" lon="3.30883">
        <ele>203.4</ele>
        <time>2024-08-06T07:12:20Z</time>
      </trkpt>
      <trkpt lat="43.65683" lon="3.30886">
        <ele>203.9</ele>
        <time>2024-08-06T07:12:21Z</time>
      </trkpt>
      <trkpt lat="43.65682" lon="3.30889">
        <ele>204.1</ele>
        <time>2024-08-06T07:12:22Z</time>
      </trkpt>
      <trkpt lat="43.65681" lon="3.30891">
        <ele>204</ele>
        <time>2024-08-06T07:12:23Z</time>
      </trkpt>
      <trkpt lat="43.6568" lon="3.30894">
        <ele>204.1</ele>
        <time>2024-08-06T07:12:24Z</time>
      </trkpt>
      <trkpt lat="43.6568" lon="3.30897">
        <ele>204.6</ele>
        <time>2024-08-06T07:12:25Z</time>
      </trkpt>
      <trkpt lat="43.6568" lon="3.30899">
        <ele>204.9</ele>
        <time>2024-08-06T07:12:26Z</time>
      </trkpt>
      <trkpt lat="43.65679" lon="3.30903">
        <ele>205.1</ele>
        <time>2024-08-06T07:12:27Z</time>
      </trkpt>
      <trkpt lat="43.65678" lon="3.30906">
        <ele>205.2</ele>
        <time>2024-08-06T07:12:28Z</time>
      </trkpt>
      <trkpt lat="43.65678" lon="3.30909">
        <ele>205.7</ele>
        <time>2024-08-06T07:12:29Z</time>
      </trkpt>
      <trkpt lat="43.65677" lon="3.30912">
        <ele>205.7</ele>
        <time>2024-08-06T07:12:30Z</time>
      </trkpt>
      <trkpt lat="43.65677" lon="3.30915">
        <ele>206.2</ele>
        <time>2024-08-06T07:12:31Z</time>
      </trkpt>
      <trkpt lat="43.65677" lon="3.30917">
        <ele>206.5</ele>
        <time>2024-08-06T07:12:32Z</time>
      </trkpt>
      <trkpt lat="43.65676" lon="3.3092">
        <ele>206.4</ele>
        <time>2024-08-06T07:12:33Z</time>
      </trkpt>
      <trkpt lat="43.65676" lon="3.30923">
        <ele>206.8</ele>
        <time>2024-08-06T07:12:34Z</time>
      </trkpt>
      <trkpt lat="43.65675" lon="3.30925">
        <ele>206.6</ele>
        <time>2024-08-06T07:12:35Z</time>
      </trkpt>
      <trkpt lat="43.65675" lon="3.30928">
        <ele>206.9</ele>
        <time>2024-08-06T07:12:36Z</time>
      </trkpt>
      <trkpt lat="43.65675" lon="3.3093">
        <ele>207.2</ele>
        <time>2024-08-06T07:12:37Z</time>
      </trkpt>
      <trkpt lat="43.65675" lon="3.30933">
        <ele>207.5</ele>
        <time>2024-08-06T07:12:38Z</time>
      </trkpt>
      <trkpt lat="43.65675" lon="3.30936">
        <ele>207.9</ele>
        <time>2024-08-06T07:12:39Z</time>
      </trkpt>
      <trkpt lat="43.65675" lon="3.30939">
        <ele>208.3</ele>
        <time>2024-08-06T07:12:40Z</time>
      </trkpt>
      <trkpt lat="43.65675" lon="3.30942">
        <ele>208.6</ele>
        <time>2024-08-06T07:12:41Z</time>
      </trkpt>
      <trkpt lat="43.65675" lon="3.30944">
        <ele>208.8</ele>
        <time>2024-08-06T07:12:42Z</time>
      </trkpt>
      <trkpt lat="43.65675" lon="3.30947">
        <ele>209</ele>
        <time>2024-08-06T07:12:43Z</time>
      </trkpt>
      <trkpt lat="43.65675" lon="3.30949">
        <ele>209.1</ele>
        <time>2024-08-06T07:12:44Z</time>
      </trkpt>
      <trkpt lat="43.65675" lon="3.30952">
        <ele>209.3</ele>
        <time>2024-08-06T07:12:45Z</time>
      </trkpt>
      <trkpt lat="43.65675" lon="3.30955">
        <ele>209.4</ele>
        <time>2024-08-06T07:12:46Z</time>
      </trkpt>
      <trkpt lat="43.65675" lon="3.30958">
        <ele>209.6</ele>
        <time>2024-08-06T07:12:47Z</time>
      </trkpt>
      <trkpt lat="43.65675" lon="3.3096">
        <ele>209.7</ele>
        <time>2024-08-06T07:12:48Z</time>
      </trkpt>
      <trkpt lat="43.65675" lon="3.30963">
        <ele>209.8</ele>
        <time>2024-08-06T07:12:49Z</time>
      </trkpt>
      <trkpt lat="43.65675" lon="3.30966">
        <ele>210</ele>
        <time>2024-08-06T07:12:50Z</time>
      </trkpt>
      <trkpt lat="43.65675" lon="3.30969">
        <ele>210.1</ele>
        <time>2024-08-06T07:12:51Z</time>
      </trkpt>
      <trkpt lat="43.65676" lon="3.30972">
        <ele>210.7</ele>
        <time>2024-08-06T07:12:52Z</time>
      </trkpt>
      <trkpt lat="43.65676" lon="3.30975">
        <ele>210.8</ele>
        <time>2024-08-06T07:12:53Z</time>
      </trkpt>
      <trkpt lat="43.65677" lon="3.30977">
        <ele>211.2</ele>
        <time>2024-08-06T07:12:54Z</time>
      </trkpt>
      <trkpt lat="43.65677" lon="3.3098">
        <ele>211.3</ele>
        <time>2024-08-06T07:12:55Z</time>
      </trkpt>
      <trkpt lat="43.65678" lon="3.30983">
        <ele>211.7</ele>
        <time>2024-08-06T07:12:56Z</time>
      </trkpt>
      <trkpt lat="43.65679" lon="3.30986">
        <ele>212.2</ele>
        <time>2024-08-06T07:12:57Z</time>
      </trkpt>
      <trkpt lat="43.65679" lon="3.30988">
        <ele>212.2</ele>
        <time>2024-08-06T07:12:58Z</time>
      </trkpt>
      <trkpt lat="43.65679" lon="3.30992">
        <ele>212.3</ele>
        <time>2024-08-06T07:12:59Z</time>
      </trkpt>
      <trkpt lat="43.65679" lon="3.30995">
        <ele>212.3</ele>
        <time>2024-08-06T07:13:00Z</time>
      </trkpt>
      <trkpt lat="43.65679" lon="3.30997">
        <ele>212.4</ele>
        <time>2024-08-06T07:13:01Z</time>
      </trkpt>
      <trkpt lat="43.65679" lon="3.31">
        <ele>212.4</ele>
        <time>2024-08-06T07:13:02Z</time>
      </trkpt>
      <trkpt lat="43.65679" lon="3.31003">
        <ele>212.3</ele>
        <time>2024-08-06T07:13:03Z</time>
      </trkpt>
      <trkpt lat="43.65679" lon="3.31006">
        <ele>212.1</ele>
        <time>2024-08-06T07:13:04Z</time>
      </trkpt>
      <trkpt lat="43.6568" lon="3.31009">
        <ele>212.3</ele>
        <time>2024-08-06T07:13:05Z</time>
      </trkpt>
      <trkpt lat="43.6568" lon="3.31011">
        <ele>212.2</ele>
        <time>2024-08-06T07:13:06Z</time>
      </trkpt>
      <trkpt lat="43.6568" lon="3.31013">
        <ele>212.1</ele>
        <time>2024-08-06T07:13:07Z</time>
      </trkpt>
      <trkpt lat="43.65681" lon="3.31016">
        <ele>212.3</ele>
        <time>2024-08-06T07:13:08Z</time>
      </trkpt>
      <trkpt lat="43.65681" lon="3.31019">
        <ele>212.1</ele>
        <time>2024-08-06T07:13:09Z</time>
      </trkpt>
      <trkpt lat="43.65682" lon="3.31022">
        <ele>212.3</ele>
        <time>2024-08-06T07:13:10Z</time>
      </trkpt>
      <trkpt lat="43.65683" lon="3.31024">
        <ele>212.5</ele>
        <time>2024-08-06T07:13:11Z</time>
      </trkpt>
      <trkpt lat="43.65684" lon="3.31027">
        <ele>212.7</ele>
        <time>2024-08-06T07:13:12Z</time>
      </trkpt>
      <trkpt lat="43.65685" lon="3.31029">
        <ele>212.9</ele>
        <time>2024-08-06T07:13:13Z</time>
      </trkpt>
      <trkpt lat="43.65685" lon="3.31032">
        <ele>212.6</ele>
        <time>2024-08-06T07:13:14Z</time>
      </trkpt>
      <trkpt lat="43.65686" lon="3.31035">
        <ele>212.7</ele>
        <time>2024-08-06T07:13:15Z</time>
      </trkpt>
      <trkpt lat="43.65687" lon="3.31038">
        <ele>212.9</ele>
        <time>2024-08-06T07:13:16Z</time>
      </trkpt>
      <trkpt lat="43.65688" lon="3.3104">
        <ele>213</ele>
        <time>2024-08-06T07:13:17Z</time>
      </trkpt>
      <trkpt lat="43.65688" lon="3.31042">
        <ele>212.9</ele>
        <time>2024-08-06T07:13:18Z</time>
      </trkpt>
      <trkpt lat="43.65689" lon="3.31045">
        <ele>213</ele>
        <time>2024-08-06T07:13:19Z</time>
      </trkpt>
      <trkpt lat="43.65689" lon="3.31047">
        <ele>212.9</ele>
        <time>2024-08-06T07:13:20Z</time>
      </trkpt>
      <trkpt lat="43.6569" lon="3.31049">
        <ele>213</ele>
        <time>2024-08-06T07:13:21Z</time>
      </trkpt>
      <trkpt lat="43.65692" lon="3.31051">
        <ele>213.5</ele>
        <time>2024-08-06T07:13:22Z</time>
      </trkpt>
      <trkpt lat="43.65693" lon="3.31052">
        <ele>213.8</ele>
        <time>2024-08-06T07:13:23Z</time>
      </trkpt>
      <trkpt lat="43.65694" lon="3.31054">
        <ele>214</ele>
        <time>2024-08-06T07:13:24Z</time>
      </trkpt>
      <trkpt lat="43.65695" lon="3.31055">
        <ele>214.2</ele>
        <time>2024-08-06T07:13:25Z</time>
      </trkpt>
      <trkpt lat="43.65696" lon="3.31057">
        <ele>214.4</ele>
        <time>2024-08-06T07:13:26Z</time>
      </trkpt>
      <trkpt lat="43.65698" lon="3.31058">
        <ele>215</ele>
        <time>2024-08-06T07:13:27Z</time>
      </trkpt>
      <trkpt lat="43.65699" lon="3.31059">
        <ele>215.2</ele>
        <time>2024-08-06T07:13:28Z</time>
      </trkpt>
      <trkpt lat="43.657" lon="3.3106">
        <ele>215.4</ele>
        <time>2024-08-06T07:13:29Z</time>
      </trkpt>
      <trkpt lat="43.65702" lon="3.31062">
        <ele>215.9</ele>
        <time>2024-08-06T07:13:30Z</time>
      </trkpt>
      <trkpt lat="43.65704" lon="3.31064">
        <ele>216.3</ele>
        <time>2024-08-06T07:13:31Z</time>
      </trkpt>
      <trkpt lat="43.65705" lon="3.31066">
        <ele>216.4</ele>
        <time>2024-08-06T07:13:32Z</time>
      </trkpt>
      <trkpt lat="43.65707" lon="3.31068">
        <ele>216.8</ele>
        <time>2024-08-06T07:13:33Z</time>
      </trkpt>
      <trkpt lat="43.65708" lon="3.3107">
        <ele>216.8</ele>
        <time>2024-08-06T07:13:34Z</time>
      </trkpt>
      <trkpt lat="43.6571" lon="3.31071">
        <ele>217.3</ele>
        <time>2024-08-06T07:13:35Z</time>
      </trkpt>
      <trkpt lat="43.65712" lon="3.31073">
        <ele>217.6</ele>
        <time>2024-08-06T07:13:36Z</time>
      </trkpt>
      <trkpt lat="43.65713" lon="3.31074">
        <ele>217.8</ele>
        <time>2024-08-06T07:13:37Z</time>
      </trkpt>
      <trkpt lat="43.65715" lon="3.31075">
        <ele>218.2</ele>
        <time>2024-08-06T07:13:38Z</time>
      </trkpt>
      <trkpt lat="43.65717" lon="3.31076">
        <ele>218.6</ele>
        <time>2024-08-06T07:13:39Z</time>
      </trkpt>
      <trkpt lat="43.65719" lon="3.31078">
        <ele>218.9</ele>
        <time>2024-08-06T07:13:40Z</time>
      </trkpt>
      <trkpt lat="43.65721" lon="3.31079">
        <ele>219.3</ele>
        <time>2024-08-06T07:13:41Z</time>
      </trkpt>
      <trkpt lat="43.65723" lon="3.3108">
        <ele>219.6</ele>
        <time>2024-08-06T07:13:42Z</time>
      </trkpt>
      <trkpt lat="43.65725" lon="3.31082">
        <ele>219.8</ele>
        <time>2024-08-06T07:13:43Z</time>
      </trkpt>
      <trkpt lat="43.65727" lon="3.31083">
        <ele>220.1</ele>
        <time>2024-08-06T07:13:44Z</time>
      </trkpt>
      <trkpt lat="43.65729" lon="3.31084">
        <ele>220.3</ele>
        <time>2024-08-06T07:13:45Z</time>
      </trkpt>
      <trkpt lat="43.6573" lon="3.31085">
        <ele>220.4</ele>
        <time>2024-08-06T07:13:46Z</time>
      </trkpt>
      <trkpt lat="43.65732" lon="3.31085">
        <ele>220.8</ele>
        <time>2024-08-06T07:13:47Z</time>
      </trkpt>
      <trkpt lat="43.65734" lon="3.31086">
        <ele>221.1</ele>
        <time>2024-08-06T07:13:48Z</time>
      </trkpt>
      <trkpt lat="43.65737" lon="3.31085">
        <ele>221.9</ele>
        <time>2024-08-06T07:13:49Z</time>
      </trkpt>
      <trkpt lat="43.65739" lon="3.31084">
        <ele>222.5</ele>
        <time>2024-08-06T07:13:50Z</time>
      </trkpt>
      <trkpt lat="43.65741" lon="3.31083">
        <ele>223.1</ele>
        <time>2024-08-06T07:13:51Z</time>
      </trkpt>
      <trkpt lat="43.65743" lon="3.3108">
        <ele>224</ele>
        <time>2024-08-06T07:13:52Z</time>
      </trkpt>
      <trkpt lat="43.65743" lon="3.31077">
        <ele>224.4</ele>
        <time>2024-08-06T07:13:53Z</time>
      </trkpt>
      <trkpt lat="43.65744" lon="3.31074">
        <ele>225</ele>
        <time>2024-08-06T07:13:54Z</time>
      </trkpt>
      <trkpt lat="43.65743" lon="3.31071">
        <ele>225.3</ele>
        <time>2024-08-06T07:13:55Z</time>
      </trkpt>
      <trkpt lat="43.65743" lon="3.31069">
        <ele>225.6</ele>
        <time>2024-08-06T07:13:56Z</time>
      </trkpt>
      <trkpt lat="43.65743" lon="3.31066">
        <ele>226</ele>
        <time>2024-08-06T07:13:57Z</time>
      </trkpt>
      <trkpt lat="43.65742" lon="3.31064">
        <ele>226.1</ele>
        <time>2024-08-06T07:13:58Z</time>
      </trkpt>
      <trkpt lat="43.65741" lon="3.31062">
        <ele>226.1</ele>
        <time>2024-08-06T07:13:59Z</time>
      </trkpt>
      <trkpt lat="43.6574" lon="3.31059">
        <ele>226.3</ele>
        <time>2024-08-06T07:14:00Z</time>
      </trkpt>
      <trkpt lat="43.65738" lon="3.31056">
        <ele>226.3</ele>
        <time>2024-08-06T07:14:01Z</time>
      </trkpt>
      <trkpt lat="43.65737" lon="3.31054">
        <ele>226.4</ele>
        <time>2024-08-06T07:14:02Z</time>
      </trkpt>
      <trkpt lat="43.65736" lon="3.31051">
        <ele>226.5</ele>
        <time>2024-08-06T07:14:03Z</time>
      </trkpt>
      <trkpt lat="43.65735" lon="3.31049">
        <ele>226.6</ele>
        <time>2024-08-06T07:14:04Z</time>
      </trkpt>
      <trkpt lat="43.65734" lon="3.31046">
        <ele>226.7</ele>
        <time>2024-08-06T07:14:05Z</time>
      </trkpt>
      <trkpt lat="43.65732" lon="3.31043">
        <ele>226.5</ele>
        <time>2024-08-06T07:14:06Z</time>
      </trkpt>
      <trkpt lat="43.65731" lon="3.31041">
        <ele>226.4</ele>
        <time>2024-08-06T07:14:07Z</time>
      </trkpt>
      <trkpt lat="43.6573" lon="3.31038">
        <ele>226.5</ele>
        <time>2024-08-06T07:14:08Z</time>
      </trkpt>
      <trkpt lat="43.65729" lon="3.31035">
        <ele>226.5</ele>
        <time>2024-08-06T07:14:09Z</time>
      </trkpt>
      <trkpt lat="43.65728" lon="3.31032">
        <ele>226.5</ele>
        <time>2024-08-06T07:14:10Z</time>
      </trkpt>
      <trkpt lat="43.65727" lon="3.31029">
        <ele>226.4</ele>
        <time>2024-08-06T07:14:11Z</time>
      </trkpt>
      <trkpt lat="43.65727" lon="3.31026">
        <ele>226.7</ele>
        <time>2024-08-06T07:14:12Z</time>
      </trkpt>
      <trkpt lat="43.65727" lon="3.31023">
        <ele>227.1</ele>
        <time>2024-08-06T07:14:13Z</time>
      </trkpt>
      <trkpt lat="43.65727" lon="3.3102">
        <ele>227.4</ele>
        <time>2024-08-06T07:14:14Z</time>
      </trkpt>
      <trkpt lat="43.65728" lon="3.31017">
        <ele>228</ele>
        <time>2024-08-06T07:14:15Z</time>
      </trkpt>
      <trkpt lat="43.65729" lon="3.31015">
        <ele>228.6</ele>
        <time>2024-08-06T07:14:16Z</time>
      </trkpt>
      <trkpt lat="43.65729" lon="3.31011">
        <ele>229</ele>
        <time>2024-08-06T07:14:17Z</time>
      </trkpt>
      <trkpt lat="43.6573" lon="3.31008">
        <ele>229.7</ele>
        <time>2024-08-06T07:14:18Z</time>
      </trkpt>
      <trkpt lat="43.65731" lon="3.31005">
        <ele>230.3</ele>
        <time>2024-08-06T07:14:19Z</time>
      </trkpt>
      <trkpt lat="43.65731" lon="3.31002">
        <ele>230.6</ele>
        <time>2024-08-06T07:14:20Z</time>
      </trkpt>
      <trkpt lat="43.65732" lon="3.30999">
        <ele>231.2</ele>
        <time>2024-08-06T07:14:21Z</time>
      </trkpt>
      <trkpt lat="43.65732" lon="3.30997">
        <ele>231.2</ele>
        <time>2024-08-06T07:14:22Z</time>
      </trkpt>
      <trkpt lat="43.65733" lon="3.30994">
        <ele>231.5</ele>
        <time>2024-08-06T07:14:23Z</time>
      </trkpt>
      <trkpt lat="43.65734" lon="3.30992">
        <ele>231.7</ele>
        <time>2024-08-06T07:14:24Z</time>
      </trkpt>
      <trkpt lat="43.65734" lon="3.30989">
        <ele>231.7</ele>
        <time>2024-08-06T07:14:25Z</time>
      </trkpt>
      <trkpt lat="43.65736" lon="3.30987">
        <ele>232.2</ele>
        <time>2024-08-06T07:14:26Z</time>
      </trkpt>
      <trkpt lat="43.65737" lon="3.30985">
        <ele>232.5</ele>
        <time>2024-08-06T07:14:27Z</time>
      </trkpt>
      <trkpt lat="43.65739" lon="3.30983">
        <ele>232.9</ele>
        <time>2024-08-06T07:14:28Z</time>
      </trkpt>
      <trkpt lat="43.6574" lon="3.30981">
        <ele>233.1</ele>
        <time>2024-08-06T07:14:29Z</time>
      </trkpt>
      <trkpt lat="43.65742" lon="3.30979">
        <ele>233.5</ele>
        <time>2024-08-06T07:14:30Z</time>
      </trkpt>
      <trkpt lat="43.65744" lon="3.30978">
        <ele>234</ele>
        <time>2024-08-06T07:14:31Z</time>
      </trkpt>
      <trkpt lat="43.65745" lon="3.30975">
        <ele>234.1</ele>
        <time>2024-08-06T07:14:32Z</time>
      </trkpt>
      <trkpt lat="43.65747" lon="3.30974">
        <ele>234.5</ele>
        <time>2024-08-06T07:14:33Z</time>
      </trkpt>
      <trkpt lat="43.65748" lon="3.30972">
        <ele>234.6</ele>
        <time>2024-08-06T07:14:34Z</time>
      </trkpt>
      <trkpt lat="43.6575" lon="3.3097">
        <ele>235</ele>
        <time>2024-08-06T07:14:35Z</time>
      </trkpt>
      <trkpt lat="43.65751" lon="3.30968">
        <ele>235.3</ele>
        <time>2024-08-06T07:14:36Z</time>
      </trkpt>
      <trkpt lat="43.65752" lon="3.30965">
        <ele>235.7</ele>
        <time>2024-08-06T07:14:37Z</time>
      </trkpt>
      <trkpt lat="43.65754" lon="3.30963">
        <ele>236.3</ele>
        <time>2024-08-06T07:14:38Z</time>
      </trkpt>
      <trkpt lat="43.65755" lon="3.3096">
        <ele>236.7</ele>
        <time>2024-08-06T07:14:39Z</time>
      </trkpt>
      <trkpt lat="43.65756" lon="3.30957">
        <ele>237.1</ele>
        <time>2024-08-06T07:14:40Z</time>
      </trkpt>
      <trkpt lat="43.65756" lon="3.30954">
        <ele>237.1</ele>
        <time>2024-08-06T07:14:41Z</time>
      </trkpt>
      <trkpt lat="43.65757" lon="3.3095">
        <ele>237.5</ele>
        <time>2024-08-06T07:14:42Z</time>
      </trkpt>
      <trkpt lat="43.65757" lon="3.30947">
        <ele>237.5</ele>
        <time>2024-08-06T07:14:43Z</time>
      </trkpt>
      <trkpt lat="43.65758" lon="3.30944">
        <ele>237.9</ele>
        <time>2024-08-06T07:14:44Z</time>
      </trkpt>
      <trkpt lat="43.65758" lon="3.30941">
        <ele>238</ele>
        <time>2024-08-06T07:14:45Z</time>
      </trkpt>
      <trkpt lat="43.65758" lon="3.30938">
        <ele>238.1</ele>
        <time>2024-08-06T07:14:46Z</time>
      </trkpt>
      <trkpt lat="43.65759" lon="3.30935">
        <ele>238.6</ele>
        <time>2024-08-06T07:14:47Z</time>
      </trkpt>
      <trkpt lat="43.65759" lon="3.30933">
        <ele>238.7</ele>
        <time>2024-08-06T07:14:48Z</time>
      </trkpt>
      <trkpt lat="43.6576" lon="3.3093">
        <ele>239.1</ele>
        <time>2024-08-06T07:14:49Z</time>
      </trkpt>
      <trkpt lat="43.65761" lon="3.30926">
        <ele>239.6</ele>
        <time>2024-08-06T07:14:50Z</time>
      </trkpt>
      <trkpt lat="43.65761" lon="3.30924">
        <ele>239.7</ele>
        <time>2024-08-06T07:14:51Z</time>
      </trkpt>
      <trkpt lat="43.65762" lon="3.30921">
        <ele>240.2</ele>
        <time>2024-08-06T07:14:52Z</time>
      </trkpt>
      <trkpt lat="43.65762" lon="3.30918">
        <ele>240.3</ele>
        <time>2024-08-06T07:14:53Z</time>
      </trkpt>
      <trkpt lat="43.65763" lon="3.30916">
        <ele>240.6</ele>
        <time>2024-08-06T07:14:54Z</time>
      </trkpt>
      <trkpt lat="43.65764" lon="3.30914">
        <ele>240.8</ele>
        <time>2024-08-06T07:14:55Z</time>
      </trkpt>
      <trkpt lat="43.65765" lon="3.30911">
        <ele>241</ele>
        <time>2024-08-06T07:14:56Z</time>
      </trkpt>
      <trkpt lat="43.65766" lon="3.30908">
        <ele>241.2</ele>
        <time>2024-08-06T07:14:57Z</time>
      </trkpt>
      <trkpt lat="43.65766" lon="3.30906">
        <ele>241.1</ele>
        <time>2024-08-06T07:14:58Z</time>
      </trkpt>
      <trkpt lat="43.65767" lon="3.30903">
        <ele>241.2</ele>
        <time>2024-08-06T07:14:59Z</time>
      </trkpt>
      <trkpt lat="43.65768" lon="3.30901">
        <ele>241.5</ele>
        <time>2024-08-06T07:15:00Z</time>
      </trkpt>
      <trkpt lat="43.65769" lon="3.30898">
        <ele>241.7</ele>
        <time>2024-08-06T07:15:01Z</time>
      </trkpt>
      <trkpt lat="43.6577" lon="3.30896">
        <ele>242</ele>
        <time>2024-08-06T07:15:02Z</time>
      </trkpt>
      <trkpt lat="43.65771" lon="3.30893">
        <ele>242.3</ele>
        <time>2024-08-06T07:15:03Z</time>
      </trkpt>
      <trkpt lat="43.65772" lon="3.30891">
        <ele>242.6</ele>
        <time>2024-08-06T07:15:04Z</time>
      </trkpt>
      <trkpt lat="43.65773" lon="3.30888">
        <ele>242.8</ele>
        <time>2024-08-06T07:15:05Z</time>
      </trkpt>
      <trkpt lat="43.65774" lon="3.30886">
        <ele>243</ele>
        <time>2024-08-06T07:15:06Z</time>
      </trkpt>
      <trkpt lat="43.65776" lon="3.30883">
        <ele>243.4</ele>
        <time>2024-08-06T07:15:07Z</time>
      </trkpt>
      <trkpt lat="43.65777" lon="3.30881">
        <ele>243.5</ele>
        <time>2024-08-06T07:15:08Z</time>
      </trkpt>
      <trkpt lat="43.65779" lon="3.30879">
        <ele>244</ele>
        <time>2024-08-06T07:15:09Z</time>
      </trkpt>
      <trkpt lat="43.6578" lon="3.30877">
        <ele>244.1</ele>
        <time>2024-08-06T07:15:10Z</time>
      </trkpt>
      <trkpt lat="43.65781" lon="3.30875">
        <ele>244.2</ele>
        <time>2024-08-06T07:15:11Z</time>
      </trkpt>
      <trkpt lat="43.65782" lon="3.30873">
        <ele>244.2</ele>
        <time>2024-08-06T07:15:12Z</time>
      </trkpt>
      <trkpt lat="43.65784" lon="3.30871">
        <ele>244.7</ele>
        <time>2024-08-06T07:15:13Z</time>
      </trkpt>
      <trkpt lat="43.65785" lon="3.30868">
        <ele>244.6</ele>
        <time>2024-08-06T07:15:14Z</time>
      </trkpt>
      <trkpt lat="43.65787" lon="3.30866">
        <ele>245</ele>
        <time>2024-08-06T07:15:15Z</time>
      </trkpt>
      <trkpt lat="43.65788" lon="3.30863">
        <ele>245</ele>
        <time>2024-08-06T07:15:16Z</time>
      </trkpt>
      <trkpt lat="43.6579" lon="3.30861">
        <ele>245.4</ele>
        <time>2024-08-06T07:15:17Z</time>
      </trkpt>
      <trkpt lat="43.65792" lon="3.30859">
        <ele>245.5</ele>
        <time>2024-08-06T07:15:18Z</time>
      </trkpt>
      <trkpt lat="43.65793" lon="3.30857">
        <ele>245.4</ele>
        <time>2024-08-06T07:15:19Z</time>
      </trkpt>
      <trkpt lat="43.65795" lon="3.30856">
        <ele>245.8</ele>
        <time>2024-08-06T07:15:20Z</time>
      </trkpt>
      <trkpt lat="43.65797" lon="3.30854">
        <ele>246</ele>
        <time>2024-08-06T07:15:21Z</time>
      </trkpt>
      <trkpt lat="43.65799" lon="3.30853">
        <ele>246.4</ele>
        <time>2024-08-06T07:15:22Z</time>
      </trkpt>
      <trkpt lat="43.65801" lon="3.30853">
        <ele>247.1</ele>
        <time>2024-08-06T07:15:23Z</time>
      </trkpt>
      <trkpt lat="43.65803" lon="3.30853">
        <ele>247.8</ele>
        <time>2024-08-06T07:15:24Z</time>
      </trkpt>
      <trkpt lat="43.65805" lon="3.30853">
        <ele>248.5</ele>
        <time>2024-08-06T07:15:25Z</time>
      </trkpt>
      <trkpt lat="43.65807" lon="3.30852">
        <ele>248.5</ele>
        <time>2024-08-06T07:15:26Z</time>
      </trkpt>
      <trkpt lat="43.65809" lon="3.30852">
        <ele>248.7</ele>
        <time>2024-08-06T07:15:27Z</time>
      </trkpt>
      <trkpt lat="43.6581" lon="3.30853">
        <ele>249.1</ele>
        <time>2024-08-06T07:15:28Z</time>
      </trkpt>
      <trkpt lat="43.65812" lon="3.30853">
        <ele>249.2</ele>
        <time>2024-08-06T07:15:29Z</time>
      </trkpt>
      <trkpt lat="43.65814" lon="3.30852">
        <ele>249.1</ele>
        <time>2024-08-06T07:15:30Z</time>
      </trkpt>
      <trkpt lat="43.65817" lon="3.30852">
        <ele>249.3</ele>
        <time>2024-08-06T07:15:31Z</time>
      </trkpt>
      <trkpt lat="43.65819" lon="3.30853">
        <ele>249.8</ele>
        <time>2024-08-06T07:15:32Z</time>
      </trkpt>
      <trkpt lat="43.65821" lon="3.30852">
        <ele>249.7</ele>
        <time>2024-08-06T07:15:33Z</time>
      </trkpt>
      <trkpt lat="43.65823" lon="3.30853">
        <ele>250.2</ele>
        <time>2024-08-06T07:15:34Z</time>
      </trkpt>
      <trkpt lat="43.65825" lon="3.30853">
        <ele>250.4</ele>
        <time>2024-08-06T07:15:35Z</time>
      </trkpt>
      <trkpt lat="43.65828" lon="3.30853">
        <ele>250.6</ele>
        <time>2024-08-06T07:15:36Z</time>
      </trkpt>
      <trkpt lat="43.6583" lon="3.30853">
        <ele>250.8</ele>
        <time>2024-08-06T07:15:37Z</time>
      </trkpt>
      <trkpt lat="43.65833" lon="3.30854">
        <ele>251.4</ele>
        <time>2024-08-06T07:15:38Z</time>
      </trkpt>
      <trkpt lat="43.65835" lon="3.30856">
        <ele>251.6</ele>
        <time>2024-08-06T07:15:39Z</time>
      </trkpt>
      <trkpt lat="43.65837" lon="3.30857">
        <ele>251.4</ele>
        <time>2024-08-06T07:15:40Z</time>
      </trkpt>
      <trkpt lat="43.65839" lon="3.30859">
        <ele>251.4</ele>
        <time>2024-08-06T07:15:41Z</time>
      </trkpt>
      <trkpt lat="43.65841" lon="3.30861">
        <ele>251.5</ele>
        <time>2024-08-06T07:15:42Z</time>
      </trkpt>
      <trkpt lat="43.65843" lon="3.30864">
        <ele>251.4</ele>
        <time>2024-08-06T07:15:43Z</time>
      </trkpt>
      <trkpt lat="43.65845" lon="3.30866">
        <ele>251.1</ele>
        <time>2024-08-06T07:15:44Z</time>
      </trkpt>
      <trkpt lat="43.65847" lon="3.30869">
        <ele>251</ele>
        <time>2024-08-06T07:15:45Z</time>
      </trkpt>
      <trkpt lat="43.65849" lon="3.30872">
        <ele>250.8</ele>
        <time>2024-08-06T07:15:46Z</time>
      </trkpt>
      <trkpt lat="43.65851" lon="3.30874">
        <ele>250.5</ele>
        <time>2024-08-06T07:15:47Z</time>
      </trkpt>
      <trkpt lat="43.65853" lon="3.30877">
        <ele>250.3</ele>
        <time>2024-08-06T07:15:48Z</time>
      </trkpt>
      <trkpt lat="43.65855" lon="3.3088">
        <ele>250</ele>
        <time>2024-08-06T07:15:49Z</time>
      </trkpt>
      <trkpt lat="43.65857" lon="3.30883">
        <ele>249.7</ele>
        <time>2024-08-06T07:15:50Z</time>
      </trkpt>
      <trkpt lat="43.65858" lon="3.30886">
        <ele>249.8</ele>
        <time>2024-08-06T07:15:51Z</time>
      </trkpt>
      <trkpt lat="43.65858" lon="3.30889">
        <ele>250.2</ele>
        <time>2024-08-06T07:15:52Z</time>
      </trkpt>
      <trkpt lat="43.65859" lon="3.30892">
        <ele>250.3</ele>
        <time>2024-08-06T07:15:53Z</time>
      </trkpt>
      <trkpt lat="43.65859" lon="3.30895">
        <ele>250.7</ele>
        <time>2024-08-06T07:15:54Z</time>
      </trkpt>
      <trkpt lat="43.6586" lon="3.30898">
        <ele>250.7</ele>
        <time>2024-08-06T07:15:55Z</time>
      </trkpt>
      <trkpt lat="43.6586" lon="3.30901">
        <ele>251.1</ele>
        <time>2024-08-06T07:15:56Z</time>
      </trkpt>
      <trkpt lat="43.6586" lon="3.30904">
        <ele>251.6</ele>
        <time>2024-08-06T07:15:57Z</time>
      </trkpt>
      <trkpt lat="43.6586" lon="3.30908">
        <ele>252.1</ele>
        <time>2024-08-06T07:15:58Z</time>
      </trkpt>
      <trkpt lat="43.6586" lon="3.30912">
        <ele>252.7</ele>
        <time>2024-08-06T07:15:59Z</time>
      </trkpt>
      <trkpt lat="43.65861" lon="3.30916">
        <ele>252.9</ele>
        <time>2024-08-06T07:16:00Z</time>
      </trkpt>
      <trkpt lat="43.65861" lon="3.30919">
        <ele>253.1</ele>
        <time>2024-08-06T07:16:01Z</time>
      </trkpt>
      <trkpt lat="43.65861" lon="3.30923">
        <ele>253.3</ele>
        <time>2024-08-06T07:16:02Z</time>
      </trkpt>
      <trkpt lat="43.65861" lon="3.30927">
        <ele>253.4</ele>
        <time>2024-08-06T07:16:03Z</time>
      </trkpt>
      <trkpt lat="43.65862" lon="3.3093">
        <ele>253.4</ele>
        <time>2024-08-06T07:16:04Z</time>
      </trkpt>
      <trkpt lat="43.65862" lon="3.30933">
        <ele>253.5</ele>
        <time>2024-08-06T07:16:05Z</time>
      </trkpt>
      <trkpt lat="43.65861" lon="3.30936">
        <ele>253.7</ele>
        <time>2024-08-06T07:16:06Z</time>
      </trkpt>
      <trkpt lat="43.65861" lon="3.30939">
        <ele>253.8</ele>
        <time>2024-08-06T07:16:07Z</time>
      </trkpt>
      <trkpt lat="43.65861" lon="3.30942">
        <ele>253.9</ele>
        <time>2024-08-06T07:16:08Z</time>
      </trkpt>
      <trkpt lat="43.6586" lon="3.30946">
        <ele>254.4</ele>
        <time>2024-08-06T07:16:09Z</time>
      </trkpt>
      <trkpt lat="43.65859" lon="3.30949">
        <ele>254.8</ele>
        <time>2024-08-06T07:16:10Z</time>
      </trkpt>
      <trkpt lat="43.65858" lon="3.30951">
        <ele>255.2</ele>
        <time>2024-08-06T07:16:11Z</time>
      </trkpt>
      <trkpt lat="43.65857" lon="3.30954">
        <ele>255.6</ele>
        <time>2024-08-06T07:16:12Z</time>
      </trkpt>
      <trkpt lat="43.65856" lon="3.30957">
        <ele>255.9</ele>
        <time>2024-08-06T07:16:13Z</time>
      </trkpt>
      <trkpt lat="43.65855" lon="3.30959">
        <ele>256.2</ele>
        <time>2024-08-06T07:16:14Z</time>
      </trkpt>
      <trkpt lat="43.65854" lon="3.30962">
        <ele>256.6</ele>
        <time>2024-08-06T07:16:15Z</time>
      </trkpt>
      <trkpt lat="43.65854" lon="3.30965">
        <ele>256.7</ele>
        <time>2024-08-06T07:16:16Z</time>
      </trkpt>
      <trkpt lat="43.65853" lon="3.30967">
        <ele>257</ele>
        <time>2024-08-06T07:16:17Z</time>
      </trkpt>
      <trkpt lat="43.65852" lon="3.30969">
        <ele>257.2</ele>
        <time>2024-08-06T07:16:18Z</time>
      </trkpt>
      <trkpt lat="43.65851" lon="3.30972">
        <ele>257.4</ele>
        <time>2024-08-06T07:16:19Z</time>
      </trkpt>
      <trkpt lat="43.6585" lon="3.30974">
        <ele>257.6</ele>
        <time>2024-08-06T07:16:20Z</time>
      </trkpt>
      <trkpt lat="43.6585" lon="3.30977">
        <ele>257.7</ele>
        <time>2024-08-06T07:16:21Z</time>
      </trkpt>
      <trkpt lat="43.65849" lon="3.30979">
        <ele>257.9</ele>
        <time>2024-08-06T07:16:22Z</time>
      </trkpt>
      <trkpt lat="43.65849" lon="3.30982">
        <ele>257.9</ele>
        <time>2024-08-06T07:16:23Z</time>
      </trkpt>
      <trkpt lat="43.65848" lon="3.30985">
        <ele>258.1</ele>
        <time>2024-08-06T07:16:24Z</time>
      </trkpt>
      <trkpt lat="43.65848" lon="3.30988">
        <ele>258.2</ele>
        <time>2024-08-06T07:16:25Z</time>
      </trkpt>
      <trkpt lat="43.65848" lon="3.30991">
        <ele>258.2</ele>
        <time>2024-08-06T07:16:26Z</time>
      </trkpt>
      <trkpt lat="43.65848" lon="3.30995">
        <ele>258.3</ele>
        <time>2024-08-06T07:16:27Z</time>
      </trkpt>
      <trkpt lat="43.65848" lon="3.30999">
        <ele>258.4</ele>
        <time>2024-08-06T07:16:28Z</time>
      </trkpt>
      <trkpt lat="43.65848" lon="3.31003">
        <ele>258.4</ele>
        <time>2024-08-06T07:16:29Z</time>
      </trkpt>
      <trkpt lat="43.65849" lon="3.31007">
        <ele>258.3</ele>
        <time>2024-08-06T07:16:30Z</time>
      </trkpt>
      <trkpt lat="43.65851" lon="3.31011">
        <ele>258.2</ele>
        <time>2024-08-06T07:16:31Z</time>
      </trkpt>
      <trkpt lat="43.65852" lon="3.31014">
        <ele>258.2</ele>
        <time>2024-08-06T07:16:32Z</time>
      </trkpt>
      <trkpt lat="43.65854" lon="3.31017">
        <ele>258.2</ele>
        <time>2024-08-06T07:16:33Z</time>
      </trkpt>
      <trkpt lat="43.65855" lon="3.3102">
        <ele>258.3</ele>
        <time>2024-08-06T07:16:34Z</time>
      </trkpt>
      <trkpt lat="43.65857" lon="3.31022">
        <ele>258.4</ele>
        <time>2024-08-06T07:16:35Z</time>
      </trkpt>
      <trkpt lat="43.65859" lon="3.31024">
        <ele>258.6</ele>
        <time>2024-08-06T07:16:36Z</time>
      </trkpt>
      <trkpt lat="43.65861" lon="3.31026">
        <ele>258.9</ele>
        <time>2024-08-06T07:16:37Z</time>
      </trkpt>
      <trkpt lat="43.65864" lon="3.31027">
        <ele>258.8</ele>
        <time>2024-08-06T07:16:38Z</time>
      </trkpt>
      <trkpt lat="43.65866" lon="3.31028">
        <ele>258.8</ele>
        <time>2024-08-06T07:16:39Z</time>
      </trkpt>
      <trkpt lat="43.65868" lon="3.31029">
        <ele>258.8</ele>
        <time>2024-08-06T07:16:40Z</time>
      </trkpt>
      <trkpt lat="43.65871" lon="3.31029">
        <ele>258.7</ele>
        <time>2024-08-06T07:16:41Z</time>
      </trkpt>
      <trkpt lat="43.65873" lon="3.3103">
        <ele>258.6</ele>
        <time>2024-08-06T07:16:42Z</time>
      </trkpt>
      <trkpt lat="43.65876" lon="3.31031">
        <ele>258.5</ele>
        <time>2024-08-06T07:16:43Z</time>
      </trkpt>
      <trkpt lat="43.65878" lon="3.31031">
        <ele>258.5</ele>
        <time>2024-08-06T07:16:44Z</time>
      </trkpt>
      <trkpt lat="43.65881" lon="3.31032">
        <ele>258.4</ele>
        <time>2024-08-06T07:16:45Z</time>
      </trkpt>
      <trkpt lat="43.65883" lon="3.31033">
        <ele>258.4</ele>
        <time>2024-08-06T07:16:46Z</time>
      </trkpt>
      <trkpt lat="43.65886" lon="3.31034">
        <ele>258.3</ele>
        <time>2024-08-06T07:16:47Z</time>
      </trkpt>
      <trkpt lat="43.65888" lon="3.31035">
        <ele>258.3</ele>
        <time>2024-08-06T07:16:48Z</time>
      </trkpt>
      <trkpt lat="43.6589" lon="3.31036">
        <ele>258.4</ele>
        <time>2024-08-06T07:16:49Z</time>
      </trkpt>
      <trkpt lat="43.65893" lon="3.31037">
        <ele>258.7</ele>
        <time>2024-08-06T07:16:50Z</time>
      </trkpt>
      <trkpt lat="43.65895" lon="3.31038">
        <ele>258.9</ele>
        <time>2024-08-06T07:16:51Z</time>
      </trkpt>
      <trkpt lat="43.65897" lon="3.31039">
        <ele>259.2</ele>
        <time>2024-08-06T07:16:52Z</time>
      </trkpt>
      <trkpt lat="43.65899" lon="3.31039">
        <ele>259.3</ele>
        <time>2024-08-06T07:16:53Z</time>
      </trkpt>
      <trkpt lat="43.65902" lon="3.3104">
        <ele>259.6</ele>
        <time>2024-08-06T07:16:54Z</time>
      </trkpt>
      <trkpt lat="43.65904" lon="3.3104">
        <ele>259.8</ele>
        <time>2024-08-06T07:16:55Z</time>
      </trkpt>
      <trkpt lat="43.65907" lon="3.3104">
        <ele>260.1</ele>
        <time>2024-08-06T07:16:56Z</time>
      </trkpt>
      <trkpt lat="43.65909" lon="3.31041">
        <ele>260.3</ele>
        <time>2024-08-06T07:16:57Z</time>
      </trkpt>
      <trkpt lat="43.65911" lon="3.31043">
        <ele>260.5</ele>
        <time>2024-08-06T07:16:58Z</time>
      </trkpt>
      <trkpt lat="43.65914" lon="3.31044">
        <ele>260.8</ele>
        <time>2024-08-06T07:16:59Z</time>
      </trkpt>
      <trkpt lat="43.65916" lon="3.31045">
        <ele>260.9</ele>
        <time>2024-08-06T07:17:00Z</time>
      </trkpt>
      <trkpt lat="43.65918" lon="3.31047">
        <ele>261.2</ele>
        <time>2024-08-06T07:17:01Z</time>
      </trkpt>
      <trkpt lat="43.6592" lon="3.31049">
        <ele>261.4</ele>
        <time>2024-08-06T07:17:02Z</time>
      </trkpt>
      <trkpt lat="43.65922" lon="3.31052">
        <ele>261.6</ele>
        <time>2024-08-06T07:17:03Z</time>
      </trkpt>
      <trkpt lat="43.65924" lon="3.31054">
        <ele>261.8</ele>
        <time>2024-08-06T07:17:04Z</time>
      </trkpt>
      <trkpt lat="43.65926" lon="3.31056">
        <ele>262</ele>
        <time>2024-08-06T07:17:05Z</time>
      </trkpt>
      <trkpt lat="43.65928" lon="3.31059">
        <ele>262.3</ele>
        <time>2024-08-06T07:17:06Z</time>
      </trkpt>
      <trkpt lat="43.6593" lon="3.31061">
        <ele>262.5</ele>
        <time>2024-08-06T07:17:07Z</time>
      </trkpt>
      <trkpt lat="43.65932" lon="3.31063">
        <ele>262.8</ele>
        <time>2024-08-06T07:17:08Z</time>
      </trkpt>
      <trkpt lat="43.65934" lon="3.31065">
        <ele>263</ele>
        <time>2024-08-06T07:17:09Z</time>
      </trkpt>
      <trkpt lat="43.65935" lon="3.31067">
        <ele>263.1</ele>
        <time>2024-08-06T07:17:10Z</time>
      </trkpt>
      <trkpt lat="43.65937" lon="3.31069">
        <ele>263.3</ele>
        <time>2024-08-06T07:17:11Z</time>
      </trkpt>
      <trkpt lat="43.65939" lon="3.31071">
        <ele>263.5</ele>
        <time>2024-08-06T07:17:12Z</time>
      </trkpt>
      <trkpt lat="43.65941" lon="3.31073">
        <ele>263.7</ele>
        <time>2024-08-06T07:17:13Z</time>
      </trkpt>
      <trkpt lat="43.65943" lon="3.31075">
        <ele>263.9</ele>
        <time>2024-08-06T07:17:14Z</time>
      </trkpt>
      <trkpt lat="43.65945" lon="3.31077">
        <ele>264.1</ele>
        <time>2024-08-06T07:17:15Z</time>
      </trkpt>
      <trkpt lat="43.65948" lon="3.3108">
        <ele>264.8</ele>
        <time>2024-08-06T07:17:16Z</time>
      </trkpt>
      <trkpt lat="43.6595" lon="3.31081">
        <ele>265.2</ele>
        <time>2024-08-06T07:17:17Z</time>
      </trkpt>
      <trkpt lat="43.65952" lon="3.31083">
        <ele>265.6</ele>
        <time>2024-08-06T07:17:18Z</time>
      </trkpt>
      <trkpt lat="43.65953" lon="3.31084">
        <ele>265.9</ele>
        <time>2024-08-06T07:17:19Z</time>
      </trkpt>
      <trkpt lat="43.65955" lon="3.31086">
        <ele>266.3</ele>
        <time>2024-08-06T07:17:20Z</time>
      </trkpt>
      <trkpt lat="43.65957" lon="3.31089">
        <ele>266.8</ele>
        <time>2024-08-06T07:17:21Z</time>
      </trkpt>
      <trkpt lat="43.65958" lon="3.31091">
        <ele>267.1</ele>
        <time>2024-08-06T07:17:22Z</time>
      </trkpt>
      <trkpt lat="43.65959" lon="3.31093">
        <ele>267.3</ele>
        <time>2024-08-06T07:17:23Z</time>
      </trkpt>
      <trkpt lat="43.65961" lon="3.31095">
        <ele>267.7</ele>
        <time>2024-08-06T07:17:24Z</time>
      </trkpt>
      <trkpt lat="43.65963" lon="3.31097">
        <ele>268.2</ele>
        <time>2024-08-06T07:17:25Z</time>
      </trkpt>
      <trkpt lat="43.65963" lon="3.311">
        <ele>268.2</ele>
        <time>2024-08-06T07:17:26Z</time>
      </trkpt>
      <trkpt lat="43.65964" lon="3.31103">
        <ele>268.4</ele>
        <time>2024-08-06T07:17:27Z</time>
      </trkpt>
      <trkpt lat="43.65964" lon="3.31106">
        <ele>268.5</ele>
        <time>2024-08-06T07:17:28Z</time>
      </trkpt>
      <trkpt lat="43.65963" lon="3.31109">
        <ele>268.3</ele>
        <time>2024-08-06T07:17:29Z</time>
      </trkpt>
      <trkpt lat="43.65963" lon="3.31112">
        <ele>268.4</ele>
        <time>2024-08-06T07:17:30Z</time>
      </trkpt>
      <trkpt lat="43.65963" lon="3.31115">
        <ele>268.5</ele>
        <time>2024-08-06T07:17:31Z</time>
      </trkpt>
      <trkpt lat="43.65962" lon="3.31118">
        <ele>268.5</ele>
        <time>2024-08-06T07:17:32Z</time>
      </trkpt>
      <trkpt lat="43.65962" lon="3.31121">
        <ele>268.6</ele>
        <time>2024-08-06T07:17:33Z</time>
      </trkpt>
      <trkpt lat="43.65961" lon="3.31124">
        <ele>268.5</ele>
        <time>2024-08-06T07:17:34Z</time>
      </trkpt>
      <trkpt lat="43.65961" lon="3.31127">
        <ele>268.7</ele>
        <time>2024-08-06T07:17:35Z</time>
      </trkpt>
      <trkpt lat="43.6596" lon="3.3113">
        <ele>268.6</ele>
        <time>2024-08-06T07:17:36Z</time>
      </trkpt>
      <trkpt lat="43.6596" lon="3.31133">
        <ele>268.7</ele>
        <time>2024-08-06T07:17:37Z</time>
      </trkpt>
      <trkpt lat="43.65961" lon="3.31136">
        <ele>269</ele>
        <time>2024-08-06T07:17:38Z</time>
      </trkpt>
      <trkpt lat="43.65962" lon="3.31139">
        <ele>269.4</ele>
        <time>2024-08-06T07:17:39Z</time>
      </trkpt>
      <trkpt lat="43.65963" lon="3.31142">
        <ele>269.8</ele>
        <time>2024-08-06T07:17:40Z</time>
      </trkpt>
      <trkpt lat="43.65964" lon="3.31145">
        <ele>270.1</ele>
        <time>2024-08-06T07:17:41Z</time>
      </trkpt>
      <trkpt lat="43.65965" lon="3.31148">
        <ele>270.4</ele>
        <time>2024-08-06T07:17:42Z</time>
      </trkpt>
      <trkpt lat="43.65967" lon="3.31151">
        <ele>271</ele>
        <time>2024-08-06T07:17:43Z</time>
      </trkpt>
      <trkpt lat="43.65968" lon="3.31154">
        <ele>271.4</ele>
        <time>2024-08-06T07:17:44Z</time>
      </trkpt>
      <trkpt lat="43.65969" lon="3.31157">
        <ele>271.8</ele>
        <time>2024-08-06T07:17:45Z</time>
      </trkpt>
      <trkpt lat="43.6597" lon="3.31161">
        <ele>272.2</ele>
        <time>2024-08-06T07:17:46Z</time>
      </trkpt>
      <trkpt lat="43.65971" lon="3.31164">
        <ele>272.6</ele>
        <time>2024-08-06T07:17:47Z</time>
      </trkpt>
      <trkpt lat="43.65972" lon="3.31167">
        <ele>272.9</ele>
        <time>2024-08-06T07:17:48Z</time>
      </trkpt>
      <trkpt lat="43.65973" lon="3.3117">
        <ele>273.1</ele>
        <time>2024-08-06T07:17:49Z</time>
      </trkpt>
      <trkpt lat="43.65974" lon="3.31173">
        <ele>273.3</ele>
        <time>2024-08-06T07:17:50Z</time>
      </trkpt>
      <trkpt lat="43.65976" lon="3.31177">
        <ele>273.6</ele>
        <time>2024-08-06T07:17:51Z</time>
      </trkpt>
      <trkpt lat="43.65978" lon="3.3118">
        <ele>273.9</ele>
        <time>2024-08-06T07:17:52Z</time>
      </trkpt>
      <trkpt lat="43.65979" lon="3.31182">
        <ele>274.1</ele>
        <time>2024-08-06T07:17:53Z</time>
      </trkpt>
      <trkpt lat="43.65981" lon="3.31185">
        <ele>274.4</ele>
        <time>2024-08-06T07:17:54Z</time>
      </trkpt>
      <trkpt lat="43.65983" lon="3.31188">
        <ele>274.6</ele>
        <time>2024-08-06T07:17:55Z</time>
      </trkpt>
      <trkpt lat="43.65985" lon="3.3119">
        <ele>274.9</ele>
        <time>2024-08-06T07:17:56Z</time>
      </trkpt>
      <trkpt lat="43.65986" lon="3.31193">
        <ele>275</ele>
        <time>2024-08-06T07:17:57Z</time>
      </trkpt>
      <trkpt lat="43.65987" lon="3.31196">
        <ele>275</ele>
        <time>2024-08-06T07:17:58Z</time>
      </trkpt>
      <trkpt lat="43.65988" lon="3.31198">
        <ele>275.1</ele>
        <time>2024-08-06T07:17:59Z</time>
      </trkpt>
      <trkpt lat="43.6599" lon="3.312">
        <ele>275.3</ele>
        <time>2024-08-06T07:18:00Z</time>
      </trkpt>
      <trkpt lat="43.65992" lon="3.31201">
        <ele>275.5</ele>
        <time>2024-08-06T07:18:01Z</time>
      </trkpt>
      <trkpt lat="43.65995" lon="3.31202">
        <ele>276</ele>
        <time>2024-08-06T07:18:02Z</time>
      </trkpt>
      <trkpt lat="43.65997" lon="3.31204">
        <ele>276.2</ele>
        <time>2024-08-06T07:18:03Z</time>
      </trkpt>
      <trkpt lat="43.65999" lon="3.31205">
        <ele>276.5</ele>
        <time>2024-08-06T07:18:04Z</time>
      </trkpt>
      <trkpt lat="43.66001" lon="3.31207">
        <ele>276.8</ele>
        <time>2024-08-06T07:18:05Z</time>
      </trkpt>
      <trkpt lat="43.66003" lon="3.31208">
        <ele>277.2</ele>
        <time>2024-08-06T07:18:06Z</time>
      </trkpt>
      <trkpt lat="43.66005" lon="3.31209">
        <ele>277.7</ele>
        <time>2024-08-06T07:18:07Z</time>
      </trkpt>
      <trkpt lat="43.66007" lon="3.31211">
        <ele>278.1</ele>
        <time>2024-08-06T07:18:08Z</time>
      </trkpt>
      <trkpt lat="43.6601" lon="3.31211">
        <ele>278.8</ele>
        <time>2024-08-06T07:18:09Z</time>
      </trkpt>
      <trkpt lat="43.66012" lon="3.31212">
        <ele>279.2</ele>
        <time>2024-08-06T07:18:10Z</time>
      </trkpt>
      <trkpt lat="43.66014" lon="3.31213">
        <ele>279.7</ele>
        <time>2024-08-06T07:18:11Z</time>
      </trkpt>
      <trkpt lat="43.66016" lon="3.31212">
        <ele>280.2</ele>
        <time>2024-08-06T07:18:12Z</time>
      </trkpt>
      <trkpt lat="43.66019" lon="3.31211">
        <ele>280.9</ele>
        <time>2024-08-06T07:18:13Z</time>
      </trkpt>
      <trkpt lat="43.66021" lon="3.3121">
        <ele>281.4</ele>
        <time>2024-08-06T07:18:14Z</time>
      </trkpt>
      <trkpt lat="43.66023" lon="3.31209">
        <ele>281.9</ele>
        <time>2024-08-06T07:18:15Z</time>
      </trkpt>
      <trkpt lat="43.66025" lon="3.31206">
        <ele>282.4</ele>
        <time>2024-08-06T07:18:16Z</time>
      </trkpt>
      <trkpt lat="43.66026" lon="3.31203">
        <ele>282.6</ele>
        <time>2024-08-06T07:18:17Z</time>
      </trkpt>
      <trkpt lat="43.66027" lon="3.312">
        <ele>282.8</ele>
        <time>2024-08-06T07:18:18Z</time>
      </trkpt>
      <trkpt lat="43.66028" lon="3.31197">
        <ele>283.1</ele>
        <time>2024-08-06T07:18:19Z</time>
      </trkpt>
      <trkpt lat="43.66029" lon="3.31193">
        <ele>283.5</ele>
        <time>2024-08-06T07:18:20Z</time>
      </trkpt>
      <trkpt lat="43.66029" lon="3.3119">
        <ele>283.6</ele>
        <time>2024-08-06T07:18:21Z</time>
      </trkpt>
      <trkpt lat="43.6603" lon="3.31187">
        <ele>284.1</ele>
        <time>2024-08-06T07:18:22Z</time>
      </trkpt>
      <trkpt lat="43.6603" lon="3.31184">
        <ele>284.2</ele>
        <time>2024-08-06T07:18:23Z</time>
      </trkpt>
      <trkpt lat="43.6603" lon="3.31181">
        <ele>284.3</ele>
        <time>2024-08-06T07:18:24Z</time>
      </trkpt>
      <trkpt lat="43.6603" lon="3.31178">
        <ele>284.4</ele>
        <time>2024-08-06T07:18:25Z</time>
      </trkpt>
      <trkpt lat="43.66031" lon="3.31175">
        <ele>284.8</ele>
        <time>2024-08-06T07:18:26Z</time>
      </trkpt>
      <trkpt lat="43.66031" lon="3.31171">
        <ele>284.9</ele>
        <time>2024-08-06T07:18:27Z</time>
      </trkpt>
      <trkpt lat="43.66032" lon="3.31169">
        <ele>285.3</ele>
        <time>2024-08-06T07:18:28Z</time>
      </trkpt>
      <trkpt lat="43.66033" lon="3.31166">
        <ele>285.7</ele>
        <time>2024-08-06T07:18:29Z</time>
      </trkpt>
      <trkpt lat="43.66034" lon="3.31164">
        <ele>286</ele>
        <time>2024-08-06T07:18:30Z</time>
      </trkpt>
      <trkpt lat="43.66036" lon="3.31162">
        <ele>286.7</ele>
        <time>2024-08-06T07:18:31Z</time>
      </trkpt>
      <trkpt lat="43.66037" lon="3.31159">
        <ele>287</ele>
        <time>2024-08-06T07:18:32Z</time>
      </trkpt>
      <trkpt lat="43.66039" lon="3.31156">
        <ele>287.6</ele>
        <time>2024-08-06T07:18:33Z</time>
      </trkpt>
      <trkpt lat="43.6604" lon="3.31154">
        <ele>288</ele>
        <time>2024-08-06T07:18:34Z</time>
      </trkpt>
      <trkpt lat="43.66042" lon="3.31152">
        <ele>288.6</ele>
        <time>2024-08-06T07:18:35Z</time>
      </trkpt>
      <trkpt lat="43.66044" lon="3.31151">
        <ele>289.3</ele>
        <time>2024-08-06T07:18:36Z</time>
      </trkpt>
      <trkpt lat="43.66046" lon="3.31149">
        <ele>289.9</ele>
        <time>2024-08-06T07:18:37Z</time>
      </trkpt>
      <trkpt lat="43.66048" lon="3.31146">
        <ele>290.6</ele>
        <time>2024-08-06T07:18:38Z</time>
      </trkpt>
      <trkpt lat="43.6605" lon="3.31144">
        <ele>291.2</ele>
        <time>2024-08-06T07:18:39Z</time>
      </trkpt>
      <trkpt lat="43.66051" lon="3.31143">
        <ele>291.5</ele>
        <time>2024-08-06T07:18:40Z</time>
      </trkpt>
      <trkpt lat="43.66053" lon="3.31141">
        <ele>292.2</ele>
        <time>2024-08-06T07:18:41Z</time>
      </trkpt>
      <trkpt lat="43.66055" lon="3.31139">
        <ele>292.8</ele>
        <time>2024-08-06T07:18:42Z</time>
      </trkpt>
      <trkpt lat="43.66057" lon="3.31137">
        <ele>293.8</ele>
        <time>2024-08-06T07:18:43Z</time>
      </trkpt>
      <trkpt lat="43.66059" lon="3.31136">
        <ele>294.6</ele>
        <time>2024-08-06T07:18:44Z</time>
      </trkpt>
      <trkpt lat="43.66061" lon="3.31133">
        <ele>295.7</ele>
        <time>2024-08-06T07:18:45Z</time>
      </trkpt>
      <trkpt lat="43.66062" lon="3.31131">
        <ele>296.2</ele>
        <time>2024-08-06T07:18:46Z</time>
      </trkpt>
      <trkpt lat="43.66064" lon="3.31129">
        <ele>297.1</ele>
        <time>2024-08-06T07:18:47Z</time>
      </trkpt>
      <trkpt lat="43.66065" lon="3.31126">
        <ele>297.7</ele>
        <time>2024-08-06T07:18:48Z</time>
      </trkpt>
      <trkpt lat="43.66067" lon="3.31123">
        <ele>298.5</ele>
        <time>2024-08-06T07:18:49Z</time>
      </trkpt>
      <trkpt lat="43.66068" lon="3.31121">
        <ele>299</ele>
        <time>2024-08-06T07:18:50Z</time>
      </trkpt>
      <trkpt lat="43.66068" lon="3.31118">
        <ele>299.2</ele>
        <time>2024-08-06T07:18:51Z</time>
      </trkpt>
      <trkpt lat="43.66069" lon="3.31115">
        <ele>299.7</ele>
        <time>2024-08-06T07:18:52Z</time>
      </trkpt>
      <trkpt lat="43.6607" lon="3.31112">
        <ele>300.1</ele>
        <time>2024-08-06T07:18:53Z</time>
      </trkpt>
      <trkpt lat="43.6607" lon="3.31109">
        <ele>300</ele>
        <time>2024-08-06T07:18:54Z</time>
      </trkpt>
      <trkpt lat="43.66071" lon="3.31105">
        <ele>300.1</ele>
        <time>2024-08-06T07:18:55Z</time>
      </trkpt>
      <trkpt lat="43.66071" lon="3.31102">
        <ele>299.9</ele>
        <time>2024-08-06T07:18:56Z</time>
      </trkpt>
      <trkpt lat="43.66072" lon="3.31099">
        <ele>300</ele>
        <time>2024-08-06T07:18:57Z</time>
      </trkpt>
      <trkpt lat="43.66073" lon="3.31096">
        <ele>300.1</ele>
        <time>2024-08-06T07:18:58Z</time>
      </trkpt>
      <trkpt lat="43.66074" lon="3.31093">
        <ele>300.2</ele>
        <time>2024-08-06T07:18:59Z</time>
      </trkpt>
      <trkpt lat="43.66075" lon="3.31089">
        <ele>300.2</ele>
        <time>2024-08-06T07:19:00Z</time>
      </trkpt>
      <trkpt lat="43.66076" lon="3.31087">
        <ele>300.4</ele>
        <time>2024-08-06T07:19:01Z</time>
      </trkpt>
      <trkpt lat="43.66077" lon="3.31084">
        <ele>300.4</ele>
        <time>2024-08-06T07:19:02Z</time>
      </trkpt>
      <trkpt lat="43.66078" lon="3.31082">
        <ele>300.6</ele>
        <time>2024-08-06T07:19:03Z</time>
      </trkpt>
      <trkpt lat="43.66079" lon="3.31079">
        <ele>300.7</ele>
        <time>2024-08-06T07:19:04Z</time>
      </trkpt>
      <trkpt lat="43.6608" lon="3.31076">
        <ele>300.8</ele>
        <time>2024-08-06T07:19:05Z</time>
      </trkpt>
      <trkpt lat="43.66081" lon="3.31073">
        <ele>300.9</ele>
        <time>2024-08-06T07:19:06Z</time>
      </trkpt>
      <trkpt lat="43.66083" lon="3.3107">
        <ele>301.4</ele>
        <time>2024-08-06T07:19:07Z</time>
      </trkpt>
      <trkpt lat="43.66084" lon="3.31067">
        <ele>301.7</ele>
        <time>2024-08-06T07:19:08Z</time>
      </trkpt>
      <trkpt lat="43.66085" lon="3.31065">
        <ele>302</ele>
        <time>2024-08-06T07:19:09Z</time>
      </trkpt>
      <trkpt lat="43.66086" lon="3.31062">
        <ele>302.4</ele>
        <time>2024-08-06T07:19:10Z</time>
      </trkpt>
      <trkpt lat="43.66087" lon="3.31059">
        <ele>302.7</ele>
        <time>2024-08-06T07:19:11Z</time>
      </trkpt>
      <trkpt lat="43.66089" lon="3.31056">
        <ele>303.5</ele>
        <time>2024-08-06T07:19:12Z</time>
      </trkpt>
      <trkpt lat="43.6609" lon="3.31053">
        <ele>304</ele>
        <time>2024-08-06T07:19:13Z</time>
      </trkpt>
      <trkpt lat="43.66091" lon="3.31049">
        <ele>304.7</ele>
        <time>2024-08-06T07:19:14Z</time>
      </trkpt>
      <trkpt lat="43.66092" lon="3.31045">
        <ele>305.3</ele>
        <time>2024-08-06T07:19:15Z</time>
      </trkpt>
      <trkpt lat="43.66093" lon="3.31042">
        <ele>305.8</ele>
        <time>2024-08-06T07:19:16Z</time>
      </trkpt>
      <trkpt lat="43.66094" lon="3.31038">
        <ele>306.4</ele>
        <time>2024-08-06T07:19:17Z</time>
      </trkpt>
      <trkpt lat="43.66094" lon="3.31035">
        <ele>306.5</ele>
        <time>2024-08-06T07:19:18Z</time>
      </trkpt>
      <trkpt lat="43.66096" lon="3.31032">
        <ele>307.4</ele>
        <time>2024-08-06T07:19:19Z</time>
      </trkpt>
      <trkpt lat="43.66097" lon="3.31029">
        <ele>307.9</ele>
        <time>2024-08-06T07:19:20Z</time>
      </trkpt>
      <trkpt lat="43.66098" lon="3.31025">
        <ele>308.3</ele>
        <time>2024-08-06T07:19:21Z</time>
      </trkpt>
      <trkpt lat="43.66098" lon="3.31021">
        <ele>308.3</ele>
        <time>2024-08-06T07:19:22Z</time>
      </trkpt>
      <trkpt lat="43.66099" lon="3.31017">
        <ele>308.6</ele>
        <time>2024-08-06T07:19:23Z</time>
      </trkpt>
      <trkpt lat="43.66099" lon="3.31014">
        <ele>308.6</ele>
        <time>2024-08-06T07:19:24Z</time>
      </trkpt>
      <trkpt lat="43.661" lon="3.31011">
        <ele>308.9</ele>
        <time>2024-08-06T07:19:25Z</time>
      </trkpt>
      <trkpt lat="43.66101" lon="3.31008">
        <ele>309.2</ele>
        <time>2024-08-06T07:19:26Z</time>
      </trkpt>
      <trkpt lat="43.66102" lon="3.31004">
        <ele>309.4</ele>
        <time>2024-08-06T07:19:27Z</time>
      </trkpt>
      <trkpt lat="43.66102" lon="3.31">
        <ele>309.4</ele>
        <time>2024-08-06T07:19:28Z</time>
      </trkpt>
      <trkpt lat="43.66103" lon="3.30997">
        <ele>309.5</ele>
        <time>2024-08-06T07:19:29Z</time>
      </trkpt>
      <trkpt lat="43.66105" lon="3.30993">
        <ele>309.8</ele>
        <time>2024-08-06T07:19:30Z</time>
      </trkpt>
      <trkpt lat="43.66106" lon="3.30989">
        <ele>309.8</ele>
        <time>2024-08-06T07:19:31Z</time>
      </trkpt>
      <trkpt lat="43.66107" lon="3.30986">
        <ele>309.9</ele>
        <time>2024-08-06T07:19:32Z</time>
      </trkpt>
      <trkpt lat="43.66107" lon="3.30983">
        <ele>309.7</ele>
        <time>2024-08-06T07:19:33Z</time>
      </trkpt>
      <trkpt lat="43.66108" lon="3.3098">
        <ele>309.7</ele>
        <time>2024-08-06T07:19:34Z</time>
      </trkpt>
      <trkpt lat="43.66109" lon="3.30976">
        <ele>309.7</ele>
        <time>2024-08-06T07:19:35Z</time>
      </trkpt>
      <trkpt lat="43.66109" lon="3.30973">
        <ele>309.5</ele>
        <time>2024-08-06T07:19:36Z</time>
      </trkpt>
      <trkpt lat="43.6611" lon="3.30969">
        <ele>309.7</ele>
        <time>2024-08-06T07:19:37Z</time>
      </trkpt>
      <trkpt lat="43.6611" lon="3.30966">
        <ele>309.7</ele>
        <time>2024-08-06T07:19:38Z</time>
      </trkpt>
      <trkpt lat="43.66111" lon="3.30962">
        <ele>310</ele>
        <time>2024-08-06T07:19:39Z</time>
      </trkpt>
      <trkpt lat="43.66112" lon="3.30959">
        <ele>310.4</ele>
        <time>2024-08-06T07:19:40Z</time>
      </trkpt>
      <trkpt lat="43.66112" lon="3.30956">
        <ele>310.4</ele>
        <time>2024-08-06T07:19:41Z</time>
      </trkpt>
      <trkpt lat="43.66112" lon="3.30953">
        <ele>310.4</ele>
        <time>2024-08-06T07:19:42Z</time>
      </trkpt>
      <trkpt lat="43.66112" lon="3.30949">
        <ele>310.4</ele>
        <time>2024-08-06T07:19:43Z</time>
      </trkpt>
      <trkpt lat="43.66113" lon="3.30945">
        <ele>310.8</ele>
        <time>2024-08-06T07:19:44Z</time>
      </trkpt>
      <trkpt lat="43.66113" lon="3.3094">
        <ele>310.8</ele>
        <time>2024-08-06T07:19:45Z</time>
      </trkpt>
      <trkpt lat="43.66113" lon="3.30936">
        <ele>310.8</ele>
        <time>2024-08-06T07:19:46Z</time>
      </trkpt>
      <trkpt lat="43.66113" lon="3.30932">
        <ele>310.8</ele>
        <time>2024-08-06T07:19:47Z</time>
      </trkpt>
      <trkpt lat="43.66114" lon="3.30928">
        <ele>311.1</ele>
        <time>2024-08-06T07:19:48Z</time>
      </trkpt>
      <trkpt lat="43.66115" lon="3.30924">
        <ele>311.5</ele>
        <time>2024-08-06T07:19:49Z</time>
      </trkpt>
      <trkpt lat="43.66116" lon="3.3092">
        <ele>311.8</ele>
        <time>2024-08-06T07:19:50Z</time>
      </trkpt>
      <trkpt lat="43.66117" lon="3.30916">
        <ele>312.1</ele>
        <time>2024-08-06T07:19:51Z</time>
      </trkpt>
      <trkpt lat="43.66118" lon="3.30913">
        <ele>312.2</ele>
        <time>2024-08-06T07:19:52Z</time>
      </trkpt>
      <trkpt lat="43.66118" lon="3.30909">
        <ele>311.9</ele>
        <time>2024-08-06T07:19:53Z</time>
      </trkpt>
      <trkpt lat="43.66119" lon="3.30906">
        <ele>312.1</ele>
        <time>2024-08-06T07:19:54Z</time>
      </trkpt>
      <trkpt lat="43.6612" lon="3.30902">
        <ele>312.1</ele>
        <time>2024-08-06T07:19:55Z</time>
      </trkpt>
      <trkpt lat="43.66122" lon="3.309">
        <ele>312.7</ele>
        <time>2024-08-06T07:19:56Z</time>
      </trkpt>
      <trkpt lat="43.66124" lon="3.30897">
        <ele>313.2</ele>
        <time>2024-08-06T07:19:57Z</time>
      </trkpt>
      <trkpt lat="43.66125" lon="3.30895">
        <ele>313.4</ele>
        <time>2024-08-06T07:19:58Z</time>
      </trkpt>
      <trkpt lat="43.66127" lon="3.30892">
        <ele>313.9</ele>
        <time>2024-08-06T07:19:59Z</time>
      </trkpt>
      <trkpt lat="43.66129" lon="3.30889">
        <ele>314.4</ele>
        <time>2024-08-06T07:20:00Z</time>
      </trkpt>
      <trkpt lat="43.6613" lon="3.30886">
        <ele>314.4</ele>
        <time>2024-08-06T07:20:01Z</time>
      </trkpt>
      <trkpt lat="43.66131" lon="3.30883">
        <ele>314.4</ele>
        <time>2024-08-06T07:20:02Z</time>
      </trkpt>
      <trkpt lat="43.66132" lon="3.3088">
        <ele>314.3</ele>
        <time>2024-08-06T07:20:03Z</time>
      </trkpt>
      <trkpt lat="43.66133" lon="3.30877">
        <ele>314.3</ele>
        <time>2024-08-06T07:20:04Z</time>
      </trkpt>
      <trkpt lat="43.66136" lon="3.30876">
        <ele>315.2</ele>
        <time>2024-08-06T07:20:05Z</time>
      </trkpt>
      <trkpt lat="43.66138" lon="3.30876">
        <ele>315.8</ele>
        <time>2024-08-06T07:20:06Z</time>
      </trkpt>
      <trkpt lat="43.6614" lon="3.30877">
        <ele>316.6</ele>
        <time>2024-08-06T07:20:07Z</time>
      </trkpt>
      <trkpt lat="43.66141" lon="3.3088">
        <ele>317.3</ele>
        <time>2024-08-06T07:20:08Z</time>
      </trkpt>
      <trkpt lat="43.6614" lon="3.30883">
        <ele>317.4</ele>
        <time>2024-08-06T07:20:09Z</time>
      </trkpt>
      <trkpt lat="43.66139" lon="3.30886">
        <ele>317.6</ele>
        <time>2024-08-06T07:20:10Z</time>
      </trkpt>
      <trkpt lat="43.66138" lon="3.30889">
        <ele>317.7</ele>
        <time>2024-08-06T07:20:11Z</time>
      </trkpt>
      <trkpt lat="43.66138" lon="3.30892">
        <ele>317.9</ele>
        <time>2024-08-06T07:20:12Z</time>
      </trkpt>
      <trkpt lat="43.66138" lon="3.30896">
        <ele>318.2</ele>
        <time>2024-08-06T07:20:13Z</time>
      </trkpt>
      <trkpt lat="43.66137" lon="3.30899">
        <ele>318</ele>
        <time>2024-08-06T07:20:14Z</time>
      </trkpt>
      <trkpt lat="43.66136" lon="3.30901">
        <ele>317.8</ele>
        <time>2024-08-06T07:20:15Z</time>
      </trkpt>
      <trkpt lat="43.66134" lon="3.30904">
        <ele>317.3</ele>
        <time>2024-08-06T07:20:16Z</time>
      </trkpt>
      <trkpt lat="43.66134" lon="3.30907">
        <ele>317.5</ele>
        <time>2024-08-06T07:20:17Z</time>
      </trkpt>
      <trkpt lat="43.66134" lon="3.3091">
        <ele>317.8</ele>
        <time>2024-08-06T07:20:18Z</time>
      </trkpt>
      <trkpt lat="43.66133" lon="3.30914">
        <ele>317.7</ele>
        <time>2024-08-06T07:20:19Z</time>
      </trkpt>
      <trkpt lat="43.66133" lon="3.30918">
        <ele>318</ele>
        <time>2024-08-06T07:20:20Z</time>
      </trkpt>
      <trkpt lat="43.66133" lon="3.30921">
        <ele>318.1</ele>
        <time>2024-08-06T07:20:21Z</time>
      </trkpt>
      <trkpt lat="43.66134" lon="3.30925">
        <ele>318.7</ele>
        <time>2024-08-06T07:20:22Z</time>
      </trkpt>
      <trkpt lat="43.66135" lon="3.30928">
        <ele>319.3</ele>
        <time>2024-08-06T07:20:23Z</time>
      </trkpt>
      <trkpt lat="43.66135" lon="3.30932">
        <ele>319.5</ele>
        <time>2024-08-06T07:20:24Z</time>
      </trkpt>
      <trkpt lat="43.66135" lon="3.30936">
        <ele>319.8</ele>
        <time>2024-08-06T07:20:25Z</time>
      </trkpt>
      <trkpt lat="43.66136" lon="3.3094">
        <ele>320.5</ele>
        <time>2024-08-06T07:20:26Z</time>
      </trkpt>
      <trkpt lat="43.66136" lon="3.30944">
        <ele>320.7</ele>
        <time>2024-08-06T07:20:27Z</time>
      </trkpt>
      <trkpt lat="43.66136" lon="3.30949">
        <ele>320.9</ele>
        <time>2024-08-06T07:20:28Z</time>
      </trkpt>
      <trkpt lat="43.66136" lon="3.30953">
        <ele>321</ele>
        <time>2024-08-06T07:20:29Z</time>
      </trkpt>
      <trkpt lat="43.66137" lon="3.30956">
        <ele>321.6</ele>
        <time>2024-08-06T07:20:30Z</time>
      </trkpt>
      <trkpt lat="43.66137" lon="3.3096">
        <ele>321.7</ele>
        <time>2024-08-06T07:20:31Z</time>
      </trkpt>
      <trkpt lat="43.66137" lon="3.30963">
        <ele>321.8</ele>
        <time>2024-08-06T07:20:32Z</time>
      </trkpt>
      <trkpt lat="43.66138" lon="3.30967">
        <ele>322.4</ele>
        <time>2024-08-06T07:20:33Z</time>
      </trkpt>
      <trkpt lat="43.66137" lon="3.3097">
        <ele>322</ele>
        <time>2024-08-06T07:20:34Z</time>
      </trkpt>
      <trkpt lat="43.66137" lon="3.30974">
        <ele>322.2</ele>
        <time>2024-08-06T07:20:35Z</time>
      </trkpt>
      <trkpt lat="43.66137" lon="3.30978">
        <ele>322.3</ele>
        <time>2024-08-06T07:20:36Z</time>
      </trkpt>
      <trkpt lat="43.66137" lon="3.30982">
        <ele>322.5</ele>
        <time>2024-08-06T07:20:37Z</time>
      </trkpt>
      <trkpt lat="43.66138" lon="3.30986">
        <ele>323.1</ele>
        <time>2024-08-06T07:20:38Z</time>
      </trkpt>
      <trkpt lat="43.66138" lon="3.3099">
        <ele>323.2</ele>
        <time>2024-08-06T07:20:39Z</time>
      </trkpt>
      <trkpt lat="43.66138" lon="3.30994">
        <ele>323.4</ele>
        <time>2024-08-06T07:20:40Z</time>
      </trkpt>
      <trkpt lat="43.66138" lon="3.30998">
        <ele>323.5</ele>
        <time>2024-08-06T07:20:41Z</time>
      </trkpt>
      <trkpt lat="43.66137" lon="3.31002">
        <ele>323.3</ele>
        <time>2024-08-06T07:20:42Z</time>
      </trkpt>
      <trkpt lat="43.66137" lon="3.31006">
        <ele>323.4</ele>
        <time>2024-08-06T07:20:43Z</time>
      </trkpt>
      <trkpt lat="43.66137" lon="3.31009">
        <ele>323.5</ele>
        <time>2024-08-06T07:20:44Z</time>
      </trkpt>
      <trkpt lat="43.66137" lon="3.31013">
        <ele>323.7</ele>
        <time>2024-08-06T07:20:45Z</time>
      </trkpt>
      <trkpt lat="43.66137" lon="3.31016">
        <ele>323.8</ele>
        <time>2024-08-06T07:20:46Z</time>
      </trkpt>
      <trkpt lat="43.66138" lon="3.3102">
        <ele>324.3</ele>
        <time>2024-08-06T07:20:47Z</time>
      </trkpt>
      <trkpt lat="43.66138" lon="3.31024">
        <ele>324.5</ele>
        <time>2024-08-06T07:20:48Z</time>
      </trkpt>
      <trkpt lat="43.66138" lon="3.31028">
        <ele>324.6</ele>
        <time>2024-08-06T07:20:49Z</time>
      </trkpt>
      <trkpt lat="43.66137" lon="3.31032">
        <ele>324.3</ele>
        <time>2024-08-06T07:20:50Z</time>
      </trkpt>
      <trkpt lat="43.66137" lon="3.31035">
        <ele>324.4</ele>
        <time>2024-08-06T07:20:51Z</time>
      </trkpt>
      <trkpt lat="43.66138" lon="3.31038">
        <ele>325</ele>
        <time>2024-08-06T07:20:52Z</time>
      </trkpt>
      <trkpt lat="43.66138" lon="3.31041">
        <ele>325.1</ele>
        <time>2024-08-06T07:20:53Z</time>
      </trkpt>
      <trkpt lat="43.66138" lon="3.31044">
        <ele>325.2</ele>
        <time>2024-08-06T07:20:54Z</time>
      </trkpt>
      <trkpt lat="43.66138" lon="3.31047">
        <ele>325.3</ele>
        <time>2024-08-06T07:20:55Z</time>
      </trkpt>
      <trkpt lat="43.66138" lon="3.31051">
        <ele>325.4</ele>
        <time>2024-08-06T07:20:56Z</time>
      </trkpt>
      <trkpt lat="43.66138" lon="3.31056">
        <ele>325.6</ele>
        <time>2024-08-06T07:20:57Z</time>
      </trkpt>
      <trkpt lat="43.66138" lon="3.3106">
        <ele>325.6</ele>
        <time>2024-08-06T07:20:58Z</time>
      </trkpt>
      <trkpt lat="43.66139" lon="3.31063">
        <ele>326</ele>
        <time>2024-08-06T07:20:59Z</time>
      </trkpt>
      <trkpt lat="43.66139" lon="3.31066">
        <ele>326</ele>
        <time>2024-08-06T07:21:00Z</time>
      </trkpt>
      <trkpt lat="43.6614" lon="3.3107">
        <ele>326.3</ele>
        <time>2024-08-06T07:21:01Z</time>
      </trkpt>
      <trkpt lat="43.66141" lon="3.31073">
        <ele>326.6</ele>
        <time>2024-08-06T07:21:02Z</time>
      </trkpt>
      <trkpt lat="43.66142" lon="3.31077">
        <ele>326.9</ele>
        <time>2024-08-06T07:21:03Z</time>
      </trkpt>
      <trkpt lat="43.66143" lon="3.31081">
        <ele>327.2</ele>
        <time>2024-08-06T07:21:04Z</time>
      </trkpt>
      <trkpt lat="43.66146" lon="3.31084">
        <ele>328</ele>
        <time>2024-08-06T07:21:05Z</time>
      </trkpt>
      <trkpt lat="43.66148" lon="3.31087">
        <ele>328.5</ele>
        <time>2024-08-06T07:21:06Z</time>
      </trkpt>
      <trkpt lat="43.6615" lon="3.31091">
        <ele>329</ele>
        <time>2024-08-06T07:21:07Z</time>
      </trkpt>
      <trkpt lat="43.66152" lon="3.31094">
        <ele>329.6</ele>
        <time>2024-08-06T07:21:08Z</time>
      </trkpt>
      <trkpt lat="43.66154" lon="3.31097">
        <ele>330.1</ele>
        <time>2024-08-06T07:21:09Z</time>
      </trkpt>
      <trkpt lat="43.66155" lon="3.31101">
        <ele>330.4</ele>
        <time>2024-08-06T07:21:10Z</time>
      </trkpt>
      <trkpt lat="43.66156" lon="3.31105">
        <ele>330.6</ele>
        <time>2024-08-06T07:21:11Z</time>
      </trkpt>
      <trkpt lat="43.66158" lon="3.31109">
        <ele>331.2</ele>
        <time>2024-08-06T07:21:12Z</time>
      </trkpt>
      <trkpt lat="43.6616" lon="3.31113">
        <ele>331.8</ele>
        <time>2024-08-06T07:21:13Z</time>
      </trkpt>
      <trkpt lat="43.66162" lon="3.31117">
        <ele>332.5</ele>
        <time>2024-08-06T07:21:14Z</time>
      </trkpt>
      <trkpt lat="43.66164" lon="3.3112">
        <ele>333.1</ele>
        <time>2024-08-06T07:21:15Z</time>
      </trkpt>
      <trkpt lat="43.66166" lon="3.31125">
        <ele>333.8</ele>
        <time>2024-08-06T07:21:16Z</time>
      </trkpt>
      <trkpt lat="43.66168" lon="3.31128">
        <ele>334.3</ele>
        <time>2024-08-06T07:21:17Z</time>
      </trkpt>
      <trkpt lat="43.6617" lon="3.31132">
        <ele>334.8</ele>
        <time>2024-08-06T07:21:18Z</time>
      </trkpt>
      <trkpt lat="43.66173" lon="3.31135">
        <ele>335.6</ele>
        <time>2024-08-06T07:21:19Z</time>
      </trkpt>
      <trkpt lat="43.66176" lon="3.31138">
        <ele>336.4</ele>
        <time>2024-08-06T07:21:20Z</time>
      </trkpt>
      <trkpt lat="43.66178" lon="3.31142">
        <ele>336.9</ele>
        <time>2024-08-06T07:21:21Z</time>
      </trkpt>
      <trkpt lat="43.6618" lon="3.31145">
        <ele>337.4</ele>
        <time>2024-08-06T07:21:22Z</time>
      </trkpt>
      <trkpt lat="43.66182" lon="3.31148">
        <ele>337.8</ele>
        <time>2024-08-06T07:21:23Z</time>
      </trkpt>
      <trkpt lat="43.66184" lon="3.31152">
        <ele>338.3</ele>
        <time>2024-08-06T07:21:24Z</time>
      </trkpt>
      <trkpt lat="43.66185" lon="3.31156">
        <ele>338.4</ele>
        <time>2024-08-06T07:21:25Z</time>
      </trkpt>
      <trkpt lat="43.66185" lon="3.3116">
        <ele>338.4</ele>
        <time>2024-08-06T07:21:26Z</time>
      </trkpt>
      <trkpt lat="43.66186" lon="3.31166">
        <ele>338.5</ele>
        <time>2024-08-06T07:21:27Z</time>
      </trkpt>
      <trkpt lat="43.66186" lon="3.31171">
        <ele>338.5</ele>
        <time>2024-08-06T07:21:28Z</time>
      </trkpt>
      <trkpt lat="43.66188" lon="3.31176">
        <ele>338.9</ele>
        <time>2024-08-06T07:21:29Z</time>
      </trkpt>
      <trkpt lat="43.66189" lon="3.31182">
        <ele>339.1</ele>
        <time>2024-08-06T07:21:30Z</time>
      </trkpt>
      <trkpt lat="43.66191" lon="3.31187">
        <ele>339.5</ele>
        <time>2024-08-06T07:21:31Z</time>
      </trkpt>
      <trkpt lat="43.66194" lon="3.31191">
        <ele>339.9</ele>
        <time>2024-08-06T07:21:32Z</time>
      </trkpt>
      <trkpt lat="43.66196" lon="3.31195">
        <ele>340.3</ele>
        <time>2024-08-06T07:21:33Z</time>
      </trkpt>
      <trkpt lat="43.66198" lon="3.31198">
        <ele>340.6</ele>
        <time>2024-08-06T07:21:34Z</time>
      </trkpt>
      <trkpt lat="43.662" lon="3.31202">
        <ele>340.9</ele>
        <time>2024-08-06T07:21:35Z</time>
      </trkpt>
      <trkpt lat="43.66202" lon="3.31205">
        <ele>341.3</ele>
        <time>2024-08-06T07:21:36Z</time>
      </trkpt>
      <trkpt lat="43.66205" lon="3.31208">
        <ele>341.7</ele>
        <time>2024-08-06T07:21:37Z</time>
      </trkpt>
      <trkpt lat="43.66207" lon="3.31212">
        <ele>342</ele>
        <time>2024-08-06T07:21:38Z</time>
      </trkpt>
      <trkpt lat="43.66209" lon="3.31216">
        <ele>342.2</ele>
        <time>2024-08-06T07:21:39Z</time>
      </trkpt>
      <trkpt lat="43.66211" lon="3.31221">
        <ele>342.4</ele>
        <time>2024-08-06T07:21:40Z</time>
      </trkpt>
      <trkpt lat="43.66213" lon="3.31226">
        <ele>342.5</ele>
        <time>2024-08-06T07:21:41Z</time>
      </trkpt>
      <trkpt lat="43.66214" lon="3.31231">
        <ele>342.4</ele>
        <time>2024-08-06T07:21:42Z</time>
      </trkpt>
      <trkpt lat="43.66215" lon="3.31237">
        <ele>342.3</ele>
        <time>2024-08-06T07:21:43Z</time>
      </trkpt>
      <trkpt lat="43.66216" lon="3.31242">
        <ele>342.2</ele>
        <time>2024-08-06T07:21:44Z</time>
      </trkpt>
      <trkpt lat="43.66216" lon="3.31247">
        <ele>342</ele>
        <time>2024-08-06T07:21:45Z</time>
      </trkpt>
      <trkpt lat="43.66217" lon="3.31252">
        <ele>342</ele>
        <time>2024-08-06T07:21:46Z</time>
      </trkpt>
      <trkpt lat="43.66218" lon="3.31256">
        <ele>342.1</ele>
        <time>2024-08-06T07:21:47Z</time>
      </trkpt>
      <trkpt lat="43.66219" lon="3.3126">
        <ele>342.1</ele>
        <time>2024-08-06T07:21:48Z</time>
      </trkpt>
      <trkpt lat="43.66219" lon="3.31265">
        <ele>341.9</ele>
        <time>2024-08-06T07:21:49Z</time>
      </trkpt>
      <trkpt lat="43.6622" lon="3.3127">
        <ele>341.9</ele>
        <time>2024-08-06T07:21:50Z</time>
      </trkpt>
      <trkpt lat="43.66222" lon="3.31274">
        <ele>342.1</ele>
        <time>2024-08-06T07:21:51Z</time>
      </trkpt>
      <trkpt lat="43.66223" lon="3.31279">
        <ele>342.1</ele>
        <time>2024-08-06T07:21:52Z</time>
      </trkpt>
      <trkpt lat="43.66225" lon="3.31282">
        <ele>342.5</ele>
        <time>2024-08-06T07:21:53Z</time>
      </trkpt>
      <trkpt lat="43.66226" lon="3.31286">
        <ele>342.6</ele>
        <time>2024-08-06T07:21:54Z</time>
      </trkpt>
      <trkpt lat="43.66226" lon="3.31289">
        <ele>342.6</ele>
        <time>2024-08-06T07:21:55Z</time>
      </trkpt>
      <trkpt lat="43.66227" lon="3.31291">
        <ele>342.8</ele>
        <time>2024-08-06T07:21:56Z</time>
      </trkpt>
      <trkpt lat="43.66227" lon="3.31295">
        <ele>342.8</ele>
        <time>2024-08-06T07:21:57Z</time>
      </trkpt>
      <trkpt lat="43.66228" lon="3.31299">
        <ele>342.9</ele>
        <time>2024-08-06T07:21:58Z</time>
      </trkpt>
      <trkpt lat="43.66228" lon="3.31303">
        <ele>342.9</ele>
        <time>2024-08-06T07:21:59Z</time>
      </trkpt>
      <trkpt lat="43.66228" lon="3.31308">
        <ele>342.9</ele>
        <time>2024-08-06T07:22:00Z</time>
      </trkpt>
      <trkpt lat="43.66228" lon="3.31312">
        <ele>343</ele>
        <time>2024-08-06T07:22:01Z</time>
      </trkpt>
      <trkpt lat="43.66228" lon="3.31315">
        <ele>343.1</ele>
        <time>2024-08-06T07:22:02Z</time>
      </trkpt>
      <trkpt lat="43.66229" lon="3.31318">
        <ele>343.3</ele>
        <time>2024-08-06T07:22:03Z</time>
      </trkpt>
      <trkpt lat="43.6623" lon="3.31321">
        <ele>343.5</ele>
        <time>2024-08-06T07:22:04Z</time>
      </trkpt>
      <trkpt lat="43.66229" lon="3.31324">
        <ele>343.5</ele>
        <time>2024-08-06T07:22:05Z</time>
      </trkpt>
      <trkpt lat="43.66228" lon="3.31326">
        <ele>343.4</ele>
        <time>2024-08-06T07:22:06Z</time>
      </trkpt>
      <trkpt lat="43.66228" lon="3.31326">
        <ele>343.4</ele>
        <time>2024-08-06T07:22:07Z</time>
      </trkpt>
      <trkpt lat="43.66228" lon="3.31326">
        <ele>343.4</ele>
        <time>2024-08-06T07:22:08Z</time>
      </trkpt>
      <trkpt lat="43.66225" lon="3.3132">
        <ele>342.9</ele>
        <time>2024-08-06T07:24:37Z</time>
      </trkpt>
      <trkpt lat="43.66224" lon="3.31318">
        <ele>342.7</ele>
        <time>2024-08-06T07:24:38Z</time>
      </trkpt>
      <trkpt lat="43.66222" lon="3.31316">
        <ele>342.3</ele>
        <time>2024-08-06T07:24:39Z</time>
      </trkpt>
      <trkpt lat="43.6622" lon="3.31312">
        <ele>341.8</ele>
        <time>2024-08-06T07:24:40Z</time>
      </trkpt>
      <trkpt lat="43.66218" lon="3.31308">
        <ele>341.3</ele>
        <time>2024-08-06T07:24:41Z</time>
      </trkpt>
      <trkpt lat="43.66215" lon="3.31304">
        <ele>340.7</ele>
        <time>2024-08-06T07:24:42Z</time>
      </trkpt>
      <trkpt lat="43.66213" lon="3.31299">
        <ele>340.4</ele>
        <time>2024-08-06T07:24:43Z</time>
      </trkpt>
      <trkpt lat="43.6621" lon="3.31293">
        <ele>340</ele>
        <time>2024-08-06T07:24:44Z</time>
      </trkpt>
      <trkpt lat="43.66206" lon="3.31288">
        <ele>339.4</ele>
        <time>2024-08-06T07:24:45Z</time>
      </trkpt>
      <trkpt lat="43.66203" lon="3.31281">
        <ele>339.2</ele>
        <time>2024-08-06T07:24:46Z</time>
      </trkpt>
      <trkpt lat="43.66199" lon="3.31274">
        <ele>338.7</ele>
        <time>2024-08-06T07:24:47Z</time>
      </trkpt>
      <trkpt lat="43.66194" lon="3.31267">
        <ele>337.9</ele>
        <time>2024-08-06T07:24:48Z</time>
      </trkpt>
      <trkpt lat="43.6619" lon="3.31261">
        <ele>337.1</ele>
        <time>2024-08-06T07:24:49Z</time>
      </trkpt>
      <trkpt lat="43.66186" lon="3.31254">
        <ele>336.4</ele>
        <time>2024-08-06T07:24:50Z</time>
      </trkpt>
      <trkpt lat="43.66183" lon="3.31249">
        <ele>336</ele>
        <time>2024-08-06T07:24:51Z</time>
      </trkpt>
      <trkpt lat="43.66179" lon="3.31244">
        <ele>335.7</ele>
        <time>2024-08-06T07:24:52Z</time>
      </trkpt>
      <trkpt lat="43.66176" lon="3.31239">
        <ele>335.5</ele>
        <time>2024-08-06T07:24:53Z</time>
      </trkpt>
      <trkpt lat="43.66173" lon="3.31236">
        <ele>335.1</ele>
        <time>2024-08-06T07:24:54Z</time>
      </trkpt>
      <trkpt lat="43.6617" lon="3.31234">
        <ele>334.8</ele>
        <time>2024-08-06T07:24:55Z</time>
      </trkpt>
      <trkpt lat="43.66168" lon="3.31231">
        <ele>334.6</ele>
        <time>2024-08-06T07:24:56Z</time>
      </trkpt>
      <trkpt lat="43.66165" lon="3.31228">
        <ele>334</ele>
        <time>2024-08-06T07:24:57Z</time>
      </trkpt>
      <trkpt lat="43.66163" lon="3.31224">
        <ele>333.7</ele>
        <time>2024-08-06T07:24:58Z</time>
      </trkpt>
      <trkpt lat="43.66161" lon="3.31221">
        <ele>333.2</ele>
        <time>2024-08-06T07:24:59Z</time>
      </trkpt>
      <trkpt lat="43.66158" lon="3.31218">
        <ele>332.3</ele>
        <time>2024-08-06T07:25:00Z</time>
      </trkpt>
      <trkpt lat="43.66157" lon="3.31216">
        <ele>332.1</ele>
        <time>2024-08-06T07:25:01Z</time>
      </trkpt>
      <trkpt lat="43.66156" lon="3.31214">
        <ele>331.8</ele>
        <time>2024-08-06T07:25:02Z</time>
      </trkpt>
      <trkpt lat="43.66155" lon="3.31213">
        <ele>331.6</ele>
        <time>2024-08-06T07:25:03Z</time>
      </trkpt>
      <trkpt lat="43.66154" lon="3.31212">
        <ele>331.3</ele>
        <time>2024-08-06T07:25:04Z</time>
      </trkpt>
      <trkpt lat="43.66152" lon="3.3121">
        <ele>330.7</ele>
        <time>2024-08-06T07:25:05Z</time>
      </trkpt>
      <trkpt lat="43.66151" lon="3.31209">
        <ele>330.4</ele>
        <time>2024-08-06T07:25:06Z</time>
      </trkpt>
      <trkpt lat="43.6615" lon="3.31207">
        <ele>330.1</ele>
        <time>2024-08-06T07:25:07Z</time>
      </trkpt>
      <trkpt lat="43.66148" lon="3.31206">
        <ele>329.5</ele>
        <time>2024-08-06T07:25:08Z</time>
      </trkpt>
      <trkpt lat="43.66147" lon="3.31204">
        <ele>329.3</ele>
        <time>2024-08-06T07:25:09Z</time>
      </trkpt>
      <trkpt lat="43.66146" lon="3.31203">
        <ele>329</ele>
        <time>2024-08-06T07:25:10Z</time>
      </trkpt>
      <trkpt lat="43.66145" lon="3.31202">
        <ele>328.7</ele>
        <time>2024-08-06T07:25:11Z</time>
      </trkpt>
      <trkpt lat="43.66144" lon="3.31201">
        <ele>328.4</ele>
        <time>2024-08-06T07:25:12Z</time>
      </trkpt>
      <trkpt lat="43.66142" lon="3.31199">
        <ele>327.8</ele>
        <time>2024-08-06T07:25:13Z</time>
      </trkpt>
      <trkpt lat="43.66141" lon="3.31197">
        <ele>327.6</ele>
        <time>2024-08-06T07:25:14Z</time>
      </trkpt>
      <trkpt lat="43.6614" lon="3.31196">
        <ele>327.3</ele>
        <time>2024-08-06T07:25:15Z</time>
      </trkpt>
      <trkpt lat="43.66139" lon="3.31194">
        <ele>327</ele>
        <time>2024-08-06T07:25:16Z</time>
      </trkpt>
      <trkpt lat="43.66137" lon="3.31191">
        <ele>326.1</ele>
        <time>2024-08-06T07:25:17Z</time>
      </trkpt>
      <trkpt lat="43.66135" lon="3.3119">
        <ele>325.3</ele>
        <time>2024-08-06T07:25:18Z</time>
      </trkpt>
      <trkpt lat="43.66134" lon="3.31187">
        <ele>324.8</ele>
        <time>2024-08-06T07:25:19Z</time>
      </trkpt>
      <trkpt lat="43.66132" lon="3.31184">
        <ele>323.9</ele>
        <time>2024-08-06T07:25:20Z</time>
      </trkpt>
      <trkpt lat="43.6613" lon="3.31182">
        <ele>323</ele>
        <time>2024-08-06T07:25:21Z</time>
      </trkpt>
      <trkpt lat="43.66129" lon="3.31179">
        <ele>322.5</ele>
        <time>2024-08-06T07:25:22Z</time>
      </trkpt>
      <trkpt lat="43.66128" lon="3.31176">
        <ele>322</ele>
        <time>2024-08-06T07:25:23Z</time>
      </trkpt>
      <trkpt lat="43.66127" lon="3.31172">
        <ele>321.5</ele>
        <time>2024-08-06T07:25:24Z</time>
      </trkpt>
      <trkpt lat="43.66126" lon="3.31168">
        <ele>320.9</ele>
        <time>2024-08-06T07:25:25Z</time>
      </trkpt>
      <trkpt lat="43.66125" lon="3.31165">
        <ele>320.4</ele>
        <time>2024-08-06T07:25:26Z</time>
      </trkpt>
      <trkpt lat="43.66125" lon="3.31162">
        <ele>320.3</ele>
        <time>2024-08-06T07:25:27Z</time>
      </trkpt>
      <trkpt lat="43.66124" lon="3.3116">
        <ele>319.9</ele>
        <time>2024-08-06T07:25:28Z</time>
      </trkpt>
      <trkpt lat="43.66124" lon="3.31157">
        <ele>319.8</ele>
        <time>2024-08-06T07:25:29Z</time>
      </trkpt>
      <trkpt lat="43.66123" lon="3.31155">
        <ele>319.3</ele>
        <time>2024-08-06T07:25:30Z</time>
      </trkpt>
      <trkpt lat="43.66123" lon="3.31154">
        <ele>319.3</ele>
        <time>2024-08-06T07:25:31Z</time>
      </trkpt>
      <trkpt lat="43.66122" lon="3.31152">
        <ele>318.8</ele>
        <time>2024-08-06T07:25:32Z</time>
      </trkpt>
      <trkpt lat="43.66122" lon="3.31152">
        <ele>318.8</ele>
        <time>2024-08-06T07:25:33Z</time>
      </trkpt>
      <trkpt lat="43.66122" lon="3.3115">
        <ele>318.7</ele>
        <time>2024-08-06T07:25:34Z</time>
      </trkpt>
      <trkpt lat="43.66122" lon="3.3115">
        <ele>318.7</ele>
        <time>2024-08-06T07:25:35Z</time>
      </trkpt>
      <trkpt lat="43.66121" lon="3.31145">
        <ele>318.1</ele>
        <time>2024-08-06T07:26:21Z</time>
      </trkpt>
      <trkpt lat="43.66121" lon="3.31142">
        <ele>318</ele>
        <time>2024-08-06T07:26:22Z</time>
      </trkpt>
      <trkpt lat="43.66121" lon="3.31139">
        <ele>317.9</ele>
        <time>2024-08-06T07:26:23Z</time>
      </trkpt>
      <trkpt lat="43.6612" lon="3.31137">
        <ele>317.5</ele>
        <time>2024-08-06T07:26:24Z</time>
      </trkpt>
      <trkpt lat="43.66119" lon="3.31135">
        <ele>317</ele>
        <time>2024-08-06T07:26:25Z</time>
      </trkpt>
      <trkpt lat="43.66118" lon="3.31133">
        <ele>316.6</ele>
        <time>2024-08-06T07:26:26Z</time>
      </trkpt>
      <trkpt lat="43.66117" lon="3.31131">
        <ele>316.1</ele>
        <time>2024-08-06T07:26:27Z</time>
      </trkpt>
      <trkpt lat="43.66115" lon="3.31129">
        <ele>315.2</ele>
        <time>2024-08-06T07:26:28Z</time>
      </trkpt>
      <trkpt lat="43.66113" lon="3.31128">
        <ele>314.4</ele>
        <time>2024-08-06T07:26:29Z</time>
      </trkpt>
      <trkpt lat="43.66112" lon="3.31127">
        <ele>313.9</ele>
        <time>2024-08-06T07:26:30Z</time>
      </trkpt>
      <trkpt lat="43.66111" lon="3.31125">
        <ele>313.5</ele>
        <time>2024-08-06T07:26:31Z</time>
      </trkpt>
      <trkpt lat="43.66109" lon="3.31124">
        <ele>312.7</ele>
        <time>2024-08-06T07:26:32Z</time>
      </trkpt>
      <trkpt lat="43.66108" lon="3.31124">
        <ele>312.4</ele>
        <time>2024-08-06T07:26:33Z</time>
      </trkpt>
      <trkpt lat="43.66107" lon="3.31125">
        <ele>312.1</ele>
        <time>2024-08-06T07:26:34Z</time>
      </trkpt>
      <trkpt lat="43.66106" lon="3.31126">
        <ele>311.8</ele>
        <time>2024-08-06T07:26:35Z</time>
      </trkpt>
      <trkpt lat="43.66104" lon="3.31127">
        <ele>311.1</ele>
        <time>2024-08-06T07:26:36Z</time>
      </trkpt>
      <trkpt lat="43.66103" lon="3.31128">
        <ele>310.8</ele>
        <time>2024-08-06T07:26:37Z</time>
      </trkpt>
      <trkpt lat="43.66102" lon="3.31131">
        <ele>310.5</ele>
        <time>2024-08-06T07:26:38Z</time>
      </trkpt>
      <trkpt lat="43.661" lon="3.31132">
        <ele>309.9</ele>
        <time>2024-08-06T07:26:39Z</time>
      </trkpt>
      <trkpt lat="43.66098" lon="3.31135">
        <ele>309.2</ele>
        <time>2024-08-06T07:26:40Z</time>
      </trkpt>
      <trkpt lat="43.66097" lon="3.31137">
        <ele>308.9</ele>
        <time>2024-08-06T07:26:41Z</time>
      </trkpt>
      <trkpt lat="43.66095" lon="3.31139">
        <ele>308.2</ele>
        <time>2024-08-06T07:26:42Z</time>
      </trkpt>
      <trkpt lat="43.66094" lon="3.3114">
        <ele>307.8</ele>
        <time>2024-08-06T07:26:43Z</time>
      </trkpt>
      <trkpt lat="43.66092" lon="3.31142">
        <ele>307.1</ele>
        <time>2024-08-06T07:26:44Z</time>
      </trkpt>
      <trkpt lat="43.6609" lon="3.31144">
        <ele>306.3</ele>
        <time>2024-08-06T07:26:45Z</time>
      </trkpt>
      <trkpt lat="43.66088" lon="3.31146">
        <ele>305.5</ele>
        <time>2024-08-06T07:26:46Z</time>
      </trkpt>
      <trkpt lat="43.66086" lon="3.31149">
        <ele>304.7</ele>
        <time>2024-08-06T07:26:47Z</time>
      </trkpt>
      <trkpt lat="43.66084" lon="3.31151">
        <ele>303.8</ele>
        <time>2024-08-06T07:26:48Z</time>
      </trkpt>
      <trkpt lat="43.66082" lon="3.31154">
        <ele>303</ele>
        <time>2024-08-06T07:26:49Z</time>
      </trkpt>
      <trkpt lat="43.6608" lon="3.31156">
        <ele>302.1</ele>
        <time>2024-08-06T07:26:50Z</time>
      </trkpt>
      <trkpt lat="43.66078" lon="3.31158">
        <ele>301.3</ele>
        <time>2024-08-06T07:26:51Z</time>
      </trkpt>
      <trkpt lat="43.66075" lon="3.31161">
        <ele>300.1</ele>
        <time>2024-08-06T07:26:52Z</time>
      </trkpt>
      <trkpt lat="43.66073" lon="3.31165">
        <ele>299.3</ele>
        <time>2024-08-06T07:26:53Z</time>
      </trkpt>
      <trkpt lat="43.6607" lon="3.31168">
        <ele>298.3</ele>
        <time>2024-08-06T07:26:54Z</time>
      </trkpt>
      <trkpt lat="43.66068" lon="3.31172">
        <ele>297.8</ele>
        <time>2024-08-06T07:26:55Z</time>
      </trkpt>
      <trkpt lat="43.66065" lon="3.31175">
        <ele>296.8</ele>
        <time>2024-08-06T07:26:56Z</time>
      </trkpt>
      <trkpt lat="43.66063" lon="3.31177">
        <ele>296.2</ele>
        <time>2024-08-06T07:26:57Z</time>
      </trkpt>
      <trkpt lat="43.6606" lon="3.3118">
        <ele>295.2</ele>
        <time>2024-08-06T07:26:58Z</time>
      </trkpt>
      <trkpt lat="43.66058" lon="3.31183">
        <ele>294.5</ele>
        <time>2024-08-06T07:26:59Z</time>
      </trkpt>
      <trkpt lat="43.66055" lon="3.31186">
        <ele>293.5</ele>
        <time>2024-08-06T07:27:00Z</time>
      </trkpt>
      <trkpt lat="43.66053" lon="3.31189">
        <ele>292.8</ele>
        <time>2024-08-06T07:27:01Z</time>
      </trkpt>
      <trkpt lat="43.6605" lon="3.31192">
        <ele>291.7</ele>
        <time>2024-08-06T07:27:02Z</time>
      </trkpt>
      <trkpt lat="43.66048" lon="3.31195">
        <ele>291</ele>
        <time>2024-08-06T07:27:03Z</time>
      </trkpt>
      <trkpt lat="43.66046" lon="3.31198">
        <ele>290.2</ele>
        <time>2024-08-06T07:27:04Z</time>
      </trkpt>
      <trkpt lat="43.66045" lon="3.31201">
        <ele>289.8</ele>
        <time>2024-08-06T07:27:05Z</time>
      </trkpt>
      <trkpt lat="43.66043" lon="3.31204">
        <ele>289</ele>
        <time>2024-08-06T07:27:06Z</time>
      </trkpt>
      <trkpt lat="43.66041" lon="3.31207">
        <ele>288.2</ele>
        <time>2024-08-06T07:27:07Z</time>
      </trkpt>
      <trkpt lat="43.66039" lon="3.3121">
        <ele>287.4</ele>
        <time>2024-08-06T07:27:08Z</time>
      </trkpt>
      <trkpt lat="43.66037" lon="3.31214">
        <ele>286.7</ele>
        <time>2024-08-06T07:27:09Z</time>
      </trkpt>
      <trkpt lat="43.66036" lon="3.31219">
        <ele>286.3</ele>
        <time>2024-08-06T07:27:10Z</time>
      </trkpt>
      <trkpt lat="43.66036" lon="3.31223">
        <ele>286.2</ele>
        <time>2024-08-06T07:27:11Z</time>
      </trkpt>
      <trkpt lat="43.66037" lon="3.31228">
        <ele>286.6</ele>
        <time>2024-08-06T07:27:12Z</time>
      </trkpt>
      <trkpt lat="43.66038" lon="3.31231">
        <ele>286.9</ele>
        <time>2024-08-06T07:27:13Z</time>
      </trkpt>
      <trkpt lat="43.6604" lon="3.31235">
        <ele>287.6</ele>
        <time>2024-08-06T07:27:14Z</time>
      </trkpt>
      <trkpt lat="43.66041" lon="3.3124">
        <ele>287.9</ele>
        <time>2024-08-06T07:27:15Z</time>
      </trkpt>
      <trkpt lat="43.66041" lon="3.31246">
        <ele>287.8</ele>
        <time>2024-08-06T07:27:16Z</time>
      </trkpt>
      <trkpt lat="43.66042" lon="3.31251">
        <ele>288</ele>
        <time>2024-08-06T07:27:17Z</time>
      </trkpt>
      <trkpt lat="43.66042" lon="3.31257">
        <ele>287.5</ele>
        <time>2024-08-06T07:27:18Z</time>
      </trkpt>
      <trkpt lat="43.66043" lon="3.31261">
        <ele>287.5</ele>
        <time>2024-08-06T07:27:19Z</time>
      </trkpt>
      <trkpt lat="43.66043" lon="3.31266">
        <ele>287.1</ele>
        <time>2024-08-06T07:27:20Z</time>
      </trkpt>
      <trkpt lat="43.66043" lon="3.31271">
        <ele>286.6</ele>
        <time>2024-08-06T07:27:21Z</time>
      </trkpt>
      <trkpt lat="43.66043" lon="3.31273">
        <ele>286.4</ele>
        <time>2024-08-06T07:27:22Z</time>
      </trkpt>
      <trkpt lat="43.66043" lon="3.31274">
        <ele>286.4</ele>
        <time>2024-08-06T07:27:23Z</time>
      </trkpt>
      <trkpt lat="43.66043" lon="3.31274">
        <ele>286.4</ele>
        <time>2024-08-06T07:27:24Z</time>
      </trkpt>
      <trkpt lat="43.66043" lon="3.31281">
        <ele>285.7</ele>
        <time>2024-08-06T07:27:28Z</time>
      </trkpt>
      <trkpt lat="43.66042" lon="3.31284">
        <ele>285</ele>
        <time>2024-08-06T07:27:29Z</time>
      </trkpt>
      <trkpt lat="43.66042" lon="3.31287">
        <ele>284.6</ele>
        <time>2024-08-06T07:27:30Z</time>
      </trkpt>
      <trkpt lat="43.66041" lon="3.31289">
        <ele>284</ele>
        <time>2024-08-06T07:27:31Z</time>
      </trkpt>
      <trkpt lat="43.66041" lon="3.31291">
        <ele>283.8</ele>
        <time>2024-08-06T07:27:32Z</time>
      </trkpt>
      <trkpt lat="43.66041" lon="3.31293">
        <ele>283.6</ele>
        <time>2024-08-06T07:27:33Z</time>
      </trkpt>
      <trkpt lat="43.66041" lon="3.31294">
        <ele>283.5</ele>
        <time>2024-08-06T07:27:34Z</time>
      </trkpt>
      <trkpt lat="43.66041" lon="3.31294">
        <ele>283.5</ele>
        <time>2024-08-06T07:27:35Z</time>
      </trkpt>
      <trkpt lat="43.66041" lon="3.31294">
        <ele>283.5</ele>
        <time>2024-08-06T07:27:36Z</time>
      </trkpt>
      <trkpt lat="43.6604" lon="3.31305">
        <ele>282</ele>
        <time>2024-08-06T07:27:46Z</time>
      </trkpt>
      <trkpt lat="43.66039" lon="3.31307">
        <ele>281.6</ele>
        <time>2024-08-06T07:27:47Z</time>
      </trkpt>
      <trkpt lat="43.66039" lon="3.3131">
        <ele>281.4</ele>
        <time>2024-08-06T07:27:48Z</time>
      </trkpt>
      <trkpt lat="43.66039" lon="3.31314">
        <ele>281.3</ele>
        <time>2024-08-06T07:27:49Z</time>
      </trkpt>
      <trkpt lat="43.66038" lon="3.31316">
        <ele>280.9</ele>
        <time>2024-08-06T07:27:50Z</time>
      </trkpt>
      <trkpt lat="43.66038" lon="3.31319">
        <ele>280.8</ele>
        <time>2024-08-06T07:27:51Z</time>
      </trkpt>
      <trkpt lat="43.66037" lon="3.31321">
        <ele>280.4</ele>
        <time>2024-08-06T07:27:52Z</time>
      </trkpt>
      <trkpt lat="43.66037" lon="3.31323">
        <ele>280.4</ele>
        <time>2024-08-06T07:27:53Z</time>
      </trkpt>
      <trkpt lat="43.66036" lon="3.31325">
        <ele>280</ele>
        <time>2024-08-06T07:27:54Z</time>
      </trkpt>
      <trkpt lat="43.66035" lon="3.31328">
        <ele>279.7</ele>
        <time>2024-08-06T07:27:55Z</time>
      </trkpt>
      <trkpt lat="43.66033" lon="3.31333">
        <ele>279.1</ele>
        <time>2024-08-06T07:27:56Z</time>
      </trkpt>
      <trkpt lat="43.66031" lon="3.31337">
        <ele>278.7</ele>
        <time>2024-08-06T07:27:57Z</time>
      </trkpt>
      <trkpt lat="43.66028" lon="3.3134">
        <ele>278</ele>
        <time>2024-08-06T07:27:58Z</time>
      </trkpt>
      <trkpt lat="43.66025" lon="3.31344">
        <ele>277.2</ele>
        <time>2024-08-06T07:27:59Z</time>
      </trkpt>
      <trkpt lat="43.66023" lon="3.31348">
        <ele>276.6</ele>
        <time>2024-08-06T07:28:00Z</time>
      </trkpt>
      <trkpt lat="43.66021" lon="3.31353">
        <ele>276</ele>
        <time>2024-08-06T07:28:01Z</time>
      </trkpt>
      <trkpt lat="43.66019" lon="3.31357">
        <ele>275.5</ele>
        <time>2024-08-06T07:28:02Z</time>
      </trkpt>
      <trkpt lat="43.66017" lon="3.31359">
        <ele>274.9</ele>
        <time>2024-08-06T07:28:03Z</time>
      </trkpt>
      <trkpt lat="43.66015" lon="3.31361">
        <ele>274.3</ele>
        <time>2024-08-06T07:28:04Z</time>
      </trkpt>
      <trkpt lat="43.66012" lon="3.31363">
        <ele>273.5</ele>
        <time>2024-08-06T07:28:05Z</time>
      </trkpt>
      <trkpt lat="43.6601" lon="3.31366">
        <ele>272.9</ele>
        <time>2024-08-06T07:28:06Z</time>
      </trkpt>
      <trkpt lat="43.66007" lon="3.3137">
        <ele>272.2</ele>
        <time>2024-08-06T07:28:07Z</time>
      </trkpt>
      <trkpt lat="43.66005" lon="3.31373">
        <ele>271.7</ele>
        <time>2024-08-06T07:28:08Z</time>
      </trkpt>
      <trkpt lat="43.66003" lon="3.31375">
        <ele>271.3</ele>
        <time>2024-08-06T07:28:09Z</time>
      </trkpt>
      <trkpt lat="43.66001" lon="3.31377">
        <ele>270.8</ele>
        <time>2024-08-06T07:28:10Z</time>
      </trkpt>
      <trkpt lat="43.65998" lon="3.3138">
        <ele>270.2</ele>
        <time>2024-08-06T07:28:11Z</time>
      </trkpt>
      <trkpt lat="43.65997" lon="3.31382">
        <ele>270</ele>
        <time>2024-08-06T07:28:12Z</time>
      </trkpt>
      <trkpt lat="43.65995" lon="3.31384">
        <ele>269.5</ele>
        <time>2024-08-06T07:28:13Z</time>
      </trkpt>
      <trkpt lat="43.65993" lon="3.31387">
        <ele>269.2</ele>
        <time>2024-08-06T07:28:14Z</time>
      </trkpt>
      <trkpt lat="43.65991" lon="3.3139">
        <ele>268.7</ele>
        <time>2024-08-06T07:28:15Z</time>
      </trkpt>
      <trkpt lat="43.65989" lon="3.31394">
        <ele>268.2</ele>
        <time>2024-08-06T07:28:16Z</time>
      </trkpt>
      <trkpt lat="43.65987" lon="3.31397">
        <ele>267.7</ele>
        <time>2024-08-06T07:28:17Z</time>
      </trkpt>
      <trkpt lat="43.65985" lon="3.314">
        <ele>267.2</ele>
        <time>2024-08-06T07:28:18Z</time>
      </trkpt>
      <trkpt lat="43.65983" lon="3.31403">
        <ele>266.7</ele>
        <time>2024-08-06T07:28:19Z</time>
      </trkpt>
      <trkpt lat="43.65981" lon="3.31405">
        <ele>266.2</ele>
        <time>2024-08-06T07:28:20Z</time>
      </trkpt>
      <trkpt lat="43.65979" lon="3.31408">
        <ele>265.7</ele>
        <time>2024-08-06T07:28:21Z</time>
      </trkpt>
      <trkpt lat="43.65977" lon="3.31412">
        <ele>265.2</ele>
        <time>2024-08-06T07:28:22Z</time>
      </trkpt>
      <trkpt lat="43.65975" lon="3.31417">
        <ele>264.7</ele>
        <time>2024-08-06T07:28:23Z</time>
      </trkpt>
      <trkpt lat="43.65972" lon="3.31422">
        <ele>263.3</ele>
        <time>2024-08-06T07:28:24Z</time>
      </trkpt>
      <trkpt lat="43.65969" lon="3.31427">
        <ele>261.8</ele>
        <time>2024-08-06T07:28:25Z</time>
      </trkpt>
      <trkpt lat="43.65965" lon="3.31433">
        <ele>259.9</ele>
        <time>2024-08-06T07:28:26Z</time>
      </trkpt>
      <trkpt lat="43.65962" lon="3.31438">
        <ele>258.6</ele>
        <time>2024-08-06T07:28:27Z</time>
      </trkpt>
      <trkpt lat="43.65959" lon="3.31443">
        <ele>257.3</ele>
        <time>2024-08-06T07:28:28Z</time>
      </trkpt>
      <trkpt lat="43.65956" lon="3.31448">
        <ele>255.9</ele>
        <time>2024-08-06T07:28:29Z</time>
      </trkpt>
      <trkpt lat="43.65953" lon="3.31452">
        <ele>254.6</ele>
        <time>2024-08-06T07:28:30Z</time>
      </trkpt>
      <trkpt lat="43.65951" lon="3.31456">
        <ele>253.5</ele>
        <time>2024-08-06T07:28:31Z</time>
      </trkpt>
      <trkpt lat="43.65948" lon="3.3146">
        <ele>252.3</ele>
        <time>2024-08-06T07:28:32Z</time>
      </trkpt>
      <trkpt lat="43.65946" lon="3.31463">
        <ele>251.4</ele>
        <time>2024-08-06T07:28:33Z</time>
      </trkpt>
      <trkpt lat="43.65944" lon="3.31466">
        <ele>250.6</ele>
        <time>2024-08-06T07:28:34Z</time>
      </trkpt>
      <trkpt lat="43.65941" lon="3.3147">
        <ele>249.4</ele>
        <time>2024-08-06T07:28:35Z</time>
      </trkpt>
      <trkpt lat="43.65938" lon="3.31473">
        <ele>248.3</ele>
        <time>2024-08-06T07:28:36Z</time>
      </trkpt>
      <trkpt lat="43.65935" lon="3.31477">
        <ele>247</ele>
        <time>2024-08-06T07:28:37Z</time>
      </trkpt>
      <trkpt lat="43.65932" lon="3.31482">
        <ele>245.8</ele>
        <time>2024-08-06T07:28:38Z</time>
      </trkpt>
      <trkpt lat="43.65929" lon="3.31488">
        <ele>244.5</ele>
        <time>2024-08-06T07:28:39Z</time>
      </trkpt>
      <trkpt lat="43.65928" lon="3.31494">
        <ele>243.6</ele>
        <time>2024-08-06T07:28:40Z</time>
      </trkpt>
      <trkpt lat="43.65928" lon="3.31499">
        <ele>243.1</ele>
        <time>2024-08-06T07:28:41Z</time>
      </trkpt>
      <trkpt lat="43.65929" lon="3.31503">
        <ele>242.6</ele>
        <time>2024-08-06T07:28:42Z</time>
      </trkpt>
      <trkpt lat="43.6593" lon="3.31508">
        <ele>241.7</ele>
        <time>2024-08-06T07:28:43Z</time>
      </trkpt>
      <trkpt lat="43.65933" lon="3.31512">
        <ele>241.2</ele>
        <time>2024-08-06T07:28:44Z</time>
      </trkpt>
      <trkpt lat="43.65937" lon="3.31515">
        <ele>240.9</ele>
        <time>2024-08-06T07:28:45Z</time>
      </trkpt>
      <trkpt lat="43.6594" lon="3.31516">
        <ele>241</ele>
        <time>2024-08-06T07:28:46Z</time>
      </trkpt>
      <trkpt lat="43.65942" lon="3.31517">
        <ele>240.9</ele>
        <time>2024-08-06T07:28:47Z</time>
      </trkpt>
      <trkpt lat="43.65944" lon="3.31516">
        <ele>241.3</ele>
        <time>2024-08-06T07:28:48Z</time>
      </trkpt>
      <trkpt lat="43.65946" lon="3.31516">
        <ele>241.7</ele>
        <time>2024-08-06T07:28:49Z</time>
      </trkpt>
      <trkpt lat="43.65948" lon="3.31516">
        <ele>242</ele>
        <time>2024-08-06T07:28:50Z</time>
      </trkpt>
      <trkpt lat="43.6595" lon="3.31516">
        <ele>242.3</ele>
        <time>2024-08-06T07:28:51Z</time>
      </trkpt>
      <trkpt lat="43.65952" lon="3.31516">
        <ele>242.7</ele>
        <time>2024-08-06T07:28:52Z</time>
      </trkpt>
      <trkpt lat="43.65954" lon="3.31516">
        <ele>243</ele>
        <time>2024-08-06T07:28:53Z</time>
      </trkpt>
      <trkpt lat="43.65956" lon="3.31516">
        <ele>243.4</ele>
        <time>2024-08-06T07:28:54Z</time>
      </trkpt>
      <trkpt lat="43.65957" lon="3.31517">
        <ele>243.3</ele>
        <time>2024-08-06T07:28:55Z</time>
      </trkpt>
      <trkpt lat="43.65958" lon="3.31518">
        <ele>243.2</ele>
        <time>2024-08-06T07:28:56Z</time>
      </trkpt>
      <trkpt lat="43.65957" lon="3.3152">
        <ele>242.6</ele>
        <time>2024-08-06T07:28:57Z</time>
      </trkpt>
      <trkpt lat="43.65956" lon="3.31522">
        <ele>241.9</ele>
        <time>2024-08-06T07:28:58Z</time>
      </trkpt>
      <trkpt lat="43.65954" lon="3.31524">
        <ele>241</ele>
        <time>2024-08-06T07:28:59Z</time>
      </trkpt>
      <trkpt lat="43.65952" lon="3.31526">
        <ele>240.1</ele>
        <time>2024-08-06T07:29:00Z</time>
      </trkpt>
      <trkpt lat="43.6595" lon="3.31528">
        <ele>239.2</ele>
        <time>2024-08-06T07:29:01Z</time>
      </trkpt>
      <trkpt lat="43.65948" lon="3.31529">
        <ele>238.5</ele>
        <time>2024-08-06T07:29:02Z</time>
      </trkpt>
      <trkpt lat="43.65946" lon="3.31531">
        <ele>237.5</ele>
        <time>2024-08-06T07:29:03Z</time>
      </trkpt>
      <trkpt lat="43.65944" lon="3.31534">
        <ele>236.4</ele>
        <time>2024-08-06T07:29:04Z</time>
      </trkpt>
      <trkpt lat="43.65942" lon="3.31534">
        <ele>236.3</ele>
        <time>2024-08-06T07:29:05Z</time>
      </trkpt>
      <trkpt lat="43.6594" lon="3.31535">
        <ele>235.9</ele>
        <time>2024-08-06T07:29:06Z</time>
      </trkpt>
      <trkpt lat="43.65937" lon="3.31536">
        <ele>235.5</ele>
        <time>2024-08-06T07:29:07Z</time>
      </trkpt>
      <trkpt lat="43.65935" lon="3.31537">
        <ele>235.1</ele>
        <time>2024-08-06T07:29:08Z</time>
      </trkpt>
      <trkpt lat="43.65933" lon="3.31539">
        <ele>234.4</ele>
        <time>2024-08-06T07:29:09Z</time>
      </trkpt>
      <trkpt lat="43.6593" lon="3.3154">
        <ele>233.9</ele>
        <time>2024-08-06T07:29:10Z</time>
      </trkpt>
      <trkpt lat="43.65927" lon="3.31542">
        <ele>233.1</ele>
        <time>2024-08-06T07:29:11Z</time>
      </trkpt>
      <trkpt lat="43.65923" lon="3.31545">
        <ele>231.9</ele>
        <time>2024-08-06T07:29:12Z</time>
      </trkpt>
      <trkpt lat="43.65919" lon="3.31548">
        <ele>230.7</ele>
        <time>2024-08-06T07:29:13Z</time>
      </trkpt>
      <trkpt lat="43.65914" lon="3.31552">
        <ele>228.8</ele>
        <time>2024-08-06T07:29:14Z</time>
      </trkpt>
      <trkpt lat="43.65909" lon="3.31556">
        <ele>227.1</ele>
        <time>2024-08-06T07:29:15Z</time>
      </trkpt>
      <trkpt lat="43.65905" lon="3.3156">
        <ele>225.6</ele>
        <time>2024-08-06T07:29:16Z</time>
      </trkpt>
      <trkpt lat="43.65902" lon="3.31564">
        <ele>224.1</ele>
        <time>2024-08-06T07:29:17Z</time>
      </trkpt>
      <trkpt lat="43.65899" lon="3.31567">
        <ele>222.9</ele>
        <time>2024-08-06T07:29:18Z</time>
      </trkpt>
      <trkpt lat="43.65896" lon="3.3157">
        <ele>221.7</ele>
        <time>2024-08-06T07:29:19Z</time>
      </trkpt>
      <trkpt lat="43.65894" lon="3.31574">
        <ele>220.4</ele>
        <time>2024-08-06T07:29:20Z</time>
      </trkpt>
      <trkpt lat="43.65891" lon="3.31579">
        <ele>218.5</ele>
        <time>2024-08-06T07:29:21Z</time>
      </trkpt>
      <trkpt lat="43.65888" lon="3.31581">
        <ele>217.6</ele>
        <time>2024-08-06T07:29:22Z</time>
      </trkpt>
      <trkpt lat="43.65884" lon="3.31583">
        <ele>216.7</ele>
        <time>2024-08-06T07:29:23Z</time>
      </trkpt>
      <trkpt lat="43.6588" lon="3.31585">
        <ele>215.9</ele>
        <time>2024-08-06T07:29:24Z</time>
      </trkpt>
      <trkpt lat="43.65875" lon="3.31588">
        <ele>214.8</ele>
        <time>2024-08-06T07:29:25Z</time>
      </trkpt>
      <trkpt lat="43.65871" lon="3.31592">
        <ele>213.5</ele>
        <time>2024-08-06T07:29:26Z</time>
      </trkpt>
      <trkpt lat="43.65867" lon="3.31596">
        <ele>212.2</ele>
        <time>2024-08-06T07:29:27Z</time>
      </trkpt>
      <trkpt lat="43.65864" lon="3.31601">
        <ele>210.8</ele>
        <time>2024-08-06T07:29:28Z</time>
      </trkpt>
      <trkpt lat="43.65861" lon="3.31605">
        <ele>209.5</ele>
        <time>2024-08-06T07:29:29Z</time>
      </trkpt>
      <trkpt lat="43.65858" lon="3.31609">
        <ele>208.4</ele>
        <time>2024-08-06T07:29:30Z</time>
      </trkpt>
      <trkpt lat="43.65855" lon="3.31613">
        <ele>207.3</ele>
        <time>2024-08-06T07:29:31Z</time>
      </trkpt>
      <trkpt lat="43.65852" lon="3.31615">
        <ele>206.7</ele>
        <time>2024-08-06T07:29:32Z</time>
      </trkpt>
      <trkpt lat="43.65849" lon="3.31618">
        <ele>205.8</ele>
        <time>2024-08-06T07:29:33Z</time>
      </trkpt>
      <trkpt lat="43.65847" lon="3.31621">
        <ele>205</ele>
        <time>2024-08-06T07:29:34Z</time>
      </trkpt>
      <trkpt lat="43.65846" lon="3.31624">
        <ele>204.2</ele>
        <time>2024-08-06T07:29:35Z</time>
      </trkpt>
      <trkpt lat="43.65845" lon="3.31626">
        <ele>203.7</ele>
        <time>2024-08-06T07:29:36Z</time>
      </trkpt>
      <trkpt lat="43.65845" lon="3.31628">
        <ele>203.2</ele>
        <time>2024-08-06T07:29:37Z</time>
      </trkpt>
      <trkpt lat="43.65845" lon="3.31628">
        <ele>203.2</ele>
        <time>2024-08-06T07:29:38Z</time>
      </trkpt>
      <trkpt lat="43.65845" lon="3.31628">
        <ele>203.2</ele>
        <time>2024-08-06T07:29:39Z</time>
      </trkpt>
      <trkpt lat="43.65844" lon="3.31632">
        <ele>202.1</ele>
        <time>2024-08-06T07:29:42Z</time>
      </trkpt>
      <trkpt lat="43.65845" lon="3.31634">
        <ele>201.7</ele>
        <time>2024-08-06T07:29:43Z</time>
      </trkpt>
      <trkpt lat="43.65845" lon="3.31635">
        <ele>201.4</ele>
        <time>2024-08-06T07:29:44Z</time>
      </trkpt>
      <trkpt lat="43.65845" lon="3.31636">
        <ele>201.1</ele>
        <time>2024-08-06T07:29:45Z</time>
      </trkpt>
      <trkpt lat="43.65845" lon="3.31639">
        <ele>200.4</ele>
        <time>2024-08-06T07:29:46Z</time>
      </trkpt>
      <trkpt lat="43.65844" lon="3.31641">
        <ele>199.9</ele>
        <time>2024-08-06T07:29:47Z</time>
      </trkpt>
      <trkpt lat="43.65844" lon="3.31644">
        <ele>199.1</ele>
        <time>2024-08-06T07:29:48Z</time>
      </trkpt>
      <trkpt lat="43.65844" lon="3.31647">
        <ele>198.4</ele>
        <time>2024-08-06T07:29:49Z</time>
      </trkpt>
      <trkpt lat="43.65843" lon="3.3165">
        <ele>197.7</ele>
        <time>2024-08-06T07:29:50Z</time>
      </trkpt>
      <trkpt lat="43.65843" lon="3.31653">
        <ele>196.9</ele>
        <time>2024-08-06T07:29:51Z</time>
      </trkpt>
      <trkpt lat="43.65843" lon="3.31656">
        <ele>196.2</ele>
        <time>2024-08-06T07:29:52Z</time>
      </trkpt>
      <trkpt lat="43.65843" lon="3.31661">
        <ele>195</ele>
        <time>2024-08-06T07:29:53Z</time>
      </trkpt>
      <trkpt lat="43.65842" lon="3.31666">
        <ele>193.8</ele>
        <time>2024-08-06T07:29:54Z</time>
      </trkpt>
      <trkpt lat="43.65841" lon="3.31671">
        <ele>193</ele>
        <time>2024-08-06T07:29:55Z</time>
      </trkpt>
      <trkpt lat="43.65839" lon="3.31677">
        <ele>192</ele>
        <time>2024-08-06T07:29:56Z</time>
      </trkpt>
      <trkpt lat="43.65837" lon="3.31684">
        <ele>190.8</ele>
        <time>2024-08-06T07:29:57Z</time>
      </trkpt>
      <trkpt lat="43.65836" lon="3.31691">
        <ele>189.6</ele>
        <time>2024-08-06T07:29:58Z</time>
      </trkpt>
      <trkpt lat="43.65834" lon="3.31697">
        <ele>188.5</ele>
        <time>2024-08-06T07:29:59Z</time>
      </trkpt>
      <trkpt lat="43.65832" lon="3.31701">
        <ele>187.8</ele>
        <time>2024-08-06T07:30:00Z</time>
      </trkpt>
      <trkpt lat="43.6583" lon="3.31705">
        <ele>187</ele>
        <time>2024-08-06T07:30:01Z</time>
      </trkpt>
      <trkpt lat="43.65829" lon="3.31708">
        <ele>186.5</ele>
        <time>2024-08-06T07:30:02Z</time>
      </trkpt>
      <trkpt lat="43.65827" lon="3.3171">
        <ele>186.1</ele>
        <time>2024-08-06T07:30:03Z</time>
      </trkpt>
      <trkpt lat="43.65825" lon="3.31712">
        <ele>185.7</ele>
        <time>2024-08-06T07:30:04Z</time>
      </trkpt>
      <trkpt lat="43.65823" lon="3.31714">
        <ele>185.4</ele>
        <time>2024-08-06T07:30:05Z</time>
      </trkpt>
      <trkpt lat="43.6582" lon="3.31716">
        <ele>185</ele>
        <time>2024-08-06T07:30:06Z</time>
      </trkpt>
      <trkpt lat="43.65817" lon="3.31719">
        <ele>184.5</ele>
        <time>2024-08-06T07:30:07Z</time>
      </trkpt>
      <trkpt lat="43.65814" lon="3.31721">
        <ele>184.2</ele>
        <time>2024-08-06T07:30:08Z</time>
      </trkpt>
      <trkpt lat="43.65812" lon="3.31724">
        <ele>183.7</ele>
        <time>2024-08-06T07:30:09Z</time>
      </trkpt>
      <trkpt lat="43.6581" lon="3.31728">
        <ele>183</ele>
        <time>2024-08-06T07:30:10Z</time>
      </trkpt>
      <trkpt lat="43.65807" lon="3.31732">
        <ele>182.3</ele>
        <time>2024-08-06T07:30:11Z</time>
      </trkpt>
      <trkpt lat="43.65804" lon="3.31737">
        <ele>181.1</ele>
        <time>2024-08-06T07:30:12Z</time>
      </trkpt>
      <trkpt lat="43.65799" lon="3.31742">
        <ele>179.6</ele>
        <time>2024-08-06T07:30:13Z</time>
      </trkpt>
      <trkpt lat="43.65795" lon="3.31747">
        <ele>178.3</ele>
        <time>2024-08-06T07:30:14Z</time>
      </trkpt>
      <trkpt lat="43.65791" lon="3.31752">
        <ele>177.3</ele>
        <time>2024-08-06T07:30:15Z</time>
      </trkpt>
      <trkpt lat="43.65787" lon="3.31757">
        <ele>176.5</ele>
        <time>2024-08-06T07:30:16Z</time>
      </trkpt>
      <trkpt lat="43.65783" lon="3.31761">
        <ele>175.8</ele>
        <time>2024-08-06T07:30:17Z</time>
      </trkpt>
      <trkpt lat="43.65779" lon="3.31765">
        <ele>175.1</ele>
        <time>2024-08-06T07:30:18Z</time>
      </trkpt>
      <trkpt lat="43.65775" lon="3.31769">
        <ele>174.5</ele>
        <time>2024-08-06T07:30:19Z</time>
      </trkpt>
      <trkpt lat="43.65772" lon="3.31773">
        <ele>174</ele>
        <time>2024-08-06T07:30:20Z</time>
      </trkpt>
      <trkpt lat="43.65769" lon="3.31776">
        <ele>173.5</ele>
        <time>2024-08-06T07:30:21Z</time>
      </trkpt>
      <trkpt lat="43.65766" lon="3.31779">
        <ele>173.2</ele>
        <time>2024-08-06T07:30:22Z</time>
      </trkpt>
      <trkpt lat="43.65762" lon="3.31783">
        <ele>172.9</ele>
        <time>2024-08-06T07:30:23Z</time>
      </trkpt>
      <trkpt lat="43.65759" lon="3.31786">
        <ele>172.7</ele>
        <time>2024-08-06T07:30:24Z</time>
      </trkpt>
      <trkpt lat="43.65756" lon="3.31789">
        <ele>172.5</ele>
        <time>2024-08-06T07:30:25Z</time>
      </trkpt>
      <trkpt lat="43.65752" lon="3.31791">
        <ele>172.2</ele>
        <time>2024-08-06T07:30:26Z</time>
      </trkpt>
      <trkpt lat="43.65747" lon="3.31794">
        <ele>171.9</ele>
        <time>2024-08-06T07:30:27Z</time>
      </trkpt>
      <trkpt lat="43.65743" lon="3.31797">
        <ele>171.7</ele>
        <time>2024-08-06T07:30:28Z</time>
      </trkpt>
      <trkpt lat="43.6574" lon="3.318">
        <ele>171.5</ele>
        <time>2024-08-06T07:30:29Z</time>
      </trkpt>
      <trkpt lat="43.65737" lon="3.31802">
        <ele>171.2</ele>
        <time>2024-08-06T07:30:30Z</time>
      </trkpt>
      <trkpt lat="43.65736" lon="3.31804">
        <ele>171.1</ele>
        <time>2024-08-06T07:30:31Z</time>
      </trkpt>
      <trkpt lat="43.65735" lon="3.31805">
        <ele>171</ele>
        <time>2024-08-06T07:30:32Z</time>
      </trkpt>
      <trkpt lat="43.65735" lon="3.31805">
        <ele>171</ele>
        <time>2024-08-06T07:30:33Z</time>
      </trkpt>
      <trkpt lat="43.65735" lon="3.31805">
        <ele>171</ele>
        <time>2024-08-06T07:30:34Z</time>
      </trkpt>
      <trkpt lat="43.65733" lon="3.31807">
        <ele>170.8</ele>
        <time>2024-08-06T07:30:39Z</time>
      </trkpt>
      <trkpt lat="43.65731" lon="3.31807">
        <ele>170.6</ele>
        <time>2024-08-06T07:30:40Z</time>
      </trkpt>
      <trkpt lat="43.65729" lon="3.31807">
        <ele>170.5</ele>
        <time>2024-08-06T07:30:41Z</time>
      </trkpt>
      <trkpt lat="43.65727" lon="3.31809">
        <ele>170.3</ele>
        <time>2024-08-06T07:30:42Z</time>
      </trkpt>
      <trkpt lat="43.65724" lon="3.3181">
        <ele>170.1</ele>
        <time>2024-08-06T07:30:43Z</time>
      </trkpt>
      <trkpt lat="43.65722" lon="3.31811">
        <ele>170</ele>
        <time>2024-08-06T07:30:44Z</time>
      </trkpt>
      <trkpt lat="43.65718" lon="3.3181">
        <ele>169.7</ele>
        <time>2024-08-06T07:30:45Z</time>
      </trkpt>
      <trkpt lat="43.65715" lon="3.31811">
        <ele>169.5</ele>
        <time>2024-08-06T07:30:46Z</time>
      </trkpt>
      <trkpt lat="43.65712" lon="3.31811">
        <ele>169.3</ele>
        <time>2024-08-06T07:30:47Z</time>
      </trkpt>
      <trkpt lat="43.65708" lon="3.31811">
        <ele>169.1</ele>
        <time>2024-08-06T07:30:48Z</time>
      </trkpt>
      <trkpt lat="43.65705" lon="3.31811">
        <ele>168.9</ele>
        <time>2024-08-06T07:30:49Z</time>
      </trkpt>
      <trkpt lat="43.65701" lon="3.3181">
        <ele>168.6</ele>
        <time>2024-08-06T07:30:50Z</time>
      </trkpt>
      <trkpt lat="43.65699" lon="3.31811">
        <ele>168.5</ele>
        <time>2024-08-06T07:30:51Z</time>
      </trkpt>
      <trkpt lat="43.65697" lon="3.31813">
        <ele>168.4</ele>
        <time>2024-08-06T07:30:52Z</time>
      </trkpt>
      <trkpt lat="43.65697" lon="3.31815">
        <ele>168.5</ele>
        <time>2024-08-06T07:30:53Z</time>
      </trkpt>
      <trkpt lat="43.65696" lon="3.31817">
        <ele>168.5</ele>
        <time>2024-08-06T07:30:54Z</time>
      </trkpt>
      <trkpt lat="43.65694" lon="3.3182">
        <ele>168.5</ele>
        <time>2024-08-06T07:30:55Z</time>
      </trkpt>
      <trkpt lat="43.65692" lon="3.31822">
        <ele>168.5</ele>
        <time>2024-08-06T07:30:56Z</time>
      </trkpt>
      <trkpt lat="43.6569" lon="3.31824">
        <ele>168.5</ele>
        <time>2024-08-06T07:30:57Z</time>
      </trkpt>
      <trkpt lat="43.65689" lon="3.31826">
        <ele>168.5</ele>
        <time>2024-08-06T07:30:58Z</time>
      </trkpt>
      <trkpt lat="43.65688" lon="3.31827">
        <ele>168.5</ele>
        <time>2024-08-06T07:30:59Z</time>
      </trkpt>
      <trkpt lat="43.65686" lon="3.31826">
        <ele>168.4</ele>
        <time>2024-08-06T07:31:00Z</time>
      </trkpt>
      <trkpt lat="43.65685" lon="3.31826">
        <ele>168.4</ele>
        <time>2024-08-06T07:31:01Z</time>
      </trkpt>
      <trkpt lat="43.65684" lon="3.31828">
        <ele>168.4</ele>
        <time>2024-08-06T07:31:02Z</time>
      </trkpt>
      <trkpt lat="43.65682" lon="3.31829">
        <ele>168.4</ele>
        <time>2024-08-06T07:31:03Z</time>
      </trkpt>
      <trkpt lat="43.65682" lon="3.31831">
        <ele>168.5</ele>
        <time>2024-08-06T07:31:04Z</time>
      </trkpt>
      <trkpt lat="43.65683" lon="3.31833">
        <ele>168.6</ele>
        <time>2024-08-06T07:31:05Z</time>
      </trkpt>
      <trkpt lat="43.65683" lon="3.31833">
        <ele>168.6</ele>
        <time>2024-08-06T07:31:06Z</time>
      </trkpt>
      <trkpt lat="43.65683" lon="3.31833">
        <ele>168.6</ele>
        <time>2024-08-06T07:31:07Z</time>
      </trkpt>
      <trkpt lat="43.65683" lon="3.31833">
        <ele>168.6</ele>
        <time>2024-08-06T07:31:08Z</time>
      </trkpt>
      <trkpt lat="43.65681" lon="3.3183">
        <ele>168.4</ele>
        <time>2024-08-06T07:32:03Z</time>
      </trkpt>
      <trkpt lat="43.6568" lon="3.31828">
        <ele>168.3</ele>
        <time>2024-08-06T07:32:04Z</time>
      </trkpt>
      <trkpt lat="43.6568" lon="3.31826">
        <ele>168.2</ele>
        <time>2024-08-06T07:32:05Z</time>
      </trkpt>
      <trkpt lat="43.65679" lon="3.31825">
        <ele>168.1</ele>
        <time>2024-08-06T07:32:06Z</time>
      </trkpt>
      <trkpt lat="43.65678" lon="3.31824">
        <ele>168.1</ele>
        <time>2024-08-06T07:32:07Z</time>
      </trkpt>
      <trkpt lat="43.65677" lon="3.31823">
        <ele>168</ele>
        <time>2024-08-06T07:32:08Z</time>
      </trkpt>
      <trkpt lat="43.65677" lon="3.31823">
        <ele>168</ele>
        <time>2024-08-06T07:32:09Z</time>
      </trkpt>
      <trkpt lat="43.65677" lon="3.31823">
        <ele>168</ele>
        <time>2024-08-06T07:32:10Z</time>
      </trkpt>
      <trkpt lat="43.65672" lon="3.31822">
        <ele>167.8</ele>
        <time>2024-08-06T07:32:23Z</time>
      </trkpt>
      <trkpt lat="43.6567" lon="3.31821">
        <ele>167.7</ele>
        <time>2024-08-06T07:32:24Z</time>
      </trkpt>
      <trkpt lat="43.65668" lon="3.3182">
        <ele>167.6</ele>
        <time>2024-08-06T07:32:25Z</time>
      </trkpt>
      <trkpt lat="43.65666" lon="3.3182">
        <ele>167.5</ele>
        <time>2024-08-06T07:32:26Z</time>
      </trkpt>
      <trkpt lat="43.65663" lon="3.31819">
        <ele>167.4</ele>
        <time>2024-08-06T07:32:27Z</time>
      </trkpt>
      <trkpt lat="43.65659" lon="3.31817">
        <ele>167.3</ele>
        <time>2024-08-06T07:32:28Z</time>
      </trkpt>
      <trkpt lat="43.65656" lon="3.31816">
        <ele>167.2</ele>
        <time>2024-08-06T07:32:29Z</time>
      </trkpt>
      <trkpt lat="43.65653" lon="3.31813">
        <ele>167.1</ele>
        <time>2024-08-06T07:32:30Z</time>
      </trkpt>
      <trkpt lat="43.6565" lon="3.3181">
        <ele>167.1</ele>
        <time>2024-08-06T07:32:31Z</time>
      </trkpt>
      <trkpt lat="43.65648" lon="3.31805">
        <ele>167</ele>
        <time>2024-08-06T07:32:32Z</time>
      </trkpt>
      <trkpt lat="43.65645" lon="3.318">
        <ele>167</ele>
        <time>2024-08-06T07:32:33Z</time>
      </trkpt>
      <trkpt lat="43.65642" lon="3.31795">
        <ele>166.8</ele>
        <time>2024-08-06T07:32:34Z</time>
      </trkpt>
      <trkpt lat="43.65639" lon="3.31791">
        <ele>166.5</ele>
        <time>2024-08-06T07:32:35Z</time>
      </trkpt>
      <trkpt lat="43.65636" lon="3.31787">
        <ele>166.2</ele>
        <time>2024-08-06T07:32:36Z</time>
      </trkpt>
      <trkpt lat="43.65633" lon="3.31784">
        <ele>166</ele>
        <time>2024-08-06T07:32:37Z</time>
      </trkpt>
      <trkpt lat="43.65629" lon="3.31782">
        <ele>165.7</ele>
        <time>2024-08-06T07:32:38Z</time>
      </trkpt>
      <trkpt lat="43.65625" lon="3.3178">
        <ele>165.5</ele>
        <time>2024-08-06T07:32:39Z</time>
      </trkpt>
      <trkpt lat="43.65622" lon="3.31778">
        <ele>165.4</ele>
        <time>2024-08-06T07:32:40Z</time>
      </trkpt>
      <trkpt lat="43.65619" lon="3.31777">
        <ele>165.3</ele>
        <time>2024-08-06T07:32:41Z</time>
      </trkpt>
      <trkpt lat="43.65615" lon="3.31777">
        <ele>165.2</ele>
        <time>2024-08-06T07:32:42Z</time>
      </trkpt>
      <trkpt lat="43.65612" lon="3.31777">
        <ele>165.1</ele>
        <time>2024-08-06T07:32:43Z</time>
      </trkpt>
      <trkpt lat="43.65609" lon="3.31777">
        <ele>164.9</ele>
        <time>2024-08-06T07:32:44Z</time>
      </trkpt>
      <trkpt lat="43.65606" lon="3.31776">
        <ele>164.7</ele>
        <time>2024-08-06T07:32:45Z</time>
      </trkpt>
      <trkpt lat="43.65602" lon="3.31776">
        <ele>164.4</ele>
        <time>2024-08-06T07:32:46Z</time>
      </trkpt>
      <trkpt lat="43.65598" lon="3.31777">
        <ele>164.1</ele>
        <time>2024-08-06T07:32:47Z</time>
      </trkpt>
      <trkpt lat="43.65594" lon="3.31778">
        <ele>163.8</ele>
        <time>2024-08-06T07:32:48Z</time>
      </trkpt>
      <trkpt lat="43.65589" lon="3.31779">
        <ele>163.4</ele>
        <time>2024-08-06T07:32:49Z</time>
      </trkpt>
      <trkpt lat="43.65583" lon="3.31779">
        <ele>163</ele>
        <time>2024-08-06T07:32:50Z</time>
      </trkpt>
      <trkpt lat="43.65578" lon="3.31779">
        <ele>162.6</ele>
        <time>2024-08-06T07:32:51Z</time>
      </trkpt>
      <trkpt lat="43.65573" lon="3.31779">
        <ele>162.3</ele>
        <time>2024-08-06T07:32:52Z</time>
      </trkpt>
      <trkpt lat="43.65567" lon="3.31779">
        <ele>161.8</ele>
        <time>2024-08-06T07:32:53Z</time>
      </trkpt>
      <trkpt lat="43.65561" lon="3.31779">
        <ele>161.4</ele>
        <time>2024-08-06T07:32:54Z</time>
      </trkpt>
      <trkpt lat="43.65555" lon="3.31779">
        <ele>161</ele>
        <time>2024-08-06T07:32:55Z</time>
      </trkpt>
      <trkpt lat="43.65549" lon="3.3178">
        <ele>160.5</ele>
        <time>2024-08-06T07:32:56Z</time>
      </trkpt>
      <trkpt lat="43.65543" lon="3.31781">
        <ele>160</ele>
        <time>2024-08-06T07:32:57Z</time>
      </trkpt>
      <trkpt lat="43.65536" lon="3.3178">
        <ele>159.5</ele>
        <time>2024-08-06T07:32:58Z</time>
      </trkpt>
      <trkpt lat="43.65529" lon="3.3178">
        <ele>159</ele>
        <time>2024-08-06T07:32:59Z</time>
      </trkpt>
      <trkpt lat="43.65523" lon="3.3178">
        <ele>158.7</ele>
        <time>2024-08-06T07:33:00Z</time>
      </trkpt>
      <trkpt lat="43.65516" lon="3.31779">
        <ele>158.5</ele>
        <time>2024-08-06T07:33:01Z</time>
      </trkpt>
      <trkpt lat="43.65508" lon="3.31779">
        <ele>158.2</ele>
        <time>2024-08-06T07:33:02Z</time>
      </trkpt>
      <trkpt lat="43.655" lon="3.31777">
        <ele>158</ele>
        <time>2024-08-06T07:33:03Z</time>
      </trkpt>
      <trkpt lat="43.65492" lon="3.31777">
        <ele>157.1</ele>
        <time>2024-08-06T07:33:04Z</time>
      </trkpt>
      <trkpt lat="43.65484" lon="3.31776">
        <ele>156.3</ele>
        <time>2024-08-06T07:33:05Z</time>
      </trkpt>
      <trkpt lat="43.65476" lon="3.31775">
        <ele>155.5</ele>
        <time>2024-08-06T07:33:06Z</time>
      </trkpt>
      <trkpt lat="43.65467" lon="3.31775">
        <ele>154.9</ele>
        <time>2024-08-06T07:33:07Z</time>
      </trkpt>
      <trkpt lat="43.65459" lon="3.31775">
        <ele>154.6</ele>
        <time>2024-08-06T07:33:08Z</time>
      </trkpt>
      <trkpt lat="43.65453" lon="3.31775">
        <ele>154.4</ele>
        <time>2024-08-06T07:33:09Z</time>
      </trkpt>
      <trkpt lat="43.65446" lon="3.31778">
        <ele>154.1</ele>
        <time>2024-08-06T07:33:10Z</time>
      </trkpt>
      <trkpt lat="43.65439" lon="3.31781">
        <ele>154</ele>
        <time>2024-08-06T07:33:11Z</time>
      </trkpt>
      <trkpt lat="43.65433" lon="3.31786">
        <ele>154</ele>
        <time>2024-08-06T07:33:12Z</time>
      </trkpt>
      <trkpt lat="43.65429" lon="3.31793">
        <ele>154</ele>
        <time>2024-08-06T07:33:13Z</time>
      </trkpt>
      <trkpt lat="43.65425" lon="3.31799">
        <ele>154</ele>
        <time>2024-08-06T07:33:14Z</time>
      </trkpt>
      <trkpt lat="43.65422" lon="3.31805">
        <ele>154</ele>
        <time>2024-08-06T07:33:15Z</time>
      </trkpt>
      <trkpt lat="43.65418" lon="3.31811">
        <ele>153.8</ele>
        <time>2024-08-06T07:33:16Z</time>
      </trkpt>
      <trkpt lat="43.65415" lon="3.31816">
        <ele>153.6</ele>
        <time>2024-08-06T07:33:17Z</time>
      </trkpt>
      <trkpt lat="43.65411" lon="3.31822">
        <ele>153.3</ele>
        <time>2024-08-06T07:33:18Z</time>
      </trkpt>
      <trkpt lat="43.65407" lon="3.31827">
        <ele>153.1</ele>
        <time>2024-08-06T07:33:19Z</time>
      </trkpt>
      <trkpt lat="43.65403" lon="3.3183">
        <ele>153.1</ele>
        <time>2024-08-06T07:33:20Z</time>
      </trkpt>
      <trkpt lat="43.65399" lon="3.31834">
        <ele>153</ele>
        <time>2024-08-06T07:33:21Z</time>
      </trkpt>
      <trkpt lat="43.65396" lon="3.31837">
        <ele>153</ele>
        <time>2024-08-06T07:33:22Z</time>
      </trkpt>
      <trkpt lat="43.65393" lon="3.3184">
        <ele>153</ele>
        <time>2024-08-06T07:33:23Z</time>
      </trkpt>
      <trkpt lat="43.65391" lon="3.31844">
        <ele>153</ele>
        <time>2024-08-06T07:33:24Z</time>
      </trkpt>
      <trkpt lat="43.65389" lon="3.31849">
        <ele>153</ele>
        <time>2024-08-06T07:33:25Z</time>
      </trkpt>
      <trkpt lat="43.65388" lon="3.31853">
        <ele>153</ele>
        <time>2024-08-06T07:33:26Z</time>
      </trkpt>
      <trkpt lat="43.65388" lon="3.31858">
        <ele>153</ele>
        <time>2024-08-06T07:33:27Z</time>
      </trkpt>
      <trkpt lat="43.65389" lon="3.31863">
        <ele>152.9</ele>
        <time>2024-08-06T07:33:28Z</time>
      </trkpt>
      <trkpt lat="43.65391" lon="3.31868">
        <ele>152.5</ele>
        <time>2024-08-06T07:33:29Z</time>
      </trkpt>
      <trkpt lat="43.65394" lon="3.31873">
        <ele>152.3</ele>
        <time>2024-08-06T07:33:30Z</time>
      </trkpt>
      <trkpt lat="43.65397" lon="3.31876">
        <ele>152.3</ele>
        <time>2024-08-06T07:33:31Z</time>
      </trkpt>
      <trkpt lat="43.65402" lon="3.3188">
        <ele>152.5</ele>
        <time>2024-08-06T07:33:32Z</time>
      </trkpt>
      <trkpt lat="43.65406" lon="3.31884">
        <ele>152.8</ele>
        <time>2024-08-06T07:33:33Z</time>
      </trkpt>
      <trkpt lat="43.65411" lon="3.31889">
        <ele>153.4</ele>
        <time>2024-08-06T07:33:34Z</time>
      </trkpt>
      <trkpt lat="43.65415" lon="3.31894">
        <ele>153.5</ele>
        <time>2024-08-06T07:33:35Z</time>
      </trkpt>
      <trkpt lat="43.65418" lon="3.31899">
        <ele>153.3</ele>
        <time>2024-08-06T07:33:36Z</time>
      </trkpt>
      <trkpt lat="43.65422" lon="3.31904">
        <ele>153</ele>
        <time>2024-08-06T07:33:37Z</time>
      </trkpt>
      <trkpt lat="43.65424" lon="3.31908">
        <ele>152.9</ele>
        <time>2024-08-06T07:33:38Z</time>
      </trkpt>
      <trkpt lat="43.65427" lon="3.31911">
        <ele>152.9</ele>
        <time>2024-08-06T07:33:39Z</time>
      </trkpt>
      <trkpt lat="43.65428" lon="3.31916">
        <ele>152.8</ele>
        <time>2024-08-06T07:33:40Z</time>
      </trkpt>
      <trkpt lat="43.65429" lon="3.3192">
        <ele>152.9</ele>
        <time>2024-08-06T07:33:41Z</time>
      </trkpt>
      <trkpt lat="43.65428" lon="3.31925">
        <ele>152.8</ele>
        <time>2024-08-06T07:33:42Z</time>
      </trkpt>
      <trkpt lat="43.65427" lon="3.31931">
        <ele>152.7</ele>
        <time>2024-08-06T07:33:43Z</time>
      </trkpt>
      <trkpt lat="43.65427" lon="3.31938">
        <ele>152.7</ele>
        <time>2024-08-06T07:33:44Z</time>
      </trkpt>
      <trkpt lat="43.65427" lon="3.31945">
        <ele>152.8</ele>
        <time>2024-08-06T07:33:45Z</time>
      </trkpt>
      <trkpt lat="43.65427" lon="3.31952">
        <ele>152.9</ele>
        <time>2024-08-06T07:33:46Z</time>
      </trkpt>
      <trkpt lat="43.65427" lon="3.31958">
        <ele>153.1</ele>
        <time>2024-08-06T07:33:47Z</time>
      </trkpt>
      <trkpt lat="43.65428" lon="3.31964">
        <ele>153.2</ele>
        <time>2024-08-06T07:33:48Z</time>
      </trkpt>
      <trkpt lat="43.65428" lon="3.31969">
        <ele>153.3</ele>
        <time>2024-08-06T07:33:49Z</time>
      </trkpt>
      <trkpt lat="43.65428" lon="3.31975">
        <ele>153.4</ele>
        <time>2024-08-06T07:33:50Z</time>
      </trkpt>
      <trkpt lat="43.65428" lon="3.3198">
        <ele>153.4</ele>
        <time>2024-08-06T07:33:51Z</time>
      </trkpt>
      <trkpt lat="43.65428" lon="3.31986">
        <ele>153.4</ele>
        <time>2024-08-06T07:33:52Z</time>
      </trkpt>
      <trkpt lat="43.65428" lon="3.31992">
        <ele>153.4</ele>
        <time>2024-08-06T07:33:53Z</time>
      </trkpt>
      <trkpt lat="43.65428" lon="3.31998">
        <ele>153.4</ele>
        <time>2024-08-06T07:33:54Z</time>
      </trkpt>
      <trkpt lat="43.65428" lon="3.32003">
        <ele>153.3</ele>
        <time>2024-08-06T07:33:55Z</time>
      </trkpt>
      <trkpt lat="43.65429" lon="3.32008">
        <ele>153.2</ele>
        <time>2024-08-06T07:33:56Z</time>
      </trkpt>
      <trkpt lat="43.65429" lon="3.32014">
        <ele>152.9</ele>
        <time>2024-08-06T07:33:57Z</time>
      </trkpt>
      <trkpt lat="43.65429" lon="3.32019">
        <ele>152.8</ele>
        <time>2024-08-06T07:33:58Z</time>
      </trkpt>
      <trkpt lat="43.65428" lon="3.32025">
        <ele>152.5</ele>
        <time>2024-08-06T07:33:59Z</time>
      </trkpt>
      <trkpt lat="43.65427" lon="3.3203">
        <ele>152.3</ele>
        <time>2024-08-06T07:34:00Z</time>
      </trkpt>
      <trkpt lat="43.65426" lon="3.32035">
        <ele>152.1</ele>
        <time>2024-08-06T07:34:01Z</time>
      </trkpt>
      <trkpt lat="43.65424" lon="3.32041">
        <ele>151.8</ele>
        <time>2024-08-06T07:34:02Z</time>
      </trkpt>
      <trkpt lat="43.65422" lon="3.32047">
        <ele>151.5</ele>
        <time>2024-08-06T07:34:03Z</time>
      </trkpt>
      <trkpt lat="43.65421" lon="3.32054">
        <ele>151.2</ele>
        <time>2024-08-06T07:34:04Z</time>
      </trkpt>
      <trkpt lat="43.6542" lon="3.32061">
        <ele>150.9</ele>
        <time>2024-08-06T07:34:05Z</time>
      </trkpt>
      <trkpt lat="43.65419" lon="3.32069">
        <ele>150.6</ele>
        <time>2024-08-06T07:34:06Z</time>
      </trkpt>
      <trkpt lat="43.65418" lon="3.32076">
        <ele>150.3</ele>
        <time>2024-08-06T07:34:07Z</time>
      </trkpt>
      <trkpt lat="43.65416" lon="3.32083">
        <ele>150</ele>
        <time>2024-08-06T07:34:08Z</time>
      </trkpt>
      <trkpt lat="43.65415" lon="3.32089">
        <ele>149.9</ele>
        <time>2024-08-06T07:34:09Z</time>
      </trkpt>
      <trkpt lat="43.65413" lon="3.32095">
        <ele>149.9</ele>
        <time>2024-08-06T07:34:10Z</time>
      </trkpt>
      <trkpt lat="43.65409" lon="3.321">
        <ele>149.7</ele>
        <time>2024-08-06T07:34:11Z</time>
      </trkpt>
      <trkpt lat="43.65406" lon="3.32104">
        <ele>149.6</ele>
        <time>2024-08-06T07:34:12Z</time>
      </trkpt>
      <trkpt lat="43.65403" lon="3.32108">
        <ele>149.5</ele>
        <time>2024-08-06T07:34:13Z</time>
      </trkpt>
      <trkpt lat="43.654" lon="3.32113">
        <ele>149.4</ele>
        <time>2024-08-06T07:34:14Z</time>
      </trkpt>
      <trkpt lat="43.65397" lon="3.32117">
        <ele>149.4</ele>
        <time>2024-08-06T07:34:15Z</time>
      </trkpt>
      <trkpt lat="43.65395" lon="3.32122">
        <ele>149.3</ele>
        <time>2024-08-06T07:34:16Z</time>
      </trkpt>
      <trkpt lat="43.65393" lon="3.32128">
        <ele>149.2</ele>
        <time>2024-08-06T07:34:17Z</time>
      </trkpt>
      <trkpt lat="43.65391" lon="3.32134">
        <ele>149.1</ele>
        <time>2024-08-06T07:34:18Z</time>
      </trkpt>
      <trkpt lat="43.65389" lon="3.32141">
        <ele>149.1</ele>
        <time>2024-08-06T07:34:19Z</time>
      </trkpt>
      <trkpt lat="43.65388" lon="3.32148">
        <ele>149.3</ele>
        <time>2024-08-06T07:34:20Z</time>
      </trkpt>
      <trkpt lat="43.65388" lon="3.32155">
        <ele>149.5</ele>
        <time>2024-08-06T07:34:21Z</time>
      </trkpt>
      <trkpt lat="43.65388" lon="3.32161">
        <ele>149.7</ele>
        <time>2024-08-06T07:34:22Z</time>
      </trkpt>
      <trkpt lat="43.65387" lon="3.32167">
        <ele>149.9</ele>
        <time>2024-08-06T07:34:23Z</time>
      </trkpt>
      <trkpt lat="43.65387" lon="3.32173">
        <ele>149.9</ele>
        <time>2024-08-06T07:34:24Z</time>
      </trkpt>
      <trkpt lat="43.65387" lon="3.32179">
        <ele>149.9</ele>
        <time>2024-08-06T07:34:25Z</time>
      </trkpt>
      <trkpt lat="43.65387" lon="3.32186">
        <ele>149.9</ele>
        <time>2024-08-06T07:34:26Z</time>
      </trkpt>
      <trkpt lat="43.65386" lon="3.32192">
        <ele>149.8</ele>
        <time>2024-08-06T07:34:27Z</time>
      </trkpt>
      <trkpt lat="43.65386" lon="3.32199">
        <ele>149.8</ele>
        <time>2024-08-06T07:34:28Z</time>
      </trkpt>
      <trkpt lat="43.65386" lon="3.32206">
        <ele>149.8</ele>
        <time>2024-08-06T07:34:29Z</time>
      </trkpt>
      <trkpt lat="43.65386" lon="3.32212">
        <ele>149.9</ele>
        <time>2024-08-06T07:34:30Z</time>
      </trkpt>
      <trkpt lat="43.65385" lon="3.32219">
        <ele>149.8</ele>
        <time>2024-08-06T07:34:31Z</time>
      </trkpt>
      <trkpt lat="43.65385" lon="3.32225">
        <ele>149.8</ele>
        <time>2024-08-06T07:34:32Z</time>
      </trkpt>
      <trkpt lat="43.65385" lon="3.32231">
        <ele>149.5</ele>
        <time>2024-08-06T07:34:33Z</time>
      </trkpt>
      <trkpt lat="43.65384" lon="3.32237">
        <ele>149.3</ele>
        <time>2024-08-06T07:34:34Z</time>
      </trkpt>
      <trkpt lat="43.65383" lon="3.32243">
        <ele>149</ele>
        <time>2024-08-06T07:34:35Z</time>
      </trkpt>
      <trkpt lat="43.65382" lon="3.32248">
        <ele>148.8</ele>
        <time>2024-08-06T07:34:36Z</time>
      </trkpt>
      <trkpt lat="43.65382" lon="3.32253">
        <ele>148.8</ele>
        <time>2024-08-06T07:34:37Z</time>
      </trkpt>
      <trkpt lat="43.65381" lon="3.32259">
        <ele>148.7</ele>
        <time>2024-08-06T07:34:38Z</time>
      </trkpt>
      <trkpt lat="43.6538" lon="3.32264">
        <ele>148.7</ele>
        <time>2024-08-06T07:34:39Z</time>
      </trkpt>
      <trkpt lat="43.65379" lon="3.3227">
        <ele>148.6</ele>
        <time>2024-08-06T07:34:40Z</time>
      </trkpt>
      <trkpt lat="43.65378" lon="3.32275">
        <ele>148.6</ele>
        <time>2024-08-06T07:34:41Z</time>
      </trkpt>
      <trkpt lat="43.65377" lon="3.32281">
        <ele>148.5</ele>
        <time>2024-08-06T07:34:42Z</time>
      </trkpt>
      <trkpt lat="43.65376" lon="3.32287">
        <ele>148.2</ele>
        <time>2024-08-06T07:34:43Z</time>
      </trkpt>
      <trkpt lat="43.65375" lon="3.32292">
        <ele>148</ele>
        <time>2024-08-06T07:34:44Z</time>
      </trkpt>
      <trkpt lat="43.65373" lon="3.32298">
        <ele>147.7</ele>
        <time>2024-08-06T07:34:45Z</time>
      </trkpt>
      <trkpt lat="43.65372" lon="3.32305">
        <ele>147.4</ele>
        <time>2024-08-06T07:34:46Z</time>
      </trkpt>
      <trkpt lat="43.65371" lon="3.32311">
        <ele>147.2</ele>
        <time>2024-08-06T07:34:47Z</time>
      </trkpt>
      <trkpt lat="43.6537" lon="3.32319">
        <ele>146.8</ele>
        <time>2024-08-06T07:34:48Z</time>
      </trkpt>
      <trkpt lat="43.65372" lon="3.32325">
        <ele>146.7</ele>
        <time>2024-08-06T07:34:49Z</time>
      </trkpt>
      <trkpt lat="43.65375" lon="3.3233">
        <ele>146.6</ele>
        <time>2024-08-06T07:34:50Z</time>
      </trkpt>
      <trkpt lat="43.65378" lon="3.32334">
        <ele>146.6</ele>
        <time>2024-08-06T07:34:51Z</time>
      </trkpt>
      <trkpt lat="43.65382" lon="3.32337">
        <ele>146.7</ele>
        <time>2024-08-06T07:34:52Z</time>
      </trkpt>
      <trkpt lat="43.65385" lon="3.3234">
        <ele>146.8</ele>
        <time>2024-08-06T07:34:53Z</time>
      </trkpt>
      <trkpt lat="43.65388" lon="3.32342">
        <ele>147</ele>
        <time>2024-08-06T07:34:54Z</time>
      </trkpt>
      <trkpt lat="43.65391" lon="3.32344">
        <ele>147.1</ele>
        <time>2024-08-06T07:34:55Z</time>
      </trkpt>
      <trkpt lat="43.65392" lon="3.32347">
        <ele>147.2</ele>
        <time>2024-08-06T07:34:56Z</time>
      </trkpt>
      <trkpt lat="43.65393" lon="3.32351">
        <ele>147.2</ele>
        <time>2024-08-06T07:34:57Z</time>
      </trkpt>
      <trkpt lat="43.65393" lon="3.32355">
        <ele>147.2</ele>
        <time>2024-08-06T07:34:58Z</time>
      </trkpt>
      <trkpt lat="43.65393" lon="3.32358">
        <ele>147.2</ele>
        <time>2024-08-06T07:34:59Z</time>
      </trkpt>
      <trkpt lat="43.65391" lon="3.32361">
        <ele>147.1</ele>
        <time>2024-08-06T07:35:00Z</time>
      </trkpt>
      <trkpt lat="43.65389" lon="3.32364">
        <ele>147</ele>
        <time>2024-08-06T07:35:01Z</time>
      </trkpt>
      <trkpt lat="43.65385" lon="3.32366">
        <ele>146.7</ele>
        <time>2024-08-06T07:35:02Z</time>
      </trkpt>
      <trkpt lat="43.65381" lon="3.32368">
        <ele>146.4</ele>
        <time>2024-08-06T07:35:03Z</time>
      </trkpt>
      <trkpt lat="43.65377" lon="3.32371">
        <ele>146.1</ele>
        <time>2024-08-06T07:35:04Z</time>
      </trkpt>
      <trkpt lat="43.65373" lon="3.32375">
        <ele>145.9</ele>
        <time>2024-08-06T07:35:05Z</time>
      </trkpt>
      <trkpt lat="43.65369" lon="3.32379">
        <ele>145.6</ele>
        <time>2024-08-06T07:35:06Z</time>
      </trkpt>
      <trkpt lat="43.65365" lon="3.32383">
        <ele>145.3</ele>
        <time>2024-08-06T07:35:07Z</time>
      </trkpt>
      <trkpt lat="43.6536" lon="3.32386">
        <ele>145</ele>
        <time>2024-08-06T07:35:08Z</time>
      </trkpt>
      <trkpt lat="43.65355" lon="3.32389">
        <ele>144.8</ele>
        <time>2024-08-06T07:35:09Z</time>
      </trkpt>
      <trkpt lat="43.65352" lon="3.32394">
        <ele>144.7</ele>
        <time>2024-08-06T07:35:10Z</time>
      </trkpt>
      <trkpt lat="43.6535" lon="3.32399">
        <ele>144.6</ele>
        <time>2024-08-06T07:35:11Z</time>
      </trkpt>
      <trkpt lat="43.65349" lon="3.32402">
        <ele>144.6</ele>
        <time>2024-08-06T07:35:12Z</time>
      </trkpt>
      <trkpt lat="43.65349" lon="3.32404">
        <ele>144.6</ele>
        <time>2024-08-06T07:35:13Z</time>
      </trkpt>
      <trkpt lat="43.65348" lon="3.32406">
        <ele>144.5</ele>
        <time>2024-08-06T07:35:14Z</time>
      </trkpt>
      <trkpt lat="43.65347" lon="3.32408">
        <ele>144.5</ele>
        <time>2024-08-06T07:35:15Z</time>
      </trkpt>
      <trkpt lat="43.65346" lon="3.32409">
        <ele>144.5</ele>
        <time>2024-08-06T07:35:16Z</time>
      </trkpt>
      <trkpt lat="43.65345" lon="3.3241">
        <ele>144.4</ele>
        <time>2024-08-06T07:35:17Z</time>
      </trkpt>
      <trkpt lat="43.65343" lon="3.32412">
        <ele>144.3</ele>
        <time>2024-08-06T07:35:18Z</time>
      </trkpt>
      <trkpt lat="43.65341" lon="3.32413">
        <ele>144.3</ele>
        <time>2024-08-06T07:35:19Z</time>
      </trkpt>
      <trkpt lat="43.65339" lon="3.32415">
        <ele>144.2</ele>
        <time>2024-08-06T07:35:20Z</time>
      </trkpt>
      <trkpt lat="43.65337" lon="3.32416">
        <ele>144.1</ele>
        <time>2024-08-06T07:35:21Z</time>
      </trkpt>
      <trkpt lat="43.65336" lon="3.32419">
        <ele>144.1</ele>
        <time>2024-08-06T07:35:22Z</time>
      </trkpt>
      <trkpt lat="43.65336" lon="3.32424">
        <ele>144.1</ele>
        <time>2024-08-06T07:35:23Z</time>
      </trkpt>
      <trkpt lat="43.65335" lon="3.3243">
        <ele>144.1</ele>
        <time>2024-08-06T07:35:24Z</time>
      </trkpt>
      <trkpt lat="43.65334" lon="3.32435">
        <ele>144</ele>
        <time>2024-08-06T07:35:25Z</time>
      </trkpt>
      <trkpt lat="43.65334" lon="3.32442">
        <ele>144</ele>
        <time>2024-08-06T07:35:26Z</time>
      </trkpt>
      <trkpt lat="43.65334" lon="3.32448">
        <ele>144.1</ele>
        <time>2024-08-06T07:35:27Z</time>
      </trkpt>
      <trkpt lat="43.65333" lon="3.32454">
        <ele>144</ele>
        <time>2024-08-06T07:35:28Z</time>
      </trkpt>
      <trkpt lat="43.65332" lon="3.32459">
        <ele>143.9</ele>
        <time>2024-08-06T07:35:29Z</time>
      </trkpt>
      <trkpt lat="43.65331" lon="3.32464">
        <ele>143.8</ele>
        <time>2024-08-06T07:35:30Z</time>
      </trkpt>
      <trkpt lat="43.6533" lon="3.32468">
        <ele>143.8</ele>
        <time>2024-08-06T07:35:31Z</time>
      </trkpt>
      <trkpt lat="43.65329" lon="3.32472">
        <ele>143.7</ele>
        <time>2024-08-06T07:35:32Z</time>
      </trkpt>
      <trkpt lat="43.65329" lon="3.32476">
        <ele>143.8</ele>
        <time>2024-08-06T07:35:33Z</time>
      </trkpt>
      <trkpt lat="43.65328" lon="3.3248">
        <ele>143.8</ele>
        <time>2024-08-06T07:35:34Z</time>
      </trkpt>
      <trkpt lat="43.65327" lon="3.32484">
        <ele>143.9</ele>
        <time>2024-08-06T07:35:35Z</time>
      </trkpt>
      <trkpt lat="43.65325" lon="3.32489">
        <ele>143.8</ele>
        <time>2024-08-06T07:35:36Z</time>
      </trkpt>
      <trkpt lat="43.65324" lon="3.32493">
        <ele>143.8</ele>
        <time>2024-08-06T07:35:37Z</time>
      </trkpt>
      <trkpt lat="43.65323" lon="3.32497">
        <ele>143.8</ele>
        <time>2024-08-06T07:35:38Z</time>
      </trkpt>
      <trkpt lat="43.65322" lon="3.32501">
        <ele>143.8</ele>
        <time>2024-08-06T07:35:39Z</time>
      </trkpt>
      <trkpt lat="43.65321" lon="3.32506">
        <ele>143.8</ele>
        <time>2024-08-06T07:35:40Z</time>
      </trkpt>
      <trkpt lat="43.65319" lon="3.3251">
        <ele>143.6</ele>
        <time>2024-08-06T07:35:41Z</time>
      </trkpt>
      <trkpt lat="43.65318" lon="3.32515">
        <ele>143.6</ele>
        <time>2024-08-06T07:35:42Z</time>
      </trkpt>
      <trkpt lat="43.65317" lon="3.3252">
        <ele>143.7</ele>
        <time>2024-08-06T07:35:43Z</time>
      </trkpt>
      <trkpt lat="43.65316" lon="3.32524">
        <ele>143.7</ele>
        <time>2024-08-06T07:35:44Z</time>
      </trkpt>
      <trkpt lat="43.65314" lon="3.32529">
        <ele>143.6</ele>
        <time>2024-08-06T07:35:45Z</time>
      </trkpt>
      <trkpt lat="43.65313" lon="3.32534">
        <ele>143.5</ele>
        <time>2024-08-06T07:35:46Z</time>
      </trkpt>
      <trkpt lat="43.65312" lon="3.32539">
        <ele>143.5</ele>
        <time>2024-08-06T07:35:47Z</time>
      </trkpt>
      <trkpt lat="43.65311" lon="3.32544">
        <ele>143.4</ele>
        <time>2024-08-06T07:35:48Z</time>
      </trkpt>
      <trkpt lat="43.65311" lon="3.3255">
        <ele>143.4</ele>
        <time>2024-08-06T07:35:49Z</time>
      </trkpt>
      <trkpt lat="43.6531" lon="3.32554">
        <ele>143.3</ele>
        <time>2024-08-06T07:35:50Z</time>
      </trkpt>
      <trkpt lat="43.65309" lon="3.32559">
        <ele>143.2</ele>
        <time>2024-08-06T07:35:51Z</time>
      </trkpt>
      <trkpt lat="43.65309" lon="3.32564">
        <ele>143.2</ele>
        <time>2024-08-06T07:35:52Z</time>
      </trkpt>
      <trkpt lat="43.65308" lon="3.32569">
        <ele>143.2</ele>
        <time>2024-08-06T07:35:53Z</time>
      </trkpt>
      <trkpt lat="43.65308" lon="3.32575">
        <ele>143.2</ele>
        <time>2024-08-06T07:35:54Z</time>
      </trkpt>
      <trkpt lat="43.65308" lon="3.32582">
        <ele>143.2</ele>
        <time>2024-08-06T07:35:55Z</time>
      </trkpt>
      <trkpt lat="43.65308" lon="3.32588">
        <ele>143</ele>
        <time>2024-08-06T07:35:56Z</time>
      </trkpt>
      <trkpt lat="43.65309" lon="3.32593">
        <ele>142.9</ele>
        <time>2024-08-06T07:35:57Z</time>
      </trkpt>
      <trkpt lat="43.6531" lon="3.32598">
        <ele>142.8</ele>
        <time>2024-08-06T07:35:58Z</time>
      </trkpt>
      <trkpt lat="43.6531" lon="3.32603">
        <ele>142.6</ele>
        <time>2024-08-06T07:35:59Z</time>
      </trkpt>
      <trkpt lat="43.65311" lon="3.32608">
        <ele>142.5</ele>
        <time>2024-08-06T07:36:00Z</time>
      </trkpt>
      <trkpt lat="43.65312" lon="3.32613">
        <ele>142.4</ele>
        <time>2024-08-06T07:36:01Z</time>
      </trkpt>
      <trkpt lat="43.65313" lon="3.32617">
        <ele>142.5</ele>
        <time>2024-08-06T07:36:02Z</time>
      </trkpt>
      <trkpt lat="43.65313" lon="3.32623">
        <ele>142.4</ele>
        <time>2024-08-06T07:36:03Z</time>
      </trkpt>
      <trkpt lat="43.65315" lon="3.32629">
        <ele>142.5</ele>
        <time>2024-08-06T07:36:04Z</time>
      </trkpt>
      <trkpt lat="43.65316" lon="3.32635">
        <ele>142.4</ele>
        <time>2024-08-06T07:36:05Z</time>
      </trkpt>
      <trkpt lat="43.65317" lon="3.32641">
        <ele>142.3</ele>
        <time>2024-08-06T07:36:06Z</time>
      </trkpt>
      <trkpt lat="43.65318" lon="3.32647">
        <ele>142.2</ele>
        <time>2024-08-06T07:36:07Z</time>
      </trkpt>
      <trkpt lat="43.65318" lon="3.32652">
        <ele>142</ele>
        <time>2024-08-06T07:36:08Z</time>
      </trkpt>
      <trkpt lat="43.65319" lon="3.32658">
        <ele>141.8</ele>
        <time>2024-08-06T07:36:09Z</time>
      </trkpt>
      <trkpt lat="43.6532" lon="3.32664">
        <ele>141.6</ele>
        <time>2024-08-06T07:36:10Z</time>
      </trkpt>
      <trkpt lat="43.65321" lon="3.3267">
        <ele>141.4</ele>
        <time>2024-08-06T07:36:11Z</time>
      </trkpt>
      <trkpt lat="43.65322" lon="3.32675">
        <ele>141.3</ele>
        <time>2024-08-06T07:36:12Z</time>
      </trkpt>
      <trkpt lat="43.65323" lon="3.32681">
        <ele>141.1</ele>
        <time>2024-08-06T07:36:13Z</time>
      </trkpt>
      <trkpt lat="43.65324" lon="3.32687">
        <ele>140.9</ele>
        <time>2024-08-06T07:36:14Z</time>
      </trkpt>
      <trkpt lat="43.65325" lon="3.32693">
        <ele>140.8</ele>
        <time>2024-08-06T07:36:15Z</time>
      </trkpt>
      <trkpt lat="43.65326" lon="3.32699">
        <ele>140.7</ele>
        <time>2024-08-06T07:36:16Z</time>
      </trkpt>
      <trkpt lat="43.65328" lon="3.32705">
        <ele>140.8</ele>
        <time>2024-08-06T07:36:17Z</time>
      </trkpt>
      <trkpt lat="43.65329" lon="3.32712">
        <ele>140.8</ele>
        <time>2024-08-06T07:36:18Z</time>
      </trkpt>
      <trkpt lat="43.6533" lon="3.32718">
        <ele>140.9</ele>
        <time>2024-08-06T07:36:19Z</time>
      </trkpt>
      <trkpt lat="43.65331" lon="3.32724">
        <ele>140.9</ele>
        <time>2024-08-06T07:36:20Z</time>
      </trkpt>
      <trkpt lat="43.65332" lon="3.3273">
        <ele>140.7</ele>
        <time>2024-08-06T07:36:21Z</time>
      </trkpt>
      <trkpt lat="43.65333" lon="3.32737">
        <ele>140.5</ele>
        <time>2024-08-06T07:36:22Z</time>
      </trkpt>
      <trkpt lat="43.65334" lon="3.32743">
        <ele>140.3</ele>
        <time>2024-08-06T07:36:23Z</time>
      </trkpt>
      <trkpt lat="43.65336" lon="3.32749">
        <ele>140.2</ele>
        <time>2024-08-06T07:36:24Z</time>
      </trkpt>
      <trkpt lat="43.65337" lon="3.32755">
        <ele>140.1</ele>
        <time>2024-08-06T07:36:25Z</time>
      </trkpt>
      <trkpt lat="43.65338" lon="3.32761">
        <ele>140.1</ele>
        <time>2024-08-06T07:36:26Z</time>
      </trkpt>
      <trkpt lat="43.65339" lon="3.32766">
        <ele>140.1</ele>
        <time>2024-08-06T07:36:27Z</time>
      </trkpt>
      <trkpt lat="43.6534" lon="3.3277">
        <ele>140.1</ele>
        <time>2024-08-06T07:36:28Z</time>
      </trkpt>
      <trkpt lat="43.65341" lon="3.32774">
        <ele>140.2</ele>
        <time>2024-08-06T07:36:29Z</time>
      </trkpt>
      <trkpt lat="43.65341" lon="3.32777">
        <ele>140.1</ele>
        <time>2024-08-06T07:36:30Z</time>
      </trkpt>
      <trkpt lat="43.65343" lon="3.32781">
        <ele>140.4</ele>
        <time>2024-08-06T07:36:31Z</time>
      </trkpt>
      <trkpt lat="43.65344" lon="3.32783">
        <ele>140.5</ele>
        <time>2024-08-06T07:36:32Z</time>
      </trkpt>
      <trkpt lat="43.65346" lon="3.32787">
        <ele>140.7</ele>
        <time>2024-08-06T07:36:33Z</time>
      </trkpt>
      <trkpt lat="43.65348" lon="3.32791">
        <ele>140.9</ele>
        <time>2024-08-06T07:36:34Z</time>
      </trkpt>
      <trkpt lat="43.65351" lon="3.32795">
        <ele>141.1</ele>
        <time>2024-08-06T07:36:35Z</time>
      </trkpt>
      <trkpt lat="43.65354" lon="3.32798">
        <ele>141.4</ele>
        <time>2024-08-06T07:36:36Z</time>
      </trkpt>
      <trkpt lat="43.65357" lon="3.32802">
        <ele>141.7</ele>
        <time>2024-08-06T07:36:37Z</time>
      </trkpt>
      <trkpt lat="43.65359" lon="3.32807">
        <ele>141.7</ele>
        <time>2024-08-06T07:36:38Z</time>
      </trkpt>
      <trkpt lat="43.65361" lon="3.32811">
        <ele>141.8</ele>
        <time>2024-08-06T07:36:39Z</time>
      </trkpt>
      <trkpt lat="43.65363" lon="3.32816">
        <ele>141.8</ele>
        <time>2024-08-06T07:36:40Z</time>
      </trkpt>
      <trkpt lat="43.65365" lon="3.32821">
        <ele>141.9</ele>
        <time>2024-08-06T07:36:41Z</time>
      </trkpt>
      <trkpt lat="43.65366" lon="3.32826">
        <ele>141.8</ele>
        <time>2024-08-06T07:36:42Z</time>
      </trkpt>
      <trkpt lat="43.65367" lon="3.3283">
        <ele>141.8</ele>
        <time>2024-08-06T07:36:43Z</time>
      </trkpt>
      <trkpt lat="43.65369" lon="3.32835">
        <ele>141.8</ele>
        <time>2024-08-06T07:36:44Z</time>
      </trkpt>
      <trkpt lat="43.65371" lon="3.32839">
        <ele>141.9</ele>
        <time>2024-08-06T07:36:45Z</time>
      </trkpt>
      <trkpt lat="43.65374" lon="3.32844">
        <ele>142</ele>
        <time>2024-08-06T07:36:46Z</time>
      </trkpt>
      <trkpt lat="43.65377" lon="3.32849">
        <ele>142.2</ele>
        <time>2024-08-06T07:36:47Z</time>
      </trkpt>
      <trkpt lat="43.65381" lon="3.32853">
        <ele>142.4</ele>
        <time>2024-08-06T07:36:48Z</time>
      </trkpt>
      <trkpt lat="43.65385" lon="3.32856">
        <ele>142.8</ele>
        <time>2024-08-06T07:36:49Z</time>
      </trkpt>
      <trkpt lat="43.65389" lon="3.32859">
        <ele>143.1</ele>
        <time>2024-08-06T07:36:50Z</time>
      </trkpt>
      <trkpt lat="43.65392" lon="3.32863">
        <ele>143</ele>
        <time>2024-08-06T07:36:51Z</time>
      </trkpt>
      <trkpt lat="43.65395" lon="3.32866">
        <ele>142.9</ele>
        <time>2024-08-06T07:36:52Z</time>
      </trkpt>
      <trkpt lat="43.65397" lon="3.32869">
        <ele>142.7</ele>
        <time>2024-08-06T07:36:53Z</time>
      </trkpt>
      <trkpt lat="43.654" lon="3.32872">
        <ele>142.6</ele>
        <time>2024-08-06T07:36:54Z</time>
      </trkpt>
      <trkpt lat="43.65404" lon="3.32874">
        <ele>142.7</ele>
        <time>2024-08-06T07:36:55Z</time>
      </trkpt>
      <trkpt lat="43.65407" lon="3.32877">
        <ele>142.6</ele>
        <time>2024-08-06T07:36:56Z</time>
      </trkpt>
      <trkpt lat="43.65409" lon="3.32879">
        <ele>142.5</ele>
        <time>2024-08-06T07:36:57Z</time>
      </trkpt>
      <trkpt lat="43.65411" lon="3.32881">
        <ele>142.4</ele>
        <time>2024-08-06T07:36:58Z</time>
      </trkpt>
      <trkpt lat="43.65413" lon="3.32884">
        <ele>142.3</ele>
        <time>2024-08-06T07:36:59Z</time>
      </trkpt>
      <trkpt lat="43.65414" lon="3.32886">
        <ele>142.1</ele>
        <time>2024-08-06T07:37:00Z</time>
      </trkpt>
      <trkpt lat="43.65415" lon="3.32887">
        <ele>142.1</ele>
        <time>2024-08-06T07:37:01Z</time>
      </trkpt>
      <trkpt lat="43.65415" lon="3.3289">
        <ele>141.8</ele>
        <time>2024-08-06T07:37:02Z</time>
      </trkpt>
      <trkpt lat="43.65417" lon="3.32891">
        <ele>141.9</ele>
        <time>2024-08-06T07:37:03Z</time>
      </trkpt>
      <trkpt lat="43.65418" lon="3.32893">
        <ele>141.8</ele>
        <time>2024-08-06T07:37:04Z</time>
      </trkpt>
      <trkpt lat="43.65419" lon="3.32895">
        <ele>141.8</ele>
        <time>2024-08-06T07:37:05Z</time>
      </trkpt>
      <trkpt lat="43.65419" lon="3.32897">
        <ele>141.7</ele>
        <time>2024-08-06T07:37:06Z</time>
      </trkpt>
      <trkpt lat="43.65419" lon="3.32899">
        <ele>141.5</ele>
        <time>2024-08-06T07:37:07Z</time>
      </trkpt>
      <trkpt lat="43.65419" lon="3.32901">
        <ele>141.4</ele>
        <time>2024-08-06T07:37:08Z</time>
      </trkpt>
      <trkpt lat="43.65419" lon="3.32903">
        <ele>141.2</ele>
        <time>2024-08-06T07:37:09Z</time>
      </trkpt>
      <trkpt lat="43.65417" lon="3.32906">
        <ele>140.8</ele>
        <time>2024-08-06T07:37:10Z</time>
      </trkpt>
      <trkpt lat="43.65416" lon="3.32909">
        <ele>140.5</ele>
        <time>2024-08-06T07:37:11Z</time>
      </trkpt>
      <trkpt lat="43.65414" lon="3.32912">
        <ele>140.2</ele>
        <time>2024-08-06T07:37:12Z</time>
      </trkpt>
      <trkpt lat="43.65413" lon="3.32917">
        <ele>139.9</ele>
        <time>2024-08-06T07:37:13Z</time>
      </trkpt>
      <trkpt lat="43.65414" lon="3.32921">
        <ele>139.7</ele>
        <time>2024-08-06T07:37:14Z</time>
      </trkpt>
      <trkpt lat="43.65415" lon="3.32926">
        <ele>139.6</ele>
        <time>2024-08-06T07:37:15Z</time>
      </trkpt>
      <trkpt lat="43.65416" lon="3.3293">
        <ele>139.5</ele>
        <time>2024-08-06T07:37:16Z</time>
      </trkpt>
      <trkpt lat="43.65418" lon="3.32932">
        <ele>139.6</ele>
        <time>2024-08-06T07:37:17Z</time>
      </trkpt>
      <trkpt lat="43.65421" lon="3.32933">
        <ele>139.9</ele>
        <time>2024-08-06T07:37:18Z</time>
      </trkpt>
      <trkpt lat="43.65423" lon="3.32936">
        <ele>140</ele>
        <time>2024-08-06T07:37:19Z</time>
      </trkpt>
      <trkpt lat="43.65426" lon="3.32938">
        <ele>140.2</ele>
        <time>2024-08-06T07:37:20Z</time>
      </trkpt>
      <trkpt lat="43.6543" lon="3.32939">
        <ele>140.6</ele>
        <time>2024-08-06T07:37:21Z</time>
      </trkpt>
      <trkpt lat="43.65433" lon="3.32939">
        <ele>141</ele>
        <time>2024-08-06T07:37:22Z</time>
      </trkpt>
      <trkpt lat="43.65436" lon="3.3294">
        <ele>141.2</ele>
        <time>2024-08-06T07:37:23Z</time>
      </trkpt>
      <trkpt lat="43.65439" lon="3.32941">
        <ele>141.5</ele>
        <time>2024-08-06T07:37:24Z</time>
      </trkpt>
      <trkpt lat="43.65442" lon="3.32941">
        <ele>141.9</ele>
        <time>2024-08-06T07:37:25Z</time>
      </trkpt>
      <trkpt lat="43.65444" lon="3.32942">
        <ele>142</ele>
        <time>2024-08-06T07:37:26Z</time>
      </trkpt>
      <trkpt lat="43.65446" lon="3.32941">
        <ele>142.3</ele>
        <time>2024-08-06T07:37:27Z</time>
      </trkpt>
      <trkpt lat="43.65449" lon="3.32942">
        <ele>142.6</ele>
        <time>2024-08-06T07:37:28Z</time>
      </trkpt>
      <trkpt lat="43.65451" lon="3.32942">
        <ele>142.8</ele>
        <time>2024-08-06T07:37:29Z</time>
      </trkpt>
      <trkpt lat="43.65454" lon="3.32943">
        <ele>143.1</ele>
        <time>2024-08-06T07:37:30Z</time>
      </trkpt>
      <trkpt lat="43.65456" lon="3.32944">
        <ele>143.3</ele>
        <time>2024-08-06T07:37:31Z</time>
      </trkpt>
      <trkpt lat="43.65459" lon="3.32944">
        <ele>143.6</ele>
        <time>2024-08-06T07:37:32Z</time>
      </trkpt>
      <trkpt lat="43.65461" lon="3.32945">
        <ele>143.7</ele>
        <time>2024-08-06T07:37:33Z</time>
      </trkpt>
      <trkpt lat="43.65464" lon="3.32947">
        <ele>143.9</ele>
        <time>2024-08-06T07:37:34Z</time>
      </trkpt>
      <trkpt lat="43.65466" lon="3.32949">
        <ele>143.9</ele>
        <time>2024-08-06T07:37:35Z</time>
      </trkpt>
      <trkpt lat="43.65468" lon="3.3295">
        <ele>144</ele>
        <time>2024-08-06T07:37:36Z</time>
      </trkpt>
      <trkpt lat="43.6547" lon="3.32952">
        <ele>144</ele>
        <time>2024-08-06T07:37:37Z</time>
      </trkpt>
      <trkpt lat="43.65472" lon="3.32953">
        <ele>144.1</ele>
        <time>2024-08-06T07:37:38Z</time>
      </trkpt>
      <trkpt lat="43.65474" lon="3.32955">
        <ele>144.2</ele>
        <time>2024-08-06T07:37:39Z</time>
      </trkpt>
      <trkpt lat="43.65475" lon="3.32957">
        <ele>144.2</ele>
        <time>2024-08-06T07:37:40Z</time>
      </trkpt>
      <trkpt lat="43.65477" lon="3.32959">
        <ele>144.5</ele>
        <time>2024-08-06T07:37:41Z</time>
      </trkpt>
      <trkpt lat="43.65478" lon="3.3296">
        <ele>144.6</ele>
        <time>2024-08-06T07:37:42Z</time>
      </trkpt>
      <trkpt lat="43.65478" lon="3.32961">
        <ele>144.5</ele>
        <time>2024-08-06T07:37:43Z</time>
      </trkpt>
      <trkpt lat="43.65479" lon="3.32966">
        <ele>144.1</ele>
        <time>2024-08-06T07:37:44Z</time>
      </trkpt>
      <trkpt lat="43.65479" lon="3.3297">
        <ele>143.7</ele>
        <time>2024-08-06T07:37:45Z</time>
      </trkpt>
      <trkpt lat="43.65481" lon="3.32974">
        <ele>143.7</ele>
        <time>2024-08-06T07:37:46Z</time>
      </trkpt>
      <trkpt lat="43.65482" lon="3.32977">
        <ele>143.6</ele>
        <time>2024-08-06T07:37:47Z</time>
      </trkpt>
      <trkpt lat="43.65483" lon="3.3298">
        <ele>143.6</ele>
        <time>2024-08-06T07:37:48Z</time>
      </trkpt>
      <trkpt lat="43.65483" lon="3.32985">
        <ele>143.1</ele>
        <time>2024-08-06T07:37:49Z</time>
      </trkpt>
      <trkpt lat="43.65483" lon="3.32989">
        <ele>142.7</ele>
        <time>2024-08-06T07:37:50Z</time>
      </trkpt>
      <trkpt lat="43.65483" lon="3.32992">
        <ele>142.4</ele>
        <time>2024-08-06T07:37:51Z</time>
      </trkpt>
      <trkpt lat="43.65484" lon="3.32994">
        <ele>142.3</ele>
        <time>2024-08-06T07:37:52Z</time>
      </trkpt>
      <trkpt lat="43.65485" lon="3.32996">
        <ele>142.3</ele>
        <time>2024-08-06T07:37:53Z</time>
      </trkpt>
      <trkpt lat="43.65487" lon="3.32998">
        <ele>142.3</ele>
        <time>2024-08-06T07:37:54Z</time>
      </trkpt>
      <trkpt lat="43.65489" lon="3.33001">
        <ele>142.3</ele>
        <time>2024-08-06T07:37:55Z</time>
      </trkpt>
      <trkpt lat="43.65492" lon="3.33003">
        <ele>142.5</ele>
        <time>2024-08-06T07:37:56Z</time>
      </trkpt>
      <trkpt lat="43.65493" lon="3.33007">
        <ele>142.2</ele>
        <time>2024-08-06T07:37:57Z</time>
      </trkpt>
      <trkpt lat="43.65495" lon="3.3301">
        <ele>142</ele>
        <time>2024-08-06T07:37:58Z</time>
      </trkpt>
      <trkpt lat="43.65496" lon="3.33013">
        <ele>141.8</ele>
        <time>2024-08-06T07:37:59Z</time>
      </trkpt>
      <trkpt lat="43.65498" lon="3.33016">
        <ele>141.5</ele>
        <time>2024-08-06T07:38:00Z</time>
      </trkpt>
      <trkpt lat="43.65501" lon="3.33019">
        <ele>141.6</ele>
        <time>2024-08-06T07:38:01Z</time>
      </trkpt>
      <trkpt lat="43.65504" lon="3.33022">
        <ele>142</ele>
        <time>2024-08-06T07:38:02Z</time>
      </trkpt>
      <trkpt lat="43.65506" lon="3.33025">
        <ele>142.1</ele>
        <time>2024-08-06T07:38:03Z</time>
      </trkpt>
      <trkpt lat="43.65507" lon="3.33028">
        <ele>142</ele>
        <time>2024-08-06T07:38:04Z</time>
      </trkpt>
      <trkpt lat="43.65509" lon="3.3303">
        <ele>142.4</ele>
        <time>2024-08-06T07:38:05Z</time>
      </trkpt>
      <trkpt lat="43.65511" lon="3.33033">
        <ele>142.8</ele>
        <time>2024-08-06T07:38:06Z</time>
      </trkpt>
      <trkpt lat="43.65514" lon="3.33035">
        <ele>143.4</ele>
        <time>2024-08-06T07:38:07Z</time>
      </trkpt>
      <trkpt lat="43.65515" lon="3.33039">
        <ele>143.3</ele>
        <time>2024-08-06T07:38:08Z</time>
      </trkpt>
      <trkpt lat="43.65516" lon="3.33043">
        <ele>143.1</ele>
        <time>2024-08-06T07:38:09Z</time>
      </trkpt>
      <trkpt lat="43.65517" lon="3.33047">
        <ele>142.9</ele>
        <time>2024-08-06T07:38:10Z</time>
      </trkpt>
      <trkpt lat="43.65518" lon="3.3305">
        <ele>142.8</ele>
        <time>2024-08-06T07:38:11Z</time>
      </trkpt>
      <trkpt lat="43.6552" lon="3.33054">
        <ele>142.8</ele>
        <time>2024-08-06T07:38:12Z</time>
      </trkpt>
      <trkpt lat="43.65522" lon="3.33057">
        <ele>142.8</ele>
        <time>2024-08-06T07:38:13Z</time>
      </trkpt>
      <trkpt lat="43.65524" lon="3.3306">
        <ele>142.7</ele>
        <time>2024-08-06T07:38:14Z</time>
      </trkpt>
      <trkpt lat="43.65525" lon="3.33064">
        <ele>142.4</ele>
        <time>2024-08-06T07:38:15Z</time>
      </trkpt>
      <trkpt lat="43.65525" lon="3.33067">
        <ele>142</ele>
        <time>2024-08-06T07:38:16Z</time>
      </trkpt>
      <trkpt lat="43.65525" lon="3.33071">
        <ele>141.4</ele>
        <time>2024-08-06T07:38:17Z</time>
      </trkpt>
      <trkpt lat="43.65526" lon="3.33074">
        <ele>141.2</ele>
        <time>2024-08-06T07:38:18Z</time>
      </trkpt>
      <trkpt lat="43.65528" lon="3.33077">
        <ele>141</ele>
        <time>2024-08-06T07:38:19Z</time>
      </trkpt>
      <trkpt lat="43.6553" lon="3.3308">
        <ele>141.1</ele>
        <time>2024-08-06T07:38:20Z</time>
      </trkpt>
      <trkpt lat="43.65532" lon="3.33082">
        <ele>141.3</ele>
        <time>2024-08-06T07:38:21Z</time>
      </trkpt>
      <trkpt lat="43.65534" lon="3.33085">
        <ele>141.4</ele>
        <time>2024-08-06T07:38:22Z</time>
      </trkpt>
      <trkpt lat="43.65537" lon="3.33088">
        <ele>141.8</ele>
        <time>2024-08-06T07:38:23Z</time>
      </trkpt>
      <trkpt lat="43.65539" lon="3.3309">
        <ele>142.1</ele>
        <time>2024-08-06T07:38:24Z</time>
      </trkpt>
      <trkpt lat="43.65542" lon="3.33092">
        <ele>142.5</ele>
        <time>2024-08-06T07:38:25Z</time>
      </trkpt>
      <trkpt lat="43.65543" lon="3.33094">
        <ele>142.4</ele>
        <time>2024-08-06T07:38:26Z</time>
      </trkpt>
      <trkpt lat="43.65545" lon="3.33096">
        <ele>142.6</ele>
        <time>2024-08-06T07:38:27Z</time>
      </trkpt>
      <trkpt lat="43.65548" lon="3.33097">
        <ele>143</ele>
        <time>2024-08-06T07:38:28Z</time>
      </trkpt>
      <trkpt lat="43.65551" lon="3.33099">
        <ele>143.3</ele>
        <time>2024-08-06T07:38:29Z</time>
      </trkpt>
      <trkpt lat="43.65553" lon="3.33102">
        <ele>143.2</ele>
        <time>2024-08-06T07:38:30Z</time>
      </trkpt>
      <trkpt lat="43.65554" lon="3.33105">
        <ele>142.8</ele>
        <time>2024-08-06T07:38:31Z</time>
      </trkpt>
      <trkpt lat="43.65556" lon="3.33108">
        <ele>142.7</ele>
        <time>2024-08-06T07:38:32Z</time>
      </trkpt>
      <trkpt lat="43.65558" lon="3.33112">
        <ele>142.6</ele>
        <time>2024-08-06T07:38:33Z</time>
      </trkpt>
      <trkpt lat="43.6556" lon="3.33115">
        <ele>142.9</ele>
        <time>2024-08-06T07:38:34Z</time>
      </trkpt>
      <trkpt lat="43.65562" lon="3.33119">
        <ele>143</ele>
        <time>2024-08-06T07:38:35Z</time>
      </trkpt>
      <trkpt lat="43.65564" lon="3.33121">
        <ele>143.3</ele>
        <time>2024-08-06T07:38:36Z</time>
      </trkpt>
      <trkpt lat="43.65566" lon="3.33122">
        <ele>143.6</ele>
        <time>2024-08-06T07:38:37Z</time>
      </trkpt>
      <trkpt lat="43.65568" lon="3.33124">
        <ele>143.8</ele>
        <time>2024-08-06T07:38:38Z</time>
      </trkpt>
      <trkpt lat="43.6557" lon="3.33126">
        <ele>144</ele>
        <time>2024-08-06T07:38:39Z</time>
      </trkpt>
      <trkpt lat="43.65573" lon="3.33128">
        <ele>144.3</ele>
        <time>2024-08-06T07:38:40Z</time>
      </trkpt>
      <trkpt lat="43.65575" lon="3.3313">
        <ele>144.3</ele>
        <time>2024-08-06T07:38:41Z</time>
      </trkpt>
      <trkpt lat="43.65578" lon="3.3313">
        <ele>144.9</ele>
        <time>2024-08-06T07:38:42Z</time>
      </trkpt>
      <trkpt lat="43.6558" lon="3.33131">
        <ele>145.1</ele>
        <time>2024-08-06T07:38:43Z</time>
      </trkpt>
      <trkpt lat="43.65582" lon="3.33132">
        <ele>145.2</ele>
        <time>2024-08-06T07:38:44Z</time>
      </trkpt>
      <trkpt lat="43.65584" lon="3.33134">
        <ele>145.2</ele>
        <time>2024-08-06T07:38:45Z</time>
      </trkpt>
      <trkpt lat="43.65586" lon="3.33136">
        <ele>145.2</ele>
        <time>2024-08-06T07:38:46Z</time>
      </trkpt>
      <trkpt lat="43.65586" lon="3.3314">
        <ele>144.4</ele>
        <time>2024-08-06T07:38:47Z</time>
      </trkpt>
      <trkpt lat="43.65587" lon="3.33144">
        <ele>144</ele>
        <time>2024-08-06T07:38:48Z</time>
      </trkpt>
      <trkpt lat="43.65589" lon="3.33149">
        <ele>143.6</ele>
        <time>2024-08-06T07:38:49Z</time>
      </trkpt>
      <trkpt lat="43.6559" lon="3.33154">
        <ele>143</ele>
        <time>2024-08-06T07:38:50Z</time>
      </trkpt>
      <trkpt lat="43.65592" lon="3.33159">
        <ele>142.5</ele>
        <time>2024-08-06T07:38:51Z</time>
      </trkpt>
      <trkpt lat="43.65594" lon="3.33164">
        <ele>142</ele>
        <time>2024-08-06T07:38:52Z</time>
      </trkpt>
      <trkpt lat="43.65595" lon="3.33167">
        <ele>141.7</ele>
        <time>2024-08-06T07:38:53Z</time>
      </trkpt>
      <trkpt lat="43.65596" lon="3.33169">
        <ele>141.6</ele>
        <time>2024-08-06T07:38:54Z</time>
      </trkpt>
      <trkpt lat="43.65598" lon="3.33172">
        <ele>141.6</ele>
        <time>2024-08-06T07:38:55Z</time>
      </trkpt>
      <trkpt lat="43.65599" lon="3.33173">
        <ele>141.6</ele>
        <time>2024-08-06T07:38:56Z</time>
      </trkpt>
      <trkpt lat="43.65601" lon="3.33175">
        <ele>141.7</ele>
        <time>2024-08-06T07:38:57Z</time>
      </trkpt>
      <trkpt lat="43.65603" lon="3.33177">
        <ele>141.7</ele>
        <time>2024-08-06T07:38:58Z</time>
      </trkpt>
      <trkpt lat="43.65605" lon="3.33177">
        <ele>141.9</ele>
        <time>2024-08-06T07:38:59Z</time>
      </trkpt>
      <trkpt lat="43.65606" lon="3.33177">
        <ele>142</ele>
        <time>2024-08-06T07:39:00Z</time>
      </trkpt>
      <trkpt lat="43.65607" lon="3.33175">
        <ele>142.3</ele>
        <time>2024-08-06T07:39:01Z</time>
      </trkpt>
      <trkpt lat="43.65608" lon="3.33174">
        <ele>142.6</ele>
        <time>2024-08-06T07:39:02Z</time>
      </trkpt>
      <trkpt lat="43.6561" lon="3.33173">
        <ele>143</ele>
        <time>2024-08-06T07:39:03Z</time>
      </trkpt>
      <trkpt lat="43.65613" lon="3.33173">
        <ele>143.5</ele>
        <time>2024-08-06T07:39:04Z</time>
      </trkpt>
      <trkpt lat="43.65617" lon="3.33174">
        <ele>144.2</ele>
        <time>2024-08-06T07:39:05Z</time>
      </trkpt>
      <trkpt lat="43.65619" lon="3.33177">
        <ele>144.1</ele>
        <time>2024-08-06T07:39:06Z</time>
      </trkpt>
      <trkpt lat="43.6562" lon="3.33181">
        <ele>143.7</ele>
        <time>2024-08-06T07:39:07Z</time>
      </trkpt>
      <trkpt lat="43.65622" lon="3.33185">
        <ele>143.5</ele>
        <time>2024-08-06T07:39:08Z</time>
      </trkpt>
      <trkpt lat="43.65623" lon="3.33188">
        <ele>143.2</ele>
        <time>2024-08-06T07:39:09Z</time>
      </trkpt>
      <trkpt lat="43.65624" lon="3.33192">
        <ele>142.7</ele>
        <time>2024-08-06T07:39:10Z</time>
      </trkpt>
      <trkpt lat="43.65623" lon="3.33196">
        <ele>142</ele>
        <time>2024-08-06T07:39:11Z</time>
      </trkpt>
      <trkpt lat="43.65624" lon="3.332">
        <ele>141.8</ele>
        <time>2024-08-06T07:39:12Z</time>
      </trkpt>
      <trkpt lat="43.65625" lon="3.33204">
        <ele>141.6</ele>
        <time>2024-08-06T07:39:13Z</time>
      </trkpt>
      <trkpt lat="43.65627" lon="3.33208">
        <ele>141.5</ele>
        <time>2024-08-06T07:39:14Z</time>
      </trkpt>
      <trkpt lat="43.65629" lon="3.33212">
        <ele>141.4</ele>
        <time>2024-08-06T07:39:15Z</time>
      </trkpt>
      <trkpt lat="43.65632" lon="3.33218">
        <ele>141</ele>
        <time>2024-08-06T07:39:16Z</time>
      </trkpt>
      <trkpt lat="43.65635" lon="3.33223">
        <ele>140.7</ele>
        <time>2024-08-06T07:39:17Z</time>
      </trkpt>
      <trkpt lat="43.65639" lon="3.33227">
        <ele>140.7</ele>
        <time>2024-08-06T07:39:18Z</time>
      </trkpt>
      <trkpt lat="43.65643" lon="3.33231">
        <ele>141.1</ele>
        <time>2024-08-06T07:39:19Z</time>
      </trkpt>
      <trkpt lat="43.65646" lon="3.33235">
        <ele>141.3</ele>
        <time>2024-08-06T07:39:20Z</time>
      </trkpt>
      <trkpt lat="43.65648" lon="3.33239">
        <ele>141.5</ele>
        <time>2024-08-06T07:39:21Z</time>
      </trkpt>
      <trkpt lat="43.65649" lon="3.33241">
        <ele>141.6</ele>
        <time>2024-08-06T07:39:22Z</time>
      </trkpt>
      <trkpt lat="43.65649" lon="3.33243">
        <ele>141.5</ele>
        <time>2024-08-06T07:39:23Z</time>
      </trkpt>
      <trkpt lat="43.6565" lon="3.33246">
        <ele>141.6</ele>
        <time>2024-08-06T07:39:24Z</time>
      </trkpt>
      <trkpt lat="43.65652" lon="3.33248">
        <ele>141.9</ele>
        <time>2024-08-06T07:39:25Z</time>
      </trkpt>
      <trkpt lat="43.65653" lon="3.33249">
        <ele>142.1</ele>
        <time>2024-08-06T07:39:26Z</time>
      </trkpt>
      <trkpt lat="43.65653" lon="3.3325">
        <ele>142</ele>
        <time>2024-08-06T07:39:27Z</time>
      </trkpt>
      <trkpt lat="43.65653" lon="3.33253">
        <ele>142.1</ele>
        <time>2024-08-06T07:39:28Z</time>
      </trkpt>
      <trkpt lat="43.65653" lon="3.33256">
        <ele>142.2</ele>
        <time>2024-08-06T07:39:29Z</time>
      </trkpt>
      <trkpt lat="43.65653" lon="3.3326">
        <ele>142.2</ele>
        <time>2024-08-06T07:39:30Z</time>
      </trkpt>
      <trkpt lat="43.65652" lon="3.33263">
        <ele>142.1</ele>
        <time>2024-08-06T07:39:31Z</time>
      </trkpt>
      <trkpt lat="43.6565" lon="3.33266">
        <ele>141.7</ele>
        <time>2024-08-06T07:39:32Z</time>
      </trkpt>
      <trkpt lat="43.65648" lon="3.33269">
        <ele>141.4</ele>
        <time>2024-08-06T07:39:33Z</time>
      </trkpt>
      <trkpt lat="43.65648" lon="3.33272">
        <ele>141.5</ele>
        <time>2024-08-06T07:39:34Z</time>
      </trkpt>
      <trkpt lat="43.65649" lon="3.33276">
        <ele>141.8</ele>
        <time>2024-08-06T07:39:35Z</time>
      </trkpt>
      <trkpt lat="43.6565" lon="3.33279">
        <ele>141.9</ele>
        <time>2024-08-06T07:39:36Z</time>
      </trkpt>
      <trkpt lat="43.65652" lon="3.33283">
        <ele>142.1</ele>
        <time>2024-08-06T07:39:37Z</time>
      </trkpt>
      <trkpt lat="43.65654" lon="3.33287">
        <ele>142.2</ele>
        <time>2024-08-06T07:39:38Z</time>
      </trkpt>
      <trkpt lat="43.65655" lon="3.33291">
        <ele>142.1</ele>
        <time>2024-08-06T07:39:39Z</time>
      </trkpt>
      <trkpt lat="43.65657" lon="3.33295">
        <ele>142.2</ele>
        <time>2024-08-06T07:39:40Z</time>
      </trkpt>
      <trkpt lat="43.65659" lon="3.33298">
        <ele>142.4</ele>
        <time>2024-08-06T07:39:41Z</time>
      </trkpt>
      <trkpt lat="43.65662" lon="3.33302">
        <ele>142.6</ele>
        <time>2024-08-06T07:39:42Z</time>
      </trkpt>
      <trkpt lat="43.65664" lon="3.33307">
        <ele>142.5</ele>
        <time>2024-08-06T07:39:43Z</time>
      </trkpt>
      <trkpt lat="43.65665" lon="3.33312">
        <ele>142.1</ele>
        <time>2024-08-06T07:39:44Z</time>
      </trkpt>
      <trkpt lat="43.65666" lon="3.33316">
        <ele>141.8</ele>
        <time>2024-08-06T07:39:45Z</time>
      </trkpt>
      <trkpt lat="43.65669" lon="3.33321">
        <ele>141.7</ele>
        <time>2024-08-06T07:39:46Z</time>
      </trkpt>
      <trkpt lat="43.65672" lon="3.33324">
        <ele>141.7</ele>
        <time>2024-08-06T07:39:47Z</time>
      </trkpt>
      <trkpt lat="43.65675" lon="3.33328">
        <ele>141.6</ele>
        <time>2024-08-06T07:39:48Z</time>
      </trkpt>
      <trkpt lat="43.65677" lon="3.33333">
        <ele>141.2</ele>
        <time>2024-08-06T07:39:49Z</time>
      </trkpt>
      <trkpt lat="43.65679" lon="3.33336">
        <ele>141</ele>
        <time>2024-08-06T07:39:50Z</time>
      </trkpt>
      <trkpt lat="43.6568" lon="3.33338">
        <ele>140.9</ele>
        <time>2024-08-06T07:39:51Z</time>
      </trkpt>
      <trkpt lat="43.65683" lon="3.33339">
        <ele>141</ele>
        <time>2024-08-06T07:39:52Z</time>
      </trkpt>
      <trkpt lat="43.65686" lon="3.3334">
        <ele>141.2</ele>
        <time>2024-08-06T07:39:53Z</time>
      </trkpt>
      <trkpt lat="43.65689" lon="3.33342">
        <ele>141.2</ele>
        <time>2024-08-06T07:39:54Z</time>
      </trkpt>
      <trkpt lat="43.65693" lon="3.33345">
        <ele>141.2</ele>
        <time>2024-08-06T07:39:55Z</time>
      </trkpt>
      <trkpt lat="43.65696" lon="3.33346">
        <ele>141.4</ele>
        <time>2024-08-06T07:39:56Z</time>
      </trkpt>
      <trkpt lat="43.657" lon="3.33347">
        <ele>141.9</ele>
        <time>2024-08-06T07:39:57Z</time>
      </trkpt>
      <trkpt lat="43.65703" lon="3.33349">
        <ele>142.1</ele>
        <time>2024-08-06T07:39:58Z</time>
      </trkpt>
      <trkpt lat="43.65706" lon="3.3335">
        <ele>142.4</ele>
        <time>2024-08-06T07:39:59Z</time>
      </trkpt>
      <trkpt lat="43.65709" lon="3.33351">
        <ele>142.7</ele>
        <time>2024-08-06T07:40:00Z</time>
      </trkpt>
      <trkpt lat="43.65711" lon="3.33354">
        <ele>142.6</ele>
        <time>2024-08-06T07:40:01Z</time>
      </trkpt>
      <trkpt lat="43.65713" lon="3.33356">
        <ele>142.5</ele>
        <time>2024-08-06T07:40:02Z</time>
      </trkpt>
      <trkpt lat="43.65715" lon="3.3336">
        <ele>142.1</ele>
        <time>2024-08-06T07:40:03Z</time>
      </trkpt>
      <trkpt lat="43.65716" lon="3.33364">
        <ele>141.8</ele>
        <time>2024-08-06T07:40:04Z</time>
      </trkpt>
      <trkpt lat="43.65719" lon="3.33366">
        <ele>142</ele>
        <time>2024-08-06T07:40:05Z</time>
      </trkpt>
      <trkpt lat="43.65721" lon="3.33369">
        <ele>142</ele>
        <time>2024-08-06T07:40:06Z</time>
      </trkpt>
      <trkpt lat="43.65723" lon="3.33372">
        <ele>142</ele>
        <time>2024-08-06T07:40:07Z</time>
      </trkpt>
      <trkpt lat="43.65726" lon="3.33374">
        <ele>142.4</ele>
        <time>2024-08-06T07:40:08Z</time>
      </trkpt>
      <trkpt lat="43.65729" lon="3.33379">
        <ele>142.4</ele>
        <time>2024-08-06T07:40:09Z</time>
      </trkpt>
      <trkpt lat="43.65729" lon="3.33383">
        <ele>141.9</ele>
        <time>2024-08-06T07:40:10Z</time>
      </trkpt>
      <trkpt lat="43.65731" lon="3.33386">
        <ele>141.9</ele>
        <time>2024-08-06T07:40:11Z</time>
      </trkpt>
      <trkpt lat="43.65733" lon="3.33389">
        <ele>141.9</ele>
        <time>2024-08-06T07:40:12Z</time>
      </trkpt>
      <trkpt lat="43.65734" lon="3.33391">
        <ele>141.9</ele>
        <time>2024-08-06T07:40:13Z</time>
      </trkpt>
      <trkpt lat="43.65737" lon="3.33393">
        <ele>142.1</ele>
        <time>2024-08-06T07:40:14Z</time>
      </trkpt>
      <trkpt lat="43.65739" lon="3.33395">
        <ele>142.2</ele>
        <time>2024-08-06T07:40:15Z</time>
      </trkpt>
      <trkpt lat="43.65742" lon="3.33398">
        <ele>142.2</ele>
        <time>2024-08-06T07:40:16Z</time>
      </trkpt>
      <trkpt lat="43.65744" lon="3.33399">
        <ele>142.3</ele>
        <time>2024-08-06T07:40:17Z</time>
      </trkpt>
      <trkpt lat="43.65747" lon="3.334">
        <ele>142.6</ele>
        <time>2024-08-06T07:40:18Z</time>
      </trkpt>
      <trkpt lat="43.6575" lon="3.33401">
        <ele>142.8</ele>
        <time>2024-08-06T07:40:19Z</time>
      </trkpt>
      <trkpt lat="43.65753" lon="3.33403">
        <ele>142.9</ele>
        <time>2024-08-06T07:40:20Z</time>
      </trkpt>
      <trkpt lat="43.65755" lon="3.33407">
        <ele>142.5</ele>
        <time>2024-08-06T07:40:21Z</time>
      </trkpt>
      <trkpt lat="43.65757" lon="3.3341">
        <ele>142.2</ele>
        <time>2024-08-06T07:40:22Z</time>
      </trkpt>
      <trkpt lat="43.65759" lon="3.33412">
        <ele>142.1</ele>
        <time>2024-08-06T07:40:23Z</time>
      </trkpt>
      <trkpt lat="43.65762" lon="3.33414">
        <ele>142.2</ele>
        <time>2024-08-06T07:40:24Z</time>
      </trkpt>
      <trkpt lat="43.65763" lon="3.33417">
        <ele>141.8</ele>
        <time>2024-08-06T07:40:25Z</time>
      </trkpt>
      <trkpt lat="43.65765" lon="3.3342">
        <ele>141.8</ele>
        <time>2024-08-06T07:40:26Z</time>
      </trkpt>
      <trkpt lat="43.65768" lon="3.33422">
        <ele>142</ele>
        <time>2024-08-06T07:40:27Z</time>
      </trkpt>
      <trkpt lat="43.6577" lon="3.33424">
        <ele>142</ele>
        <time>2024-08-06T07:40:28Z</time>
      </trkpt>
      <trkpt lat="43.65772" lon="3.33427">
        <ele>141.8</ele>
        <time>2024-08-06T07:40:29Z</time>
      </trkpt>
      <trkpt lat="43.65775" lon="3.33428">
        <ele>142</ele>
        <time>2024-08-06T07:40:30Z</time>
      </trkpt>
      <trkpt lat="43.65777" lon="3.33429">
        <ele>142.1</ele>
        <time>2024-08-06T07:40:31Z</time>
      </trkpt>
      <trkpt lat="43.6578" lon="3.33431">
        <ele>142.1</ele>
        <time>2024-08-06T07:40:32Z</time>
      </trkpt>
      <trkpt lat="43.65783" lon="3.33434">
        <ele>141.8</ele>
        <time>2024-08-06T07:40:33Z</time>
      </trkpt>
      <trkpt lat="43.65786" lon="3.33436">
        <ele>141.6</ele>
        <time>2024-08-06T07:40:34Z</time>
      </trkpt>
      <trkpt lat="43.65788" lon="3.33437">
        <ele>141.5</ele>
        <time>2024-08-06T07:40:35Z</time>
      </trkpt>
      <trkpt lat="43.65792" lon="3.33437">
        <ele>141.7</ele>
        <time>2024-08-06T07:40:36Z</time>
      </trkpt>
      <trkpt lat="43.65795" lon="3.33437">
        <ele>141.9</ele>
        <time>2024-08-06T07:40:37Z</time>
      </trkpt>
      <trkpt lat="43.65799" lon="3.33438">
        <ele>141.9</ele>
        <time>2024-08-06T07:40:38Z</time>
      </trkpt>
      <trkpt lat="43.65803" lon="3.33439">
        <ele>141.9</ele>
        <time>2024-08-06T07:40:39Z</time>
      </trkpt>
      <trkpt lat="43.65807" lon="3.33441">
        <ele>141.7</ele>
        <time>2024-08-06T07:40:40Z</time>
      </trkpt>
      <trkpt lat="43.65812" lon="3.33442">
        <ele>141.7</ele>
        <time>2024-08-06T07:40:41Z</time>
      </trkpt>
      <trkpt lat="43.65817" lon="3.33443">
        <ele>141.7</ele>
        <time>2024-08-06T07:40:42Z</time>
      </trkpt>
      <trkpt lat="43.65822" lon="3.33444">
        <ele>141.7</ele>
        <time>2024-08-06T07:40:43Z</time>
      </trkpt>
      <trkpt lat="43.65826" lon="3.33445">
        <ele>141.7</ele>
        <time>2024-08-06T07:40:44Z</time>
      </trkpt>
      <trkpt lat="43.65829" lon="3.33447">
        <ele>141.5</ele>
        <time>2024-08-06T07:40:45Z</time>
      </trkpt>
      <trkpt lat="43.65832" lon="3.33449">
        <ele>141.3</ele>
        <time>2024-08-06T07:40:46Z</time>
      </trkpt>
      <trkpt lat="43.65834" lon="3.33448">
        <ele>141.5</ele>
        <time>2024-08-06T07:40:47Z</time>
      </trkpt>
      <trkpt lat="43.65836" lon="3.33448">
        <ele>141.5</ele>
        <time>2024-08-06T07:40:48Z</time>
      </trkpt>
      <trkpt lat="43.65838" lon="3.33448">
        <ele>141.5</ele>
        <time>2024-08-06T07:40:49Z</time>
      </trkpt>
      <trkpt lat="43.65838" lon="3.33448">
        <ele>141.5</ele>
        <time>2024-08-06T07:40:50Z</time>
      </trkpt>
      <trkpt lat="43.65838" lon="3.33447">
        <ele>141.6</ele>
        <time>2024-08-06T07:40:51Z</time>
      </trkpt>
      <trkpt lat="43.65844" lon="3.33449">
        <ele>141.3</ele>
        <time>2024-08-06T07:41:20Z</time>
      </trkpt>
      <trkpt lat="43.65845" lon="3.3345">
        <ele>141.2</ele>
        <time>2024-08-06T07:41:21Z</time>
      </trkpt>
      <trkpt lat="43.65847" lon="3.33451">
        <ele>141.1</ele>
        <time>2024-08-06T07:41:22Z</time>
      </trkpt>
      <trkpt lat="43.65847" lon="3.33453">
        <ele>140.8</ele>
        <time>2024-08-06T07:41:23Z</time>
      </trkpt>
      <trkpt lat="43.65849" lon="3.33456">
        <ele>140.3</ele>
        <time>2024-08-06T07:41:24Z</time>
      </trkpt>
      <trkpt lat="43.65851" lon="3.33458">
        <ele>140</ele>
        <time>2024-08-06T07:41:25Z</time>
      </trkpt>
      <trkpt lat="43.65853" lon="3.3346">
        <ele>139.8</ele>
        <time>2024-08-06T07:41:26Z</time>
      </trkpt>
      <trkpt lat="43.65855" lon="3.33461">
        <ele>139.6</ele>
        <time>2024-08-06T07:41:27Z</time>
      </trkpt>
      <trkpt lat="43.65856" lon="3.33461">
        <ele>139.6</ele>
        <time>2024-08-06T07:41:28Z</time>
      </trkpt>
      <trkpt lat="43.65858" lon="3.33461">
        <ele>139.6</ele>
        <time>2024-08-06T07:41:29Z</time>
      </trkpt>
      <trkpt lat="43.65859" lon="3.33461">
        <ele>139.6</ele>
        <time>2024-08-06T07:41:30Z</time>
      </trkpt>
      <trkpt lat="43.65862" lon="3.33462">
        <ele>139.5</ele>
        <time>2024-08-06T07:41:31Z</time>
      </trkpt>
      <trkpt lat="43.65864" lon="3.33462">
        <ele>139.5</ele>
        <time>2024-08-06T07:41:32Z</time>
      </trkpt>
      <trkpt lat="43.65867" lon="3.33461">
        <ele>139.7</ele>
        <time>2024-08-06T07:41:33Z</time>
      </trkpt>
      <trkpt lat="43.65871" lon="3.33461">
        <ele>139.8</ele>
        <time>2024-08-06T07:41:34Z</time>
      </trkpt>
      <trkpt lat="43.65875" lon="3.33462">
        <ele>139.8</ele>
        <time>2024-08-06T07:41:35Z</time>
      </trkpt>
      <trkpt lat="43.65879" lon="3.33464">
        <ele>139.6</ele>
        <time>2024-08-06T07:41:36Z</time>
      </trkpt>
      <trkpt lat="43.65882" lon="3.33463">
        <ele>139.8</ele>
        <time>2024-08-06T07:41:37Z</time>
      </trkpt>
      <trkpt lat="43.65885" lon="3.33462">
        <ele>140</ele>
        <time>2024-08-06T07:41:38Z</time>
      </trkpt>
      <trkpt lat="43.65888" lon="3.33463">
        <ele>140</ele>
        <time>2024-08-06T07:41:39Z</time>
      </trkpt>
      <trkpt lat="43.6589" lon="3.33464">
        <ele>140</ele>
        <time>2024-08-06T07:41:40Z</time>
      </trkpt>
      <trkpt lat="43.65892" lon="3.33465">
        <ele>140.1</ele>
        <time>2024-08-06T07:41:41Z</time>
      </trkpt>
      <trkpt lat="43.65892" lon="3.33465">
        <ele>140.1</ele>
        <time>2024-08-06T07:41:42Z</time>
      </trkpt>
      <trkpt lat="43.65894" lon="3.33466">
        <ele>140.2</ele>
        <time>2024-08-06T07:41:43Z</time>
      </trkpt>
      <trkpt lat="43.65893" lon="3.33466">
        <ele>140.1</ele>
        <time>2024-08-06T07:41:44Z</time>
      </trkpt>
      <trkpt lat="43.65897" lon="3.33469">
        <ele>140.2</ele>
        <time>2024-08-06T07:42:02Z</time>
      </trkpt>
      <trkpt lat="43.65898" lon="3.3347">
        <ele>140.2</ele>
        <time>2024-08-06T07:42:03Z</time>
      </trkpt>
      <trkpt lat="43.659" lon="3.33471">
        <ele>140.3</ele>
        <time>2024-08-06T07:42:04Z</time>
      </trkpt>
      <trkpt lat="43.65901" lon="3.33472">
        <ele>140.3</ele>
        <time>2024-08-06T07:42:05Z</time>
      </trkpt>
      <trkpt lat="43.65903" lon="3.33473">
        <ele>140.5</ele>
        <time>2024-08-06T07:42:06Z</time>
      </trkpt>
      <trkpt lat="43.65904" lon="3.33474">
        <ele>140.5</ele>
        <time>2024-08-06T07:42:07Z</time>
      </trkpt>
      <trkpt lat="43.65905" lon="3.33475">
        <ele>140.6</ele>
        <time>2024-08-06T07:42:08Z</time>
      </trkpt>
      <trkpt lat="43.65906" lon="3.33476">
        <ele>140.6</ele>
        <time>2024-08-06T07:42:09Z</time>
      </trkpt>
      <trkpt lat="43.65908" lon="3.33477">
        <ele>140.8</ele>
        <time>2024-08-06T07:42:10Z</time>
      </trkpt>
      <trkpt lat="43.65909" lon="3.33478">
        <ele>140.8</ele>
        <time>2024-08-06T07:42:11Z</time>
      </trkpt>
      <trkpt lat="43.6591" lon="3.3348">
        <ele>140.8</ele>
        <time>2024-08-06T07:42:12Z</time>
      </trkpt>
      <trkpt lat="43.65912" lon="3.33481">
        <ele>140.9</ele>
        <time>2024-08-06T07:42:13Z</time>
      </trkpt>
      <trkpt lat="43.65913" lon="3.33482">
        <ele>140.9</ele>
        <time>2024-08-06T07:42:14Z</time>
      </trkpt>
      <trkpt lat="43.65914" lon="3.33484">
        <ele>140.9</ele>
        <time>2024-08-06T07:42:15Z</time>
      </trkpt>
      <trkpt lat="43.65916" lon="3.33487">
        <ele>140.9</ele>
        <time>2024-08-06T07:42:16Z</time>
      </trkpt>
      <trkpt lat="43.65917" lon="3.33489">
        <ele>140.9</ele>
        <time>2024-08-06T07:42:17Z</time>
      </trkpt>
      <trkpt lat="43.65918" lon="3.33492">
        <ele>140.8</ele>
        <time>2024-08-06T07:42:18Z</time>
      </trkpt>
      <trkpt lat="43.65919" lon="3.33494">
        <ele>140.9</ele>
        <time>2024-08-06T07:42:19Z</time>
      </trkpt>
      <trkpt lat="43.6592" lon="3.33496">
        <ele>140.9</ele>
        <time>2024-08-06T07:42:20Z</time>
      </trkpt>
      <trkpt lat="43.65921" lon="3.33499">
        <ele>140.9</ele>
        <time>2024-08-06T07:42:21Z</time>
      </trkpt>
      <trkpt lat="43.65922" lon="3.33502">
        <ele>140.9</ele>
        <time>2024-08-06T07:42:22Z</time>
      </trkpt>
      <trkpt lat="43.65923" lon="3.33504">
        <ele>141.1</ele>
        <time>2024-08-06T07:42:23Z</time>
      </trkpt>
      <trkpt lat="43.65925" lon="3.33505">
        <ele>141.4</ele>
        <time>2024-08-06T07:42:24Z</time>
      </trkpt>
      <trkpt lat="43.65926" lon="3.33507">
        <ele>141.5</ele>
        <time>2024-08-06T07:42:25Z</time>
      </trkpt>
      <trkpt lat="43.65927" lon="3.33508">
        <ele>141.6</ele>
        <time>2024-08-06T07:42:26Z</time>
      </trkpt>
      <trkpt lat="43.65927" lon="3.33508">
        <ele>141.6</ele>
        <time>2024-08-06T07:42:27Z</time>
      </trkpt>
      <trkpt lat="43.65927" lon="3.33508">
        <ele>141.6</ele>
        <time>2024-08-06T07:42:28Z</time>
      </trkpt>
      <trkpt lat="43.65928" lon="3.33508">
        <ele>141.8</ele>
        <time>2024-08-06T07:42:29Z</time>
      </trkpt>
      <trkpt lat="43.6593" lon="3.33516">
        <ele>141.8</ele>
        <time>2024-08-06T07:49:59Z</time>
      </trkpt>
      <trkpt lat="43.65931" lon="3.33519">
        <ele>141.9</ele>
        <time>2024-08-06T07:50:00Z</time>
      </trkpt>
      <trkpt lat="43.65932" lon="3.33523">
        <ele>141.8</ele>
        <time>2024-08-06T07:50:01Z</time>
      </trkpt>
      <trkpt lat="43.65934" lon="3.33524">
        <ele>142</ele>
        <time>2024-08-06T07:50:02Z</time>
      </trkpt>
      <trkpt lat="43.65936" lon="3.33526">
        <ele>142.2</ele>
        <time>2024-08-06T07:50:03Z</time>
      </trkpt>
      <trkpt lat="43.65938" lon="3.33527">
        <ele>142.3</ele>
        <time>2024-08-06T07:50:04Z</time>
      </trkpt>
      <trkpt lat="43.65941" lon="3.33529">
        <ele>142.5</ele>
        <time>2024-08-06T07:50:05Z</time>
      </trkpt>
      <trkpt lat="43.65943" lon="3.3353">
        <ele>142.7</ele>
        <time>2024-08-06T07:50:06Z</time>
      </trkpt>
      <trkpt lat="43.65947" lon="3.3353">
        <ele>143.2</ele>
        <time>2024-08-06T07:50:07Z</time>
      </trkpt>
      <trkpt lat="43.6595" lon="3.3353">
        <ele>143.6</ele>
        <time>2024-08-06T07:50:08Z</time>
      </trkpt>
      <trkpt lat="43.65952" lon="3.33529">
        <ele>144</ele>
        <time>2024-08-06T07:50:09Z</time>
      </trkpt>
      <trkpt lat="43.65955" lon="3.33527">
        <ele>144.6</ele>
        <time>2024-08-06T07:50:10Z</time>
      </trkpt>
      <trkpt lat="43.65957" lon="3.33525">
        <ele>145.1</ele>
        <time>2024-08-06T07:50:11Z</time>
      </trkpt>
      <trkpt lat="43.65959" lon="3.33523">
        <ele>145.5</ele>
        <time>2024-08-06T07:50:12Z</time>
      </trkpt>
      <trkpt lat="43.6596" lon="3.33522">
        <ele>145.8</ele>
        <time>2024-08-06T07:50:13Z</time>
      </trkpt>
      <trkpt lat="43.65963" lon="3.3352">
        <ele>146.4</ele>
        <time>2024-08-06T07:50:14Z</time>
      </trkpt>
      <trkpt lat="43.65965" lon="3.33519">
        <ele>146.8</ele>
        <time>2024-08-06T07:50:15Z</time>
      </trkpt>
      <trkpt lat="43.65967" lon="3.33518">
        <ele>147.2</ele>
        <time>2024-08-06T07:50:16Z</time>
      </trkpt>
      <trkpt lat="43.6597" lon="3.33519">
        <ele>147.6</ele>
        <time>2024-08-06T07:50:17Z</time>
      </trkpt>
      <trkpt lat="43.65973" lon="3.3352">
        <ele>147.9</ele>
        <time>2024-08-06T07:50:18Z</time>
      </trkpt>
      <trkpt lat="43.65975" lon="3.33522">
        <ele>147.9</ele>
        <time>2024-08-06T07:50:19Z</time>
      </trkpt>
      <trkpt lat="43.65978" lon="3.33523">
        <ele>148.1</ele>
        <time>2024-08-06T07:50:20Z</time>
      </trkpt>
      <trkpt lat="43.6598" lon="3.33524">
        <ele>148.2</ele>
        <time>2024-08-06T07:50:21Z</time>
      </trkpt>
      <trkpt lat="43.65983" lon="3.33525">
        <ele>148.4</ele>
        <time>2024-08-06T07:50:22Z</time>
      </trkpt>
      <trkpt lat="43.65985" lon="3.33526">
        <ele>148.5</ele>
        <time>2024-08-06T07:50:23Z</time>
      </trkpt>
      <trkpt lat="43.65987" lon="3.33527">
        <ele>148.7</ele>
        <time>2024-08-06T07:50:24Z</time>
      </trkpt>
      <trkpt lat="43.65989" lon="3.33528">
        <ele>148.8</ele>
        <time>2024-08-06T07:50:25Z</time>
      </trkpt>
      <trkpt lat="43.6599" lon="3.33529">
        <ele>148.8</ele>
        <time>2024-08-06T07:50:26Z</time>
      </trkpt>
      <trkpt lat="43.65992" lon="3.33529">
        <ele>149</ele>
        <time>2024-08-06T07:50:27Z</time>
      </trkpt>
      <trkpt lat="43.65995" lon="3.3353">
        <ele>149.2</ele>
        <time>2024-08-06T07:50:28Z</time>
      </trkpt>
      <trkpt lat="43.65997" lon="3.33531">
        <ele>149.3</ele>
        <time>2024-08-06T07:50:29Z</time>
      </trkpt>
      <trkpt lat="43.65999" lon="3.33532">
        <ele>149.4</ele>
        <time>2024-08-06T07:50:30Z</time>
      </trkpt>
      <trkpt lat="43.66001" lon="3.33532">
        <ele>149.6</ele>
        <time>2024-08-06T07:50:31Z</time>
      </trkpt>
      <trkpt lat="43.66003" lon="3.33533">
        <ele>149.6</ele>
        <time>2024-08-06T07:50:32Z</time>
      </trkpt>
      <trkpt lat="43.66005" lon="3.33534">
        <ele>149.6</ele>
        <time>2024-08-06T07:50:33Z</time>
      </trkpt>
      <trkpt lat="43.66007" lon="3.33535">
        <ele>149.7</ele>
        <time>2024-08-06T07:50:34Z</time>
      </trkpt>
      <trkpt lat="43.66009" lon="3.33536">
        <ele>149.7</ele>
        <time>2024-08-06T07:50:35Z</time>
      </trkpt>
      <trkpt lat="43.66011" lon="3.33537">
        <ele>149.7</ele>
        <time>2024-08-06T07:50:36Z</time>
      </trkpt>
      <trkpt lat="43.66013" lon="3.33538">
        <ele>149.7</ele>
        <time>2024-08-06T07:50:37Z</time>
      </trkpt>
      <trkpt lat="43.66015" lon="3.33538">
        <ele>149.8</ele>
        <time>2024-08-06T07:50:38Z</time>
      </trkpt>
      <trkpt lat="43.66018" lon="3.33537">
        <ele>150.1</ele>
        <time>2024-08-06T07:50:39Z</time>
      </trkpt>
      <trkpt lat="43.6602" lon="3.33537">
        <ele>150.2</ele>
        <time>2024-08-06T07:50:40Z</time>
      </trkpt>
      <trkpt lat="43.66022" lon="3.33536">
        <ele>150.5</ele>
        <time>2024-08-06T07:50:41Z</time>
      </trkpt>
      <trkpt lat="43.66024" lon="3.33536">
        <ele>150.6</ele>
        <time>2024-08-06T07:50:42Z</time>
      </trkpt>
      <trkpt lat="43.66026" lon="3.33535">
        <ele>150.8</ele>
        <time>2024-08-06T07:50:43Z</time>
      </trkpt>
      <trkpt lat="43.66029" lon="3.33535">
        <ele>151.1</ele>
        <time>2024-08-06T07:50:44Z</time>
      </trkpt>
      <trkpt lat="43.66032" lon="3.33535">
        <ele>151.4</ele>
        <time>2024-08-06T07:50:45Z</time>
      </trkpt>
      <trkpt lat="43.66035" lon="3.33535">
        <ele>151.7</ele>
        <time>2024-08-06T07:50:46Z</time>
      </trkpt>
      <trkpt lat="43.66039" lon="3.33536">
        <ele>151.9</ele>
        <time>2024-08-06T07:50:47Z</time>
      </trkpt>
      <trkpt lat="43.66042" lon="3.33538">
        <ele>151.9</ele>
        <time>2024-08-06T07:50:48Z</time>
      </trkpt>
      <trkpt lat="43.66044" lon="3.3354">
        <ele>151.7</ele>
        <time>2024-08-06T07:50:49Z</time>
      </trkpt>
      <trkpt lat="43.66046" lon="3.33542">
        <ele>151.6</ele>
        <time>2024-08-06T07:50:50Z</time>
      </trkpt>
      <trkpt lat="43.66048" lon="3.33544">
        <ele>151.4</ele>
        <time>2024-08-06T07:50:51Z</time>
      </trkpt>
      <trkpt lat="43.6605" lon="3.33546">
        <ele>151.3</ele>
        <time>2024-08-06T07:50:52Z</time>
      </trkpt>
      <trkpt lat="43.66053" lon="3.33547">
        <ele>151.3</ele>
        <time>2024-08-06T07:50:53Z</time>
      </trkpt>
      <trkpt lat="43.66055" lon="3.33549">
        <ele>151.1</ele>
        <time>2024-08-06T07:50:54Z</time>
      </trkpt>
      <trkpt lat="43.66058" lon="3.3355">
        <ele>151.3</ele>
        <time>2024-08-06T07:50:55Z</time>
      </trkpt>
      <trkpt lat="43.66061" lon="3.33551">
        <ele>151.4</ele>
        <time>2024-08-06T07:50:56Z</time>
      </trkpt>
      <trkpt lat="43.66063" lon="3.33552">
        <ele>151.5</ele>
        <time>2024-08-06T07:50:57Z</time>
      </trkpt>
      <trkpt lat="43.66066" lon="3.33554">
        <ele>151.4</ele>
        <time>2024-08-06T07:50:58Z</time>
      </trkpt>
      <trkpt lat="43.66069" lon="3.33555">
        <ele>151.6</ele>
        <time>2024-08-06T07:50:59Z</time>
      </trkpt>
      <trkpt lat="43.66071" lon="3.33555">
        <ele>151.8</ele>
        <time>2024-08-06T07:51:00Z</time>
      </trkpt>
      <trkpt lat="43.66074" lon="3.33555">
        <ele>152.1</ele>
        <time>2024-08-06T07:51:01Z</time>
      </trkpt>
      <trkpt lat="43.66076" lon="3.33556">
        <ele>152.1</ele>
        <time>2024-08-06T07:51:02Z</time>
      </trkpt>
      <trkpt lat="43.66079" lon="3.33556">
        <ele>152.4</ele>
        <time>2024-08-06T07:51:03Z</time>
      </trkpt>
      <trkpt lat="43.66081" lon="3.33556">
        <ele>152.7</ele>
        <time>2024-08-06T07:51:04Z</time>
      </trkpt>
      <trkpt lat="43.66083" lon="3.33557">
        <ele>152.7</ele>
        <time>2024-08-06T07:51:05Z</time>
      </trkpt>
      <trkpt lat="43.66086" lon="3.33557">
        <ele>152.8</ele>
        <time>2024-08-06T07:51:06Z</time>
      </trkpt>
      <trkpt lat="43.66089" lon="3.33557">
        <ele>152.9</ele>
        <time>2024-08-06T07:51:07Z</time>
      </trkpt>
      <trkpt lat="43.66092" lon="3.33558">
        <ele>152.9</ele>
        <time>2024-08-06T07:51:08Z</time>
      </trkpt>
      <trkpt lat="43.66095" lon="3.33558">
        <ele>153</ele>
        <time>2024-08-06T07:51:09Z</time>
      </trkpt>
      <trkpt lat="43.66098" lon="3.33559">
        <ele>153</ele>
        <time>2024-08-06T07:51:10Z</time>
      </trkpt>
      <trkpt lat="43.66101" lon="3.33559">
        <ele>153.1</ele>
        <time>2024-08-06T07:51:11Z</time>
      </trkpt>
      <trkpt lat="43.66104" lon="3.3356">
        <ele>153.1</ele>
        <time>2024-08-06T07:51:12Z</time>
      </trkpt>
      <trkpt lat="43.66106" lon="3.3356">
        <ele>153.2</ele>
        <time>2024-08-06T07:51:13Z</time>
      </trkpt>
      <trkpt lat="43.66109" lon="3.3356">
        <ele>153.4</ele>
        <time>2024-08-06T07:51:14Z</time>
      </trkpt>
      <trkpt lat="43.66111" lon="3.33561">
        <ele>153.4</ele>
        <time>2024-08-06T07:51:15Z</time>
      </trkpt>
      <trkpt lat="43.66114" lon="3.33561">
        <ele>153.8</ele>
        <time>2024-08-06T07:51:16Z</time>
      </trkpt>
      <trkpt lat="43.66117" lon="3.33563">
        <ele>154.1</ele>
        <time>2024-08-06T07:51:17Z</time>
      </trkpt>
      <trkpt lat="43.6612" lon="3.33565">
        <ele>154.4</ele>
        <time>2024-08-06T07:51:18Z</time>
      </trkpt>
      <trkpt lat="43.66123" lon="3.33569">
        <ele>154.5</ele>
        <time>2024-08-06T07:51:19Z</time>
      </trkpt>
      <trkpt lat="43.66124" lon="3.33573">
        <ele>154.3</ele>
        <time>2024-08-06T07:51:20Z</time>
      </trkpt>
      <trkpt lat="43.66125" lon="3.33576">
        <ele>154.2</ele>
        <time>2024-08-06T07:51:21Z</time>
      </trkpt>
      <trkpt lat="43.66126" lon="3.3358">
        <ele>154</ele>
        <time>2024-08-06T07:51:22Z</time>
      </trkpt>
      <trkpt lat="43.66127" lon="3.33584">
        <ele>153.8</ele>
        <time>2024-08-06T07:51:23Z</time>
      </trkpt>
      <trkpt lat="43.66128" lon="3.33588">
        <ele>153.7</ele>
        <time>2024-08-06T07:51:24Z</time>
      </trkpt>
      <trkpt lat="43.66129" lon="3.33591">
        <ele>153.6</ele>
        <time>2024-08-06T07:51:25Z</time>
      </trkpt>
      <trkpt lat="43.6613" lon="3.33594">
        <ele>153.5</ele>
        <time>2024-08-06T07:51:26Z</time>
      </trkpt>
      <trkpt lat="43.66132" lon="3.33597">
        <ele>153.5</ele>
        <time>2024-08-06T07:51:27Z</time>
      </trkpt>
      <trkpt lat="43.66134" lon="3.33599">
        <ele>153.6</ele>
        <time>2024-08-06T07:51:28Z</time>
      </trkpt>
      <trkpt lat="43.66136" lon="3.33602">
        <ele>153.6</ele>
        <time>2024-08-06T07:51:29Z</time>
      </trkpt>
      <trkpt lat="43.66138" lon="3.33605">
        <ele>153.5</ele>
        <time>2024-08-06T07:51:30Z</time>
      </trkpt>
      <trkpt lat="43.6614" lon="3.33607">
        <ele>153.6</ele>
        <time>2024-08-06T07:51:31Z</time>
      </trkpt>
      <trkpt lat="43.66143" lon="3.33608">
        <ele>153.9</ele>
        <time>2024-08-06T07:51:32Z</time>
      </trkpt>
      <trkpt lat="43.66146" lon="3.33609">
        <ele>154.3</ele>
        <time>2024-08-06T07:51:33Z</time>
      </trkpt>
      <trkpt lat="43.66148" lon="3.33609">
        <ele>154.5</ele>
        <time>2024-08-06T07:51:34Z</time>
      </trkpt>
      <trkpt lat="43.66151" lon="3.33609">
        <ele>155</ele>
        <time>2024-08-06T07:51:35Z</time>
      </trkpt>
      <trkpt lat="43.66155" lon="3.33609">
        <ele>155.5</ele>
        <time>2024-08-06T07:51:36Z</time>
      </trkpt>
      <trkpt lat="43.66158" lon="3.33609">
        <ele>156</ele>
        <time>2024-08-06T07:51:37Z</time>
      </trkpt>
      <trkpt lat="43.6616" lon="3.3361">
        <ele>156.2</ele>
        <time>2024-08-06T07:51:38Z</time>
      </trkpt>
      <trkpt lat="43.66163" lon="3.3361">
        <ele>156.6</ele>
        <time>2024-08-06T07:51:39Z</time>
      </trkpt>
      <trkpt lat="43.66166" lon="3.3361">
        <ele>157</ele>
        <time>2024-08-06T07:51:40Z</time>
      </trkpt>
      <trkpt lat="43.66169" lon="3.3361">
        <ele>157.1</ele>
        <time>2024-08-06T07:51:41Z</time>
      </trkpt>
      <trkpt lat="43.66172" lon="3.3361">
        <ele>157.1</ele>
        <time>2024-08-06T07:51:42Z</time>
      </trkpt>
      <trkpt lat="43.66175" lon="3.33611">
        <ele>157</ele>
        <time>2024-08-06T07:51:43Z</time>
      </trkpt>
      <trkpt lat="43.66178" lon="3.3361">
        <ele>157.1</ele>
        <time>2024-08-06T07:51:44Z</time>
      </trkpt>
      <trkpt lat="43.66181" lon="3.3361">
        <ele>157.1</ele>
        <time>2024-08-06T07:51:45Z</time>
      </trkpt>
      <trkpt lat="43.66184" lon="3.3361">
        <ele>157.1</ele>
        <time>2024-08-06T07:51:46Z</time>
      </trkpt>
      <trkpt lat="43.66187" lon="3.3361">
        <ele>157.1</ele>
        <time>2024-08-06T07:51:47Z</time>
      </trkpt>
      <trkpt lat="43.6619" lon="3.3361">
        <ele>157.2</ele>
        <time>2024-08-06T07:51:48Z</time>
      </trkpt>
      <trkpt lat="43.66193" lon="3.3361">
        <ele>157.2</ele>
        <time>2024-08-06T07:51:49Z</time>
      </trkpt>
      <trkpt lat="43.66196" lon="3.3361">
        <ele>157.2</ele>
        <time>2024-08-06T07:51:50Z</time>
      </trkpt>
      <trkpt lat="43.662" lon="3.3361">
        <ele>157.2</ele>
        <time>2024-08-06T07:51:51Z</time>
      </trkpt>
      <trkpt lat="43.66205" lon="3.33611">
        <ele>157</ele>
        <time>2024-08-06T07:51:52Z</time>
      </trkpt>
      <trkpt lat="43.66212" lon="3.33613">
        <ele>156.8</ele>
        <time>2024-08-06T07:51:53Z</time>
      </trkpt>
      <trkpt lat="43.66218" lon="3.33616">
        <ele>156.6</ele>
        <time>2024-08-06T07:51:54Z</time>
      </trkpt>
      <trkpt lat="43.66224" lon="3.33619">
        <ele>156.6</ele>
        <time>2024-08-06T07:51:55Z</time>
      </trkpt>
      <trkpt lat="43.66229" lon="3.33621">
        <ele>156.8</ele>
        <time>2024-08-06T07:51:56Z</time>
      </trkpt>
      <trkpt lat="43.66233" lon="3.33622">
        <ele>157</ele>
        <time>2024-08-06T07:51:57Z</time>
      </trkpt>
      <trkpt lat="43.66238" lon="3.33622">
        <ele>157.4</ele>
        <time>2024-08-06T07:51:58Z</time>
      </trkpt>
      <trkpt lat="43.66242" lon="3.33622">
        <ele>157.6</ele>
        <time>2024-08-06T07:51:59Z</time>
      </trkpt>
      <trkpt lat="43.66246" lon="3.33622">
        <ele>157.9</ele>
        <time>2024-08-06T07:52:00Z</time>
      </trkpt>
      <trkpt lat="43.66249" lon="3.33622">
        <ele>158.1</ele>
        <time>2024-08-06T07:52:01Z</time>
      </trkpt>
      <trkpt lat="43.66253" lon="3.33622">
        <ele>158.4</ele>
        <time>2024-08-06T07:52:02Z</time>
      </trkpt>
      <trkpt lat="43.66256" lon="3.33621">
        <ele>158.6</ele>
        <time>2024-08-06T07:52:03Z</time>
      </trkpt>
      <trkpt lat="43.66261" lon="3.33621">
        <ele>158.9</ele>
        <time>2024-08-06T07:52:04Z</time>
      </trkpt>
      <trkpt lat="43.66265" lon="3.33621">
        <ele>159.2</ele>
        <time>2024-08-06T07:52:05Z</time>
      </trkpt>
      <trkpt lat="43.66269" lon="3.33621">
        <ele>159.4</ele>
        <time>2024-08-06T07:52:06Z</time>
      </trkpt>
      <trkpt lat="43.66274" lon="3.33622">
        <ele>159.6</ele>
        <time>2024-08-06T07:52:07Z</time>
      </trkpt>
      <trkpt lat="43.66278" lon="3.33622">
        <ele>159.8</ele>
        <time>2024-08-06T07:52:08Z</time>
      </trkpt>
      <trkpt lat="43.66283" lon="3.33622">
        <ele>160.1</ele>
        <time>2024-08-06T07:52:09Z</time>
      </trkpt>
      <trkpt lat="43.66287" lon="3.33622">
        <ele>160.4</ele>
        <time>2024-08-06T07:52:10Z</time>
      </trkpt>
      <trkpt lat="43.6629" lon="3.33622">
        <ele>160.5</ele>
        <time>2024-08-06T07:52:11Z</time>
      </trkpt>
      <trkpt lat="43.66294" lon="3.33622">
        <ele>160.8</ele>
        <time>2024-08-06T07:52:12Z</time>
      </trkpt>
      <trkpt lat="43.66298" lon="3.33622">
        <ele>161</ele>
        <time>2024-08-06T07:52:13Z</time>
      </trkpt>
      <trkpt lat="43.66303" lon="3.33622">
        <ele>161.3</ele>
        <time>2024-08-06T07:52:14Z</time>
      </trkpt>
      <trkpt lat="43.66307" lon="3.33622">
        <ele>161.4</ele>
        <time>2024-08-06T07:52:15Z</time>
      </trkpt>
      <trkpt lat="43.66311" lon="3.33622">
        <ele>161.4</ele>
        <time>2024-08-06T07:52:16Z</time>
      </trkpt>
      <trkpt lat="43.66315" lon="3.33622">
        <ele>161.4</ele>
        <time>2024-08-06T07:52:17Z</time>
      </trkpt>
      <trkpt lat="43.66319" lon="3.33621">
        <ele>161.6</ele>
        <time>2024-08-06T07:52:18Z</time>
      </trkpt>
      <trkpt lat="43.66323" lon="3.33621">
        <ele>161.6</ele>
        <time>2024-08-06T07:52:19Z</time>
      </trkpt>
      <trkpt lat="43.66326" lon="3.33621">
        <ele>161.6</ele>
        <time>2024-08-06T07:52:20Z</time>
      </trkpt>
      <trkpt lat="43.6633" lon="3.3362">
        <ele>161.7</ele>
        <time>2024-08-06T07:52:21Z</time>
      </trkpt>
      <trkpt lat="43.66333" lon="3.3362">
        <ele>161.7</ele>
        <time>2024-08-06T07:52:22Z</time>
      </trkpt>
      <trkpt lat="43.66337" lon="3.33619">
        <ele>161.7</ele>
        <time>2024-08-06T07:52:23Z</time>
      </trkpt>
      <trkpt lat="43.66341" lon="3.33618">
        <ele>161.7</ele>
        <time>2024-08-06T07:52:24Z</time>
      </trkpt>
      <trkpt lat="43.66345" lon="3.33616">
        <ele>161.9</ele>
        <time>2024-08-06T07:52:25Z</time>
      </trkpt>
      <trkpt lat="43.66348" lon="3.33615">
        <ele>161.9</ele>
        <time>2024-08-06T07:52:26Z</time>
      </trkpt>
      <trkpt lat="43.66352" lon="3.33614">
        <ele>161.9</ele>
        <time>2024-08-06T07:52:27Z</time>
      </trkpt>
      <trkpt lat="43.66355" lon="3.33613">
        <ele>161.9</ele>
        <time>2024-08-06T07:52:28Z</time>
      </trkpt>
      <trkpt lat="43.66359" lon="3.33613">
        <ele>161.8</ele>
        <time>2024-08-06T07:52:29Z</time>
      </trkpt>
      <trkpt lat="43.66363" lon="3.33612">
        <ele>161.8</ele>
        <time>2024-08-06T07:52:30Z</time>
      </trkpt>
      <trkpt lat="43.66366" lon="3.33611">
        <ele>161.8</ele>
        <time>2024-08-06T07:52:31Z</time>
      </trkpt>
      <trkpt lat="43.66369" lon="3.33609">
        <ele>162</ele>
        <time>2024-08-06T07:52:32Z</time>
      </trkpt>
      <trkpt lat="43.66372" lon="3.33608">
        <ele>162.1</ele>
        <time>2024-08-06T07:52:33Z</time>
      </trkpt>
      <trkpt lat="43.66375" lon="3.33608">
        <ele>162</ele>
        <time>2024-08-06T07:52:34Z</time>
      </trkpt>
      <trkpt lat="43.66378" lon="3.33607">
        <ele>162.1</ele>
        <time>2024-08-06T07:52:35Z</time>
      </trkpt>
      <trkpt lat="43.66381" lon="3.33605">
        <ele>162.3</ele>
        <time>2024-08-06T07:52:36Z</time>
      </trkpt>
      <trkpt lat="43.66384" lon="3.33604">
        <ele>162.4</ele>
        <time>2024-08-06T07:52:37Z</time>
      </trkpt>
      <trkpt lat="43.66387" lon="3.33602">
        <ele>162.7</ele>
        <time>2024-08-06T07:52:38Z</time>
      </trkpt>
      <trkpt lat="43.66391" lon="3.33601">
        <ele>162.9</ele>
        <time>2024-08-06T07:52:39Z</time>
      </trkpt>
      <trkpt lat="43.66394" lon="3.33602">
        <ele>162.8</ele>
        <time>2024-08-06T07:52:40Z</time>
      </trkpt>
      <trkpt lat="43.66398" lon="3.33602">
        <ele>162.9</ele>
        <time>2024-08-06T07:52:41Z</time>
      </trkpt>
      <trkpt lat="43.66402" lon="3.33601">
        <ele>163.1</ele>
        <time>2024-08-06T07:52:42Z</time>
      </trkpt>
      <trkpt lat="43.66406" lon="3.33601">
        <ele>163.2</ele>
        <time>2024-08-06T07:52:43Z</time>
      </trkpt>
      <trkpt lat="43.66411" lon="3.33601">
        <ele>163.3</ele>
        <time>2024-08-06T07:52:44Z</time>
      </trkpt>
      <trkpt lat="43.66415" lon="3.336">
        <ele>163.6</ele>
        <time>2024-08-06T07:52:45Z</time>
      </trkpt>
      <trkpt lat="43.66419" lon="3.336">
        <ele>163.8</ele>
        <time>2024-08-06T07:52:46Z</time>
      </trkpt>
      <trkpt lat="43.66423" lon="3.33599">
        <ele>164.2</ele>
        <time>2024-08-06T07:52:47Z</time>
      </trkpt>
      <trkpt lat="43.66426" lon="3.33598">
        <ele>164.6</ele>
        <time>2024-08-06T07:52:48Z</time>
      </trkpt>
      <trkpt lat="43.6643" lon="3.33597">
        <ele>165</ele>
        <time>2024-08-06T07:52:49Z</time>
      </trkpt>
      <trkpt lat="43.66433" lon="3.33596">
        <ele>165.4</ele>
        <time>2024-08-06T07:52:50Z</time>
      </trkpt>
      <trkpt lat="43.66437" lon="3.33595">
        <ele>165.8</ele>
        <time>2024-08-06T07:52:51Z</time>
      </trkpt>
      <trkpt lat="43.6644" lon="3.33594">
        <ele>166.1</ele>
        <time>2024-08-06T07:52:52Z</time>
      </trkpt>
      <trkpt lat="43.66443" lon="3.33593">
        <ele>166.5</ele>
        <time>2024-08-06T07:52:53Z</time>
      </trkpt>
      <trkpt lat="43.66447" lon="3.33592">
        <ele>166.9</ele>
        <time>2024-08-06T07:52:54Z</time>
      </trkpt>
      <trkpt lat="43.6645" lon="3.33591">
        <ele>167.2</ele>
        <time>2024-08-06T07:52:55Z</time>
      </trkpt>
      <trkpt lat="43.66453" lon="3.3359">
        <ele>167.4</ele>
        <time>2024-08-06T07:52:56Z</time>
      </trkpt>
      <trkpt lat="43.66456" lon="3.33589">
        <ele>167.7</ele>
        <time>2024-08-06T07:52:57Z</time>
      </trkpt>
      <trkpt lat="43.66459" lon="3.33587">
        <ele>168.1</ele>
        <time>2024-08-06T07:52:58Z</time>
      </trkpt>
      <trkpt lat="43.66462" lon="3.33586">
        <ele>168.3</ele>
        <time>2024-08-06T07:52:59Z</time>
      </trkpt>
      <trkpt lat="43.66466" lon="3.33585">
        <ele>168.6</ele>
        <time>2024-08-06T07:53:00Z</time>
      </trkpt>
      <trkpt lat="43.66469" lon="3.33584">
        <ele>168.8</ele>
        <time>2024-08-06T07:53:01Z</time>
      </trkpt>
      <trkpt lat="43.66473" lon="3.33584">
        <ele>168.9</ele>
        <time>2024-08-06T07:53:02Z</time>
      </trkpt>
      <trkpt lat="43.66476" lon="3.33584">
        <ele>168.9</ele>
        <time>2024-08-06T07:53:03Z</time>
      </trkpt>
      <trkpt lat="43.6648" lon="3.33584">
        <ele>168.9</ele>
        <time>2024-08-06T07:53:04Z</time>
      </trkpt>
      <trkpt lat="43.66483" lon="3.33584">
        <ele>168.9</ele>
        <time>2024-08-06T07:53:05Z</time>
      </trkpt>
      <trkpt lat="43.66486" lon="3.33585">
        <ele>168.8</ele>
        <time>2024-08-06T07:53:06Z</time>
      </trkpt>
      <trkpt lat="43.66489" lon="3.33586">
        <ele>168.7</ele>
        <time>2024-08-06T07:53:07Z</time>
      </trkpt>
      <trkpt lat="43.66493" lon="3.33587">
        <ele>168.6</ele>
        <time>2024-08-06T07:53:08Z</time>
      </trkpt>
      <trkpt lat="43.66496" lon="3.33587">
        <ele>168.6</ele>
        <time>2024-08-06T07:53:09Z</time>
      </trkpt>
      <trkpt lat="43.66499" lon="3.33588">
        <ele>168.5</ele>
        <time>2024-08-06T07:53:10Z</time>
      </trkpt>
      <trkpt lat="43.66503" lon="3.33588">
        <ele>168</ele>
        <time>2024-08-06T07:53:11Z</time>
      </trkpt>
      <trkpt lat="43.66506" lon="3.33588">
        <ele>167.5</ele>
        <time>2024-08-06T07:53:12Z</time>
      </trkpt>
      <trkpt lat="43.66509" lon="3.33586">
        <ele>167.2</ele>
        <time>2024-08-06T07:53:13Z</time>
      </trkpt>
      <trkpt lat="43.66511" lon="3.33583">
        <ele>167.1</ele>
        <time>2024-08-06T07:53:14Z</time>
      </trkpt>
      <trkpt lat="43.66513" lon="3.33579">
        <ele>167.4</ele>
        <time>2024-08-06T07:53:15Z</time>
      </trkpt>
      <trkpt lat="43.66515" lon="3.33573">
        <ele>168.2</ele>
        <time>2024-08-06T07:53:16Z</time>
      </trkpt>
      <trkpt lat="43.66515" lon="3.33567">
        <ele>169.3</ele>
        <time>2024-08-06T07:53:17Z</time>
      </trkpt>
      <trkpt lat="43.66513" lon="3.33563">
        <ele>170.3</ele>
        <time>2024-08-06T07:53:18Z</time>
      </trkpt>
      <trkpt lat="43.6651" lon="3.33561">
        <ele>171</ele>
        <time>2024-08-06T07:53:19Z</time>
      </trkpt>
      <trkpt lat="43.66506" lon="3.33558">
        <ele>172</ele>
        <time>2024-08-06T07:53:20Z</time>
      </trkpt>
      <trkpt lat="43.66504" lon="3.33556">
        <ele>172.5</ele>
        <time>2024-08-06T07:53:21Z</time>
      </trkpt>
      <trkpt lat="43.66501" lon="3.33554">
        <ele>173.1</ele>
        <time>2024-08-06T07:53:22Z</time>
      </trkpt>
      <trkpt lat="43.66499" lon="3.33551">
        <ele>173.7</ele>
        <time>2024-08-06T07:53:23Z</time>
      </trkpt>
      <trkpt lat="43.66496" lon="3.3355">
        <ele>173.8</ele>
        <time>2024-08-06T07:53:24Z</time>
      </trkpt>
      <trkpt lat="43.66494" lon="3.33548">
        <ele>174.1</ele>
        <time>2024-08-06T07:53:25Z</time>
      </trkpt>
      <trkpt lat="43.66493" lon="3.33546">
        <ele>174.5</ele>
        <time>2024-08-06T07:53:26Z</time>
      </trkpt>
      <trkpt lat="43.66491" lon="3.33544">
        <ele>174.8</ele>
        <time>2024-08-06T07:53:27Z</time>
      </trkpt>
      <trkpt lat="43.66489" lon="3.33542">
        <ele>175.1</ele>
        <time>2024-08-06T07:53:28Z</time>
      </trkpt>
      <trkpt lat="43.66488" lon="3.3354">
        <ele>175.5</ele>
        <time>2024-08-06T07:53:29Z</time>
      </trkpt>
      <trkpt lat="43.66488" lon="3.33538">
        <ele>175.8</ele>
        <time>2024-08-06T07:53:30Z</time>
      </trkpt>
      <trkpt lat="43.66487" lon="3.33536">
        <ele>176.1</ele>
        <time>2024-08-06T07:53:31Z</time>
      </trkpt>
      <trkpt lat="43.66488" lon="3.33533">
        <ele>176.6</ele>
        <time>2024-08-06T07:53:32Z</time>
      </trkpt>
      <trkpt lat="43.6649" lon="3.33531">
        <ele>176.9</ele>
        <time>2024-08-06T07:53:33Z</time>
      </trkpt>
      <trkpt lat="43.66492" lon="3.3353">
        <ele>176.9</ele>
        <time>2024-08-06T07:53:34Z</time>
      </trkpt>
      <trkpt lat="43.66494" lon="3.33528">
        <ele>177.2</ele>
        <time>2024-08-06T07:53:35Z</time>
      </trkpt>
      <trkpt lat="43.66497" lon="3.33528">
        <ele>177.1</ele>
        <time>2024-08-06T07:53:36Z</time>
      </trkpt>
      <trkpt lat="43.66499" lon="3.33526">
        <ele>177.4</ele>
        <time>2024-08-06T07:53:37Z</time>
      </trkpt>
      <trkpt lat="43.66502" lon="3.33525">
        <ele>177.3</ele>
        <time>2024-08-06T07:53:38Z</time>
      </trkpt>
      <trkpt lat="43.66505" lon="3.33524">
        <ele>177.3</ele>
        <time>2024-08-06T07:53:39Z</time>
      </trkpt>
      <trkpt lat="43.66508" lon="3.33522">
        <ele>177.4</ele>
        <time>2024-08-06T07:53:40Z</time>
      </trkpt>
      <trkpt lat="43.66511" lon="3.33521">
        <ele>177.3</ele>
        <time>2024-08-06T07:53:41Z</time>
      </trkpt>
      <trkpt lat="43.66514" lon="3.3352">
        <ele>177.3</ele>
        <time>2024-08-06T07:53:42Z</time>
      </trkpt>
      <trkpt lat="43.66517" lon="3.33519">
        <ele>177.2</ele>
        <time>2024-08-06T07:53:43Z</time>
      </trkpt>
      <trkpt lat="43.6652" lon="3.33519">
        <ele>176.9</ele>
        <time>2024-08-06T07:53:44Z</time>
      </trkpt>
      <trkpt lat="43.66523" lon="3.33518">
        <ele>176.8</ele>
        <time>2024-08-06T07:53:45Z</time>
      </trkpt>
      <trkpt lat="43.66527" lon="3.33517">
        <ele>176.6</ele>
        <time>2024-08-06T07:53:46Z</time>
      </trkpt>
      <trkpt lat="43.6653" lon="3.33517">
        <ele>176.5</ele>
        <time>2024-08-06T07:53:47Z</time>
      </trkpt>
      <trkpt lat="43.66534" lon="3.33517">
        <ele>176.4</ele>
        <time>2024-08-06T07:53:48Z</time>
      </trkpt>
      <trkpt lat="43.66537" lon="3.33516">
        <ele>176.5</ele>
        <time>2024-08-06T07:53:49Z</time>
      </trkpt>
      <trkpt lat="43.6654" lon="3.33517">
        <ele>176.2</ele>
        <time>2024-08-06T07:53:50Z</time>
      </trkpt>
      <trkpt lat="43.66543" lon="3.33517">
        <ele>176.1</ele>
        <time>2024-08-06T07:53:51Z</time>
      </trkpt>
      <trkpt lat="43.66546" lon="3.33517">
        <ele>176</ele>
        <time>2024-08-06T07:53:52Z</time>
      </trkpt>
      <trkpt lat="43.6655" lon="3.33518">
        <ele>175.7</ele>
        <time>2024-08-06T07:53:53Z</time>
      </trkpt>
      <trkpt lat="43.66553" lon="3.33519">
        <ele>175.3</ele>
        <time>2024-08-06T07:53:54Z</time>
      </trkpt>
      <trkpt lat="43.66556" lon="3.3352">
        <ele>175</ele>
        <time>2024-08-06T07:53:55Z</time>
      </trkpt>
      <trkpt lat="43.6656" lon="3.33521">
        <ele>175.4</ele>
        <time>2024-08-06T07:53:56Z</time>
      </trkpt>
      <trkpt lat="43.66563" lon="3.33522">
        <ele>175.7</ele>
        <time>2024-08-06T07:53:57Z</time>
      </trkpt>
      <trkpt lat="43.66567" lon="3.33524">
        <ele>175.9</ele>
        <time>2024-08-06T07:53:58Z</time>
      </trkpt>
      <trkpt lat="43.6657" lon="3.33525">
        <ele>176.2</ele>
        <time>2024-08-06T07:53:59Z</time>
      </trkpt>
      <trkpt lat="43.66573" lon="3.33528">
        <ele>176.1</ele>
        <time>2024-08-06T07:54:00Z</time>
      </trkpt>
      <trkpt lat="43.66576" lon="3.3353">
        <ele>176.2</ele>
        <time>2024-08-06T07:54:01Z</time>
      </trkpt>
      <trkpt lat="43.6658" lon="3.33532">
        <ele>176.6</ele>
        <time>2024-08-06T07:54:02Z</time>
      </trkpt>
      <trkpt lat="43.66583" lon="3.33534">
        <ele>176.8</ele>
        <time>2024-08-06T07:54:03Z</time>
      </trkpt>
      <trkpt lat="43.66586" lon="3.33536">
        <ele>176.9</ele>
        <time>2024-08-06T07:54:04Z</time>
      </trkpt>
      <trkpt lat="43.66589" lon="3.33538">
        <ele>177.1</ele>
        <time>2024-08-06T07:54:05Z</time>
      </trkpt>
      <trkpt lat="43.66592" lon="3.3354">
        <ele>177.2</ele>
        <time>2024-08-06T07:54:06Z</time>
      </trkpt>
      <trkpt lat="43.66595" lon="3.33542">
        <ele>177.3</ele>
        <time>2024-08-06T07:54:07Z</time>
      </trkpt>
      <trkpt lat="43.66598" lon="3.33544">
        <ele>177.5</ele>
        <time>2024-08-06T07:54:08Z</time>
      </trkpt>
      <trkpt lat="43.66601" lon="3.33546">
        <ele>177.7</ele>
        <time>2024-08-06T07:54:09Z</time>
      </trkpt>
      <trkpt lat="43.66604" lon="3.33548">
        <ele>177.9</ele>
        <time>2024-08-06T07:54:10Z</time>
      </trkpt>
      <trkpt lat="43.66608" lon="3.3355">
        <ele>178.3</ele>
        <time>2024-08-06T07:54:11Z</time>
      </trkpt>
      <trkpt lat="43.66611" lon="3.33552">
        <ele>178.5</ele>
        <time>2024-08-06T07:54:12Z</time>
      </trkpt>
      <trkpt lat="43.66614" lon="3.33554">
        <ele>178.5</ele>
        <time>2024-08-06T07:54:13Z</time>
      </trkpt>
      <trkpt lat="43.66617" lon="3.33556">
        <ele>178.6</ele>
        <time>2024-08-06T07:54:14Z</time>
      </trkpt>
      <trkpt lat="43.66621" lon="3.33558">
        <ele>178.8</ele>
        <time>2024-08-06T07:54:15Z</time>
      </trkpt>
      <trkpt lat="43.66624" lon="3.3356">
        <ele>178.9</ele>
        <time>2024-08-06T07:54:16Z</time>
      </trkpt>
      <trkpt lat="43.66628" lon="3.33562">
        <ele>179.1</ele>
        <time>2024-08-06T07:54:17Z</time>
      </trkpt>
      <trkpt lat="43.66631" lon="3.33565">
        <ele>179.1</ele>
        <time>2024-08-06T07:54:18Z</time>
      </trkpt>
      <trkpt lat="43.66635" lon="3.33567">
        <ele>179.3</ele>
        <time>2024-08-06T07:54:19Z</time>
      </trkpt>
      <trkpt lat="43.66638" lon="3.33569">
        <ele>179.5</ele>
        <time>2024-08-06T07:54:20Z</time>
      </trkpt>
      <trkpt lat="43.66642" lon="3.3357">
        <ele>179.4</ele>
        <time>2024-08-06T07:54:21Z</time>
      </trkpt>
      <trkpt lat="43.66645" lon="3.33572">
        <ele>179.1</ele>
        <time>2024-08-06T07:54:22Z</time>
      </trkpt>
      <trkpt lat="43.66649" lon="3.33573">
        <ele>178.9</ele>
        <time>2024-08-06T07:54:23Z</time>
      </trkpt>
      <trkpt lat="43.66652" lon="3.33574">
        <ele>178.7</ele>
        <time>2024-08-06T07:54:24Z</time>
      </trkpt>
      <trkpt lat="43.66656" lon="3.33576">
        <ele>178.3</ele>
        <time>2024-08-06T07:54:25Z</time>
      </trkpt>
      <trkpt lat="43.6666" lon="3.33577">
        <ele>178.1</ele>
        <time>2024-08-06T07:54:26Z</time>
      </trkpt>
      <trkpt lat="43.66663" lon="3.33578">
        <ele>177.9</ele>
        <time>2024-08-06T07:54:27Z</time>
      </trkpt>
      <trkpt lat="43.66667" lon="3.33579">
        <ele>177.6</ele>
        <time>2024-08-06T07:54:28Z</time>
      </trkpt>
      <trkpt lat="43.66671" lon="3.3358">
        <ele>177.5</ele>
        <time>2024-08-06T07:54:29Z</time>
      </trkpt>
      <trkpt lat="43.66674" lon="3.3358">
        <ele>177.5</ele>
        <time>2024-08-06T07:54:30Z</time>
      </trkpt>
      <trkpt lat="43.66678" lon="3.33581">
        <ele>177.3</ele>
        <time>2024-08-06T07:54:31Z</time>
      </trkpt>
      <trkpt lat="43.66682" lon="3.33581">
        <ele>177.3</ele>
        <time>2024-08-06T07:54:32Z</time>
      </trkpt>
      <trkpt lat="43.66686" lon="3.33582">
        <ele>177.2</ele>
        <time>2024-08-06T07:54:33Z</time>
      </trkpt>
      <trkpt lat="43.66689" lon="3.33582">
        <ele>177.2</ele>
        <time>2024-08-06T07:54:34Z</time>
      </trkpt>
      <trkpt lat="43.66693" lon="3.33582">
        <ele>177.2</ele>
        <time>2024-08-06T07:54:35Z</time>
      </trkpt>
      <trkpt lat="43.66697" lon="3.33582">
        <ele>177.3</ele>
        <time>2024-08-06T07:54:36Z</time>
      </trkpt>
      <trkpt lat="43.667" lon="3.33582">
        <ele>177.4</ele>
        <time>2024-08-06T07:54:37Z</time>
      </trkpt>
      <trkpt lat="43.66704" lon="3.33582">
        <ele>177.5</ele>
        <time>2024-08-06T07:54:38Z</time>
      </trkpt>
      <trkpt lat="43.66708" lon="3.33582">
        <ele>177.7</ele>
        <time>2024-08-06T07:54:39Z</time>
      </trkpt>
      <trkpt lat="43.66712" lon="3.33582">
        <ele>177.8</ele>
        <time>2024-08-06T07:54:40Z</time>
      </trkpt>
      <trkpt lat="43.66716" lon="3.33581">
        <ele>178.1</ele>
        <time>2024-08-06T07:54:41Z</time>
      </trkpt>
      <trkpt lat="43.6672" lon="3.3358">
        <ele>178.4</ele>
        <time>2024-08-06T07:54:42Z</time>
      </trkpt>
      <trkpt lat="43.66724" lon="3.33579">
        <ele>178.8</ele>
        <time>2024-08-06T07:54:43Z</time>
      </trkpt>
      <trkpt lat="43.66727" lon="3.33578">
        <ele>179.2</ele>
        <time>2024-08-06T07:54:44Z</time>
      </trkpt>
      <trkpt lat="43.6673" lon="3.33578">
        <ele>179.5</ele>
        <time>2024-08-06T07:54:45Z</time>
      </trkpt>
      <trkpt lat="43.66734" lon="3.33577">
        <ele>180</ele>
        <time>2024-08-06T07:54:46Z</time>
      </trkpt>
      <trkpt lat="43.66737" lon="3.33576">
        <ele>180.4</ele>
        <time>2024-08-06T07:54:47Z</time>
      </trkpt>
      <trkpt lat="43.6674" lon="3.33574">
        <ele>180.8</ele>
        <time>2024-08-06T07:54:48Z</time>
      </trkpt>
      <trkpt lat="43.66743" lon="3.33573">
        <ele>181.2</ele>
        <time>2024-08-06T07:54:49Z</time>
      </trkpt>
      <trkpt lat="43.66746" lon="3.33572">
        <ele>181.5</ele>
        <time>2024-08-06T07:54:50Z</time>
      </trkpt>
      <trkpt lat="43.6675" lon="3.3357">
        <ele>182</ele>
        <time>2024-08-06T07:54:51Z</time>
      </trkpt>
      <trkpt lat="43.66753" lon="3.33569">
        <ele>182.1</ele>
        <time>2024-08-06T07:54:52Z</time>
      </trkpt>
      <trkpt lat="43.66756" lon="3.33567">
        <ele>182.4</ele>
        <time>2024-08-06T07:54:53Z</time>
      </trkpt>
      <trkpt lat="43.66759" lon="3.33566">
        <ele>182.5</ele>
        <time>2024-08-06T07:54:54Z</time>
      </trkpt>
      <trkpt lat="43.66762" lon="3.33564">
        <ele>182.7</ele>
        <time>2024-08-06T07:54:55Z</time>
      </trkpt>
      <trkpt lat="43.66764" lon="3.33565">
        <ele>182.7</ele>
        <time>2024-08-06T07:54:56Z</time>
      </trkpt>
      <trkpt lat="43.66768" lon="3.33566">
        <ele>182.7</ele>
        <time>2024-08-06T07:54:57Z</time>
      </trkpt>
      <trkpt lat="43.66771" lon="3.33567">
        <ele>182.8</ele>
        <time>2024-08-06T07:54:58Z</time>
      </trkpt>
      <trkpt lat="43.66774" lon="3.33568">
        <ele>182.9</ele>
        <time>2024-08-06T07:54:59Z</time>
      </trkpt>
      <trkpt lat="43.66778" lon="3.33569">
        <ele>183</ele>
        <time>2024-08-06T07:55:00Z</time>
      </trkpt>
      <trkpt lat="43.66781" lon="3.3357">
        <ele>183.2</ele>
        <time>2024-08-06T07:55:01Z</time>
      </trkpt>
      <trkpt lat="43.66784" lon="3.3357">
        <ele>183.3</ele>
        <time>2024-08-06T07:55:02Z</time>
      </trkpt>
      <trkpt lat="43.66788" lon="3.3357">
        <ele>183.6</ele>
        <time>2024-08-06T07:55:03Z</time>
      </trkpt>
      <trkpt lat="43.66791" lon="3.3357">
        <ele>183.7</ele>
        <time>2024-08-06T07:55:04Z</time>
      </trkpt>
      <trkpt lat="43.66795" lon="3.3357">
        <ele>183.9</ele>
        <time>2024-08-06T07:55:05Z</time>
      </trkpt>
      <trkpt lat="43.66798" lon="3.3357">
        <ele>184.1</ele>
        <time>2024-08-06T07:55:06Z</time>
      </trkpt>
      <trkpt lat="43.66802" lon="3.3357">
        <ele>184.3</ele>
        <time>2024-08-06T07:55:07Z</time>
      </trkpt>
      <trkpt lat="43.66806" lon="3.3357">
        <ele>184.6</ele>
        <time>2024-08-06T07:55:08Z</time>
      </trkpt>
      <trkpt lat="43.6681" lon="3.3357">
        <ele>184.8</ele>
        <time>2024-08-06T07:55:09Z</time>
      </trkpt>
      <trkpt lat="43.66814" lon="3.3357">
        <ele>185.1</ele>
        <time>2024-08-06T07:55:10Z</time>
      </trkpt>
      <trkpt lat="43.66818" lon="3.33569">
        <ele>185.4</ele>
        <time>2024-08-06T07:55:11Z</time>
      </trkpt>
      <trkpt lat="43.66822" lon="3.33568">
        <ele>185.6</ele>
        <time>2024-08-06T07:55:12Z</time>
      </trkpt>
      <trkpt lat="43.66826" lon="3.33566">
        <ele>185.8</ele>
        <time>2024-08-06T07:55:13Z</time>
      </trkpt>
      <trkpt lat="43.6683" lon="3.33564">
        <ele>186.1</ele>
        <time>2024-08-06T07:55:14Z</time>
      </trkpt>
      <trkpt lat="43.66834" lon="3.33563">
        <ele>186.3</ele>
        <time>2024-08-06T07:55:15Z</time>
      </trkpt>
      <trkpt lat="43.6684" lon="3.33562">
        <ele>186.5</ele>
        <time>2024-08-06T07:55:16Z</time>
      </trkpt>
      <trkpt lat="43.66845" lon="3.33561">
        <ele>186.7</ele>
        <time>2024-08-06T07:55:17Z</time>
      </trkpt>
      <trkpt lat="43.66849" lon="3.33561">
        <ele>186.9</ele>
        <time>2024-08-06T07:55:18Z</time>
      </trkpt>
      <trkpt lat="43.66853" lon="3.33561">
        <ele>187</ele>
        <time>2024-08-06T07:55:19Z</time>
      </trkpt>
      <trkpt lat="43.66857" lon="3.33561">
        <ele>187.2</ele>
        <time>2024-08-06T07:55:20Z</time>
      </trkpt>
      <trkpt lat="43.6686" lon="3.3356">
        <ele>187.3</ele>
        <time>2024-08-06T07:55:21Z</time>
      </trkpt>
      <trkpt lat="43.66864" lon="3.3356">
        <ele>187.3</ele>
        <time>2024-08-06T07:55:22Z</time>
      </trkpt>
      <trkpt lat="43.66868" lon="3.33561">
        <ele>187.4</ele>
        <time>2024-08-06T07:55:23Z</time>
      </trkpt>
      <trkpt lat="43.66872" lon="3.33561">
        <ele>187.5</ele>
        <time>2024-08-06T07:55:24Z</time>
      </trkpt>
      <trkpt lat="43.66876" lon="3.3356">
        <ele>187.4</ele>
        <time>2024-08-06T07:55:25Z</time>
      </trkpt>
      <trkpt lat="43.66879" lon="3.33559">
        <ele>187.3</ele>
        <time>2024-08-06T07:55:26Z</time>
      </trkpt>
      <trkpt lat="43.66882" lon="3.33557">
        <ele>187.1</ele>
        <time>2024-08-06T07:55:27Z</time>
      </trkpt>
      <trkpt lat="43.66885" lon="3.33556">
        <ele>187</ele>
        <time>2024-08-06T07:55:28Z</time>
      </trkpt>
      <trkpt lat="43.66888" lon="3.33555">
        <ele>186.9</ele>
        <time>2024-08-06T07:55:29Z</time>
      </trkpt>
      <trkpt lat="43.66891" lon="3.33555">
        <ele>186.8</ele>
        <time>2024-08-06T07:55:30Z</time>
      </trkpt>
      <trkpt lat="43.66894" lon="3.33555">
        <ele>186.7</ele>
        <time>2024-08-06T07:55:31Z</time>
      </trkpt>
      <trkpt lat="43.66897" lon="3.33555">
        <ele>186.6</ele>
        <time>2024-08-06T07:55:32Z</time>
      </trkpt>
      <trkpt lat="43.66899" lon="3.33553">
        <ele>186.2</ele>
        <time>2024-08-06T07:55:33Z</time>
      </trkpt>
      <trkpt lat="43.66902" lon="3.33552">
        <ele>186</ele>
        <time>2024-08-06T07:55:34Z</time>
      </trkpt>
      <trkpt lat="43.66904" lon="3.33552">
        <ele>185.9</ele>
        <time>2024-08-06T07:55:35Z</time>
      </trkpt>
      <trkpt lat="43.66907" lon="3.33551">
        <ele>185.6</ele>
        <time>2024-08-06T07:55:36Z</time>
      </trkpt>
      <trkpt lat="43.66909" lon="3.33551">
        <ele>185.5</ele>
        <time>2024-08-06T07:55:37Z</time>
      </trkpt>
      <trkpt lat="43.66912" lon="3.33551">
        <ele>185.4</ele>
        <time>2024-08-06T07:55:38Z</time>
      </trkpt>
      <trkpt lat="43.66914" lon="3.33551">
        <ele>185.3</ele>
        <time>2024-08-06T07:55:39Z</time>
      </trkpt>
      <trkpt lat="43.66917" lon="3.33551">
        <ele>185.2</ele>
        <time>2024-08-06T07:55:40Z</time>
      </trkpt>
      <trkpt lat="43.6692" lon="3.33552">
        <ele>185.2</ele>
        <time>2024-08-06T07:55:41Z</time>
      </trkpt>
      <trkpt lat="43.66923" lon="3.33553">
        <ele>185.3</ele>
        <time>2024-08-06T07:55:42Z</time>
      </trkpt>
      <trkpt lat="43.66927" lon="3.33552">
        <ele>185</ele>
        <time>2024-08-06T07:55:43Z</time>
      </trkpt>
      <trkpt lat="43.6693" lon="3.33552">
        <ele>184.9</ele>
        <time>2024-08-06T07:55:44Z</time>
      </trkpt>
      <trkpt lat="43.66932" lon="3.33552">
        <ele>184.8</ele>
        <time>2024-08-06T07:55:45Z</time>
      </trkpt>
      <trkpt lat="43.66935" lon="3.33552">
        <ele>184.7</ele>
        <time>2024-08-06T07:55:46Z</time>
      </trkpt>
      <trkpt lat="43.66938" lon="3.33553">
        <ele>184.8</ele>
        <time>2024-08-06T07:55:47Z</time>
      </trkpt>
      <trkpt lat="43.66941" lon="3.33553">
        <ele>184.7</ele>
        <time>2024-08-06T07:55:48Z</time>
      </trkpt>
      <trkpt lat="43.66944" lon="3.33553">
        <ele>184.6</ele>
        <time>2024-08-06T07:55:49Z</time>
      </trkpt>
      <trkpt lat="43.66947" lon="3.33553">
        <ele>184.5</ele>
        <time>2024-08-06T07:55:50Z</time>
      </trkpt>
      <trkpt lat="43.66951" lon="3.33554">
        <ele>184.7</ele>
        <time>2024-08-06T07:55:51Z</time>
      </trkpt>
      <trkpt lat="43.66954" lon="3.33555">
        <ele>184.9</ele>
        <time>2024-08-06T07:55:52Z</time>
      </trkpt>
      <trkpt lat="43.66956" lon="3.33556">
        <ele>185.1</ele>
        <time>2024-08-06T07:55:53Z</time>
      </trkpt>
      <trkpt lat="43.66959" lon="3.33557">
        <ele>185.3</ele>
        <time>2024-08-06T07:55:54Z</time>
      </trkpt>
      <trkpt lat="43.66962" lon="3.33556">
        <ele>185.1</ele>
        <time>2024-08-06T07:55:55Z</time>
      </trkpt>
      <trkpt lat="43.66964" lon="3.33555">
        <ele>184.9</ele>
        <time>2024-08-06T07:55:56Z</time>
      </trkpt>
      <trkpt lat="43.66966" lon="3.33555">
        <ele>184.9</ele>
        <time>2024-08-06T07:55:57Z</time>
      </trkpt>
      <trkpt lat="43.66969" lon="3.33555">
        <ele>184.9</ele>
        <time>2024-08-06T07:55:58Z</time>
      </trkpt>
      <trkpt lat="43.66971" lon="3.33555">
        <ele>184.9</ele>
        <time>2024-08-06T07:55:59Z</time>
      </trkpt>
      <trkpt lat="43.66974" lon="3.33554">
        <ele>184.6</ele>
        <time>2024-08-06T07:56:00Z</time>
      </trkpt>
      <trkpt lat="43.66977" lon="3.33554">
        <ele>184.5</ele>
        <time>2024-08-06T07:56:01Z</time>
      </trkpt>
      <trkpt lat="43.6698" lon="3.33553">
        <ele>184.2</ele>
        <time>2024-08-06T07:56:02Z</time>
      </trkpt>
      <trkpt lat="43.66983" lon="3.33551">
        <ele>183.8</ele>
        <time>2024-08-06T07:56:03Z</time>
      </trkpt>
      <trkpt lat="43.66987" lon="3.33548">
        <ele>183.1</ele>
        <time>2024-08-06T07:56:04Z</time>
      </trkpt>
      <trkpt lat="43.66991" lon="3.33545">
        <ele>182.6</ele>
        <time>2024-08-06T07:56:05Z</time>
      </trkpt>
      <trkpt lat="43.66995" lon="3.33543">
        <ele>182.2</ele>
        <time>2024-08-06T07:56:06Z</time>
      </trkpt>
      <trkpt lat="43.67" lon="3.3354">
        <ele>181.8</ele>
        <time>2024-08-06T07:56:07Z</time>
      </trkpt>
      <trkpt lat="43.67004" lon="3.33537">
        <ele>181</ele>
        <time>2024-08-06T07:56:08Z</time>
      </trkpt>
      <trkpt lat="43.67009" lon="3.33533">
        <ele>180</ele>
        <time>2024-08-06T07:56:09Z</time>
      </trkpt>
      <trkpt lat="43.67013" lon="3.33529">
        <ele>179.2</ele>
        <time>2024-08-06T07:56:10Z</time>
      </trkpt>
      <trkpt lat="43.67016" lon="3.33525">
        <ele>178.5</ele>
        <time>2024-08-06T07:56:11Z</time>
      </trkpt>
      <trkpt lat="43.67016" lon="3.33522">
        <ele>178.1</ele>
        <time>2024-08-06T07:56:12Z</time>
      </trkpt>
      <trkpt lat="43.67016" lon="3.3352">
        <ele>177.9</ele>
        <time>2024-08-06T07:56:13Z</time>
      </trkpt>
      <trkpt lat="43.67017" lon="3.33516">
        <ele>177.3</ele>
        <time>2024-08-06T07:56:14Z</time>
      </trkpt>
      <trkpt lat="43.67017" lon="3.33511">
        <ele>176.7</ele>
        <time>2024-08-06T07:56:15Z</time>
      </trkpt>
      <trkpt lat="43.67019" lon="3.33506">
        <ele>176</ele>
        <time>2024-08-06T07:56:16Z</time>
      </trkpt>
      <trkpt lat="43.67022" lon="3.33501">
        <ele>175.3</ele>
        <time>2024-08-06T07:56:17Z</time>
      </trkpt>
      <trkpt lat="43.67026" lon="3.33495">
        <ele>174.5</ele>
        <time>2024-08-06T07:56:18Z</time>
      </trkpt>
      <trkpt lat="43.67029" lon="3.33491">
        <ele>174</ele>
        <time>2024-08-06T07:56:19Z</time>
      </trkpt>
      <trkpt lat="43.67032" lon="3.33487">
        <ele>173.4</ele>
        <time>2024-08-06T07:56:20Z</time>
      </trkpt>
      <trkpt lat="43.67034" lon="3.33482">
        <ele>172.8</ele>
        <time>2024-08-06T07:56:21Z</time>
      </trkpt>
      <trkpt lat="43.67036" lon="3.33477">
        <ele>172.2</ele>
        <time>2024-08-06T07:56:22Z</time>
      </trkpt>
      <trkpt lat="43.67038" lon="3.33472">
        <ele>171.6</ele>
        <time>2024-08-06T07:56:23Z</time>
      </trkpt>
      <trkpt lat="43.67041" lon="3.33468">
        <ele>171.3</ele>
        <time>2024-08-06T07:56:24Z</time>
      </trkpt>
      <trkpt lat="43.67044" lon="3.33465">
        <ele>171</ele>
        <time>2024-08-06T07:56:25Z</time>
      </trkpt>
      <trkpt lat="43.67048" lon="3.33463">
        <ele>170.7</ele>
        <time>2024-08-06T07:56:26Z</time>
      </trkpt>
      <trkpt lat="43.67051" lon="3.33462">
        <ele>170.5</ele>
        <time>2024-08-06T07:56:27Z</time>
      </trkpt>
      <trkpt lat="43.67054" lon="3.33461">
        <ele>170.3</ele>
        <time>2024-08-06T07:56:28Z</time>
      </trkpt>
      <trkpt lat="43.67057" lon="3.33459">
        <ele>169.9</ele>
        <time>2024-08-06T07:56:29Z</time>
      </trkpt>
      <trkpt lat="43.67059" lon="3.33456">
        <ele>169.5</ele>
        <time>2024-08-06T07:56:30Z</time>
      </trkpt>
      <trkpt lat="43.67061" lon="3.33453">
        <ele>169.1</ele>
        <time>2024-08-06T07:56:31Z</time>
      </trkpt>
      <trkpt lat="43.67064" lon="3.33451">
        <ele>168.6</ele>
        <time>2024-08-06T07:56:32Z</time>
      </trkpt>
      <trkpt lat="43.67068" lon="3.3345">
        <ele>168.1</ele>
        <time>2024-08-06T07:56:33Z</time>
      </trkpt>
      <trkpt lat="43.67071" lon="3.33448">
        <ele>167.7</ele>
        <time>2024-08-06T07:56:34Z</time>
      </trkpt>
      <trkpt lat="43.67075" lon="3.33445">
        <ele>167</ele>
        <time>2024-08-06T07:56:35Z</time>
      </trkpt>
      <trkpt lat="43.67078" lon="3.33442">
        <ele>166.5</ele>
        <time>2024-08-06T07:56:36Z</time>
      </trkpt>
      <trkpt lat="43.6708" lon="3.3344">
        <ele>166.3</ele>
        <time>2024-08-06T07:56:37Z</time>
      </trkpt>
      <trkpt lat="43.67082" lon="3.33439">
        <ele>166.1</ele>
        <time>2024-08-06T07:56:38Z</time>
      </trkpt>
      <trkpt lat="43.67083" lon="3.3344">
        <ele>166</ele>
        <time>2024-08-06T07:56:39Z</time>
      </trkpt>
      <trkpt lat="43.67084" lon="3.33441">
        <ele>166</ele>
        <time>2024-08-06T07:56:40Z</time>
      </trkpt>
      <trkpt lat="43.67085" lon="3.33442">
        <ele>165.9</ele>
        <time>2024-08-06T07:56:41Z</time>
      </trkpt>
      <trkpt lat="43.67085" lon="3.33444">
        <ele>165.9</ele>
        <time>2024-08-06T07:56:42Z</time>
      </trkpt>
      <trkpt lat="43.67085" lon="3.33446">
        <ele>166.1</ele>
        <time>2024-08-06T07:56:43Z</time>
      </trkpt>
      <trkpt lat="43.67087" lon="3.33449">
        <ele>166.3</ele>
        <time>2024-08-06T07:56:44Z</time>
      </trkpt>
      <trkpt lat="43.67089" lon="3.33451">
        <ele>166.4</ele>
        <time>2024-08-06T07:56:45Z</time>
      </trkpt>
      <trkpt lat="43.67091" lon="3.33454">
        <ele>166.6</ele>
        <time>2024-08-06T07:56:46Z</time>
      </trkpt>
      <trkpt lat="43.67094" lon="3.33458">
        <ele>166.7</ele>
        <time>2024-08-06T07:56:47Z</time>
      </trkpt>
      <trkpt lat="43.67098" lon="3.33462">
        <ele>166.7</ele>
        <time>2024-08-06T07:56:48Z</time>
      </trkpt>
      <trkpt lat="43.671" lon="3.33466">
        <ele>166.8</ele>
        <time>2024-08-06T07:56:49Z</time>
      </trkpt>
      <trkpt lat="43.67102" lon="3.33471">
        <ele>166.9</ele>
        <time>2024-08-06T07:56:50Z</time>
      </trkpt>
      <trkpt lat="43.67103" lon="3.33476">
        <ele>167.1</ele>
        <time>2024-08-06T07:56:51Z</time>
      </trkpt>
      <trkpt lat="43.67104" lon="3.3348">
        <ele>167.3</ele>
        <time>2024-08-06T07:56:52Z</time>
      </trkpt>
      <trkpt lat="43.67104" lon="3.33484">
        <ele>167.5</ele>
        <time>2024-08-06T07:56:53Z</time>
      </trkpt>
      <trkpt lat="43.67105" lon="3.33487">
        <ele>167.6</ele>
        <time>2024-08-06T07:56:54Z</time>
      </trkpt>
      <trkpt lat="43.67107" lon="3.33488">
        <ele>167.5</ele>
        <time>2024-08-06T07:56:55Z</time>
      </trkpt>
      <trkpt lat="43.67109" lon="3.33488">
        <ele>167.3</ele>
        <time>2024-08-06T07:56:56Z</time>
      </trkpt>
      <trkpt lat="43.67112" lon="3.33489">
        <ele>167.2</ele>
        <time>2024-08-06T07:56:57Z</time>
      </trkpt>
      <trkpt lat="43.67115" lon="3.3349">
        <ele>167.1</ele>
        <time>2024-08-06T07:56:58Z</time>
      </trkpt>
      <trkpt lat="43.6712" lon="3.33492">
        <ele>166.9</ele>
        <time>2024-08-06T07:56:59Z</time>
      </trkpt>
      <trkpt lat="43.67123" lon="3.33495">
        <ele>166.9</ele>
        <time>2024-08-06T07:57:00Z</time>
      </trkpt>
      <trkpt lat="43.67127" lon="3.33497">
        <ele>166.7</ele>
        <time>2024-08-06T07:57:01Z</time>
      </trkpt>
      <trkpt lat="43.6713" lon="3.33499">
        <ele>166.6</ele>
        <time>2024-08-06T07:57:02Z</time>
      </trkpt>
      <trkpt lat="43.67135" lon="3.33499">
        <ele>166.2</ele>
        <time>2024-08-06T07:57:03Z</time>
      </trkpt>
      <trkpt lat="43.67139" lon="3.33498">
        <ele>165.9</ele>
        <time>2024-08-06T07:57:04Z</time>
      </trkpt>
      <trkpt lat="43.67142" lon="3.33497">
        <ele>165.6</ele>
        <time>2024-08-06T07:57:05Z</time>
      </trkpt>
      <trkpt lat="43.67146" lon="3.33497">
        <ele>165.2</ele>
        <time>2024-08-06T07:57:06Z</time>
      </trkpt>
      <trkpt lat="43.67148" lon="3.33496">
        <ele>164.9</ele>
        <time>2024-08-06T07:57:07Z</time>
      </trkpt>
      <trkpt lat="43.67151" lon="3.33496">
        <ele>164.6</ele>
        <time>2024-08-06T07:57:08Z</time>
      </trkpt>
      <trkpt lat="43.67153" lon="3.33495">
        <ele>164.4</ele>
        <time>2024-08-06T07:57:09Z</time>
      </trkpt>
      <trkpt lat="43.67155" lon="3.33495">
        <ele>164.2</ele>
        <time>2024-08-06T07:57:10Z</time>
      </trkpt>
      <trkpt lat="43.67157" lon="3.33495">
        <ele>164</ele>
        <time>2024-08-06T07:57:11Z</time>
      </trkpt>
      <trkpt lat="43.67158" lon="3.33495">
        <ele>163.9</ele>
        <time>2024-08-06T07:57:12Z</time>
      </trkpt>
      <trkpt lat="43.67158" lon="3.33494">
        <ele>163.9</ele>
        <time>2024-08-06T07:57:13Z</time>
      </trkpt>
      <trkpt lat="43.67161" lon="3.33494">
        <ele>163.6</ele>
        <time>2024-08-06T07:57:30Z</time>
      </trkpt>
      <trkpt lat="43.67163" lon="3.33493">
        <ele>163.4</ele>
        <time>2024-08-06T07:57:31Z</time>
      </trkpt>
      <trkpt lat="43.67165" lon="3.33492">
        <ele>163.2</ele>
        <time>2024-08-06T07:57:32Z</time>
      </trkpt>
      <trkpt lat="43.67166" lon="3.33491">
        <ele>163.1</ele>
        <time>2024-08-06T07:57:33Z</time>
      </trkpt>
      <trkpt lat="43.67168" lon="3.33489">
        <ele>163</ele>
        <time>2024-08-06T07:57:34Z</time>
      </trkpt>
      <trkpt lat="43.6717" lon="3.33489">
        <ele>162.9</ele>
        <time>2024-08-06T07:57:35Z</time>
      </trkpt>
      <trkpt lat="43.67172" lon="3.33488">
        <ele>162.8</ele>
        <time>2024-08-06T07:57:36Z</time>
      </trkpt>
      <trkpt lat="43.67175" lon="3.33487">
        <ele>162.7</ele>
        <time>2024-08-06T07:57:37Z</time>
      </trkpt>
      <trkpt lat="43.67178" lon="3.33486">
        <ele>162.6</ele>
        <time>2024-08-06T07:57:38Z</time>
      </trkpt>
      <trkpt lat="43.67181" lon="3.33487">
        <ele>162.5</ele>
        <time>2024-08-06T07:57:39Z</time>
      </trkpt>
      <trkpt lat="43.67185" lon="3.33489">
        <ele>162.5</ele>
        <time>2024-08-06T07:57:40Z</time>
      </trkpt>
      <trkpt lat="43.67188" lon="3.33493">
        <ele>162.6</ele>
        <time>2024-08-06T07:57:41Z</time>
      </trkpt>
      <trkpt lat="43.67191" lon="3.33497">
        <ele>162.8</ele>
        <time>2024-08-06T07:57:42Z</time>
      </trkpt>
      <trkpt lat="43.67195" lon="3.33499">
        <ele>162.9</ele>
        <time>2024-08-06T07:57:43Z</time>
      </trkpt>
      <trkpt lat="43.67197" lon="3.33501">
        <ele>162.9</ele>
        <time>2024-08-06T07:57:44Z</time>
      </trkpt>
      <trkpt lat="43.67201" lon="3.33503">
        <ele>162.9</ele>
        <time>2024-08-06T07:57:45Z</time>
      </trkpt>
      <trkpt lat="43.67204" lon="3.33506">
        <ele>162.9</ele>
        <time>2024-08-06T07:57:46Z</time>
      </trkpt>
      <trkpt lat="43.67206" lon="3.33509">
        <ele>162.9</ele>
        <time>2024-08-06T07:57:47Z</time>
      </trkpt>
      <trkpt lat="43.67209" lon="3.33512">
        <ele>162.9</ele>
        <time>2024-08-06T07:57:48Z</time>
      </trkpt>
      <trkpt lat="43.67213" lon="3.33514">
        <ele>162.8</ele>
        <time>2024-08-06T07:57:49Z</time>
      </trkpt>
      <trkpt lat="43.67215" lon="3.33512">
        <ele>162.7</ele>
        <time>2024-08-06T07:57:50Z</time>
      </trkpt>
      <trkpt lat="43.67218" lon="3.33511">
        <ele>162.5</ele>
        <time>2024-08-06T07:57:51Z</time>
      </trkpt>
      <trkpt lat="43.67222" lon="3.33514">
        <ele>162.5</ele>
        <time>2024-08-06T07:57:52Z</time>
      </trkpt>
      <trkpt lat="43.67224" lon="3.33517">
        <ele>162.4</ele>
        <time>2024-08-06T07:57:53Z</time>
      </trkpt>
      <trkpt lat="43.67227" lon="3.3352">
        <ele>162</ele>
        <time>2024-08-06T07:57:54Z</time>
      </trkpt>
      <trkpt lat="43.67231" lon="3.33518">
        <ele>161.4</ele>
        <time>2024-08-06T07:57:55Z</time>
      </trkpt>
      <trkpt lat="43.67233" lon="3.33515">
        <ele>161</ele>
        <time>2024-08-06T07:57:56Z</time>
      </trkpt>
      <trkpt lat="43.67235" lon="3.33512">
        <ele>160.6</ele>
        <time>2024-08-06T07:57:57Z</time>
      </trkpt>
      <trkpt lat="43.67239" lon="3.33508">
        <ele>159.9</ele>
        <time>2024-08-06T07:57:58Z</time>
      </trkpt>
      <trkpt lat="43.67243" lon="3.33505">
        <ele>159.2</ele>
        <time>2024-08-06T07:57:59Z</time>
      </trkpt>
      <trkpt lat="43.67247" lon="3.33502">
        <ele>158.5</ele>
        <time>2024-08-06T07:58:00Z</time>
      </trkpt>
      <trkpt lat="43.67252" lon="3.33501">
        <ele>157.8</ele>
        <time>2024-08-06T07:58:01Z</time>
      </trkpt>
      <trkpt lat="43.67257" lon="3.335">
        <ele>157.2</ele>
        <time>2024-08-06T07:58:02Z</time>
      </trkpt>
      <trkpt lat="43.67261" lon="3.33501">
        <ele>156.8</ele>
        <time>2024-08-06T07:58:03Z</time>
      </trkpt>
      <trkpt lat="43.67266" lon="3.33502">
        <ele>156.3</ele>
        <time>2024-08-06T07:58:04Z</time>
      </trkpt>
      <trkpt lat="43.6727" lon="3.33504">
        <ele>156</ele>
        <time>2024-08-06T07:58:05Z</time>
      </trkpt>
      <trkpt lat="43.67274" lon="3.33508">
        <ele>155.7</ele>
        <time>2024-08-06T07:58:06Z</time>
      </trkpt>
      <trkpt lat="43.67276" lon="3.33514">
        <ele>155.7</ele>
        <time>2024-08-06T07:58:07Z</time>
      </trkpt>
      <trkpt lat="43.67278" lon="3.33519">
        <ele>155.7</ele>
        <time>2024-08-06T07:58:08Z</time>
      </trkpt>
      <trkpt lat="43.6728" lon="3.33522">
        <ele>155.7</ele>
        <time>2024-08-06T07:58:09Z</time>
      </trkpt>
      <trkpt lat="43.67284" lon="3.33523">
        <ele>155.6</ele>
        <time>2024-08-06T07:58:10Z</time>
      </trkpt>
      <trkpt lat="43.67287" lon="3.33524">
        <ele>155.5</ele>
        <time>2024-08-06T07:58:11Z</time>
      </trkpt>
      <trkpt lat="43.6729" lon="3.33526">
        <ele>155.5</ele>
        <time>2024-08-06T07:58:12Z</time>
      </trkpt>
      <trkpt lat="43.67293" lon="3.33528">
        <ele>155.5</ele>
        <time>2024-08-06T07:58:13Z</time>
      </trkpt>
      <trkpt lat="43.67296" lon="3.33529">
        <ele>155.4</ele>
        <time>2024-08-06T07:58:14Z</time>
      </trkpt>
      <trkpt lat="43.67299" lon="3.33531">
        <ele>155.4</ele>
        <time>2024-08-06T07:58:15Z</time>
      </trkpt>
      <trkpt lat="43.67301" lon="3.33533">
        <ele>155.4</ele>
        <time>2024-08-06T07:58:16Z</time>
      </trkpt>
      <trkpt lat="43.67304" lon="3.33535">
        <ele>155.3</ele>
        <time>2024-08-06T07:58:17Z</time>
      </trkpt>
      <trkpt lat="43.67307" lon="3.33539">
        <ele>155.3</ele>
        <time>2024-08-06T07:58:18Z</time>
      </trkpt>
      <trkpt lat="43.67309" lon="3.33545">
        <ele>155.5</ele>
        <time>2024-08-06T07:58:19Z</time>
      </trkpt>
      <trkpt lat="43.67311" lon="3.33552">
        <ele>155.8</ele>
        <time>2024-08-06T07:58:20Z</time>
      </trkpt>
      <trkpt lat="43.67315" lon="3.33556">
        <ele>156</ele>
        <time>2024-08-06T07:58:21Z</time>
      </trkpt>
      <trkpt lat="43.67319" lon="3.33556">
        <ele>156</ele>
        <time>2024-08-06T07:58:22Z</time>
      </trkpt>
      <trkpt lat="43.67322" lon="3.33556">
        <ele>156</ele>
        <time>2024-08-06T07:58:23Z</time>
      </trkpt>
      <trkpt lat="43.67325" lon="3.33558">
        <ele>156.2</ele>
        <time>2024-08-06T07:58:24Z</time>
      </trkpt>
      <trkpt lat="43.67329" lon="3.33559">
        <ele>156.3</ele>
        <time>2024-08-06T07:58:25Z</time>
      </trkpt>
      <trkpt lat="43.67332" lon="3.33563">
        <ele>156.5</ele>
        <time>2024-08-06T07:58:26Z</time>
      </trkpt>
      <trkpt lat="43.67334" lon="3.33567">
        <ele>156.7</ele>
        <time>2024-08-06T07:58:27Z</time>
      </trkpt>
      <trkpt lat="43.67336" lon="3.33572">
        <ele>156.9</ele>
        <time>2024-08-06T07:58:28Z</time>
      </trkpt>
      <trkpt lat="43.67339" lon="3.33577">
        <ele>156.9</ele>
        <time>2024-08-06T07:58:29Z</time>
      </trkpt>
      <trkpt lat="43.67341" lon="3.33581">
        <ele>157</ele>
        <time>2024-08-06T07:58:30Z</time>
      </trkpt>
      <trkpt lat="43.67344" lon="3.33584">
        <ele>156.9</ele>
        <time>2024-08-06T07:58:31Z</time>
      </trkpt>
      <trkpt lat="43.67348" lon="3.33588">
        <ele>156.8</ele>
        <time>2024-08-06T07:58:32Z</time>
      </trkpt>
      <trkpt lat="43.6735" lon="3.33592">
        <ele>156.8</ele>
        <time>2024-08-06T07:58:33Z</time>
      </trkpt>
      <trkpt lat="43.67352" lon="3.33596">
        <ele>156.9</ele>
        <time>2024-08-06T07:58:34Z</time>
      </trkpt>
      <trkpt lat="43.67353" lon="3.33601">
        <ele>157.1</ele>
        <time>2024-08-06T07:58:35Z</time>
      </trkpt>
      <trkpt lat="43.67356" lon="3.33606">
        <ele>157.2</ele>
        <time>2024-08-06T07:58:36Z</time>
      </trkpt>
      <trkpt lat="43.67359" lon="3.33608">
        <ele>157</ele>
        <time>2024-08-06T07:58:37Z</time>
      </trkpt>
      <trkpt lat="43.67363" lon="3.33611">
        <ele>156.8</ele>
        <time>2024-08-06T07:58:38Z</time>
      </trkpt>
      <trkpt lat="43.67365" lon="3.33614">
        <ele>156.8</ele>
        <time>2024-08-06T07:58:39Z</time>
      </trkpt>
      <trkpt lat="43.67368" lon="3.33617">
        <ele>156.6</ele>
        <time>2024-08-06T07:58:40Z</time>
      </trkpt>
      <trkpt lat="43.67371" lon="3.33621">
        <ele>156.5</ele>
        <time>2024-08-06T07:58:41Z</time>
      </trkpt>
      <trkpt lat="43.67373" lon="3.33627">
        <ele>156.6</ele>
        <time>2024-08-06T07:58:42Z</time>
      </trkpt>
      <trkpt lat="43.67375" lon="3.33632">
        <ele>156.6</ele>
        <time>2024-08-06T07:58:43Z</time>
      </trkpt>
      <trkpt lat="43.67376" lon="3.33638">
        <ele>156.8</ele>
        <time>2024-08-06T07:58:44Z</time>
      </trkpt>
      <trkpt lat="43.67377" lon="3.33643">
        <ele>156.9</ele>
        <time>2024-08-06T07:58:45Z</time>
      </trkpt>
      <trkpt lat="43.67378" lon="3.33647">
        <ele>156.9</ele>
        <time>2024-08-06T07:58:46Z</time>
      </trkpt>
      <trkpt lat="43.67381" lon="3.33648">
        <ele>156.5</ele>
        <time>2024-08-06T07:58:47Z</time>
      </trkpt>
      <trkpt lat="43.67384" lon="3.33646">
        <ele>156</ele>
        <time>2024-08-06T07:58:48Z</time>
      </trkpt>
      <trkpt lat="43.67387" lon="3.33642">
        <ele>155.4</ele>
        <time>2024-08-06T07:58:49Z</time>
      </trkpt>
      <trkpt lat="43.67391" lon="3.33639">
        <ele>154.8</ele>
        <time>2024-08-06T07:58:50Z</time>
      </trkpt>
      <trkpt lat="43.67395" lon="3.33639">
        <ele>154.3</ele>
        <time>2024-08-06T07:58:51Z</time>
      </trkpt>
      <trkpt lat="43.67399" lon="3.33641">
        <ele>154</ele>
        <time>2024-08-06T07:58:52Z</time>
      </trkpt>
      <trkpt lat="43.67402" lon="3.33641">
        <ele>153.6</ele>
        <time>2024-08-06T07:58:53Z</time>
      </trkpt>
      <trkpt lat="43.67406" lon="3.33639">
        <ele>153.2</ele>
        <time>2024-08-06T07:58:54Z</time>
      </trkpt>
      <trkpt lat="43.6741" lon="3.33638">
        <ele>152.7</ele>
        <time>2024-08-06T07:58:55Z</time>
      </trkpt>
      <trkpt lat="43.67413" lon="3.33636">
        <ele>152.3</ele>
        <time>2024-08-06T07:58:56Z</time>
      </trkpt>
      <trkpt lat="43.67418" lon="3.33633">
        <ele>151.6</ele>
        <time>2024-08-06T07:58:57Z</time>
      </trkpt>
      <trkpt lat="43.67423" lon="3.3363">
        <ele>151</ele>
        <time>2024-08-06T07:58:58Z</time>
      </trkpt>
      <trkpt lat="43.67428" lon="3.33628">
        <ele>150.4</ele>
        <time>2024-08-06T07:58:59Z</time>
      </trkpt>
      <trkpt lat="43.67432" lon="3.33628">
        <ele>150</ele>
        <time>2024-08-06T07:59:00Z</time>
      </trkpt>
      <trkpt lat="43.67435" lon="3.33627">
        <ele>149.6</ele>
        <time>2024-08-06T07:59:01Z</time>
      </trkpt>
      <trkpt lat="43.67438" lon="3.33626">
        <ele>149.2</ele>
        <time>2024-08-06T07:59:02Z</time>
      </trkpt>
      <trkpt lat="43.6744" lon="3.33624">
        <ele>148.9</ele>
        <time>2024-08-06T07:59:03Z</time>
      </trkpt>
      <trkpt lat="43.67442" lon="3.33623">
        <ele>148.7</ele>
        <time>2024-08-06T07:59:04Z</time>
      </trkpt>
      <trkpt lat="43.67443" lon="3.33622">
        <ele>148.5</ele>
        <time>2024-08-06T07:59:05Z</time>
      </trkpt>
      <trkpt lat="43.67445" lon="3.33622">
        <ele>148.3</ele>
        <time>2024-08-06T07:59:06Z</time>
      </trkpt>
      <trkpt lat="43.67447" lon="3.33622">
        <ele>148.1</ele>
        <time>2024-08-06T07:59:07Z</time>
      </trkpt>
      <trkpt lat="43.67449" lon="3.33621">
        <ele>147.8</ele>
        <time>2024-08-06T07:59:08Z</time>
      </trkpt>
      <trkpt lat="43.67452" lon="3.33621">
        <ele>147.4</ele>
        <time>2024-08-06T07:59:09Z</time>
      </trkpt>
      <trkpt lat="43.67456" lon="3.33622">
        <ele>147</ele>
        <time>2024-08-06T07:59:10Z</time>
      </trkpt>
      <trkpt lat="43.67459" lon="3.33622">
        <ele>146.6</ele>
        <time>2024-08-06T07:59:11Z</time>
      </trkpt>
      <trkpt lat="43.67463" lon="3.33622">
        <ele>146.1</ele>
        <time>2024-08-06T07:59:12Z</time>
      </trkpt>
      <trkpt lat="43.67466" lon="3.33622">
        <ele>145.8</ele>
        <time>2024-08-06T07:59:13Z</time>
      </trkpt>
      <trkpt lat="43.67469" lon="3.33622">
        <ele>145.4</ele>
        <time>2024-08-06T07:59:14Z</time>
      </trkpt>
      <trkpt lat="43.67472" lon="3.33621">
        <ele>145</ele>
        <time>2024-08-06T07:59:15Z</time>
      </trkpt>
      <trkpt lat="43.67475" lon="3.33621">
        <ele>145</ele>
        <time>2024-08-06T07:59:16Z</time>
      </trkpt>
      <trkpt lat="43.67479" lon="3.33622">
        <ele>144.9</ele>
        <time>2024-08-06T07:59:17Z</time>
      </trkpt>
      <trkpt lat="43.67483" lon="3.33624">
        <ele>145</ele>
        <time>2024-08-06T07:59:18Z</time>
      </trkpt>
      <trkpt lat="43.67487" lon="3.33627">
        <ele>145.1</ele>
        <time>2024-08-06T07:59:19Z</time>
      </trkpt>
      <trkpt lat="43.6749" lon="3.33628">
        <ele>145.1</ele>
        <time>2024-08-06T07:59:20Z</time>
      </trkpt>
      <trkpt lat="43.67493" lon="3.33628">
        <ele>145.2</ele>
        <time>2024-08-06T07:59:21Z</time>
      </trkpt>
      <trkpt lat="43.67496" lon="3.3363">
        <ele>145.3</ele>
        <time>2024-08-06T07:59:22Z</time>
      </trkpt>
      <trkpt lat="43.675" lon="3.33631">
        <ele>145.4</ele>
        <time>2024-08-06T07:59:23Z</time>
      </trkpt>
      <trkpt lat="43.67502" lon="3.33635">
        <ele>145.7</ele>
        <time>2024-08-06T07:59:24Z</time>
      </trkpt>
      <trkpt lat="43.67504" lon="3.3364">
        <ele>145.9</ele>
        <time>2024-08-06T07:59:25Z</time>
      </trkpt>
      <trkpt lat="43.67506" lon="3.33645">
        <ele>146.2</ele>
        <time>2024-08-06T07:59:26Z</time>
      </trkpt>
      <trkpt lat="43.67508" lon="3.3365">
        <ele>146.4</ele>
        <time>2024-08-06T07:59:27Z</time>
      </trkpt>
      <trkpt lat="43.67508" lon="3.33654">
        <ele>146.6</ele>
        <time>2024-08-06T07:59:28Z</time>
      </trkpt>
      <trkpt lat="43.67508" lon="3.33659">
        <ele>147</ele>
        <time>2024-08-06T07:59:29Z</time>
      </trkpt>
      <trkpt lat="43.67508" lon="3.33665">
        <ele>147.3</ele>
        <time>2024-08-06T07:59:30Z</time>
      </trkpt>
      <trkpt lat="43.67507" lon="3.33669">
        <ele>147.6</ele>
        <time>2024-08-06T07:59:31Z</time>
      </trkpt>
      <trkpt lat="43.67507" lon="3.33674">
        <ele>147.7</ele>
        <time>2024-08-06T07:59:32Z</time>
      </trkpt>
      <trkpt lat="43.67507" lon="3.33678">
        <ele>147.8</ele>
        <time>2024-08-06T07:59:33Z</time>
      </trkpt>
      <trkpt lat="43.67509" lon="3.33683">
        <ele>147.7</ele>
        <time>2024-08-06T07:59:34Z</time>
      </trkpt>
      <trkpt lat="43.67511" lon="3.33686">
        <ele>147.6</ele>
        <time>2024-08-06T07:59:35Z</time>
      </trkpt>
      <trkpt lat="43.67513" lon="3.33689">
        <ele>147.5</ele>
        <time>2024-08-06T07:59:36Z</time>
      </trkpt>
      <trkpt lat="43.67516" lon="3.33691">
        <ele>147.2</ele>
        <time>2024-08-06T07:59:37Z</time>
      </trkpt>
      <trkpt lat="43.67519" lon="3.33694">
        <ele>146.9</ele>
        <time>2024-08-06T07:59:38Z</time>
      </trkpt>
      <trkpt lat="43.67521" lon="3.337">
        <ele>146.9</ele>
        <time>2024-08-06T07:59:39Z</time>
      </trkpt>
      <trkpt lat="43.67523" lon="3.33707">
        <ele>147</ele>
        <time>2024-08-06T07:59:40Z</time>
      </trkpt>
      <trkpt lat="43.67526" lon="3.33715">
        <ele>146.9</ele>
        <time>2024-08-06T07:59:41Z</time>
      </trkpt>
      <trkpt lat="43.6753" lon="3.33721">
        <ele>147.1</ele>
        <time>2024-08-06T07:59:42Z</time>
      </trkpt>
      <trkpt lat="43.67533" lon="3.33726">
        <ele>147.7</ele>
        <time>2024-08-06T07:59:43Z</time>
      </trkpt>
      <trkpt lat="43.67534" lon="3.33731">
        <ele>148.2</ele>
        <time>2024-08-06T07:59:44Z</time>
      </trkpt>
      <trkpt lat="43.67536" lon="3.33735">
        <ele>148.6</ele>
        <time>2024-08-06T07:59:45Z</time>
      </trkpt>
      <trkpt lat="43.67536" lon="3.33739">
        <ele>149</ele>
        <time>2024-08-06T07:59:46Z</time>
      </trkpt>
      <trkpt lat="43.67537" lon="3.33744">
        <ele>149.5</ele>
        <time>2024-08-06T07:59:47Z</time>
      </trkpt>
      <trkpt lat="43.67537" lon="3.33749">
        <ele>149.9</ele>
        <time>2024-08-06T07:59:48Z</time>
      </trkpt>
      <trkpt lat="43.67537" lon="3.33753">
        <ele>150.3</ele>
        <time>2024-08-06T07:59:49Z</time>
      </trkpt>
      <trkpt lat="43.67537" lon="3.33757">
        <ele>150.7</ele>
        <time>2024-08-06T07:59:50Z</time>
      </trkpt>
      <trkpt lat="43.67537" lon="3.33762">
        <ele>151.1</ele>
        <time>2024-08-06T07:59:51Z</time>
      </trkpt>
      <trkpt lat="43.67538" lon="3.33766">
        <ele>151.6</ele>
        <time>2024-08-06T07:59:52Z</time>
      </trkpt>
      <trkpt lat="43.67539" lon="3.33768">
        <ele>151.9</ele>
        <time>2024-08-06T07:59:53Z</time>
      </trkpt>
      <trkpt lat="43.67542" lon="3.3377">
        <ele>152.3</ele>
        <time>2024-08-06T07:59:54Z</time>
      </trkpt>
      <trkpt lat="43.67543" lon="3.33774">
        <ele>152.8</ele>
        <time>2024-08-06T07:59:55Z</time>
      </trkpt>
      <trkpt lat="43.67544" lon="3.33778">
        <ele>153.2</ele>
        <time>2024-08-06T07:59:56Z</time>
      </trkpt>
      <trkpt lat="43.67545" lon="3.33781">
        <ele>153.3</ele>
        <time>2024-08-06T07:59:57Z</time>
      </trkpt>
      <trkpt lat="43.67546" lon="3.33785">
        <ele>153.5</ele>
        <time>2024-08-06T07:59:58Z</time>
      </trkpt>
      <trkpt lat="43.67548" lon="3.33789">
        <ele>153.6</ele>
        <time>2024-08-06T07:59:59Z</time>
      </trkpt>
      <trkpt lat="43.67549" lon="3.33793">
        <ele>153.6</ele>
        <time>2024-08-06T08:00:00Z</time>
      </trkpt>
      <trkpt lat="43.67549" lon="3.33798">
        <ele>153.7</ele>
        <time>2024-08-06T08:00:01Z</time>
      </trkpt>
      <trkpt lat="43.67548" lon="3.33803">
        <ele>153.8</ele>
        <time>2024-08-06T08:00:02Z</time>
      </trkpt>
      <trkpt lat="43.67547" lon="3.33808">
        <ele>154.2</ele>
        <time>2024-08-06T08:00:03Z</time>
      </trkpt>
      <trkpt lat="43.67545" lon="3.33812">
        <ele>154.8</ele>
        <time>2024-08-06T08:00:04Z</time>
      </trkpt>
      <trkpt lat="43.67544" lon="3.33816">
        <ele>155.3</ele>
        <time>2024-08-06T08:00:05Z</time>
      </trkpt>
      <trkpt lat="43.67546" lon="3.33821">
        <ele>155.7</ele>
        <time>2024-08-06T08:00:06Z</time>
      </trkpt>
      <trkpt lat="43.67549" lon="3.33824">
        <ele>155.9</ele>
        <time>2024-08-06T08:00:07Z</time>
      </trkpt>
      <trkpt lat="43.67554" lon="3.33825">
        <ele>155.9</ele>
        <time>2024-08-06T08:00:08Z</time>
      </trkpt>
      <trkpt lat="43.67556" lon="3.33826">
        <ele>155.9</ele>
        <time>2024-08-06T08:00:09Z</time>
      </trkpt>
      <trkpt lat="43.67559" lon="3.33829">
        <ele>156.4</ele>
        <time>2024-08-06T08:00:10Z</time>
      </trkpt>
      <trkpt lat="43.67559" lon="3.33833">
        <ele>157</ele>
        <time>2024-08-06T08:00:11Z</time>
      </trkpt>
      <trkpt lat="43.67558" lon="3.33836">
        <ele>157.2</ele>
        <time>2024-08-06T08:00:12Z</time>
      </trkpt>
      <trkpt lat="43.67556" lon="3.33839">
        <ele>157.4</ele>
        <time>2024-08-06T08:00:13Z</time>
      </trkpt>
      <trkpt lat="43.67556" lon="3.33842">
        <ele>157.6</ele>
        <time>2024-08-06T08:00:14Z</time>
      </trkpt>
      <trkpt lat="43.67556" lon="3.33846">
        <ele>157.9</ele>
        <time>2024-08-06T08:00:15Z</time>
      </trkpt>
      <trkpt lat="43.67557" lon="3.3385">
        <ele>158.2</ele>
        <time>2024-08-06T08:00:16Z</time>
      </trkpt>
      <trkpt lat="43.6756" lon="3.33853">
        <ele>158.4</ele>
        <time>2024-08-06T08:00:17Z</time>
      </trkpt>
      <trkpt lat="43.67562" lon="3.33855">
        <ele>158.6</ele>
        <time>2024-08-06T08:00:18Z</time>
      </trkpt>
      <trkpt lat="43.67565" lon="3.33856">
        <ele>158.6</ele>
        <time>2024-08-06T08:00:19Z</time>
      </trkpt>
      <trkpt lat="43.67568" lon="3.33858">
        <ele>158.8</ele>
        <time>2024-08-06T08:00:20Z</time>
      </trkpt>
      <trkpt lat="43.6757" lon="3.33863">
        <ele>159.1</ele>
        <time>2024-08-06T08:00:21Z</time>
      </trkpt>
      <trkpt lat="43.6757" lon="3.33868">
        <ele>159.5</ele>
        <time>2024-08-06T08:00:22Z</time>
      </trkpt>
      <trkpt lat="43.67569" lon="3.33873">
        <ele>159.9</ele>
        <time>2024-08-06T08:00:23Z</time>
      </trkpt>
      <trkpt lat="43.67568" lon="3.33877">
        <ele>160.1</ele>
        <time>2024-08-06T08:00:24Z</time>
      </trkpt>
      <trkpt lat="43.67566" lon="3.33881">
        <ele>160.4</ele>
        <time>2024-08-06T08:00:25Z</time>
      </trkpt>
      <trkpt lat="43.67564" lon="3.33886">
        <ele>160.8</ele>
        <time>2024-08-06T08:00:26Z</time>
      </trkpt>
      <trkpt lat="43.67563" lon="3.33892">
        <ele>161.1</ele>
        <time>2024-08-06T08:00:27Z</time>
      </trkpt>
      <trkpt lat="43.67563" lon="3.33897">
        <ele>161.2</ele>
        <time>2024-08-06T08:00:28Z</time>
      </trkpt>
      <trkpt lat="43.67564" lon="3.33903">
        <ele>161.3</ele>
        <time>2024-08-06T08:00:29Z</time>
      </trkpt>
      <trkpt lat="43.67566" lon="3.33909">
        <ele>161.5</ele>
        <time>2024-08-06T08:00:30Z</time>
      </trkpt>
      <trkpt lat="43.67568" lon="3.33916">
        <ele>161.9</ele>
        <time>2024-08-06T08:00:31Z</time>
      </trkpt>
      <trkpt lat="43.67568" lon="3.33922">
        <ele>161.6</ele>
        <time>2024-08-06T08:00:32Z</time>
      </trkpt>
      <trkpt lat="43.6757" lon="3.33927">
        <ele>161.5</ele>
        <time>2024-08-06T08:00:33Z</time>
      </trkpt>
      <trkpt lat="43.6757" lon="3.33932">
        <ele>161.2</ele>
        <time>2024-08-06T08:00:34Z</time>
      </trkpt>
      <trkpt lat="43.67571" lon="3.33937">
        <ele>161.1</ele>
        <time>2024-08-06T08:00:35Z</time>
      </trkpt>
      <trkpt lat="43.67573" lon="3.33942">
        <ele>161.2</ele>
        <time>2024-08-06T08:00:36Z</time>
      </trkpt>
      <trkpt lat="43.67574" lon="3.33948">
        <ele>161.1</ele>
        <time>2024-08-06T08:00:37Z</time>
      </trkpt>
      <trkpt lat="43.67575" lon="3.33954">
        <ele>160.8</ele>
        <time>2024-08-06T08:00:38Z</time>
      </trkpt>
      <trkpt lat="43.67576" lon="3.33959">
        <ele>160.6</ele>
        <time>2024-08-06T08:00:39Z</time>
      </trkpt>
      <trkpt lat="43.67576" lon="3.33965">
        <ele>160.2</ele>
        <time>2024-08-06T08:00:40Z</time>
      </trkpt>
      <trkpt lat="43.67578" lon="3.3397">
        <ele>160.2</ele>
        <time>2024-08-06T08:00:41Z</time>
      </trkpt>
      <trkpt lat="43.67581" lon="3.33976">
        <ele>160</ele>
        <time>2024-08-06T08:00:42Z</time>
      </trkpt>
      <trkpt lat="43.67585" lon="3.3398">
        <ele>159.9</ele>
        <time>2024-08-06T08:00:43Z</time>
      </trkpt>
      <trkpt lat="43.6759" lon="3.33984">
        <ele>159.3</ele>
        <time>2024-08-06T08:00:44Z</time>
      </trkpt>
      <trkpt lat="43.67595" lon="3.33987">
        <ele>158.9</ele>
        <time>2024-08-06T08:00:45Z</time>
      </trkpt>
      <trkpt lat="43.676" lon="3.33992">
        <ele>158.4</ele>
        <time>2024-08-06T08:00:46Z</time>
      </trkpt>
      <trkpt lat="43.67605" lon="3.33998">
        <ele>158</ele>
        <time>2024-08-06T08:00:47Z</time>
      </trkpt>
      <trkpt lat="43.6761" lon="3.34005">
        <ele>157.2</ele>
        <time>2024-08-06T08:00:48Z</time>
      </trkpt>
      <trkpt lat="43.67616" lon="3.34013">
        <ele>156.3</ele>
        <time>2024-08-06T08:00:49Z</time>
      </trkpt>
      <trkpt lat="43.67621" lon="3.34023">
        <ele>155.3</ele>
        <time>2024-08-06T08:00:50Z</time>
      </trkpt>
      <trkpt lat="43.67626" lon="3.34031">
        <ele>154.7</ele>
        <time>2024-08-06T08:00:51Z</time>
      </trkpt>
      <trkpt lat="43.67629" lon="3.34039">
        <ele>154.2</ele>
        <time>2024-08-06T08:00:52Z</time>
      </trkpt>
      <trkpt lat="43.67633" lon="3.34046">
        <ele>154</ele>
        <time>2024-08-06T08:00:53Z</time>
      </trkpt>
      <trkpt lat="43.67638" lon="3.34052">
        <ele>154.1</ele>
        <time>2024-08-06T08:00:54Z</time>
      </trkpt>
      <trkpt lat="43.67643" lon="3.34057">
        <ele>153.7</ele>
        <time>2024-08-06T08:00:55Z</time>
      </trkpt>
      <trkpt lat="43.67647" lon="3.3406">
        <ele>153.3</ele>
        <time>2024-08-06T08:00:56Z</time>
      </trkpt>
      <trkpt lat="43.6765" lon="3.34062">
        <ele>153</ele>
        <time>2024-08-06T08:00:57Z</time>
      </trkpt>
      <trkpt lat="43.67653" lon="3.34064">
        <ele>152.7</ele>
        <time>2024-08-06T08:00:58Z</time>
      </trkpt>
      <trkpt lat="43.67655" lon="3.34065">
        <ele>152.6</ele>
        <time>2024-08-06T08:00:59Z</time>
      </trkpt>
      <trkpt lat="43.67657" lon="3.34066">
        <ele>152.5</ele>
        <time>2024-08-06T08:01:00Z</time>
      </trkpt>
      <trkpt lat="43.67659" lon="3.34068">
        <ele>152.3</ele>
        <time>2024-08-06T08:01:01Z</time>
      </trkpt>
      <trkpt lat="43.6766" lon="3.34072">
        <ele>151.9</ele>
        <time>2024-08-06T08:01:02Z</time>
      </trkpt>
      <trkpt lat="43.67661" lon="3.34077">
        <ele>151.5</ele>
        <time>2024-08-06T08:01:03Z</time>
      </trkpt>
      <trkpt lat="43.67663" lon="3.34082">
        <ele>151.1</ele>
        <time>2024-08-06T08:01:04Z</time>
      </trkpt>
      <trkpt lat="43.67665" lon="3.34086">
        <ele>150.7</ele>
        <time>2024-08-06T08:01:05Z</time>
      </trkpt>
      <trkpt lat="43.67668" lon="3.3409">
        <ele>150.1</ele>
        <time>2024-08-06T08:01:06Z</time>
      </trkpt>
      <trkpt lat="43.67671" lon="3.34094">
        <ele>149.2</ele>
        <time>2024-08-06T08:01:07Z</time>
      </trkpt>
      <trkpt lat="43.67674" lon="3.34098">
        <ele>148.4</ele>
        <time>2024-08-06T08:01:08Z</time>
      </trkpt>
      <trkpt lat="43.67677" lon="3.341">
        <ele>147.7</ele>
        <time>2024-08-06T08:01:09Z</time>
      </trkpt>
      <trkpt lat="43.6768" lon="3.34101">
        <ele>147.2</ele>
        <time>2024-08-06T08:01:10Z</time>
      </trkpt>
      <trkpt lat="43.67683" lon="3.34102">
        <ele>146.6</ele>
        <time>2024-08-06T08:01:11Z</time>
      </trkpt>
      <trkpt lat="43.67686" lon="3.34104">
        <ele>146</ele>
        <time>2024-08-06T08:01:12Z</time>
      </trkpt>
      <trkpt lat="43.67688" lon="3.34103">
        <ele>145.8</ele>
        <time>2024-08-06T08:01:13Z</time>
      </trkpt>
      <trkpt lat="43.6769" lon="3.34102">
        <ele>145.6</ele>
        <time>2024-08-06T08:01:14Z</time>
      </trkpt>
      <trkpt lat="43.67692" lon="3.34101">
        <ele>145.4</ele>
        <time>2024-08-06T08:01:15Z</time>
      </trkpt>
      <trkpt lat="43.67694" lon="3.34102">
        <ele>145</ele>
        <time>2024-08-06T08:01:16Z</time>
      </trkpt>
      <trkpt lat="43.67696" lon="3.34103">
        <ele>144.7</ele>
        <time>2024-08-06T08:01:17Z</time>
      </trkpt>
      <trkpt lat="43.67699" lon="3.34103">
        <ele>144.3</ele>
        <time>2024-08-06T08:01:18Z</time>
      </trkpt>
      <trkpt lat="43.67703" lon="3.34103">
        <ele>143.8</ele>
        <time>2024-08-06T08:01:19Z</time>
      </trkpt>
      <trkpt lat="43.67706" lon="3.34105">
        <ele>143.2</ele>
        <time>2024-08-06T08:01:20Z</time>
      </trkpt>
      <trkpt lat="43.6771" lon="3.34108">
        <ele>142.5</ele>
        <time>2024-08-06T08:01:21Z</time>
      </trkpt>
      <trkpt lat="43.67713" lon="3.34112">
        <ele>141.9</ele>
        <time>2024-08-06T08:01:22Z</time>
      </trkpt>
      <trkpt lat="43.67714" lon="3.34116">
        <ele>141.5</ele>
        <time>2024-08-06T08:01:23Z</time>
      </trkpt>
      <trkpt lat="43.67717" lon="3.34121">
        <ele>140.8</ele>
        <time>2024-08-06T08:01:24Z</time>
      </trkpt>
      <trkpt lat="43.67719" lon="3.34124">
        <ele>140.4</ele>
        <time>2024-08-06T08:01:25Z</time>
      </trkpt>
      <trkpt lat="43.67722" lon="3.34127">
        <ele>139.9</ele>
        <time>2024-08-06T08:01:26Z</time>
      </trkpt>
      <trkpt lat="43.67725" lon="3.3413">
        <ele>139.4</ele>
        <time>2024-08-06T08:01:27Z</time>
      </trkpt>
      <trkpt lat="43.67728" lon="3.34132">
        <ele>139</ele>
        <time>2024-08-06T08:01:28Z</time>
      </trkpt>
      <trkpt lat="43.6773" lon="3.34135">
        <ele>138.6</ele>
        <time>2024-08-06T08:01:29Z</time>
      </trkpt>
      <trkpt lat="43.67731" lon="3.34137">
        <ele>138.5</ele>
        <time>2024-08-06T08:01:30Z</time>
      </trkpt>
      <trkpt lat="43.67733" lon="3.34139">
        <ele>138.2</ele>
        <time>2024-08-06T08:01:31Z</time>
      </trkpt>
      <trkpt lat="43.67734" lon="3.34142">
        <ele>138</ele>
        <time>2024-08-06T08:01:32Z</time>
      </trkpt>
      <trkpt lat="43.67736" lon="3.34144">
        <ele>137.7</ele>
        <time>2024-08-06T08:01:33Z</time>
      </trkpt>
      <trkpt lat="43.6774" lon="3.34147">
        <ele>137.3</ele>
        <time>2024-08-06T08:01:34Z</time>
      </trkpt>
      <trkpt lat="43.67743" lon="3.3415">
        <ele>137</ele>
        <time>2024-08-06T08:01:35Z</time>
      </trkpt>
      <trkpt lat="43.67746" lon="3.34156">
        <ele>136.6</ele>
        <time>2024-08-06T08:01:36Z</time>
      </trkpt>
      <trkpt lat="43.67749" lon="3.34163">
        <ele>136.2</ele>
        <time>2024-08-06T08:01:37Z</time>
      </trkpt>
      <trkpt lat="43.67751" lon="3.34171">
        <ele>135.6</ele>
        <time>2024-08-06T08:01:38Z</time>
      </trkpt>
      <trkpt lat="43.67754" lon="3.34179">
        <ele>134.8</ele>
        <time>2024-08-06T08:01:39Z</time>
      </trkpt>
      <trkpt lat="43.67756" lon="3.34187">
        <ele>134.2</ele>
        <time>2024-08-06T08:01:40Z</time>
      </trkpt>
      <trkpt lat="43.67759" lon="3.34194">
        <ele>133.7</ele>
        <time>2024-08-06T08:01:41Z</time>
      </trkpt>
      <trkpt lat="43.67761" lon="3.342">
        <ele>133.1</ele>
        <time>2024-08-06T08:01:42Z</time>
      </trkpt>
      <trkpt lat="43.67764" lon="3.34203">
        <ele>132.7</ele>
        <time>2024-08-06T08:01:43Z</time>
      </trkpt>
      <trkpt lat="43.67767" lon="3.34207">
        <ele>132.3</ele>
        <time>2024-08-06T08:01:44Z</time>
      </trkpt>
      <trkpt lat="43.6777" lon="3.34211">
        <ele>131.9</ele>
        <time>2024-08-06T08:01:45Z</time>
      </trkpt>
      <trkpt lat="43.67773" lon="3.34216">
        <ele>131.5</ele>
        <time>2024-08-06T08:01:46Z</time>
      </trkpt>
      <trkpt lat="43.67776" lon="3.34222">
        <ele>131</ele>
        <time>2024-08-06T08:01:47Z</time>
      </trkpt>
      <trkpt lat="43.67779" lon="3.34228">
        <ele>131</ele>
        <time>2024-08-06T08:01:48Z</time>
      </trkpt>
      <trkpt lat="43.67782" lon="3.34234">
        <ele>130.9</ele>
        <time>2024-08-06T08:01:49Z</time>
      </trkpt>
      <trkpt lat="43.67784" lon="3.34241">
        <ele>130.8</ele>
        <time>2024-08-06T08:01:50Z</time>
      </trkpt>
      <trkpt lat="43.67786" lon="3.34248">
        <ele>130.7</ele>
        <time>2024-08-06T08:01:51Z</time>
      </trkpt>
      <trkpt lat="43.67789" lon="3.34254">
        <ele>130.4</ele>
        <time>2024-08-06T08:01:52Z</time>
      </trkpt>
      <trkpt lat="43.67791" lon="3.34262">
        <ele>129.9</ele>
        <time>2024-08-06T08:01:53Z</time>
      </trkpt>
      <trkpt lat="43.67793" lon="3.3427">
        <ele>129.3</ele>
        <time>2024-08-06T08:01:54Z</time>
      </trkpt>
      <trkpt lat="43.67794" lon="3.34276">
        <ele>128.9</ele>
        <time>2024-08-06T08:01:55Z</time>
      </trkpt>
      <trkpt lat="43.67794" lon="3.34283">
        <ele>128.5</ele>
        <time>2024-08-06T08:01:56Z</time>
      </trkpt>
      <trkpt lat="43.67794" lon="3.34291">
        <ele>128</ele>
        <time>2024-08-06T08:01:57Z</time>
      </trkpt>
      <trkpt lat="43.67794" lon="3.34299">
        <ele>127.4</ele>
        <time>2024-08-06T08:01:58Z</time>
      </trkpt>
      <trkpt lat="43.67794" lon="3.34307">
        <ele>127</ele>
        <time>2024-08-06T08:01:59Z</time>
      </trkpt>
      <trkpt lat="43.67794" lon="3.34314">
        <ele>126.8</ele>
        <time>2024-08-06T08:02:00Z</time>
      </trkpt>
      <trkpt lat="43.67793" lon="3.3432">
        <ele>126.7</ele>
        <time>2024-08-06T08:02:01Z</time>
      </trkpt>
      <trkpt lat="43.67793" lon="3.34327">
        <ele>126.6</ele>
        <time>2024-08-06T08:02:02Z</time>
      </trkpt>
      <trkpt lat="43.67793" lon="3.34335">
        <ele>126.5</ele>
        <time>2024-08-06T08:02:03Z</time>
      </trkpt>
      <trkpt lat="43.67793" lon="3.34343">
        <ele>126.6</ele>
        <time>2024-08-06T08:02:04Z</time>
      </trkpt>
      <trkpt lat="43.67793" lon="3.3435">
        <ele>126.7</ele>
        <time>2024-08-06T08:02:05Z</time>
      </trkpt>
      <trkpt lat="43.67792" lon="3.34357">
        <ele>126.9</ele>
        <time>2024-08-06T08:02:06Z</time>
      </trkpt>
      <trkpt lat="43.67791" lon="3.34362">
        <ele>127.1</ele>
        <time>2024-08-06T08:02:07Z</time>
      </trkpt>
      <trkpt lat="43.6779" lon="3.34367">
        <ele>127.3</ele>
        <time>2024-08-06T08:02:08Z</time>
      </trkpt>
      <trkpt lat="43.67789" lon="3.34372">
        <ele>127.5</ele>
        <time>2024-08-06T08:02:09Z</time>
      </trkpt>
      <trkpt lat="43.67787" lon="3.34378">
        <ele>127.7</ele>
        <time>2024-08-06T08:02:10Z</time>
      </trkpt>
      <trkpt lat="43.67785" lon="3.34385">
        <ele>127.9</ele>
        <time>2024-08-06T08:02:11Z</time>
      </trkpt>
      <trkpt lat="43.67783" lon="3.34393">
        <ele>128</ele>
        <time>2024-08-06T08:02:12Z</time>
      </trkpt>
      <trkpt lat="43.67781" lon="3.34401">
        <ele>128.1</ele>
        <time>2024-08-06T08:02:13Z</time>
      </trkpt>
      <trkpt lat="43.67779" lon="3.34408">
        <ele>128</ele>
        <time>2024-08-06T08:02:14Z</time>
      </trkpt>
      <trkpt lat="43.67778" lon="3.34415">
        <ele>128</ele>
        <time>2024-08-06T08:02:15Z</time>
      </trkpt>
      <trkpt lat="43.67778" lon="3.34422">
        <ele>128.2</ele>
        <time>2024-08-06T08:02:16Z</time>
      </trkpt>
      <trkpt lat="43.67777" lon="3.34428">
        <ele>128.5</ele>
        <time>2024-08-06T08:02:17Z</time>
      </trkpt>
      <trkpt lat="43.67777" lon="3.34435">
        <ele>128.8</ele>
        <time>2024-08-06T08:02:18Z</time>
      </trkpt>
      <trkpt lat="43.67776" lon="3.34441">
        <ele>129.1</ele>
        <time>2024-08-06T08:02:19Z</time>
      </trkpt>
      <trkpt lat="43.67774" lon="3.34447">
        <ele>129.4</ele>
        <time>2024-08-06T08:02:20Z</time>
      </trkpt>
      <trkpt lat="43.67773" lon="3.34452">
        <ele>129.5</ele>
        <time>2024-08-06T08:02:21Z</time>
      </trkpt>
      <trkpt lat="43.67771" lon="3.34457">
        <ele>129.6</ele>
        <time>2024-08-06T08:02:22Z</time>
      </trkpt>
      <trkpt lat="43.67769" lon="3.3446">
        <ele>129.8</ele>
        <time>2024-08-06T08:02:23Z</time>
      </trkpt>
      <trkpt lat="43.67768" lon="3.34463">
        <ele>129.8</ele>
        <time>2024-08-06T08:02:24Z</time>
      </trkpt>
      <trkpt lat="43.67768" lon="3.34466">
        <ele>129.8</ele>
        <time>2024-08-06T08:02:25Z</time>
      </trkpt>
      <trkpt lat="43.67767" lon="3.34471">
        <ele>129.8</ele>
        <time>2024-08-06T08:02:26Z</time>
      </trkpt>
      <trkpt lat="43.67764" lon="3.34477">
        <ele>129.9</ele>
        <time>2024-08-06T08:02:27Z</time>
      </trkpt>
      <trkpt lat="43.67759" lon="3.34481">
        <ele>130.2</ele>
        <time>2024-08-06T08:02:28Z</time>
      </trkpt>
      <trkpt lat="43.67754" lon="3.34485">
        <ele>130.6</ele>
        <time>2024-08-06T08:02:29Z</time>
      </trkpt>
      <trkpt lat="43.67749" lon="3.34487">
        <ele>131.1</ele>
        <time>2024-08-06T08:02:30Z</time>
      </trkpt>
      <trkpt lat="43.67744" lon="3.34489">
        <ele>131.3</ele>
        <time>2024-08-06T08:02:31Z</time>
      </trkpt>
      <trkpt lat="43.67739" lon="3.34491">
        <ele>131.5</ele>
        <time>2024-08-06T08:02:32Z</time>
      </trkpt>
      <trkpt lat="43.67736" lon="3.34494">
        <ele>131.6</ele>
        <time>2024-08-06T08:02:33Z</time>
      </trkpt>
      <trkpt lat="43.67731" lon="3.34496">
        <ele>131.8</ele>
        <time>2024-08-06T08:02:34Z</time>
      </trkpt>
      <trkpt lat="43.67725" lon="3.34497">
        <ele>132</ele>
        <time>2024-08-06T08:02:35Z</time>
      </trkpt>
      <trkpt lat="43.6772" lon="3.34499">
        <ele>132.3</ele>
        <time>2024-08-06T08:02:36Z</time>
      </trkpt>
      <trkpt lat="43.67718" lon="3.345">
        <ele>132.5</ele>
        <time>2024-08-06T08:02:37Z</time>
      </trkpt>
      <trkpt lat="43.67716" lon="3.34501">
        <ele>132.7</ele>
        <time>2024-08-06T08:02:38Z</time>
      </trkpt>
      <trkpt lat="43.67714" lon="3.34502">
        <ele>132.8</ele>
        <time>2024-08-06T08:02:39Z</time>
      </trkpt>
      <trkpt lat="43.67713" lon="3.34504">
        <ele>132.9</ele>
        <time>2024-08-06T08:02:40Z</time>
      </trkpt>
      <trkpt lat="43.67712" lon="3.34505">
        <ele>133</ele>
        <time>2024-08-06T08:02:41Z</time>
      </trkpt>
      <trkpt lat="43.6771" lon="3.34506">
        <ele>133.1</ele>
        <time>2024-08-06T08:02:42Z</time>
      </trkpt>
      <trkpt lat="43.67709" lon="3.34507">
        <ele>133.2</ele>
        <time>2024-08-06T08:02:43Z</time>
      </trkpt>
      <trkpt lat="43.67707" lon="3.34508">
        <ele>133.3</ele>
        <time>2024-08-06T08:02:44Z</time>
      </trkpt>
      <trkpt lat="43.67706" lon="3.3451">
        <ele>133.3</ele>
        <time>2024-08-06T08:02:45Z</time>
      </trkpt>
      <trkpt lat="43.67704" lon="3.34512">
        <ele>133.4</ele>
        <time>2024-08-06T08:02:46Z</time>
      </trkpt>
      <trkpt lat="43.67702" lon="3.34513">
        <ele>133.5</ele>
        <time>2024-08-06T08:02:47Z</time>
      </trkpt>
      <trkpt lat="43.677" lon="3.34514">
        <ele>133.6</ele>
        <time>2024-08-06T08:02:48Z</time>
      </trkpt>
      <trkpt lat="43.67699" lon="3.34514">
        <ele>133.7</ele>
        <time>2024-08-06T08:02:49Z</time>
      </trkpt>
      <trkpt lat="43.67697" lon="3.34515">
        <ele>133.7</ele>
        <time>2024-08-06T08:02:50Z</time>
      </trkpt>
      <trkpt lat="43.67695" lon="3.34516">
        <ele>133.8</ele>
        <time>2024-08-06T08:02:51Z</time>
      </trkpt>
      <trkpt lat="43.67694" lon="3.34516">
        <ele>133.9</ele>
        <time>2024-08-06T08:02:52Z</time>
      </trkpt>
      <trkpt lat="43.67692" lon="3.34516">
        <ele>134</ele>
        <time>2024-08-06T08:02:53Z</time>
      </trkpt>
      <trkpt lat="43.67691" lon="3.34517">
        <ele>134</ele>
        <time>2024-08-06T08:02:54Z</time>
      </trkpt>
      <trkpt lat="43.6769" lon="3.34518">
        <ele>134</ele>
        <time>2024-08-06T08:02:55Z</time>
      </trkpt>
      <trkpt lat="43.67688" lon="3.34519">
        <ele>134.1</ele>
        <time>2024-08-06T08:02:56Z</time>
      </trkpt>
      <trkpt lat="43.67687" lon="3.34521">
        <ele>134</ele>
        <time>2024-08-06T08:02:57Z</time>
      </trkpt>
      <trkpt lat="43.67686" lon="3.34522">
        <ele>134</ele>
        <time>2024-08-06T08:02:58Z</time>
      </trkpt>
      <trkpt lat="43.67685" lon="3.34524">
        <ele>134</ele>
        <time>2024-08-06T08:02:59Z</time>
      </trkpt>
      <trkpt lat="43.67685" lon="3.34525">
        <ele>133.9</ele>
        <time>2024-08-06T08:03:00Z</time>
      </trkpt>
      <trkpt lat="43.67684" lon="3.34527">
        <ele>133.8</ele>
        <time>2024-08-06T08:03:01Z</time>
      </trkpt>
      <trkpt lat="43.67683" lon="3.34528">
        <ele>133.8</ele>
        <time>2024-08-06T08:03:02Z</time>
      </trkpt>
      <trkpt lat="43.67681" lon="3.34529">
        <ele>133.9</ele>
        <time>2024-08-06T08:03:03Z</time>
      </trkpt>
      <trkpt lat="43.6768" lon="3.34531">
        <ele>133.9</ele>
        <time>2024-08-06T08:03:04Z</time>
      </trkpt>
      <trkpt lat="43.67679" lon="3.34533">
        <ele>133.9</ele>
        <time>2024-08-06T08:03:05Z</time>
      </trkpt>
      <trkpt lat="43.67678" lon="3.34535">
        <ele>133.9</ele>
        <time>2024-08-06T08:03:06Z</time>
      </trkpt>
      <trkpt lat="43.67677" lon="3.34536">
        <ele>133.9</ele>
        <time>2024-08-06T08:03:07Z</time>
      </trkpt>
      <trkpt lat="43.67677" lon="3.34538">
        <ele>133.8</ele>
        <time>2024-08-06T08:03:08Z</time>
      </trkpt>
      <trkpt lat="43.67677" lon="3.34539">
        <ele>133.7</ele>
        <time>2024-08-06T08:03:09Z</time>
      </trkpt>
      <trkpt lat="43.67676" lon="3.34539">
        <ele>133.8</ele>
        <time>2024-08-06T08:03:10Z</time>
      </trkpt>
      <trkpt lat="43.67676" lon="3.3454">
        <ele>133.7</ele>
        <time>2024-08-06T08:03:11Z</time>
      </trkpt>
      <trkpt lat="43.67675" lon="3.34541">
        <ele>133.7</ele>
        <time>2024-08-06T08:03:12Z</time>
      </trkpt>
      <trkpt lat="43.67674" lon="3.34543">
        <ele>133.7</ele>
        <time>2024-08-06T08:03:13Z</time>
      </trkpt>
      <trkpt lat="43.67674" lon="3.34544">
        <ele>133.6</ele>
        <time>2024-08-06T08:03:14Z</time>
      </trkpt>
      <trkpt lat="43.67673" lon="3.34545">
        <ele>133.6</ele>
        <time>2024-08-06T08:03:15Z</time>
      </trkpt>
      <trkpt lat="43.67671" lon="3.34547">
        <ele>133.5</ele>
        <time>2024-08-06T08:03:16Z</time>
      </trkpt>
      <trkpt lat="43.67669" lon="3.34548">
        <ele>133.5</ele>
        <time>2024-08-06T08:03:17Z</time>
      </trkpt>
      <trkpt lat="43.67667" lon="3.34549">
        <ele>133.5</ele>
        <time>2024-08-06T08:03:18Z</time>
      </trkpt>
      <trkpt lat="43.67665" lon="3.34551">
        <ele>133.4</ele>
        <time>2024-08-06T08:03:19Z</time>
      </trkpt>
      <trkpt lat="43.67663" lon="3.34552">
        <ele>133.5</ele>
        <time>2024-08-06T08:03:20Z</time>
      </trkpt>
      <trkpt lat="43.67661" lon="3.34553">
        <ele>133.6</ele>
        <time>2024-08-06T08:03:21Z</time>
      </trkpt>
      <trkpt lat="43.6766" lon="3.34553">
        <ele>133.6</ele>
        <time>2024-08-06T08:03:22Z</time>
      </trkpt>
      <trkpt lat="43.6766" lon="3.34553">
        <ele>133.6</ele>
        <time>2024-08-06T08:03:23Z</time>
      </trkpt>
      <trkpt lat="43.67657" lon="3.34554">
        <ele>133.8</ele>
        <time>2024-08-06T08:03:24Z</time>
      </trkpt>
      <trkpt lat="43.67655" lon="3.34555">
        <ele>133.9</ele>
        <time>2024-08-06T08:03:25Z</time>
      </trkpt>
      <trkpt lat="43.67654" lon="3.34556">
        <ele>133.9</ele>
        <time>2024-08-06T08:03:26Z</time>
      </trkpt>
      <trkpt lat="43.67653" lon="3.34556">
        <ele>134</ele>
        <time>2024-08-06T08:03:27Z</time>
      </trkpt>
      <trkpt lat="43.67653" lon="3.34556">
        <ele>134</ele>
        <time>2024-08-06T08:03:28Z</time>
      </trkpt>
      <trkpt lat="43.67653" lon="3.34556">
        <ele>134</ele>
        <time>2024-08-06T08:03:29Z</time>
      </trkpt>
      <trkpt lat="43.67652" lon="3.34557">
        <ele>134.1</ele>
        <time>2024-08-06T08:03:30Z</time>
      </trkpt>
      <trkpt lat="43.67649" lon="3.34563">
        <ele>134.4</ele>
        <time>2024-08-06T08:03:49Z</time>
      </trkpt>
      <trkpt lat="43.67647" lon="3.34567">
        <ele>134.5</ele>
        <time>2024-08-06T08:03:50Z</time>
      </trkpt>
      <trkpt lat="43.67646" lon="3.34572">
        <ele>134.6</ele>
        <time>2024-08-06T08:03:51Z</time>
      </trkpt>
      <trkpt lat="43.67644" lon="3.34577">
        <ele>134.8</ele>
        <time>2024-08-06T08:03:52Z</time>
      </trkpt>
      <trkpt lat="43.67642" lon="3.34581">
        <ele>134.9</ele>
        <time>2024-08-06T08:03:53Z</time>
      </trkpt>
      <trkpt lat="43.6764" lon="3.34584">
        <ele>135</ele>
        <time>2024-08-06T08:03:54Z</time>
      </trkpt>
      <trkpt lat="43.67638" lon="3.34586">
        <ele>135.1</ele>
        <time>2024-08-06T08:03:55Z</time>
      </trkpt>
      <trkpt lat="43.67636" lon="3.34586">
        <ele>135.2</ele>
        <time>2024-08-06T08:03:56Z</time>
      </trkpt>
      <trkpt lat="43.67635" lon="3.34586">
        <ele>135.2</ele>
        <time>2024-08-06T08:03:57Z</time>
      </trkpt>
      <trkpt lat="43.67634" lon="3.34586">
        <ele>135.3</ele>
        <time>2024-08-06T08:03:58Z</time>
      </trkpt>
      <trkpt lat="43.67633" lon="3.34585">
        <ele>135.3</ele>
        <time>2024-08-06T08:03:59Z</time>
      </trkpt>
      <trkpt lat="43.67631" lon="3.34585">
        <ele>135.3</ele>
        <time>2024-08-06T08:04:00Z</time>
      </trkpt>
      <trkpt lat="43.67629" lon="3.34585">
        <ele>135.4</ele>
        <time>2024-08-06T08:04:01Z</time>
      </trkpt>
      <trkpt lat="43.67627" lon="3.34585">
        <ele>135.5</ele>
        <time>2024-08-06T08:04:02Z</time>
      </trkpt>
      <trkpt lat="43.67625" lon="3.34585">
        <ele>135.6</ele>
        <time>2024-08-06T08:04:03Z</time>
      </trkpt>
      <trkpt lat="43.67623" lon="3.34587">
        <ele>135.7</ele>
        <time>2024-08-06T08:04:04Z</time>
      </trkpt>
      <trkpt lat="43.67621" lon="3.34589">
        <ele>135.8</ele>
        <time>2024-08-06T08:04:05Z</time>
      </trkpt>
      <trkpt lat="43.67617" lon="3.34591">
        <ele>136.1</ele>
        <time>2024-08-06T08:04:06Z</time>
      </trkpt>
      <trkpt lat="43.67614" lon="3.34593">
        <ele>136.2</ele>
        <time>2024-08-06T08:04:07Z</time>
      </trkpt>
      <trkpt lat="43.6761" lon="3.34596">
        <ele>136.5</ele>
        <time>2024-08-06T08:04:08Z</time>
      </trkpt>
      <trkpt lat="43.67607" lon="3.34599">
        <ele>136.7</ele>
        <time>2024-08-06T08:04:09Z</time>
      </trkpt>
      <trkpt lat="43.67603" lon="3.34603">
        <ele>137</ele>
        <time>2024-08-06T08:04:10Z</time>
      </trkpt>
      <trkpt lat="43.67599" lon="3.34607">
        <ele>137.3</ele>
        <time>2024-08-06T08:04:11Z</time>
      </trkpt>
      <trkpt lat="43.67595" lon="3.34611">
        <ele>137.6</ele>
        <time>2024-08-06T08:04:12Z</time>
      </trkpt>
      <trkpt lat="43.6759" lon="3.34615">
        <ele>137.8</ele>
        <time>2024-08-06T08:04:13Z</time>
      </trkpt>
      <trkpt lat="43.67586" lon="3.34618">
        <ele>137.9</ele>
        <time>2024-08-06T08:04:14Z</time>
      </trkpt>
      <trkpt lat="43.67583" lon="3.3462">
        <ele>138</ele>
        <time>2024-08-06T08:04:15Z</time>
      </trkpt>
      <trkpt lat="43.6758" lon="3.34622">
        <ele>138.1</ele>
        <time>2024-08-06T08:04:16Z</time>
      </trkpt>
      <trkpt lat="43.67577" lon="3.34625">
        <ele>138.2</ele>
        <time>2024-08-06T08:04:17Z</time>
      </trkpt>
      <trkpt lat="43.67574" lon="3.34628">
        <ele>138.3</ele>
        <time>2024-08-06T08:04:18Z</time>
      </trkpt>
      <trkpt lat="43.67571" lon="3.34632">
        <ele>138.4</ele>
        <time>2024-08-06T08:04:19Z</time>
      </trkpt>
      <trkpt lat="43.67568" lon="3.34635">
        <ele>138.6</ele>
        <time>2024-08-06T08:04:20Z</time>
      </trkpt>
      <trkpt lat="43.67566" lon="3.34638">
        <ele>138.6</ele>
        <time>2024-08-06T08:04:21Z</time>
      </trkpt>
      <trkpt lat="43.67564" lon="3.34642">
        <ele>138.7</ele>
        <time>2024-08-06T08:04:22Z</time>
      </trkpt>
      <trkpt lat="43.67561" lon="3.34647">
        <ele>138.7</ele>
        <time>2024-08-06T08:04:23Z</time>
      </trkpt>
      <trkpt lat="43.6756" lon="3.34651">
        <ele>138.8</ele>
        <time>2024-08-06T08:04:24Z</time>
      </trkpt>
      <trkpt lat="43.67558" lon="3.34656">
        <ele>138.9</ele>
        <time>2024-08-06T08:04:25Z</time>
      </trkpt>
      <trkpt lat="43.67556" lon="3.3466">
        <ele>139</ele>
        <time>2024-08-06T08:04:26Z</time>
      </trkpt>
      <trkpt lat="43.67555" lon="3.34665">
        <ele>139</ele>
        <time>2024-08-06T08:04:27Z</time>
      </trkpt>
      <trkpt lat="43.67553" lon="3.3467">
        <ele>139</ele>
        <time>2024-08-06T08:04:28Z</time>
      </trkpt>
      <trkpt lat="43.67552" lon="3.34674">
        <ele>138.9</ele>
        <time>2024-08-06T08:04:29Z</time>
      </trkpt>
      <trkpt lat="43.6755" lon="3.34678">
        <ele>138.8</ele>
        <time>2024-08-06T08:04:30Z</time>
      </trkpt>
      <trkpt lat="43.67549" lon="3.34682">
        <ele>138.7</ele>
        <time>2024-08-06T08:04:31Z</time>
      </trkpt>
      <trkpt lat="43.67547" lon="3.34687">
        <ele>138.6</ele>
        <time>2024-08-06T08:04:32Z</time>
      </trkpt>
      <trkpt lat="43.67545" lon="3.34692">
        <ele>138.5</ele>
        <time>2024-08-06T08:04:33Z</time>
      </trkpt>
      <trkpt lat="43.67541" lon="3.34696">
        <ele>138.6</ele>
        <time>2024-08-06T08:04:34Z</time>
      </trkpt>
      <trkpt lat="43.67538" lon="3.34699">
        <ele>138.7</ele>
        <time>2024-08-06T08:04:35Z</time>
      </trkpt>
      <trkpt lat="43.67534" lon="3.34703">
        <ele>139</ele>
        <time>2024-08-06T08:04:36Z</time>
      </trkpt>
      <trkpt lat="43.67532" lon="3.34707">
        <ele>139.2</ele>
        <time>2024-08-06T08:04:37Z</time>
      </trkpt>
      <trkpt lat="43.6753" lon="3.34712">
        <ele>139.5</ele>
        <time>2024-08-06T08:04:38Z</time>
      </trkpt>
      <trkpt lat="43.67528" lon="3.34718">
        <ele>139.8</ele>
        <time>2024-08-06T08:04:39Z</time>
      </trkpt>
      <trkpt lat="43.67524" lon="3.34722">
        <ele>140.3</ele>
        <time>2024-08-06T08:04:40Z</time>
      </trkpt>
      <trkpt lat="43.67521" lon="3.34726">
        <ele>140.4</ele>
        <time>2024-08-06T08:04:41Z</time>
      </trkpt>
      <trkpt lat="43.67518" lon="3.3473">
        <ele>140.5</ele>
        <time>2024-08-06T08:04:42Z</time>
      </trkpt>
      <trkpt lat="43.67518" lon="3.34735">
        <ele>140.4</ele>
        <time>2024-08-06T08:04:43Z</time>
      </trkpt>
      <trkpt lat="43.67518" lon="3.34739">
        <ele>140.3</ele>
        <time>2024-08-06T08:04:44Z</time>
      </trkpt>
      <trkpt lat="43.67518" lon="3.34744">
        <ele>140.2</ele>
        <time>2024-08-06T08:04:45Z</time>
      </trkpt>
      <trkpt lat="43.67518" lon="3.3475">
        <ele>140.1</ele>
        <time>2024-08-06T08:04:46Z</time>
      </trkpt>
      <trkpt lat="43.67517" lon="3.34757">
        <ele>139.7</ele>
        <time>2024-08-06T08:04:47Z</time>
      </trkpt>
      <trkpt lat="43.67516" lon="3.34764">
        <ele>139.3</ele>
        <time>2024-08-06T08:04:48Z</time>
      </trkpt>
      <trkpt lat="43.67516" lon="3.3477">
        <ele>138.8</ele>
        <time>2024-08-06T08:04:49Z</time>
      </trkpt>
      <trkpt lat="43.67516" lon="3.34777">
        <ele>138.3</ele>
        <time>2024-08-06T08:04:50Z</time>
      </trkpt>
      <trkpt lat="43.67515" lon="3.34783">
        <ele>138.4</ele>
        <time>2024-08-06T08:04:51Z</time>
      </trkpt>
      <trkpt lat="43.67514" lon="3.3479">
        <ele>138.5</ele>
        <time>2024-08-06T08:04:52Z</time>
      </trkpt>
      <trkpt lat="43.67513" lon="3.34797">
        <ele>138.6</ele>
        <time>2024-08-06T08:04:53Z</time>
      </trkpt>
      <trkpt lat="43.67513" lon="3.34805">
        <ele>138.6</ele>
        <time>2024-08-06T08:04:54Z</time>
      </trkpt>
      <trkpt lat="43.67514" lon="3.34812">
        <ele>138.6</ele>
        <time>2024-08-06T08:04:55Z</time>
      </trkpt>
      <trkpt lat="43.67514" lon="3.34818">
        <ele>138.7</ele>
        <time>2024-08-06T08:04:56Z</time>
      </trkpt>
      <trkpt lat="43.67515" lon="3.34822">
        <ele>138.7</ele>
        <time>2024-08-06T08:04:57Z</time>
      </trkpt>
      <trkpt lat="43.67516" lon="3.34827">
        <ele>138.6</ele>
        <time>2024-08-06T08:04:58Z</time>
      </trkpt>
      <trkpt lat="43.67516" lon="3.34834">
        <ele>138.7</ele>
        <time>2024-08-06T08:04:59Z</time>
      </trkpt>
      <trkpt lat="43.67516" lon="3.34841">
        <ele>138.6</ele>
        <time>2024-08-06T08:05:00Z</time>
      </trkpt>
      <trkpt lat="43.67514" lon="3.34848">
        <ele>138.7</ele>
        <time>2024-08-06T08:05:01Z</time>
      </trkpt>
      <trkpt lat="43.67511" lon="3.34855">
        <ele>138.9</ele>
        <time>2024-08-06T08:05:02Z</time>
      </trkpt>
      <trkpt lat="43.67509" lon="3.34861">
        <ele>139</ele>
        <time>2024-08-06T08:05:03Z</time>
      </trkpt>
      <trkpt lat="43.67506" lon="3.34867">
        <ele>139.2</ele>
        <time>2024-08-06T08:05:04Z</time>
      </trkpt>
      <trkpt lat="43.67502" lon="3.34871">
        <ele>139.5</ele>
        <time>2024-08-06T08:05:05Z</time>
      </trkpt>
      <trkpt lat="43.67498" lon="3.34875">
        <ele>139.8</ele>
        <time>2024-08-06T08:05:06Z</time>
      </trkpt>
      <trkpt lat="43.67495" lon="3.34878">
        <ele>140.1</ele>
        <time>2024-08-06T08:05:07Z</time>
      </trkpt>
      <trkpt lat="43.67492" lon="3.34882">
        <ele>140.4</ele>
        <time>2024-08-06T08:05:08Z</time>
      </trkpt>
      <trkpt lat="43.67489" lon="3.34886">
        <ele>140.7</ele>
        <time>2024-08-06T08:05:09Z</time>
      </trkpt>
      <trkpt lat="43.67485" lon="3.34889">
        <ele>141.2</ele>
        <time>2024-08-06T08:05:10Z</time>
      </trkpt>
      <trkpt lat="43.67481" lon="3.3489">
        <ele>141.7</ele>
        <time>2024-08-06T08:05:11Z</time>
      </trkpt>
      <trkpt lat="43.67477" lon="3.34891">
        <ele>142.2</ele>
        <time>2024-08-06T08:05:12Z</time>
      </trkpt>
      <trkpt lat="43.67474" lon="3.34896">
        <ele>142.2</ele>
        <time>2024-08-06T08:05:13Z</time>
      </trkpt>
      <trkpt lat="43.67471" lon="3.349">
        <ele>142.4</ele>
        <time>2024-08-06T08:05:14Z</time>
      </trkpt>
      <trkpt lat="43.67468" lon="3.34902">
        <ele>142.7</ele>
        <time>2024-08-06T08:05:15Z</time>
      </trkpt>
      <trkpt lat="43.67465" lon="3.34904">
        <ele>143.1</ele>
        <time>2024-08-06T08:05:16Z</time>
      </trkpt>
      <trkpt lat="43.67462" lon="3.34906">
        <ele>143.4</ele>
        <time>2024-08-06T08:05:17Z</time>
      </trkpt>
      <trkpt lat="43.6746" lon="3.34909">
        <ele>143.4</ele>
        <time>2024-08-06T08:05:18Z</time>
      </trkpt>
      <trkpt lat="43.67458" lon="3.34912">
        <ele>143.5</ele>
        <time>2024-08-06T08:05:19Z</time>
      </trkpt>
      <trkpt lat="43.67456" lon="3.34915">
        <ele>143.5</ele>
        <time>2024-08-06T08:05:20Z</time>
      </trkpt>
      <trkpt lat="43.67455" lon="3.34918">
        <ele>143.4</ele>
        <time>2024-08-06T08:05:21Z</time>
      </trkpt>
      <trkpt lat="43.67454" lon="3.34921">
        <ele>143.4</ele>
        <time>2024-08-06T08:05:22Z</time>
      </trkpt>
      <trkpt lat="43.67453" lon="3.34924">
        <ele>143.3</ele>
        <time>2024-08-06T08:05:23Z</time>
      </trkpt>
      <trkpt lat="43.67452" lon="3.34927">
        <ele>143.3</ele>
        <time>2024-08-06T08:05:24Z</time>
      </trkpt>
      <trkpt lat="43.6745" lon="3.34929">
        <ele>143.4</ele>
        <time>2024-08-06T08:05:25Z</time>
      </trkpt>
      <trkpt lat="43.67448" lon="3.34932">
        <ele>143.5</ele>
        <time>2024-08-06T08:05:26Z</time>
      </trkpt>
      <trkpt lat="43.67446" lon="3.34935">
        <ele>143.5</ele>
        <time>2024-08-06T08:05:27Z</time>
      </trkpt>
      <trkpt lat="43.67443" lon="3.34938">
        <ele>143.6</ele>
        <time>2024-08-06T08:05:28Z</time>
      </trkpt>
      <trkpt lat="43.67439" lon="3.3494">
        <ele>143.7</ele>
        <time>2024-08-06T08:05:29Z</time>
      </trkpt>
      <trkpt lat="43.67436" lon="3.34943">
        <ele>143.7</ele>
        <time>2024-08-06T08:05:30Z</time>
      </trkpt>
      <trkpt lat="43.67433" lon="3.34946">
        <ele>143.7</ele>
        <time>2024-08-06T08:05:31Z</time>
      </trkpt>
      <trkpt lat="43.67431" lon="3.34948">
        <ele>143.8</ele>
        <time>2024-08-06T08:05:32Z</time>
      </trkpt>
      <trkpt lat="43.6743" lon="3.3495">
        <ele>143.7</ele>
        <time>2024-08-06T08:05:33Z</time>
      </trkpt>
      <trkpt lat="43.67427" lon="3.34953">
        <ele>143.8</ele>
        <time>2024-08-06T08:05:34Z</time>
      </trkpt>
      <trkpt lat="43.67426" lon="3.34957">
        <ele>143.6</ele>
        <time>2024-08-06T08:05:35Z</time>
      </trkpt>
      <trkpt lat="43.67424" lon="3.34961">
        <ele>143.4</ele>
        <time>2024-08-06T08:05:36Z</time>
      </trkpt>
      <trkpt lat="43.67422" lon="3.34964">
        <ele>143.3</ele>
        <time>2024-08-06T08:05:37Z</time>
      </trkpt>
      <trkpt lat="43.6742" lon="3.34968">
        <ele>143.2</ele>
        <time>2024-08-06T08:05:38Z</time>
      </trkpt>
      <trkpt lat="43.67418" lon="3.34971">
        <ele>143</ele>
        <time>2024-08-06T08:05:39Z</time>
      </trkpt>
      <trkpt lat="43.67416" lon="3.34974">
        <ele>143</ele>
        <time>2024-08-06T08:05:40Z</time>
      </trkpt>
      <trkpt lat="43.67414" lon="3.34977">
        <ele>143.1</ele>
        <time>2024-08-06T08:05:41Z</time>
      </trkpt>
      <trkpt lat="43.67412" lon="3.34979">
        <ele>143.1</ele>
        <time>2024-08-06T08:05:42Z</time>
      </trkpt>
      <trkpt lat="43.6741" lon="3.34981">
        <ele>143.2</ele>
        <time>2024-08-06T08:05:43Z</time>
      </trkpt>
      <trkpt lat="43.67408" lon="3.34984">
        <ele>143.2</ele>
        <time>2024-08-06T08:05:44Z</time>
      </trkpt>
      <trkpt lat="43.67406" lon="3.34987">
        <ele>143.2</ele>
        <time>2024-08-06T08:05:45Z</time>
      </trkpt>
      <trkpt lat="43.67404" lon="3.34991">
        <ele>143.1</ele>
        <time>2024-08-06T08:05:46Z</time>
      </trkpt>
      <trkpt lat="43.67401" lon="3.34993">
        <ele>143.1</ele>
        <time>2024-08-06T08:05:47Z</time>
      </trkpt>
      <trkpt lat="43.67398" lon="3.34995">
        <ele>143.1</ele>
        <time>2024-08-06T08:05:48Z</time>
      </trkpt>
      <trkpt lat="43.67395" lon="3.34996">
        <ele>143.1</ele>
        <time>2024-08-06T08:05:49Z</time>
      </trkpt>
      <trkpt lat="43.67393" lon="3.34998">
        <ele>143.1</ele>
        <time>2024-08-06T08:05:50Z</time>
      </trkpt>
      <trkpt lat="43.67391" lon="3.35">
        <ele>143</ele>
        <time>2024-08-06T08:05:51Z</time>
      </trkpt>
      <trkpt lat="43.6739" lon="3.35002">
        <ele>142.9</ele>
        <time>2024-08-06T08:05:52Z</time>
      </trkpt>
      <trkpt lat="43.67389" lon="3.35004">
        <ele>142.9</ele>
        <time>2024-08-06T08:05:53Z</time>
      </trkpt>
      <trkpt lat="43.67387" lon="3.35007">
        <ele>142.7</ele>
        <time>2024-08-06T08:05:54Z</time>
      </trkpt>
      <trkpt lat="43.67386" lon="3.3501">
        <ele>142.5</ele>
        <time>2024-08-06T08:05:55Z</time>
      </trkpt>
      <trkpt lat="43.67386" lon="3.35015">
        <ele>142.4</ele>
        <time>2024-08-06T08:05:56Z</time>
      </trkpt>
      <trkpt lat="43.67385" lon="3.3502">
        <ele>142.1</ele>
        <time>2024-08-06T08:05:57Z</time>
      </trkpt>
      <trkpt lat="43.67384" lon="3.35025">
        <ele>141.9</ele>
        <time>2024-08-06T08:05:58Z</time>
      </trkpt>
      <trkpt lat="43.67383" lon="3.3503">
        <ele>141.7</ele>
        <time>2024-08-06T08:05:59Z</time>
      </trkpt>
      <trkpt lat="43.67383" lon="3.35035">
        <ele>141.5</ele>
        <time>2024-08-06T08:06:00Z</time>
      </trkpt>
      <trkpt lat="43.67383" lon="3.3504">
        <ele>141.3</ele>
        <time>2024-08-06T08:06:01Z</time>
      </trkpt>
      <trkpt lat="43.67384" lon="3.35045">
        <ele>141.2</ele>
        <time>2024-08-06T08:06:02Z</time>
      </trkpt>
      <trkpt lat="43.67384" lon="3.3505">
        <ele>141</ele>
        <time>2024-08-06T08:06:03Z</time>
      </trkpt>
      <trkpt lat="43.67384" lon="3.35056">
        <ele>140.8</ele>
        <time>2024-08-06T08:06:04Z</time>
      </trkpt>
      <trkpt lat="43.67383" lon="3.35063">
        <ele>140.5</ele>
        <time>2024-08-06T08:06:05Z</time>
      </trkpt>
      <trkpt lat="43.67382" lon="3.35071">
        <ele>140.2</ele>
        <time>2024-08-06T08:06:06Z</time>
      </trkpt>
      <trkpt lat="43.67379" lon="3.35077">
        <ele>139.9</ele>
        <time>2024-08-06T08:06:07Z</time>
      </trkpt>
      <trkpt lat="43.67376" lon="3.35081">
        <ele>139.6</ele>
        <time>2024-08-06T08:06:08Z</time>
      </trkpt>
      <trkpt lat="43.67371" lon="3.35086">
        <ele>139.3</ele>
        <time>2024-08-06T08:06:09Z</time>
      </trkpt>
      <trkpt lat="43.67366" lon="3.3509">
        <ele>139.1</ele>
        <time>2024-08-06T08:06:10Z</time>
      </trkpt>
      <trkpt lat="43.67361" lon="3.35095">
        <ele>139</ele>
        <time>2024-08-06T08:06:11Z</time>
      </trkpt>
      <trkpt lat="43.67359" lon="3.35101">
        <ele>139.1</ele>
        <time>2024-08-06T08:06:12Z</time>
      </trkpt>
      <trkpt lat="43.67357" lon="3.35107">
        <ele>139.2</ele>
        <time>2024-08-06T08:06:13Z</time>
      </trkpt>
      <trkpt lat="43.67355" lon="3.35113">
        <ele>139.2</ele>
        <time>2024-08-06T08:06:14Z</time>
      </trkpt>
      <trkpt lat="43.67353" lon="3.35116">
        <ele>139.2</ele>
        <time>2024-08-06T08:06:15Z</time>
      </trkpt>
      <trkpt lat="43.67353" lon="3.35118">
        <ele>139.1</ele>
        <time>2024-08-06T08:06:16Z</time>
      </trkpt>
      <trkpt lat="43.67352" lon="3.3512">
        <ele>139.1</ele>
        <time>2024-08-06T08:06:17Z</time>
      </trkpt>
      <trkpt lat="43.67351" lon="3.35122">
        <ele>139.1</ele>
        <time>2024-08-06T08:06:18Z</time>
      </trkpt>
      <trkpt lat="43.67351" lon="3.35124">
        <ele>139.1</ele>
        <time>2024-08-06T08:06:19Z</time>
      </trkpt>
      <trkpt lat="43.6735" lon="3.35127">
        <ele>139.1</ele>
        <time>2024-08-06T08:06:20Z</time>
      </trkpt>
      <trkpt lat="43.6735" lon="3.3513">
        <ele>139</ele>
        <time>2024-08-06T08:06:21Z</time>
      </trkpt>
      <trkpt lat="43.67348" lon="3.35134">
        <ele>139</ele>
        <time>2024-08-06T08:06:22Z</time>
      </trkpt>
      <trkpt lat="43.67347" lon="3.35139">
        <ele>139</ele>
        <time>2024-08-06T08:06:23Z</time>
      </trkpt>
      <trkpt lat="43.67345" lon="3.35144">
        <ele>139.1</ele>
        <time>2024-08-06T08:06:24Z</time>
      </trkpt>
      <trkpt lat="43.67343" lon="3.35148">
        <ele>139.1</ele>
        <time>2024-08-06T08:06:25Z</time>
      </trkpt>
      <trkpt lat="43.67341" lon="3.35152">
        <ele>139.1</ele>
        <time>2024-08-06T08:06:26Z</time>
      </trkpt>
      <trkpt lat="43.67339" lon="3.35156">
        <ele>139.1</ele>
        <time>2024-08-06T08:06:27Z</time>
      </trkpt>
      <trkpt lat="43.67337" lon="3.3516">
        <ele>139.1</ele>
        <time>2024-08-06T08:06:28Z</time>
      </trkpt>
      <trkpt lat="43.67335" lon="3.35164">
        <ele>139</ele>
        <time>2024-08-06T08:06:29Z</time>
      </trkpt>
      <trkpt lat="43.67334" lon="3.35168">
        <ele>139</ele>
        <time>2024-08-06T08:06:30Z</time>
      </trkpt>
      <trkpt lat="43.67333" lon="3.35173">
        <ele>139</ele>
        <time>2024-08-06T08:06:31Z</time>
      </trkpt>
      <trkpt lat="43.67331" lon="3.35177">
        <ele>139.1</ele>
        <time>2024-08-06T08:06:32Z</time>
      </trkpt>
      <trkpt lat="43.67328" lon="3.35181">
        <ele>139.2</ele>
        <time>2024-08-06T08:06:33Z</time>
      </trkpt>
      <trkpt lat="43.67324" lon="3.35183">
        <ele>139.3</ele>
        <time>2024-08-06T08:06:34Z</time>
      </trkpt>
      <trkpt lat="43.67321" lon="3.35186">
        <ele>139.4</ele>
        <time>2024-08-06T08:06:35Z</time>
      </trkpt>
      <trkpt lat="43.67317" lon="3.35188">
        <ele>139.6</ele>
        <time>2024-08-06T08:06:36Z</time>
      </trkpt>
      <trkpt lat="43.67313" lon="3.3519">
        <ele>139.7</ele>
        <time>2024-08-06T08:06:37Z</time>
      </trkpt>
      <trkpt lat="43.67309" lon="3.35192">
        <ele>139.9</ele>
        <time>2024-08-06T08:06:38Z</time>
      </trkpt>
      <trkpt lat="43.67305" lon="3.35196">
        <ele>140</ele>
        <time>2024-08-06T08:06:39Z</time>
      </trkpt>
      <trkpt lat="43.67302" lon="3.352">
        <ele>140.1</ele>
        <time>2024-08-06T08:06:40Z</time>
      </trkpt>
      <trkpt lat="43.67297" lon="3.35203">
        <ele>140.3</ele>
        <time>2024-08-06T08:06:41Z</time>
      </trkpt>
      <trkpt lat="43.67293" lon="3.35207">
        <ele>140.5</ele>
        <time>2024-08-06T08:06:42Z</time>
      </trkpt>
      <trkpt lat="43.67289" lon="3.3521">
        <ele>140.6</ele>
        <time>2024-08-06T08:06:43Z</time>
      </trkpt>
      <trkpt lat="43.67284" lon="3.35212">
        <ele>140.8</ele>
        <time>2024-08-06T08:06:44Z</time>
      </trkpt>
      <trkpt lat="43.67279" lon="3.35213">
        <ele>141</ele>
        <time>2024-08-06T08:06:45Z</time>
      </trkpt>
      <trkpt lat="43.67275" lon="3.35216">
        <ele>141.1</ele>
        <time>2024-08-06T08:06:46Z</time>
      </trkpt>
      <trkpt lat="43.67272" lon="3.35219">
        <ele>141.2</ele>
        <time>2024-08-06T08:06:47Z</time>
      </trkpt>
      <trkpt lat="43.67269" lon="3.35221">
        <ele>141.3</ele>
        <time>2024-08-06T08:06:48Z</time>
      </trkpt>
      <trkpt lat="43.67265" lon="3.35224">
        <ele>141.4</ele>
        <time>2024-08-06T08:06:49Z</time>
      </trkpt>
      <trkpt lat="43.67262" lon="3.35226">
        <ele>141.5</ele>
        <time>2024-08-06T08:06:50Z</time>
      </trkpt>
      <trkpt lat="43.67259" lon="3.35228">
        <ele>141.6</ele>
        <time>2024-08-06T08:06:51Z</time>
      </trkpt>
      <trkpt lat="43.67256" lon="3.3523">
        <ele>141.7</ele>
        <time>2024-08-06T08:06:52Z</time>
      </trkpt>
      <trkpt lat="43.67253" lon="3.35233">
        <ele>141.9</ele>
        <time>2024-08-06T08:06:53Z</time>
      </trkpt>
      <trkpt lat="43.67248" lon="3.35236">
        <ele>142</ele>
        <time>2024-08-06T08:06:54Z</time>
      </trkpt>
      <trkpt lat="43.67244" lon="3.3524">
        <ele>142</ele>
        <time>2024-08-06T08:06:55Z</time>
      </trkpt>
      <trkpt lat="43.6724" lon="3.35243">
        <ele>142</ele>
        <time>2024-08-06T08:06:56Z</time>
      </trkpt>
      <trkpt lat="43.67237" lon="3.35247">
        <ele>142</ele>
        <time>2024-08-06T08:06:57Z</time>
      </trkpt>
      <trkpt lat="43.67235" lon="3.3525">
        <ele>142</ele>
        <time>2024-08-06T08:06:58Z</time>
      </trkpt>
      <trkpt lat="43.67233" lon="3.35253">
        <ele>142</ele>
        <time>2024-08-06T08:06:59Z</time>
      </trkpt>
      <trkpt lat="43.6723" lon="3.35256">
        <ele>141.9</ele>
        <time>2024-08-06T08:07:00Z</time>
      </trkpt>
      <trkpt lat="43.67227" lon="3.3526">
        <ele>141.9</ele>
        <time>2024-08-06T08:07:01Z</time>
      </trkpt>
      <trkpt lat="43.67225" lon="3.35263">
        <ele>142</ele>
        <time>2024-08-06T08:07:02Z</time>
      </trkpt>
      <trkpt lat="43.67222" lon="3.35266">
        <ele>142</ele>
        <time>2024-08-06T08:07:03Z</time>
      </trkpt>
      <trkpt lat="43.6722" lon="3.3527">
        <ele>142.1</ele>
        <time>2024-08-06T08:07:04Z</time>
      </trkpt>
      <trkpt lat="43.67218" lon="3.35275">
        <ele>142.2</ele>
        <time>2024-08-06T08:07:05Z</time>
      </trkpt>
      <trkpt lat="43.67215" lon="3.3528">
        <ele>142.2</ele>
        <time>2024-08-06T08:07:06Z</time>
      </trkpt>
      <trkpt lat="43.67213" lon="3.35284">
        <ele>142.3</ele>
        <time>2024-08-06T08:07:07Z</time>
      </trkpt>
      <trkpt lat="43.67211" lon="3.35288">
        <ele>142.3</ele>
        <time>2024-08-06T08:07:08Z</time>
      </trkpt>
      <trkpt lat="43.67208" lon="3.35292">
        <ele>142.2</ele>
        <time>2024-08-06T08:07:09Z</time>
      </trkpt>
      <trkpt lat="43.67207" lon="3.35296">
        <ele>142.2</ele>
        <time>2024-08-06T08:07:10Z</time>
      </trkpt>
      <trkpt lat="43.67205" lon="3.35299">
        <ele>142.1</ele>
        <time>2024-08-06T08:07:11Z</time>
      </trkpt>
      <trkpt lat="43.67205" lon="3.35303">
        <ele>142.1</ele>
        <time>2024-08-06T08:07:12Z</time>
      </trkpt>
      <trkpt lat="43.67203" lon="3.35307">
        <ele>142</ele>
        <time>2024-08-06T08:07:13Z</time>
      </trkpt>
      <trkpt lat="43.67201" lon="3.3531">
        <ele>142</ele>
        <time>2024-08-06T08:07:14Z</time>
      </trkpt>
      <trkpt lat="43.672" lon="3.35314">
        <ele>142</ele>
        <time>2024-08-06T08:07:15Z</time>
      </trkpt>
      <trkpt lat="43.67198" lon="3.35317">
        <ele>142</ele>
        <time>2024-08-06T08:07:16Z</time>
      </trkpt>
      <trkpt lat="43.67196" lon="3.3532">
        <ele>142</ele>
        <time>2024-08-06T08:07:17Z</time>
      </trkpt>
      <trkpt lat="43.67193" lon="3.35322">
        <ele>142.1</ele>
        <time>2024-08-06T08:07:18Z</time>
      </trkpt>
      <trkpt lat="43.67191" lon="3.35324">
        <ele>142.2</ele>
        <time>2024-08-06T08:07:19Z</time>
      </trkpt>
      <trkpt lat="43.67188" lon="3.35324">
        <ele>142.3</ele>
        <time>2024-08-06T08:07:20Z</time>
      </trkpt>
      <trkpt lat="43.67185" lon="3.35325">
        <ele>142.4</ele>
        <time>2024-08-06T08:07:21Z</time>
      </trkpt>
      <trkpt lat="43.67183" lon="3.35325">
        <ele>142.5</ele>
        <time>2024-08-06T08:07:22Z</time>
      </trkpt>
      <trkpt lat="43.6718" lon="3.35324">
        <ele>142.7</ele>
        <time>2024-08-06T08:07:23Z</time>
      </trkpt>
      <trkpt lat="43.67177" lon="3.35323">
        <ele>142.9</ele>
        <time>2024-08-06T08:07:24Z</time>
      </trkpt>
      <trkpt lat="43.67174" lon="3.35321">
        <ele>143.1</ele>
        <time>2024-08-06T08:07:25Z</time>
      </trkpt>
      <trkpt lat="43.6717" lon="3.35319">
        <ele>143.3</ele>
        <time>2024-08-06T08:07:26Z</time>
      </trkpt>
      <trkpt lat="43.67166" lon="3.35316">
        <ele>143.7</ele>
        <time>2024-08-06T08:07:27Z</time>
      </trkpt>
      <trkpt lat="43.67164" lon="3.35313">
        <ele>143.9</ele>
        <time>2024-08-06T08:07:28Z</time>
      </trkpt>
      <trkpt lat="43.67161" lon="3.35311">
        <ele>144.3</ele>
        <time>2024-08-06T08:07:29Z</time>
      </trkpt>
      <trkpt lat="43.67158" lon="3.35311">
        <ele>144.5</ele>
        <time>2024-08-06T08:07:30Z</time>
      </trkpt>
      <trkpt lat="43.67156" lon="3.35313">
        <ele>144.5</ele>
        <time>2024-08-06T08:07:31Z</time>
      </trkpt>
      <trkpt lat="43.67152" lon="3.35315">
        <ele>144.5</ele>
        <time>2024-08-06T08:07:32Z</time>
      </trkpt>
      <trkpt lat="43.67148" lon="3.35316">
        <ele>144.6</ele>
        <time>2024-08-06T08:07:33Z</time>
      </trkpt>
      <trkpt lat="43.67144" lon="3.35317">
        <ele>144.7</ele>
        <time>2024-08-06T08:07:34Z</time>
      </trkpt>
      <trkpt lat="43.6714" lon="3.35318">
        <ele>144.7</ele>
        <time>2024-08-06T08:07:35Z</time>
      </trkpt>
      <trkpt lat="43.67137" lon="3.35318">
        <ele>144.9</ele>
        <time>2024-08-06T08:07:36Z</time>
      </trkpt>
      <trkpt lat="43.67133" lon="3.35318">
        <ele>145.1</ele>
        <time>2024-08-06T08:07:37Z</time>
      </trkpt>
      <trkpt lat="43.6713" lon="3.35319">
        <ele>145.1</ele>
        <time>2024-08-06T08:07:38Z</time>
      </trkpt>
      <trkpt lat="43.67127" lon="3.35319">
        <ele>145.2</ele>
        <time>2024-08-06T08:07:39Z</time>
      </trkpt>
      <trkpt lat="43.67124" lon="3.3532">
        <ele>145.2</ele>
        <time>2024-08-06T08:07:40Z</time>
      </trkpt>
      <trkpt lat="43.6712" lon="3.35321">
        <ele>145.3</ele>
        <time>2024-08-06T08:07:41Z</time>
      </trkpt>
      <trkpt lat="43.67116" lon="3.35322">
        <ele>145.4</ele>
        <time>2024-08-06T08:07:42Z</time>
      </trkpt>
      <trkpt lat="43.67112" lon="3.35323">
        <ele>145.4</ele>
        <time>2024-08-06T08:07:43Z</time>
      </trkpt>
      <trkpt lat="43.67108" lon="3.35324">
        <ele>145.4</ele>
        <time>2024-08-06T08:07:44Z</time>
      </trkpt>
      <trkpt lat="43.67103" lon="3.35325">
        <ele>145.3</ele>
        <time>2024-08-06T08:07:45Z</time>
      </trkpt>
      <trkpt lat="43.67099" lon="3.35326">
        <ele>145.3</ele>
        <time>2024-08-06T08:07:46Z</time>
      </trkpt>
      <trkpt lat="43.67094" lon="3.35327">
        <ele>145.2</ele>
        <time>2024-08-06T08:07:47Z</time>
      </trkpt>
      <trkpt lat="43.67089" lon="3.35329">
        <ele>145.2</ele>
        <time>2024-08-06T08:07:48Z</time>
      </trkpt>
      <trkpt lat="43.67084" lon="3.35331">
        <ele>145.1</ele>
        <time>2024-08-06T08:07:49Z</time>
      </trkpt>
      <trkpt lat="43.67079" lon="3.35332">
        <ele>145.1</ele>
        <time>2024-08-06T08:07:50Z</time>
      </trkpt>
      <trkpt lat="43.67075" lon="3.35334">
        <ele>144.9</ele>
        <time>2024-08-06T08:07:51Z</time>
      </trkpt>
      <trkpt lat="43.6707" lon="3.35335">
        <ele>144.8</ele>
        <time>2024-08-06T08:07:52Z</time>
      </trkpt>
      <trkpt lat="43.67066" lon="3.35336">
        <ele>144.7</ele>
        <time>2024-08-06T08:07:53Z</time>
      </trkpt>
      <trkpt lat="43.67062" lon="3.35337">
        <ele>144.6</ele>
        <time>2024-08-06T08:07:54Z</time>
      </trkpt>
      <trkpt lat="43.67059" lon="3.35338">
        <ele>144.5</ele>
        <time>2024-08-06T08:07:55Z</time>
      </trkpt>
      <trkpt lat="43.67055" lon="3.35339">
        <ele>144.3</ele>
        <time>2024-08-06T08:07:56Z</time>
      </trkpt>
      <trkpt lat="43.67053" lon="3.35341">
        <ele>144</ele>
        <time>2024-08-06T08:07:57Z</time>
      </trkpt>
      <trkpt lat="43.6705" lon="3.35343">
        <ele>143.6</ele>
        <time>2024-08-06T08:07:58Z</time>
      </trkpt>
      <trkpt lat="43.67049" lon="3.35346">
        <ele>143.2</ele>
        <time>2024-08-06T08:07:59Z</time>
      </trkpt>
      <trkpt lat="43.67048" lon="3.35349">
        <ele>143</ele>
        <time>2024-08-06T08:08:00Z</time>
      </trkpt>
      <trkpt lat="43.67046" lon="3.35355">
        <ele>142.4</ele>
        <time>2024-08-06T08:08:01Z</time>
      </trkpt>
      <trkpt lat="43.67044" lon="3.35364">
        <ele>142</ele>
        <time>2024-08-06T08:08:02Z</time>
      </trkpt>
      <trkpt lat="43.67042" lon="3.35373">
        <ele>142</ele>
        <time>2024-08-06T08:08:03Z</time>
      </trkpt>
      <trkpt lat="43.67041" lon="3.35381">
        <ele>142</ele>
        <time>2024-08-06T08:08:04Z</time>
      </trkpt>
      <trkpt lat="43.67038" lon="3.35388">
        <ele>142</ele>
        <time>2024-08-06T08:08:05Z</time>
      </trkpt>
      <trkpt lat="43.67034" lon="3.35392">
        <ele>142</ele>
        <time>2024-08-06T08:08:06Z</time>
      </trkpt>
      <trkpt lat="43.67032" lon="3.35396">
        <ele>142</ele>
        <time>2024-08-06T08:08:07Z</time>
      </trkpt>
      <trkpt lat="43.67029" lon="3.35401">
        <ele>142</ele>
        <time>2024-08-06T08:08:08Z</time>
      </trkpt>
      <trkpt lat="43.67027" lon="3.35405">
        <ele>141.9</ele>
        <time>2024-08-06T08:08:09Z</time>
      </trkpt>
      <trkpt lat="43.67024" lon="3.35408">
        <ele>141.7</ele>
        <time>2024-08-06T08:08:10Z</time>
      </trkpt>
      <trkpt lat="43.6702" lon="3.3541">
        <ele>141.4</ele>
        <time>2024-08-06T08:08:11Z</time>
      </trkpt>
      <trkpt lat="43.67018" lon="3.3541">
        <ele>141.3</ele>
        <time>2024-08-06T08:08:12Z</time>
      </trkpt>
      <trkpt lat="43.67015" lon="3.3541">
        <ele>141.1</ele>
        <time>2024-08-06T08:08:13Z</time>
      </trkpt>
      <trkpt lat="43.67013" lon="3.35412">
        <ele>140.9</ele>
        <time>2024-08-06T08:08:14Z</time>
      </trkpt>
      <trkpt lat="43.67009" lon="3.35417">
        <ele>140.6</ele>
        <time>2024-08-06T08:08:15Z</time>
      </trkpt>
      <trkpt lat="43.67008" lon="3.35425">
        <ele>140.3</ele>
        <time>2024-08-06T08:08:16Z</time>
      </trkpt>
      <trkpt lat="43.67006" lon="3.35432">
        <ele>139.9</ele>
        <time>2024-08-06T08:08:17Z</time>
      </trkpt>
      <trkpt lat="43.67005" lon="3.35439">
        <ele>139.6</ele>
        <time>2024-08-06T08:08:18Z</time>
      </trkpt>
      <trkpt lat="43.67004" lon="3.35444">
        <ele>139.3</ele>
        <time>2024-08-06T08:08:19Z</time>
      </trkpt>
      <trkpt lat="43.67003" lon="3.3545">
        <ele>139.2</ele>
        <time>2024-08-06T08:08:20Z</time>
      </trkpt>
      <trkpt lat="43.67003" lon="3.35456">
        <ele>139.2</ele>
        <time>2024-08-06T08:08:21Z</time>
      </trkpt>
      <trkpt lat="43.67003" lon="3.35462">
        <ele>139.2</ele>
        <time>2024-08-06T08:08:22Z</time>
      </trkpt>
      <trkpt lat="43.67004" lon="3.35468">
        <ele>139.3</ele>
        <time>2024-08-06T08:08:23Z</time>
      </trkpt>
      <trkpt lat="43.67005" lon="3.35474">
        <ele>139.4</ele>
        <time>2024-08-06T08:08:24Z</time>
      </trkpt>
      <trkpt lat="43.67005" lon="3.35478">
        <ele>139.4</ele>
        <time>2024-08-06T08:08:25Z</time>
      </trkpt>
      <trkpt lat="43.67006" lon="3.35483">
        <ele>139.5</ele>
        <time>2024-08-06T08:08:26Z</time>
      </trkpt>
      <trkpt lat="43.67006" lon="3.35488">
        <ele>139.6</ele>
        <time>2024-08-06T08:08:27Z</time>
      </trkpt>
      <trkpt lat="43.67007" lon="3.35492">
        <ele>139.7</ele>
        <time>2024-08-06T08:08:28Z</time>
      </trkpt>
      <trkpt lat="43.67008" lon="3.35496">
        <ele>139.8</ele>
        <time>2024-08-06T08:08:29Z</time>
      </trkpt>
      <trkpt lat="43.67009" lon="3.35502">
        <ele>140.1</ele>
        <time>2024-08-06T08:08:30Z</time>
      </trkpt>
      <trkpt lat="43.67008" lon="3.35507">
        <ele>140.2</ele>
        <time>2024-08-06T08:08:31Z</time>
      </trkpt>
      <trkpt lat="43.67006" lon="3.35511">
        <ele>140.3</ele>
        <time>2024-08-06T08:08:32Z</time>
      </trkpt>
      <trkpt lat="43.67003" lon="3.35514">
        <ele>140.2</ele>
        <time>2024-08-06T08:08:33Z</time>
      </trkpt>
      <trkpt lat="43.67" lon="3.35517">
        <ele>140.2</ele>
        <time>2024-08-06T08:08:34Z</time>
      </trkpt>
      <trkpt lat="43.66997" lon="3.35516">
        <ele>140.2</ele>
        <time>2024-08-06T08:08:35Z</time>
      </trkpt>
      <trkpt lat="43.66995" lon="3.35517">
        <ele>140.2</ele>
        <time>2024-08-06T08:08:36Z</time>
      </trkpt>
      <trkpt lat="43.66992" lon="3.35517">
        <ele>140.2</ele>
        <time>2024-08-06T08:08:37Z</time>
      </trkpt>
      <trkpt lat="43.66989" lon="3.35517">
        <ele>140.2</ele>
        <time>2024-08-06T08:08:38Z</time>
      </trkpt>
      <trkpt lat="43.66986" lon="3.35517">
        <ele>140.2</ele>
        <time>2024-08-06T08:08:39Z</time>
      </trkpt>
      <trkpt lat="43.66983" lon="3.35518">
        <ele>140.3</ele>
        <time>2024-08-06T08:08:40Z</time>
      </trkpt>
      <trkpt lat="43.66979" lon="3.35517">
        <ele>140.2</ele>
        <time>2024-08-06T08:08:41Z</time>
      </trkpt>
      <trkpt lat="43.66977" lon="3.35517">
        <ele>140.2</ele>
        <time>2024-08-06T08:08:42Z</time>
      </trkpt>
      <trkpt lat="43.66974" lon="3.35517">
        <ele>140.2</ele>
        <time>2024-08-06T08:08:43Z</time>
      </trkpt>
      <trkpt lat="43.66971" lon="3.35518">
        <ele>140.3</ele>
        <time>2024-08-06T08:08:44Z</time>
      </trkpt>
      <trkpt lat="43.66967" lon="3.3552">
        <ele>140.3</ele>
        <time>2024-08-06T08:08:45Z</time>
      </trkpt>
      <trkpt lat="43.66962" lon="3.35521">
        <ele>140.1</ele>
        <time>2024-08-06T08:08:46Z</time>
      </trkpt>
      <trkpt lat="43.66958" lon="3.35522">
        <ele>140.1</ele>
        <time>2024-08-06T08:08:47Z</time>
      </trkpt>
      <trkpt lat="43.66955" lon="3.35524">
        <ele>140.1</ele>
        <time>2024-08-06T08:08:48Z</time>
      </trkpt>
      <trkpt lat="43.66951" lon="3.35524">
        <ele>140</ele>
        <time>2024-08-06T08:08:49Z</time>
      </trkpt>
      <trkpt lat="43.66948" lon="3.35525">
        <ele>139.9</ele>
        <time>2024-08-06T08:08:50Z</time>
      </trkpt>
      <trkpt lat="43.66946" lon="3.35526">
        <ele>139.9</ele>
        <time>2024-08-06T08:08:51Z</time>
      </trkpt>
      <trkpt lat="43.66943" lon="3.35526">
        <ele>139.8</ele>
        <time>2024-08-06T08:08:52Z</time>
      </trkpt>
      <trkpt lat="43.6694" lon="3.35526">
        <ele>139.7</ele>
        <time>2024-08-06T08:08:53Z</time>
      </trkpt>
      <trkpt lat="43.66937" lon="3.35527">
        <ele>139.7</ele>
        <time>2024-08-06T08:08:54Z</time>
      </trkpt>
      <trkpt lat="43.66934" lon="3.35528">
        <ele>139.6</ele>
        <time>2024-08-06T08:08:55Z</time>
      </trkpt>
      <trkpt lat="43.66931" lon="3.35531">
        <ele>139.7</ele>
        <time>2024-08-06T08:08:56Z</time>
      </trkpt>
      <trkpt lat="43.66928" lon="3.35533">
        <ele>139.7</ele>
        <time>2024-08-06T08:08:57Z</time>
      </trkpt>
      <trkpt lat="43.66926" lon="3.35535">
        <ele>139.7</ele>
        <time>2024-08-06T08:08:58Z</time>
      </trkpt>
      <trkpt lat="43.66924" lon="3.35538">
        <ele>139.7</ele>
        <time>2024-08-06T08:08:59Z</time>
      </trkpt>
      <trkpt lat="43.66922" lon="3.35541">
        <ele>139.8</ele>
        <time>2024-08-06T08:09:00Z</time>
      </trkpt>
      <trkpt lat="43.6692" lon="3.35545">
        <ele>139.8</ele>
        <time>2024-08-06T08:09:01Z</time>
      </trkpt>
      <trkpt lat="43.66917" lon="3.35549">
        <ele>139.8</ele>
        <time>2024-08-06T08:09:02Z</time>
      </trkpt>
      <trkpt lat="43.66914" lon="3.35552">
        <ele>139.8</ele>
        <time>2024-08-06T08:09:03Z</time>
      </trkpt>
      <trkpt lat="43.66911" lon="3.35555">
        <ele>139.8</ele>
        <time>2024-08-06T08:09:04Z</time>
      </trkpt>
      <trkpt lat="43.66908" lon="3.35558">
        <ele>139.7</ele>
        <time>2024-08-06T08:09:05Z</time>
      </trkpt>
      <trkpt lat="43.66905" lon="3.35561">
        <ele>139.7</ele>
        <time>2024-08-06T08:09:06Z</time>
      </trkpt>
      <trkpt lat="43.66902" lon="3.35564">
        <ele>139.6</ele>
        <time>2024-08-06T08:09:07Z</time>
      </trkpt>
      <trkpt lat="43.669" lon="3.35567">
        <ele>139.6</ele>
        <time>2024-08-06T08:09:08Z</time>
      </trkpt>
      <trkpt lat="43.66898" lon="3.35569">
        <ele>139.5</ele>
        <time>2024-08-06T08:09:09Z</time>
      </trkpt>
      <trkpt lat="43.66895" lon="3.35572">
        <ele>139.4</ele>
        <time>2024-08-06T08:09:10Z</time>
      </trkpt>
      <trkpt lat="43.66894" lon="3.35574">
        <ele>139.3</ele>
        <time>2024-08-06T08:09:11Z</time>
      </trkpt>
      <trkpt lat="43.66893" lon="3.35576">
        <ele>139.3</ele>
        <time>2024-08-06T08:09:12Z</time>
      </trkpt>
      <trkpt lat="43.66891" lon="3.35578">
        <ele>139.1</ele>
        <time>2024-08-06T08:09:13Z</time>
      </trkpt>
      <trkpt lat="43.66891" lon="3.35579">
        <ele>139.1</ele>
        <time>2024-08-06T08:09:14Z</time>
      </trkpt>
      <trkpt lat="43.6689" lon="3.35581">
        <ele>139.1</ele>
        <time>2024-08-06T08:09:15Z</time>
      </trkpt>
      <trkpt lat="43.6689" lon="3.35581">
        <ele>139.1</ele>
        <time>2024-08-06T08:09:16Z</time>
      </trkpt>
      <trkpt lat="43.66889" lon="3.35584">
        <ele>139</ele>
        <time>2024-08-06T08:09:17Z</time>
      </trkpt>
      <trkpt lat="43.66889" lon="3.35584">
        <ele>139</ele>
        <time>2024-08-06T08:09:18Z</time>
      </trkpt>
      <trkpt lat="43.66888" lon="3.35591">
        <ele>139.2</ele>
        <time>2024-08-06T08:19:01Z</time>
      </trkpt>
      <trkpt lat="43.66888" lon="3.35595">
        <ele>139.4</ele>
        <time>2024-08-06T08:19:02Z</time>
      </trkpt>
      <trkpt lat="43.66888" lon="3.35599">
        <ele>139.5</ele>
        <time>2024-08-06T08:19:03Z</time>
      </trkpt>
      <trkpt lat="43.66887" lon="3.35604">
        <ele>139.6</ele>
        <time>2024-08-06T08:19:04Z</time>
      </trkpt>
      <trkpt lat="43.66887" lon="3.35609">
        <ele>139.8</ele>
        <time>2024-08-06T08:19:05Z</time>
      </trkpt>
      <trkpt lat="43.66887" lon="3.35613">
        <ele>139.9</ele>
        <time>2024-08-06T08:19:06Z</time>
      </trkpt>
      <trkpt lat="43.66887" lon="3.35618">
        <ele>140.1</ele>
        <time>2024-08-06T08:19:07Z</time>
      </trkpt>
      <trkpt lat="43.66887" lon="3.35622">
        <ele>140.3</ele>
        <time>2024-08-06T08:19:08Z</time>
      </trkpt>
      <trkpt lat="43.66886" lon="3.35626">
        <ele>140.3</ele>
        <time>2024-08-06T08:19:09Z</time>
      </trkpt>
      <trkpt lat="43.66885" lon="3.3563">
        <ele>140.4</ele>
        <time>2024-08-06T08:19:10Z</time>
      </trkpt>
      <trkpt lat="43.66883" lon="3.35632">
        <ele>140.3</ele>
        <time>2024-08-06T08:19:11Z</time>
      </trkpt>
      <trkpt lat="43.66881" lon="3.35635">
        <ele>140.3</ele>
        <time>2024-08-06T08:19:12Z</time>
      </trkpt>
      <trkpt lat="43.66879" lon="3.35638">
        <ele>140.3</ele>
        <time>2024-08-06T08:19:13Z</time>
      </trkpt>
      <trkpt lat="43.66877" lon="3.35642">
        <ele>140.3</ele>
        <time>2024-08-06T08:19:14Z</time>
      </trkpt>
      <trkpt lat="43.66875" lon="3.35645">
        <ele>140.2</ele>
        <time>2024-08-06T08:19:15Z</time>
      </trkpt>
      <trkpt lat="43.66872" lon="3.35649">
        <ele>140.1</ele>
        <time>2024-08-06T08:19:16Z</time>
      </trkpt>
      <trkpt lat="43.6687" lon="3.35652">
        <ele>140.1</ele>
        <time>2024-08-06T08:19:17Z</time>
      </trkpt>
      <trkpt lat="43.66868" lon="3.35656">
        <ele>140.1</ele>
        <time>2024-08-06T08:19:18Z</time>
      </trkpt>
      <trkpt lat="43.66865" lon="3.35659">
        <ele>140</ele>
        <time>2024-08-06T08:19:19Z</time>
      </trkpt>
      <trkpt lat="43.66864" lon="3.35663">
        <ele>140.1</ele>
        <time>2024-08-06T08:19:20Z</time>
      </trkpt>
      <trkpt lat="43.66862" lon="3.35666">
        <ele>140</ele>
        <time>2024-08-06T08:19:21Z</time>
      </trkpt>
      <trkpt lat="43.66861" lon="3.35669">
        <ele>140</ele>
        <time>2024-08-06T08:19:22Z</time>
      </trkpt>
      <trkpt lat="43.6686" lon="3.35672">
        <ele>140</ele>
        <time>2024-08-06T08:19:23Z</time>
      </trkpt>
      <trkpt lat="43.66858" lon="3.35675">
        <ele>140</ele>
        <time>2024-08-06T08:19:24Z</time>
      </trkpt>
      <trkpt lat="43.66856" lon="3.35679">
        <ele>140</ele>
        <time>2024-08-06T08:19:25Z</time>
      </trkpt>
      <trkpt lat="43.66854" lon="3.35682">
        <ele>140</ele>
        <time>2024-08-06T08:19:26Z</time>
      </trkpt>
      <trkpt lat="43.66851" lon="3.35687">
        <ele>140.2</ele>
        <time>2024-08-06T08:19:27Z</time>
      </trkpt>
      <trkpt lat="43.66848" lon="3.35692">
        <ele>140.4</ele>
        <time>2024-08-06T08:19:28Z</time>
      </trkpt>
      <trkpt lat="43.66844" lon="3.35696">
        <ele>140.7</ele>
        <time>2024-08-06T08:19:29Z</time>
      </trkpt>
      <trkpt lat="43.66841" lon="3.35701">
        <ele>141</ele>
        <time>2024-08-06T08:19:30Z</time>
      </trkpt>
      <trkpt lat="43.66839" lon="3.35704">
        <ele>141.1</ele>
        <time>2024-08-06T08:19:31Z</time>
      </trkpt>
      <trkpt lat="43.66836" lon="3.35707">
        <ele>141.4</ele>
        <time>2024-08-06T08:19:32Z</time>
      </trkpt>
      <trkpt lat="43.66834" lon="3.3571">
        <ele>141.5</ele>
        <time>2024-08-06T08:19:33Z</time>
      </trkpt>
      <trkpt lat="43.66832" lon="3.35712">
        <ele>141.5</ele>
        <time>2024-08-06T08:19:34Z</time>
      </trkpt>
      <trkpt lat="43.6683" lon="3.35715">
        <ele>141.4</ele>
        <time>2024-08-06T08:19:35Z</time>
      </trkpt>
      <trkpt lat="43.66827" lon="3.35718">
        <ele>141.2</ele>
        <time>2024-08-06T08:19:36Z</time>
      </trkpt>
      <trkpt lat="43.66826" lon="3.3572">
        <ele>141.1</ele>
        <time>2024-08-06T08:19:37Z</time>
      </trkpt>
      <trkpt lat="43.66824" lon="3.3572">
        <ele>140.9</ele>
        <time>2024-08-06T08:19:38Z</time>
      </trkpt>
      <trkpt lat="43.66821" lon="3.35722">
        <ele>140.7</ele>
        <time>2024-08-06T08:19:39Z</time>
      </trkpt>
      <trkpt lat="43.66817" lon="3.35724">
        <ele>140.4</ele>
        <time>2024-08-06T08:19:40Z</time>
      </trkpt>
      <trkpt lat="43.66813" lon="3.35728">
        <ele>140.2</ele>
        <time>2024-08-06T08:19:41Z</time>
      </trkpt>
      <trkpt lat="43.66809" lon="3.35732">
        <ele>140.1</ele>
        <time>2024-08-06T08:19:42Z</time>
      </trkpt>
      <trkpt lat="43.66803" lon="3.35734">
        <ele>139.8</ele>
        <time>2024-08-06T08:19:43Z</time>
      </trkpt>
      <trkpt lat="43.66799" lon="3.35737">
        <ele>140.1</ele>
        <time>2024-08-06T08:19:44Z</time>
      </trkpt>
      <trkpt lat="43.66796" lon="3.35739">
        <ele>140.2</ele>
        <time>2024-08-06T08:19:45Z</time>
      </trkpt>
      <trkpt lat="43.66794" lon="3.35741">
        <ele>140.4</ele>
        <time>2024-08-06T08:19:46Z</time>
      </trkpt>
      <trkpt lat="43.66791" lon="3.35742">
        <ele>140.4</ele>
        <time>2024-08-06T08:19:47Z</time>
      </trkpt>
      <trkpt lat="43.66788" lon="3.35744">
        <ele>140.6</ele>
        <time>2024-08-06T08:19:48Z</time>
      </trkpt>
      <trkpt lat="43.66785" lon="3.35745">
        <ele>140.6</ele>
        <time>2024-08-06T08:19:49Z</time>
      </trkpt>
      <trkpt lat="43.66782" lon="3.35746">
        <ele>140.7</ele>
        <time>2024-08-06T08:19:50Z</time>
      </trkpt>
      <trkpt lat="43.6678" lon="3.35747">
        <ele>140.8</ele>
        <time>2024-08-06T08:19:51Z</time>
      </trkpt>
      <trkpt lat="43.66777" lon="3.35747">
        <ele>140.8</ele>
        <time>2024-08-06T08:19:52Z</time>
      </trkpt>
      <trkpt lat="43.66774" lon="3.35749">
        <ele>140.8</ele>
        <time>2024-08-06T08:19:53Z</time>
      </trkpt>
      <trkpt lat="43.66771" lon="3.35751">
        <ele>140.8</ele>
        <time>2024-08-06T08:19:54Z</time>
      </trkpt>
      <trkpt lat="43.66768" lon="3.35754">
        <ele>140.9</ele>
        <time>2024-08-06T08:19:55Z</time>
      </trkpt>
      <trkpt lat="43.66767" lon="3.35756">
        <ele>141</ele>
        <time>2024-08-06T08:19:56Z</time>
      </trkpt>
      <trkpt lat="43.66766" lon="3.35758">
        <ele>141</ele>
        <time>2024-08-06T08:19:57Z</time>
      </trkpt>
      <trkpt lat="43.66764" lon="3.35761">
        <ele>141.1</ele>
        <time>2024-08-06T08:19:58Z</time>
      </trkpt>
      <trkpt lat="43.66762" lon="3.35763">
        <ele>141.1</ele>
        <time>2024-08-06T08:19:59Z</time>
      </trkpt>
      <trkpt lat="43.6676" lon="3.35765">
        <ele>141.1</ele>
        <time>2024-08-06T08:20:00Z</time>
      </trkpt>
      <trkpt lat="43.66758" lon="3.35766">
        <ele>141</ele>
        <time>2024-08-06T08:20:01Z</time>
      </trkpt>
      <trkpt lat="43.66756" lon="3.35768">
        <ele>141</ele>
        <time>2024-08-06T08:20:02Z</time>
      </trkpt>
      <trkpt lat="43.66755" lon="3.3577">
        <ele>141</ele>
        <time>2024-08-06T08:20:03Z</time>
      </trkpt>
      <trkpt lat="43.66753" lon="3.35771">
        <ele>140.9</ele>
        <time>2024-08-06T08:20:04Z</time>
      </trkpt>
      <trkpt lat="43.66751" lon="3.35774">
        <ele>140.9</ele>
        <time>2024-08-06T08:20:05Z</time>
      </trkpt>
      <trkpt lat="43.66748" lon="3.35779">
        <ele>140.9</ele>
        <time>2024-08-06T08:20:06Z</time>
      </trkpt>
      <trkpt lat="43.66745" lon="3.35785">
        <ele>140.8</ele>
        <time>2024-08-06T08:20:07Z</time>
      </trkpt>
      <trkpt lat="43.6674" lon="3.35792">
        <ele>140.6</ele>
        <time>2024-08-06T08:20:08Z</time>
      </trkpt>
      <trkpt lat="43.66735" lon="3.35802">
        <ele>140.5</ele>
        <time>2024-08-06T08:20:09Z</time>
      </trkpt>
      <trkpt lat="43.6673" lon="3.3581">
        <ele>140.4</ele>
        <time>2024-08-06T08:20:10Z</time>
      </trkpt>
      <trkpt lat="43.66723" lon="3.35818">
        <ele>140.5</ele>
        <time>2024-08-06T08:20:11Z</time>
      </trkpt>
      <trkpt lat="43.66719" lon="3.35824">
        <ele>140.5</ele>
        <time>2024-08-06T08:20:12Z</time>
      </trkpt>
      <trkpt lat="43.66716" lon="3.35829">
        <ele>140.4</ele>
        <time>2024-08-06T08:20:13Z</time>
      </trkpt>
      <trkpt lat="43.66713" lon="3.35832">
        <ele>140.3</ele>
        <time>2024-08-06T08:20:14Z</time>
      </trkpt>
      <trkpt lat="43.6671" lon="3.35835">
        <ele>140.2</ele>
        <time>2024-08-06T08:20:15Z</time>
      </trkpt>
      <trkpt lat="43.66707" lon="3.35839">
        <ele>140.3</ele>
        <time>2024-08-06T08:20:16Z</time>
      </trkpt>
      <trkpt lat="43.66704" lon="3.35843">
        <ele>140.4</ele>
        <time>2024-08-06T08:20:17Z</time>
      </trkpt>
      <trkpt lat="43.667" lon="3.35848">
        <ele>140.5</ele>
        <time>2024-08-06T08:20:18Z</time>
      </trkpt>
      <trkpt lat="43.66697" lon="3.35852">
        <ele>140.5</ele>
        <time>2024-08-06T08:20:19Z</time>
      </trkpt>
      <trkpt lat="43.66693" lon="3.35856">
        <ele>140.5</ele>
        <time>2024-08-06T08:20:20Z</time>
      </trkpt>
      <trkpt lat="43.6669" lon="3.35859">
        <ele>140.4</ele>
        <time>2024-08-06T08:20:21Z</time>
      </trkpt>
      <trkpt lat="43.66687" lon="3.35863">
        <ele>140.3</ele>
        <time>2024-08-06T08:20:22Z</time>
      </trkpt>
      <trkpt lat="43.66684" lon="3.35866">
        <ele>140.2</ele>
        <time>2024-08-06T08:20:23Z</time>
      </trkpt>
      <trkpt lat="43.66682" lon="3.35869">
        <ele>140.2</ele>
        <time>2024-08-06T08:20:24Z</time>
      </trkpt>
      <trkpt lat="43.66679" lon="3.35871">
        <ele>140</ele>
        <time>2024-08-06T08:20:25Z</time>
      </trkpt>
      <trkpt lat="43.66677" lon="3.35874">
        <ele>140</ele>
        <time>2024-08-06T08:20:26Z</time>
      </trkpt>
      <trkpt lat="43.66674" lon="3.35877">
        <ele>139.9</ele>
        <time>2024-08-06T08:20:27Z</time>
      </trkpt>
      <trkpt lat="43.66671" lon="3.35881">
        <ele>139.9</ele>
        <time>2024-08-06T08:20:28Z</time>
      </trkpt>
      <trkpt lat="43.66669" lon="3.35886">
        <ele>140</ele>
        <time>2024-08-06T08:20:29Z</time>
      </trkpt>
      <trkpt lat="43.66666" lon="3.35889">
        <ele>140</ele>
        <time>2024-08-06T08:20:30Z</time>
      </trkpt>
      <trkpt lat="43.66664" lon="3.35894">
        <ele>140.1</ele>
        <time>2024-08-06T08:20:31Z</time>
      </trkpt>
      <trkpt lat="43.66662" lon="3.35898">
        <ele>140.2</ele>
        <time>2024-08-06T08:20:32Z</time>
      </trkpt>
      <trkpt lat="43.6666" lon="3.35901">
        <ele>140.2</ele>
        <time>2024-08-06T08:20:33Z</time>
      </trkpt>
      <trkpt lat="43.66658" lon="3.35903">
        <ele>140.2</ele>
        <time>2024-08-06T08:20:34Z</time>
      </trkpt>
      <trkpt lat="43.66656" lon="3.35904">
        <ele>140.2</ele>
        <time>2024-08-06T08:20:35Z</time>
      </trkpt>
      <trkpt lat="43.66654" lon="3.35905">
        <ele>140.1</ele>
        <time>2024-08-06T08:20:36Z</time>
      </trkpt>
      <trkpt lat="43.66651" lon="3.35905">
        <ele>140</ele>
        <time>2024-08-06T08:20:37Z</time>
      </trkpt>
      <trkpt lat="43.66648" lon="3.35907">
        <ele>140</ele>
        <time>2024-08-06T08:20:38Z</time>
      </trkpt>
      <trkpt lat="43.66647" lon="3.35911">
        <ele>140.1</ele>
        <time>2024-08-06T08:20:39Z</time>
      </trkpt>
      <trkpt lat="43.66645" lon="3.35915">
        <ele>140.2</ele>
        <time>2024-08-06T08:20:40Z</time>
      </trkpt>
      <trkpt lat="43.66643" lon="3.3592">
        <ele>140.3</ele>
        <time>2024-08-06T08:20:41Z</time>
      </trkpt>
      <trkpt lat="43.66641" lon="3.35924">
        <ele>140.3</ele>
        <time>2024-08-06T08:20:42Z</time>
      </trkpt>
      <trkpt lat="43.66639" lon="3.35928">
        <ele>140.4</ele>
        <time>2024-08-06T08:20:43Z</time>
      </trkpt>
      <trkpt lat="43.66637" lon="3.35932">
        <ele>140.4</ele>
        <time>2024-08-06T08:20:44Z</time>
      </trkpt>
      <trkpt lat="43.66635" lon="3.35936">
        <ele>140.4</ele>
        <time>2024-08-06T08:20:45Z</time>
      </trkpt>
      <trkpt lat="43.66634" lon="3.35939">
        <ele>140.5</ele>
        <time>2024-08-06T08:20:46Z</time>
      </trkpt>
      <trkpt lat="43.66633" lon="3.35942">
        <ele>140.5</ele>
        <time>2024-08-06T08:20:47Z</time>
      </trkpt>
      <trkpt lat="43.66632" lon="3.35946">
        <ele>140.6</ele>
        <time>2024-08-06T08:20:48Z</time>
      </trkpt>
      <trkpt lat="43.66631" lon="3.3595">
        <ele>140.6</ele>
        <time>2024-08-06T08:20:49Z</time>
      </trkpt>
      <trkpt lat="43.66629" lon="3.35953">
        <ele>140.6</ele>
        <time>2024-08-06T08:20:50Z</time>
      </trkpt>
      <trkpt lat="43.66629" lon="3.35957">
        <ele>140.7</ele>
        <time>2024-08-06T08:20:51Z</time>
      </trkpt>
      <trkpt lat="43.66628" lon="3.3596">
        <ele>140.8</ele>
        <time>2024-08-06T08:20:52Z</time>
      </trkpt>
      <trkpt lat="43.66626" lon="3.35964">
        <ele>140.8</ele>
        <time>2024-08-06T08:20:53Z</time>
      </trkpt>
      <trkpt lat="43.66623" lon="3.35968">
        <ele>140.7</ele>
        <time>2024-08-06T08:20:54Z</time>
      </trkpt>
      <trkpt lat="43.6662" lon="3.35972">
        <ele>140.6</ele>
        <time>2024-08-06T08:20:55Z</time>
      </trkpt>
      <trkpt lat="43.66618" lon="3.35976">
        <ele>140.6</ele>
        <time>2024-08-06T08:20:56Z</time>
      </trkpt>
      <trkpt lat="43.66615" lon="3.3598">
        <ele>140.6</ele>
        <time>2024-08-06T08:20:57Z</time>
      </trkpt>
      <trkpt lat="43.66613" lon="3.35984">
        <ele>140.6</ele>
        <time>2024-08-06T08:20:58Z</time>
      </trkpt>
      <trkpt lat="43.66611" lon="3.35987">
        <ele>140.5</ele>
        <time>2024-08-06T08:20:59Z</time>
      </trkpt>
      <trkpt lat="43.6661" lon="3.35991">
        <ele>140.6</ele>
        <time>2024-08-06T08:21:00Z</time>
      </trkpt>
      <trkpt lat="43.66607" lon="3.35995">
        <ele>140.5</ele>
        <time>2024-08-06T08:21:01Z</time>
      </trkpt>
      <trkpt lat="43.66605" lon="3.35998">
        <ele>140.5</ele>
        <time>2024-08-06T08:21:02Z</time>
      </trkpt>
      <trkpt lat="43.66602" lon="3.36">
        <ele>140.3</ele>
        <time>2024-08-06T08:21:03Z</time>
      </trkpt>
      <trkpt lat="43.666" lon="3.36002">
        <ele>140.2</ele>
        <time>2024-08-06T08:21:04Z</time>
      </trkpt>
      <trkpt lat="43.66599" lon="3.36004">
        <ele>140.1</ele>
        <time>2024-08-06T08:21:05Z</time>
      </trkpt>
      <trkpt lat="43.66597" lon="3.36006">
        <ele>140</ele>
        <time>2024-08-06T08:21:06Z</time>
      </trkpt>
      <trkpt lat="43.66594" lon="3.36008">
        <ele>139.8</ele>
        <time>2024-08-06T08:21:07Z</time>
      </trkpt>
      <trkpt lat="43.66591" lon="3.3601">
        <ele>139.6</ele>
        <time>2024-08-06T08:21:08Z</time>
      </trkpt>
      <trkpt lat="43.66588" lon="3.36015">
        <ele>139.3</ele>
        <time>2024-08-06T08:21:09Z</time>
      </trkpt>
      <trkpt lat="43.66585" lon="3.36019">
        <ele>139.1</ele>
        <time>2024-08-06T08:21:10Z</time>
      </trkpt>
      <trkpt lat="43.66584" lon="3.36023">
        <ele>139</ele>
        <time>2024-08-06T08:21:11Z</time>
      </trkpt>
      <trkpt lat="43.66584" lon="3.36028">
        <ele>139</ele>
        <time>2024-08-06T08:21:12Z</time>
      </trkpt>
      <trkpt lat="43.66584" lon="3.36032">
        <ele>139</ele>
        <time>2024-08-06T08:21:13Z</time>
      </trkpt>
      <trkpt lat="43.66585" lon="3.36036">
        <ele>139.1</ele>
        <time>2024-08-06T08:21:14Z</time>
      </trkpt>
      <trkpt lat="43.66586" lon="3.3604">
        <ele>139.2</ele>
        <time>2024-08-06T08:21:15Z</time>
      </trkpt>
      <trkpt lat="43.66586" lon="3.36045">
        <ele>139.2</ele>
        <time>2024-08-06T08:21:16Z</time>
      </trkpt>
      <trkpt lat="43.66587" lon="3.36048">
        <ele>139.3</ele>
        <time>2024-08-06T08:21:17Z</time>
      </trkpt>
      <trkpt lat="43.66587" lon="3.36052">
        <ele>139.3</ele>
        <time>2024-08-06T08:21:18Z</time>
      </trkpt>
      <trkpt lat="43.66589" lon="3.36056">
        <ele>139.4</ele>
        <time>2024-08-06T08:21:19Z</time>
      </trkpt>
      <trkpt lat="43.66591" lon="3.36059">
        <ele>139.4</ele>
        <time>2024-08-06T08:21:20Z</time>
      </trkpt>
      <trkpt lat="43.66594" lon="3.36061">
        <ele>139.6</ele>
        <time>2024-08-06T08:21:21Z</time>
      </trkpt>
      <trkpt lat="43.66597" lon="3.36063">
        <ele>139.7</ele>
        <time>2024-08-06T08:21:22Z</time>
      </trkpt>
      <trkpt lat="43.666" lon="3.36066">
        <ele>139.8</ele>
        <time>2024-08-06T08:21:23Z</time>
      </trkpt>
      <trkpt lat="43.66602" lon="3.36067">
        <ele>139.9</ele>
        <time>2024-08-06T08:21:24Z</time>
      </trkpt>
      <trkpt lat="43.66604" lon="3.36069">
        <ele>140</ele>
        <time>2024-08-06T08:21:25Z</time>
      </trkpt>
      <trkpt lat="43.66605" lon="3.36071">
        <ele>140</ele>
        <time>2024-08-06T08:21:26Z</time>
      </trkpt>
      <trkpt lat="43.66607" lon="3.36073">
        <ele>140.1</ele>
        <time>2024-08-06T08:21:27Z</time>
      </trkpt>
      <trkpt lat="43.66608" lon="3.36076">
        <ele>140</ele>
        <time>2024-08-06T08:21:28Z</time>
      </trkpt>
      <trkpt lat="43.6661" lon="3.36078">
        <ele>140.1</ele>
        <time>2024-08-06T08:21:29Z</time>
      </trkpt>
      <trkpt lat="43.66612" lon="3.36081">
        <ele>140.2</ele>
        <time>2024-08-06T08:21:30Z</time>
      </trkpt>
      <trkpt lat="43.66614" lon="3.36086">
        <ele>140.2</ele>
        <time>2024-08-06T08:21:31Z</time>
      </trkpt>
      <trkpt lat="43.66616" lon="3.36092">
        <ele>140.1</ele>
        <time>2024-08-06T08:21:32Z</time>
      </trkpt>
      <trkpt lat="43.66619" lon="3.36096">
        <ele>140.4</ele>
        <time>2024-08-06T08:21:33Z</time>
      </trkpt>
      <trkpt lat="43.6662" lon="3.36099">
        <ele>140.3</ele>
        <time>2024-08-06T08:21:34Z</time>
      </trkpt>
      <trkpt lat="43.66621" lon="3.36104">
        <ele>140.2</ele>
        <time>2024-08-06T08:21:35Z</time>
      </trkpt>
      <trkpt lat="43.66623" lon="3.3611">
        <ele>140.2</ele>
        <time>2024-08-06T08:21:36Z</time>
      </trkpt>
      <trkpt lat="43.66625" lon="3.36115">
        <ele>140.6</ele>
        <time>2024-08-06T08:21:37Z</time>
      </trkpt>
      <trkpt lat="43.66627" lon="3.3612">
        <ele>141</ele>
        <time>2024-08-06T08:21:38Z</time>
      </trkpt>
      <trkpt lat="43.66629" lon="3.36126">
        <ele>141.4</ele>
        <time>2024-08-06T08:21:39Z</time>
      </trkpt>
      <trkpt lat="43.66629" lon="3.36131">
        <ele>141.5</ele>
        <time>2024-08-06T08:21:40Z</time>
      </trkpt>
      <trkpt lat="43.6663" lon="3.36136">
        <ele>141.7</ele>
        <time>2024-08-06T08:21:41Z</time>
      </trkpt>
      <trkpt lat="43.66628" lon="3.3614">
        <ele>141.4</ele>
        <time>2024-08-06T08:21:42Z</time>
      </trkpt>
      <trkpt lat="43.66626" lon="3.36144">
        <ele>141.1</ele>
        <time>2024-08-06T08:21:43Z</time>
      </trkpt>
      <trkpt lat="43.66624" lon="3.36147">
        <ele>140.9</ele>
        <time>2024-08-06T08:21:44Z</time>
      </trkpt>
      <trkpt lat="43.66622" lon="3.3615">
        <ele>140.6</ele>
        <time>2024-08-06T08:21:45Z</time>
      </trkpt>
      <trkpt lat="43.66621" lon="3.36152">
        <ele>140.4</ele>
        <time>2024-08-06T08:21:46Z</time>
      </trkpt>
      <trkpt lat="43.66619" lon="3.36155">
        <ele>140.1</ele>
        <time>2024-08-06T08:21:47Z</time>
      </trkpt>
      <trkpt lat="43.66619" lon="3.36159">
        <ele>140.1</ele>
        <time>2024-08-06T08:21:48Z</time>
      </trkpt>
      <trkpt lat="43.66618" lon="3.36164">
        <ele>140</ele>
        <time>2024-08-06T08:21:49Z</time>
      </trkpt>
      <trkpt lat="43.66618" lon="3.3617">
        <ele>139.9</ele>
        <time>2024-08-06T08:21:50Z</time>
      </trkpt>
      <trkpt lat="43.66619" lon="3.36178">
        <ele>139.7</ele>
        <time>2024-08-06T08:21:51Z</time>
      </trkpt>
      <trkpt lat="43.6662" lon="3.36184">
        <ele>139.7</ele>
        <time>2024-08-06T08:21:52Z</time>
      </trkpt>
      <trkpt lat="43.66621" lon="3.3619">
        <ele>139.6</ele>
        <time>2024-08-06T08:21:53Z</time>
      </trkpt>
      <trkpt lat="43.66622" lon="3.36195">
        <ele>139.6</ele>
        <time>2024-08-06T08:21:54Z</time>
      </trkpt>
      <trkpt lat="43.66624" lon="3.362">
        <ele>139.9</ele>
        <time>2024-08-06T08:21:55Z</time>
      </trkpt>
      <trkpt lat="43.66627" lon="3.36205">
        <ele>140.2</ele>
        <time>2024-08-06T08:21:56Z</time>
      </trkpt>
      <trkpt lat="43.66629" lon="3.36208">
        <ele>140.4</ele>
        <time>2024-08-06T08:21:57Z</time>
      </trkpt>
      <trkpt lat="43.66631" lon="3.3621">
        <ele>140.6</ele>
        <time>2024-08-06T08:21:58Z</time>
      </trkpt>
      <trkpt lat="43.66632" lon="3.36213">
        <ele>140.7</ele>
        <time>2024-08-06T08:21:59Z</time>
      </trkpt>
      <trkpt lat="43.66634" lon="3.36217">
        <ele>140.8</ele>
        <time>2024-08-06T08:22:00Z</time>
      </trkpt>
      <trkpt lat="43.66634" lon="3.36221">
        <ele>140.7</ele>
        <time>2024-08-06T08:22:01Z</time>
      </trkpt>
      <trkpt lat="43.66634" lon="3.36226">
        <ele>140.7</ele>
        <time>2024-08-06T08:22:02Z</time>
      </trkpt>
      <trkpt lat="43.66635" lon="3.3623">
        <ele>140.8</ele>
        <time>2024-08-06T08:22:03Z</time>
      </trkpt>
      <trkpt lat="43.66635" lon="3.36234">
        <ele>140.8</ele>
        <time>2024-08-06T08:22:04Z</time>
      </trkpt>
      <trkpt lat="43.66636" lon="3.36239">
        <ele>140.9</ele>
        <time>2024-08-06T08:22:05Z</time>
      </trkpt>
      <trkpt lat="43.66637" lon="3.36244">
        <ele>140.9</ele>
        <time>2024-08-06T08:22:06Z</time>
      </trkpt>
      <trkpt lat="43.66637" lon="3.36248">
        <ele>140.9</ele>
        <time>2024-08-06T08:22:07Z</time>
      </trkpt>
      <trkpt lat="43.66636" lon="3.36251">
        <ele>141</ele>
        <time>2024-08-06T08:22:08Z</time>
      </trkpt>
      <trkpt lat="43.66635" lon="3.36256">
        <ele>141.3</ele>
        <time>2024-08-06T08:22:09Z</time>
      </trkpt>
      <trkpt lat="43.66634" lon="3.36261">
        <ele>141.6</ele>
        <time>2024-08-06T08:22:10Z</time>
      </trkpt>
      <trkpt lat="43.66632" lon="3.36265">
        <ele>141.8</ele>
        <time>2024-08-06T08:22:11Z</time>
      </trkpt>
      <trkpt lat="43.6663" lon="3.36269">
        <ele>142</ele>
        <time>2024-08-06T08:22:12Z</time>
      </trkpt>
      <trkpt lat="43.66627" lon="3.36269">
        <ele>141.9</ele>
        <time>2024-08-06T08:22:13Z</time>
      </trkpt>
      <trkpt lat="43.66624" lon="3.36269">
        <ele>141.8</ele>
        <time>2024-08-06T08:22:14Z</time>
      </trkpt>
      <trkpt lat="43.66621" lon="3.3627">
        <ele>141.8</ele>
        <time>2024-08-06T08:22:15Z</time>
      </trkpt>
      <trkpt lat="43.66618" lon="3.36271">
        <ele>141.8</ele>
        <time>2024-08-06T08:22:16Z</time>
      </trkpt>
      <trkpt lat="43.66615" lon="3.36272">
        <ele>141.7</ele>
        <time>2024-08-06T08:22:17Z</time>
      </trkpt>
      <trkpt lat="43.66613" lon="3.36272">
        <ele>141.7</ele>
        <time>2024-08-06T08:22:18Z</time>
      </trkpt>
      <trkpt lat="43.66611" lon="3.36273">
        <ele>141.7</ele>
        <time>2024-08-06T08:22:19Z</time>
      </trkpt>
      <trkpt lat="43.66609" lon="3.36273">
        <ele>141.6</ele>
        <time>2024-08-06T08:22:20Z</time>
      </trkpt>
      <trkpt lat="43.66606" lon="3.36273">
        <ele>141.5</ele>
        <time>2024-08-06T08:22:21Z</time>
      </trkpt>
      <trkpt lat="43.66602" lon="3.36273">
        <ele>141.3</ele>
        <time>2024-08-06T08:22:22Z</time>
      </trkpt>
      <trkpt lat="43.66598" lon="3.36272">
        <ele>141.1</ele>
        <time>2024-08-06T08:22:23Z</time>
      </trkpt>
      <trkpt lat="43.66594" lon="3.36273">
        <ele>141</ele>
        <time>2024-08-06T08:22:24Z</time>
      </trkpt>
      <trkpt lat="43.66589" lon="3.36273">
        <ele>140.9</ele>
        <time>2024-08-06T08:22:25Z</time>
      </trkpt>
      <trkpt lat="43.66585" lon="3.36275">
        <ele>140.9</ele>
        <time>2024-08-06T08:22:26Z</time>
      </trkpt>
      <trkpt lat="43.66581" lon="3.36277">
        <ele>140.9</ele>
        <time>2024-08-06T08:22:27Z</time>
      </trkpt>
      <trkpt lat="43.66577" lon="3.36279">
        <ele>140.8</ele>
        <time>2024-08-06T08:22:28Z</time>
      </trkpt>
      <trkpt lat="43.66574" lon="3.36279">
        <ele>140.7</ele>
        <time>2024-08-06T08:22:29Z</time>
      </trkpt>
      <trkpt lat="43.66571" lon="3.36279">
        <ele>140.6</ele>
        <time>2024-08-06T08:22:30Z</time>
      </trkpt>
      <trkpt lat="43.66568" lon="3.3628">
        <ele>140.6</ele>
        <time>2024-08-06T08:22:31Z</time>
      </trkpt>
      <trkpt lat="43.66566" lon="3.36282">
        <ele>140.6</ele>
        <time>2024-08-06T08:22:32Z</time>
      </trkpt>
      <trkpt lat="43.66564" lon="3.36285">
        <ele>140.6</ele>
        <time>2024-08-06T08:22:33Z</time>
      </trkpt>
      <trkpt lat="43.66561" lon="3.36288">
        <ele>140.6</ele>
        <time>2024-08-06T08:22:34Z</time>
      </trkpt>
      <trkpt lat="43.66559" lon="3.36291">
        <ele>140.7</ele>
        <time>2024-08-06T08:22:35Z</time>
      </trkpt>
      <trkpt lat="43.66556" lon="3.36294">
        <ele>140.6</ele>
        <time>2024-08-06T08:22:36Z</time>
      </trkpt>
      <trkpt lat="43.66554" lon="3.36299">
        <ele>140.7</ele>
        <time>2024-08-06T08:22:37Z</time>
      </trkpt>
      <trkpt lat="43.66552" lon="3.36304">
        <ele>140.8</ele>
        <time>2024-08-06T08:22:38Z</time>
      </trkpt>
      <trkpt lat="43.6655" lon="3.3631">
        <ele>140.9</ele>
        <time>2024-08-06T08:22:39Z</time>
      </trkpt>
      <trkpt lat="43.66548" lon="3.36316">
        <ele>141</ele>
        <time>2024-08-06T08:22:40Z</time>
      </trkpt>
      <trkpt lat="43.66546" lon="3.36322">
        <ele>141</ele>
        <time>2024-08-06T08:22:41Z</time>
      </trkpt>
      <trkpt lat="43.66545" lon="3.36328">
        <ele>141.1</ele>
        <time>2024-08-06T08:22:42Z</time>
      </trkpt>
      <trkpt lat="43.66544" lon="3.36335">
        <ele>141.2</ele>
        <time>2024-08-06T08:22:43Z</time>
      </trkpt>
      <trkpt lat="43.66544" lon="3.36341">
        <ele>141.2</ele>
        <time>2024-08-06T08:22:44Z</time>
      </trkpt>
      <trkpt lat="43.66544" lon="3.36347">
        <ele>141.2</ele>
        <time>2024-08-06T08:22:45Z</time>
      </trkpt>
      <trkpt lat="43.66544" lon="3.36352">
        <ele>141.2</ele>
        <time>2024-08-06T08:22:46Z</time>
      </trkpt>
      <trkpt lat="43.66544" lon="3.36357">
        <ele>141.2</ele>
        <time>2024-08-06T08:22:47Z</time>
      </trkpt>
      <trkpt lat="43.66544" lon="3.36362">
        <ele>141.1</ele>
        <time>2024-08-06T08:22:48Z</time>
      </trkpt>
      <trkpt lat="43.66545" lon="3.36366">
        <ele>141.1</ele>
        <time>2024-08-06T08:22:49Z</time>
      </trkpt>
      <trkpt lat="43.66546" lon="3.36372">
        <ele>140.9</ele>
        <time>2024-08-06T08:22:50Z</time>
      </trkpt>
      <trkpt lat="43.66547" lon="3.36377">
        <ele>140.8</ele>
        <time>2024-08-06T08:22:51Z</time>
      </trkpt>
      <trkpt lat="43.66549" lon="3.36381">
        <ele>140.8</ele>
        <time>2024-08-06T08:22:52Z</time>
      </trkpt>
      <trkpt lat="43.66549" lon="3.36387">
        <ele>140.6</ele>
        <time>2024-08-06T08:22:53Z</time>
      </trkpt>
      <trkpt lat="43.66551" lon="3.36392">
        <ele>140.7</ele>
        <time>2024-08-06T08:22:54Z</time>
      </trkpt>
      <trkpt lat="43.66552" lon="3.36397">
        <ele>140.7</ele>
        <time>2024-08-06T08:22:55Z</time>
      </trkpt>
      <trkpt lat="43.66552" lon="3.36401">
        <ele>140.7</ele>
        <time>2024-08-06T08:22:56Z</time>
      </trkpt>
      <trkpt lat="43.66553" lon="3.36406">
        <ele>140.8</ele>
        <time>2024-08-06T08:22:57Z</time>
      </trkpt>
      <trkpt lat="43.66553" lon="3.3641">
        <ele>140.8</ele>
        <time>2024-08-06T08:22:58Z</time>
      </trkpt>
      <trkpt lat="43.66553" lon="3.36414">
        <ele>140.8</ele>
        <time>2024-08-06T08:22:59Z</time>
      </trkpt>
      <trkpt lat="43.66554" lon="3.36418">
        <ele>140.9</ele>
        <time>2024-08-06T08:23:00Z</time>
      </trkpt>
      <trkpt lat="43.66554" lon="3.36423">
        <ele>141.1</ele>
        <time>2024-08-06T08:23:01Z</time>
      </trkpt>
      <trkpt lat="43.66552" lon="3.36428">
        <ele>141.2</ele>
        <time>2024-08-06T08:23:02Z</time>
      </trkpt>
      <trkpt lat="43.66551" lon="3.36432">
        <ele>141.2</ele>
        <time>2024-08-06T08:23:03Z</time>
      </trkpt>
      <trkpt lat="43.6655" lon="3.36437">
        <ele>141.3</ele>
        <time>2024-08-06T08:23:04Z</time>
      </trkpt>
      <trkpt lat="43.66549" lon="3.36442">
        <ele>141.4</ele>
        <time>2024-08-06T08:23:05Z</time>
      </trkpt>
      <trkpt lat="43.66546" lon="3.36448">
        <ele>141.5</ele>
        <time>2024-08-06T08:23:06Z</time>
      </trkpt>
      <trkpt lat="43.66543" lon="3.36453">
        <ele>141.6</ele>
        <time>2024-08-06T08:23:07Z</time>
      </trkpt>
      <trkpt lat="43.66539" lon="3.36457">
        <ele>141.4</ele>
        <time>2024-08-06T08:23:08Z</time>
      </trkpt>
      <trkpt lat="43.66537" lon="3.36462">
        <ele>141.5</ele>
        <time>2024-08-06T08:23:09Z</time>
      </trkpt>
      <trkpt lat="43.66534" lon="3.36467">
        <ele>141.4</ele>
        <time>2024-08-06T08:23:10Z</time>
      </trkpt>
      <trkpt lat="43.66532" lon="3.36473">
        <ele>141.5</ele>
        <time>2024-08-06T08:23:11Z</time>
      </trkpt>
      <trkpt lat="43.6653" lon="3.36479">
        <ele>142</ele>
        <time>2024-08-06T08:23:12Z</time>
      </trkpt>
      <trkpt lat="43.66528" lon="3.36486">
        <ele>142.5</ele>
        <time>2024-08-06T08:23:13Z</time>
      </trkpt>
      <trkpt lat="43.66525" lon="3.3649">
        <ele>142.7</ele>
        <time>2024-08-06T08:23:14Z</time>
      </trkpt>
      <trkpt lat="43.66522" lon="3.36494">
        <ele>142.8</ele>
        <time>2024-08-06T08:23:15Z</time>
      </trkpt>
      <trkpt lat="43.66519" lon="3.36498">
        <ele>142.9</ele>
        <time>2024-08-06T08:23:16Z</time>
      </trkpt>
      <trkpt lat="43.66516" lon="3.36502">
        <ele>142.8</ele>
        <time>2024-08-06T08:23:17Z</time>
      </trkpt>
      <trkpt lat="43.66513" lon="3.36505">
        <ele>142.6</ele>
        <time>2024-08-06T08:23:18Z</time>
      </trkpt>
      <trkpt lat="43.66511" lon="3.36507">
        <ele>142.4</ele>
        <time>2024-08-06T08:23:19Z</time>
      </trkpt>
      <trkpt lat="43.66509" lon="3.3651">
        <ele>142.3</ele>
        <time>2024-08-06T08:23:20Z</time>
      </trkpt>
      <trkpt lat="43.66506" lon="3.36513">
        <ele>142.1</ele>
        <time>2024-08-06T08:23:21Z</time>
      </trkpt>
      <trkpt lat="43.66503" lon="3.36517">
        <ele>141.9</ele>
        <time>2024-08-06T08:23:22Z</time>
      </trkpt>
      <trkpt lat="43.66501" lon="3.36522">
        <ele>141.9</ele>
        <time>2024-08-06T08:23:23Z</time>
      </trkpt>
      <trkpt lat="43.66498" lon="3.36527">
        <ele>141.8</ele>
        <time>2024-08-06T08:23:24Z</time>
      </trkpt>
      <trkpt lat="43.66496" lon="3.36531">
        <ele>141.7</ele>
        <time>2024-08-06T08:23:25Z</time>
      </trkpt>
      <trkpt lat="43.66494" lon="3.36537">
        <ele>141.6</ele>
        <time>2024-08-06T08:23:26Z</time>
      </trkpt>
      <trkpt lat="43.66493" lon="3.36541">
        <ele>141.6</ele>
        <time>2024-08-06T08:23:27Z</time>
      </trkpt>
      <trkpt lat="43.66492" lon="3.36546">
        <ele>141.6</ele>
        <time>2024-08-06T08:23:28Z</time>
      </trkpt>
      <trkpt lat="43.66492" lon="3.36549">
        <ele>141.7</ele>
        <time>2024-08-06T08:23:29Z</time>
      </trkpt>
      <trkpt lat="43.66491" lon="3.36553">
        <ele>141.6</ele>
        <time>2024-08-06T08:23:30Z</time>
      </trkpt>
      <trkpt lat="43.6649" lon="3.36556">
        <ele>141.6</ele>
        <time>2024-08-06T08:23:31Z</time>
      </trkpt>
      <trkpt lat="43.6649" lon="3.3656">
        <ele>141.6</ele>
        <time>2024-08-06T08:23:32Z</time>
      </trkpt>
      <trkpt lat="43.66489" lon="3.36564">
        <ele>141.5</ele>
        <time>2024-08-06T08:23:33Z</time>
      </trkpt>
      <trkpt lat="43.6649" lon="3.36569">
        <ele>141.7</ele>
        <time>2024-08-06T08:23:34Z</time>
      </trkpt>
      <trkpt lat="43.6649" lon="3.36575">
        <ele>141.8</ele>
        <time>2024-08-06T08:23:35Z</time>
      </trkpt>
      <trkpt lat="43.6649" lon="3.36582">
        <ele>141.9</ele>
        <time>2024-08-06T08:23:36Z</time>
      </trkpt>
      <trkpt lat="43.66489" lon="3.36589">
        <ele>142.4</ele>
        <time>2024-08-06T08:23:37Z</time>
      </trkpt>
      <trkpt lat="43.66486" lon="3.36594">
        <ele>142.6</ele>
        <time>2024-08-06T08:23:38Z</time>
      </trkpt>
      <trkpt lat="43.66483" lon="3.36597">
        <ele>142.6</ele>
        <time>2024-08-06T08:23:39Z</time>
      </trkpt>
      <trkpt lat="43.66479" lon="3.36601">
        <ele>142.6</ele>
        <time>2024-08-06T08:23:40Z</time>
      </trkpt>
      <trkpt lat="43.66475" lon="3.36603">
        <ele>142.4</ele>
        <time>2024-08-06T08:23:41Z</time>
      </trkpt>
      <trkpt lat="43.66471" lon="3.36606">
        <ele>142.3</ele>
        <time>2024-08-06T08:23:42Z</time>
      </trkpt>
      <trkpt lat="43.66469" lon="3.3661">
        <ele>142.5</ele>
        <time>2024-08-06T08:23:43Z</time>
      </trkpt>
      <trkpt lat="43.66467" lon="3.36616">
        <ele>142.9</ele>
        <time>2024-08-06T08:23:44Z</time>
      </trkpt>
      <trkpt lat="43.66466" lon="3.36622">
        <ele>143.3</ele>
        <time>2024-08-06T08:23:45Z</time>
      </trkpt>
      <trkpt lat="43.66465" lon="3.36628">
        <ele>143.7</ele>
        <time>2024-08-06T08:23:46Z</time>
      </trkpt>
      <trkpt lat="43.66463" lon="3.36633">
        <ele>143.8</ele>
        <time>2024-08-06T08:23:47Z</time>
      </trkpt>
      <trkpt lat="43.66461" lon="3.36637">
        <ele>143.8</ele>
        <time>2024-08-06T08:23:48Z</time>
      </trkpt>
      <trkpt lat="43.66459" lon="3.36641">
        <ele>143.7</ele>
        <time>2024-08-06T08:23:49Z</time>
      </trkpt>
      <trkpt lat="43.66458" lon="3.36644">
        <ele>143.5</ele>
        <time>2024-08-06T08:23:50Z</time>
      </trkpt>
      <trkpt lat="43.66457" lon="3.36647">
        <ele>143.4</ele>
        <time>2024-08-06T08:23:51Z</time>
      </trkpt>
      <trkpt lat="43.66456" lon="3.36651">
        <ele>143.3</ele>
        <time>2024-08-06T08:23:52Z</time>
      </trkpt>
      <trkpt lat="43.66455" lon="3.36655">
        <ele>143.1</ele>
        <time>2024-08-06T08:23:53Z</time>
      </trkpt>
      <trkpt lat="43.66455" lon="3.3666">
        <ele>143.2</ele>
        <time>2024-08-06T08:23:54Z</time>
      </trkpt>
      <trkpt lat="43.66454" lon="3.36665">
        <ele>143</ele>
        <time>2024-08-06T08:23:55Z</time>
      </trkpt>
      <trkpt lat="43.66454" lon="3.3667">
        <ele>143.4</ele>
        <time>2024-08-06T08:23:56Z</time>
      </trkpt>
      <trkpt lat="43.66454" lon="3.36675">
        <ele>143.9</ele>
        <time>2024-08-06T08:23:57Z</time>
      </trkpt>
      <trkpt lat="43.66453" lon="3.3668">
        <ele>144.1</ele>
        <time>2024-08-06T08:23:58Z</time>
      </trkpt>
      <trkpt lat="43.66452" lon="3.36685">
        <ele>144.4</ele>
        <time>2024-08-06T08:23:59Z</time>
      </trkpt>
      <trkpt lat="43.6645" lon="3.36689">
        <ele>144.5</ele>
        <time>2024-08-06T08:24:00Z</time>
      </trkpt>
      <trkpt lat="43.66447" lon="3.36693">
        <ele>144.3</ele>
        <time>2024-08-06T08:24:01Z</time>
      </trkpt>
      <trkpt lat="43.66444" lon="3.36697">
        <ele>144.1</ele>
        <time>2024-08-06T08:24:02Z</time>
      </trkpt>
      <trkpt lat="43.66442" lon="3.36702">
        <ele>144.2</ele>
        <time>2024-08-06T08:24:03Z</time>
      </trkpt>
      <trkpt lat="43.66441" lon="3.36707">
        <ele>144.4</ele>
        <time>2024-08-06T08:24:04Z</time>
      </trkpt>
      <trkpt lat="43.66439" lon="3.36712">
        <ele>144.4</ele>
        <time>2024-08-06T08:24:05Z</time>
      </trkpt>
      <trkpt lat="43.66438" lon="3.36716">
        <ele>144.4</ele>
        <time>2024-08-06T08:24:06Z</time>
      </trkpt>
      <trkpt lat="43.66437" lon="3.36721">
        <ele>144.6</ele>
        <time>2024-08-06T08:24:07Z</time>
      </trkpt>
      <trkpt lat="43.66437" lon="3.36726">
        <ele>144.9</ele>
        <time>2024-08-06T08:24:08Z</time>
      </trkpt>
      <trkpt lat="43.66436" lon="3.36731">
        <ele>145.1</ele>
        <time>2024-08-06T08:24:09Z</time>
      </trkpt>
      <trkpt lat="43.66434" lon="3.36736">
        <ele>145.1</ele>
        <time>2024-08-06T08:24:10Z</time>
      </trkpt>
      <trkpt lat="43.66433" lon="3.36741">
        <ele>145.3</ele>
        <time>2024-08-06T08:24:11Z</time>
      </trkpt>
      <trkpt lat="43.66431" lon="3.36746">
        <ele>145.3</ele>
        <time>2024-08-06T08:24:12Z</time>
      </trkpt>
      <trkpt lat="43.6643" lon="3.36751">
        <ele>145.4</ele>
        <time>2024-08-06T08:24:13Z</time>
      </trkpt>
      <trkpt lat="43.66429" lon="3.36755">
        <ele>145</ele>
        <time>2024-08-06T08:24:14Z</time>
      </trkpt>
      <trkpt lat="43.66429" lon="3.36759">
        <ele>144.9</ele>
        <time>2024-08-06T08:24:15Z</time>
      </trkpt>
      <trkpt lat="43.66428" lon="3.36762">
        <ele>144.6</ele>
        <time>2024-08-06T08:24:16Z</time>
      </trkpt>
      <trkpt lat="43.66427" lon="3.36766">
        <ele>144.3</ele>
        <time>2024-08-06T08:24:17Z</time>
      </trkpt>
      <trkpt lat="43.66425" lon="3.36771">
        <ele>143.7</ele>
        <time>2024-08-06T08:24:18Z</time>
      </trkpt>
      <trkpt lat="43.66423" lon="3.36776">
        <ele>143.2</ele>
        <time>2024-08-06T08:24:19Z</time>
      </trkpt>
      <trkpt lat="43.66423" lon="3.36783">
        <ele>143</ele>
        <time>2024-08-06T08:24:20Z</time>
      </trkpt>
      <trkpt lat="43.66423" lon="3.3679">
        <ele>142.7</ele>
        <time>2024-08-06T08:24:21Z</time>
      </trkpt>
      <trkpt lat="43.66424" lon="3.36797">
        <ele>142.6</ele>
        <time>2024-08-06T08:24:22Z</time>
      </trkpt>
      <trkpt lat="43.66425" lon="3.36805">
        <ele>142.5</ele>
        <time>2024-08-06T08:24:23Z</time>
      </trkpt>
      <trkpt lat="43.66425" lon="3.36813">
        <ele>142.5</ele>
        <time>2024-08-06T08:24:24Z</time>
      </trkpt>
      <trkpt lat="43.66424" lon="3.36821">
        <ele>142.3</ele>
        <time>2024-08-06T08:24:25Z</time>
      </trkpt>
      <trkpt lat="43.66423" lon="3.36829">
        <ele>142.1</ele>
        <time>2024-08-06T08:24:26Z</time>
      </trkpt>
      <trkpt lat="43.66423" lon="3.36837">
        <ele>142.6</ele>
        <time>2024-08-06T08:24:27Z</time>
      </trkpt>
      <trkpt lat="43.6642" lon="3.36844">
        <ele>143.1</ele>
        <time>2024-08-06T08:24:28Z</time>
      </trkpt>
      <trkpt lat="43.66416" lon="3.36849">
        <ele>143.2</ele>
        <time>2024-08-06T08:24:29Z</time>
      </trkpt>
      <trkpt lat="43.66413" lon="3.36854">
        <ele>143.6</ele>
        <time>2024-08-06T08:24:30Z</time>
      </trkpt>
      <trkpt lat="43.66411" lon="3.36858">
        <ele>144</ele>
        <time>2024-08-06T08:24:31Z</time>
      </trkpt>
      <trkpt lat="43.66407" lon="3.36862">
        <ele>144.1</ele>
        <time>2024-08-06T08:24:32Z</time>
      </trkpt>
      <trkpt lat="43.66404" lon="3.36868">
        <ele>144.7</ele>
        <time>2024-08-06T08:24:33Z</time>
      </trkpt>
      <trkpt lat="43.66401" lon="3.36873">
        <ele>144.9</ele>
        <time>2024-08-06T08:24:34Z</time>
      </trkpt>
      <trkpt lat="43.66399" lon="3.36879">
        <ele>145.3</ele>
        <time>2024-08-06T08:24:35Z</time>
      </trkpt>
      <trkpt lat="43.66396" lon="3.36885">
        <ele>145.4</ele>
        <time>2024-08-06T08:24:36Z</time>
      </trkpt>
      <trkpt lat="43.66393" lon="3.36891">
        <ele>145.4</ele>
        <time>2024-08-06T08:24:37Z</time>
      </trkpt>
      <trkpt lat="43.6639" lon="3.36899">
        <ele>146.1</ele>
        <time>2024-08-06T08:24:38Z</time>
      </trkpt>
      <trkpt lat="43.66386" lon="3.36905">
        <ele>146.4</ele>
        <time>2024-08-06T08:24:39Z</time>
      </trkpt>
      <trkpt lat="43.66382" lon="3.36911">
        <ele>146.6</ele>
        <time>2024-08-06T08:24:40Z</time>
      </trkpt>
      <trkpt lat="43.66379" lon="3.36916">
        <ele>146.8</ele>
        <time>2024-08-06T08:24:41Z</time>
      </trkpt>
      <trkpt lat="43.66376" lon="3.36922">
        <ele>146.5</ele>
        <time>2024-08-06T08:24:42Z</time>
      </trkpt>
      <trkpt lat="43.66373" lon="3.36929">
        <ele>146.2</ele>
        <time>2024-08-06T08:24:43Z</time>
      </trkpt>
      <trkpt lat="43.66371" lon="3.36935">
        <ele>146</ele>
        <time>2024-08-06T08:24:44Z</time>
      </trkpt>
      <trkpt lat="43.66369" lon="3.36941">
        <ele>145.8</ele>
        <time>2024-08-06T08:24:45Z</time>
      </trkpt>
      <trkpt lat="43.66367" lon="3.36947">
        <ele>145.6</ele>
        <time>2024-08-06T08:24:46Z</time>
      </trkpt>
      <trkpt lat="43.66365" lon="3.36953">
        <ele>145.2</ele>
        <time>2024-08-06T08:24:47Z</time>
      </trkpt>
      <trkpt lat="43.66364" lon="3.36959">
        <ele>145.2</ele>
        <time>2024-08-06T08:24:48Z</time>
      </trkpt>
      <trkpt lat="43.66363" lon="3.36965">
        <ele>145.2</ele>
        <time>2024-08-06T08:24:49Z</time>
      </trkpt>
      <trkpt lat="43.66361" lon="3.36971">
        <ele>144.9</ele>
        <time>2024-08-06T08:24:50Z</time>
      </trkpt>
      <trkpt lat="43.6636" lon="3.36978">
        <ele>144.6</ele>
        <time>2024-08-06T08:24:51Z</time>
      </trkpt>
      <trkpt lat="43.66358" lon="3.36984">
        <ele>144.2</ele>
        <time>2024-08-06T08:24:52Z</time>
      </trkpt>
      <trkpt lat="43.66356" lon="3.36989">
        <ele>143.9</ele>
        <time>2024-08-06T08:24:53Z</time>
      </trkpt>
      <trkpt lat="43.66354" lon="3.36994">
        <ele>143.6</ele>
        <time>2024-08-06T08:24:54Z</time>
      </trkpt>
      <trkpt lat="43.66352" lon="3.36998">
        <ele>143.4</ele>
        <time>2024-08-06T08:24:55Z</time>
      </trkpt>
      <trkpt lat="43.66349" lon="3.37001">
        <ele>143.1</ele>
        <time>2024-08-06T08:24:56Z</time>
      </trkpt>
      <trkpt lat="43.66348" lon="3.37003">
        <ele>143.1</ele>
        <time>2024-08-06T08:24:57Z</time>
      </trkpt>
      <trkpt lat="43.66346" lon="3.37004">
        <ele>143</ele>
        <time>2024-08-06T08:24:58Z</time>
      </trkpt>
      <trkpt lat="43.66344" lon="3.37005">
        <ele>142.8</ele>
        <time>2024-08-06T08:24:59Z</time>
      </trkpt>
      <trkpt lat="43.66342" lon="3.37007">
        <ele>142.7</ele>
        <time>2024-08-06T08:25:00Z</time>
      </trkpt>
      <trkpt lat="43.66341" lon="3.3701">
        <ele>142.7</ele>
        <time>2024-08-06T08:25:01Z</time>
      </trkpt>
      <trkpt lat="43.6634" lon="3.37012">
        <ele>142.6</ele>
        <time>2024-08-06T08:25:02Z</time>
      </trkpt>
      <trkpt lat="43.66339" lon="3.37014">
        <ele>142.5</ele>
        <time>2024-08-06T08:25:03Z</time>
      </trkpt>
      <trkpt lat="43.66338" lon="3.37015">
        <ele>142.4</ele>
        <time>2024-08-06T08:25:04Z</time>
      </trkpt>
      <trkpt lat="43.66337" lon="3.37017">
        <ele>142.3</ele>
        <time>2024-08-06T08:25:05Z</time>
      </trkpt>
      <trkpt lat="43.66335" lon="3.37018">
        <ele>142.2</ele>
        <time>2024-08-06T08:25:06Z</time>
      </trkpt>
      <trkpt lat="43.66333" lon="3.37021">
        <ele>142</ele>
        <time>2024-08-06T08:25:07Z</time>
      </trkpt>
      <trkpt lat="43.66332" lon="3.37024">
        <ele>142</ele>
        <time>2024-08-06T08:25:08Z</time>
      </trkpt>
      <trkpt lat="43.6633" lon="3.37027">
        <ele>142</ele>
        <time>2024-08-06T08:25:09Z</time>
      </trkpt>
      <trkpt lat="43.66328" lon="3.3703">
        <ele>142.2</ele>
        <time>2024-08-06T08:25:10Z</time>
      </trkpt>
      <trkpt lat="43.66326" lon="3.37032">
        <ele>142.3</ele>
        <time>2024-08-06T08:25:11Z</time>
      </trkpt>
      <trkpt lat="43.66325" lon="3.37034">
        <ele>142.4</ele>
        <time>2024-08-06T08:25:12Z</time>
      </trkpt>
      <trkpt lat="43.66324" lon="3.37037">
        <ele>142.7</ele>
        <time>2024-08-06T08:25:13Z</time>
      </trkpt>
      <trkpt lat="43.66323" lon="3.3704">
        <ele>142.9</ele>
        <time>2024-08-06T08:25:14Z</time>
      </trkpt>
      <trkpt lat="43.66321" lon="3.37041">
        <ele>143</ele>
        <time>2024-08-06T08:25:15Z</time>
      </trkpt>
      <trkpt lat="43.66319" lon="3.37043">
        <ele>143.1</ele>
        <time>2024-08-06T08:25:16Z</time>
      </trkpt>
      <trkpt lat="43.66314" lon="3.37046">
        <ele>143.3</ele>
        <time>2024-08-06T08:25:17Z</time>
      </trkpt>
      <trkpt lat="43.6631" lon="3.3705">
        <ele>143.6</ele>
        <time>2024-08-06T08:25:18Z</time>
      </trkpt>
      <trkpt lat="43.66307" lon="3.37054">
        <ele>143.9</ele>
        <time>2024-08-06T08:25:19Z</time>
      </trkpt>
      <trkpt lat="43.66304" lon="3.37058">
        <ele>144</ele>
        <time>2024-08-06T08:25:20Z</time>
      </trkpt>
      <trkpt lat="43.66301" lon="3.37062">
        <ele>144.1</ele>
        <time>2024-08-06T08:25:21Z</time>
      </trkpt>
      <trkpt lat="43.66297" lon="3.37067">
        <ele>144.1</ele>
        <time>2024-08-06T08:25:22Z</time>
      </trkpt>
      <trkpt lat="43.66295" lon="3.37071">
        <ele>144.2</ele>
        <time>2024-08-06T08:25:23Z</time>
      </trkpt>
      <trkpt lat="43.66293" lon="3.37075">
        <ele>144.2</ele>
        <time>2024-08-06T08:25:24Z</time>
      </trkpt>
      <trkpt lat="43.66291" lon="3.37078">
        <ele>144.3</ele>
        <time>2024-08-06T08:25:25Z</time>
      </trkpt>
      <trkpt lat="43.66289" lon="3.37083">
        <ele>144.4</ele>
        <time>2024-08-06T08:25:26Z</time>
      </trkpt>
      <trkpt lat="43.66288" lon="3.37087">
        <ele>144.4</ele>
        <time>2024-08-06T08:25:27Z</time>
      </trkpt>
      <trkpt lat="43.66286" lon="3.37091">
        <ele>144.4</ele>
        <time>2024-08-06T08:25:28Z</time>
      </trkpt>
      <trkpt lat="43.66285" lon="3.37095">
        <ele>144.4</ele>
        <time>2024-08-06T08:25:29Z</time>
      </trkpt>
      <trkpt lat="43.66283" lon="3.37098">
        <ele>144.3</ele>
        <time>2024-08-06T08:25:30Z</time>
      </trkpt>
      <trkpt lat="43.66283" lon="3.37102">
        <ele>144.3</ele>
        <time>2024-08-06T08:25:31Z</time>
      </trkpt>
      <trkpt lat="43.66283" lon="3.37106">
        <ele>144.3</ele>
        <time>2024-08-06T08:25:32Z</time>
      </trkpt>
      <trkpt lat="43.66283" lon="3.37111">
        <ele>144.4</ele>
        <time>2024-08-06T08:25:33Z</time>
      </trkpt>
      <trkpt lat="43.66283" lon="3.37114">
        <ele>144.4</ele>
        <time>2024-08-06T08:25:34Z</time>
      </trkpt>
      <trkpt lat="43.66283" lon="3.37118">
        <ele>144.4</ele>
        <time>2024-08-06T08:25:35Z</time>
      </trkpt>
      <trkpt lat="43.66284" lon="3.37122">
        <ele>144.4</ele>
        <time>2024-08-06T08:25:36Z</time>
      </trkpt>
      <trkpt lat="43.66284" lon="3.37126">
        <ele>144.4</ele>
        <time>2024-08-06T08:25:37Z</time>
      </trkpt>
      <trkpt lat="43.66284" lon="3.37131">
        <ele>144.4</ele>
        <time>2024-08-06T08:25:38Z</time>
      </trkpt>
      <trkpt lat="43.66284" lon="3.37136">
        <ele>144.4</ele>
        <time>2024-08-06T08:25:39Z</time>
      </trkpt>
      <trkpt lat="43.66285" lon="3.3714">
        <ele>144.5</ele>
        <time>2024-08-06T08:25:40Z</time>
      </trkpt>
      <trkpt lat="43.66286" lon="3.37143">
        <ele>144.6</ele>
        <time>2024-08-06T08:25:41Z</time>
      </trkpt>
      <trkpt lat="43.66286" lon="3.37146">
        <ele>144.7</ele>
        <time>2024-08-06T08:25:42Z</time>
      </trkpt>
      <trkpt lat="43.66287" lon="3.37149">
        <ele>144.8</ele>
        <time>2024-08-06T08:25:43Z</time>
      </trkpt>
      <trkpt lat="43.66288" lon="3.37152">
        <ele>144.9</ele>
        <time>2024-08-06T08:25:44Z</time>
      </trkpt>
      <trkpt lat="43.66289" lon="3.37155">
        <ele>145</ele>
        <time>2024-08-06T08:25:45Z</time>
      </trkpt>
      <trkpt lat="43.6629" lon="3.37159">
        <ele>145.2</ele>
        <time>2024-08-06T08:25:46Z</time>
      </trkpt>
      <trkpt lat="43.66291" lon="3.37162">
        <ele>145.3</ele>
        <time>2024-08-06T08:25:47Z</time>
      </trkpt>
      <trkpt lat="43.66292" lon="3.37165">
        <ele>145.5</ele>
        <time>2024-08-06T08:25:48Z</time>
      </trkpt>
      <trkpt lat="43.66295" lon="3.37167">
        <ele>145.8</ele>
        <time>2024-08-06T08:25:49Z</time>
      </trkpt>
      <trkpt lat="43.66297" lon="3.37169">
        <ele>146</ele>
        <time>2024-08-06T08:25:50Z</time>
      </trkpt>
      <trkpt lat="43.66299" lon="3.37171">
        <ele>146.1</ele>
        <time>2024-08-06T08:25:51Z</time>
      </trkpt>
      <trkpt lat="43.66301" lon="3.37174">
        <ele>146.2</ele>
        <time>2024-08-06T08:25:52Z</time>
      </trkpt>
      <trkpt lat="43.66304" lon="3.37175">
        <ele>146.5</ele>
        <time>2024-08-06T08:25:53Z</time>
      </trkpt>
      <trkpt lat="43.66306" lon="3.37177">
        <ele>146.7</ele>
        <time>2024-08-06T08:25:54Z</time>
      </trkpt>
      <trkpt lat="43.66308" lon="3.3718">
        <ele>146.7</ele>
        <time>2024-08-06T08:25:55Z</time>
      </trkpt>
      <trkpt lat="43.6631" lon="3.37182">
        <ele>146.8</ele>
        <time>2024-08-06T08:25:56Z</time>
      </trkpt>
      <trkpt lat="43.66312" lon="3.37185">
        <ele>146.9</ele>
        <time>2024-08-06T08:25:57Z</time>
      </trkpt>
      <trkpt lat="43.66314" lon="3.37188">
        <ele>147</ele>
        <time>2024-08-06T08:25:58Z</time>
      </trkpt>
      <trkpt lat="43.66316" lon="3.37191">
        <ele>147.2</ele>
        <time>2024-08-06T08:25:59Z</time>
      </trkpt>
      <trkpt lat="43.66317" lon="3.37194">
        <ele>147.2</ele>
        <time>2024-08-06T08:26:00Z</time>
      </trkpt>
      <trkpt lat="43.66319" lon="3.37196">
        <ele>147.4</ele>
        <time>2024-08-06T08:26:01Z</time>
      </trkpt>
      <trkpt lat="43.66321" lon="3.37199">
        <ele>147.5</ele>
        <time>2024-08-06T08:26:02Z</time>
      </trkpt>
      <trkpt lat="43.66323" lon="3.37202">
        <ele>147.7</ele>
        <time>2024-08-06T08:26:03Z</time>
      </trkpt>
      <trkpt lat="43.66324" lon="3.37206">
        <ele>147.7</ele>
        <time>2024-08-06T08:26:04Z</time>
      </trkpt>
      <trkpt lat="43.66326" lon="3.37209">
        <ele>147.9</ele>
        <time>2024-08-06T08:26:05Z</time>
      </trkpt>
      <trkpt lat="43.66328" lon="3.37212">
        <ele>148.2</ele>
        <time>2024-08-06T08:26:06Z</time>
      </trkpt>
      <trkpt lat="43.6633" lon="3.37215">
        <ele>148.5</ele>
        <time>2024-08-06T08:26:07Z</time>
      </trkpt>
      <trkpt lat="43.66332" lon="3.37218">
        <ele>148.8</ele>
        <time>2024-08-06T08:26:08Z</time>
      </trkpt>
      <trkpt lat="43.66334" lon="3.37221">
        <ele>149.1</ele>
        <time>2024-08-06T08:26:09Z</time>
      </trkpt>
      <trkpt lat="43.66337" lon="3.37224">
        <ele>149.3</ele>
        <time>2024-08-06T08:26:10Z</time>
      </trkpt>
      <trkpt lat="43.66339" lon="3.37226">
        <ele>149.4</ele>
        <time>2024-08-06T08:26:11Z</time>
      </trkpt>
      <trkpt lat="43.66341" lon="3.37229">
        <ele>149.4</ele>
        <time>2024-08-06T08:26:12Z</time>
      </trkpt>
      <trkpt lat="43.66343" lon="3.37231">
        <ele>149.5</ele>
        <time>2024-08-06T08:26:13Z</time>
      </trkpt>
      <trkpt lat="43.66345" lon="3.37233">
        <ele>149.6</ele>
        <time>2024-08-06T08:26:14Z</time>
      </trkpt>
      <trkpt lat="43.66348" lon="3.37236">
        <ele>149.9</ele>
        <time>2024-08-06T08:26:15Z</time>
      </trkpt>
      <trkpt lat="43.6635" lon="3.37239">
        <ele>150</ele>
        <time>2024-08-06T08:26:16Z</time>
      </trkpt>
      <trkpt lat="43.66352" lon="3.37241">
        <ele>150.1</ele>
        <time>2024-08-06T08:26:17Z</time>
      </trkpt>
      <trkpt lat="43.66354" lon="3.37244">
        <ele>150.2</ele>
        <time>2024-08-06T08:26:18Z</time>
      </trkpt>
      <trkpt lat="43.66357" lon="3.37245">
        <ele>150.6</ele>
        <time>2024-08-06T08:26:19Z</time>
      </trkpt>
      <trkpt lat="43.66359" lon="3.37246">
        <ele>150.9</ele>
        <time>2024-08-06T08:26:20Z</time>
      </trkpt>
      <trkpt lat="43.66362" lon="3.37247">
        <ele>151.2</ele>
        <time>2024-08-06T08:26:21Z</time>
      </trkpt>
      <trkpt lat="43.66365" lon="3.37247">
        <ele>151.7</ele>
        <time>2024-08-06T08:26:22Z</time>
      </trkpt>
      <trkpt lat="43.66368" lon="3.37247">
        <ele>152.1</ele>
        <time>2024-08-06T08:26:23Z</time>
      </trkpt>
      <trkpt lat="43.6637" lon="3.37247">
        <ele>152.4</ele>
        <time>2024-08-06T08:26:24Z</time>
      </trkpt>
      <trkpt lat="43.66373" lon="3.37246">
        <ele>152.8</ele>
        <time>2024-08-06T08:26:25Z</time>
      </trkpt>
      <trkpt lat="43.66375" lon="3.37245">
        <ele>153.1</ele>
        <time>2024-08-06T08:26:26Z</time>
      </trkpt>
      <trkpt lat="43.66377" lon="3.37244">
        <ele>153.4</ele>
        <time>2024-08-06T08:26:27Z</time>
      </trkpt>
      <trkpt lat="43.6638" lon="3.37243">
        <ele>153.8</ele>
        <time>2024-08-06T08:26:28Z</time>
      </trkpt>
      <trkpt lat="43.66383" lon="3.37243">
        <ele>154.2</ele>
        <time>2024-08-06T08:26:29Z</time>
      </trkpt>
      <trkpt lat="43.66385" lon="3.37243">
        <ele>154.5</ele>
        <time>2024-08-06T08:26:30Z</time>
      </trkpt>
      <trkpt lat="43.66388" lon="3.37244">
        <ele>154.9</ele>
        <time>2024-08-06T08:26:31Z</time>
      </trkpt>
      <trkpt lat="43.6639" lon="3.37244">
        <ele>155.2</ele>
        <time>2024-08-06T08:26:32Z</time>
      </trkpt>
      <trkpt lat="43.66392" lon="3.37245">
        <ele>155.4</ele>
        <time>2024-08-06T08:26:33Z</time>
      </trkpt>
      <trkpt lat="43.66394" lon="3.37247">
        <ele>155.7</ele>
        <time>2024-08-06T08:26:34Z</time>
      </trkpt>
      <trkpt lat="43.66396" lon="3.3725">
        <ele>156</ele>
        <time>2024-08-06T08:26:35Z</time>
      </trkpt>
      <trkpt lat="43.66398" lon="3.37253">
        <ele>156.2</ele>
        <time>2024-08-06T08:26:36Z</time>
      </trkpt>
      <trkpt lat="43.664" lon="3.37255">
        <ele>156.5</ele>
        <time>2024-08-06T08:26:37Z</time>
      </trkpt>
      <trkpt lat="43.66403" lon="3.37256">
        <ele>156.9</ele>
        <time>2024-08-06T08:26:38Z</time>
      </trkpt>
      <trkpt lat="43.66405" lon="3.37258">
        <ele>157.2</ele>
        <time>2024-08-06T08:26:39Z</time>
      </trkpt>
      <trkpt lat="43.66407" lon="3.3726">
        <ele>157.5</ele>
        <time>2024-08-06T08:26:40Z</time>
      </trkpt>
      <trkpt lat="43.6641" lon="3.37261">
        <ele>157.9</ele>
        <time>2024-08-06T08:26:41Z</time>
      </trkpt>
      <trkpt lat="43.66412" lon="3.37263">
        <ele>158.2</ele>
        <time>2024-08-06T08:26:42Z</time>
      </trkpt>
      <trkpt lat="43.66414" lon="3.37263">
        <ele>158.6</ele>
        <time>2024-08-06T08:26:43Z</time>
      </trkpt>
      <trkpt lat="43.66417" lon="3.37264">
        <ele>159.1</ele>
        <time>2024-08-06T08:26:44Z</time>
      </trkpt>
      <trkpt lat="43.66419" lon="3.37265">
        <ele>159.4</ele>
        <time>2024-08-06T08:26:45Z</time>
      </trkpt>
      <trkpt lat="43.66421" lon="3.37267">
        <ele>159.7</ele>
        <time>2024-08-06T08:26:46Z</time>
      </trkpt>
      <trkpt lat="43.66424" lon="3.37268">
        <ele>160.2</ele>
        <time>2024-08-06T08:26:47Z</time>
      </trkpt>
      <trkpt lat="43.66426" lon="3.3727">
        <ele>160.6</ele>
        <time>2024-08-06T08:26:48Z</time>
      </trkpt>
      <trkpt lat="43.66428" lon="3.37272">
        <ele>161</ele>
        <time>2024-08-06T08:26:49Z</time>
      </trkpt>
      <trkpt lat="43.6643" lon="3.37274">
        <ele>161.3</ele>
        <time>2024-08-06T08:26:50Z</time>
      </trkpt>
      <trkpt lat="43.66432" lon="3.37275">
        <ele>161.7</ele>
        <time>2024-08-06T08:26:51Z</time>
      </trkpt>
      <trkpt lat="43.66434" lon="3.37278">
        <ele>162.1</ele>
        <time>2024-08-06T08:26:52Z</time>
      </trkpt>
      <trkpt lat="43.66436" lon="3.3728">
        <ele>162.5</ele>
        <time>2024-08-06T08:26:53Z</time>
      </trkpt>
      <trkpt lat="43.66437" lon="3.37282">
        <ele>162.7</ele>
        <time>2024-08-06T08:26:54Z</time>
      </trkpt>
      <trkpt lat="43.66439" lon="3.37284">
        <ele>163.1</ele>
        <time>2024-08-06T08:26:55Z</time>
      </trkpt>
      <trkpt lat="43.66441" lon="3.37286">
        <ele>163.5</ele>
        <time>2024-08-06T08:26:56Z</time>
      </trkpt>
      <trkpt lat="43.66443" lon="3.37287">
        <ele>163.8</ele>
        <time>2024-08-06T08:26:57Z</time>
      </trkpt>
      <trkpt lat="43.66445" lon="3.37289">
        <ele>164.1</ele>
        <time>2024-08-06T08:26:58Z</time>
      </trkpt>
      <trkpt lat="43.66448" lon="3.37291">
        <ele>164.5</ele>
        <time>2024-08-06T08:26:59Z</time>
      </trkpt>
      <trkpt lat="43.6645" lon="3.37293">
        <ele>164.8</ele>
        <time>2024-08-06T08:27:00Z</time>
      </trkpt>
      <trkpt lat="43.66452" lon="3.37294">
        <ele>165.1</ele>
        <time>2024-08-06T08:27:01Z</time>
      </trkpt>
      <trkpt lat="43.66454" lon="3.37295">
        <ele>165.5</ele>
        <time>2024-08-06T08:27:02Z</time>
      </trkpt>
      <trkpt lat="43.66457" lon="3.37296">
        <ele>165.9</ele>
        <time>2024-08-06T08:27:03Z</time>
      </trkpt>
      <trkpt lat="43.66459" lon="3.37297">
        <ele>166.3</ele>
        <time>2024-08-06T08:27:04Z</time>
      </trkpt>
      <trkpt lat="43.66461" lon="3.37299">
        <ele>166.7</ele>
        <time>2024-08-06T08:27:05Z</time>
      </trkpt>
      <trkpt lat="43.66463" lon="3.37301">
        <ele>167.1</ele>
        <time>2024-08-06T08:27:06Z</time>
      </trkpt>
      <trkpt lat="43.66464" lon="3.37303">
        <ele>167.4</ele>
        <time>2024-08-06T08:27:07Z</time>
      </trkpt>
      <trkpt lat="43.66466" lon="3.37304">
        <ele>167.8</ele>
        <time>2024-08-06T08:27:08Z</time>
      </trkpt>
      <trkpt lat="43.66468" lon="3.37305">
        <ele>168.2</ele>
        <time>2024-08-06T08:27:09Z</time>
      </trkpt>
      <trkpt lat="43.6647" lon="3.37305">
        <ele>168.6</ele>
        <time>2024-08-06T08:27:10Z</time>
      </trkpt>
      <trkpt lat="43.66472" lon="3.37307">
        <ele>169</ele>
        <time>2024-08-06T08:27:11Z</time>
      </trkpt>
      <trkpt lat="43.66475" lon="3.37308">
        <ele>169.5</ele>
        <time>2024-08-06T08:27:12Z</time>
      </trkpt>
      <trkpt lat="43.66478" lon="3.3731">
        <ele>170</ele>
        <time>2024-08-06T08:27:13Z</time>
      </trkpt>
      <trkpt lat="43.66481" lon="3.37313">
        <ele>170.6</ele>
        <time>2024-08-06T08:27:14Z</time>
      </trkpt>
      <trkpt lat="43.66485" lon="3.37316">
        <ele>171.4</ele>
        <time>2024-08-06T08:27:15Z</time>
      </trkpt>
      <trkpt lat="43.66488" lon="3.37318">
        <ele>172</ele>
        <time>2024-08-06T08:27:16Z</time>
      </trkpt>
      <trkpt lat="43.66492" lon="3.3732">
        <ele>172.7</ele>
        <time>2024-08-06T08:27:17Z</time>
      </trkpt>
      <trkpt lat="43.66495" lon="3.37322">
        <ele>173.4</ele>
        <time>2024-08-06T08:27:18Z</time>
      </trkpt>
      <trkpt lat="43.66497" lon="3.37325">
        <ele>173.9</ele>
        <time>2024-08-06T08:27:19Z</time>
      </trkpt>
      <trkpt lat="43.665" lon="3.37329">
        <ele>174.7</ele>
        <time>2024-08-06T08:27:20Z</time>
      </trkpt>
      <trkpt lat="43.66502" lon="3.37333">
        <ele>175.3</ele>
        <time>2024-08-06T08:27:21Z</time>
      </trkpt>
      <trkpt lat="43.66505" lon="3.37337">
        <ele>176.2</ele>
        <time>2024-08-06T08:27:22Z</time>
      </trkpt>
      <trkpt lat="43.66508" lon="3.3734">
        <ele>177.1</ele>
        <time>2024-08-06T08:27:23Z</time>
      </trkpt>
      <trkpt lat="43.66512" lon="3.37342">
        <ele>178.1</ele>
        <time>2024-08-06T08:27:24Z</time>
      </trkpt>
      <trkpt lat="43.66515" lon="3.37342">
        <ele>178.7</ele>
        <time>2024-08-06T08:27:25Z</time>
      </trkpt>
      <trkpt lat="43.66519" lon="3.37341">
        <ele>179.3</ele>
        <time>2024-08-06T08:27:26Z</time>
      </trkpt>
      <trkpt lat="43.66523" lon="3.3734">
        <ele>180</ele>
        <time>2024-08-06T08:27:27Z</time>
      </trkpt>
      <trkpt lat="43.66526" lon="3.37337">
        <ele>180.2</ele>
        <time>2024-08-06T08:27:28Z</time>
      </trkpt>
      <trkpt lat="43.66529" lon="3.37333">
        <ele>180.3</ele>
        <time>2024-08-06T08:27:29Z</time>
      </trkpt>
      <trkpt lat="43.66532" lon="3.37329">
        <ele>180.6</ele>
        <time>2024-08-06T08:27:30Z</time>
      </trkpt>
      <trkpt lat="43.66535" lon="3.37325">
        <ele>180.8</ele>
        <time>2024-08-06T08:27:31Z</time>
      </trkpt>
      <trkpt lat="43.66538" lon="3.37321">
        <ele>181.1</ele>
        <time>2024-08-06T08:27:32Z</time>
      </trkpt>
      <trkpt lat="43.66542" lon="3.37318">
        <ele>181.6</ele>
        <time>2024-08-06T08:27:33Z</time>
      </trkpt>
      <trkpt lat="43.66546" lon="3.37316">
        <ele>182.3</ele>
        <time>2024-08-06T08:27:34Z</time>
      </trkpt>
      <trkpt lat="43.66551" lon="3.37314">
        <ele>183.2</ele>
        <time>2024-08-06T08:27:35Z</time>
      </trkpt>
      <trkpt lat="43.66556" lon="3.37312">
        <ele>184</ele>
        <time>2024-08-06T08:27:36Z</time>
      </trkpt>
      <trkpt lat="43.66561" lon="3.3731">
        <ele>184.7</ele>
        <time>2024-08-06T08:27:37Z</time>
      </trkpt>
      <trkpt lat="43.66567" lon="3.37308">
        <ele>185.4</ele>
        <time>2024-08-06T08:27:38Z</time>
      </trkpt>
      <trkpt lat="43.66572" lon="3.37305">
        <ele>185.9</ele>
        <time>2024-08-06T08:27:39Z</time>
      </trkpt>
      <trkpt lat="43.66577" lon="3.37302">
        <ele>186.4</ele>
        <time>2024-08-06T08:27:40Z</time>
      </trkpt>
      <trkpt lat="43.66581" lon="3.37299">
        <ele>186.9</ele>
        <time>2024-08-06T08:27:41Z</time>
      </trkpt>
      <trkpt lat="43.66585" lon="3.37295">
        <ele>187.1</ele>
        <time>2024-08-06T08:27:42Z</time>
      </trkpt>
      <trkpt lat="43.66588" lon="3.37291">
        <ele>187.2</ele>
        <time>2024-08-06T08:27:43Z</time>
      </trkpt>
      <trkpt lat="43.66592" lon="3.37287">
        <ele>187.3</ele>
        <time>2024-08-06T08:27:44Z</time>
      </trkpt>
      <trkpt lat="43.66596" lon="3.37284">
        <ele>187.6</ele>
        <time>2024-08-06T08:27:45Z</time>
      </trkpt>
      <trkpt lat="43.66599" lon="3.37282">
        <ele>187.8</ele>
        <time>2024-08-06T08:27:46Z</time>
      </trkpt>
      <trkpt lat="43.66603" lon="3.37283">
        <ele>188.5</ele>
        <time>2024-08-06T08:27:47Z</time>
      </trkpt>
      <trkpt lat="43.66605" lon="3.37286">
        <ele>189.2</ele>
        <time>2024-08-06T08:27:48Z</time>
      </trkpt>
      <trkpt lat="43.66606" lon="3.3729">
        <ele>189.9</ele>
        <time>2024-08-06T08:27:49Z</time>
      </trkpt>
      <trkpt lat="43.66604" lon="3.37293">
        <ele>190</ele>
        <time>2024-08-06T08:27:50Z</time>
      </trkpt>
      <trkpt lat="43.66601" lon="3.37295">
        <ele>189.8</ele>
        <time>2024-08-06T08:27:51Z</time>
      </trkpt>
      <trkpt lat="43.66598" lon="3.37298">
        <ele>189.7</ele>
        <time>2024-08-06T08:27:52Z</time>
      </trkpt>
      <trkpt lat="43.66596" lon="3.37301">
        <ele>189.7</ele>
        <time>2024-08-06T08:27:53Z</time>
      </trkpt>
      <trkpt lat="43.66593" lon="3.37303">
        <ele>189.4</ele>
        <time>2024-08-06T08:27:54Z</time>
      </trkpt>
      <trkpt lat="43.66591" lon="3.37305">
        <ele>189.3</ele>
        <time>2024-08-06T08:27:55Z</time>
      </trkpt>
      <trkpt lat="43.66589" lon="3.37307">
        <ele>189.3</ele>
        <time>2024-08-06T08:27:56Z</time>
      </trkpt>
      <trkpt lat="43.66586" lon="3.3731">
        <ele>189.3</ele>
        <time>2024-08-06T08:27:57Z</time>
      </trkpt>
      <trkpt lat="43.66584" lon="3.37313">
        <ele>189.5</ele>
        <time>2024-08-06T08:27:58Z</time>
      </trkpt>
      <trkpt lat="43.66582" lon="3.37316">
        <ele>189.6</ele>
        <time>2024-08-06T08:27:59Z</time>
      </trkpt>
      <trkpt lat="43.6658" lon="3.37318">
        <ele>189.6</ele>
        <time>2024-08-06T08:28:00Z</time>
      </trkpt>
      <trkpt lat="43.66577" lon="3.37321">
        <ele>189.5</ele>
        <time>2024-08-06T08:28:01Z</time>
      </trkpt>
      <trkpt lat="43.66575" lon="3.37324">
        <ele>189.6</ele>
        <time>2024-08-06T08:28:02Z</time>
      </trkpt>
      <trkpt lat="43.66572" lon="3.37326">
        <ele>189.3</ele>
        <time>2024-08-06T08:28:03Z</time>
      </trkpt>
      <trkpt lat="43.66571" lon="3.37328">
        <ele>189.5</ele>
        <time>2024-08-06T08:28:04Z</time>
      </trkpt>
      <trkpt lat="43.6657" lon="3.37329">
        <ele>189.4</ele>
        <time>2024-08-06T08:28:05Z</time>
      </trkpt>
      <trkpt lat="43.6657" lon="3.3733">
        <ele>189.6</ele>
        <time>2024-08-06T08:28:06Z</time>
      </trkpt>
      <trkpt lat="43.6657" lon="3.37329">
        <ele>189.4</ele>
        <time>2024-08-06T08:28:07Z</time>
      </trkpt>
      <trkpt lat="43.66567" lon="3.37331">
        <ele>189.1</ele>
        <time>2024-08-06T08:28:29Z</time>
      </trkpt>
      <trkpt lat="43.66563" lon="3.37334">
        <ele>188.7</ele>
        <time>2024-08-06T08:28:30Z</time>
      </trkpt>
      <trkpt lat="43.66559" lon="3.37337">
        <ele>188.3</ele>
        <time>2024-08-06T08:28:31Z</time>
      </trkpt>
      <trkpt lat="43.66556" lon="3.3734">
        <ele>188.1</ele>
        <time>2024-08-06T08:28:32Z</time>
      </trkpt>
      <trkpt lat="43.66552" lon="3.37343">
        <ele>187.5</ele>
        <time>2024-08-06T08:28:33Z</time>
      </trkpt>
      <trkpt lat="43.66549" lon="3.37347">
        <ele>187.3</ele>
        <time>2024-08-06T08:28:34Z</time>
      </trkpt>
      <trkpt lat="43.66546" lon="3.37351">
        <ele>187.1</ele>
        <time>2024-08-06T08:28:35Z</time>
      </trkpt>
      <trkpt lat="43.66543" lon="3.37356">
        <ele>187.1</ele>
        <time>2024-08-06T08:28:36Z</time>
      </trkpt>
      <trkpt lat="43.6654" lon="3.37361">
        <ele>187.1</ele>
        <time>2024-08-06T08:28:37Z</time>
      </trkpt>
      <trkpt lat="43.66537" lon="3.37367">
        <ele>187</ele>
        <time>2024-08-06T08:28:38Z</time>
      </trkpt>
      <trkpt lat="43.66534" lon="3.37374">
        <ele>187.1</ele>
        <time>2024-08-06T08:28:39Z</time>
      </trkpt>
      <trkpt lat="43.66531" lon="3.37381">
        <ele>187</ele>
        <time>2024-08-06T08:28:40Z</time>
      </trkpt>
      <trkpt lat="43.66528" lon="3.37388">
        <ele>187</ele>
        <time>2024-08-06T08:28:41Z</time>
      </trkpt>
      <trkpt lat="43.66525" lon="3.37395">
        <ele>187.5</ele>
        <time>2024-08-06T08:28:42Z</time>
      </trkpt>
      <trkpt lat="43.66523" lon="3.37401">
        <ele>188.2</ele>
        <time>2024-08-06T08:28:43Z</time>
      </trkpt>
      <trkpt lat="43.66519" lon="3.37406">
        <ele>188.4</ele>
        <time>2024-08-06T08:28:44Z</time>
      </trkpt>
      <trkpt lat="43.66515" lon="3.37411">
        <ele>188.6</ele>
        <time>2024-08-06T08:28:45Z</time>
      </trkpt>
      <trkpt lat="43.66511" lon="3.37415">
        <ele>188.6</ele>
        <time>2024-08-06T08:28:46Z</time>
      </trkpt>
      <trkpt lat="43.66506" lon="3.37418">
        <ele>188.4</ele>
        <time>2024-08-06T08:28:47Z</time>
      </trkpt>
      <trkpt lat="43.66501" lon="3.37422">
        <ele>188.5</ele>
        <time>2024-08-06T08:28:48Z</time>
      </trkpt>
      <trkpt lat="43.66495" lon="3.37424">
        <ele>187.9</ele>
        <time>2024-08-06T08:28:49Z</time>
      </trkpt>
      <trkpt lat="43.66489" lon="3.37427">
        <ele>187.3</ele>
        <time>2024-08-06T08:28:50Z</time>
      </trkpt>
      <trkpt lat="43.66483" lon="3.37431">
        <ele>186.9</ele>
        <time>2024-08-06T08:28:51Z</time>
      </trkpt>
      <trkpt lat="43.66478" lon="3.37435">
        <ele>186.6</ele>
        <time>2024-08-06T08:28:52Z</time>
      </trkpt>
      <trkpt lat="43.66473" lon="3.37439">
        <ele>186.2</ele>
        <time>2024-08-06T08:28:53Z</time>
      </trkpt>
      <trkpt lat="43.66468" lon="3.37444">
        <ele>186</ele>
        <time>2024-08-06T08:28:54Z</time>
      </trkpt>
      <trkpt lat="43.66464" lon="3.3745">
        <ele>185.9</ele>
        <time>2024-08-06T08:28:55Z</time>
      </trkpt>
      <trkpt lat="43.66461" lon="3.37456">
        <ele>185.9</ele>
        <time>2024-08-06T08:28:56Z</time>
      </trkpt>
      <trkpt lat="43.66458" lon="3.37462">
        <ele>185.8</ele>
        <time>2024-08-06T08:28:57Z</time>
      </trkpt>
      <trkpt lat="43.66456" lon="3.37468">
        <ele>185.9</ele>
        <time>2024-08-06T08:28:58Z</time>
      </trkpt>
      <trkpt lat="43.66454" lon="3.37474">
        <ele>186</ele>
        <time>2024-08-06T08:28:59Z</time>
      </trkpt>
      <trkpt lat="43.66452" lon="3.37481">
        <ele>186.3</ele>
        <time>2024-08-06T08:29:00Z</time>
      </trkpt>
      <trkpt lat="43.6645" lon="3.37488">
        <ele>186.5</ele>
        <time>2024-08-06T08:29:01Z</time>
      </trkpt>
      <trkpt lat="43.66449" lon="3.37494">
        <ele>186.9</ele>
        <time>2024-08-06T08:29:02Z</time>
      </trkpt>
      <trkpt lat="43.66447" lon="3.375">
        <ele>186.9</ele>
        <time>2024-08-06T08:29:03Z</time>
      </trkpt>
      <trkpt lat="43.66444" lon="3.37506">
        <ele>186.7</ele>
        <time>2024-08-06T08:29:04Z</time>
      </trkpt>
      <trkpt lat="43.66442" lon="3.37512">
        <ele>186.9</ele>
        <time>2024-08-06T08:29:05Z</time>
      </trkpt>
      <trkpt lat="43.6644" lon="3.37519">
        <ele>187.2</ele>
        <time>2024-08-06T08:29:06Z</time>
      </trkpt>
      <trkpt lat="43.66438" lon="3.37525">
        <ele>187.3</ele>
        <time>2024-08-06T08:29:07Z</time>
      </trkpt>
      <trkpt lat="43.66436" lon="3.37532">
        <ele>187.4</ele>
        <time>2024-08-06T08:29:08Z</time>
      </trkpt>
      <trkpt lat="43.66434" lon="3.37539">
        <ele>187.3</ele>
        <time>2024-08-06T08:29:09Z</time>
      </trkpt>
      <trkpt lat="43.66431" lon="3.37546">
        <ele>186.8</ele>
        <time>2024-08-06T08:29:10Z</time>
      </trkpt>
      <trkpt lat="43.66429" lon="3.37553">
        <ele>186.7</ele>
        <time>2024-08-06T08:29:11Z</time>
      </trkpt>
      <trkpt lat="43.66427" lon="3.3756">
        <ele>186.5</ele>
        <time>2024-08-06T08:29:12Z</time>
      </trkpt>
      <trkpt lat="43.66425" lon="3.37567">
        <ele>186.2</ele>
        <time>2024-08-06T08:29:13Z</time>
      </trkpt>
      <trkpt lat="43.66423" lon="3.37574">
        <ele>186</ele>
        <time>2024-08-06T08:29:14Z</time>
      </trkpt>
      <trkpt lat="43.66422" lon="3.37581">
        <ele>186.1</ele>
        <time>2024-08-06T08:29:15Z</time>
      </trkpt>
      <trkpt lat="43.6642" lon="3.37588">
        <ele>185.8</ele>
        <time>2024-08-06T08:29:16Z</time>
      </trkpt>
      <trkpt lat="43.66419" lon="3.37596">
        <ele>186</ele>
        <time>2024-08-06T08:29:17Z</time>
      </trkpt>
      <trkpt lat="43.66418" lon="3.37602">
        <ele>186</ele>
        <time>2024-08-06T08:29:18Z</time>
      </trkpt>
      <trkpt lat="43.66417" lon="3.3761">
        <ele>186.1</ele>
        <time>2024-08-06T08:29:19Z</time>
      </trkpt>
      <trkpt lat="43.66416" lon="3.37617">
        <ele>186.1</ele>
        <time>2024-08-06T08:29:20Z</time>
      </trkpt>
      <trkpt lat="43.66415" lon="3.37624">
        <ele>186.2</ele>
        <time>2024-08-06T08:29:21Z</time>
      </trkpt>
      <trkpt lat="43.66414" lon="3.37631">
        <ele>186.2</ele>
        <time>2024-08-06T08:29:22Z</time>
      </trkpt>
      <trkpt lat="43.66413" lon="3.37638">
        <ele>186.2</ele>
        <time>2024-08-06T08:29:23Z</time>
      </trkpt>
      <trkpt lat="43.66412" lon="3.37645">
        <ele>185.9</ele>
        <time>2024-08-06T08:29:24Z</time>
      </trkpt>
      <trkpt lat="43.66412" lon="3.37652">
        <ele>185.9</ele>
        <time>2024-08-06T08:29:25Z</time>
      </trkpt>
      <trkpt lat="43.66412" lon="3.37659">
        <ele>185.9</ele>
        <time>2024-08-06T08:29:26Z</time>
      </trkpt>
      <trkpt lat="43.66412" lon="3.37666">
        <ele>186</ele>
        <time>2024-08-06T08:29:27Z</time>
      </trkpt>
      <trkpt lat="43.66411" lon="3.37674">
        <ele>185.3</ele>
        <time>2024-08-06T08:29:28Z</time>
      </trkpt>
      <trkpt lat="43.66411" lon="3.37681">
        <ele>185.1</ele>
        <time>2024-08-06T08:29:29Z</time>
      </trkpt>
      <trkpt lat="43.66412" lon="3.37688">
        <ele>185.3</ele>
        <time>2024-08-06T08:29:30Z</time>
      </trkpt>
      <trkpt lat="43.66412" lon="3.37696">
        <ele>185</ele>
        <time>2024-08-06T08:29:31Z</time>
      </trkpt>
      <trkpt lat="43.66413" lon="3.37703">
        <ele>185</ele>
        <time>2024-08-06T08:29:32Z</time>
      </trkpt>
      <trkpt lat="43.66413" lon="3.37711">
        <ele>184.4</ele>
        <time>2024-08-06T08:29:33Z</time>
      </trkpt>
      <trkpt lat="43.66414" lon="3.37718">
        <ele>184.3</ele>
        <time>2024-08-06T08:29:34Z</time>
      </trkpt>
      <trkpt lat="43.66416" lon="3.37724">
        <ele>184.7</ele>
        <time>2024-08-06T08:29:35Z</time>
      </trkpt>
      <trkpt lat="43.66417" lon="3.37731">
        <ele>184.8</ele>
        <time>2024-08-06T08:29:36Z</time>
      </trkpt>
      <trkpt lat="43.66418" lon="3.37737">
        <ele>185</ele>
        <time>2024-08-06T08:29:37Z</time>
      </trkpt>
      <trkpt lat="43.66419" lon="3.37743">
        <ele>185.2</ele>
        <time>2024-08-06T08:29:38Z</time>
      </trkpt>
      <trkpt lat="43.6642" lon="3.3775">
        <ele>185.3</ele>
        <time>2024-08-06T08:29:39Z</time>
      </trkpt>
      <trkpt lat="43.66422" lon="3.37756">
        <ele>185.2</ele>
        <time>2024-08-06T08:29:40Z</time>
      </trkpt>
      <trkpt lat="43.66424" lon="3.37762">
        <ele>185.1</ele>
        <time>2024-08-06T08:29:41Z</time>
      </trkpt>
      <trkpt lat="43.66426" lon="3.37769">
        <ele>184.7</ele>
        <time>2024-08-06T08:29:42Z</time>
      </trkpt>
      <trkpt lat="43.66428" lon="3.37776">
        <ele>184.4</ele>
        <time>2024-08-06T08:29:43Z</time>
      </trkpt>
      <trkpt lat="43.6643" lon="3.37782">
        <ele>184.1</ele>
        <time>2024-08-06T08:29:44Z</time>
      </trkpt>
      <trkpt lat="43.66432" lon="3.37788">
        <ele>183.8</ele>
        <time>2024-08-06T08:29:45Z</time>
      </trkpt>
      <trkpt lat="43.66435" lon="3.37795">
        <ele>183.7</ele>
        <time>2024-08-06T08:29:46Z</time>
      </trkpt>
      <trkpt lat="43.66438" lon="3.37801">
        <ele>183.7</ele>
        <time>2024-08-06T08:29:47Z</time>
      </trkpt>
      <trkpt lat="43.66441" lon="3.37807">
        <ele>183.6</ele>
        <time>2024-08-06T08:29:48Z</time>
      </trkpt>
      <trkpt lat="43.66444" lon="3.37812">
        <ele>183.7</ele>
        <time>2024-08-06T08:29:49Z</time>
      </trkpt>
      <trkpt lat="43.66446" lon="3.37819">
        <ele>183.2</ele>
        <time>2024-08-06T08:29:50Z</time>
      </trkpt>
      <trkpt lat="43.66449" lon="3.37826">
        <ele>183.1</ele>
        <time>2024-08-06T08:29:51Z</time>
      </trkpt>
      <trkpt lat="43.66453" lon="3.37834">
        <ele>183.3</ele>
        <time>2024-08-06T08:29:52Z</time>
      </trkpt>
      <trkpt lat="43.66456" lon="3.37841">
        <ele>183.2</ele>
        <time>2024-08-06T08:29:53Z</time>
      </trkpt>
      <trkpt lat="43.6646" lon="3.37849">
        <ele>183.3</ele>
        <time>2024-08-06T08:29:54Z</time>
      </trkpt>
      <trkpt lat="43.66463" lon="3.37857">
        <ele>183.1</ele>
        <time>2024-08-06T08:29:55Z</time>
      </trkpt>
      <trkpt lat="43.66467" lon="3.37865">
        <ele>183.3</ele>
        <time>2024-08-06T08:29:56Z</time>
      </trkpt>
      <trkpt lat="43.6647" lon="3.37872">
        <ele>183.2</ele>
        <time>2024-08-06T08:29:57Z</time>
      </trkpt>
      <trkpt lat="43.66474" lon="3.37879">
        <ele>183.4</ele>
        <time>2024-08-06T08:29:58Z</time>
      </trkpt>
      <trkpt lat="43.66477" lon="3.37885">
        <ele>183.4</ele>
        <time>2024-08-06T08:29:59Z</time>
      </trkpt>
      <trkpt lat="43.66481" lon="3.37892">
        <ele>184</ele>
        <time>2024-08-06T08:30:00Z</time>
      </trkpt>
      <trkpt lat="43.66485" lon="3.37899">
        <ele>184.9</ele>
        <time>2024-08-06T08:30:01Z</time>
      </trkpt>
      <trkpt lat="43.66488" lon="3.37906">
        <ele>185.3</ele>
        <time>2024-08-06T08:30:02Z</time>
      </trkpt>
      <trkpt lat="43.66492" lon="3.37912">
        <ele>185.8</ele>
        <time>2024-08-06T08:30:03Z</time>
      </trkpt>
      <trkpt lat="43.66496" lon="3.37917">
        <ele>186.2</ele>
        <time>2024-08-06T08:30:04Z</time>
      </trkpt>
      <trkpt lat="43.66497" lon="3.37924">
        <ele>188.1</ele>
        <time>2024-08-06T08:30:05Z</time>
      </trkpt>
      <trkpt lat="43.66495" lon="3.3793">
        <ele>189.1</ele>
        <time>2024-08-06T08:30:06Z</time>
      </trkpt>
      <trkpt lat="43.66492" lon="3.37935">
        <ele>190</ele>
        <time>2024-08-06T08:30:07Z</time>
      </trkpt>
      <trkpt lat="43.66488" lon="3.37938">
        <ele>190.3</ele>
        <time>2024-08-06T08:30:08Z</time>
      </trkpt>
      <trkpt lat="43.66482" lon="3.37938">
        <ele>189.7</ele>
        <time>2024-08-06T08:30:09Z</time>
      </trkpt>
      <trkpt lat="43.66476" lon="3.37939">
        <ele>189.4</ele>
        <time>2024-08-06T08:30:10Z</time>
      </trkpt>
      <trkpt lat="43.66469" lon="3.3794">
        <ele>189.2</ele>
        <time>2024-08-06T08:30:11Z</time>
      </trkpt>
      <trkpt lat="43.66463" lon="3.37942">
        <ele>189.5</ele>
        <time>2024-08-06T08:30:12Z</time>
      </trkpt>
      <trkpt lat="43.66457" lon="3.37943">
        <ele>189.4</ele>
        <time>2024-08-06T08:30:13Z</time>
      </trkpt>
      <trkpt lat="43.66451" lon="3.37945">
        <ele>189.7</ele>
        <time>2024-08-06T08:30:14Z</time>
      </trkpt>
      <trkpt lat="43.66445" lon="3.37947">
        <ele>190</ele>
        <time>2024-08-06T08:30:15Z</time>
      </trkpt>
      <trkpt lat="43.66439" lon="3.37946">
        <ele>189</ele>
        <time>2024-08-06T08:30:16Z</time>
      </trkpt>
      <trkpt lat="43.66433" lon="3.37946">
        <ele>188.3</ele>
        <time>2024-08-06T08:30:17Z</time>
      </trkpt>
      <trkpt lat="43.66427" lon="3.37946">
        <ele>187.6</ele>
        <time>2024-08-06T08:30:18Z</time>
      </trkpt>
      <trkpt lat="43.66421" lon="3.37947">
        <ele>187.3</ele>
        <time>2024-08-06T08:30:19Z</time>
      </trkpt>
      <trkpt lat="43.66416" lon="3.37949">
        <ele>187.4</ele>
        <time>2024-08-06T08:30:20Z</time>
      </trkpt>
      <trkpt lat="43.6641" lon="3.3795">
        <ele>187.3</ele>
        <time>2024-08-06T08:30:21Z</time>
      </trkpt>
      <trkpt lat="43.66405" lon="3.37951">
        <ele>187.3</ele>
        <time>2024-08-06T08:30:22Z</time>
      </trkpt>
      <trkpt lat="43.664" lon="3.37953">
        <ele>187.6</ele>
        <time>2024-08-06T08:30:23Z</time>
      </trkpt>
      <trkpt lat="43.66395" lon="3.37954">
        <ele>187.5</ele>
        <time>2024-08-06T08:30:24Z</time>
      </trkpt>
      <trkpt lat="43.66391" lon="3.37956">
        <ele>187.9</ele>
        <time>2024-08-06T08:30:25Z</time>
      </trkpt>
      <trkpt lat="43.66386" lon="3.37957">
        <ele>187.7</ele>
        <time>2024-08-06T08:30:26Z</time>
      </trkpt>
      <trkpt lat="43.66382" lon="3.37957">
        <ele>187.2</ele>
        <time>2024-08-06T08:30:27Z</time>
      </trkpt>
      <trkpt lat="43.66377" lon="3.37958">
        <ele>186.9</ele>
        <time>2024-08-06T08:30:28Z</time>
      </trkpt>
      <trkpt lat="43.66372" lon="3.3796">
        <ele>186.9</ele>
        <time>2024-08-06T08:30:29Z</time>
      </trkpt>
      <trkpt lat="43.66368" lon="3.37962">
        <ele>187</ele>
        <time>2024-08-06T08:30:30Z</time>
      </trkpt>
      <trkpt lat="43.66363" lon="3.37966">
        <ele>187.5</ele>
        <time>2024-08-06T08:30:31Z</time>
      </trkpt>
      <trkpt lat="43.66358" lon="3.37969">
        <ele>187.4</ele>
        <time>2024-08-06T08:30:32Z</time>
      </trkpt>
      <trkpt lat="43.66353" lon="3.37972">
        <ele>187.2</ele>
        <time>2024-08-06T08:30:33Z</time>
      </trkpt>
      <trkpt lat="43.66348" lon="3.37976">
        <ele>187.1</ele>
        <time>2024-08-06T08:30:34Z</time>
      </trkpt>
      <trkpt lat="43.66343" lon="3.37982">
        <ele>187.3</ele>
        <time>2024-08-06T08:30:35Z</time>
      </trkpt>
      <trkpt lat="43.66339" lon="3.37987">
        <ele>187.5</ele>
        <time>2024-08-06T08:30:36Z</time>
      </trkpt>
      <trkpt lat="43.66334" lon="3.37993">
        <ele>187.6</ele>
        <time>2024-08-06T08:30:37Z</time>
      </trkpt>
      <trkpt lat="43.6633" lon="3.37998">
        <ele>187.6</ele>
        <time>2024-08-06T08:30:38Z</time>
      </trkpt>
      <trkpt lat="43.66325" lon="3.38003">
        <ele>187.2</ele>
        <time>2024-08-06T08:30:39Z</time>
      </trkpt>
      <trkpt lat="43.66322" lon="3.38009">
        <ele>187.5</ele>
        <time>2024-08-06T08:30:40Z</time>
      </trkpt>
      <trkpt lat="43.66318" lon="3.38015">
        <ele>187.5</ele>
        <time>2024-08-06T08:30:41Z</time>
      </trkpt>
      <trkpt lat="43.66315" lon="3.38021">
        <ele>187.8</ele>
        <time>2024-08-06T08:30:42Z</time>
      </trkpt>
      <trkpt lat="43.66312" lon="3.38027">
        <ele>187.9</ele>
        <time>2024-08-06T08:30:43Z</time>
      </trkpt>
      <trkpt lat="43.66309" lon="3.38033">
        <ele>188.1</ele>
        <time>2024-08-06T08:30:44Z</time>
      </trkpt>
      <trkpt lat="43.66305" lon="3.38039">
        <ele>187.9</ele>
        <time>2024-08-06T08:30:45Z</time>
      </trkpt>
      <trkpt lat="43.66302" lon="3.38045">
        <ele>188.1</ele>
        <time>2024-08-06T08:30:46Z</time>
      </trkpt>
      <trkpt lat="43.66298" lon="3.38051">
        <ele>188</ele>
        <time>2024-08-06T08:30:47Z</time>
      </trkpt>
      <trkpt lat="43.66294" lon="3.38056">
        <ele>187.8</ele>
        <time>2024-08-06T08:30:48Z</time>
      </trkpt>
      <trkpt lat="43.66291" lon="3.38061">
        <ele>187.9</ele>
        <time>2024-08-06T08:30:49Z</time>
      </trkpt>
      <trkpt lat="43.66287" lon="3.38066">
        <ele>187.7</ele>
        <time>2024-08-06T08:30:50Z</time>
      </trkpt>
      <trkpt lat="43.66283" lon="3.38071">
        <ele>187.4</ele>
        <time>2024-08-06T08:30:51Z</time>
      </trkpt>
      <trkpt lat="43.66279" lon="3.38077">
        <ele>187.2</ele>
        <time>2024-08-06T08:30:52Z</time>
      </trkpt>
      <trkpt lat="43.66275" lon="3.38082">
        <ele>186.8</ele>
        <time>2024-08-06T08:30:53Z</time>
      </trkpt>
      <trkpt lat="43.66271" lon="3.38089">
        <ele>186.3</ele>
        <time>2024-08-06T08:30:54Z</time>
      </trkpt>
      <trkpt lat="43.66269" lon="3.38096">
        <ele>186.5</ele>
        <time>2024-08-06T08:30:55Z</time>
      </trkpt>
      <trkpt lat="43.66266" lon="3.38103">
        <ele>186.3</ele>
        <time>2024-08-06T08:30:56Z</time>
      </trkpt>
      <trkpt lat="43.66265" lon="3.38111">
        <ele>186.9</ele>
        <time>2024-08-06T08:30:57Z</time>
      </trkpt>
      <trkpt lat="43.66263" lon="3.38119">
        <ele>187.1</ele>
        <time>2024-08-06T08:30:58Z</time>
      </trkpt>
      <trkpt lat="43.66261" lon="3.38126">
        <ele>187.2</ele>
        <time>2024-08-06T08:30:59Z</time>
      </trkpt>
      <trkpt lat="43.66259" lon="3.38134">
        <ele>187.3</ele>
        <time>2024-08-06T08:31:00Z</time>
      </trkpt>
      <trkpt lat="43.66257" lon="3.38142">
        <ele>187.3</ele>
        <time>2024-08-06T08:31:01Z</time>
      </trkpt>
      <trkpt lat="43.66254" lon="3.3815">
        <ele>186.6</ele>
        <time>2024-08-06T08:31:02Z</time>
      </trkpt>
      <trkpt lat="43.66252" lon="3.38158">
        <ele>186.3</ele>
        <time>2024-08-06T08:31:03Z</time>
      </trkpt>
      <trkpt lat="43.66249" lon="3.38165">
        <ele>185.5</ele>
        <time>2024-08-06T08:31:04Z</time>
      </trkpt>
      <trkpt lat="43.66247" lon="3.38173">
        <ele>185.2</ele>
        <time>2024-08-06T08:31:05Z</time>
      </trkpt>
      <trkpt lat="43.66245" lon="3.38181">
        <ele>185</ele>
        <time>2024-08-06T08:31:06Z</time>
      </trkpt>
      <trkpt lat="43.66243" lon="3.38188">
        <ele>184.6</ele>
        <time>2024-08-06T08:31:07Z</time>
      </trkpt>
      <trkpt lat="43.66241" lon="3.38196">
        <ele>184.2</ele>
        <time>2024-08-06T08:31:08Z</time>
      </trkpt>
      <trkpt lat="43.6624" lon="3.38203">
        <ele>184</ele>
        <time>2024-08-06T08:31:09Z</time>
      </trkpt>
      <trkpt lat="43.66239" lon="3.38211">
        <ele>183.8</ele>
        <time>2024-08-06T08:31:10Z</time>
      </trkpt>
      <trkpt lat="43.66238" lon="3.38218">
        <ele>183.7</ele>
        <time>2024-08-06T08:31:11Z</time>
      </trkpt>
      <trkpt lat="43.66239" lon="3.38226">
        <ele>184.2</ele>
        <time>2024-08-06T08:31:12Z</time>
      </trkpt>
      <trkpt lat="43.66238" lon="3.38232">
        <ele>183.8</ele>
        <time>2024-08-06T08:31:13Z</time>
      </trkpt>
      <trkpt lat="43.66238" lon="3.3824">
        <ele>183.8</ele>
        <time>2024-08-06T08:31:14Z</time>
      </trkpt>
      <trkpt lat="43.66238" lon="3.38248">
        <ele>183.8</ele>
        <time>2024-08-06T08:31:15Z</time>
      </trkpt>
      <trkpt lat="43.66239" lon="3.38257">
        <ele>183.9</ele>
        <time>2024-08-06T08:31:16Z</time>
      </trkpt>
      <trkpt lat="43.66239" lon="3.38266">
        <ele>183.4</ele>
        <time>2024-08-06T08:31:17Z</time>
      </trkpt>
      <trkpt lat="43.6624" lon="3.38274">
        <ele>183.5</ele>
        <time>2024-08-06T08:31:18Z</time>
      </trkpt>
      <trkpt lat="43.66242" lon="3.38282">
        <ele>183.8</ele>
        <time>2024-08-06T08:31:19Z</time>
      </trkpt>
      <trkpt lat="43.66243" lon="3.3829">
        <ele>183.5</ele>
        <time>2024-08-06T08:31:20Z</time>
      </trkpt>
      <trkpt lat="43.66245" lon="3.38297">
        <ele>183.7</ele>
        <time>2024-08-06T08:31:21Z</time>
      </trkpt>
      <trkpt lat="43.66247" lon="3.38303">
        <ele>184</ele>
        <time>2024-08-06T08:31:22Z</time>
      </trkpt>
      <trkpt lat="43.66249" lon="3.38309">
        <ele>184.2</ele>
        <time>2024-08-06T08:31:23Z</time>
      </trkpt>
      <trkpt lat="43.66252" lon="3.38316">
        <ele>184.8</ele>
        <time>2024-08-06T08:31:24Z</time>
      </trkpt>
      <trkpt lat="43.66254" lon="3.38323">
        <ele>185.1</ele>
        <time>2024-08-06T08:31:25Z</time>
      </trkpt>
      <trkpt lat="43.66256" lon="3.3833">
        <ele>185.4</ele>
        <time>2024-08-06T08:31:26Z</time>
      </trkpt>
      <trkpt lat="43.66258" lon="3.38337">
        <ele>186.3</ele>
        <time>2024-08-06T08:31:27Z</time>
      </trkpt>
      <trkpt lat="43.66258" lon="3.38346">
        <ele>186.8</ele>
        <time>2024-08-06T08:31:28Z</time>
      </trkpt>
      <trkpt lat="43.66258" lon="3.38354">
        <ele>187.3</ele>
        <time>2024-08-06T08:31:29Z</time>
      </trkpt>
      <trkpt lat="43.66256" lon="3.38361">
        <ele>186.8</ele>
        <time>2024-08-06T08:31:30Z</time>
      </trkpt>
      <trkpt lat="43.66255" lon="3.38369">
        <ele>186.6</ele>
        <time>2024-08-06T08:31:31Z</time>
      </trkpt>
      <trkpt lat="43.66254" lon="3.38377">
        <ele>186.4</ele>
        <time>2024-08-06T08:31:32Z</time>
      </trkpt>
      <trkpt lat="43.66254" lon="3.38385">
        <ele>186.6</ele>
        <time>2024-08-06T08:31:33Z</time>
      </trkpt>
      <trkpt lat="43.66254" lon="3.38393">
        <ele>186.7</ele>
        <time>2024-08-06T08:31:34Z</time>
      </trkpt>
      <trkpt lat="43.66254" lon="3.384">
        <ele>186.7</ele>
        <time>2024-08-06T08:31:35Z</time>
      </trkpt>
      <trkpt lat="43.66255" lon="3.38408">
        <ele>187.2</ele>
        <time>2024-08-06T08:31:36Z</time>
      </trkpt>
      <trkpt lat="43.66256" lon="3.38416">
        <ele>187.6</ele>
        <time>2024-08-06T08:31:37Z</time>
      </trkpt>
      <trkpt lat="43.66257" lon="3.38424">
        <ele>188</ele>
        <time>2024-08-06T08:31:38Z</time>
      </trkpt>
      <trkpt lat="43.66259" lon="3.38432">
        <ele>188.9</ele>
        <time>2024-08-06T08:31:39Z</time>
      </trkpt>
      <trkpt lat="43.66261" lon="3.38439">
        <ele>189.8</ele>
        <time>2024-08-06T08:31:40Z</time>
      </trkpt>
      <trkpt lat="43.66261" lon="3.38447">
        <ele>189.8</ele>
        <time>2024-08-06T08:31:41Z</time>
      </trkpt>
      <trkpt lat="43.66262" lon="3.38455">
        <ele>190.5</ele>
        <time>2024-08-06T08:31:42Z</time>
      </trkpt>
      <trkpt lat="43.66263" lon="3.38464">
        <ele>191</ele>
        <time>2024-08-06T08:31:43Z</time>
      </trkpt>
      <trkpt lat="43.66264" lon="3.38472">
        <ele>191.5</ele>
        <time>2024-08-06T08:31:44Z</time>
      </trkpt>
      <trkpt lat="43.66263" lon="3.3848">
        <ele>192.3</ele>
        <time>2024-08-06T08:31:45Z</time>
      </trkpt>
      <trkpt lat="43.66261" lon="3.38488">
        <ele>192.7</ele>
        <time>2024-08-06T08:31:46Z</time>
      </trkpt>
      <trkpt lat="43.66259" lon="3.38495">
        <ele>192.9</ele>
        <time>2024-08-06T08:31:47Z</time>
      </trkpt>
      <trkpt lat="43.66257" lon="3.38502">
        <ele>192.9</ele>
        <time>2024-08-06T08:31:48Z</time>
      </trkpt>
      <trkpt lat="43.66255" lon="3.38509">
        <ele>192.7</ele>
        <time>2024-08-06T08:31:49Z</time>
      </trkpt>
      <trkpt lat="43.66254" lon="3.38517">
        <ele>192.9</ele>
        <time>2024-08-06T08:31:50Z</time>
      </trkpt>
      <trkpt lat="43.66253" lon="3.38524">
        <ele>193</ele>
        <time>2024-08-06T08:31:51Z</time>
      </trkpt>
      <trkpt lat="43.66252" lon="3.38532">
        <ele>193</ele>
        <time>2024-08-06T08:31:52Z</time>
      </trkpt>
      <trkpt lat="43.6625" lon="3.3854">
        <ele>192.4</ele>
        <time>2024-08-06T08:31:53Z</time>
      </trkpt>
      <trkpt lat="43.6625" lon="3.38547">
        <ele>192.7</ele>
        <time>2024-08-06T08:31:54Z</time>
      </trkpt>
      <trkpt lat="43.66249" lon="3.38554">
        <ele>192.5</ele>
        <time>2024-08-06T08:31:55Z</time>
      </trkpt>
      <trkpt lat="43.66249" lon="3.38561">
        <ele>192.7</ele>
        <time>2024-08-06T08:31:56Z</time>
      </trkpt>
      <trkpt lat="43.66249" lon="3.38569">
        <ele>193</ele>
        <time>2024-08-06T08:31:57Z</time>
      </trkpt>
      <trkpt lat="43.6625" lon="3.38576">
        <ele>193.7</ele>
        <time>2024-08-06T08:31:58Z</time>
      </trkpt>
      <trkpt lat="43.66251" lon="3.38582">
        <ele>194.5</ele>
        <time>2024-08-06T08:31:59Z</time>
      </trkpt>
      <trkpt lat="43.66251" lon="3.38589">
        <ele>194.7</ele>
        <time>2024-08-06T08:32:00Z</time>
      </trkpt>
      <trkpt lat="43.66251" lon="3.38596">
        <ele>194.9</ele>
        <time>2024-08-06T08:32:01Z</time>
      </trkpt>
      <trkpt lat="43.66252" lon="3.38603">
        <ele>195.7</ele>
        <time>2024-08-06T08:32:02Z</time>
      </trkpt>
      <trkpt lat="43.66253" lon="3.3861">
        <ele>196.4</ele>
        <time>2024-08-06T08:32:03Z</time>
      </trkpt>
      <trkpt lat="43.66253" lon="3.38617">
        <ele>196.4</ele>
        <time>2024-08-06T08:32:04Z</time>
      </trkpt>
      <trkpt lat="43.66253" lon="3.38624">
        <ele>196.4</ele>
        <time>2024-08-06T08:32:05Z</time>
      </trkpt>
      <trkpt lat="43.66253" lon="3.38631">
        <ele>196.4</ele>
        <time>2024-08-06T08:32:06Z</time>
      </trkpt>
      <trkpt lat="43.66252" lon="3.38638">
        <ele>195.9</ele>
        <time>2024-08-06T08:32:07Z</time>
      </trkpt>
      <trkpt lat="43.66253" lon="3.38644">
        <ele>196.4</ele>
        <time>2024-08-06T08:32:08Z</time>
      </trkpt>
      <trkpt lat="43.66253" lon="3.38651">
        <ele>196.4</ele>
        <time>2024-08-06T08:32:09Z</time>
      </trkpt>
      <trkpt lat="43.66254" lon="3.38657">
        <ele>196.9</ele>
        <time>2024-08-06T08:32:10Z</time>
      </trkpt>
      <trkpt lat="43.66254" lon="3.38664">
        <ele>196.9</ele>
        <time>2024-08-06T08:32:11Z</time>
      </trkpt>
      <trkpt lat="43.66255" lon="3.3867">
        <ele>197.3</ele>
        <time>2024-08-06T08:32:12Z</time>
      </trkpt>
      <trkpt lat="43.66255" lon="3.38676">
        <ele>197.3</ele>
        <time>2024-08-06T08:32:13Z</time>
      </trkpt>
      <trkpt lat="43.66256" lon="3.38682">
        <ele>197.8</ele>
        <time>2024-08-06T08:32:14Z</time>
      </trkpt>
      <trkpt lat="43.66257" lon="3.38689">
        <ele>198.3</ele>
        <time>2024-08-06T08:32:15Z</time>
      </trkpt>
      <trkpt lat="43.66259" lon="3.38696">
        <ele>199.1</ele>
        <time>2024-08-06T08:32:16Z</time>
      </trkpt>
      <trkpt lat="43.66261" lon="3.38703">
        <ele>199.3</ele>
        <time>2024-08-06T08:32:17Z</time>
      </trkpt>
      <trkpt lat="43.66263" lon="3.3871">
        <ele>199.4</ele>
        <time>2024-08-06T08:32:18Z</time>
      </trkpt>
      <trkpt lat="43.66266" lon="3.38716">
        <ele>200</ele>
        <time>2024-08-06T08:32:19Z</time>
      </trkpt>
      <trkpt lat="43.66269" lon="3.38722">
        <ele>200.6</ele>
        <time>2024-08-06T08:32:20Z</time>
      </trkpt>
      <trkpt lat="43.66272" lon="3.38727">
        <ele>201.5</ele>
        <time>2024-08-06T08:32:21Z</time>
      </trkpt>
      <trkpt lat="43.66276" lon="3.38732">
        <ele>202.9</ele>
        <time>2024-08-06T08:32:22Z</time>
      </trkpt>
      <trkpt lat="43.66279" lon="3.38736">
        <ele>203.8</ele>
        <time>2024-08-06T08:32:23Z</time>
      </trkpt>
      <trkpt lat="43.66283" lon="3.3874">
        <ele>204.5</ele>
        <time>2024-08-06T08:32:24Z</time>
      </trkpt>
      <trkpt lat="43.66286" lon="3.38744">
        <ele>204.7</ele>
        <time>2024-08-06T08:32:25Z</time>
      </trkpt>
      <trkpt lat="43.66288" lon="3.38749">
        <ele>204.6</ele>
        <time>2024-08-06T08:32:26Z</time>
      </trkpt>
      <trkpt lat="43.66289" lon="3.38755">
        <ele>205.3</ele>
        <time>2024-08-06T08:32:27Z</time>
      </trkpt>
      <trkpt lat="43.66287" lon="3.38762">
        <ele>205.8</ele>
        <time>2024-08-06T08:32:28Z</time>
      </trkpt>
      <trkpt lat="43.66284" lon="3.38767">
        <ele>205.5</ele>
        <time>2024-08-06T08:32:29Z</time>
      </trkpt>
      <trkpt lat="43.6628" lon="3.38771">
        <ele>204.5</ele>
        <time>2024-08-06T08:32:30Z</time>
      </trkpt>
      <trkpt lat="43.66277" lon="3.38777">
        <ele>203.6</ele>
        <time>2024-08-06T08:32:31Z</time>
      </trkpt>
      <trkpt lat="43.66273" lon="3.38784">
        <ele>202.9</ele>
        <time>2024-08-06T08:32:32Z</time>
      </trkpt>
      <trkpt lat="43.6627" lon="3.38791">
        <ele>202.8</ele>
        <time>2024-08-06T08:32:33Z</time>
      </trkpt>
      <trkpt lat="43.66268" lon="3.38798">
        <ele>203.2</ele>
        <time>2024-08-06T08:32:34Z</time>
      </trkpt>
      <trkpt lat="43.66267" lon="3.38806">
        <ele>204.2</ele>
        <time>2024-08-06T08:32:35Z</time>
      </trkpt>
      <trkpt lat="43.66265" lon="3.38813">
        <ele>205.1</ele>
        <time>2024-08-06T08:32:36Z</time>
      </trkpt>
      <trkpt lat="43.66262" lon="3.38819">
        <ele>205.5</ele>
        <time>2024-08-06T08:32:37Z</time>
      </trkpt>
      <trkpt lat="43.66259" lon="3.38825">
        <ele>205.9</ele>
        <time>2024-08-06T08:32:38Z</time>
      </trkpt>
      <trkpt lat="43.66256" lon="3.3883">
        <ele>206.1</ele>
        <time>2024-08-06T08:32:39Z</time>
      </trkpt>
      <trkpt lat="43.66253" lon="3.38836">
        <ele>206.4</ele>
        <time>2024-08-06T08:32:40Z</time>
      </trkpt>
      <trkpt lat="43.6625" lon="3.38842">
        <ele>206.2</ele>
        <time>2024-08-06T08:32:41Z</time>
      </trkpt>
      <trkpt lat="43.66247" lon="3.38848">
        <ele>205.8</ele>
        <time>2024-08-06T08:32:42Z</time>
      </trkpt>
      <trkpt lat="43.66245" lon="3.38855">
        <ele>206</ele>
        <time>2024-08-06T08:32:43Z</time>
      </trkpt>
      <trkpt lat="43.66242" lon="3.38862">
        <ele>205.8</ele>
        <time>2024-08-06T08:32:44Z</time>
      </trkpt>
      <trkpt lat="43.6624" lon="3.38868">
        <ele>206.4</ele>
        <time>2024-08-06T08:32:45Z</time>
      </trkpt>
      <trkpt lat="43.66237" lon="3.38875">
        <ele>206.9</ele>
        <time>2024-08-06T08:32:46Z</time>
      </trkpt>
      <trkpt lat="43.66235" lon="3.38881">
        <ele>207.5</ele>
        <time>2024-08-06T08:32:47Z</time>
      </trkpt>
      <trkpt lat="43.66232" lon="3.38887">
        <ele>207.7</ele>
        <time>2024-08-06T08:32:48Z</time>
      </trkpt>
      <trkpt lat="43.6623" lon="3.38893">
        <ele>208.2</ele>
        <time>2024-08-06T08:32:49Z</time>
      </trkpt>
      <trkpt lat="43.66227" lon="3.389">
        <ele>208.4</ele>
        <time>2024-08-06T08:32:50Z</time>
      </trkpt>
      <trkpt lat="43.66223" lon="3.38905">
        <ele>207.8</ele>
        <time>2024-08-06T08:32:51Z</time>
      </trkpt>
      <trkpt lat="43.6622" lon="3.38911">
        <ele>207.9</ele>
        <time>2024-08-06T08:32:52Z</time>
      </trkpt>
      <trkpt lat="43.66217" lon="3.38917">
        <ele>208</ele>
        <time>2024-08-06T08:32:53Z</time>
      </trkpt>
      <trkpt lat="43.66215" lon="3.38923">
        <ele>208.4</ele>
        <time>2024-08-06T08:32:54Z</time>
      </trkpt>
      <trkpt lat="43.66212" lon="3.38929">
        <ele>208.5</ele>
        <time>2024-08-06T08:32:55Z</time>
      </trkpt>
      <trkpt lat="43.66209" lon="3.38935">
        <ele>208.7</ele>
        <time>2024-08-06T08:32:56Z</time>
      </trkpt>
      <trkpt lat="43.66206" lon="3.38941">
        <ele>209</ele>
        <time>2024-08-06T08:32:57Z</time>
      </trkpt>
      <trkpt lat="43.66202" lon="3.38948">
        <ele>209.1</ele>
        <time>2024-08-06T08:32:58Z</time>
      </trkpt>
      <trkpt lat="43.66199" lon="3.38955">
        <ele>209.2</ele>
        <time>2024-08-06T08:32:59Z</time>
      </trkpt>
      <trkpt lat="43.66196" lon="3.38962">
        <ele>209.1</ele>
        <time>2024-08-06T08:33:00Z</time>
      </trkpt>
      <trkpt lat="43.66193" lon="3.3897">
        <ele>209.1</ele>
        <time>2024-08-06T08:33:01Z</time>
      </trkpt>
      <trkpt lat="43.6619" lon="3.38977">
        <ele>208.9</ele>
        <time>2024-08-06T08:33:02Z</time>
      </trkpt>
      <trkpt lat="43.66187" lon="3.38985">
        <ele>209.1</ele>
        <time>2024-08-06T08:33:03Z</time>
      </trkpt>
      <trkpt lat="43.66185" lon="3.38993">
        <ele>209.7</ele>
        <time>2024-08-06T08:33:04Z</time>
      </trkpt>
      <trkpt lat="43.66184" lon="3.39">
        <ele>210.5</ele>
        <time>2024-08-06T08:33:05Z</time>
      </trkpt>
      <trkpt lat="43.66182" lon="3.39008">
        <ele>210.6</ele>
        <time>2024-08-06T08:33:06Z</time>
      </trkpt>
      <trkpt lat="43.6618" lon="3.39015">
        <ele>210.7</ele>
        <time>2024-08-06T08:33:07Z</time>
      </trkpt>
      <trkpt lat="43.66179" lon="3.39023">
        <ele>211.3</ele>
        <time>2024-08-06T08:33:08Z</time>
      </trkpt>
      <trkpt lat="43.66177" lon="3.3903">
        <ele>211.4</ele>
        <time>2024-08-06T08:33:09Z</time>
      </trkpt>
      <trkpt lat="43.66175" lon="3.39037">
        <ele>211.5</ele>
        <time>2024-08-06T08:33:10Z</time>
      </trkpt>
      <trkpt lat="43.66175" lon="3.39043">
        <ele>212.3</ele>
        <time>2024-08-06T08:33:11Z</time>
      </trkpt>
      <trkpt lat="43.66174" lon="3.3905">
        <ele>212.7</ele>
        <time>2024-08-06T08:33:12Z</time>
      </trkpt>
      <trkpt lat="43.66174" lon="3.39056">
        <ele>213.5</ele>
        <time>2024-08-06T08:33:13Z</time>
      </trkpt>
      <trkpt lat="43.66172" lon="3.39063">
        <ele>213.1</ele>
        <time>2024-08-06T08:33:14Z</time>
      </trkpt>
      <trkpt lat="43.66171" lon="3.3907">
        <ele>213.1</ele>
        <time>2024-08-06T08:33:15Z</time>
      </trkpt>
      <trkpt lat="43.6617" lon="3.39078">
        <ele>213.3</ele>
        <time>2024-08-06T08:33:16Z</time>
      </trkpt>
      <trkpt lat="43.66168" lon="3.39086">
        <ele>213</ele>
        <time>2024-08-06T08:33:17Z</time>
      </trkpt>
      <trkpt lat="43.66167" lon="3.39094">
        <ele>213.3</ele>
        <time>2024-08-06T08:33:18Z</time>
      </trkpt>
      <trkpt lat="43.66165" lon="3.39102">
        <ele>213.3</ele>
        <time>2024-08-06T08:33:19Z</time>
      </trkpt>
      <trkpt lat="43.66164" lon="3.39109">
        <ele>213.6</ele>
        <time>2024-08-06T08:33:20Z</time>
      </trkpt>
      <trkpt lat="43.66163" lon="3.39117">
        <ele>214.2</ele>
        <time>2024-08-06T08:33:21Z</time>
      </trkpt>
      <trkpt lat="43.66162" lon="3.39124">
        <ele>214.6</ele>
        <time>2024-08-06T08:33:22Z</time>
      </trkpt>
      <trkpt lat="43.66161" lon="3.39131">
        <ele>215</ele>
        <time>2024-08-06T08:33:23Z</time>
      </trkpt>
      <trkpt lat="43.6616" lon="3.39138">
        <ele>215.3</ele>
        <time>2024-08-06T08:33:24Z</time>
      </trkpt>
      <trkpt lat="43.66159" lon="3.39145">
        <ele>214.9</ele>
        <time>2024-08-06T08:33:25Z</time>
      </trkpt>
      <trkpt lat="43.66159" lon="3.39153">
        <ele>214.9</ele>
        <time>2024-08-06T08:33:26Z</time>
      </trkpt>
      <trkpt lat="43.66159" lon="3.3916">
        <ele>214.9</ele>
        <time>2024-08-06T08:33:27Z</time>
      </trkpt>
      <trkpt lat="43.66159" lon="3.39167">
        <ele>214.8</ele>
        <time>2024-08-06T08:33:28Z</time>
      </trkpt>
      <trkpt lat="43.6616" lon="3.39174">
        <ele>215.1</ele>
        <time>2024-08-06T08:33:29Z</time>
      </trkpt>
      <trkpt lat="43.66161" lon="3.3918">
        <ele>215.4</ele>
        <time>2024-08-06T08:33:30Z</time>
      </trkpt>
      <trkpt lat="43.66162" lon="3.39185">
        <ele>215.7</ele>
        <time>2024-08-06T08:33:31Z</time>
      </trkpt>
      <trkpt lat="43.66164" lon="3.39191">
        <ele>216.6</ele>
        <time>2024-08-06T08:33:32Z</time>
      </trkpt>
      <trkpt lat="43.66164" lon="3.39195">
        <ele>216.4</ele>
        <time>2024-08-06T08:33:33Z</time>
      </trkpt>
      <trkpt lat="43.66166" lon="3.392">
        <ele>217.2</ele>
        <time>2024-08-06T08:33:34Z</time>
      </trkpt>
      <trkpt lat="43.66167" lon="3.39206">
        <ele>217.3</ele>
        <time>2024-08-06T08:33:35Z</time>
      </trkpt>
      <trkpt lat="43.6617" lon="3.39211">
        <ele>218</ele>
        <time>2024-08-06T08:33:36Z</time>
      </trkpt>
      <trkpt lat="43.66172" lon="3.39217">
        <ele>218.4</ele>
        <time>2024-08-06T08:33:37Z</time>
      </trkpt>
      <trkpt lat="43.66174" lon="3.39224">
        <ele>219</ele>
        <time>2024-08-06T08:33:38Z</time>
      </trkpt>
      <trkpt lat="43.66174" lon="3.39232">
        <ele>219.6</ele>
        <time>2024-08-06T08:33:39Z</time>
      </trkpt>
      <trkpt lat="43.66176" lon="3.3924">
        <ele>221</ele>
        <time>2024-08-06T08:33:40Z</time>
      </trkpt>
      <trkpt lat="43.66176" lon="3.39247">
        <ele>221.5</ele>
        <time>2024-08-06T08:33:41Z</time>
      </trkpt>
      <trkpt lat="43.66174" lon="3.39253">
        <ele>221.5</ele>
        <time>2024-08-06T08:33:42Z</time>
      </trkpt>
      <trkpt lat="43.66172" lon="3.3926">
        <ele>222.4</ele>
        <time>2024-08-06T08:33:43Z</time>
      </trkpt>
      <trkpt lat="43.66169" lon="3.39268">
        <ele>223.2</ele>
        <time>2024-08-06T08:33:44Z</time>
      </trkpt>
      <trkpt lat="43.66167" lon="3.39275">
        <ele>224.4</ele>
        <time>2024-08-06T08:33:45Z</time>
      </trkpt>
      <trkpt lat="43.66164" lon="3.39283">
        <ele>224.7</ele>
        <time>2024-08-06T08:33:46Z</time>
      </trkpt>
      <trkpt lat="43.66161" lon="3.3929">
        <ele>224.8</ele>
        <time>2024-08-06T08:33:47Z</time>
      </trkpt>
      <trkpt lat="43.66158" lon="3.39298">
        <ele>225.3</ele>
        <time>2024-08-06T08:33:48Z</time>
      </trkpt>
      <trkpt lat="43.66155" lon="3.39304">
        <ele>225.4</ele>
        <time>2024-08-06T08:33:49Z</time>
      </trkpt>
      <trkpt lat="43.66151" lon="3.39311">
        <ele>225.6</ele>
        <time>2024-08-06T08:33:50Z</time>
      </trkpt>
      <trkpt lat="43.66147" lon="3.39317">
        <ele>225.6</ele>
        <time>2024-08-06T08:33:51Z</time>
      </trkpt>
      <trkpt lat="43.66144" lon="3.39324">
        <ele>226.2</ele>
        <time>2024-08-06T08:33:52Z</time>
      </trkpt>
      <trkpt lat="43.6614" lon="3.39331">
        <ele>226.7</ele>
        <time>2024-08-06T08:33:53Z</time>
      </trkpt>
      <trkpt lat="43.66136" lon="3.39338">
        <ele>226.4</ele>
        <time>2024-08-06T08:33:54Z</time>
      </trkpt>
      <trkpt lat="43.66133" lon="3.39346">
        <ele>226.3</ele>
        <time>2024-08-06T08:33:55Z</time>
      </trkpt>
      <trkpt lat="43.6613" lon="3.39354">
        <ele>226.4</ele>
        <time>2024-08-06T08:33:56Z</time>
      </trkpt>
      <trkpt lat="43.66127" lon="3.39361">
        <ele>226.6</ele>
        <time>2024-08-06T08:33:57Z</time>
      </trkpt>
      <trkpt lat="43.66124" lon="3.39368">
        <ele>226.7</ele>
        <time>2024-08-06T08:33:58Z</time>
      </trkpt>
      <trkpt lat="43.66121" lon="3.39374">
        <ele>227</ele>
        <time>2024-08-06T08:33:59Z</time>
      </trkpt>
      <trkpt lat="43.66118" lon="3.3938">
        <ele>227.4</ele>
        <time>2024-08-06T08:34:00Z</time>
      </trkpt>
      <trkpt lat="43.66116" lon="3.39384">
        <ele>227.8</ele>
        <time>2024-08-06T08:34:01Z</time>
      </trkpt>
      <trkpt lat="43.66113" lon="3.39388">
        <ele>228.1</ele>
        <time>2024-08-06T08:34:02Z</time>
      </trkpt>
      <trkpt lat="43.6611" lon="3.39393">
        <ele>227.9</ele>
        <time>2024-08-06T08:34:03Z</time>
      </trkpt>
      <trkpt lat="43.66108" lon="3.39397">
        <ele>227.5</ele>
        <time>2024-08-06T08:34:04Z</time>
      </trkpt>
      <trkpt lat="43.66106" lon="3.39402">
        <ele>227.3</ele>
        <time>2024-08-06T08:34:05Z</time>
      </trkpt>
      <trkpt lat="43.66104" lon="3.39405">
        <ele>226.9</ele>
        <time>2024-08-06T08:34:06Z</time>
      </trkpt>
      <trkpt lat="43.66102" lon="3.39407">
        <ele>226.6</ele>
        <time>2024-08-06T08:34:07Z</time>
      </trkpt>
      <trkpt lat="43.66101" lon="3.3941">
        <ele>226.6</ele>
        <time>2024-08-06T08:34:08Z</time>
      </trkpt>
      <trkpt lat="43.66099" lon="3.39412">
        <ele>226.3</ele>
        <time>2024-08-06T08:34:09Z</time>
      </trkpt>
      <trkpt lat="43.66098" lon="3.39415">
        <ele>226.5</ele>
        <time>2024-08-06T08:34:10Z</time>
      </trkpt>
      <trkpt lat="43.66097" lon="3.39418">
        <ele>226.5</ele>
        <time>2024-08-06T08:34:11Z</time>
      </trkpt>
      <trkpt lat="43.66098" lon="3.39421">
        <ele>226.8</ele>
        <time>2024-08-06T08:34:12Z</time>
      </trkpt>
      <trkpt lat="43.66098" lon="3.39425">
        <ele>226.9</ele>
        <time>2024-08-06T08:34:13Z</time>
      </trkpt>
      <trkpt lat="43.66099" lon="3.39429">
        <ele>227.2</ele>
        <time>2024-08-06T08:34:14Z</time>
      </trkpt>
      <trkpt lat="43.661" lon="3.39433">
        <ele>227.4</ele>
        <time>2024-08-06T08:34:15Z</time>
      </trkpt>
      <trkpt lat="43.66101" lon="3.39437">
        <ele>227.6</ele>
        <time>2024-08-06T08:34:16Z</time>
      </trkpt>
      <trkpt lat="43.66103" lon="3.3944">
        <ele>227.7</ele>
        <time>2024-08-06T08:34:17Z</time>
      </trkpt>
      <trkpt lat="43.66105" lon="3.39443">
        <ele>227.8</ele>
        <time>2024-08-06T08:34:18Z</time>
      </trkpt>
      <trkpt lat="43.66107" lon="3.39446">
        <ele>227.8</ele>
        <time>2024-08-06T08:34:19Z</time>
      </trkpt>
      <trkpt lat="43.66109" lon="3.39448">
        <ele>227.8</ele>
        <time>2024-08-06T08:34:20Z</time>
      </trkpt>
      <trkpt lat="43.6611" lon="3.3945">
        <ele>227.8</ele>
        <time>2024-08-06T08:34:21Z</time>
      </trkpt>
      <trkpt lat="43.66112" lon="3.39452">
        <ele>227.8</ele>
        <time>2024-08-06T08:34:22Z</time>
      </trkpt>
      <trkpt lat="43.66114" lon="3.39453">
        <ele>227.9</ele>
        <time>2024-08-06T08:34:23Z</time>
      </trkpt>
      <trkpt lat="43.66117" lon="3.39455">
        <ele>228</ele>
        <time>2024-08-06T08:34:24Z</time>
      </trkpt>
      <trkpt lat="43.66118" lon="3.39458">
        <ele>227.9</ele>
        <time>2024-08-06T08:34:25Z</time>
      </trkpt>
      <trkpt lat="43.6612" lon="3.3946">
        <ele>227.9</ele>
        <time>2024-08-06T08:34:26Z</time>
      </trkpt>
      <trkpt lat="43.66123" lon="3.39462">
        <ele>227.8</ele>
        <time>2024-08-06T08:34:27Z</time>
      </trkpt>
      <trkpt lat="43.66125" lon="3.39464">
        <ele>227.7</ele>
        <time>2024-08-06T08:34:28Z</time>
      </trkpt>
      <trkpt lat="43.66127" lon="3.39467">
        <ele>227.5</ele>
        <time>2024-08-06T08:34:29Z</time>
      </trkpt>
      <trkpt lat="43.6613" lon="3.39469">
        <ele>227.4</ele>
        <time>2024-08-06T08:34:30Z</time>
      </trkpt>
      <trkpt lat="43.66133" lon="3.39472">
        <ele>227</ele>
        <time>2024-08-06T08:34:31Z</time>
      </trkpt>
      <trkpt lat="43.66136" lon="3.39475">
        <ele>226.7</ele>
        <time>2024-08-06T08:34:32Z</time>
      </trkpt>
      <trkpt lat="43.6614" lon="3.39477">
        <ele>226.5</ele>
        <time>2024-08-06T08:34:33Z</time>
      </trkpt>
      <trkpt lat="43.66143" lon="3.3948">
        <ele>226.2</ele>
        <time>2024-08-06T08:34:34Z</time>
      </trkpt>
      <trkpt lat="43.66147" lon="3.39481">
        <ele>226.1</ele>
        <time>2024-08-06T08:34:35Z</time>
      </trkpt>
      <trkpt lat="43.66151" lon="3.39482">
        <ele>225.9</ele>
        <time>2024-08-06T08:34:36Z</time>
      </trkpt>
      <trkpt lat="43.66154" lon="3.39483">
        <ele>225.8</ele>
        <time>2024-08-06T08:34:37Z</time>
      </trkpt>
      <trkpt lat="43.66158" lon="3.39484">
        <ele>225.7</ele>
        <time>2024-08-06T08:34:38Z</time>
      </trkpt>
      <trkpt lat="43.66163" lon="3.39484">
        <ele>225.7</ele>
        <time>2024-08-06T08:34:39Z</time>
      </trkpt>
      <trkpt lat="43.66168" lon="3.39486">
        <ele>225.4</ele>
        <time>2024-08-06T08:34:40Z</time>
      </trkpt>
      <trkpt lat="43.66173" lon="3.39486">
        <ele>224.8</ele>
        <time>2024-08-06T08:34:41Z</time>
      </trkpt>
      <trkpt lat="43.66178" lon="3.39487">
        <ele>224.1</ele>
        <time>2024-08-06T08:34:42Z</time>
      </trkpt>
      <trkpt lat="43.66183" lon="3.39488">
        <ele>223.4</ele>
        <time>2024-08-06T08:34:43Z</time>
      </trkpt>
      <trkpt lat="43.66189" lon="3.39489">
        <ele>222.4</ele>
        <time>2024-08-06T08:34:44Z</time>
      </trkpt>
      <trkpt lat="43.66194" lon="3.3949">
        <ele>221.6</ele>
        <time>2024-08-06T08:34:45Z</time>
      </trkpt>
      <trkpt lat="43.662" lon="3.39492">
        <ele>220.8</ele>
        <time>2024-08-06T08:34:46Z</time>
      </trkpt>
      <trkpt lat="43.66207" lon="3.39493">
        <ele>220.3</ele>
        <time>2024-08-06T08:34:47Z</time>
      </trkpt>
      <trkpt lat="43.66213" lon="3.39495">
        <ele>219.6</ele>
        <time>2024-08-06T08:34:48Z</time>
      </trkpt>
      <trkpt lat="43.66219" lon="3.39497">
        <ele>218.9</ele>
        <time>2024-08-06T08:34:49Z</time>
      </trkpt>
      <trkpt lat="43.66226" lon="3.39499">
        <ele>218.1</ele>
        <time>2024-08-06T08:34:50Z</time>
      </trkpt>
      <trkpt lat="43.66233" lon="3.39501">
        <ele>217.1</ele>
        <time>2024-08-06T08:34:51Z</time>
      </trkpt>
      <trkpt lat="43.6624" lon="3.39503">
        <ele>215.8</ele>
        <time>2024-08-06T08:34:52Z</time>
      </trkpt>
      <trkpt lat="43.66248" lon="3.39505">
        <ele>214.6</ele>
        <time>2024-08-06T08:34:53Z</time>
      </trkpt>
      <trkpt lat="43.66255" lon="3.39508">
        <ele>213.5</ele>
        <time>2024-08-06T08:34:54Z</time>
      </trkpt>
      <trkpt lat="43.66263" lon="3.3951">
        <ele>213.6</ele>
        <time>2024-08-06T08:34:55Z</time>
      </trkpt>
      <trkpt lat="43.66271" lon="3.39513">
        <ele>213.4</ele>
        <time>2024-08-06T08:34:56Z</time>
      </trkpt>
      <trkpt lat="43.66278" lon="3.39516">
        <ele>213.3</ele>
        <time>2024-08-06T08:34:57Z</time>
      </trkpt>
      <trkpt lat="43.66286" lon="3.39519">
        <ele>214.1</ele>
        <time>2024-08-06T08:34:58Z</time>
      </trkpt>
      <trkpt lat="43.66294" lon="3.39521">
        <ele>215.6</ele>
        <time>2024-08-06T08:34:59Z</time>
      </trkpt>
      <trkpt lat="43.66302" lon="3.39525">
        <ele>217.2</ele>
        <time>2024-08-06T08:35:00Z</time>
      </trkpt>
      <trkpt lat="43.66309" lon="3.39527">
        <ele>217.9</ele>
        <time>2024-08-06T08:35:01Z</time>
      </trkpt>
      <trkpt lat="43.66317" lon="3.39529">
        <ele>217.5</ele>
        <time>2024-08-06T08:35:02Z</time>
      </trkpt>
      <trkpt lat="43.66325" lon="3.39529">
        <ele>217.2</ele>
        <time>2024-08-06T08:35:03Z</time>
      </trkpt>
      <trkpt lat="43.66333" lon="3.39527">
        <ele>217.1</ele>
        <time>2024-08-06T08:35:04Z</time>
      </trkpt>
      <trkpt lat="43.66342" lon="3.39524">
        <ele>216.9</ele>
        <time>2024-08-06T08:35:05Z</time>
      </trkpt>
      <trkpt lat="43.6635" lon="3.39521">
        <ele>216.7</ele>
        <time>2024-08-06T08:35:06Z</time>
      </trkpt>
      <trkpt lat="43.66358" lon="3.39518">
        <ele>216.5</ele>
        <time>2024-08-06T08:35:07Z</time>
      </trkpt>
      <trkpt lat="43.66365" lon="3.39515">
        <ele>216.6</ele>
        <time>2024-08-06T08:35:08Z</time>
      </trkpt>
      <trkpt lat="43.6637" lon="3.39514">
        <ele>216.8</ele>
        <time>2024-08-06T08:35:09Z</time>
      </trkpt>
      <trkpt lat="43.66375" lon="3.39515">
        <ele>217</ele>
        <time>2024-08-06T08:35:10Z</time>
      </trkpt>
      <trkpt lat="43.6638" lon="3.39519">
        <ele>217.5</ele>
        <time>2024-08-06T08:35:11Z</time>
      </trkpt>
      <trkpt lat="43.66381" lon="3.39524">
        <ele>217.9</ele>
        <time>2024-08-06T08:35:12Z</time>
      </trkpt>
      <trkpt lat="43.66379" lon="3.39528">
        <ele>218</ele>
        <time>2024-08-06T08:35:13Z</time>
      </trkpt>
      <trkpt lat="43.66376" lon="3.39532">
        <ele>218.1</ele>
        <time>2024-08-06T08:35:14Z</time>
      </trkpt>
      <trkpt lat="43.66371" lon="3.39536">
        <ele>217.9</ele>
        <time>2024-08-06T08:35:15Z</time>
      </trkpt>
      <trkpt lat="43.66366" lon="3.39541">
        <ele>217.6</ele>
        <time>2024-08-06T08:35:16Z</time>
      </trkpt>
      <trkpt lat="43.6636" lon="3.39544">
        <ele>217.2</ele>
        <time>2024-08-06T08:35:17Z</time>
      </trkpt>
      <trkpt lat="43.66354" lon="3.39549">
        <ele>217.4</ele>
        <time>2024-08-06T08:35:18Z</time>
      </trkpt>
      <trkpt lat="43.66349" lon="3.39555">
        <ele>217.5</ele>
        <time>2024-08-06T08:35:19Z</time>
      </trkpt>
      <trkpt lat="43.66345" lon="3.39562">
        <ele>217.6</ele>
        <time>2024-08-06T08:35:20Z</time>
      </trkpt>
      <trkpt lat="43.66343" lon="3.39571">
        <ele>217.6</ele>
        <time>2024-08-06T08:35:21Z</time>
      </trkpt>
      <trkpt lat="43.6634" lon="3.39579">
        <ele>217.2</ele>
        <time>2024-08-06T08:35:22Z</time>
      </trkpt>
      <trkpt lat="43.66337" lon="3.39587">
        <ele>217.2</ele>
        <time>2024-08-06T08:35:23Z</time>
      </trkpt>
      <trkpt lat="43.66334" lon="3.39594">
        <ele>217.6</ele>
        <time>2024-08-06T08:35:24Z</time>
      </trkpt>
      <trkpt lat="43.66329" lon="3.39599">
        <ele>217.9</ele>
        <time>2024-08-06T08:35:25Z</time>
      </trkpt>
      <trkpt lat="43.66324" lon="3.39602">
        <ele>218</ele>
        <time>2024-08-06T08:35:26Z</time>
      </trkpt>
      <trkpt lat="43.66317" lon="3.39602">
        <ele>217.5</ele>
        <time>2024-08-06T08:35:27Z</time>
      </trkpt>
      <trkpt lat="43.66311" lon="3.39603">
        <ele>217.2</ele>
        <time>2024-08-06T08:35:28Z</time>
      </trkpt>
      <trkpt lat="43.66305" lon="3.39605">
        <ele>217</ele>
        <time>2024-08-06T08:35:29Z</time>
      </trkpt>
      <trkpt lat="43.66299" lon="3.39607">
        <ele>216.2</ele>
        <time>2024-08-06T08:35:30Z</time>
      </trkpt>
      <trkpt lat="43.66293" lon="3.39609">
        <ele>215.6</ele>
        <time>2024-08-06T08:35:31Z</time>
      </trkpt>
      <trkpt lat="43.66288" lon="3.39611">
        <ele>215.4</ele>
        <time>2024-08-06T08:35:32Z</time>
      </trkpt>
      <trkpt lat="43.66282" lon="3.39614">
        <ele>215.4</ele>
        <time>2024-08-06T08:35:33Z</time>
      </trkpt>
      <trkpt lat="43.66277" lon="3.39619">
        <ele>216.2</ele>
        <time>2024-08-06T08:35:34Z</time>
      </trkpt>
      <trkpt lat="43.66272" lon="3.39623">
        <ele>217.1</ele>
        <time>2024-08-06T08:35:35Z</time>
      </trkpt>
      <trkpt lat="43.66267" lon="3.39628">
        <ele>218.3</ele>
        <time>2024-08-06T08:35:36Z</time>
      </trkpt>
      <trkpt lat="43.66262" lon="3.39632">
        <ele>219.3</ele>
        <time>2024-08-06T08:35:37Z</time>
      </trkpt>
      <trkpt lat="43.66257" lon="3.39635">
        <ele>220</ele>
        <time>2024-08-06T08:35:38Z</time>
      </trkpt>
      <trkpt lat="43.66251" lon="3.39636">
        <ele>220.1</ele>
        <time>2024-08-06T08:35:39Z</time>
      </trkpt>
      <trkpt lat="43.66245" lon="3.39637">
        <ele>219.1</ele>
        <time>2024-08-06T08:35:40Z</time>
      </trkpt>
      <trkpt lat="43.66239" lon="3.39638">
        <ele>217.9</ele>
        <time>2024-08-06T08:35:41Z</time>
      </trkpt>
      <trkpt lat="43.66234" lon="3.39641">
        <ele>217.2</ele>
        <time>2024-08-06T08:35:42Z</time>
      </trkpt>
      <trkpt lat="43.66229" lon="3.39647">
        <ele>216.9</ele>
        <time>2024-08-06T08:35:43Z</time>
      </trkpt>
      <trkpt lat="43.66227" lon="3.39654">
        <ele>217.5</ele>
        <time>2024-08-06T08:35:44Z</time>
      </trkpt>
      <trkpt lat="43.66225" lon="3.39662">
        <ele>218.5</ele>
        <time>2024-08-06T08:35:45Z</time>
      </trkpt>
      <trkpt lat="43.66222" lon="3.39669">
        <ele>219.2</ele>
        <time>2024-08-06T08:35:46Z</time>
      </trkpt>
      <trkpt lat="43.66219" lon="3.39676">
        <ele>219.2</ele>
        <time>2024-08-06T08:35:47Z</time>
      </trkpt>
      <trkpt lat="43.66215" lon="3.39682">
        <ele>219.2</ele>
        <time>2024-08-06T08:35:48Z</time>
      </trkpt>
      <trkpt lat="43.66211" lon="3.39687">
        <ele>219.3</ele>
        <time>2024-08-06T08:35:49Z</time>
      </trkpt>
      <trkpt lat="43.66208" lon="3.3969">
        <ele>219.5</ele>
        <time>2024-08-06T08:35:50Z</time>
      </trkpt>
      <trkpt lat="43.66204" lon="3.39693">
        <ele>219.7</ele>
        <time>2024-08-06T08:35:51Z</time>
      </trkpt>
      <trkpt lat="43.66201" lon="3.39697">
        <ele>220.1</ele>
        <time>2024-08-06T08:35:52Z</time>
      </trkpt>
      <trkpt lat="43.66197" lon="3.397">
        <ele>220.1</ele>
        <time>2024-08-06T08:35:53Z</time>
      </trkpt>
      <trkpt lat="43.66194" lon="3.39703">
        <ele>220.2</ele>
        <time>2024-08-06T08:35:54Z</time>
      </trkpt>
      <trkpt lat="43.66191" lon="3.39706">
        <ele>220.2</ele>
        <time>2024-08-06T08:35:55Z</time>
      </trkpt>
      <trkpt lat="43.66187" lon="3.39709">
        <ele>220.2</ele>
        <time>2024-08-06T08:35:56Z</time>
      </trkpt>
      <trkpt lat="43.66183" lon="3.39712">
        <ele>220.2</ele>
        <time>2024-08-06T08:35:57Z</time>
      </trkpt>
      <trkpt lat="43.66178" lon="3.39714">
        <ele>220.1</ele>
        <time>2024-08-06T08:35:58Z</time>
      </trkpt>
      <trkpt lat="43.66174" lon="3.39715">
        <ele>219.9</ele>
        <time>2024-08-06T08:35:59Z</time>
      </trkpt>
      <trkpt lat="43.66169" lon="3.39716">
        <ele>219.7</ele>
        <time>2024-08-06T08:36:00Z</time>
      </trkpt>
      <trkpt lat="43.66166" lon="3.39716">
        <ele>219.4</ele>
        <time>2024-08-06T08:36:01Z</time>
      </trkpt>
      <trkpt lat="43.66162" lon="3.39715">
        <ele>219</ele>
        <time>2024-08-06T08:36:02Z</time>
      </trkpt>
      <trkpt lat="43.66158" lon="3.39713">
        <ele>218.4</ele>
        <time>2024-08-06T08:36:03Z</time>
      </trkpt>
      <trkpt lat="43.66154" lon="3.39712">
        <ele>217.9</ele>
        <time>2024-08-06T08:36:04Z</time>
      </trkpt>
      <trkpt lat="43.6615" lon="3.39711">
        <ele>217.4</ele>
        <time>2024-08-06T08:36:05Z</time>
      </trkpt>
      <trkpt lat="43.66146" lon="3.39711">
        <ele>217.3</ele>
        <time>2024-08-06T08:36:06Z</time>
      </trkpt>
      <trkpt lat="43.66142" lon="3.39712">
        <ele>217.4</ele>
        <time>2024-08-06T08:36:07Z</time>
      </trkpt>
      <trkpt lat="43.66138" lon="3.39714">
        <ele>217.7</ele>
        <time>2024-08-06T08:36:08Z</time>
      </trkpt>
      <trkpt lat="43.66135" lon="3.39716">
        <ele>217.5</ele>
        <time>2024-08-06T08:36:09Z</time>
      </trkpt>
      <trkpt lat="43.66131" lon="3.39719">
        <ele>217.7</ele>
        <time>2024-08-06T08:36:10Z</time>
      </trkpt>
      <trkpt lat="43.66128" lon="3.39721">
        <ele>218</ele>
        <time>2024-08-06T08:36:11Z</time>
      </trkpt>
      <trkpt lat="43.66124" lon="3.39724">
        <ele>218.1</ele>
        <time>2024-08-06T08:36:12Z</time>
      </trkpt>
      <trkpt lat="43.66121" lon="3.39727">
        <ele>218</ele>
        <time>2024-08-06T08:36:13Z</time>
      </trkpt>
      <trkpt lat="43.66117" lon="3.3973">
        <ele>217.8</ele>
        <time>2024-08-06T08:36:14Z</time>
      </trkpt>
      <trkpt lat="43.66115" lon="3.39733">
        <ele>218</ele>
        <time>2024-08-06T08:36:15Z</time>
      </trkpt>
      <trkpt lat="43.66112" lon="3.39737">
        <ele>218.3</ele>
        <time>2024-08-06T08:36:16Z</time>
      </trkpt>
      <trkpt lat="43.6611" lon="3.39741">
        <ele>218.6</ele>
        <time>2024-08-06T08:36:17Z</time>
      </trkpt>
      <trkpt lat="43.66106" lon="3.39749">
        <ele>218.9</ele>
        <time>2024-08-06T08:36:19Z</time>
      </trkpt>
      <trkpt lat="43.66105" lon="3.39754">
        <ele>219.2</ele>
        <time>2024-08-06T08:36:20Z</time>
      </trkpt>
      <trkpt lat="43.66103" lon="3.39758">
        <ele>219</ele>
        <time>2024-08-06T08:36:21Z</time>
      </trkpt>
      <trkpt lat="43.66101" lon="3.39762">
        <ele>219</ele>
        <time>2024-08-06T08:36:22Z</time>
      </trkpt>
      <trkpt lat="43.66099" lon="3.39767">
        <ele>219.4</ele>
        <time>2024-08-06T08:36:23Z</time>
      </trkpt>
      <trkpt lat="43.66096" lon="3.39771">
        <ele>219.6</ele>
        <time>2024-08-06T08:36:24Z</time>
      </trkpt>
      <trkpt lat="43.66093" lon="3.39774">
        <ele>219.9</ele>
        <time>2024-08-06T08:36:25Z</time>
      </trkpt>
      <trkpt lat="43.66089" lon="3.39777">
        <ele>220.2</ele>
        <time>2024-08-06T08:36:26Z</time>
      </trkpt>
      <trkpt lat="43.66086" lon="3.3978">
        <ele>220.4</ele>
        <time>2024-08-06T08:36:27Z</time>
      </trkpt>
      <trkpt lat="43.66082" lon="3.39783">
        <ele>220.4</ele>
        <time>2024-08-06T08:36:28Z</time>
      </trkpt>
      <trkpt lat="43.66078" lon="3.39785">
        <ele>220</ele>
        <time>2024-08-06T08:36:29Z</time>
      </trkpt>
      <trkpt lat="43.66075" lon="3.39787">
        <ele>219.9</ele>
        <time>2024-08-06T08:36:30Z</time>
      </trkpt>
      <trkpt lat="43.66071" lon="3.39789">
        <ele>219.7</ele>
        <time>2024-08-06T08:36:31Z</time>
      </trkpt>
      <trkpt lat="43.66068" lon="3.39791">
        <ele>219.7</ele>
        <time>2024-08-06T08:36:32Z</time>
      </trkpt>
      <trkpt lat="43.66064" lon="3.39794">
        <ele>219.9</ele>
        <time>2024-08-06T08:36:33Z</time>
      </trkpt>
      <trkpt lat="43.66061" lon="3.39797">
        <ele>220.3</ele>
        <time>2024-08-06T08:36:34Z</time>
      </trkpt>
      <trkpt lat="43.66057" lon="3.398">
        <ele>220.7</ele>
        <time>2024-08-06T08:36:35Z</time>
      </trkpt>
      <trkpt lat="43.66054" lon="3.39803">
        <ele>220.9</ele>
        <time>2024-08-06T08:36:36Z</time>
      </trkpt>
      <trkpt lat="43.6605" lon="3.39807">
        <ele>220.8</ele>
        <time>2024-08-06T08:36:37Z</time>
      </trkpt>
      <trkpt lat="43.66047" lon="3.39811">
        <ele>220.5</ele>
        <time>2024-08-06T08:36:38Z</time>
      </trkpt>
      <trkpt lat="43.66043" lon="3.39815">
        <ele>220.3</ele>
        <time>2024-08-06T08:36:39Z</time>
      </trkpt>
      <trkpt lat="43.6604" lon="3.39819">
        <ele>220.4</ele>
        <time>2024-08-06T08:36:40Z</time>
      </trkpt>
      <trkpt lat="43.66037" lon="3.39823">
        <ele>220.7</ele>
        <time>2024-08-06T08:36:41Z</time>
      </trkpt>
      <trkpt lat="43.66034" lon="3.39827">
        <ele>221.1</ele>
        <time>2024-08-06T08:36:42Z</time>
      </trkpt>
      <trkpt lat="43.66031" lon="3.3983">
        <ele>221.5</ele>
        <time>2024-08-06T08:36:43Z</time>
      </trkpt>
      <trkpt lat="43.66027" lon="3.39833">
        <ele>221.9</ele>
        <time>2024-08-06T08:36:44Z</time>
      </trkpt>
      <trkpt lat="43.66024" lon="3.39836">
        <ele>222.4</ele>
        <time>2024-08-06T08:36:45Z</time>
      </trkpt>
      <trkpt lat="43.6602" lon="3.39839">
        <ele>222.8</ele>
        <time>2024-08-06T08:36:46Z</time>
      </trkpt>
      <trkpt lat="43.66016" lon="3.39841">
        <ele>223</ele>
        <time>2024-08-06T08:36:47Z</time>
      </trkpt>
      <trkpt lat="43.66012" lon="3.39843">
        <ele>223.2</ele>
        <time>2024-08-06T08:36:48Z</time>
      </trkpt>
      <trkpt lat="43.66008" lon="3.39845">
        <ele>223.4</ele>
        <time>2024-08-06T08:36:49Z</time>
      </trkpt>
      <trkpt lat="43.66004" lon="3.39847">
        <ele>223.5</ele>
        <time>2024-08-06T08:36:50Z</time>
      </trkpt>
      <trkpt lat="43.66" lon="3.39849">
        <ele>223.7</ele>
        <time>2024-08-06T08:36:51Z</time>
      </trkpt>
      <trkpt lat="43.65996" lon="3.39851">
        <ele>223.4</ele>
        <time>2024-08-06T08:36:52Z</time>
      </trkpt>
      <trkpt lat="43.65992" lon="3.39853">
        <ele>223.2</ele>
        <time>2024-08-06T08:36:53Z</time>
      </trkpt>
      <trkpt lat="43.65988" lon="3.39855">
        <ele>223.1</ele>
        <time>2024-08-06T08:36:54Z</time>
      </trkpt>
      <trkpt lat="43.65985" lon="3.39858">
        <ele>223.3</ele>
        <time>2024-08-06T08:36:55Z</time>
      </trkpt>
      <trkpt lat="43.65981" lon="3.39862">
        <ele>223.7</ele>
        <time>2024-08-06T08:36:56Z</time>
      </trkpt>
      <trkpt lat="43.65977" lon="3.39866">
        <ele>223.9</ele>
        <time>2024-08-06T08:36:57Z</time>
      </trkpt>
      <trkpt lat="43.65973" lon="3.39869">
        <ele>223.9</ele>
        <time>2024-08-06T08:36:58Z</time>
      </trkpt>
      <trkpt lat="43.65969" lon="3.39872">
        <ele>223.9</ele>
        <time>2024-08-06T08:36:59Z</time>
      </trkpt>
      <trkpt lat="43.65964" lon="3.39875">
        <ele>223.8</ele>
        <time>2024-08-06T08:37:00Z</time>
      </trkpt>
      <trkpt lat="43.65959" lon="3.39878">
        <ele>223.7</ele>
        <time>2024-08-06T08:37:01Z</time>
      </trkpt>
      <trkpt lat="43.65956" lon="3.39881">
        <ele>223.8</ele>
        <time>2024-08-06T08:37:02Z</time>
      </trkpt>
      <trkpt lat="43.65952" lon="3.39884">
        <ele>223.9</ele>
        <time>2024-08-06T08:37:03Z</time>
      </trkpt>
      <trkpt lat="43.65948" lon="3.39886">
        <ele>223.9</ele>
        <time>2024-08-06T08:37:04Z</time>
      </trkpt>
      <trkpt lat="43.65944" lon="3.39889">
        <ele>224</ele>
        <time>2024-08-06T08:37:05Z</time>
      </trkpt>
      <trkpt lat="43.6594" lon="3.39891">
        <ele>223.8</ele>
        <time>2024-08-06T08:37:06Z</time>
      </trkpt>
      <trkpt lat="43.65935" lon="3.39894">
        <ele>223.7</ele>
        <time>2024-08-06T08:37:07Z</time>
      </trkpt>
      <trkpt lat="43.65932" lon="3.39896">
        <ele>223.6</ele>
        <time>2024-08-06T08:37:08Z</time>
      </trkpt>
      <trkpt lat="43.65928" lon="3.39899">
        <ele>223.5</ele>
        <time>2024-08-06T08:37:09Z</time>
      </trkpt>
      <trkpt lat="43.65924" lon="3.39902">
        <ele>223.5</ele>
        <time>2024-08-06T08:37:10Z</time>
      </trkpt>
      <trkpt lat="43.6592" lon="3.39905">
        <ele>223.4</ele>
        <time>2024-08-06T08:37:11Z</time>
      </trkpt>
      <trkpt lat="43.65917" lon="3.39909">
        <ele>223.5</ele>
        <time>2024-08-06T08:37:12Z</time>
      </trkpt>
      <trkpt lat="43.65914" lon="3.39913">
        <ele>223.5</ele>
        <time>2024-08-06T08:37:13Z</time>
      </trkpt>
      <trkpt lat="43.6591" lon="3.39917">
        <ele>223.5</ele>
        <time>2024-08-06T08:37:14Z</time>
      </trkpt>
      <trkpt lat="43.65907" lon="3.39922">
        <ele>223.3</ele>
        <time>2024-08-06T08:37:15Z</time>
      </trkpt>
      <trkpt lat="43.65905" lon="3.39927">
        <ele>223.2</ele>
        <time>2024-08-06T08:37:16Z</time>
      </trkpt>
      <trkpt lat="43.65902" lon="3.39932">
        <ele>222.9</ele>
        <time>2024-08-06T08:37:17Z</time>
      </trkpt>
      <trkpt lat="43.659" lon="3.39937">
        <ele>222.8</ele>
        <time>2024-08-06T08:37:18Z</time>
      </trkpt>
      <trkpt lat="43.65897" lon="3.39942">
        <ele>222.6</ele>
        <time>2024-08-06T08:37:19Z</time>
      </trkpt>
      <trkpt lat="43.65895" lon="3.39947">
        <ele>222.4</ele>
        <time>2024-08-06T08:37:20Z</time>
      </trkpt>
      <trkpt lat="43.65894" lon="3.39953">
        <ele>222.1</ele>
        <time>2024-08-06T08:37:21Z</time>
      </trkpt>
      <trkpt lat="43.65893" lon="3.39959">
        <ele>221.8</ele>
        <time>2024-08-06T08:37:22Z</time>
      </trkpt>
      <trkpt lat="43.65892" lon="3.39966">
        <ele>221.5</ele>
        <time>2024-08-06T08:37:23Z</time>
      </trkpt>
      <trkpt lat="43.65892" lon="3.39972">
        <ele>221.3</ele>
        <time>2024-08-06T08:37:24Z</time>
      </trkpt>
      <trkpt lat="43.65892" lon="3.39979">
        <ele>221.3</ele>
        <time>2024-08-06T08:37:25Z</time>
      </trkpt>
      <trkpt lat="43.65893" lon="3.39986">
        <ele>221.4</ele>
        <time>2024-08-06T08:37:26Z</time>
      </trkpt>
      <trkpt lat="43.65895" lon="3.39992">
        <ele>221.5</ele>
        <time>2024-08-06T08:37:27Z</time>
      </trkpt>
      <trkpt lat="43.65895" lon="3.39998">
        <ele>221.5</ele>
        <time>2024-08-06T08:37:28Z</time>
      </trkpt>
      <trkpt lat="43.65896" lon="3.40004">
        <ele>221.4</ele>
        <time>2024-08-06T08:37:29Z</time>
      </trkpt>
      <trkpt lat="43.65898" lon="3.40009">
        <ele>221.3</ele>
        <time>2024-08-06T08:37:30Z</time>
      </trkpt>
      <trkpt lat="43.65899" lon="3.40015">
        <ele>221.2</ele>
        <time>2024-08-06T08:37:31Z</time>
      </trkpt>
      <trkpt lat="43.65901" lon="3.40021">
        <ele>221.1</ele>
        <time>2024-08-06T08:37:32Z</time>
      </trkpt>
      <trkpt lat="43.65902" lon="3.40027">
        <ele>221</ele>
        <time>2024-08-06T08:37:33Z</time>
      </trkpt>
      <trkpt lat="43.65903" lon="3.40033">
        <ele>220.6</ele>
        <time>2024-08-06T08:37:34Z</time>
      </trkpt>
      <trkpt lat="43.65904" lon="3.40039">
        <ele>220.3</ele>
        <time>2024-08-06T08:37:35Z</time>
      </trkpt>
      <trkpt lat="43.65906" lon="3.40046">
        <ele>220.1</ele>
        <time>2024-08-06T08:37:36Z</time>
      </trkpt>
      <trkpt lat="43.65909" lon="3.40052">
        <ele>220.1</ele>
        <time>2024-08-06T08:37:37Z</time>
      </trkpt>
      <trkpt lat="43.65912" lon="3.40059">
        <ele>220.1</ele>
        <time>2024-08-06T08:37:38Z</time>
      </trkpt>
      <trkpt lat="43.65916" lon="3.40064">
        <ele>220.3</ele>
        <time>2024-08-06T08:37:39Z</time>
      </trkpt>
      <trkpt lat="43.65919" lon="3.4007">
        <ele>220.1</ele>
        <time>2024-08-06T08:37:40Z</time>
      </trkpt>
      <trkpt lat="43.65923" lon="3.40076">
        <ele>220</ele>
        <time>2024-08-06T08:37:41Z</time>
      </trkpt>
      <trkpt lat="43.65927" lon="3.40082">
        <ele>219.8</ele>
        <time>2024-08-06T08:37:42Z</time>
      </trkpt>
      <trkpt lat="43.6593" lon="3.40087">
        <ele>219.6</ele>
        <time>2024-08-06T08:37:43Z</time>
      </trkpt>
      <trkpt lat="43.65933" lon="3.40092">
        <ele>219.3</ele>
        <time>2024-08-06T08:37:44Z</time>
      </trkpt>
      <trkpt lat="43.65937" lon="3.40097">
        <ele>219.2</ele>
        <time>2024-08-06T08:37:45Z</time>
      </trkpt>
      <trkpt lat="43.6594" lon="3.40101">
        <ele>219.2</ele>
        <time>2024-08-06T08:37:46Z</time>
      </trkpt>
      <trkpt lat="43.65944" lon="3.40106">
        <ele>219.3</ele>
        <time>2024-08-06T08:37:47Z</time>
      </trkpt>
      <trkpt lat="43.65948" lon="3.40111">
        <ele>219.3</ele>
        <time>2024-08-06T08:37:48Z</time>
      </trkpt>
      <trkpt lat="43.65951" lon="3.40115">
        <ele>218.8</ele>
        <time>2024-08-06T08:37:49Z</time>
      </trkpt>
      <trkpt lat="43.65955" lon="3.4012">
        <ele>218.3</ele>
        <time>2024-08-06T08:37:50Z</time>
      </trkpt>
      <trkpt lat="43.65958" lon="3.40124">
        <ele>218.1</ele>
        <time>2024-08-06T08:37:51Z</time>
      </trkpt>
      <trkpt lat="43.65962" lon="3.40128">
        <ele>218.2</ele>
        <time>2024-08-06T08:37:52Z</time>
      </trkpt>
      <trkpt lat="43.65966" lon="3.40132">
        <ele>218.4</ele>
        <time>2024-08-06T08:37:53Z</time>
      </trkpt>
      <trkpt lat="43.65969" lon="3.40136">
        <ele>218.6</ele>
        <time>2024-08-06T08:37:54Z</time>
      </trkpt>
      <trkpt lat="43.65972" lon="3.4014">
        <ele>218.8</ele>
        <time>2024-08-06T08:37:55Z</time>
      </trkpt>
      <trkpt lat="43.65976" lon="3.40145">
        <ele>218.8</ele>
        <time>2024-08-06T08:37:56Z</time>
      </trkpt>
      <trkpt lat="43.65979" lon="3.4015">
        <ele>218.6</ele>
        <time>2024-08-06T08:37:57Z</time>
      </trkpt>
      <trkpt lat="43.65983" lon="3.40155">
        <ele>218.6</ele>
        <time>2024-08-06T08:37:58Z</time>
      </trkpt>
      <trkpt lat="43.65985" lon="3.4016">
        <ele>218.4</ele>
        <time>2024-08-06T08:37:59Z</time>
      </trkpt>
      <trkpt lat="43.65988" lon="3.40166">
        <ele>218.3</ele>
        <time>2024-08-06T08:38:00Z</time>
      </trkpt>
      <trkpt lat="43.65991" lon="3.40173">
        <ele>218.4</ele>
        <time>2024-08-06T08:38:01Z</time>
      </trkpt>
      <trkpt lat="43.65992" lon="3.4018">
        <ele>218.3</ele>
        <time>2024-08-06T08:38:02Z</time>
      </trkpt>
      <trkpt lat="43.65994" lon="3.40187">
        <ele>218.5</ele>
        <time>2024-08-06T08:38:03Z</time>
      </trkpt>
      <trkpt lat="43.65995" lon="3.40194">
        <ele>218.6</ele>
        <time>2024-08-06T08:38:04Z</time>
      </trkpt>
      <trkpt lat="43.65997" lon="3.40201">
        <ele>218.8</ele>
        <time>2024-08-06T08:38:05Z</time>
      </trkpt>
      <trkpt lat="43.65998" lon="3.40207">
        <ele>218.9</ele>
        <time>2024-08-06T08:38:06Z</time>
      </trkpt>
      <trkpt lat="43.65998" lon="3.40214">
        <ele>218.6</ele>
        <time>2024-08-06T08:38:07Z</time>
      </trkpt>
      <trkpt lat="43.65999" lon="3.40221">
        <ele>218.7</ele>
        <time>2024-08-06T08:38:08Z</time>
      </trkpt>
      <trkpt lat="43.66001" lon="3.40227">
        <ele>218.6</ele>
        <time>2024-08-06T08:38:09Z</time>
      </trkpt>
      <trkpt lat="43.66003" lon="3.40234">
        <ele>218.2</ele>
        <time>2024-08-06T08:38:10Z</time>
      </trkpt>
      <trkpt lat="43.66004" lon="3.4024">
        <ele>217.8</ele>
        <time>2024-08-06T08:38:11Z</time>
      </trkpt>
      <trkpt lat="43.66006" lon="3.40246">
        <ele>217.6</ele>
        <time>2024-08-06T08:38:12Z</time>
      </trkpt>
      <trkpt lat="43.66008" lon="3.40252">
        <ele>217.3</ele>
        <time>2024-08-06T08:38:13Z</time>
      </trkpt>
      <trkpt lat="43.6601" lon="3.40258">
        <ele>216.7</ele>
        <time>2024-08-06T08:38:14Z</time>
      </trkpt>
      <trkpt lat="43.66012" lon="3.40263">
        <ele>216.3</ele>
        <time>2024-08-06T08:38:15Z</time>
      </trkpt>
      <trkpt lat="43.66013" lon="3.40269">
        <ele>215.6</ele>
        <time>2024-08-06T08:38:16Z</time>
      </trkpt>
      <trkpt lat="43.66015" lon="3.40275">
        <ele>215.4</ele>
        <time>2024-08-06T08:38:17Z</time>
      </trkpt>
      <trkpt lat="43.66017" lon="3.40281">
        <ele>215.6</ele>
        <time>2024-08-06T08:38:18Z</time>
      </trkpt>
      <trkpt lat="43.66019" lon="3.40287">
        <ele>216.1</ele>
        <time>2024-08-06T08:38:19Z</time>
      </trkpt>
      <trkpt lat="43.6602" lon="3.40294">
        <ele>216.2</ele>
        <time>2024-08-06T08:38:20Z</time>
      </trkpt>
      <trkpt lat="43.66022" lon="3.40301">
        <ele>216.7</ele>
        <time>2024-08-06T08:38:21Z</time>
      </trkpt>
      <trkpt lat="43.66022" lon="3.40308">
        <ele>216.4</ele>
        <time>2024-08-06T08:38:22Z</time>
      </trkpt>
      <trkpt lat="43.66023" lon="3.40314">
        <ele>216.6</ele>
        <time>2024-08-06T08:38:23Z</time>
      </trkpt>
      <trkpt lat="43.66023" lon="3.4032">
        <ele>216.4</ele>
        <time>2024-08-06T08:38:24Z</time>
      </trkpt>
      <trkpt lat="43.66024" lon="3.40327">
        <ele>216.6</ele>
        <time>2024-08-06T08:38:25Z</time>
      </trkpt>
      <trkpt lat="43.66024" lon="3.40333">
        <ele>216.4</ele>
        <time>2024-08-06T08:38:26Z</time>
      </trkpt>
      <trkpt lat="43.66025" lon="3.4034">
        <ele>216.6</ele>
        <time>2024-08-06T08:38:27Z</time>
      </trkpt>
      <trkpt lat="43.66025" lon="3.40346">
        <ele>216.3</ele>
        <time>2024-08-06T08:38:28Z</time>
      </trkpt>
      <trkpt lat="43.66025" lon="3.40353">
        <ele>216.1</ele>
        <time>2024-08-06T08:38:29Z</time>
      </trkpt>
      <trkpt lat="43.66024" lon="3.40359">
        <ele>215.4</ele>
        <time>2024-08-06T08:38:30Z</time>
      </trkpt>
      <trkpt lat="43.66024" lon="3.40365">
        <ele>215.2</ele>
        <time>2024-08-06T08:38:31Z</time>
      </trkpt>
      <trkpt lat="43.66025" lon="3.40371">
        <ele>215.3</ele>
        <time>2024-08-06T08:38:32Z</time>
      </trkpt>
      <trkpt lat="43.66025" lon="3.40377">
        <ele>215.1</ele>
        <time>2024-08-06T08:38:33Z</time>
      </trkpt>
      <trkpt lat="43.66026" lon="3.40384">
        <ele>215.2</ele>
        <time>2024-08-06T08:38:34Z</time>
      </trkpt>
      <trkpt lat="43.66027" lon="3.40391">
        <ele>215.4</ele>
        <time>2024-08-06T08:38:35Z</time>
      </trkpt>
      <trkpt lat="43.66028" lon="3.40397">
        <ele>215.5</ele>
        <time>2024-08-06T08:38:36Z</time>
      </trkpt>
      <trkpt lat="43.66029" lon="3.40404">
        <ele>215.3</ele>
        <time>2024-08-06T08:38:37Z</time>
      </trkpt>
      <trkpt lat="43.6603" lon="3.4041">
        <ele>215.1</ele>
        <time>2024-08-06T08:38:38Z</time>
      </trkpt>
      <trkpt lat="43.66032" lon="3.40416">
        <ele>215.3</ele>
        <time>2024-08-06T08:38:39Z</time>
      </trkpt>
      <trkpt lat="43.66033" lon="3.40421">
        <ele>215.1</ele>
        <time>2024-08-06T08:38:40Z</time>
      </trkpt>
      <trkpt lat="43.66035" lon="3.40426">
        <ele>215.2</ele>
        <time>2024-08-06T08:38:41Z</time>
      </trkpt>
      <trkpt lat="43.66037" lon="3.40431">
        <ele>215.3</ele>
        <time>2024-08-06T08:38:42Z</time>
      </trkpt>
      <trkpt lat="43.66039" lon="3.40436">
        <ele>215.3</ele>
        <time>2024-08-06T08:38:43Z</time>
      </trkpt>
      <trkpt lat="43.66041" lon="3.40441">
        <ele>215.2</ele>
        <time>2024-08-06T08:38:44Z</time>
      </trkpt>
      <trkpt lat="43.66043" lon="3.40446">
        <ele>215.2</ele>
        <time>2024-08-06T08:38:45Z</time>
      </trkpt>
      <trkpt lat="43.66046" lon="3.40451">
        <ele>215.5</ele>
        <time>2024-08-06T08:38:46Z</time>
      </trkpt>
      <trkpt lat="43.66049" lon="3.40456">
        <ele>215.9</ele>
        <time>2024-08-06T08:38:47Z</time>
      </trkpt>
      <trkpt lat="43.66051" lon="3.4046">
        <ele>216.2</ele>
        <time>2024-08-06T08:38:48Z</time>
      </trkpt>
      <trkpt lat="43.66054" lon="3.40465">
        <ele>216.8</ele>
        <time>2024-08-06T08:38:49Z</time>
      </trkpt>
      <trkpt lat="43.66057" lon="3.40469">
        <ele>217.2</ele>
        <time>2024-08-06T08:38:50Z</time>
      </trkpt>
      <trkpt lat="43.66061" lon="3.40472">
        <ele>217.2</ele>
        <time>2024-08-06T08:38:51Z</time>
      </trkpt>
      <trkpt lat="43.66065" lon="3.40475">
        <ele>217.1</ele>
        <time>2024-08-06T08:38:52Z</time>
      </trkpt>
      <trkpt lat="43.66069" lon="3.40477">
        <ele>217.1</ele>
        <time>2024-08-06T08:38:53Z</time>
      </trkpt>
      <trkpt lat="43.66072" lon="3.40477">
        <ele>217.1</ele>
        <time>2024-08-06T08:38:54Z</time>
      </trkpt>
      <trkpt lat="43.66074" lon="3.40478">
        <ele>217.1</ele>
        <time>2024-08-06T08:38:55Z</time>
      </trkpt>
      <trkpt lat="43.66074" lon="3.40478">
        <ele>217.1</ele>
        <time>2024-08-06T08:38:56Z</time>
      </trkpt>
      <trkpt lat="43.66075" lon="3.40477">
        <ele>217.2</ele>
        <time>2024-08-06T08:38:57Z</time>
      </trkpt>
      <trkpt lat="43.66075" lon="3.40477">
        <ele>217.2</ele>
        <time>2024-08-06T08:38:58Z</time>
      </trkpt>
      <trkpt lat="43.66075" lon="3.40477">
        <ele>217.2</ele>
        <time>2024-08-06T08:38:59Z</time>
      </trkpt>
      <trkpt lat="43.66079" lon="3.40477">
        <ele>217.4</ele>
        <time>2024-08-06T08:39:23Z</time>
      </trkpt>
      <trkpt lat="43.66081" lon="3.40477">
        <ele>217.4</ele>
        <time>2024-08-06T08:39:24Z</time>
      </trkpt>
      <trkpt lat="43.66084" lon="3.40476">
        <ele>217.5</ele>
        <time>2024-08-06T08:39:25Z</time>
      </trkpt>
      <trkpt lat="43.66087" lon="3.40476">
        <ele>217.3</ele>
        <time>2024-08-06T08:39:26Z</time>
      </trkpt>
      <trkpt lat="43.6609" lon="3.40474">
        <ele>217.3</ele>
        <time>2024-08-06T08:39:27Z</time>
      </trkpt>
      <trkpt lat="43.66092" lon="3.40472">
        <ele>217.4</ele>
        <time>2024-08-06T08:39:28Z</time>
      </trkpt>
      <trkpt lat="43.66095" lon="3.40471">
        <ele>217.3</ele>
        <time>2024-08-06T08:39:29Z</time>
      </trkpt>
      <trkpt lat="43.66097" lon="3.40471">
        <ele>217.1</ele>
        <time>2024-08-06T08:39:30Z</time>
      </trkpt>
      <trkpt lat="43.661" lon="3.4047">
        <ele>217</ele>
        <time>2024-08-06T08:39:31Z</time>
      </trkpt>
      <trkpt lat="43.66102" lon="3.40469">
        <ele>217</ele>
        <time>2024-08-06T08:39:32Z</time>
      </trkpt>
      <trkpt lat="43.66105" lon="3.40467">
        <ele>217</ele>
        <time>2024-08-06T08:39:33Z</time>
      </trkpt>
      <trkpt lat="43.66108" lon="3.40465">
        <ele>217</ele>
        <time>2024-08-06T08:39:34Z</time>
      </trkpt>
      <trkpt lat="43.6611" lon="3.40463">
        <ele>217.1</ele>
        <time>2024-08-06T08:39:35Z</time>
      </trkpt>
      <trkpt lat="43.66114" lon="3.40461">
        <ele>216.6</ele>
        <time>2024-08-06T08:39:36Z</time>
      </trkpt>
      <trkpt lat="43.66118" lon="3.40458">
        <ele>216.2</ele>
        <time>2024-08-06T08:39:37Z</time>
      </trkpt>
      <trkpt lat="43.66122" lon="3.40454">
        <ele>215.9</ele>
        <time>2024-08-06T08:39:38Z</time>
      </trkpt>
      <trkpt lat="43.66126" lon="3.40451">
        <ele>215.5</ele>
        <time>2024-08-06T08:39:39Z</time>
      </trkpt>
      <trkpt lat="43.6613" lon="3.40448">
        <ele>215.1</ele>
        <time>2024-08-06T08:39:40Z</time>
      </trkpt>
      <trkpt lat="43.66134" lon="3.40445">
        <ele>214.8</ele>
        <time>2024-08-06T08:39:41Z</time>
      </trkpt>
      <trkpt lat="43.66137" lon="3.40441">
        <ele>214.9</ele>
        <time>2024-08-06T08:39:42Z</time>
      </trkpt>
      <trkpt lat="43.66141" lon="3.40439">
        <ele>214.3</ele>
        <time>2024-08-06T08:39:43Z</time>
      </trkpt>
      <trkpt lat="43.66145" lon="3.40435">
        <ele>214.1</ele>
        <time>2024-08-06T08:39:44Z</time>
      </trkpt>
      <trkpt lat="43.6615" lon="3.40431">
        <ele>213.7</ele>
        <time>2024-08-06T08:39:45Z</time>
      </trkpt>
      <trkpt lat="43.66154" lon="3.40426">
        <ele>213.8</ele>
        <time>2024-08-06T08:39:46Z</time>
      </trkpt>
      <trkpt lat="43.66158" lon="3.40422">
        <ele>213.7</ele>
        <time>2024-08-06T08:39:47Z</time>
      </trkpt>
      <trkpt lat="43.66163" lon="3.40417">
        <ele>213.6</ele>
        <time>2024-08-06T08:39:48Z</time>
      </trkpt>
      <trkpt lat="43.66168" lon="3.40412">
        <ele>213.8</ele>
        <time>2024-08-06T08:39:49Z</time>
      </trkpt>
      <trkpt lat="43.66172" lon="3.40408">
        <ele>214.5</ele>
        <time>2024-08-06T08:39:50Z</time>
      </trkpt>
      <trkpt lat="43.66177" lon="3.40405">
        <ele>215.1</ele>
        <time>2024-08-06T08:39:51Z</time>
      </trkpt>
      <trkpt lat="43.66183" lon="3.40406">
        <ele>215.3</ele>
        <time>2024-08-06T08:39:52Z</time>
      </trkpt>
      <trkpt lat="43.66187" lon="3.4041">
        <ele>215.1</ele>
        <time>2024-08-06T08:39:53Z</time>
      </trkpt>
      <trkpt lat="43.6619" lon="3.40414">
        <ele>214.9</ele>
        <time>2024-08-06T08:39:54Z</time>
      </trkpt>
      <trkpt lat="43.66193" lon="3.40418">
        <ele>214.8</ele>
        <time>2024-08-06T08:39:55Z</time>
      </trkpt>
      <trkpt lat="43.66196" lon="3.40422">
        <ele>215</ele>
        <time>2024-08-06T08:39:56Z</time>
      </trkpt>
      <trkpt lat="43.66198" lon="3.40427">
        <ele>215.1</ele>
        <time>2024-08-06T08:39:57Z</time>
      </trkpt>
      <trkpt lat="43.66201" lon="3.40432">
        <ele>215.4</ele>
        <time>2024-08-06T08:39:58Z</time>
      </trkpt>
      <trkpt lat="43.66204" lon="3.40437">
        <ele>215.6</ele>
        <time>2024-08-06T08:39:59Z</time>
      </trkpt>
      <trkpt lat="43.66206" lon="3.40442">
        <ele>215.8</ele>
        <time>2024-08-06T08:40:00Z</time>
      </trkpt>
      <trkpt lat="43.66208" lon="3.40447">
        <ele>215.8</ele>
        <time>2024-08-06T08:40:01Z</time>
      </trkpt>
      <trkpt lat="43.66211" lon="3.40451">
        <ele>216.1</ele>
        <time>2024-08-06T08:40:02Z</time>
      </trkpt>
      <trkpt lat="43.66214" lon="3.40455">
        <ele>216.3</ele>
        <time>2024-08-06T08:40:03Z</time>
      </trkpt>
      <trkpt lat="43.66217" lon="3.40459">
        <ele>216.6</ele>
        <time>2024-08-06T08:40:04Z</time>
      </trkpt>
      <trkpt lat="43.6622" lon="3.40462">
        <ele>217</ele>
        <time>2024-08-06T08:40:05Z</time>
      </trkpt>
      <trkpt lat="43.66223" lon="3.40466">
        <ele>217.3</ele>
        <time>2024-08-06T08:40:06Z</time>
      </trkpt>
      <trkpt lat="43.66227" lon="3.4047">
        <ele>217.6</ele>
        <time>2024-08-06T08:40:07Z</time>
      </trkpt>
      <trkpt lat="43.66231" lon="3.40474">
        <ele>217.7</ele>
        <time>2024-08-06T08:40:08Z</time>
      </trkpt>
      <trkpt lat="43.66234" lon="3.40478">
        <ele>217.4</ele>
        <time>2024-08-06T08:40:09Z</time>
      </trkpt>
      <trkpt lat="43.66238" lon="3.40482">
        <ele>217.3</ele>
        <time>2024-08-06T08:40:10Z</time>
      </trkpt>
      <trkpt lat="43.66242" lon="3.40485">
        <ele>217.5</ele>
        <time>2024-08-06T08:40:11Z</time>
      </trkpt>
      <trkpt lat="43.66245" lon="3.40488">
        <ele>217.6</ele>
        <time>2024-08-06T08:40:12Z</time>
      </trkpt>
      <trkpt lat="43.66249" lon="3.40491">
        <ele>217.8</ele>
        <time>2024-08-06T08:40:13Z</time>
      </trkpt>
      <trkpt lat="43.66253" lon="3.40494">
        <ele>218</ele>
        <time>2024-08-06T08:40:14Z</time>
      </trkpt>
      <trkpt lat="43.66256" lon="3.40498">
        <ele>218</ele>
        <time>2024-08-06T08:40:15Z</time>
      </trkpt>
      <trkpt lat="43.6626" lon="3.40501">
        <ele>218.3</ele>
        <time>2024-08-06T08:40:16Z</time>
      </trkpt>
      <trkpt lat="43.66263" lon="3.40503">
        <ele>218.4</ele>
        <time>2024-08-06T08:40:17Z</time>
      </trkpt>
      <trkpt lat="43.66266" lon="3.40505">
        <ele>218.6</ele>
        <time>2024-08-06T08:40:18Z</time>
      </trkpt>
      <trkpt lat="43.6627" lon="3.40508">
        <ele>218.9</ele>
        <time>2024-08-06T08:40:19Z</time>
      </trkpt>
      <trkpt lat="43.66274" lon="3.40511">
        <ele>219.4</ele>
        <time>2024-08-06T08:40:20Z</time>
      </trkpt>
      <trkpt lat="43.66277" lon="3.40514">
        <ele>219.8</ele>
        <time>2024-08-06T08:40:21Z</time>
      </trkpt>
      <trkpt lat="43.6628" lon="3.40517">
        <ele>220</ele>
        <time>2024-08-06T08:40:22Z</time>
      </trkpt>
      <trkpt lat="43.66284" lon="3.4052">
        <ele>220.3</ele>
        <time>2024-08-06T08:40:23Z</time>
      </trkpt>
      <trkpt lat="43.66287" lon="3.40522">
        <ele>220.6</ele>
        <time>2024-08-06T08:40:24Z</time>
      </trkpt>
      <trkpt lat="43.6629" lon="3.40524">
        <ele>220.9</ele>
        <time>2024-08-06T08:40:25Z</time>
      </trkpt>
      <trkpt lat="43.66293" lon="3.40526">
        <ele>221.2</ele>
        <time>2024-08-06T08:40:26Z</time>
      </trkpt>
      <trkpt lat="43.66295" lon="3.40527">
        <ele>221.5</ele>
        <time>2024-08-06T08:40:27Z</time>
      </trkpt>
      <trkpt lat="43.66298" lon="3.40529">
        <ele>221.7</ele>
        <time>2024-08-06T08:40:28Z</time>
      </trkpt>
      <trkpt lat="43.66301" lon="3.40531">
        <ele>222</ele>
        <time>2024-08-06T08:40:29Z</time>
      </trkpt>
      <trkpt lat="43.66303" lon="3.40532">
        <ele>222.2</ele>
        <time>2024-08-06T08:40:30Z</time>
      </trkpt>
      <trkpt lat="43.66306" lon="3.40533">
        <ele>222.7</ele>
        <time>2024-08-06T08:40:31Z</time>
      </trkpt>
      <trkpt lat="43.66309" lon="3.40534">
        <ele>223</ele>
        <time>2024-08-06T08:40:32Z</time>
      </trkpt>
      <trkpt lat="43.66311" lon="3.40534">
        <ele>223.2</ele>
        <time>2024-08-06T08:40:33Z</time>
      </trkpt>
      <trkpt lat="43.66314" lon="3.40535">
        <ele>223.5</ele>
        <time>2024-08-06T08:40:34Z</time>
      </trkpt>
      <trkpt lat="43.66316" lon="3.40537">
        <ele>223.6</ele>
        <time>2024-08-06T08:40:35Z</time>
      </trkpt>
      <trkpt lat="43.66318" lon="3.40542">
        <ele>223.5</ele>
        <time>2024-08-06T08:40:36Z</time>
      </trkpt>
      <trkpt lat="43.6632" lon="3.40547">
        <ele>223.5</ele>
        <time>2024-08-06T08:40:37Z</time>
      </trkpt>
      <trkpt lat="43.66322" lon="3.40551">
        <ele>223.6</ele>
        <time>2024-08-06T08:40:38Z</time>
      </trkpt>
      <trkpt lat="43.66323" lon="3.40556">
        <ele>223.4</ele>
        <time>2024-08-06T08:40:39Z</time>
      </trkpt>
      <trkpt lat="43.66325" lon="3.4056">
        <ele>223</ele>
        <time>2024-08-06T08:40:40Z</time>
      </trkpt>
      <trkpt lat="43.66327" lon="3.40564">
        <ele>222.6</ele>
        <time>2024-08-06T08:40:41Z</time>
      </trkpt>
      <trkpt lat="43.6633" lon="3.40566">
        <ele>222.8</ele>
        <time>2024-08-06T08:40:42Z</time>
      </trkpt>
      <trkpt lat="43.66333" lon="3.40568">
        <ele>223.1</ele>
        <time>2024-08-06T08:40:43Z</time>
      </trkpt>
      <trkpt lat="43.66336" lon="3.4057">
        <ele>223.1</ele>
        <time>2024-08-06T08:40:44Z</time>
      </trkpt>
      <trkpt lat="43.66339" lon="3.40571">
        <ele>223.2</ele>
        <time>2024-08-06T08:40:45Z</time>
      </trkpt>
      <trkpt lat="43.66343" lon="3.40573">
        <ele>223.3</ele>
        <time>2024-08-06T08:40:46Z</time>
      </trkpt>
      <trkpt lat="43.66347" lon="3.40574">
        <ele>223.5</ele>
        <time>2024-08-06T08:40:47Z</time>
      </trkpt>
      <trkpt lat="43.66351" lon="3.40576">
        <ele>223.6</ele>
        <time>2024-08-06T08:40:48Z</time>
      </trkpt>
      <trkpt lat="43.66356" lon="3.40579">
        <ele>223.8</ele>
        <time>2024-08-06T08:40:49Z</time>
      </trkpt>
      <trkpt lat="43.66361" lon="3.40581">
        <ele>224.2</ele>
        <time>2024-08-06T08:40:50Z</time>
      </trkpt>
      <trkpt lat="43.66366" lon="3.40584">
        <ele>223.7</ele>
        <time>2024-08-06T08:40:51Z</time>
      </trkpt>
      <trkpt lat="43.66372" lon="3.40587">
        <ele>222.7</ele>
        <time>2024-08-06T08:40:52Z</time>
      </trkpt>
      <trkpt lat="43.66377" lon="3.4059">
        <ele>221.6</ele>
        <time>2024-08-06T08:40:53Z</time>
      </trkpt>
      <trkpt lat="43.66383" lon="3.40593">
        <ele>220.7</ele>
        <time>2024-08-06T08:40:54Z</time>
      </trkpt>
      <trkpt lat="43.66389" lon="3.40597">
        <ele>219.6</ele>
        <time>2024-08-06T08:40:55Z</time>
      </trkpt>
      <trkpt lat="43.66395" lon="3.40599">
        <ele>218.7</ele>
        <time>2024-08-06T08:40:56Z</time>
      </trkpt>
      <trkpt lat="43.66402" lon="3.40601">
        <ele>217.9</ele>
        <time>2024-08-06T08:40:57Z</time>
      </trkpt>
      <trkpt lat="43.66409" lon="3.40604">
        <ele>216.9</ele>
        <time>2024-08-06T08:40:58Z</time>
      </trkpt>
      <trkpt lat="43.66416" lon="3.40606">
        <ele>216.3</ele>
        <time>2024-08-06T08:40:59Z</time>
      </trkpt>
      <trkpt lat="43.66422" lon="3.40608">
        <ele>215.7</ele>
        <time>2024-08-06T08:41:00Z</time>
      </trkpt>
      <trkpt lat="43.6643" lon="3.40611">
        <ele>215</ele>
        <time>2024-08-06T08:41:01Z</time>
      </trkpt>
      <trkpt lat="43.66437" lon="3.40614">
        <ele>214.3</ele>
        <time>2024-08-06T08:41:02Z</time>
      </trkpt>
      <trkpt lat="43.66445" lon="3.40618">
        <ele>213.7</ele>
        <time>2024-08-06T08:41:03Z</time>
      </trkpt>
      <trkpt lat="43.66453" lon="3.40624">
        <ele>214.5</ele>
        <time>2024-08-06T08:41:04Z</time>
      </trkpt>
      <trkpt lat="43.6646" lon="3.40629">
        <ele>215.3</ele>
        <time>2024-08-06T08:41:05Z</time>
      </trkpt>
      <trkpt lat="43.66467" lon="3.40634">
        <ele>215.9</ele>
        <time>2024-08-06T08:41:06Z</time>
      </trkpt>
      <trkpt lat="43.66474" lon="3.4064">
        <ele>215.6</ele>
        <time>2024-08-06T08:41:07Z</time>
      </trkpt>
      <trkpt lat="43.6648" lon="3.40647">
        <ele>213.1</ele>
        <time>2024-08-06T08:41:08Z</time>
      </trkpt>
      <trkpt lat="43.66486" lon="3.40656">
        <ele>209.7</ele>
        <time>2024-08-06T08:41:09Z</time>
      </trkpt>
      <trkpt lat="43.66492" lon="3.40663">
        <ele>207.2</ele>
        <time>2024-08-06T08:41:10Z</time>
      </trkpt>
      <trkpt lat="43.665" lon="3.40668">
        <ele>205.6</ele>
        <time>2024-08-06T08:41:11Z</time>
      </trkpt>
      <trkpt lat="43.66508" lon="3.40674">
        <ele>203.8</ele>
        <time>2024-08-06T08:41:12Z</time>
      </trkpt>
      <trkpt lat="43.66517" lon="3.40678">
        <ele>202.7</ele>
        <time>2024-08-06T08:41:13Z</time>
      </trkpt>
      <trkpt lat="43.66526" lon="3.40682">
        <ele>201.5</ele>
        <time>2024-08-06T08:41:14Z</time>
      </trkpt>
      <trkpt lat="43.66536" lon="3.40688">
        <ele>201</ele>
        <time>2024-08-06T08:41:15Z</time>
      </trkpt>
      <trkpt lat="43.66546" lon="3.40692">
        <ele>201.3</ele>
        <time>2024-08-06T08:41:16Z</time>
      </trkpt>
      <trkpt lat="43.66556" lon="3.40697">
        <ele>200.9</ele>
        <time>2024-08-06T08:41:17Z</time>
      </trkpt>
      <trkpt lat="43.66566" lon="3.40702">
        <ele>200.5</ele>
        <time>2024-08-06T08:41:18Z</time>
      </trkpt>
      <trkpt lat="43.66577" lon="3.40707">
        <ele>200.1</ele>
        <time>2024-08-06T08:41:19Z</time>
      </trkpt>
      <trkpt lat="43.66588" lon="3.40712">
        <ele>199</ele>
        <time>2024-08-06T08:41:20Z</time>
      </trkpt>
      <trkpt lat="43.66598" lon="3.40717">
        <ele>197.6</ele>
        <time>2024-08-06T08:41:21Z</time>
      </trkpt>
      <trkpt lat="43.66609" lon="3.40722">
        <ele>196.8</ele>
        <time>2024-08-06T08:41:22Z</time>
      </trkpt>
      <trkpt lat="43.66619" lon="3.40727">
        <ele>194</ele>
        <time>2024-08-06T08:41:23Z</time>
      </trkpt>
      <trkpt lat="43.6663" lon="3.40732">
        <ele>190.5</ele>
        <time>2024-08-06T08:41:24Z</time>
      </trkpt>
      <trkpt lat="43.6664" lon="3.40736">
        <ele>187.5</ele>
        <time>2024-08-06T08:41:25Z</time>
      </trkpt>
      <trkpt lat="43.6665" lon="3.40738">
        <ele>185.5</ele>
        <time>2024-08-06T08:41:26Z</time>
      </trkpt>
      <trkpt lat="43.66661" lon="3.40738">
        <ele>184.4</ele>
        <time>2024-08-06T08:41:27Z</time>
      </trkpt>
      <trkpt lat="43.66672" lon="3.40738">
        <ele>184.3</ele>
        <time>2024-08-06T08:41:28Z</time>
      </trkpt>
      <trkpt lat="43.66682" lon="3.40739">
        <ele>184.4</ele>
        <time>2024-08-06T08:41:29Z</time>
      </trkpt>
      <trkpt lat="43.66692" lon="3.40744">
        <ele>182.3</ele>
        <time>2024-08-06T08:41:30Z</time>
      </trkpt>
      <trkpt lat="43.66701" lon="3.40748">
        <ele>182.4</ele>
        <time>2024-08-06T08:41:31Z</time>
      </trkpt>
      <trkpt lat="43.66709" lon="3.40755">
        <ele>182.5</ele>
        <time>2024-08-06T08:41:32Z</time>
      </trkpt>
      <trkpt lat="43.66714" lon="3.40764">
        <ele>181.4</ele>
        <time>2024-08-06T08:41:33Z</time>
      </trkpt>
      <trkpt lat="43.66717" lon="3.40775">
        <ele>178.9</ele>
        <time>2024-08-06T08:41:34Z</time>
      </trkpt>
      <trkpt lat="43.6672" lon="3.40788">
        <ele>176.1</ele>
        <time>2024-08-06T08:41:35Z</time>
      </trkpt>
      <trkpt lat="43.66723" lon="3.40801">
        <ele>173.6</ele>
        <time>2024-08-06T08:41:36Z</time>
      </trkpt>
      <trkpt lat="43.66729" lon="3.40813">
        <ele>171.7</ele>
        <time>2024-08-06T08:41:37Z</time>
      </trkpt>
      <trkpt lat="43.66735" lon="3.40824">
        <ele>169.9</ele>
        <time>2024-08-06T08:41:38Z</time>
      </trkpt>
      <trkpt lat="43.66742" lon="3.40835">
        <ele>168.1</ele>
        <time>2024-08-06T08:41:39Z</time>
      </trkpt>
      <trkpt lat="43.6675" lon="3.40845">
        <ele>166.8</ele>
        <time>2024-08-06T08:41:40Z</time>
      </trkpt>
      <trkpt lat="43.66758" lon="3.40853">
        <ele>165.4</ele>
        <time>2024-08-06T08:41:41Z</time>
      </trkpt>
      <trkpt lat="43.66768" lon="3.40859">
        <ele>165</ele>
        <time>2024-08-06T08:41:42Z</time>
      </trkpt>
      <trkpt lat="43.66778" lon="3.40867">
        <ele>163.7</ele>
        <time>2024-08-06T08:41:43Z</time>
      </trkpt>
      <trkpt lat="43.66788" lon="3.40873">
        <ele>162.2</ele>
        <time>2024-08-06T08:41:44Z</time>
      </trkpt>
      <trkpt lat="43.66798" lon="3.4088">
        <ele>160.2</ele>
        <time>2024-08-06T08:41:45Z</time>
      </trkpt>
      <trkpt lat="43.66809" lon="3.40886">
        <ele>158.5</ele>
        <time>2024-08-06T08:41:46Z</time>
      </trkpt>
      <trkpt lat="43.6682" lon="3.4089">
        <ele>157.6</ele>
        <time>2024-08-06T08:41:47Z</time>
      </trkpt>
      <trkpt lat="43.66832" lon="3.40895">
        <ele>156.7</ele>
        <time>2024-08-06T08:41:48Z</time>
      </trkpt>
      <trkpt lat="43.66843" lon="3.409">
        <ele>155.5</ele>
        <time>2024-08-06T08:41:49Z</time>
      </trkpt>
      <trkpt lat="43.66855" lon="3.40905">
        <ele>154.4</ele>
        <time>2024-08-06T08:41:50Z</time>
      </trkpt>
      <trkpt lat="43.66866" lon="3.40909">
        <ele>153.5</ele>
        <time>2024-08-06T08:41:51Z</time>
      </trkpt>
      <trkpt lat="43.66877" lon="3.40915">
        <ele>151.5</ele>
        <time>2024-08-06T08:41:52Z</time>
      </trkpt>
      <trkpt lat="43.66887" lon="3.40921">
        <ele>149.9</ele>
        <time>2024-08-06T08:41:53Z</time>
      </trkpt>
      <trkpt lat="43.66897" lon="3.40927">
        <ele>148.3</ele>
        <time>2024-08-06T08:41:54Z</time>
      </trkpt>
      <trkpt lat="43.66906" lon="3.40933">
        <ele>147</ele>
        <time>2024-08-06T08:41:55Z</time>
      </trkpt>
      <trkpt lat="43.66914" lon="3.40938">
        <ele>146.1</ele>
        <time>2024-08-06T08:41:56Z</time>
      </trkpt>
      <trkpt lat="43.66922" lon="3.40946">
        <ele>144.4</ele>
        <time>2024-08-06T08:41:57Z</time>
      </trkpt>
      <trkpt lat="43.66928" lon="3.40954">
        <ele>143.6</ele>
        <time>2024-08-06T08:41:58Z</time>
      </trkpt>
      <trkpt lat="43.66933" lon="3.40963">
        <ele>143</ele>
        <time>2024-08-06T08:41:59Z</time>
      </trkpt>
      <trkpt lat="43.66938" lon="3.40972">
        <ele>142.5</ele>
        <time>2024-08-06T08:42:00Z</time>
      </trkpt>
      <trkpt lat="43.66941" lon="3.4098">
        <ele>142.4</ele>
        <time>2024-08-06T08:42:01Z</time>
      </trkpt>
      <trkpt lat="43.66942" lon="3.40988">
        <ele>142.6</ele>
        <time>2024-08-06T08:42:02Z</time>
      </trkpt>
      <trkpt lat="43.66941" lon="3.40995">
        <ele>142.8</ele>
        <time>2024-08-06T08:42:03Z</time>
      </trkpt>
      <trkpt lat="43.6694" lon="3.41003">
        <ele>142.6</ele>
        <time>2024-08-06T08:42:04Z</time>
      </trkpt>
      <trkpt lat="43.66938" lon="3.4101">
        <ele>141.9</ele>
        <time>2024-08-06T08:42:05Z</time>
      </trkpt>
      <trkpt lat="43.66936" lon="3.41018">
        <ele>141.1</ele>
        <time>2024-08-06T08:42:06Z</time>
      </trkpt>
      <trkpt lat="43.66933" lon="3.41027">
        <ele>140.5</ele>
        <time>2024-08-06T08:42:07Z</time>
      </trkpt>
      <trkpt lat="43.66929" lon="3.41034">
        <ele>139.8</ele>
        <time>2024-08-06T08:42:08Z</time>
      </trkpt>
      <trkpt lat="43.66923" lon="3.41038">
        <ele>139.4</ele>
        <time>2024-08-06T08:42:09Z</time>
      </trkpt>
      <trkpt lat="43.66918" lon="3.41036">
        <ele>139.8</ele>
        <time>2024-08-06T08:42:10Z</time>
      </trkpt>
      <trkpt lat="43.66914" lon="3.41031">
        <ele>139.7</ele>
        <time>2024-08-06T08:42:11Z</time>
      </trkpt>
      <trkpt lat="43.66911" lon="3.41025">
        <ele>139.3</ele>
        <time>2024-08-06T08:42:12Z</time>
      </trkpt>
      <trkpt lat="43.66909" lon="3.41017">
        <ele>139.1</ele>
        <time>2024-08-06T08:42:13Z</time>
      </trkpt>
      <trkpt lat="43.66906" lon="3.41009">
        <ele>138.7</ele>
        <time>2024-08-06T08:42:14Z</time>
      </trkpt>
      <trkpt lat="43.66903" lon="3.41002">
        <ele>138.4</ele>
        <time>2024-08-06T08:42:15Z</time>
      </trkpt>
      <trkpt lat="43.66899" lon="3.40994">
        <ele>138.3</ele>
        <time>2024-08-06T08:42:16Z</time>
      </trkpt>
      <trkpt lat="43.66895" lon="3.40986">
        <ele>138.3</ele>
        <time>2024-08-06T08:42:17Z</time>
      </trkpt>
      <trkpt lat="43.66889" lon="3.4098">
        <ele>137.9</ele>
        <time>2024-08-06T08:42:18Z</time>
      </trkpt>
      <trkpt lat="43.66883" lon="3.40974">
        <ele>137.9</ele>
        <time>2024-08-06T08:42:19Z</time>
      </trkpt>
      <trkpt lat="43.66876" lon="3.4097">
        <ele>137.6</ele>
        <time>2024-08-06T08:42:20Z</time>
      </trkpt>
      <trkpt lat="43.66869" lon="3.40967">
        <ele>137.3</ele>
        <time>2024-08-06T08:42:21Z</time>
      </trkpt>
      <trkpt lat="43.66862" lon="3.40963">
        <ele>137.4</ele>
        <time>2024-08-06T08:42:22Z</time>
      </trkpt>
      <trkpt lat="43.66855" lon="3.40961">
        <ele>137</ele>
        <time>2024-08-06T08:42:23Z</time>
      </trkpt>
      <trkpt lat="43.66849" lon="3.40959">
        <ele>136.8</ele>
        <time>2024-08-06T08:42:24Z</time>
      </trkpt>
      <trkpt lat="43.66843" lon="3.40957">
        <ele>136.6</ele>
        <time>2024-08-06T08:42:25Z</time>
      </trkpt>
      <trkpt lat="43.66836" lon="3.40955">
        <ele>136.3</ele>
        <time>2024-08-06T08:42:26Z</time>
      </trkpt>
      <trkpt lat="43.66829" lon="3.40954">
        <ele>135.5</ele>
        <time>2024-08-06T08:42:27Z</time>
      </trkpt>
      <trkpt lat="43.66822" lon="3.40953">
        <ele>134.7</ele>
        <time>2024-08-06T08:42:28Z</time>
      </trkpt>
      <trkpt lat="43.66815" lon="3.40953">
        <ele>133.5</ele>
        <time>2024-08-06T08:42:29Z</time>
      </trkpt>
      <trkpt lat="43.66808" lon="3.40952">
        <ele>132.7</ele>
        <time>2024-08-06T08:42:30Z</time>
      </trkpt>
      <trkpt lat="43.66801" lon="3.40952">
        <ele>131.7</ele>
        <time>2024-08-06T08:42:31Z</time>
      </trkpt>
      <trkpt lat="43.66794" lon="3.40951">
        <ele>131.3</ele>
        <time>2024-08-06T08:42:32Z</time>
      </trkpt>
      <trkpt lat="43.66786" lon="3.40948">
        <ele>131.5</ele>
        <time>2024-08-06T08:42:33Z</time>
      </trkpt>
      <trkpt lat="43.66779" lon="3.40946">
        <ele>131.5</ele>
        <time>2024-08-06T08:42:34Z</time>
      </trkpt>
      <trkpt lat="43.6677" lon="3.40943">
        <ele>130.6</ele>
        <time>2024-08-06T08:42:35Z</time>
      </trkpt>
      <trkpt lat="43.66762" lon="3.40941">
        <ele>129.4</ele>
        <time>2024-08-06T08:42:36Z</time>
      </trkpt>
      <trkpt lat="43.66754" lon="3.40939">
        <ele>128.2</ele>
        <time>2024-08-06T08:42:37Z</time>
      </trkpt>
      <trkpt lat="43.66745" lon="3.40937">
        <ele>127</ele>
        <time>2024-08-06T08:42:38Z</time>
      </trkpt>
      <trkpt lat="43.66737" lon="3.40936">
        <ele>126</ele>
        <time>2024-08-06T08:42:39Z</time>
      </trkpt>
      <trkpt lat="43.66729" lon="3.40935">
        <ele>125</ele>
        <time>2024-08-06T08:42:40Z</time>
      </trkpt>
      <trkpt lat="43.66721" lon="3.40934">
        <ele>124.1</ele>
        <time>2024-08-06T08:42:41Z</time>
      </trkpt>
      <trkpt lat="43.66714" lon="3.40933">
        <ele>123.9</ele>
        <time>2024-08-06T08:42:42Z</time>
      </trkpt>
      <trkpt lat="43.66708" lon="3.40933">
        <ele>123.3</ele>
        <time>2024-08-06T08:42:43Z</time>
      </trkpt>
      <trkpt lat="43.66704" lon="3.40933">
        <ele>122.9</ele>
        <time>2024-08-06T08:42:44Z</time>
      </trkpt>
      <trkpt lat="43.667" lon="3.40933">
        <ele>122.5</ele>
        <time>2024-08-06T08:42:45Z</time>
      </trkpt>
      <trkpt lat="43.66697" lon="3.40933">
        <ele>122.2</ele>
        <time>2024-08-06T08:42:46Z</time>
      </trkpt>
      <trkpt lat="43.66694" lon="3.40933">
        <ele>121.9</ele>
        <time>2024-08-06T08:42:47Z</time>
      </trkpt>
      <trkpt lat="43.66691" lon="3.40932">
        <ele>122.1</ele>
        <time>2024-08-06T08:42:48Z</time>
      </trkpt>
      <trkpt lat="43.66687" lon="3.40931">
        <ele>122.3</ele>
        <time>2024-08-06T08:42:49Z</time>
      </trkpt>
      <trkpt lat="43.66683" lon="3.40929">
        <ele>122.8</ele>
        <time>2024-08-06T08:42:50Z</time>
      </trkpt>
      <trkpt lat="43.66678" lon="3.40928">
        <ele>122.9</ele>
        <time>2024-08-06T08:42:51Z</time>
      </trkpt>
      <trkpt lat="43.66673" lon="3.40926">
        <ele>123.4</ele>
        <time>2024-08-06T08:42:52Z</time>
      </trkpt>
      <trkpt lat="43.66669" lon="3.40925">
        <ele>123.6</ele>
        <time>2024-08-06T08:42:53Z</time>
      </trkpt>
      <trkpt lat="43.66665" lon="3.40923">
        <ele>124.1</ele>
        <time>2024-08-06T08:42:54Z</time>
      </trkpt>
      <trkpt lat="43.66663" lon="3.40922">
        <ele>124.4</ele>
        <time>2024-08-06T08:42:55Z</time>
      </trkpt>
      <trkpt lat="43.66661" lon="3.40921">
        <ele>124.6</ele>
        <time>2024-08-06T08:42:56Z</time>
      </trkpt>
      <trkpt lat="43.66659" lon="3.40919">
        <ele>125.2</ele>
        <time>2024-08-06T08:42:57Z</time>
      </trkpt>
      <trkpt lat="43.66656" lon="3.40917">
        <ele>125.7</ele>
        <time>2024-08-06T08:42:58Z</time>
      </trkpt>
      <trkpt lat="43.66653" lon="3.40915">
        <ele>126.1</ele>
        <time>2024-08-06T08:42:59Z</time>
      </trkpt>
      <trkpt lat="43.66651" lon="3.40914">
        <ele>126.2</ele>
        <time>2024-08-06T08:43:00Z</time>
      </trkpt>
      <trkpt lat="43.66648" lon="3.40913">
        <ele>126.2</ele>
        <time>2024-08-06T08:43:01Z</time>
      </trkpt>
      <trkpt lat="43.66646" lon="3.40911">
        <ele>126.6</ele>
        <time>2024-08-06T08:43:02Z</time>
      </trkpt>
      <trkpt lat="43.66643" lon="3.40909">
        <ele>126.9</ele>
        <time>2024-08-06T08:43:03Z</time>
      </trkpt>
      <trkpt lat="43.66641" lon="3.40909">
        <ele>126.7</ele>
        <time>2024-08-06T08:43:04Z</time>
      </trkpt>
      <trkpt lat="43.66638" lon="3.40908">
        <ele>126.6</ele>
        <time>2024-08-06T08:43:05Z</time>
      </trkpt>
      <trkpt lat="43.66636" lon="3.40909">
        <ele>125.9</ele>
        <time>2024-08-06T08:43:06Z</time>
      </trkpt>
      <trkpt lat="43.66634" lon="3.40909">
        <ele>125.6</ele>
        <time>2024-08-06T08:43:07Z</time>
      </trkpt>
      <trkpt lat="43.66632" lon="3.4091">
        <ele>124.9</ele>
        <time>2024-08-06T08:43:08Z</time>
      </trkpt>
      <trkpt lat="43.66629" lon="3.40911">
        <ele>124</ele>
        <time>2024-08-06T08:43:09Z</time>
      </trkpt>
      <trkpt lat="43.66625" lon="3.40912">
        <ele>122.9</ele>
        <time>2024-08-06T08:43:10Z</time>
      </trkpt>
      <trkpt lat="43.6662" lon="3.40913">
        <ele>121.7</ele>
        <time>2024-08-06T08:43:11Z</time>
      </trkpt>
      <trkpt lat="43.66615" lon="3.40914">
        <ele>120.5</ele>
        <time>2024-08-06T08:43:12Z</time>
      </trkpt>
      <trkpt lat="43.66609" lon="3.40914">
        <ele>119.5</ele>
        <time>2024-08-06T08:43:13Z</time>
      </trkpt>
      <trkpt lat="43.66604" lon="3.40914">
        <ele>119</ele>
        <time>2024-08-06T08:43:14Z</time>
      </trkpt>
      <trkpt lat="43.66598" lon="3.40914">
        <ele>118.4</ele>
        <time>2024-08-06T08:43:15Z</time>
      </trkpt>
      <trkpt lat="43.66593" lon="3.40913">
        <ele>118.1</ele>
        <time>2024-08-06T08:43:16Z</time>
      </trkpt>
      <trkpt lat="43.66589" lon="3.40912">
        <ele>118</ele>
        <time>2024-08-06T08:43:17Z</time>
      </trkpt>
      <trkpt lat="43.66585" lon="3.40911">
        <ele>117.8</ele>
        <time>2024-08-06T08:43:18Z</time>
      </trkpt>
      <trkpt lat="43.66583" lon="3.40911">
        <ele>117.6</ele>
        <time>2024-08-06T08:43:19Z</time>
      </trkpt>
      <trkpt lat="43.66581" lon="3.40911">
        <ele>117.6</ele>
        <time>2024-08-06T08:43:20Z</time>
      </trkpt>
      <trkpt lat="43.66579" lon="3.40911">
        <ele>117.5</ele>
        <time>2024-08-06T08:43:21Z</time>
      </trkpt>
      <trkpt lat="43.66578" lon="3.40911">
        <ele>117.5</ele>
        <time>2024-08-06T08:43:22Z</time>
      </trkpt>
      <trkpt lat="43.66577" lon="3.4091">
        <ele>117.7</ele>
        <time>2024-08-06T08:43:23Z</time>
      </trkpt>
      <trkpt lat="43.66576" lon="3.40911">
        <ele>117.4</ele>
        <time>2024-08-06T08:43:24Z</time>
      </trkpt>
      <trkpt lat="43.66575" lon="3.40912">
        <ele>117.1</ele>
        <time>2024-08-06T08:43:25Z</time>
      </trkpt>
      <trkpt lat="43.66575" lon="3.40913">
        <ele>116.8</ele>
        <time>2024-08-06T08:43:26Z</time>
      </trkpt>
      <trkpt lat="43.66574" lon="3.40914">
        <ele>116.5</ele>
        <time>2024-08-06T08:43:27Z</time>
      </trkpt>
      <trkpt lat="43.66574" lon="3.40915">
        <ele>116.2</ele>
        <time>2024-08-06T08:43:28Z</time>
      </trkpt>
      <trkpt lat="43.66575" lon="3.40916">
        <ele>115.9</ele>
        <time>2024-08-06T08:43:29Z</time>
      </trkpt>
      <trkpt lat="43.66575" lon="3.40917">
        <ele>115.6</ele>
        <time>2024-08-06T08:43:30Z</time>
      </trkpt>
      <trkpt lat="43.66575" lon="3.4092">
        <ele>114.6</ele>
        <time>2024-08-06T08:43:31Z</time>
      </trkpt>
      <trkpt lat="43.66576" lon="3.40923">
        <ele>113.7</ele>
        <time>2024-08-06T08:43:32Z</time>
      </trkpt>
      <trkpt lat="43.66576" lon="3.40926">
        <ele>112.7</ele>
        <time>2024-08-06T08:43:33Z</time>
      </trkpt>
      <trkpt lat="43.66576" lon="3.40928">
        <ele>112.1</ele>
        <time>2024-08-06T08:43:34Z</time>
      </trkpt>
      <trkpt lat="43.66575" lon="3.4093">
        <ele>111.4</ele>
        <time>2024-08-06T08:43:35Z</time>
      </trkpt>
      <trkpt lat="43.66574" lon="3.40933">
        <ele>110.4</ele>
        <time>2024-08-06T08:43:36Z</time>
      </trkpt>
      <trkpt lat="43.66573" lon="3.40935">
        <ele>109.7</ele>
        <time>2024-08-06T08:43:37Z</time>
      </trkpt>
      <trkpt lat="43.66571" lon="3.40937">
        <ele>109</ele>
        <time>2024-08-06T08:43:38Z</time>
      </trkpt>
      <trkpt lat="43.66569" lon="3.40937">
        <ele>108.9</ele>
        <time>2024-08-06T08:43:39Z</time>
      </trkpt>
      <trkpt lat="43.66567" lon="3.40938">
        <ele>108.5</ele>
        <time>2024-08-06T08:43:40Z</time>
      </trkpt>
      <trkpt lat="43.66566" lon="3.40938">
        <ele>108.5</ele>
        <time>2024-08-06T08:43:41Z</time>
      </trkpt>
      <trkpt lat="43.66564" lon="3.40938">
        <ele>108.4</ele>
        <time>2024-08-06T08:43:42Z</time>
      </trkpt>
      <trkpt lat="43.66561" lon="3.40938">
        <ele>108.3</ele>
        <time>2024-08-06T08:43:43Z</time>
      </trkpt>
      <trkpt lat="43.66559" lon="3.40939">
        <ele>107.9</ele>
        <time>2024-08-06T08:43:44Z</time>
      </trkpt>
      <trkpt lat="43.66557" lon="3.40938">
        <ele>108.1</ele>
        <time>2024-08-06T08:43:45Z</time>
      </trkpt>
      <trkpt lat="43.66555" lon="3.40937">
        <ele>108.4</ele>
        <time>2024-08-06T08:43:46Z</time>
      </trkpt>
      <trkpt lat="43.66552" lon="3.40937">
        <ele>108.4</ele>
        <time>2024-08-06T08:43:47Z</time>
      </trkpt>
      <trkpt lat="43.6655" lon="3.40938">
        <ele>108</ele>
        <time>2024-08-06T08:43:48Z</time>
      </trkpt>
      <trkpt lat="43.66549" lon="3.40939">
        <ele>107.6</ele>
        <time>2024-08-06T08:43:49Z</time>
      </trkpt>
      <trkpt lat="43.66548" lon="3.40939">
        <ele>107.6</ele>
        <time>2024-08-06T08:43:50Z</time>
      </trkpt>
      <trkpt lat="43.66547" lon="3.4094">
        <ele>107.2</ele>
        <time>2024-08-06T08:43:51Z</time>
      </trkpt>
      <trkpt lat="43.66547" lon="3.4094">
        <ele>107.2</ele>
        <time>2024-08-06T08:43:52Z</time>
      </trkpt>
      <trkpt lat="43.66545" lon="3.4094">
        <ele>107.2</ele>
        <time>2024-08-06T08:43:53Z</time>
      </trkpt>
      <trkpt lat="43.66542" lon="3.40941">
        <ele>106.7</ele>
        <time>2024-08-06T08:43:54Z</time>
      </trkpt>
      <trkpt lat="43.66539" lon="3.40942">
        <ele>106.3</ele>
        <time>2024-08-06T08:43:55Z</time>
      </trkpt>
      <trkpt lat="43.66536" lon="3.40944">
        <ele>105.5</ele>
        <time>2024-08-06T08:43:56Z</time>
      </trkpt>
      <trkpt lat="43.66534" lon="3.40945">
        <ele>105.1</ele>
        <time>2024-08-06T08:43:57Z</time>
      </trkpt>
      <trkpt lat="43.66531" lon="3.40945">
        <ele>105</ele>
        <time>2024-08-06T08:43:58Z</time>
      </trkpt>
      <trkpt lat="43.66529" lon="3.40946">
        <ele>104.8</ele>
        <time>2024-08-06T08:43:59Z</time>
      </trkpt>
      <trkpt lat="43.66527" lon="3.40947">
        <ele>104.5</ele>
        <time>2024-08-06T08:44:00Z</time>
      </trkpt>
      <trkpt lat="43.66525" lon="3.40948">
        <ele>104.3</ele>
        <time>2024-08-06T08:44:01Z</time>
      </trkpt>
      <trkpt lat="43.66522" lon="3.40948">
        <ele>104.2</ele>
        <time>2024-08-06T08:44:02Z</time>
      </trkpt>
      <trkpt lat="43.6652" lon="3.40948">
        <ele>104.1</ele>
        <time>2024-08-06T08:44:03Z</time>
      </trkpt>
      <trkpt lat="43.66518" lon="3.40947">
        <ele>104.2</ele>
        <time>2024-08-06T08:44:04Z</time>
      </trkpt>
      <trkpt lat="43.66515" lon="3.40946">
        <ele>104.3</ele>
        <time>2024-08-06T08:44:05Z</time>
      </trkpt>
      <trkpt lat="43.66513" lon="3.40946">
        <ele>104.2</ele>
        <time>2024-08-06T08:44:06Z</time>
      </trkpt>
      <trkpt lat="43.6651" lon="3.40946">
        <ele>104.1</ele>
        <time>2024-08-06T08:44:07Z</time>
      </trkpt>
      <trkpt lat="43.66506" lon="3.40945">
        <ele>104.1</ele>
        <time>2024-08-06T08:44:08Z</time>
      </trkpt>
      <trkpt lat="43.66503" lon="3.40944">
        <ele>104.3</ele>
        <time>2024-08-06T08:44:09Z</time>
      </trkpt>
      <trkpt lat="43.66499" lon="3.40944">
        <ele>104.1</ele>
        <time>2024-08-06T08:44:10Z</time>
      </trkpt>
      <trkpt lat="43.66495" lon="3.40943">
        <ele>104.3</ele>
        <time>2024-08-06T08:44:11Z</time>
      </trkpt>
      <trkpt lat="43.66491" lon="3.40943">
        <ele>104.1</ele>
        <time>2024-08-06T08:44:12Z</time>
      </trkpt>
      <trkpt lat="43.66486" lon="3.40942">
        <ele>104.2</ele>
        <time>2024-08-06T08:44:13Z</time>
      </trkpt>
      <trkpt lat="43.66482" lon="3.40942">
        <ele>104</ele>
        <time>2024-08-06T08:44:14Z</time>
      </trkpt>
      <trkpt lat="43.66477" lon="3.40941">
        <ele>104</ele>
        <time>2024-08-06T08:44:15Z</time>
      </trkpt>
      <trkpt lat="43.66473" lon="3.40941">
        <ele>103.8</ele>
        <time>2024-08-06T08:44:16Z</time>
      </trkpt>
      <trkpt lat="43.66469" lon="3.4094">
        <ele>103.8</ele>
        <time>2024-08-06T08:44:17Z</time>
      </trkpt>
      <trkpt lat="43.66466" lon="3.40939">
        <ele>104</ele>
        <time>2024-08-06T08:44:18Z</time>
      </trkpt>
      <trkpt lat="43.66462" lon="3.40938">
        <ele>104</ele>
        <time>2024-08-06T08:44:19Z</time>
      </trkpt>
      <trkpt lat="43.66458" lon="3.40937">
        <ele>104.1</ele>
        <time>2024-08-06T08:44:20Z</time>
      </trkpt>
      <trkpt lat="43.66454" lon="3.40936">
        <ele>104.2</ele>
        <time>2024-08-06T08:44:21Z</time>
      </trkpt>
      <trkpt lat="43.66449" lon="3.40936">
        <ele>104</ele>
        <time>2024-08-06T08:44:22Z</time>
      </trkpt>
      <trkpt lat="43.66445" lon="3.40937">
        <ele>103.6</ele>
        <time>2024-08-06T08:44:23Z</time>
      </trkpt>
      <trkpt lat="43.66441" lon="3.40939">
        <ele>103.3</ele>
        <time>2024-08-06T08:44:24Z</time>
      </trkpt>
      <trkpt lat="43.66437" lon="3.40941">
        <ele>103</ele>
        <time>2024-08-06T08:44:25Z</time>
      </trkpt>
      <trkpt lat="43.66432" lon="3.40944">
        <ele>102.5</ele>
        <time>2024-08-06T08:44:26Z</time>
      </trkpt>
      <trkpt lat="43.66427" lon="3.40947">
        <ele>102.3</ele>
        <time>2024-08-06T08:44:27Z</time>
      </trkpt>
      <trkpt lat="43.66422" lon="3.40949">
        <ele>102.2</ele>
        <time>2024-08-06T08:44:28Z</time>
      </trkpt>
      <trkpt lat="43.66416" lon="3.40952">
        <ele>101.9</ele>
        <time>2024-08-06T08:44:29Z</time>
      </trkpt>
      <trkpt lat="43.66409" lon="3.40954">
        <ele>101.5</ele>
        <time>2024-08-06T08:44:30Z</time>
      </trkpt>
      <trkpt lat="43.66403" lon="3.40957">
        <ele>101</ele>
        <time>2024-08-06T08:44:31Z</time>
      </trkpt>
      <trkpt lat="43.66395" lon="3.4096">
        <ele>100.3</ele>
        <time>2024-08-06T08:44:32Z</time>
      </trkpt>
      <trkpt lat="43.66388" lon="3.40963">
        <ele>99.7</ele>
        <time>2024-08-06T08:44:33Z</time>
      </trkpt>
      <trkpt lat="43.6638" lon="3.40965">
        <ele>99.5</ele>
        <time>2024-08-06T08:44:34Z</time>
      </trkpt>
      <trkpt lat="43.66372" lon="3.40968">
        <ele>98.9</ele>
        <time>2024-08-06T08:44:35Z</time>
      </trkpt>
      <trkpt lat="43.66363" lon="3.40971">
        <ele>98.3</ele>
        <time>2024-08-06T08:44:36Z</time>
      </trkpt>
      <trkpt lat="43.66354" lon="3.40974">
        <ele>98.2</ele>
        <time>2024-08-06T08:44:37Z</time>
      </trkpt>
      <trkpt lat="43.66346" lon="3.40977">
        <ele>98.3</ele>
        <time>2024-08-06T08:44:38Z</time>
      </trkpt>
      <trkpt lat="43.66338" lon="3.4098">
        <ele>98.3</ele>
        <time>2024-08-06T08:44:39Z</time>
      </trkpt>
      <trkpt lat="43.66329" lon="3.40983">
        <ele>98.4</ele>
        <time>2024-08-06T08:44:40Z</time>
      </trkpt>
      <trkpt lat="43.66322" lon="3.40986">
        <ele>98.3</ele>
        <time>2024-08-06T08:44:41Z</time>
      </trkpt>
      <trkpt lat="43.66314" lon="3.40989">
        <ele>98.4</ele>
        <time>2024-08-06T08:44:42Z</time>
      </trkpt>
      <trkpt lat="43.66306" lon="3.40991">
        <ele>98.6</ele>
        <time>2024-08-06T08:44:43Z</time>
      </trkpt>
      <trkpt lat="43.66299" lon="3.40994">
        <ele>98.8</ele>
        <time>2024-08-06T08:44:44Z</time>
      </trkpt>
      <trkpt lat="43.66292" lon="3.40998">
        <ele>98.8</ele>
        <time>2024-08-06T08:44:45Z</time>
      </trkpt>
      <trkpt lat="43.66287" lon="3.41003">
        <ele>98.8</ele>
        <time>2024-08-06T08:44:46Z</time>
      </trkpt>
      <trkpt lat="43.66282" lon="3.41008">
        <ele>99</ele>
        <time>2024-08-06T08:44:47Z</time>
      </trkpt>
      <trkpt lat="43.66277" lon="3.41013">
        <ele>99.2</ele>
        <time>2024-08-06T08:44:48Z</time>
      </trkpt>
      <trkpt lat="43.66273" lon="3.41018">
        <ele>99.4</ele>
        <time>2024-08-06T08:44:49Z</time>
      </trkpt>
      <trkpt lat="43.6627" lon="3.41023">
        <ele>99.5</ele>
        <time>2024-08-06T08:44:50Z</time>
      </trkpt>
      <trkpt lat="43.66267" lon="3.41028">
        <ele>99.5</ele>
        <time>2024-08-06T08:44:51Z</time>
      </trkpt>
      <trkpt lat="43.66264" lon="3.41032">
        <ele>99.8</ele>
        <time>2024-08-06T08:44:52Z</time>
      </trkpt>
      <trkpt lat="43.66261" lon="3.41036">
        <ele>99.9</ele>
        <time>2024-08-06T08:44:53Z</time>
      </trkpt>
      <trkpt lat="43.66258" lon="3.4104">
        <ele>100.1</ele>
        <time>2024-08-06T08:44:54Z</time>
      </trkpt>
      <trkpt lat="43.66255" lon="3.41044">
        <ele>100.2</ele>
        <time>2024-08-06T08:44:55Z</time>
      </trkpt>
      <trkpt lat="43.66252" lon="3.41048">
        <ele>100.3</ele>
        <time>2024-08-06T08:44:56Z</time>
      </trkpt>
      <trkpt lat="43.66249" lon="3.41051">
        <ele>100.4</ele>
        <time>2024-08-06T08:44:57Z</time>
      </trkpt>
      <trkpt lat="43.66245" lon="3.41055">
        <ele>100.2</ele>
        <time>2024-08-06T08:44:58Z</time>
      </trkpt>
      <trkpt lat="43.6624" lon="3.41058">
        <ele>100.1</ele>
        <time>2024-08-06T08:44:59Z</time>
      </trkpt>
      <trkpt lat="43.66236" lon="3.41061">
        <ele>99.8</ele>
        <time>2024-08-06T08:45:00Z</time>
      </trkpt>
      <trkpt lat="43.6623" lon="3.41064">
        <ele>99.6</ele>
        <time>2024-08-06T08:45:01Z</time>
      </trkpt>
      <trkpt lat="43.66224" lon="3.41065">
        <ele>99.6</ele>
        <time>2024-08-06T08:45:02Z</time>
      </trkpt>
      <trkpt lat="43.66219" lon="3.41066">
        <ele>99.5</ele>
        <time>2024-08-06T08:45:03Z</time>
      </trkpt>
      <trkpt lat="43.66213" lon="3.41066">
        <ele>99.4</ele>
        <time>2024-08-06T08:45:04Z</time>
      </trkpt>
      <trkpt lat="43.66209" lon="3.41066">
        <ele>99.3</ele>
        <time>2024-08-06T08:45:05Z</time>
      </trkpt>
      <trkpt lat="43.66204" lon="3.41065">
        <ele>99.4</ele>
        <time>2024-08-06T08:45:06Z</time>
      </trkpt>
      <trkpt lat="43.662" lon="3.41063">
        <ele>99.7</ele>
        <time>2024-08-06T08:45:07Z</time>
      </trkpt>
      <trkpt lat="43.66195" lon="3.41061">
        <ele>100</ele>
        <time>2024-08-06T08:45:08Z</time>
      </trkpt>
      <trkpt lat="43.66191" lon="3.41058">
        <ele>100.1</ele>
        <time>2024-08-06T08:45:09Z</time>
      </trkpt>
      <trkpt lat="43.66186" lon="3.41055">
        <ele>99.9</ele>
        <time>2024-08-06T08:45:10Z</time>
      </trkpt>
      <trkpt lat="43.66181" lon="3.41051">
        <ele>99.8</ele>
        <time>2024-08-06T08:45:11Z</time>
      </trkpt>
      <trkpt lat="43.66176" lon="3.41048">
        <ele>99.6</ele>
        <time>2024-08-06T08:45:12Z</time>
      </trkpt>
      <trkpt lat="43.66171" lon="3.41043">
        <ele>99.8</ele>
        <time>2024-08-06T08:45:13Z</time>
      </trkpt>
      <trkpt lat="43.66165" lon="3.4104">
        <ele>99.7</ele>
        <time>2024-08-06T08:45:14Z</time>
      </trkpt>
      <trkpt lat="43.6616" lon="3.41036">
        <ele>100.1</ele>
        <time>2024-08-06T08:45:15Z</time>
      </trkpt>
      <trkpt lat="43.66154" lon="3.41033">
        <ele>100.2</ele>
        <time>2024-08-06T08:45:16Z</time>
      </trkpt>
      <trkpt lat="43.66149" lon="3.41031">
        <ele>100.2</ele>
        <time>2024-08-06T08:45:17Z</time>
      </trkpt>
      <trkpt lat="43.66144" lon="3.41028">
        <ele>100.3</ele>
        <time>2024-08-06T08:45:18Z</time>
      </trkpt>
      <trkpt lat="43.66139" lon="3.41026">
        <ele>100.3</ele>
        <time>2024-08-06T08:45:19Z</time>
      </trkpt>
      <trkpt lat="43.66134" lon="3.41023">
        <ele>100.8</ele>
        <time>2024-08-06T08:45:20Z</time>
      </trkpt>
      <trkpt lat="43.66129" lon="3.41021">
        <ele>101</ele>
        <time>2024-08-06T08:45:21Z</time>
      </trkpt>
      <trkpt lat="43.66125" lon="3.41019">
        <ele>101.3</ele>
        <time>2024-08-06T08:45:22Z</time>
      </trkpt>
      <trkpt lat="43.66121" lon="3.41017">
        <ele>101.4</ele>
        <time>2024-08-06T08:45:23Z</time>
      </trkpt>
      <trkpt lat="43.66117" lon="3.41015">
        <ele>101.6</ele>
        <time>2024-08-06T08:45:24Z</time>
      </trkpt>
      <trkpt lat="43.66112" lon="3.41012">
        <ele>101.7</ele>
        <time>2024-08-06T08:45:25Z</time>
      </trkpt>
      <trkpt lat="43.66107" lon="3.41009">
        <ele>101.7</ele>
        <time>2024-08-06T08:45:26Z</time>
      </trkpt>
      <trkpt lat="43.66103" lon="3.41005">
        <ele>101.9</ele>
        <time>2024-08-06T08:45:27Z</time>
      </trkpt>
      <trkpt lat="43.66098" lon="3.41001">
        <ele>101.9</ele>
        <time>2024-08-06T08:45:28Z</time>
      </trkpt>
      <trkpt lat="43.66094" lon="3.40998">
        <ele>101.9</ele>
        <time>2024-08-06T08:45:29Z</time>
      </trkpt>
      <trkpt lat="43.66089" lon="3.40994">
        <ele>101.8</ele>
        <time>2024-08-06T08:45:30Z</time>
      </trkpt>
      <trkpt lat="43.66083" lon="3.40991">
        <ele>101.3</ele>
        <time>2024-08-06T08:45:31Z</time>
      </trkpt>
      <trkpt lat="43.66078" lon="3.40987">
        <ele>101.5</ele>
        <time>2024-08-06T08:45:32Z</time>
      </trkpt>
      <trkpt lat="43.66072" lon="3.40984">
        <ele>101.6</ele>
        <time>2024-08-06T08:45:33Z</time>
      </trkpt>
      <trkpt lat="43.66067" lon="3.40983">
        <ele>101.7</ele>
        <time>2024-08-06T08:45:34Z</time>
      </trkpt>
      <trkpt lat="43.66062" lon="3.40983">
        <ele>101.8</ele>
        <time>2024-08-06T08:45:35Z</time>
      </trkpt>
      <trkpt lat="43.66058" lon="3.40983">
        <ele>101.8</ele>
        <time>2024-08-06T08:45:36Z</time>
      </trkpt>
      <trkpt lat="43.66055" lon="3.40984">
        <ele>101.7</ele>
        <time>2024-08-06T08:45:37Z</time>
      </trkpt>
      <trkpt lat="43.66052" lon="3.40984">
        <ele>101.5</ele>
        <time>2024-08-06T08:45:38Z</time>
      </trkpt>
      <trkpt lat="43.66049" lon="3.40985">
        <ele>101.2</ele>
        <time>2024-08-06T08:45:39Z</time>
      </trkpt>
      <trkpt lat="43.66046" lon="3.40985">
        <ele>101</ele>
        <time>2024-08-06T08:45:40Z</time>
      </trkpt>
      <trkpt lat="43.66044" lon="3.40985">
        <ele>100.9</ele>
        <time>2024-08-06T08:45:41Z</time>
      </trkpt>
      <trkpt lat="43.66043" lon="3.40986">
        <ele>100.6</ele>
        <time>2024-08-06T08:45:42Z</time>
      </trkpt>
      <trkpt lat="43.66041" lon="3.40986">
        <ele>100.5</ele>
        <time>2024-08-06T08:45:43Z</time>
      </trkpt>
      <trkpt lat="43.66039" lon="3.40986">
        <ele>100.3</ele>
        <time>2024-08-06T08:45:44Z</time>
      </trkpt>
      <trkpt lat="43.66036" lon="3.40986">
        <ele>100.1</ele>
        <time>2024-08-06T08:45:45Z</time>
      </trkpt>
      <trkpt lat="43.66034" lon="3.40985">
        <ele>100.2</ele>
        <time>2024-08-06T08:45:46Z</time>
      </trkpt>
      <trkpt lat="43.66032" lon="3.40982">
        <ele>100.8</ele>
        <time>2024-08-06T08:45:47Z</time>
      </trkpt>
      <trkpt lat="43.66031" lon="3.40977">
        <ele>101.9</ele>
        <time>2024-08-06T08:45:48Z</time>
      </trkpt>
      <trkpt lat="43.6603" lon="3.40973">
        <ele>102.8</ele>
        <time>2024-08-06T08:45:49Z</time>
      </trkpt>
      <trkpt lat="43.66029" lon="3.4097">
        <ele>103.3</ele>
        <time>2024-08-06T08:45:50Z</time>
      </trkpt>
      <trkpt lat="43.66027" lon="3.40968">
        <ele>103.5</ele>
        <time>2024-08-06T08:45:51Z</time>
      </trkpt>
      <trkpt lat="43.66024" lon="3.40966">
        <ele>103.3</ele>
        <time>2024-08-06T08:45:52Z</time>
      </trkpt>
      <trkpt lat="43.6602" lon="3.40964">
        <ele>103</ele>
        <time>2024-08-06T08:45:53Z</time>
      </trkpt>
      <trkpt lat="43.66017" lon="3.40961">
        <ele>103.1</ele>
        <time>2024-08-06T08:45:54Z</time>
      </trkpt>
      <trkpt lat="43.66014" lon="3.40958">
        <ele>103.3</ele>
        <time>2024-08-06T08:45:55Z</time>
      </trkpt>
      <trkpt lat="43.66011" lon="3.40953">
        <ele>104</ele>
        <time>2024-08-06T08:45:56Z</time>
      </trkpt>
      <trkpt lat="43.66008" lon="3.40949">
        <ele>104.6</ele>
        <time>2024-08-06T08:45:57Z</time>
      </trkpt>
      <trkpt lat="43.66006" lon="3.40944">
        <ele>105.5</ele>
        <time>2024-08-06T08:45:58Z</time>
      </trkpt>
      <trkpt lat="43.66003" lon="3.40939">
        <ele>106</ele>
        <time>2024-08-06T08:45:59Z</time>
      </trkpt>
      <trkpt lat="43.66001" lon="3.40935">
        <ele>106.4</ele>
        <time>2024-08-06T08:46:00Z</time>
      </trkpt>
      <trkpt lat="43.65999" lon="3.4093">
        <ele>106.9</ele>
        <time>2024-08-06T08:46:01Z</time>
      </trkpt>
      <trkpt lat="43.65998" lon="3.40924">
        <ele>107.6</ele>
        <time>2024-08-06T08:46:02Z</time>
      </trkpt>
      <trkpt lat="43.65996" lon="3.40917">
        <ele>108.2</ele>
        <time>2024-08-06T08:46:03Z</time>
      </trkpt>
      <trkpt lat="43.65994" lon="3.4091">
        <ele>108.5</ele>
        <time>2024-08-06T08:46:04Z</time>
      </trkpt>
      <trkpt lat="43.65993" lon="3.40903">
        <ele>108.8</ele>
        <time>2024-08-06T08:46:05Z</time>
      </trkpt>
      <trkpt lat="43.65993" lon="3.40896">
        <ele>109.4</ele>
        <time>2024-08-06T08:46:06Z</time>
      </trkpt>
      <trkpt lat="43.65992" lon="3.4089">
        <ele>109.8</ele>
        <time>2024-08-06T08:46:07Z</time>
      </trkpt>
      <trkpt lat="43.65992" lon="3.40883">
        <ele>110.4</ele>
        <time>2024-08-06T08:46:08Z</time>
      </trkpt>
      <trkpt lat="43.65992" lon="3.40877">
        <ele>111</ele>
        <time>2024-08-06T08:46:09Z</time>
      </trkpt>
      <trkpt lat="43.65992" lon="3.40871">
        <ele>111.6</ele>
        <time>2024-08-06T08:46:10Z</time>
      </trkpt>
      <trkpt lat="43.65993" lon="3.40865">
        <ele>112.4</ele>
        <time>2024-08-06T08:46:11Z</time>
      </trkpt>
      <trkpt lat="43.65994" lon="3.4086">
        <ele>113</ele>
        <time>2024-08-06T08:46:12Z</time>
      </trkpt>
      <trkpt lat="43.65995" lon="3.40855">
        <ele>113.6</ele>
        <time>2024-08-06T08:46:13Z</time>
      </trkpt>
      <trkpt lat="43.65995" lon="3.4085">
        <ele>114</ele>
        <time>2024-08-06T08:46:14Z</time>
      </trkpt>
      <trkpt lat="43.65995" lon="3.40844">
        <ele>114.6</ele>
        <time>2024-08-06T08:46:15Z</time>
      </trkpt>
      <trkpt lat="43.65993" lon="3.4084">
        <ele>114.6</ele>
        <time>2024-08-06T08:46:16Z</time>
      </trkpt>
      <trkpt lat="43.65991" lon="3.40838">
        <ele>114.6</ele>
        <time>2024-08-06T08:46:17Z</time>
      </trkpt>
      <trkpt lat="43.65988" lon="3.40836">
        <ele>114.4</ele>
        <time>2024-08-06T08:46:18Z</time>
      </trkpt>
      <trkpt lat="43.65985" lon="3.40834">
        <ele>114.3</ele>
        <time>2024-08-06T08:46:19Z</time>
      </trkpt>
      <trkpt lat="43.65981" lon="3.40832">
        <ele>114.2</ele>
        <time>2024-08-06T08:46:20Z</time>
      </trkpt>
      <trkpt lat="43.65977" lon="3.4083">
        <ele>114.1</ele>
        <time>2024-08-06T08:46:21Z</time>
      </trkpt>
      <trkpt lat="43.65973" lon="3.40829">
        <ele>113.9</ele>
        <time>2024-08-06T08:46:22Z</time>
      </trkpt>
      <trkpt lat="43.65969" lon="3.40827">
        <ele>113.9</ele>
        <time>2024-08-06T08:46:23Z</time>
      </trkpt>
      <trkpt lat="43.65965" lon="3.40825">
        <ele>113.8</ele>
        <time>2024-08-06T08:46:24Z</time>
      </trkpt>
      <trkpt lat="43.65962" lon="3.40821">
        <ele>114.2</ele>
        <time>2024-08-06T08:46:25Z</time>
      </trkpt>
      <trkpt lat="43.65959" lon="3.40816">
        <ele>114.6</ele>
        <time>2024-08-06T08:46:26Z</time>
      </trkpt>
      <trkpt lat="43.65957" lon="3.4081">
        <ele>115.2</ele>
        <time>2024-08-06T08:46:27Z</time>
      </trkpt>
      <trkpt lat="43.65955" lon="3.40804">
        <ele>115.7</ele>
        <time>2024-08-06T08:46:28Z</time>
      </trkpt>
      <trkpt lat="43.65954" lon="3.40799">
        <ele>116.1</ele>
        <time>2024-08-06T08:46:29Z</time>
      </trkpt>
      <trkpt lat="43.65953" lon="3.40794">
        <ele>116.4</ele>
        <time>2024-08-06T08:46:30Z</time>
      </trkpt>
      <trkpt lat="43.65951" lon="3.40789">
        <ele>116.6</ele>
        <time>2024-08-06T08:46:31Z</time>
      </trkpt>
      <trkpt lat="43.6595" lon="3.40784">
        <ele>116.8</ele>
        <time>2024-08-06T08:46:32Z</time>
      </trkpt>
      <trkpt lat="43.65949" lon="3.40779">
        <ele>117</ele>
        <time>2024-08-06T08:46:33Z</time>
      </trkpt>
      <trkpt lat="43.65948" lon="3.40775">
        <ele>117.4</ele>
        <time>2024-08-06T08:46:34Z</time>
      </trkpt>
      <trkpt lat="43.65947" lon="3.40771">
        <ele>117.9</ele>
        <time>2024-08-06T08:46:35Z</time>
      </trkpt>
      <trkpt lat="43.65945" lon="3.40767">
        <ele>118.1</ele>
        <time>2024-08-06T08:46:36Z</time>
      </trkpt>
      <trkpt lat="43.65942" lon="3.40764">
        <ele>118</ele>
        <time>2024-08-06T08:46:37Z</time>
      </trkpt>
      <trkpt lat="43.65939" lon="3.40761">
        <ele>118</ele>
        <time>2024-08-06T08:46:38Z</time>
      </trkpt>
      <trkpt lat="43.65937" lon="3.40757">
        <ele>118.3</ele>
        <time>2024-08-06T08:46:39Z</time>
      </trkpt>
      <trkpt lat="43.65934" lon="3.40753">
        <ele>118.3</ele>
        <time>2024-08-06T08:46:40Z</time>
      </trkpt>
      <trkpt lat="43.65932" lon="3.40749">
        <ele>118.5</ele>
        <time>2024-08-06T08:46:41Z</time>
      </trkpt>
      <trkpt lat="43.6593" lon="3.40745">
        <ele>118.7</ele>
        <time>2024-08-06T08:46:42Z</time>
      </trkpt>
      <trkpt lat="43.65928" lon="3.40741">
        <ele>118.9</ele>
        <time>2024-08-06T08:46:43Z</time>
      </trkpt>
      <trkpt lat="43.65927" lon="3.40737">
        <ele>119.3</ele>
        <time>2024-08-06T08:46:44Z</time>
      </trkpt>
      <trkpt lat="43.65925" lon="3.40732">
        <ele>119.6</ele>
        <time>2024-08-06T08:46:45Z</time>
      </trkpt>
      <trkpt lat="43.65924" lon="3.40727">
        <ele>120.1</ele>
        <time>2024-08-06T08:46:46Z</time>
      </trkpt>
      <trkpt lat="43.65923" lon="3.40722">
        <ele>120.6</ele>
        <time>2024-08-06T08:46:47Z</time>
      </trkpt>
      <trkpt lat="43.65922" lon="3.40717">
        <ele>120.8</ele>
        <time>2024-08-06T08:46:48Z</time>
      </trkpt>
      <trkpt lat="43.65922" lon="3.40712">
        <ele>121.2</ele>
        <time>2024-08-06T08:46:49Z</time>
      </trkpt>
      <trkpt lat="43.65921" lon="3.40707">
        <ele>121.4</ele>
        <time>2024-08-06T08:46:50Z</time>
      </trkpt>
      <trkpt lat="43.65921" lon="3.40702">
        <ele>121.8</ele>
        <time>2024-08-06T08:46:51Z</time>
      </trkpt>
      <trkpt lat="43.65921" lon="3.40696">
        <ele>122.3</ele>
        <time>2024-08-06T08:46:52Z</time>
      </trkpt>
      <trkpt lat="43.6592" lon="3.40692">
        <ele>122.6</ele>
        <time>2024-08-06T08:46:53Z</time>
      </trkpt>
      <trkpt lat="43.65919" lon="3.40687">
        <ele>123.4</ele>
        <time>2024-08-06T08:46:54Z</time>
      </trkpt>
      <trkpt lat="43.65918" lon="3.40683">
        <ele>123.9</ele>
        <time>2024-08-06T08:46:55Z</time>
      </trkpt>
      <trkpt lat="43.65915" lon="3.40678">
        <ele>124.2</ele>
        <time>2024-08-06T08:46:56Z</time>
      </trkpt>
      <trkpt lat="43.65913" lon="3.40674">
        <ele>124.6</ele>
        <time>2024-08-06T08:46:57Z</time>
      </trkpt>
      <trkpt lat="43.65911" lon="3.40671">
        <ele>124.8</ele>
        <time>2024-08-06T08:46:58Z</time>
      </trkpt>
      <trkpt lat="43.65908" lon="3.40667">
        <ele>125.1</ele>
        <time>2024-08-06T08:46:59Z</time>
      </trkpt>
      <trkpt lat="43.65906" lon="3.40663">
        <ele>125.8</ele>
        <time>2024-08-06T08:47:00Z</time>
      </trkpt>
      <trkpt lat="43.65903" lon="3.40659">
        <ele>126.4</ele>
        <time>2024-08-06T08:47:01Z</time>
      </trkpt>
      <trkpt lat="43.65901" lon="3.40655">
        <ele>127.2</ele>
        <time>2024-08-06T08:47:02Z</time>
      </trkpt>
      <trkpt lat="43.65898" lon="3.40651">
        <ele>127.7</ele>
        <time>2024-08-06T08:47:03Z</time>
      </trkpt>
      <trkpt lat="43.65895" lon="3.40648">
        <ele>127.8</ele>
        <time>2024-08-06T08:47:04Z</time>
      </trkpt>
      <trkpt lat="43.65892" lon="3.40645">
        <ele>128</ele>
        <time>2024-08-06T08:47:05Z</time>
      </trkpt>
      <trkpt lat="43.6589" lon="3.40642">
        <ele>128.4</ele>
        <time>2024-08-06T08:47:06Z</time>
      </trkpt>
      <trkpt lat="43.65887" lon="3.40639">
        <ele>128.5</ele>
        <time>2024-08-06T08:47:07Z</time>
      </trkpt>
      <trkpt lat="43.65884" lon="3.40636">
        <ele>128.5</ele>
        <time>2024-08-06T08:47:08Z</time>
      </trkpt>
      <trkpt lat="43.65881" lon="3.40634">
        <ele>128.1</ele>
        <time>2024-08-06T08:47:09Z</time>
      </trkpt>
      <trkpt lat="43.65877" lon="3.40632">
        <ele>127.5</ele>
        <time>2024-08-06T08:47:10Z</time>
      </trkpt>
      <trkpt lat="43.65874" lon="3.4063">
        <ele>127.1</ele>
        <time>2024-08-06T08:47:11Z</time>
      </trkpt>
      <trkpt lat="43.65871" lon="3.40626">
        <ele>127.1</ele>
        <time>2024-08-06T08:47:12Z</time>
      </trkpt>
      <trkpt lat="43.6587" lon="3.40621">
        <ele>127.9</ele>
        <time>2024-08-06T08:47:13Z</time>
      </trkpt>
      <trkpt lat="43.65869" lon="3.40615">
        <ele>128.8</ele>
        <time>2024-08-06T08:47:14Z</time>
      </trkpt>
      <trkpt lat="43.65869" lon="3.4061">
        <ele>129.7</ele>
        <time>2024-08-06T08:47:15Z</time>
      </trkpt>
      <trkpt lat="43.65869" lon="3.40605">
        <ele>130.1</ele>
        <time>2024-08-06T08:47:16Z</time>
      </trkpt>
      <trkpt lat="43.65869" lon="3.40599">
        <ele>130.7</ele>
        <time>2024-08-06T08:47:17Z</time>
      </trkpt>
      <trkpt lat="43.6587" lon="3.40594">
        <ele>131.5</ele>
        <time>2024-08-06T08:47:18Z</time>
      </trkpt>
      <trkpt lat="43.6587" lon="3.40588">
        <ele>132.1</ele>
        <time>2024-08-06T08:47:19Z</time>
      </trkpt>
      <trkpt lat="43.6587" lon="3.40583">
        <ele>132.6</ele>
        <time>2024-08-06T08:47:20Z</time>
      </trkpt>
      <trkpt lat="43.6587" lon="3.40578">
        <ele>133.3</ele>
        <time>2024-08-06T08:47:21Z</time>
      </trkpt>
      <trkpt lat="43.6587" lon="3.40573">
        <ele>134</ele>
        <time>2024-08-06T08:47:22Z</time>
      </trkpt>
      <trkpt lat="43.6587" lon="3.40567">
        <ele>134.9</ele>
        <time>2024-08-06T08:47:23Z</time>
      </trkpt>
      <trkpt lat="43.65869" lon="3.40562">
        <ele>135.2</ele>
        <time>2024-08-06T08:47:24Z</time>
      </trkpt>
      <trkpt lat="43.65869" lon="3.40557">
        <ele>135.9</ele>
        <time>2024-08-06T08:47:25Z</time>
      </trkpt>
      <trkpt lat="43.65868" lon="3.40552">
        <ele>136</ele>
        <time>2024-08-06T08:47:26Z</time>
      </trkpt>
      <trkpt lat="43.65868" lon="3.40547">
        <ele>136.5</ele>
        <time>2024-08-06T08:47:27Z</time>
      </trkpt>
      <trkpt lat="43.65868" lon="3.40542">
        <ele>136.9</ele>
        <time>2024-08-06T08:47:28Z</time>
      </trkpt>
      <trkpt lat="43.65868" lon="3.40536">
        <ele>137.5</ele>
        <time>2024-08-06T08:47:29Z</time>
      </trkpt>
      <trkpt lat="43.65867" lon="3.40531">
        <ele>137.6</ele>
        <time>2024-08-06T08:47:30Z</time>
      </trkpt>
      <trkpt lat="43.65866" lon="3.40526">
        <ele>137.7</ele>
        <time>2024-08-06T08:47:31Z</time>
      </trkpt>
      <trkpt lat="43.65866" lon="3.4052">
        <ele>138.2</ele>
        <time>2024-08-06T08:47:32Z</time>
      </trkpt>
      <trkpt lat="43.65865" lon="3.40514">
        <ele>138.4</ele>
        <time>2024-08-06T08:47:33Z</time>
      </trkpt>
      <trkpt lat="43.65865" lon="3.40509">
        <ele>138.8</ele>
        <time>2024-08-06T08:47:34Z</time>
      </trkpt>
      <trkpt lat="43.65865" lon="3.40504">
        <ele>139.2</ele>
        <time>2024-08-06T08:47:35Z</time>
      </trkpt>
      <trkpt lat="43.65864" lon="3.40498">
        <ele>139.3</ele>
        <time>2024-08-06T08:47:36Z</time>
      </trkpt>
      <trkpt lat="43.65864" lon="3.40493">
        <ele>139.7</ele>
        <time>2024-08-06T08:47:37Z</time>
      </trkpt>
      <trkpt lat="43.65863" lon="3.40488">
        <ele>139.6</ele>
        <time>2024-08-06T08:47:38Z</time>
      </trkpt>
      <trkpt lat="43.65863" lon="3.40482">
        <ele>140.1</ele>
        <time>2024-08-06T08:47:39Z</time>
      </trkpt>
      <trkpt lat="43.65863" lon="3.40477">
        <ele>140.5</ele>
        <time>2024-08-06T08:47:40Z</time>
      </trkpt>
      <trkpt lat="43.65862" lon="3.40472">
        <ele>140.4</ele>
        <time>2024-08-06T08:47:41Z</time>
      </trkpt>
      <trkpt lat="43.65862" lon="3.40466">
        <ele>140.6</ele>
        <time>2024-08-06T08:47:42Z</time>
      </trkpt>
      <trkpt lat="43.65862" lon="3.4046">
        <ele>140.8</ele>
        <time>2024-08-06T08:47:43Z</time>
      </trkpt>
      <trkpt lat="43.65862" lon="3.40453">
        <ele>141.1</ele>
        <time>2024-08-06T08:47:44Z</time>
      </trkpt>
      <trkpt lat="43.65861" lon="3.40447">
        <ele>140.8</ele>
        <time>2024-08-06T08:47:45Z</time>
      </trkpt>
      <trkpt lat="43.65861" lon="3.40441">
        <ele>141.2</ele>
        <time>2024-08-06T08:47:46Z</time>
      </trkpt>
      <trkpt lat="43.65861" lon="3.40435">
        <ele>141.6</ele>
        <time>2024-08-06T08:47:47Z</time>
      </trkpt>
      <trkpt lat="43.6586" lon="3.4043">
        <ele>141.4</ele>
        <time>2024-08-06T08:47:48Z</time>
      </trkpt>
      <trkpt lat="43.6586" lon="3.40424">
        <ele>141.8</ele>
        <time>2024-08-06T08:47:49Z</time>
      </trkpt>
      <trkpt lat="43.6586" lon="3.40419">
        <ele>142.2</ele>
        <time>2024-08-06T08:47:50Z</time>
      </trkpt>
      <trkpt lat="43.6586" lon="3.40413">
        <ele>142.7</ele>
        <time>2024-08-06T08:47:51Z</time>
      </trkpt>
      <trkpt lat="43.65859" lon="3.40407">
        <ele>142.8</ele>
        <time>2024-08-06T08:47:52Z</time>
      </trkpt>
      <trkpt lat="43.65859" lon="3.40401">
        <ele>143.4</ele>
        <time>2024-08-06T08:47:53Z</time>
      </trkpt>
      <trkpt lat="43.65858" lon="3.40396">
        <ele>143.3</ele>
        <time>2024-08-06T08:47:54Z</time>
      </trkpt>
      <trkpt lat="43.65857" lon="3.40391">
        <ele>143.3</ele>
        <time>2024-08-06T08:47:55Z</time>
      </trkpt>
      <trkpt lat="43.65856" lon="3.40385">
        <ele>143.5</ele>
        <time>2024-08-06T08:47:56Z</time>
      </trkpt>
      <trkpt lat="43.65854" lon="3.4038">
        <ele>143.3</ele>
        <time>2024-08-06T08:47:57Z</time>
      </trkpt>
      <trkpt lat="43.65852" lon="3.40374">
        <ele>143.3</ele>
        <time>2024-08-06T08:47:58Z</time>
      </trkpt>
      <trkpt lat="43.6585" lon="3.40368">
        <ele>143.4</ele>
        <time>2024-08-06T08:47:59Z</time>
      </trkpt>
      <trkpt lat="43.65849" lon="3.40362">
        <ele>144.1</ele>
        <time>2024-08-06T08:48:00Z</time>
      </trkpt>
      <trkpt lat="43.65847" lon="3.40357">
        <ele>144.1</ele>
        <time>2024-08-06T08:48:01Z</time>
      </trkpt>
      <trkpt lat="43.65845" lon="3.40351">
        <ele>144.3</ele>
        <time>2024-08-06T08:48:02Z</time>
      </trkpt>
      <trkpt lat="43.65843" lon="3.40345">
        <ele>144.4</ele>
        <time>2024-08-06T08:48:03Z</time>
      </trkpt>
      <trkpt lat="43.65842" lon="3.40339">
        <ele>145</ele>
        <time>2024-08-06T08:48:04Z</time>
      </trkpt>
      <trkpt lat="43.6584" lon="3.40333">
        <ele>145.2</ele>
        <time>2024-08-06T08:48:05Z</time>
      </trkpt>
      <trkpt lat="43.65839" lon="3.40327">
        <ele>145.6</ele>
        <time>2024-08-06T08:48:06Z</time>
      </trkpt>
      <trkpt lat="43.65838" lon="3.40321">
        <ele>146</ele>
        <time>2024-08-06T08:48:07Z</time>
      </trkpt>
      <trkpt lat="43.65837" lon="3.40314">
        <ele>146.5</ele>
        <time>2024-08-06T08:48:08Z</time>
      </trkpt>
      <trkpt lat="43.65836" lon="3.40308">
        <ele>146.9</ele>
        <time>2024-08-06T08:48:09Z</time>
      </trkpt>
      <trkpt lat="43.65835" lon="3.40303">
        <ele>147.2</ele>
        <time>2024-08-06T08:48:10Z</time>
      </trkpt>
      <trkpt lat="43.65834" lon="3.40296">
        <ele>148</ele>
        <time>2024-08-06T08:48:11Z</time>
      </trkpt>
      <trkpt lat="43.65833" lon="3.40289">
        <ele>148.8</ele>
        <time>2024-08-06T08:48:12Z</time>
      </trkpt>
      <trkpt lat="43.65831" lon="3.40283">
        <ele>148.9</ele>
        <time>2024-08-06T08:48:13Z</time>
      </trkpt>
      <trkpt lat="43.65829" lon="3.40277">
        <ele>148.9</ele>
        <time>2024-08-06T08:48:14Z</time>
      </trkpt>
      <trkpt lat="43.65828" lon="3.4027">
        <ele>149.7</ele>
        <time>2024-08-06T08:48:15Z</time>
      </trkpt>
      <trkpt lat="43.65826" lon="3.40264">
        <ele>149.9</ele>
        <time>2024-08-06T08:48:16Z</time>
      </trkpt>
      <trkpt lat="43.65824" lon="3.40258">
        <ele>150.3</ele>
        <time>2024-08-06T08:48:17Z</time>
      </trkpt>
      <trkpt lat="43.65822" lon="3.40253">
        <ele>150.7</ele>
        <time>2024-08-06T08:48:18Z</time>
      </trkpt>
      <trkpt lat="43.6582" lon="3.40246">
        <ele>151.5</ele>
        <time>2024-08-06T08:48:19Z</time>
      </trkpt>
      <trkpt lat="43.65818" lon="3.4024">
        <ele>152</ele>
        <time>2024-08-06T08:48:20Z</time>
      </trkpt>
      <trkpt lat="43.65816" lon="3.40234">
        <ele>152.6</ele>
        <time>2024-08-06T08:48:21Z</time>
      </trkpt>
      <trkpt lat="43.65814" lon="3.40228">
        <ele>153.2</ele>
        <time>2024-08-06T08:48:22Z</time>
      </trkpt>
      <trkpt lat="43.65813" lon="3.40223">
        <ele>154</ele>
        <time>2024-08-06T08:48:23Z</time>
      </trkpt>
      <trkpt lat="43.65811" lon="3.40217">
        <ele>154.3</ele>
        <time>2024-08-06T08:48:24Z</time>
      </trkpt>
      <trkpt lat="43.65809" lon="3.40212">
        <ele>154.4</ele>
        <time>2024-08-06T08:48:25Z</time>
      </trkpt>
      <trkpt lat="43.65808" lon="3.40207">
        <ele>154.8</ele>
        <time>2024-08-06T08:48:26Z</time>
      </trkpt>
      <trkpt lat="43.65807" lon="3.40201">
        <ele>155.4</ele>
        <time>2024-08-06T08:48:27Z</time>
      </trkpt>
      <trkpt lat="43.65806" lon="3.40195">
        <ele>156</ele>
        <time>2024-08-06T08:48:28Z</time>
      </trkpt>
      <trkpt lat="43.65804" lon="3.40189">
        <ele>155.7</ele>
        <time>2024-08-06T08:48:29Z</time>
      </trkpt>
      <trkpt lat="43.65802" lon="3.40184">
        <ele>155.3</ele>
        <time>2024-08-06T08:48:30Z</time>
      </trkpt>
      <trkpt lat="43.65799" lon="3.40178">
        <ele>154.9</ele>
        <time>2024-08-06T08:48:31Z</time>
      </trkpt>
      <trkpt lat="43.65796" lon="3.40172">
        <ele>154.7</ele>
        <time>2024-08-06T08:48:32Z</time>
      </trkpt>
      <trkpt lat="43.65793" lon="3.40166">
        <ele>155</ele>
        <time>2024-08-06T08:48:33Z</time>
      </trkpt>
      <trkpt lat="43.6579" lon="3.40162">
        <ele>155</ele>
        <time>2024-08-06T08:48:34Z</time>
      </trkpt>
      <trkpt lat="43.65788" lon="3.40157">
        <ele>155.4</ele>
        <time>2024-08-06T08:48:35Z</time>
      </trkpt>
      <trkpt lat="43.65786" lon="3.40153">
        <ele>155.7</ele>
        <time>2024-08-06T08:48:36Z</time>
      </trkpt>
      <trkpt lat="43.65784" lon="3.40149">
        <ele>155.9</ele>
        <time>2024-08-06T08:48:37Z</time>
      </trkpt>
      <trkpt lat="43.65782" lon="3.40145">
        <ele>156.1</ele>
        <time>2024-08-06T08:48:38Z</time>
      </trkpt>
      <trkpt lat="43.65779" lon="3.40138">
        <ele>156.4</ele>
        <time>2024-08-06T08:48:39Z</time>
      </trkpt>
      <trkpt lat="43.65776" lon="3.40131">
        <ele>155.5</ele>
        <time>2024-08-06T08:48:40Z</time>
      </trkpt>
      <trkpt lat="43.65774" lon="3.40125">
        <ele>154.8</ele>
        <time>2024-08-06T08:48:41Z</time>
      </trkpt>
      <trkpt lat="43.65771" lon="3.40119">
        <ele>153.6</ele>
        <time>2024-08-06T08:48:42Z</time>
      </trkpt>
      <trkpt lat="43.6577" lon="3.40113">
        <ele>153.6</ele>
        <time>2024-08-06T08:48:43Z</time>
      </trkpt>
      <trkpt lat="43.65769" lon="3.40106">
        <ele>153.9</ele>
        <time>2024-08-06T08:48:44Z</time>
      </trkpt>
      <trkpt lat="43.65767" lon="3.401">
        <ele>153.7</ele>
        <time>2024-08-06T08:48:45Z</time>
      </trkpt>
      <trkpt lat="43.65767" lon="3.40094">
        <ele>154.5</ele>
        <time>2024-08-06T08:48:46Z</time>
      </trkpt>
      <trkpt lat="43.65766" lon="3.40087">
        <ele>155</ele>
        <time>2024-08-06T08:48:47Z</time>
      </trkpt>
      <trkpt lat="43.65765" lon="3.40081">
        <ele>155.4</ele>
        <time>2024-08-06T08:48:48Z</time>
      </trkpt>
      <trkpt lat="43.65763" lon="3.40074">
        <ele>155.6</ele>
        <time>2024-08-06T08:48:49Z</time>
      </trkpt>
      <trkpt lat="43.65761" lon="3.40068">
        <ele>155.8</ele>
        <time>2024-08-06T08:48:50Z</time>
      </trkpt>
      <trkpt lat="43.6576" lon="3.40062">
        <ele>156.5</ele>
        <time>2024-08-06T08:48:51Z</time>
      </trkpt>
      <trkpt lat="43.65757" lon="3.40055">
        <ele>156.6</ele>
        <time>2024-08-06T08:48:52Z</time>
      </trkpt>
      <trkpt lat="43.65755" lon="3.40049">
        <ele>156.7</ele>
        <time>2024-08-06T08:48:53Z</time>
      </trkpt>
      <trkpt lat="43.65752" lon="3.40043">
        <ele>156.5</ele>
        <time>2024-08-06T08:48:54Z</time>
      </trkpt>
      <trkpt lat="43.65749" lon="3.40038">
        <ele>156.2</ele>
        <time>2024-08-06T08:48:55Z</time>
      </trkpt>
      <trkpt lat="43.65746" lon="3.40033">
        <ele>155.9</ele>
        <time>2024-08-06T08:48:56Z</time>
      </trkpt>
      <trkpt lat="43.65744" lon="3.40027">
        <ele>156.1</ele>
        <time>2024-08-06T08:48:57Z</time>
      </trkpt>
      <trkpt lat="43.65742" lon="3.40021">
        <ele>156.1</ele>
        <time>2024-08-06T08:48:58Z</time>
      </trkpt>
      <trkpt lat="43.6574" lon="3.40015">
        <ele>156.1</ele>
        <time>2024-08-06T08:48:59Z</time>
      </trkpt>
      <trkpt lat="43.65738" lon="3.4001">
        <ele>156</ele>
        <time>2024-08-06T08:49:00Z</time>
      </trkpt>
      <trkpt lat="43.65736" lon="3.40005">
        <ele>155.9</ele>
        <time>2024-08-06T08:49:01Z</time>
      </trkpt>
      <trkpt lat="43.65734" lon="3.39999">
        <ele>155.9</ele>
        <time>2024-08-06T08:49:02Z</time>
      </trkpt>
      <trkpt lat="43.65733" lon="3.39994">
        <ele>155.8</ele>
        <time>2024-08-06T08:49:03Z</time>
      </trkpt>
      <trkpt lat="43.65731" lon="3.39988">
        <ele>155.4</ele>
        <time>2024-08-06T08:49:04Z</time>
      </trkpt>
      <trkpt lat="43.6573" lon="3.39984">
        <ele>155.3</ele>
        <time>2024-08-06T08:49:05Z</time>
      </trkpt>
      <trkpt lat="43.65729" lon="3.39979">
        <ele>155.1</ele>
        <time>2024-08-06T08:49:06Z</time>
      </trkpt>
      <trkpt lat="43.65729" lon="3.39976">
        <ele>155.3</ele>
        <time>2024-08-06T08:49:07Z</time>
      </trkpt>
      <trkpt lat="43.65729" lon="3.39973">
        <ele>155.4</ele>
        <time>2024-08-06T08:49:08Z</time>
      </trkpt>
      <trkpt lat="43.65728" lon="3.3997">
        <ele>155.2</ele>
        <time>2024-08-06T08:49:09Z</time>
      </trkpt>
      <trkpt lat="43.65728" lon="3.39967">
        <ele>155.3</ele>
        <time>2024-08-06T08:49:10Z</time>
      </trkpt>
      <trkpt lat="43.65728" lon="3.39964">
        <ele>155.4</ele>
        <time>2024-08-06T08:49:11Z</time>
      </trkpt>
      <trkpt lat="43.65727" lon="3.39962">
        <ele>155.1</ele>
        <time>2024-08-06T08:49:12Z</time>
      </trkpt>
      <trkpt lat="43.65726" lon="3.3996">
        <ele>154.8</ele>
        <time>2024-08-06T08:49:13Z</time>
      </trkpt>
      <trkpt lat="43.65725" lon="3.39959">
        <ele>154.5</ele>
        <time>2024-08-06T08:49:14Z</time>
      </trkpt>
      <trkpt lat="43.65725" lon="3.39958">
        <ele>154.5</ele>
        <time>2024-08-06T08:49:15Z</time>
      </trkpt>
      <trkpt lat="43.65725" lon="3.39955">
        <ele>154.6</ele>
        <time>2024-08-06T08:49:16Z</time>
      </trkpt>
      <trkpt lat="43.65724" lon="3.3995">
        <ele>154.4</ele>
        <time>2024-08-06T08:49:17Z</time>
      </trkpt>
      <trkpt lat="43.65722" lon="3.39943">
        <ele>154</ele>
        <time>2024-08-06T08:49:18Z</time>
      </trkpt>
      <trkpt lat="43.6572" lon="3.39935">
        <ele>154</ele>
        <time>2024-08-06T08:49:19Z</time>
      </trkpt>
      <trkpt lat="43.65717" lon="3.39928">
        <ele>153.8</ele>
        <time>2024-08-06T08:49:20Z</time>
      </trkpt>
      <trkpt lat="43.65714" lon="3.39922">
        <ele>153.6</ele>
        <time>2024-08-06T08:49:21Z</time>
      </trkpt>
      <trkpt lat="43.65711" lon="3.39915">
        <ele>153.5</ele>
        <time>2024-08-06T08:49:22Z</time>
      </trkpt>
      <trkpt lat="43.65708" lon="3.39909">
        <ele>153.2</ele>
        <time>2024-08-06T08:49:23Z</time>
      </trkpt>
      <trkpt lat="43.65706" lon="3.39902">
        <ele>153.1</ele>
        <time>2024-08-06T08:49:24Z</time>
      </trkpt>
      <trkpt lat="43.65703" lon="3.39896">
        <ele>152.7</ele>
        <time>2024-08-06T08:49:25Z</time>
      </trkpt>
      <trkpt lat="43.65699" lon="3.39893">
        <ele>151.9</ele>
        <time>2024-08-06T08:49:26Z</time>
      </trkpt>
      <trkpt lat="43.65695" lon="3.39893">
        <ele>151.1</ele>
        <time>2024-08-06T08:49:27Z</time>
      </trkpt>
      <trkpt lat="43.65693" lon="3.39896">
        <ele>150.7</ele>
        <time>2024-08-06T08:49:28Z</time>
      </trkpt>
      <trkpt lat="43.65692" lon="3.399">
        <ele>150.4</ele>
        <time>2024-08-06T08:49:29Z</time>
      </trkpt>
      <trkpt lat="43.65693" lon="3.39905">
        <ele>150.6</ele>
        <time>2024-08-06T08:49:30Z</time>
      </trkpt>
      <trkpt lat="43.65695" lon="3.39911">
        <ele>151.1</ele>
        <time>2024-08-06T08:49:31Z</time>
      </trkpt>
      <trkpt lat="43.65698" lon="3.39917">
        <ele>151.5</ele>
        <time>2024-08-06T08:49:32Z</time>
      </trkpt>
      <trkpt lat="43.657" lon="3.39925">
        <ele>151.3</ele>
        <time>2024-08-06T08:49:33Z</time>
      </trkpt>
      <trkpt lat="43.65703" lon="3.39933">
        <ele>151.2</ele>
        <time>2024-08-06T08:49:34Z</time>
      </trkpt>
      <trkpt lat="43.65706" lon="3.39941">
        <ele>151.3</ele>
        <time>2024-08-06T08:49:35Z</time>
      </trkpt>
      <trkpt lat="43.65708" lon="3.39949">
        <ele>151.2</ele>
        <time>2024-08-06T08:49:36Z</time>
      </trkpt>
      <trkpt lat="43.65711" lon="3.39957">
        <ele>151.3</ele>
        <time>2024-08-06T08:49:37Z</time>
      </trkpt>
      <trkpt lat="43.65714" lon="3.39965">
        <ele>151.6</ele>
        <time>2024-08-06T08:49:38Z</time>
      </trkpt>
      <trkpt lat="43.65716" lon="3.39973">
        <ele>151.6</ele>
        <time>2024-08-06T08:49:39Z</time>
      </trkpt>
      <trkpt lat="43.65716" lon="3.39982">
        <ele>151.1</ele>
        <time>2024-08-06T08:49:40Z</time>
      </trkpt>
      <trkpt lat="43.65716" lon="3.39992">
        <ele>150.6</ele>
        <time>2024-08-06T08:49:41Z</time>
      </trkpt>
      <trkpt lat="43.65717" lon="3.40002">
        <ele>150.3</ele>
        <time>2024-08-06T08:49:42Z</time>
      </trkpt>
      <trkpt lat="43.65718" lon="3.40012">
        <ele>149.4</ele>
        <time>2024-08-06T08:49:43Z</time>
      </trkpt>
      <trkpt lat="43.65718" lon="3.40022">
        <ele>148.3</ele>
        <time>2024-08-06T08:49:44Z</time>
      </trkpt>
      <trkpt lat="43.65718" lon="3.40033">
        <ele>146.6</ele>
        <time>2024-08-06T08:49:45Z</time>
      </trkpt>
      <trkpt lat="43.65714" lon="3.40042">
        <ele>144.4</ele>
        <time>2024-08-06T08:49:46Z</time>
      </trkpt>
      <trkpt lat="43.65709" lon="3.40049">
        <ele>143.4</ele>
        <time>2024-08-06T08:49:47Z</time>
      </trkpt>
      <trkpt lat="43.65704" lon="3.40056">
        <ele>143.2</ele>
        <time>2024-08-06T08:49:48Z</time>
      </trkpt>
      <trkpt lat="43.65699" lon="3.40063">
        <ele>142.3</ele>
        <time>2024-08-06T08:49:49Z</time>
      </trkpt>
      <trkpt lat="43.65694" lon="3.4007">
        <ele>141.4</ele>
        <time>2024-08-06T08:49:50Z</time>
      </trkpt>
      <trkpt lat="43.6569" lon="3.40076">
        <ele>140.3</ele>
        <time>2024-08-06T08:49:51Z</time>
      </trkpt>
      <trkpt lat="43.65685" lon="3.40082">
        <ele>139.8</ele>
        <time>2024-08-06T08:49:52Z</time>
      </trkpt>
      <trkpt lat="43.6568" lon="3.40089">
        <ele>139.2</ele>
        <time>2024-08-06T08:49:53Z</time>
      </trkpt>
      <trkpt lat="43.65676" lon="3.40095">
        <ele>139.2</ele>
        <time>2024-08-06T08:49:54Z</time>
      </trkpt>
      <trkpt lat="43.65671" lon="3.40101">
        <ele>140.2</ele>
        <time>2024-08-06T08:49:55Z</time>
      </trkpt>
      <trkpt lat="43.65667" lon="3.40107">
        <ele>141.7</ele>
        <time>2024-08-06T08:49:56Z</time>
      </trkpt>
      <trkpt lat="43.65662" lon="3.40113">
        <ele>140.9</ele>
        <time>2024-08-06T08:49:57Z</time>
      </trkpt>
      <trkpt lat="43.65658" lon="3.40118">
        <ele>139.6</ele>
        <time>2024-08-06T08:49:58Z</time>
      </trkpt>
      <trkpt lat="43.65654" lon="3.40124">
        <ele>138.9</ele>
        <time>2024-08-06T08:49:59Z</time>
      </trkpt>
      <trkpt lat="43.6565" lon="3.40131">
        <ele>139.2</ele>
        <time>2024-08-06T08:50:00Z</time>
      </trkpt>
      <trkpt lat="43.65645" lon="3.40137">
        <ele>141</ele>
        <time>2024-08-06T08:50:01Z</time>
      </trkpt>
      <trkpt lat="43.65641" lon="3.40144">
        <ele>141.5</ele>
        <time>2024-08-06T08:50:02Z</time>
      </trkpt>
      <trkpt lat="43.65636" lon="3.4015">
        <ele>140.7</ele>
        <time>2024-08-06T08:50:03Z</time>
      </trkpt>
      <trkpt lat="43.65631" lon="3.40157">
        <ele>139.3</ele>
        <time>2024-08-06T08:50:04Z</time>
      </trkpt>
      <trkpt lat="43.65626" lon="3.40163">
        <ele>139.1</ele>
        <time>2024-08-06T08:50:05Z</time>
      </trkpt>
      <trkpt lat="43.65622" lon="3.40169">
        <ele>139.2</ele>
        <time>2024-08-06T08:50:06Z</time>
      </trkpt>
      <trkpt lat="43.65617" lon="3.40176">
        <ele>139.6</ele>
        <time>2024-08-06T08:50:07Z</time>
      </trkpt>
      <trkpt lat="43.65612" lon="3.40182">
        <ele>141.1</ele>
        <time>2024-08-06T08:50:08Z</time>
      </trkpt>
      <trkpt lat="43.65608" lon="3.40189">
        <ele>140.9</ele>
        <time>2024-08-06T08:50:09Z</time>
      </trkpt>
      <trkpt lat="43.65603" lon="3.40195">
        <ele>140.3</ele>
        <time>2024-08-06T08:50:10Z</time>
      </trkpt>
      <trkpt lat="43.65599" lon="3.40202">
        <ele>138.7</ele>
        <time>2024-08-06T08:50:11Z</time>
      </trkpt>
      <trkpt lat="43.65594" lon="3.40208">
        <ele>138.8</ele>
        <time>2024-08-06T08:50:12Z</time>
      </trkpt>
      <trkpt lat="43.65589" lon="3.40214">
        <ele>140.3</ele>
        <time>2024-08-06T08:50:13Z</time>
      </trkpt>
      <trkpt lat="43.65585" lon="3.40221">
        <ele>142.9</ele>
        <time>2024-08-06T08:50:14Z</time>
      </trkpt>
      <trkpt lat="43.6558" lon="3.40228">
        <ele>141.6</ele>
        <time>2024-08-06T08:50:15Z</time>
      </trkpt>
      <trkpt lat="43.65576" lon="3.40234">
        <ele>139.9</ele>
        <time>2024-08-06T08:50:16Z</time>
      </trkpt>
      <trkpt lat="43.65572" lon="3.4024">
        <ele>139.1</ele>
        <time>2024-08-06T08:50:17Z</time>
      </trkpt>
      <trkpt lat="43.65568" lon="3.40246">
        <ele>139.2</ele>
        <time>2024-08-06T08:50:18Z</time>
      </trkpt>
      <trkpt lat="43.65563" lon="3.40252">
        <ele>140.2</ele>
        <time>2024-08-06T08:50:19Z</time>
      </trkpt>
      <trkpt lat="43.65559" lon="3.40258">
        <ele>140.7</ele>
        <time>2024-08-06T08:50:20Z</time>
      </trkpt>
      <trkpt lat="43.65555" lon="3.40264">
        <ele>141.4</ele>
        <time>2024-08-06T08:50:21Z</time>
      </trkpt>
      <trkpt lat="43.65551" lon="3.40269">
        <ele>140.6</ele>
        <time>2024-08-06T08:50:22Z</time>
      </trkpt>
      <trkpt lat="43.65548" lon="3.40275">
        <ele>140.1</ele>
        <time>2024-08-06T08:50:23Z</time>
      </trkpt>
      <trkpt lat="43.65544" lon="3.40281">
        <ele>139.4</ele>
        <time>2024-08-06T08:50:24Z</time>
      </trkpt>
      <trkpt lat="43.65541" lon="3.40287">
        <ele>138.8</ele>
        <time>2024-08-06T08:50:25Z</time>
      </trkpt>
      <trkpt lat="43.65538" lon="3.40292">
        <ele>139</ele>
        <time>2024-08-06T08:50:26Z</time>
      </trkpt>
      <trkpt lat="43.65534" lon="3.40297">
        <ele>140.3</ele>
        <time>2024-08-06T08:50:27Z</time>
      </trkpt>
      <trkpt lat="43.65531" lon="3.40301">
        <ele>141.8</ele>
        <time>2024-08-06T08:50:28Z</time>
      </trkpt>
      <trkpt lat="43.65528" lon="3.40305">
        <ele>143.8</ele>
        <time>2024-08-06T08:50:29Z</time>
      </trkpt>
      <trkpt lat="43.65525" lon="3.40309">
        <ele>142.8</ele>
        <time>2024-08-06T08:50:30Z</time>
      </trkpt>
      <trkpt lat="43.65523" lon="3.40313">
        <ele>141.9</ele>
        <time>2024-08-06T08:50:31Z</time>
      </trkpt>
      <trkpt lat="43.6552" lon="3.40317">
        <ele>141.2</ele>
        <time>2024-08-06T08:50:32Z</time>
      </trkpt>
      <trkpt lat="43.65517" lon="3.4032">
        <ele>141</ele>
        <time>2024-08-06T08:50:33Z</time>
      </trkpt>
      <trkpt lat="43.65515" lon="3.40323">
        <ele>141.1</ele>
        <time>2024-08-06T08:50:34Z</time>
      </trkpt>
      <trkpt lat="43.65513" lon="3.40325">
        <ele>141.3</ele>
        <time>2024-08-06T08:50:35Z</time>
      </trkpt>
      <trkpt lat="43.65512" lon="3.40328">
        <ele>141.5</ele>
        <time>2024-08-06T08:50:36Z</time>
      </trkpt>
      <trkpt lat="43.65511" lon="3.40329">
        <ele>141.7</ele>
        <time>2024-08-06T08:50:37Z</time>
      </trkpt>
      <trkpt lat="43.6551" lon="3.40331">
        <ele>142</ele>
        <time>2024-08-06T08:50:38Z</time>
      </trkpt>
      <trkpt lat="43.65509" lon="3.40332">
        <ele>142.3</ele>
        <time>2024-08-06T08:50:39Z</time>
      </trkpt>
      <trkpt lat="43.65508" lon="3.40333">
        <ele>142.7</ele>
        <time>2024-08-06T08:50:40Z</time>
      </trkpt>
      <trkpt lat="43.65507" lon="3.40333">
        <ele>143</ele>
        <time>2024-08-06T08:50:41Z</time>
      </trkpt>
      <trkpt lat="43.65506" lon="3.40334">
        <ele>143.3</ele>
        <time>2024-08-06T08:50:42Z</time>
      </trkpt>
      <trkpt lat="43.65506" lon="3.40334">
        <ele>143.3</ele>
        <time>2024-08-06T08:50:43Z</time>
      </trkpt>
      <trkpt lat="43.65505" lon="3.40334">
        <ele>143.6</ele>
        <time>2024-08-06T08:50:44Z</time>
      </trkpt>
      <trkpt lat="43.65505" lon="3.40335">
        <ele>143.7</ele>
        <time>2024-08-06T08:50:45Z</time>
      </trkpt>
      <trkpt lat="43.65505" lon="3.40335">
        <ele>143.7</ele>
        <time>2024-08-06T08:50:46Z</time>
      </trkpt>
      <trkpt lat="43.65504" lon="3.40335">
        <ele>144</ele>
        <time>2024-08-06T08:50:47Z</time>
      </trkpt>
      <trkpt lat="43.65504" lon="3.40335">
        <ele>144</ele>
        <time>2024-08-06T08:50:48Z</time>
      </trkpt>
      <trkpt lat="43.65503" lon="3.40336">
        <ele>144.3</ele>
        <time>2024-08-06T08:50:49Z</time>
      </trkpt>
      <trkpt lat="43.65502" lon="3.40337">
        <ele>144.7</ele>
        <time>2024-08-06T08:50:50Z</time>
      </trkpt>
      <trkpt lat="43.65501" lon="3.40339">
        <ele>145.1</ele>
        <time>2024-08-06T08:50:51Z</time>
      </trkpt>
      <trkpt lat="43.65499" lon="3.40341">
        <ele>145.8</ele>
        <time>2024-08-06T08:50:52Z</time>
      </trkpt>
      <trkpt lat="43.65495" lon="3.40342">
        <ele>147</ele>
        <time>2024-08-06T08:50:53Z</time>
      </trkpt>
      <trkpt lat="43.65492" lon="3.40339">
        <ele>147.4</ele>
        <time>2024-08-06T08:50:54Z</time>
      </trkpt>
      <trkpt lat="43.65489" lon="3.40334">
        <ele>147.5</ele>
        <time>2024-08-06T08:50:55Z</time>
      </trkpt>
      <trkpt lat="43.65486" lon="3.4033">
        <ele>147.4</ele>
        <time>2024-08-06T08:50:56Z</time>
      </trkpt>
      <trkpt lat="43.65483" lon="3.40325">
        <ele>147.1</ele>
        <time>2024-08-06T08:50:57Z</time>
      </trkpt>
      <trkpt lat="43.65479" lon="3.40319">
        <ele>146.8</ele>
        <time>2024-08-06T08:50:58Z</time>
      </trkpt>
      <trkpt lat="43.65476" lon="3.40314">
        <ele>146.6</ele>
        <time>2024-08-06T08:50:59Z</time>
      </trkpt>
      <trkpt lat="43.65473" lon="3.40309">
        <ele>146.4</ele>
        <time>2024-08-06T08:51:00Z</time>
      </trkpt>
      <trkpt lat="43.65469" lon="3.40304">
        <ele>146.8</ele>
        <time>2024-08-06T08:51:01Z</time>
      </trkpt>
      <trkpt lat="43.65465" lon="3.40298">
        <ele>146.9</ele>
        <time>2024-08-06T08:51:02Z</time>
      </trkpt>
      <trkpt lat="43.6546" lon="3.40292">
        <ele>147.3</ele>
        <time>2024-08-06T08:51:03Z</time>
      </trkpt>
      <trkpt lat="43.65455" lon="3.40286">
        <ele>147.5</ele>
        <time>2024-08-06T08:51:04Z</time>
      </trkpt>
      <trkpt lat="43.65451" lon="3.4028">
        <ele>147.4</ele>
        <time>2024-08-06T08:51:05Z</time>
      </trkpt>
      <trkpt lat="43.65446" lon="3.40275">
        <ele>148</ele>
        <time>2024-08-06T08:51:06Z</time>
      </trkpt>
      <trkpt lat="43.65442" lon="3.40269">
        <ele>148.2</ele>
        <time>2024-08-06T08:51:07Z</time>
      </trkpt>
      <trkpt lat="43.65437" lon="3.40265">
        <ele>149.1</ele>
        <time>2024-08-06T08:51:08Z</time>
      </trkpt>
      <trkpt lat="43.65433" lon="3.40261">
        <ele>149.6</ele>
        <time>2024-08-06T08:51:09Z</time>
      </trkpt>
      <trkpt lat="43.65429" lon="3.40258">
        <ele>150.2</ele>
        <time>2024-08-06T08:51:10Z</time>
      </trkpt>
      <trkpt lat="43.65425" lon="3.40255">
        <ele>150.8</ele>
        <time>2024-08-06T08:51:11Z</time>
      </trkpt>
      <trkpt lat="43.65421" lon="3.40252">
        <ele>151.2</ele>
        <time>2024-08-06T08:51:12Z</time>
      </trkpt>
      <trkpt lat="43.65418" lon="3.4025">
        <ele>151.6</ele>
        <time>2024-08-06T08:51:13Z</time>
      </trkpt>
      <trkpt lat="43.65414" lon="3.40247">
        <ele>152</ele>
        <time>2024-08-06T08:51:14Z</time>
      </trkpt>
      <trkpt lat="43.65411" lon="3.40244">
        <ele>152</ele>
        <time>2024-08-06T08:51:15Z</time>
      </trkpt>
      <trkpt lat="43.65407" lon="3.40242">
        <ele>152.6</ele>
        <time>2024-08-06T08:51:16Z</time>
      </trkpt>
      <trkpt lat="43.65404" lon="3.40239">
        <ele>152.6</ele>
        <time>2024-08-06T08:51:17Z</time>
      </trkpt>
      <trkpt lat="43.654" lon="3.40237">
        <ele>153.1</ele>
        <time>2024-08-06T08:51:18Z</time>
      </trkpt>
      <trkpt lat="43.65396" lon="3.40234">
        <ele>153.2</ele>
        <time>2024-08-06T08:51:19Z</time>
      </trkpt>
      <trkpt lat="43.65393" lon="3.40232">
        <ele>153.4</ele>
        <time>2024-08-06T08:51:20Z</time>
      </trkpt>
      <trkpt lat="43.6539" lon="3.4023">
        <ele>153.5</ele>
        <time>2024-08-06T08:51:21Z</time>
      </trkpt>
      <trkpt lat="43.65386" lon="3.40229">
        <ele>154.2</ele>
        <time>2024-08-06T08:51:22Z</time>
      </trkpt>
      <trkpt lat="43.65383" lon="3.40228">
        <ele>154.6</ele>
        <time>2024-08-06T08:51:23Z</time>
      </trkpt>
      <trkpt lat="43.6538" lon="3.40226">
        <ele>154.6</ele>
        <time>2024-08-06T08:51:24Z</time>
      </trkpt>
      <trkpt lat="43.65377" lon="3.40224">
        <ele>154.6</ele>
        <time>2024-08-06T08:51:25Z</time>
      </trkpt>
      <trkpt lat="43.65373" lon="3.40222">
        <ele>154.9</ele>
        <time>2024-08-06T08:51:26Z</time>
      </trkpt>
      <trkpt lat="43.6537" lon="3.4022">
        <ele>155</ele>
        <time>2024-08-06T08:51:27Z</time>
      </trkpt>
      <trkpt lat="43.65366" lon="3.40219">
        <ele>155.7</ele>
        <time>2024-08-06T08:51:28Z</time>
      </trkpt>
      <trkpt lat="43.65363" lon="3.40217">
        <ele>155.8</ele>
        <time>2024-08-06T08:51:29Z</time>
      </trkpt>
      <trkpt lat="43.65359" lon="3.40215">
        <ele>156.1</ele>
        <time>2024-08-06T08:51:30Z</time>
      </trkpt>
      <trkpt lat="43.65356" lon="3.40213">
        <ele>156.2</ele>
        <time>2024-08-06T08:51:31Z</time>
      </trkpt>
      <trkpt lat="43.65353" lon="3.40212">
        <ele>156.5</ele>
        <time>2024-08-06T08:51:32Z</time>
      </trkpt>
      <trkpt lat="43.6535" lon="3.4021">
        <ele>156.6</ele>
        <time>2024-08-06T08:51:33Z</time>
      </trkpt>
      <trkpt lat="43.65347" lon="3.40209">
        <ele>157</ele>
        <time>2024-08-06T08:51:34Z</time>
      </trkpt>
      <trkpt lat="43.65343" lon="3.40209">
        <ele>157.9</ele>
        <time>2024-08-06T08:51:35Z</time>
      </trkpt>
      <trkpt lat="43.6534" lon="3.40208">
        <ele>158.3</ele>
        <time>2024-08-06T08:51:36Z</time>
      </trkpt>
      <trkpt lat="43.65336" lon="3.40207">
        <ele>159</ele>
        <time>2024-08-06T08:51:37Z</time>
      </trkpt>
      <trkpt lat="43.65332" lon="3.40206">
        <ele>159.5</ele>
        <time>2024-08-06T08:51:38Z</time>
      </trkpt>
      <trkpt lat="43.65329" lon="3.40204">
        <ele>159.3</ele>
        <time>2024-08-06T08:51:39Z</time>
      </trkpt>
      <trkpt lat="43.65326" lon="3.40204">
        <ele>159.6</ele>
        <time>2024-08-06T08:51:40Z</time>
      </trkpt>
      <trkpt lat="43.65322" lon="3.40203">
        <ele>159.8</ele>
        <time>2024-08-06T08:51:41Z</time>
      </trkpt>
      <trkpt lat="43.65318" lon="3.40203">
        <ele>160.3</ele>
        <time>2024-08-06T08:51:42Z</time>
      </trkpt>
      <trkpt lat="43.65314" lon="3.40201">
        <ele>160.1</ele>
        <time>2024-08-06T08:51:43Z</time>
      </trkpt>
      <trkpt lat="43.6531" lon="3.402">
        <ele>160.3</ele>
        <time>2024-08-06T08:51:44Z</time>
      </trkpt>
      <trkpt lat="43.65306" lon="3.40198">
        <ele>160.1</ele>
        <time>2024-08-06T08:51:45Z</time>
      </trkpt>
      <trkpt lat="43.65302" lon="3.40197">
        <ele>160.1</ele>
        <time>2024-08-06T08:51:46Z</time>
      </trkpt>
      <trkpt lat="43.65298" lon="3.40194">
        <ele>159.5</ele>
        <time>2024-08-06T08:51:47Z</time>
      </trkpt>
      <trkpt lat="43.65295" lon="3.40191">
        <ele>159.4</ele>
        <time>2024-08-06T08:51:48Z</time>
      </trkpt>
      <trkpt lat="43.65292" lon="3.40186">
        <ele>159.3</ele>
        <time>2024-08-06T08:51:49Z</time>
      </trkpt>
      <trkpt lat="43.6529" lon="3.40182">
        <ele>159.4</ele>
        <time>2024-08-06T08:51:50Z</time>
      </trkpt>
      <trkpt lat="43.65287" lon="3.40178">
        <ele>159.9</ele>
        <time>2024-08-06T08:51:51Z</time>
      </trkpt>
      <trkpt lat="43.65286" lon="3.40174">
        <ele>160.1</ele>
        <time>2024-08-06T08:51:52Z</time>
      </trkpt>
      <trkpt lat="43.65283" lon="3.40168">
        <ele>161.1</ele>
        <time>2024-08-06T08:51:53Z</time>
      </trkpt>
      <trkpt lat="43.65282" lon="3.40163">
        <ele>161.6</ele>
        <time>2024-08-06T08:51:54Z</time>
      </trkpt>
      <trkpt lat="43.65281" lon="3.40157">
        <ele>162.2</ele>
        <time>2024-08-06T08:51:55Z</time>
      </trkpt>
      <trkpt lat="43.65281" lon="3.40151">
        <ele>162.4</ele>
        <time>2024-08-06T08:51:56Z</time>
      </trkpt>
      <trkpt lat="43.65281" lon="3.40147">
        <ele>162.5</ele>
        <time>2024-08-06T08:51:57Z</time>
      </trkpt>
      <trkpt lat="43.6528" lon="3.40141">
        <ele>163.1</ele>
        <time>2024-08-06T08:51:58Z</time>
      </trkpt>
      <trkpt lat="43.6528" lon="3.40136">
        <ele>163.2</ele>
        <time>2024-08-06T08:51:59Z</time>
      </trkpt>
      <trkpt lat="43.6528" lon="3.40131">
        <ele>163.2</ele>
        <time>2024-08-06T08:52:00Z</time>
      </trkpt>
      <trkpt lat="43.6528" lon="3.40126">
        <ele>163.1</ele>
        <time>2024-08-06T08:52:01Z</time>
      </trkpt>
      <trkpt lat="43.6528" lon="3.40121">
        <ele>163.1</ele>
        <time>2024-08-06T08:52:02Z</time>
      </trkpt>
      <trkpt lat="43.65279" lon="3.40116">
        <ele>163.5</ele>
        <time>2024-08-06T08:52:03Z</time>
      </trkpt>
      <trkpt lat="43.65279" lon="3.40112">
        <ele>163.5</ele>
        <time>2024-08-06T08:52:04Z</time>
      </trkpt>
      <trkpt lat="43.65278" lon="3.40107">
        <ele>163.9</ele>
        <time>2024-08-06T08:52:05Z</time>
      </trkpt>
      <trkpt lat="43.65278" lon="3.40102">
        <ele>163.9</ele>
        <time>2024-08-06T08:52:06Z</time>
      </trkpt>
      <trkpt lat="43.65277" lon="3.40097">
        <ele>164.5</ele>
        <time>2024-08-06T08:52:07Z</time>
      </trkpt>
      <trkpt lat="43.65276" lon="3.40092">
        <ele>165</ele>
        <time>2024-08-06T08:52:08Z</time>
      </trkpt>
      <trkpt lat="43.65275" lon="3.40087">
        <ele>165.6</ele>
        <time>2024-08-06T08:52:09Z</time>
      </trkpt>
      <trkpt lat="43.65274" lon="3.40082">
        <ele>165.7</ele>
        <time>2024-08-06T08:52:10Z</time>
      </trkpt>
      <trkpt lat="43.65272" lon="3.40077">
        <ele>165.7</ele>
        <time>2024-08-06T08:52:11Z</time>
      </trkpt>
      <trkpt lat="43.65271" lon="3.40072">
        <ele>165.1</ele>
        <time>2024-08-06T08:52:12Z</time>
      </trkpt>
      <trkpt lat="43.65269" lon="3.40067">
        <ele>165</ele>
        <time>2024-08-06T08:52:13Z</time>
      </trkpt>
      <trkpt lat="43.65267" lon="3.40062">
        <ele>164.9</ele>
        <time>2024-08-06T08:52:14Z</time>
      </trkpt>
      <trkpt lat="43.65264" lon="3.40057">
        <ele>165.3</ele>
        <time>2024-08-06T08:52:15Z</time>
      </trkpt>
      <trkpt lat="43.65262" lon="3.40053">
        <ele>165.4</ele>
        <time>2024-08-06T08:52:16Z</time>
      </trkpt>
      <trkpt lat="43.65259" lon="3.40049">
        <ele>166</ele>
        <time>2024-08-06T08:52:17Z</time>
      </trkpt>
      <trkpt lat="43.65256" lon="3.40045">
        <ele>166.7</ele>
        <time>2024-08-06T08:52:18Z</time>
      </trkpt>
      <trkpt lat="43.65253" lon="3.40041">
        <ele>167.3</ele>
        <time>2024-08-06T08:52:19Z</time>
      </trkpt>
      <trkpt lat="43.6525" lon="3.40037">
        <ele>168</ele>
        <time>2024-08-06T08:52:20Z</time>
      </trkpt>
      <trkpt lat="43.65248" lon="3.40033">
        <ele>167.8</ele>
        <time>2024-08-06T08:52:21Z</time>
      </trkpt>
      <trkpt lat="43.65245" lon="3.4003">
        <ele>168</ele>
        <time>2024-08-06T08:52:22Z</time>
      </trkpt>
      <trkpt lat="43.65243" lon="3.40026">
        <ele>167.6</ele>
        <time>2024-08-06T08:52:23Z</time>
      </trkpt>
      <trkpt lat="43.6524" lon="3.40023">
        <ele>167.8</ele>
        <time>2024-08-06T08:52:24Z</time>
      </trkpt>
      <trkpt lat="43.65237" lon="3.40019">
        <ele>167.8</ele>
        <time>2024-08-06T08:52:25Z</time>
      </trkpt>
      <trkpt lat="43.65234" lon="3.40015">
        <ele>167.8</ele>
        <time>2024-08-06T08:52:26Z</time>
      </trkpt>
      <trkpt lat="43.65231" lon="3.40012">
        <ele>168.1</ele>
        <time>2024-08-06T08:52:27Z</time>
      </trkpt>
      <trkpt lat="43.65228" lon="3.40009">
        <ele>168.3</ele>
        <time>2024-08-06T08:52:28Z</time>
      </trkpt>
      <trkpt lat="43.65225" lon="3.40006">
        <ele>168.5</ele>
        <time>2024-08-06T08:52:29Z</time>
      </trkpt>
      <trkpt lat="43.65222" lon="3.40003">
        <ele>168.7</ele>
        <time>2024-08-06T08:52:30Z</time>
      </trkpt>
      <trkpt lat="43.65218" lon="3.40001">
        <ele>168.9</ele>
        <time>2024-08-06T08:52:31Z</time>
      </trkpt>
      <trkpt lat="43.65215" lon="3.39999">
        <ele>168.8</ele>
        <time>2024-08-06T08:52:32Z</time>
      </trkpt>
      <trkpt lat="43.65211" lon="3.39997">
        <ele>169</ele>
        <time>2024-08-06T08:52:33Z</time>
      </trkpt>
      <trkpt lat="43.65208" lon="3.39995">
        <ele>169</ele>
        <time>2024-08-06T08:52:34Z</time>
      </trkpt>
      <trkpt lat="43.65204" lon="3.39993">
        <ele>169.1</ele>
        <time>2024-08-06T08:52:35Z</time>
      </trkpt>
      <trkpt lat="43.65201" lon="3.39992">
        <ele>169.3</ele>
        <time>2024-08-06T08:52:36Z</time>
      </trkpt>
      <trkpt lat="43.65197" lon="3.39991">
        <ele>169.7</ele>
        <time>2024-08-06T08:52:37Z</time>
      </trkpt>
      <trkpt lat="43.65193" lon="3.3999">
        <ele>170.1</ele>
        <time>2024-08-06T08:52:38Z</time>
      </trkpt>
      <trkpt lat="43.65189" lon="3.39989">
        <ele>170.5</ele>
        <time>2024-08-06T08:52:39Z</time>
      </trkpt>
      <trkpt lat="43.65185" lon="3.39988">
        <ele>170.9</ele>
        <time>2024-08-06T08:52:40Z</time>
      </trkpt>
      <trkpt lat="43.65182" lon="3.39987">
        <ele>171</ele>
        <time>2024-08-06T08:52:41Z</time>
      </trkpt>
      <trkpt lat="43.65177" lon="3.39987">
        <ele>171.8</ele>
        <time>2024-08-06T08:52:42Z</time>
      </trkpt>
      <trkpt lat="43.65173" lon="3.39986">
        <ele>172.1</ele>
        <time>2024-08-06T08:52:43Z</time>
      </trkpt>
      <trkpt lat="43.65168" lon="3.39985">
        <ele>172.4</ele>
        <time>2024-08-06T08:52:44Z</time>
      </trkpt>
      <trkpt lat="43.65162" lon="3.39983">
        <ele>172.6</ele>
        <time>2024-08-06T08:52:45Z</time>
      </trkpt>
      <trkpt lat="43.65157" lon="3.39981">
        <ele>172.7</ele>
        <time>2024-08-06T08:52:46Z</time>
      </trkpt>
      <trkpt lat="43.65152" lon="3.39979">
        <ele>172.7</ele>
        <time>2024-08-06T08:52:47Z</time>
      </trkpt>
      <trkpt lat="43.65148" lon="3.39976">
        <ele>172.1</ele>
        <time>2024-08-06T08:52:48Z</time>
      </trkpt>
      <trkpt lat="43.65144" lon="3.39971">
        <ele>171</ele>
        <time>2024-08-06T08:52:49Z</time>
      </trkpt>
      <trkpt lat="43.65141" lon="3.39967">
        <ele>170.7</ele>
        <time>2024-08-06T08:52:50Z</time>
      </trkpt>
      <trkpt lat="43.65137" lon="3.39961">
        <ele>170.3</ele>
        <time>2024-08-06T08:52:51Z</time>
      </trkpt>
      <trkpt lat="43.65134" lon="3.39955">
        <ele>169.9</ele>
        <time>2024-08-06T08:52:52Z</time>
      </trkpt>
      <trkpt lat="43.65132" lon="3.39949">
        <ele>169.4</ele>
        <time>2024-08-06T08:52:53Z</time>
      </trkpt>
      <trkpt lat="43.6513" lon="3.39942">
        <ele>169.2</ele>
        <time>2024-08-06T08:52:54Z</time>
      </trkpt>
      <trkpt lat="43.6513" lon="3.39936">
        <ele>169</ele>
        <time>2024-08-06T08:52:55Z</time>
      </trkpt>
      <trkpt lat="43.6513" lon="3.3993">
        <ele>168.9</ele>
        <time>2024-08-06T08:52:56Z</time>
      </trkpt>
      <trkpt lat="43.6513" lon="3.39924">
        <ele>168.7</ele>
        <time>2024-08-06T08:52:57Z</time>
      </trkpt>
      <trkpt lat="43.6513" lon="3.39918">
        <ele>168.6</ele>
        <time>2024-08-06T08:52:58Z</time>
      </trkpt>
      <trkpt lat="43.65131" lon="3.39912">
        <ele>169.1</ele>
        <time>2024-08-06T08:52:59Z</time>
      </trkpt>
      <trkpt lat="43.65132" lon="3.39907">
        <ele>169.8</ele>
        <time>2024-08-06T08:53:00Z</time>
      </trkpt>
      <trkpt lat="43.65134" lon="3.39901">
        <ele>170.3</ele>
        <time>2024-08-06T08:53:01Z</time>
      </trkpt>
      <trkpt lat="43.65136" lon="3.39895">
        <ele>170.8</ele>
        <time>2024-08-06T08:53:02Z</time>
      </trkpt>
      <trkpt lat="43.65139" lon="3.3989">
        <ele>170.7</ele>
        <time>2024-08-06T08:53:03Z</time>
      </trkpt>
      <trkpt lat="43.65141" lon="3.39884">
        <ele>169.9</ele>
        <time>2024-08-06T08:53:04Z</time>
      </trkpt>
      <trkpt lat="43.65143" lon="3.39879">
        <ele>169.2</ele>
        <time>2024-08-06T08:53:05Z</time>
      </trkpt>
      <trkpt lat="43.65145" lon="3.39874">
        <ele>168.7</ele>
        <time>2024-08-06T08:53:06Z</time>
      </trkpt>
      <trkpt lat="43.65147" lon="3.39869">
        <ele>168.6</ele>
        <time>2024-08-06T08:53:07Z</time>
      </trkpt>
      <trkpt lat="43.65149" lon="3.39863">
        <ele>169</ele>
        <time>2024-08-06T08:53:08Z</time>
      </trkpt>
      <trkpt lat="43.65151" lon="3.39857">
        <ele>169.3</ele>
        <time>2024-08-06T08:53:09Z</time>
      </trkpt>
      <trkpt lat="43.65153" lon="3.39852">
        <ele>169.4</ele>
        <time>2024-08-06T08:53:10Z</time>
      </trkpt>
      <trkpt lat="43.65155" lon="3.39846">
        <ele>169.7</ele>
        <time>2024-08-06T08:53:11Z</time>
      </trkpt>
      <trkpt lat="43.65156" lon="3.3984">
        <ele>170.3</ele>
        <time>2024-08-06T08:53:12Z</time>
      </trkpt>
      <trkpt lat="43.65157" lon="3.39833">
        <ele>171.2</ele>
        <time>2024-08-06T08:53:13Z</time>
      </trkpt>
      <trkpt lat="43.65158" lon="3.39827">
        <ele>171.3</ele>
        <time>2024-08-06T08:53:14Z</time>
      </trkpt>
      <trkpt lat="43.65159" lon="3.3982">
        <ele>171.5</ele>
        <time>2024-08-06T08:53:15Z</time>
      </trkpt>
      <trkpt lat="43.65159" lon="3.39814">
        <ele>171.9</ele>
        <time>2024-08-06T08:53:16Z</time>
      </trkpt>
      <trkpt lat="43.6516" lon="3.39807">
        <ele>172</ele>
        <time>2024-08-06T08:53:17Z</time>
      </trkpt>
      <trkpt lat="43.6516" lon="3.398">
        <ele>172.2</ele>
        <time>2024-08-06T08:53:18Z</time>
      </trkpt>
      <trkpt lat="43.65159" lon="3.39793">
        <ele>172.8</ele>
        <time>2024-08-06T08:53:19Z</time>
      </trkpt>
      <trkpt lat="43.65159" lon="3.39786">
        <ele>173</ele>
        <time>2024-08-06T08:53:20Z</time>
      </trkpt>
      <trkpt lat="43.65159" lon="3.39779">
        <ele>173.1</ele>
        <time>2024-08-06T08:53:21Z</time>
      </trkpt>
      <trkpt lat="43.65159" lon="3.39771">
        <ele>173.1</ele>
        <time>2024-08-06T08:53:22Z</time>
      </trkpt>
      <trkpt lat="43.65158" lon="3.39763">
        <ele>173.5</ele>
        <time>2024-08-06T08:53:23Z</time>
      </trkpt>
      <trkpt lat="43.65158" lon="3.39756">
        <ele>173.4</ele>
        <time>2024-08-06T08:53:24Z</time>
      </trkpt>
      <trkpt lat="43.65157" lon="3.39749">
        <ele>173.8</ele>
        <time>2024-08-06T08:53:25Z</time>
      </trkpt>
      <trkpt lat="43.65156" lon="3.39742">
        <ele>173.8</ele>
        <time>2024-08-06T08:53:26Z</time>
      </trkpt>
      <trkpt lat="43.65156" lon="3.39736">
        <ele>173.4</ele>
        <time>2024-08-06T08:53:27Z</time>
      </trkpt>
      <trkpt lat="43.65155" lon="3.39729">
        <ele>173.4</ele>
        <time>2024-08-06T08:53:28Z</time>
      </trkpt>
      <trkpt lat="43.65155" lon="3.39723">
        <ele>172.9</ele>
        <time>2024-08-06T08:53:29Z</time>
      </trkpt>
      <trkpt lat="43.65154" lon="3.39716">
        <ele>173.1</ele>
        <time>2024-08-06T08:53:30Z</time>
      </trkpt>
      <trkpt lat="43.65154" lon="3.39708">
        <ele>172.6</ele>
        <time>2024-08-06T08:53:31Z</time>
      </trkpt>
      <trkpt lat="43.65154" lon="3.39701">
        <ele>172.3</ele>
        <time>2024-08-06T08:53:32Z</time>
      </trkpt>
      <trkpt lat="43.65153" lon="3.39693">
        <ele>172.4</ele>
        <time>2024-08-06T08:53:33Z</time>
      </trkpt>
      <trkpt lat="43.65152" lon="3.39686">
        <ele>172.8</ele>
        <time>2024-08-06T08:53:34Z</time>
      </trkpt>
      <trkpt lat="43.65152" lon="3.39679">
        <ele>172.8</ele>
        <time>2024-08-06T08:53:35Z</time>
      </trkpt>
      <trkpt lat="43.65152" lon="3.39672">
        <ele>172.8</ele>
        <time>2024-08-06T08:53:36Z</time>
      </trkpt>
      <trkpt lat="43.65151" lon="3.39665">
        <ele>173.2</ele>
        <time>2024-08-06T08:53:37Z</time>
      </trkpt>
      <trkpt lat="43.6515" lon="3.39657">
        <ele>173.6</ele>
        <time>2024-08-06T08:53:38Z</time>
      </trkpt>
      <trkpt lat="43.6515" lon="3.39649">
        <ele>173.6</ele>
        <time>2024-08-06T08:53:39Z</time>
      </trkpt>
      <trkpt lat="43.65149" lon="3.39641">
        <ele>174</ele>
        <time>2024-08-06T08:53:40Z</time>
      </trkpt>
      <trkpt lat="43.65148" lon="3.39633">
        <ele>174.2</ele>
        <time>2024-08-06T08:53:41Z</time>
      </trkpt>
      <trkpt lat="43.65148" lon="3.39625">
        <ele>173.9</ele>
        <time>2024-08-06T08:53:42Z</time>
      </trkpt>
      <trkpt lat="43.65147" lon="3.39617">
        <ele>174</ele>
        <time>2024-08-06T08:53:43Z</time>
      </trkpt>
      <trkpt lat="43.65147" lon="3.39609">
        <ele>173.7</ele>
        <time>2024-08-06T08:53:44Z</time>
      </trkpt>
      <trkpt lat="43.65147" lon="3.396">
        <ele>173.5</ele>
        <time>2024-08-06T08:53:45Z</time>
      </trkpt>
      <trkpt lat="43.65147" lon="3.39592">
        <ele>173.3</ele>
        <time>2024-08-06T08:53:46Z</time>
      </trkpt>
      <trkpt lat="43.65147" lon="3.39584">
        <ele>173.1</ele>
        <time>2024-08-06T08:53:47Z</time>
      </trkpt>
      <trkpt lat="43.65148" lon="3.39576">
        <ele>173.2</ele>
        <time>2024-08-06T08:53:48Z</time>
      </trkpt>
      <trkpt lat="43.65148" lon="3.39568">
        <ele>173.6</ele>
        <time>2024-08-06T08:53:49Z</time>
      </trkpt>
      <trkpt lat="43.65149" lon="3.3956">
        <ele>173.8</ele>
        <time>2024-08-06T08:53:50Z</time>
      </trkpt>
      <trkpt lat="43.65151" lon="3.39552">
        <ele>173.8</ele>
        <time>2024-08-06T08:53:51Z</time>
      </trkpt>
      <trkpt lat="43.65152" lon="3.39544">
        <ele>174.2</ele>
        <time>2024-08-06T08:53:52Z</time>
      </trkpt>
      <trkpt lat="43.65154" lon="3.39536">
        <ele>174.5</ele>
        <time>2024-08-06T08:53:53Z</time>
      </trkpt>
      <trkpt lat="43.65155" lon="3.39529">
        <ele>175</ele>
        <time>2024-08-06T08:53:54Z</time>
      </trkpt>
      <trkpt lat="43.65157" lon="3.39522">
        <ele>175.2</ele>
        <time>2024-08-06T08:53:55Z</time>
      </trkpt>
      <trkpt lat="43.65158" lon="3.39515">
        <ele>175.5</ele>
        <time>2024-08-06T08:53:56Z</time>
      </trkpt>
      <trkpt lat="43.6516" lon="3.39509">
        <ele>175.6</ele>
        <time>2024-08-06T08:53:57Z</time>
      </trkpt>
      <trkpt lat="43.65161" lon="3.39504">
        <ele>175.7</ele>
        <time>2024-08-06T08:53:58Z</time>
      </trkpt>
      <trkpt lat="43.65162" lon="3.39498">
        <ele>175.9</ele>
        <time>2024-08-06T08:53:59Z</time>
      </trkpt>
      <trkpt lat="43.65163" lon="3.39493">
        <ele>175.9</ele>
        <time>2024-08-06T08:54:00Z</time>
      </trkpt>
      <trkpt lat="43.65164" lon="3.39488">
        <ele>176</ele>
        <time>2024-08-06T08:54:01Z</time>
      </trkpt>
      <trkpt lat="43.65165" lon="3.39482">
        <ele>176</ele>
        <time>2024-08-06T08:54:02Z</time>
      </trkpt>
      <trkpt lat="43.65165" lon="3.39477">
        <ele>176.2</ele>
        <time>2024-08-06T08:54:03Z</time>
      </trkpt>
      <trkpt lat="43.65166" lon="3.39472">
        <ele>176.1</ele>
        <time>2024-08-06T08:54:04Z</time>
      </trkpt>
      <trkpt lat="43.65166" lon="3.39467">
        <ele>176.1</ele>
        <time>2024-08-06T08:54:05Z</time>
      </trkpt>
      <trkpt lat="43.65166" lon="3.39462">
        <ele>176.2</ele>
        <time>2024-08-06T08:54:06Z</time>
      </trkpt>
      <trkpt lat="43.65166" lon="3.39456">
        <ele>176.2</ele>
        <time>2024-08-06T08:54:07Z</time>
      </trkpt>
      <trkpt lat="43.65166" lon="3.3945">
        <ele>176.2</ele>
        <time>2024-08-06T08:54:08Z</time>
      </trkpt>
      <trkpt lat="43.65166" lon="3.39445">
        <ele>176.2</ele>
        <time>2024-08-06T08:54:09Z</time>
      </trkpt>
      <trkpt lat="43.65166" lon="3.39439">
        <ele>176.4</ele>
        <time>2024-08-06T08:54:10Z</time>
      </trkpt>
      <trkpt lat="43.65166" lon="3.39434">
        <ele>176.5</ele>
        <time>2024-08-06T08:54:11Z</time>
      </trkpt>
      <trkpt lat="43.65165" lon="3.39429">
        <ele>176.9</ele>
        <time>2024-08-06T08:54:12Z</time>
      </trkpt>
      <trkpt lat="43.65165" lon="3.39423">
        <ele>177.1</ele>
        <time>2024-08-06T08:54:13Z</time>
      </trkpt>
      <trkpt lat="43.65164" lon="3.39416">
        <ele>177.5</ele>
        <time>2024-08-06T08:54:14Z</time>
      </trkpt>
      <trkpt lat="43.65163" lon="3.3941">
        <ele>177.6</ele>
        <time>2024-08-06T08:54:15Z</time>
      </trkpt>
      <trkpt lat="43.65163" lon="3.39404">
        <ele>177.6</ele>
        <time>2024-08-06T08:54:16Z</time>
      </trkpt>
      <trkpt lat="43.65162" lon="3.39399">
        <ele>177.7</ele>
        <time>2024-08-06T08:54:17Z</time>
      </trkpt>
      <trkpt lat="43.65162" lon="3.39394">
        <ele>177.7</ele>
        <time>2024-08-06T08:54:18Z</time>
      </trkpt>
      <trkpt lat="43.65162" lon="3.39389">
        <ele>177.7</ele>
        <time>2024-08-06T08:54:19Z</time>
      </trkpt>
      <trkpt lat="43.65162" lon="3.39384">
        <ele>177.8</ele>
        <time>2024-08-06T08:54:20Z</time>
      </trkpt>
      <trkpt lat="43.65161" lon="3.3938">
        <ele>178</ele>
        <time>2024-08-06T08:54:21Z</time>
      </trkpt>
      <trkpt lat="43.65161" lon="3.39375">
        <ele>178.1</ele>
        <time>2024-08-06T08:54:22Z</time>
      </trkpt>
      <trkpt lat="43.65161" lon="3.39371">
        <ele>178.2</ele>
        <time>2024-08-06T08:54:23Z</time>
      </trkpt>
      <trkpt lat="43.6516" lon="3.39366">
        <ele>178.4</ele>
        <time>2024-08-06T08:54:24Z</time>
      </trkpt>
      <trkpt lat="43.65159" lon="3.39361">
        <ele>178.6</ele>
        <time>2024-08-06T08:54:25Z</time>
      </trkpt>
      <trkpt lat="43.65159" lon="3.39355">
        <ele>178.5</ele>
        <time>2024-08-06T08:54:26Z</time>
      </trkpt>
      <trkpt lat="43.65158" lon="3.39351">
        <ele>178.5</ele>
        <time>2024-08-06T08:54:27Z</time>
      </trkpt>
      <trkpt lat="43.65158" lon="3.39346">
        <ele>178.5</ele>
        <time>2024-08-06T08:54:28Z</time>
      </trkpt>
      <trkpt lat="43.65158" lon="3.39342">
        <ele>178.4</ele>
        <time>2024-08-06T08:54:29Z</time>
      </trkpt>
      <trkpt lat="43.65157" lon="3.39338">
        <ele>178.4</ele>
        <time>2024-08-06T08:54:30Z</time>
      </trkpt>
      <trkpt lat="43.65157" lon="3.39334">
        <ele>178.4</ele>
        <time>2024-08-06T08:54:31Z</time>
      </trkpt>
      <trkpt lat="43.65156" lon="3.39329">
        <ele>178.4</ele>
        <time>2024-08-06T08:54:32Z</time>
      </trkpt>
      <trkpt lat="43.65155" lon="3.39324">
        <ele>178.4</ele>
        <time>2024-08-06T08:54:33Z</time>
      </trkpt>
      <trkpt lat="43.65154" lon="3.39319">
        <ele>178.5</ele>
        <time>2024-08-06T08:54:34Z</time>
      </trkpt>
      <trkpt lat="43.65154" lon="3.39315">
        <ele>178.5</ele>
        <time>2024-08-06T08:54:35Z</time>
      </trkpt>
      <trkpt lat="43.65153" lon="3.39311">
        <ele>178.5</ele>
        <time>2024-08-06T08:54:36Z</time>
      </trkpt>
      <trkpt lat="43.65153" lon="3.39307">
        <ele>178.5</ele>
        <time>2024-08-06T08:54:37Z</time>
      </trkpt>
      <trkpt lat="43.65152" lon="3.39303">
        <ele>178.5</ele>
        <time>2024-08-06T08:54:38Z</time>
      </trkpt>
      <trkpt lat="43.65152" lon="3.39299">
        <ele>178.5</ele>
        <time>2024-08-06T08:54:39Z</time>
      </trkpt>
      <trkpt lat="43.65152" lon="3.39294">
        <ele>178.5</ele>
        <time>2024-08-06T08:54:40Z</time>
      </trkpt>
      <trkpt lat="43.65151" lon="3.39289">
        <ele>178.6</ele>
        <time>2024-08-06T08:54:41Z</time>
      </trkpt>
      <trkpt lat="43.6515" lon="3.39285">
        <ele>178.6</ele>
        <time>2024-08-06T08:54:42Z</time>
      </trkpt>
      <trkpt lat="43.6515" lon="3.3928">
        <ele>178.6</ele>
        <time>2024-08-06T08:54:43Z</time>
      </trkpt>
      <trkpt lat="43.65148" lon="3.39274">
        <ele>178.7</ele>
        <time>2024-08-06T08:54:44Z</time>
      </trkpt>
      <trkpt lat="43.65147" lon="3.39269">
        <ele>178.8</ele>
        <time>2024-08-06T08:54:45Z</time>
      </trkpt>
      <trkpt lat="43.65146" lon="3.39263">
        <ele>178.9</ele>
        <time>2024-08-06T08:54:46Z</time>
      </trkpt>
      <trkpt lat="43.65146" lon="3.39259">
        <ele>178.9</ele>
        <time>2024-08-06T08:54:47Z</time>
      </trkpt>
      <trkpt lat="43.65145" lon="3.39256">
        <ele>179</ele>
        <time>2024-08-06T08:54:48Z</time>
      </trkpt>
      <trkpt lat="43.65144" lon="3.39252">
        <ele>179</ele>
        <time>2024-08-06T08:54:49Z</time>
      </trkpt>
      <trkpt lat="43.65142" lon="3.39249">
        <ele>179</ele>
        <time>2024-08-06T08:54:50Z</time>
      </trkpt>
      <trkpt lat="43.65141" lon="3.39244">
        <ele>179</ele>
        <time>2024-08-06T08:54:51Z</time>
      </trkpt>
      <trkpt lat="43.6514" lon="3.39238">
        <ele>179</ele>
        <time>2024-08-06T08:54:52Z</time>
      </trkpt>
      <trkpt lat="43.65138" lon="3.39233">
        <ele>179.1</ele>
        <time>2024-08-06T08:54:53Z</time>
      </trkpt>
      <trkpt lat="43.65136" lon="3.39227">
        <ele>179.1</ele>
        <time>2024-08-06T08:54:54Z</time>
      </trkpt>
      <trkpt lat="43.65135" lon="3.39221">
        <ele>179.2</ele>
        <time>2024-08-06T08:54:55Z</time>
      </trkpt>
      <trkpt lat="43.65133" lon="3.39215">
        <ele>179.4</ele>
        <time>2024-08-06T08:54:56Z</time>
      </trkpt>
      <trkpt lat="43.6513" lon="3.39208">
        <ele>179.5</ele>
        <time>2024-08-06T08:54:57Z</time>
      </trkpt>
      <trkpt lat="43.65128" lon="3.39202">
        <ele>179.5</ele>
        <time>2024-08-06T08:54:58Z</time>
      </trkpt>
      <trkpt lat="43.65126" lon="3.39196">
        <ele>179.5</ele>
        <time>2024-08-06T08:54:59Z</time>
      </trkpt>
      <trkpt lat="43.65125" lon="3.39191">
        <ele>179.7</ele>
        <time>2024-08-06T08:55:00Z</time>
      </trkpt>
      <trkpt lat="43.65123" lon="3.39185">
        <ele>179.9</ele>
        <time>2024-08-06T08:55:01Z</time>
      </trkpt>
      <trkpt lat="43.6512" lon="3.3918">
        <ele>179.8</ele>
        <time>2024-08-06T08:55:02Z</time>
      </trkpt>
      <trkpt lat="43.65118" lon="3.39174">
        <ele>179.8</ele>
        <time>2024-08-06T08:55:03Z</time>
      </trkpt>
      <trkpt lat="43.65115" lon="3.39169">
        <ele>179.5</ele>
        <time>2024-08-06T08:55:04Z</time>
      </trkpt>
      <trkpt lat="43.65113" lon="3.39164">
        <ele>179.5</ele>
        <time>2024-08-06T08:55:05Z</time>
      </trkpt>
      <trkpt lat="43.65111" lon="3.3916">
        <ele>179.5</ele>
        <time>2024-08-06T08:55:06Z</time>
      </trkpt>
      <trkpt lat="43.65109" lon="3.39156">
        <ele>179.8</ele>
        <time>2024-08-06T08:55:07Z</time>
      </trkpt>
      <trkpt lat="43.65107" lon="3.39151">
        <ele>180</ele>
        <time>2024-08-06T08:55:08Z</time>
      </trkpt>
      <trkpt lat="43.65104" lon="3.39146">
        <ele>180.2</ele>
        <time>2024-08-06T08:55:09Z</time>
      </trkpt>
      <trkpt lat="43.65102" lon="3.39141">
        <ele>180.3</ele>
        <time>2024-08-06T08:55:10Z</time>
      </trkpt>
      <trkpt lat="43.65099" lon="3.39136">
        <ele>180.4</ele>
        <time>2024-08-06T08:55:11Z</time>
      </trkpt>
      <trkpt lat="43.65097" lon="3.39131">
        <ele>180.7</ele>
        <time>2024-08-06T08:55:12Z</time>
      </trkpt>
      <trkpt lat="43.65094" lon="3.39127">
        <ele>180.6</ele>
        <time>2024-08-06T08:55:13Z</time>
      </trkpt>
      <trkpt lat="43.65091" lon="3.39123">
        <ele>180.3</ele>
        <time>2024-08-06T08:55:14Z</time>
      </trkpt>
      <trkpt lat="43.65088" lon="3.39118">
        <ele>180</ele>
        <time>2024-08-06T08:55:15Z</time>
      </trkpt>
      <trkpt lat="43.65085" lon="3.39115">
        <ele>179.4</ele>
        <time>2024-08-06T08:55:16Z</time>
      </trkpt>
      <trkpt lat="43.65082" lon="3.39111">
        <ele>179</ele>
        <time>2024-08-06T08:55:17Z</time>
      </trkpt>
      <trkpt lat="43.65079" lon="3.39108">
        <ele>179.3</ele>
        <time>2024-08-06T08:55:18Z</time>
      </trkpt>
      <trkpt lat="43.65076" lon="3.39104">
        <ele>179.5</ele>
        <time>2024-08-06T08:55:19Z</time>
      </trkpt>
      <trkpt lat="43.65073" lon="3.391">
        <ele>179.6</ele>
        <time>2024-08-06T08:55:20Z</time>
      </trkpt>
      <trkpt lat="43.65069" lon="3.39096">
        <ele>179.5</ele>
        <time>2024-08-06T08:55:21Z</time>
      </trkpt>
      <trkpt lat="43.65066" lon="3.39093">
        <ele>179.3</ele>
        <time>2024-08-06T08:55:22Z</time>
      </trkpt>
      <trkpt lat="43.65061" lon="3.3909">
        <ele>178.8</ele>
        <time>2024-08-06T08:55:23Z</time>
      </trkpt>
      <trkpt lat="43.65057" lon="3.39086">
        <ele>178.3</ele>
        <time>2024-08-06T08:55:24Z</time>
      </trkpt>
      <trkpt lat="43.65052" lon="3.39083">
        <ele>177.9</ele>
        <time>2024-08-06T08:55:25Z</time>
      </trkpt>
      <trkpt lat="43.65047" lon="3.39079">
        <ele>178</ele>
        <time>2024-08-06T08:55:26Z</time>
      </trkpt>
      <trkpt lat="43.65043" lon="3.39076">
        <ele>177.9</ele>
        <time>2024-08-06T08:55:27Z</time>
      </trkpt>
      <trkpt lat="43.65038" lon="3.39074">
        <ele>177.5</ele>
        <time>2024-08-06T08:55:28Z</time>
      </trkpt>
      <trkpt lat="43.65034" lon="3.39072">
        <ele>177.2</ele>
        <time>2024-08-06T08:55:29Z</time>
      </trkpt>
      <trkpt lat="43.6503" lon="3.3907">
        <ele>176.8</ele>
        <time>2024-08-06T08:55:30Z</time>
      </trkpt>
      <trkpt lat="43.65027" lon="3.39069">
        <ele>176.5</ele>
        <time>2024-08-06T08:55:31Z</time>
      </trkpt>
      <trkpt lat="43.65024" lon="3.39068">
        <ele>176.3</ele>
        <time>2024-08-06T08:55:32Z</time>
      </trkpt>
      <trkpt lat="43.65021" lon="3.39067">
        <ele>176.1</ele>
        <time>2024-08-06T08:55:33Z</time>
      </trkpt>
      <trkpt lat="43.65018" lon="3.39066">
        <ele>175.9</ele>
        <time>2024-08-06T08:55:34Z</time>
      </trkpt>
      <trkpt lat="43.65016" lon="3.39064">
        <ele>175.7</ele>
        <time>2024-08-06T08:55:35Z</time>
      </trkpt>
      <trkpt lat="43.65015" lon="3.39061">
        <ele>175.5</ele>
        <time>2024-08-06T08:55:36Z</time>
      </trkpt>
      <trkpt lat="43.65014" lon="3.39056">
        <ele>175</ele>
        <time>2024-08-06T08:55:37Z</time>
      </trkpt>
      <trkpt lat="43.65015" lon="3.39052">
        <ele>175.2</ele>
        <time>2024-08-06T08:55:38Z</time>
      </trkpt>
      <trkpt lat="43.65016" lon="3.39047">
        <ele>175.5</ele>
        <time>2024-08-06T08:55:39Z</time>
      </trkpt>
      <trkpt lat="43.65017" lon="3.39043">
        <ele>175.7</ele>
        <time>2024-08-06T08:55:40Z</time>
      </trkpt>
      <trkpt lat="43.65018" lon="3.39039">
        <ele>175.9</ele>
        <time>2024-08-06T08:55:41Z</time>
      </trkpt>
      <trkpt lat="43.65019" lon="3.39035">
        <ele>176.1</ele>
        <time>2024-08-06T08:55:42Z</time>
      </trkpt>
      <trkpt lat="43.6502" lon="3.3903">
        <ele>176.4</ele>
        <time>2024-08-06T08:55:43Z</time>
      </trkpt>
      <trkpt lat="43.65021" lon="3.39026">
        <ele>176.5</ele>
        <time>2024-08-06T08:55:44Z</time>
      </trkpt>
      <trkpt lat="43.65022" lon="3.39022">
        <ele>176.5</ele>
        <time>2024-08-06T08:55:45Z</time>
      </trkpt>
      <trkpt lat="43.65022" lon="3.39019">
        <ele>176.5</ele>
        <time>2024-08-06T08:55:46Z</time>
      </trkpt>
      <trkpt lat="43.65022" lon="3.39015">
        <ele>176.5</ele>
        <time>2024-08-06T08:55:47Z</time>
      </trkpt>
      <trkpt lat="43.65022" lon="3.39011">
        <ele>176.5</ele>
        <time>2024-08-06T08:55:48Z</time>
      </trkpt>
      <trkpt lat="43.65023" lon="3.39007">
        <ele>176.5</ele>
        <time>2024-08-06T08:55:49Z</time>
      </trkpt>
      <trkpt lat="43.65024" lon="3.39004">
        <ele>176.6</ele>
        <time>2024-08-06T08:55:50Z</time>
      </trkpt>
      <trkpt lat="43.65026" lon="3.39002">
        <ele>176.8</ele>
        <time>2024-08-06T08:55:51Z</time>
      </trkpt>
      <trkpt lat="43.65028" lon="3.39001">
        <ele>177.1</ele>
        <time>2024-08-06T08:55:52Z</time>
      </trkpt>
      <trkpt lat="43.6503" lon="3.38998">
        <ele>177.9</ele>
        <time>2024-08-06T08:55:53Z</time>
      </trkpt>
      <trkpt lat="43.65032" lon="3.38995">
        <ele>178.5</ele>
        <time>2024-08-06T08:55:54Z</time>
      </trkpt>
      <trkpt lat="43.65034" lon="3.38991">
        <ele>179.1</ele>
        <time>2024-08-06T08:55:55Z</time>
      </trkpt>
      <trkpt lat="43.65036" lon="3.38987">
        <ele>179.6</ele>
        <time>2024-08-06T08:55:56Z</time>
      </trkpt>
      <trkpt lat="43.65038" lon="3.38985">
        <ele>180.1</ele>
        <time>2024-08-06T08:55:57Z</time>
      </trkpt>
      <trkpt lat="43.65041" lon="3.38982">
        <ele>180.7</ele>
        <time>2024-08-06T08:55:58Z</time>
      </trkpt>
      <trkpt lat="43.65043" lon="3.3898">
        <ele>181.1</ele>
        <time>2024-08-06T08:55:59Z</time>
      </trkpt>
      <trkpt lat="43.65045" lon="3.38977">
        <ele>181.3</ele>
        <time>2024-08-06T08:56:00Z</time>
      </trkpt>
      <trkpt lat="43.65047" lon="3.38976">
        <ele>181.6</ele>
        <time>2024-08-06T08:56:01Z</time>
      </trkpt>
      <trkpt lat="43.65049" lon="3.38974">
        <ele>181.8</ele>
        <time>2024-08-06T08:56:02Z</time>
      </trkpt>
      <trkpt lat="43.65052" lon="3.38972">
        <ele>182.2</ele>
        <time>2024-08-06T08:56:03Z</time>
      </trkpt>
      <trkpt lat="43.65054" lon="3.3897">
        <ele>182.6</ele>
        <time>2024-08-06T08:56:04Z</time>
      </trkpt>
      <trkpt lat="43.65056" lon="3.38968">
        <ele>183</ele>
        <time>2024-08-06T08:56:05Z</time>
      </trkpt>
      <trkpt lat="43.65059" lon="3.38967">
        <ele>183.8</ele>
        <time>2024-08-06T08:56:06Z</time>
      </trkpt>
      <trkpt lat="43.65061" lon="3.38964">
        <ele>184.3</ele>
        <time>2024-08-06T08:56:07Z</time>
      </trkpt>
      <trkpt lat="43.65062" lon="3.38963">
        <ele>184.5</ele>
        <time>2024-08-06T08:56:08Z</time>
      </trkpt>
      <trkpt lat="43.65064" lon="3.38961">
        <ele>185</ele>
        <time>2024-08-06T08:56:09Z</time>
      </trkpt>
      <trkpt lat="43.65065" lon="3.38959">
        <ele>185.2</ele>
        <time>2024-08-06T08:56:10Z</time>
      </trkpt>
      <trkpt lat="43.65066" lon="3.38957">
        <ele>185.5</ele>
        <time>2024-08-06T08:56:11Z</time>
      </trkpt>
      <trkpt lat="43.65067" lon="3.38955">
        <ele>185.7</ele>
        <time>2024-08-06T08:56:12Z</time>
      </trkpt>
      <trkpt lat="43.65068" lon="3.38952">
        <ele>185.9</ele>
        <time>2024-08-06T08:56:13Z</time>
      </trkpt>
      <trkpt lat="43.65069" lon="3.38949">
        <ele>186</ele>
        <time>2024-08-06T08:56:14Z</time>
      </trkpt>
      <trkpt lat="43.6507" lon="3.38947">
        <ele>186.3</ele>
        <time>2024-08-06T08:56:15Z</time>
      </trkpt>
      <trkpt lat="43.65071" lon="3.38944">
        <ele>186.4</ele>
        <time>2024-08-06T08:56:16Z</time>
      </trkpt>
      <trkpt lat="43.65072" lon="3.38941">
        <ele>186.7</ele>
        <time>2024-08-06T08:56:17Z</time>
      </trkpt>
      <trkpt lat="43.65074" lon="3.38938">
        <ele>187.2</ele>
        <time>2024-08-06T08:56:18Z</time>
      </trkpt>
      <trkpt lat="43.65075" lon="3.38934">
        <ele>187.3</ele>
        <time>2024-08-06T08:56:19Z</time>
      </trkpt>
      <trkpt lat="43.65076" lon="3.38931">
        <ele>187.5</ele>
        <time>2024-08-06T08:56:20Z</time>
      </trkpt>
      <trkpt lat="43.65077" lon="3.38927">
        <ele>187.7</ele>
        <time>2024-08-06T08:56:21Z</time>
      </trkpt>
      <trkpt lat="43.65078" lon="3.38924">
        <ele>187.9</ele>
        <time>2024-08-06T08:56:22Z</time>
      </trkpt>
      <trkpt lat="43.65079" lon="3.3892">
        <ele>188</ele>
        <time>2024-08-06T08:56:23Z</time>
      </trkpt>
      <trkpt lat="43.65079" lon="3.38917">
        <ele>187.9</ele>
        <time>2024-08-06T08:56:24Z</time>
      </trkpt>
      <trkpt lat="43.6508" lon="3.38914">
        <ele>188.2</ele>
        <time>2024-08-06T08:56:25Z</time>
      </trkpt>
      <trkpt lat="43.65081" lon="3.38912">
        <ele>188.6</ele>
        <time>2024-08-06T08:56:26Z</time>
      </trkpt>
      <trkpt lat="43.65082" lon="3.38909">
        <ele>188.9</ele>
        <time>2024-08-06T08:56:27Z</time>
      </trkpt>
      <trkpt lat="43.65082" lon="3.38906">
        <ele>189</ele>
        <time>2024-08-06T08:56:28Z</time>
      </trkpt>
      <trkpt lat="43.65083" lon="3.38902">
        <ele>189.4</ele>
        <time>2024-08-06T08:56:29Z</time>
      </trkpt>
      <trkpt lat="43.65084" lon="3.38899">
        <ele>189.9</ele>
        <time>2024-08-06T08:56:30Z</time>
      </trkpt>
      <trkpt lat="43.65085" lon="3.38895">
        <ele>190.3</ele>
        <time>2024-08-06T08:56:31Z</time>
      </trkpt>
      <trkpt lat="43.65087" lon="3.38893">
        <ele>191.1</ele>
        <time>2024-08-06T08:56:32Z</time>
      </trkpt>
      <trkpt lat="43.65088" lon="3.3889">
        <ele>191.5</ele>
        <time>2024-08-06T08:56:33Z</time>
      </trkpt>
      <trkpt lat="43.6509" lon="3.38887">
        <ele>192.1</ele>
        <time>2024-08-06T08:56:34Z</time>
      </trkpt>
      <trkpt lat="43.65091" lon="3.38884">
        <ele>192.3</ele>
        <time>2024-08-06T08:56:35Z</time>
      </trkpt>
      <trkpt lat="43.65092" lon="3.38881">
        <ele>192.5</ele>
        <time>2024-08-06T08:56:36Z</time>
      </trkpt>
      <trkpt lat="43.65094" lon="3.38878">
        <ele>193.1</ele>
        <time>2024-08-06T08:56:37Z</time>
      </trkpt>
      <trkpt lat="43.65095" lon="3.38875">
        <ele>193.3</ele>
        <time>2024-08-06T08:56:38Z</time>
      </trkpt>
      <trkpt lat="43.65097" lon="3.38873">
        <ele>193.9</ele>
        <time>2024-08-06T08:56:39Z</time>
      </trkpt>
      <trkpt lat="43.65098" lon="3.3887">
        <ele>194.1</ele>
        <time>2024-08-06T08:56:40Z</time>
      </trkpt>
      <trkpt lat="43.65099" lon="3.38867">
        <ele>194.3</ele>
        <time>2024-08-06T08:56:41Z</time>
      </trkpt>
      <trkpt lat="43.651" lon="3.38864">
        <ele>194.5</ele>
        <time>2024-08-06T08:56:42Z</time>
      </trkpt>
      <trkpt lat="43.65101" lon="3.38861">
        <ele>194.7</ele>
        <time>2024-08-06T08:56:43Z</time>
      </trkpt>
      <trkpt lat="43.65102" lon="3.38859">
        <ele>194.9</ele>
        <time>2024-08-06T08:56:44Z</time>
      </trkpt>
      <trkpt lat="43.65103" lon="3.38856">
        <ele>195</ele>
        <time>2024-08-06T08:56:45Z</time>
      </trkpt>
      <trkpt lat="43.65104" lon="3.38853">
        <ele>195.1</ele>
        <time>2024-08-06T08:56:46Z</time>
      </trkpt>
      <trkpt lat="43.65106" lon="3.3885">
        <ele>195.5</ele>
        <time>2024-08-06T08:56:47Z</time>
      </trkpt>
      <trkpt lat="43.65108" lon="3.38847">
        <ele>196</ele>
        <time>2024-08-06T08:56:48Z</time>
      </trkpt>
      <trkpt lat="43.65109" lon="3.38844">
        <ele>196.1</ele>
        <time>2024-08-06T08:56:49Z</time>
      </trkpt>
      <trkpt lat="43.65111" lon="3.38841">
        <ele>196.5</ele>
        <time>2024-08-06T08:56:50Z</time>
      </trkpt>
      <trkpt lat="43.65112" lon="3.38838">
        <ele>196.6</ele>
        <time>2024-08-06T08:56:51Z</time>
      </trkpt>
      <trkpt lat="43.65114" lon="3.38836">
        <ele>197</ele>
        <time>2024-08-06T08:56:52Z</time>
      </trkpt>
      <trkpt lat="43.65115" lon="3.38834">
        <ele>197.2</ele>
        <time>2024-08-06T08:56:53Z</time>
      </trkpt>
      <trkpt lat="43.65117" lon="3.38832">
        <ele>197.6</ele>
        <time>2024-08-06T08:56:54Z</time>
      </trkpt>
      <trkpt lat="43.65118" lon="3.3883">
        <ele>197.6</ele>
        <time>2024-08-06T08:56:55Z</time>
      </trkpt>
      <trkpt lat="43.6512" lon="3.38828">
        <ele>198</ele>
        <time>2024-08-06T08:56:56Z</time>
      </trkpt>
      <trkpt lat="43.65122" lon="3.38826">
        <ele>198.3</ele>
        <time>2024-08-06T08:56:57Z</time>
      </trkpt>
      <trkpt lat="43.65123" lon="3.38824">
        <ele>198.4</ele>
        <time>2024-08-06T08:56:58Z</time>
      </trkpt>
      <trkpt lat="43.65126" lon="3.38822">
        <ele>199.1</ele>
        <time>2024-08-06T08:56:59Z</time>
      </trkpt>
      <trkpt lat="43.65128" lon="3.3882">
        <ele>199.4</ele>
        <time>2024-08-06T08:57:00Z</time>
      </trkpt>
      <trkpt lat="43.6513" lon="3.38818">
        <ele>199.8</ele>
        <time>2024-08-06T08:57:01Z</time>
      </trkpt>
      <trkpt lat="43.65131" lon="3.38816">
        <ele>199.9</ele>
        <time>2024-08-06T08:57:02Z</time>
      </trkpt>
      <trkpt lat="43.65132" lon="3.38815">
        <ele>200</ele>
        <time>2024-08-06T08:57:03Z</time>
      </trkpt>
      <trkpt lat="43.65134" lon="3.38814">
        <ele>200.5</ele>
        <time>2024-08-06T08:57:04Z</time>
      </trkpt>
      <trkpt lat="43.65135" lon="3.38812">
        <ele>200.6</ele>
        <time>2024-08-06T08:57:05Z</time>
      </trkpt>
      <trkpt lat="43.65137" lon="3.3881">
        <ele>200.9</ele>
        <time>2024-08-06T08:57:06Z</time>
      </trkpt>
      <trkpt lat="43.65139" lon="3.38809">
        <ele>201.4</ele>
        <time>2024-08-06T08:57:07Z</time>
      </trkpt>
      <trkpt lat="43.65141" lon="3.38808">
        <ele>202</ele>
        <time>2024-08-06T08:57:08Z</time>
      </trkpt>
      <trkpt lat="43.65142" lon="3.38807">
        <ele>202.2</ele>
        <time>2024-08-06T08:57:09Z</time>
      </trkpt>
      <trkpt lat="43.65144" lon="3.38806">
        <ele>202.7</ele>
        <time>2024-08-06T08:57:10Z</time>
      </trkpt>
      <trkpt lat="43.65146" lon="3.38804">
        <ele>203.1</ele>
        <time>2024-08-06T08:57:11Z</time>
      </trkpt>
      <trkpt lat="43.65147" lon="3.38803">
        <ele>203.4</ele>
        <time>2024-08-06T08:57:12Z</time>
      </trkpt>
      <trkpt lat="43.65149" lon="3.38801">
        <ele>203.8</ele>
        <time>2024-08-06T08:57:13Z</time>
      </trkpt>
      <trkpt lat="43.6515" lon="3.388">
        <ele>204</ele>
        <time>2024-08-06T08:57:14Z</time>
      </trkpt>
      <trkpt lat="43.65152" lon="3.38799">
        <ele>204.5</ele>
        <time>2024-08-06T08:57:15Z</time>
      </trkpt>
      <trkpt lat="43.65153" lon="3.38798">
        <ele>204.8</ele>
        <time>2024-08-06T08:57:16Z</time>
      </trkpt>
      <trkpt lat="43.65154" lon="3.38796">
        <ele>204.9</ele>
        <time>2024-08-06T08:57:17Z</time>
      </trkpt>
      <trkpt lat="43.65155" lon="3.38795">
        <ele>205.1</ele>
        <time>2024-08-06T08:57:18Z</time>
      </trkpt>
      <trkpt lat="43.65157" lon="3.38793">
        <ele>205.5</ele>
        <time>2024-08-06T08:57:19Z</time>
      </trkpt>
      <trkpt lat="43.65158" lon="3.38792">
        <ele>205.7</ele>
        <time>2024-08-06T08:57:20Z</time>
      </trkpt>
      <trkpt lat="43.65159" lon="3.3879">
        <ele>205.8</ele>
        <time>2024-08-06T08:57:21Z</time>
      </trkpt>
      <trkpt lat="43.65159" lon="3.3879">
        <ele>205.8</ele>
        <time>2024-08-06T08:57:22Z</time>
      </trkpt>
      <trkpt lat="43.65161" lon="3.38788">
        <ele>206.3</ele>
        <time>2024-08-06T08:57:23Z</time>
      </trkpt>
      <trkpt lat="43.65162" lon="3.38787">
        <ele>206.5</ele>
        <time>2024-08-06T08:57:24Z</time>
      </trkpt>
      <trkpt lat="43.65164" lon="3.38786">
        <ele>207</ele>
        <time>2024-08-06T08:57:25Z</time>
      </trkpt>
      <trkpt lat="43.65165" lon="3.38784">
        <ele>207.1</ele>
        <time>2024-08-06T08:57:26Z</time>
      </trkpt>
      <trkpt lat="43.65166" lon="3.38782">
        <ele>207.2</ele>
        <time>2024-08-06T08:57:27Z</time>
      </trkpt>
      <trkpt lat="43.65168" lon="3.3878">
        <ele>207.7</ele>
        <time>2024-08-06T08:57:28Z</time>
      </trkpt>
      <trkpt lat="43.65168" lon="3.38778">
        <ele>207.5</ele>
        <time>2024-08-06T08:57:29Z</time>
      </trkpt>
      <trkpt lat="43.65167" lon="3.38777">
        <ele>207.1</ele>
        <time>2024-08-06T08:57:30Z</time>
      </trkpt>
      <trkpt lat="43.65167" lon="3.38777">
        <ele>207.1</ele>
        <time>2024-08-06T08:57:31Z</time>
      </trkpt>
      <trkpt lat="43.65167" lon="3.38777">
        <ele>207.1</ele>
        <time>2024-08-06T08:57:32Z</time>
      </trkpt>
      <trkpt lat="43.65164" lon="3.38774">
        <ele>205.9</ele>
        <time>2024-08-06T08:57:55Z</time>
      </trkpt>
      <trkpt lat="43.65162" lon="3.38774">
        <ele>205.2</ele>
        <time>2024-08-06T08:57:56Z</time>
      </trkpt>
      <trkpt lat="43.65161" lon="3.38776">
        <ele>205</ele>
        <time>2024-08-06T08:57:57Z</time>
      </trkpt>
      <trkpt lat="43.65159" lon="3.38777">
        <ele>204.5</ele>
        <time>2024-08-06T08:57:58Z</time>
      </trkpt>
      <trkpt lat="43.65156" lon="3.38778">
        <ele>203.6</ele>
        <time>2024-08-06T08:57:59Z</time>
      </trkpt>
      <trkpt lat="43.65153" lon="3.38779">
        <ele>202.7</ele>
        <time>2024-08-06T08:58:00Z</time>
      </trkpt>
      <trkpt lat="43.65151" lon="3.38779">
        <ele>202.1</ele>
        <time>2024-08-06T08:58:01Z</time>
      </trkpt>
      <trkpt lat="43.65149" lon="3.38781">
        <ele>201.6</ele>
        <time>2024-08-06T08:58:02Z</time>
      </trkpt>
      <trkpt lat="43.65147" lon="3.38783">
        <ele>201.2</ele>
        <time>2024-08-06T08:58:03Z</time>
      </trkpt>
      <trkpt lat="43.65145" lon="3.38785">
        <ele>200.8</ele>
        <time>2024-08-06T08:58:04Z</time>
      </trkpt>
      <trkpt lat="43.65143" lon="3.38786">
        <ele>200.2</ele>
        <time>2024-08-06T08:58:05Z</time>
      </trkpt>
      <trkpt lat="43.65141" lon="3.38788">
        <ele>199.8</ele>
        <time>2024-08-06T08:58:06Z</time>
      </trkpt>
      <trkpt lat="43.65137" lon="3.3879">
        <ele>198.8</ele>
        <time>2024-08-06T08:58:07Z</time>
      </trkpt>
      <trkpt lat="43.65134" lon="3.38792">
        <ele>198.1</ele>
        <time>2024-08-06T08:58:08Z</time>
      </trkpt>
      <trkpt lat="43.65131" lon="3.38795">
        <ele>197.6</ele>
        <time>2024-08-06T08:58:09Z</time>
      </trkpt>
      <trkpt lat="43.65128" lon="3.38797">
        <ele>196.9</ele>
        <time>2024-08-06T08:58:10Z</time>
      </trkpt>
      <trkpt lat="43.65124" lon="3.38799">
        <ele>196</ele>
        <time>2024-08-06T08:58:11Z</time>
      </trkpt>
      <trkpt lat="43.65121" lon="3.388">
        <ele>195.2</ele>
        <time>2024-08-06T08:58:12Z</time>
      </trkpt>
      <trkpt lat="43.65119" lon="3.38801">
        <ele>194.8</ele>
        <time>2024-08-06T08:58:13Z</time>
      </trkpt>
      <trkpt lat="43.65116" lon="3.38803">
        <ele>194.1</ele>
        <time>2024-08-06T08:58:14Z</time>
      </trkpt>
      <trkpt lat="43.65113" lon="3.38807">
        <ele>193.7</ele>
        <time>2024-08-06T08:58:15Z</time>
      </trkpt>
      <trkpt lat="43.6511" lon="3.3881">
        <ele>193.2</ele>
        <time>2024-08-06T08:58:16Z</time>
      </trkpt>
      <trkpt lat="43.65107" lon="3.38814">
        <ele>192.7</ele>
        <time>2024-08-06T08:58:17Z</time>
      </trkpt>
      <trkpt lat="43.65105" lon="3.38818">
        <ele>192.5</ele>
        <time>2024-08-06T08:58:18Z</time>
      </trkpt>
      <trkpt lat="43.65103" lon="3.38821">
        <ele>192.2</ele>
        <time>2024-08-06T08:58:19Z</time>
      </trkpt>
      <trkpt lat="43.65102" lon="3.38824">
        <ele>192.2</ele>
        <time>2024-08-06T08:58:20Z</time>
      </trkpt>
      <trkpt lat="43.651" lon="3.38826">
        <ele>191.7</ele>
        <time>2024-08-06T08:58:21Z</time>
      </trkpt>
      <trkpt lat="43.65099" lon="3.38828">
        <ele>191.6</ele>
        <time>2024-08-06T08:58:22Z</time>
      </trkpt>
      <trkpt lat="43.65097" lon="3.38829">
        <ele>191</ele>
        <time>2024-08-06T08:58:23Z</time>
      </trkpt>
      <trkpt lat="43.65095" lon="3.38828">
        <ele>190.3</ele>
        <time>2024-08-06T08:58:24Z</time>
      </trkpt>
      <trkpt lat="43.65094" lon="3.38827">
        <ele>189.9</ele>
        <time>2024-08-06T08:58:25Z</time>
      </trkpt>
      <trkpt lat="43.65093" lon="3.38826">
        <ele>189.5</ele>
        <time>2024-08-06T08:58:26Z</time>
      </trkpt>
      <trkpt lat="43.65093" lon="3.38824">
        <ele>189.3</ele>
        <time>2024-08-06T08:58:27Z</time>
      </trkpt>
      <trkpt lat="43.65092" lon="3.38822">
        <ele>188.9</ele>
        <time>2024-08-06T08:58:28Z</time>
      </trkpt>
      <trkpt lat="43.6509" lon="3.3882">
        <ele>188.1</ele>
        <time>2024-08-06T08:58:29Z</time>
      </trkpt>
      <trkpt lat="43.65089" lon="3.38817">
        <ele>187.5</ele>
        <time>2024-08-06T08:58:30Z</time>
      </trkpt>
      <trkpt lat="43.65089" lon="3.38813">
        <ele>187.2</ele>
        <time>2024-08-06T08:58:31Z</time>
      </trkpt>
      <trkpt lat="43.65089" lon="3.38811">
        <ele>187.1</ele>
        <time>2024-08-06T08:58:32Z</time>
      </trkpt>
      <trkpt lat="43.6509" lon="3.38809">
        <ele>187.2</ele>
        <time>2024-08-06T08:58:33Z</time>
      </trkpt>
      <trkpt lat="43.6509" lon="3.38806">
        <ele>187</ele>
        <time>2024-08-06T08:58:34Z</time>
      </trkpt>
      <trkpt lat="43.6509" lon="3.38806">
        <ele>187</ele>
        <time>2024-08-06T08:58:35Z</time>
      </trkpt>
      <trkpt lat="43.6509" lon="3.38806">
        <ele>187</ele>
        <time>2024-08-06T08:58:36Z</time>
      </trkpt>
      <trkpt lat="43.65089" lon="3.38801">
        <ele>186.1</ele>
        <time>2024-08-06T08:58:55Z</time>
      </trkpt>
      <trkpt lat="43.65088" lon="3.388">
        <ele>185.7</ele>
        <time>2024-08-06T08:58:56Z</time>
      </trkpt>
      <trkpt lat="43.65086" lon="3.38799">
        <ele>185.1</ele>
        <time>2024-08-06T08:58:57Z</time>
      </trkpt>
      <trkpt lat="43.65083" lon="3.38799">
        <ele>184.2</ele>
        <time>2024-08-06T08:58:58Z</time>
      </trkpt>
      <trkpt lat="43.6508" lon="3.388">
        <ele>183.6</ele>
        <time>2024-08-06T08:58:59Z</time>
      </trkpt>
      <trkpt lat="43.65077" lon="3.38801">
        <ele>183</ele>
        <time>2024-08-06T08:59:00Z</time>
      </trkpt>
      <trkpt lat="43.65074" lon="3.38802">
        <ele>182.4</ele>
        <time>2024-08-06T08:59:01Z</time>
      </trkpt>
      <trkpt lat="43.65071" lon="3.38801">
        <ele>181.5</ele>
        <time>2024-08-06T08:59:02Z</time>
      </trkpt>
      <trkpt lat="43.65067" lon="3.38799">
        <ele>180.5</ele>
        <time>2024-08-06T08:59:03Z</time>
      </trkpt>
      <trkpt lat="43.65064" lon="3.38796">
        <ele>179.6</ele>
        <time>2024-08-06T08:59:04Z</time>
      </trkpt>
      <trkpt lat="43.65062" lon="3.38792">
        <ele>178.9</ele>
        <time>2024-08-06T08:59:05Z</time>
      </trkpt>
      <trkpt lat="43.65058" lon="3.38789">
        <ele>177.9</ele>
        <time>2024-08-06T08:59:06Z</time>
      </trkpt>
      <trkpt lat="43.65055" lon="3.38787">
        <ele>177.3</ele>
        <time>2024-08-06T08:59:07Z</time>
      </trkpt>
      <trkpt lat="43.6505" lon="3.38784">
        <ele>176.4</ele>
        <time>2024-08-06T08:59:08Z</time>
      </trkpt>
      <trkpt lat="43.65046" lon="3.38782">
        <ele>175.8</ele>
        <time>2024-08-06T08:59:09Z</time>
      </trkpt>
      <trkpt lat="43.65042" lon="3.3878">
        <ele>175.1</ele>
        <time>2024-08-06T08:59:10Z</time>
      </trkpt>
      <trkpt lat="43.65042" lon="3.38776">
        <ele>174.9</ele>
        <time>2024-08-06T08:59:11Z</time>
      </trkpt>
      <trkpt lat="43.65041" lon="3.38772">
        <ele>174.3</ele>
        <time>2024-08-06T08:59:12Z</time>
      </trkpt>
      <trkpt lat="43.65039" lon="3.38767">
        <ele>173.5</ele>
        <time>2024-08-06T08:59:13Z</time>
      </trkpt>
      <trkpt lat="43.65036" lon="3.38764">
        <ele>172.7</ele>
        <time>2024-08-06T08:59:14Z</time>
      </trkpt>
      <trkpt lat="43.65032" lon="3.38762">
        <ele>171.9</ele>
        <time>2024-08-06T08:59:15Z</time>
      </trkpt>
      <trkpt lat="43.6503" lon="3.3876">
        <ele>171.4</ele>
        <time>2024-08-06T08:59:16Z</time>
      </trkpt>
      <trkpt lat="43.6503" lon="3.38757">
        <ele>171.1</ele>
        <time>2024-08-06T08:59:17Z</time>
      </trkpt>
      <trkpt lat="43.6503" lon="3.38753">
        <ele>170.6</ele>
        <time>2024-08-06T08:59:18Z</time>
      </trkpt>
      <trkpt lat="43.65031" lon="3.38749">
        <ele>170.4</ele>
        <time>2024-08-06T08:59:19Z</time>
      </trkpt>
      <trkpt lat="43.65031" lon="3.38744">
        <ele>170</ele>
        <time>2024-08-06T08:59:20Z</time>
      </trkpt>
      <trkpt lat="43.6503" lon="3.3874">
        <ele>169.5</ele>
        <time>2024-08-06T08:59:21Z</time>
      </trkpt>
      <trkpt lat="43.65028" lon="3.38738">
        <ele>169.2</ele>
        <time>2024-08-06T08:59:22Z</time>
      </trkpt>
      <trkpt lat="43.65026" lon="3.38737">
        <ele>168.9</ele>
        <time>2024-08-06T08:59:23Z</time>
      </trkpt>
      <trkpt lat="43.65023" lon="3.38737">
        <ele>168.7</ele>
        <time>2024-08-06T08:59:24Z</time>
      </trkpt>
      <trkpt lat="43.65022" lon="3.38736">
        <ele>168.6</ele>
        <time>2024-08-06T08:59:25Z</time>
      </trkpt>
      <trkpt lat="43.65019" lon="3.38736">
        <ele>168.4</ele>
        <time>2024-08-06T08:59:26Z</time>
      </trkpt>
      <trkpt lat="43.65017" lon="3.38737">
        <ele>168.3</ele>
        <time>2024-08-06T08:59:27Z</time>
      </trkpt>
      <trkpt lat="43.65016" lon="3.38738">
        <ele>168.3</ele>
        <time>2024-08-06T08:59:28Z</time>
      </trkpt>
      <trkpt lat="43.65017" lon="3.38739">
        <ele>168.4</ele>
        <time>2024-08-06T08:59:29Z</time>
      </trkpt>
      <trkpt lat="43.65017" lon="3.38739">
        <ele>168.4</ele>
        <time>2024-08-06T08:59:30Z</time>
      </trkpt>
      <trkpt lat="43.65012" lon="3.38739">
        <ele>168.1</ele>
        <time>2024-08-06T08:59:42Z</time>
      </trkpt>
      <trkpt lat="43.6501" lon="3.3874">
        <ele>168</ele>
        <time>2024-08-06T08:59:43Z</time>
      </trkpt>
      <trkpt lat="43.65007" lon="3.3874">
        <ele>167.8</ele>
        <time>2024-08-06T08:59:44Z</time>
      </trkpt>
      <trkpt lat="43.65005" lon="3.38741">
        <ele>167.7</ele>
        <time>2024-08-06T08:59:45Z</time>
      </trkpt>
      <trkpt lat="43.65002" lon="3.38743">
        <ele>167.6</ele>
        <time>2024-08-06T08:59:46Z</time>
      </trkpt>
      <trkpt lat="43.64999" lon="3.38744">
        <ele>167.4</ele>
        <time>2024-08-06T08:59:47Z</time>
      </trkpt>
      <trkpt lat="43.64996" lon="3.38744">
        <ele>167</ele>
        <time>2024-08-06T08:59:48Z</time>
      </trkpt>
      <trkpt lat="43.64993" lon="3.38742">
        <ele>166.5</ele>
        <time>2024-08-06T08:59:49Z</time>
      </trkpt>
      <trkpt lat="43.64989" lon="3.3874">
        <ele>165.8</ele>
        <time>2024-08-06T08:59:50Z</time>
      </trkpt>
      <trkpt lat="43.64986" lon="3.38737">
        <ele>165.3</ele>
        <time>2024-08-06T08:59:51Z</time>
      </trkpt>
      <trkpt lat="43.64981" lon="3.38733">
        <ele>164.5</ele>
        <time>2024-08-06T08:59:52Z</time>
      </trkpt>
      <trkpt lat="43.64977" lon="3.3873">
        <ele>163.8</ele>
        <time>2024-08-06T08:59:53Z</time>
      </trkpt>
      <trkpt lat="43.64973" lon="3.38726">
        <ele>163.2</ele>
        <time>2024-08-06T08:59:54Z</time>
      </trkpt>
      <trkpt lat="43.64969" lon="3.38723">
        <ele>162.6</ele>
        <time>2024-08-06T08:59:55Z</time>
      </trkpt>
      <trkpt lat="43.64964" lon="3.3872">
        <ele>161.7</ele>
        <time>2024-08-06T08:59:56Z</time>
      </trkpt>
      <trkpt lat="43.64959" lon="3.38719">
        <ele>160.9</ele>
        <time>2024-08-06T08:59:57Z</time>
      </trkpt>
      <trkpt lat="43.64955" lon="3.38718">
        <ele>160.3</ele>
        <time>2024-08-06T08:59:58Z</time>
      </trkpt>
      <trkpt lat="43.64951" lon="3.38718">
        <ele>159.8</ele>
        <time>2024-08-06T08:59:59Z</time>
      </trkpt>
      <trkpt lat="43.64949" lon="3.3872">
        <ele>159.6</ele>
        <time>2024-08-06T09:00:00Z</time>
      </trkpt>
      <trkpt lat="43.64945" lon="3.38722">
        <ele>159.1</ele>
        <time>2024-08-06T09:00:01Z</time>
      </trkpt>
      <trkpt lat="43.64941" lon="3.38724">
        <ele>158.6</ele>
        <time>2024-08-06T09:00:02Z</time>
      </trkpt>
      <trkpt lat="43.64936" lon="3.38726">
        <ele>158.1</ele>
        <time>2024-08-06T09:00:03Z</time>
      </trkpt>
      <trkpt lat="43.64931" lon="3.38728">
        <ele>157.5</ele>
        <time>2024-08-06T09:00:04Z</time>
      </trkpt>
      <trkpt lat="43.64926" lon="3.3873">
        <ele>157</ele>
        <time>2024-08-06T09:00:05Z</time>
      </trkpt>
      <trkpt lat="43.64921" lon="3.3873">
        <ele>156.5</ele>
        <time>2024-08-06T09:00:06Z</time>
      </trkpt>
      <trkpt lat="43.64916" lon="3.38731">
        <ele>155.9</ele>
        <time>2024-08-06T09:00:07Z</time>
      </trkpt>
      <trkpt lat="43.64912" lon="3.38732">
        <ele>155.3</ele>
        <time>2024-08-06T09:00:08Z</time>
      </trkpt>
      <trkpt lat="43.64908" lon="3.38735">
        <ele>154.7</ele>
        <time>2024-08-06T09:00:09Z</time>
      </trkpt>
      <trkpt lat="43.64906" lon="3.38739">
        <ele>154.5</ele>
        <time>2024-08-06T09:00:10Z</time>
      </trkpt>
      <trkpt lat="43.64903" lon="3.38743">
        <ele>154.3</ele>
        <time>2024-08-06T09:00:11Z</time>
      </trkpt>
      <trkpt lat="43.649" lon="3.38744">
        <ele>153.9</ele>
        <time>2024-08-06T09:00:12Z</time>
      </trkpt>
      <trkpt lat="43.64897" lon="3.38744">
        <ele>153.6</ele>
        <time>2024-08-06T09:00:13Z</time>
      </trkpt>
      <trkpt lat="43.64895" lon="3.38744">
        <ele>153.3</ele>
        <time>2024-08-06T09:00:14Z</time>
      </trkpt>
      <trkpt lat="43.64891" lon="3.38744">
        <ele>152.8</ele>
        <time>2024-08-06T09:00:15Z</time>
      </trkpt>
      <trkpt lat="43.64888" lon="3.38744">
        <ele>152.5</ele>
        <time>2024-08-06T09:00:16Z</time>
      </trkpt>
      <trkpt lat="43.64884" lon="3.38744">
        <ele>152</ele>
        <time>2024-08-06T09:00:17Z</time>
      </trkpt>
      <trkpt lat="43.64881" lon="3.38745">
        <ele>151.8</ele>
        <time>2024-08-06T09:00:18Z</time>
      </trkpt>
      <trkpt lat="43.64878" lon="3.38745">
        <ele>151.5</ele>
        <time>2024-08-06T09:00:19Z</time>
      </trkpt>
      <trkpt lat="43.64876" lon="3.38746">
        <ele>151.3</ele>
        <time>2024-08-06T09:00:20Z</time>
      </trkpt>
      <trkpt lat="43.64874" lon="3.38747">
        <ele>151.2</ele>
        <time>2024-08-06T09:00:21Z</time>
      </trkpt>
      <trkpt lat="43.64874" lon="3.38747">
        <ele>151.2</ele>
        <time>2024-08-06T09:00:22Z</time>
      </trkpt>
      <trkpt lat="43.64868" lon="3.38749">
        <ele>150.7</ele>
        <time>2024-08-06T09:00:49Z</time>
      </trkpt>
      <trkpt lat="43.64866" lon="3.38748">
        <ele>150.4</ele>
        <time>2024-08-06T09:00:50Z</time>
      </trkpt>
      <trkpt lat="43.64862" lon="3.38746">
        <ele>149.8</ele>
        <time>2024-08-06T09:00:51Z</time>
      </trkpt>
      <trkpt lat="43.64859" lon="3.38743">
        <ele>149.2</ele>
        <time>2024-08-06T09:00:52Z</time>
      </trkpt>
      <trkpt lat="43.64855" lon="3.38741">
        <ele>148.5</ele>
        <time>2024-08-06T09:00:53Z</time>
      </trkpt>
      <trkpt lat="43.64849" lon="3.3874">
        <ele>147.7</ele>
        <time>2024-08-06T09:00:54Z</time>
      </trkpt>
      <trkpt lat="43.64843" lon="3.3874">
        <ele>146.9</ele>
        <time>2024-08-06T09:00:55Z</time>
      </trkpt>
      <trkpt lat="43.64838" lon="3.38742">
        <ele>146.3</ele>
        <time>2024-08-06T09:00:56Z</time>
      </trkpt>
      <trkpt lat="43.64832" lon="3.38743">
        <ele>145.5</ele>
        <time>2024-08-06T09:00:57Z</time>
      </trkpt>
      <trkpt lat="43.64827" lon="3.38742">
        <ele>144.6</ele>
        <time>2024-08-06T09:00:58Z</time>
      </trkpt>
      <trkpt lat="43.64822" lon="3.38742">
        <ele>143.8</ele>
        <time>2024-08-06T09:00:59Z</time>
      </trkpt>
      <trkpt lat="43.64819" lon="3.38743">
        <ele>143.3</ele>
        <time>2024-08-06T09:01:00Z</time>
      </trkpt>
      <trkpt lat="43.64816" lon="3.38745">
        <ele>142.8</ele>
        <time>2024-08-06T09:01:01Z</time>
      </trkpt>
      <trkpt lat="43.64813" lon="3.38747">
        <ele>142.3</ele>
        <time>2024-08-06T09:01:02Z</time>
      </trkpt>
      <trkpt lat="43.64809" lon="3.38749">
        <ele>141.6</ele>
        <time>2024-08-06T09:01:03Z</time>
      </trkpt>
      <trkpt lat="43.64805" lon="3.38751">
        <ele>141</ele>
        <time>2024-08-06T09:01:04Z</time>
      </trkpt>
      <trkpt lat="43.64799" lon="3.38754">
        <ele>140.8</ele>
        <time>2024-08-06T09:01:05Z</time>
      </trkpt>
      <trkpt lat="43.64793" lon="3.38759">
        <ele>140.6</ele>
        <time>2024-08-06T09:01:06Z</time>
      </trkpt>
      <trkpt lat="43.64787" lon="3.38764">
        <ele>140.3</ele>
        <time>2024-08-06T09:01:07Z</time>
      </trkpt>
      <trkpt lat="43.64783" lon="3.3877">
        <ele>140.2</ele>
        <time>2024-08-06T09:01:08Z</time>
      </trkpt>
      <trkpt lat="43.64779" lon="3.38775">
        <ele>140</ele>
        <time>2024-08-06T09:01:09Z</time>
      </trkpt>
      <trkpt lat="43.64777" lon="3.38781">
        <ele>140.1</ele>
        <time>2024-08-06T09:01:10Z</time>
      </trkpt>
      <trkpt lat="43.64774" lon="3.38785">
        <ele>140.3</ele>
        <time>2024-08-06T09:01:11Z</time>
      </trkpt>
      <trkpt lat="43.64771" lon="3.38789">
        <ele>140.5</ele>
        <time>2024-08-06T09:01:12Z</time>
      </trkpt>
      <trkpt lat="43.64767" lon="3.3879">
        <ele>140.5</ele>
        <time>2024-08-06T09:01:13Z</time>
      </trkpt>
      <trkpt lat="43.64763" lon="3.3879">
        <ele>140.5</ele>
        <time>2024-08-06T09:01:14Z</time>
      </trkpt>
      <trkpt lat="43.6476" lon="3.38791">
        <ele>140.5</ele>
        <time>2024-08-06T09:01:15Z</time>
      </trkpt>
      <trkpt lat="43.64758" lon="3.38793">
        <ele>140.5</ele>
        <time>2024-08-06T09:01:16Z</time>
      </trkpt>
      <trkpt lat="43.64756" lon="3.38795">
        <ele>140.4</ele>
        <time>2024-08-06T09:01:17Z</time>
      </trkpt>
      <trkpt lat="43.64754" lon="3.38798">
        <ele>140.3</ele>
        <time>2024-08-06T09:01:18Z</time>
      </trkpt>
      <trkpt lat="43.64752" lon="3.38801">
        <ele>140.2</ele>
        <time>2024-08-06T09:01:19Z</time>
      </trkpt>
      <trkpt lat="43.6475" lon="3.38804">
        <ele>140.1</ele>
        <time>2024-08-06T09:01:20Z</time>
      </trkpt>
      <trkpt lat="43.64749" lon="3.38808">
        <ele>140.2</ele>
        <time>2024-08-06T09:01:21Z</time>
      </trkpt>
      <trkpt lat="43.64748" lon="3.38811">
        <ele>140.3</ele>
        <time>2024-08-06T09:01:22Z</time>
      </trkpt>
      <trkpt lat="43.64747" lon="3.38813">
        <ele>140.5</ele>
        <time>2024-08-06T09:01:23Z</time>
      </trkpt>
      <trkpt lat="43.64746" lon="3.38815">
        <ele>140.6</ele>
        <time>2024-08-06T09:01:24Z</time>
      </trkpt>
      <trkpt lat="43.64745" lon="3.38818">
        <ele>140.7</ele>
        <time>2024-08-06T09:01:25Z</time>
      </trkpt>
      <trkpt lat="43.64744" lon="3.3882">
        <ele>140.8</ele>
        <time>2024-08-06T09:01:26Z</time>
      </trkpt>
      <trkpt lat="43.64744" lon="3.38823">
        <ele>140.9</ele>
        <time>2024-08-06T09:01:27Z</time>
      </trkpt>
      <trkpt lat="43.64744" lon="3.38825">
        <ele>141</ele>
        <time>2024-08-06T09:01:28Z</time>
      </trkpt>
      <trkpt lat="43.64742" lon="3.38826">
        <ele>141.1</ele>
        <time>2024-08-06T09:01:29Z</time>
      </trkpt>
      <trkpt lat="43.6474" lon="3.38826">
        <ele>141.2</ele>
        <time>2024-08-06T09:01:30Z</time>
      </trkpt>
      <trkpt lat="43.64738" lon="3.38826">
        <ele>141.3</ele>
        <time>2024-08-06T09:01:31Z</time>
      </trkpt>
      <trkpt lat="43.64735" lon="3.38826">
        <ele>141.4</ele>
        <time>2024-08-06T09:01:32Z</time>
      </trkpt>
      <trkpt lat="43.64732" lon="3.38826">
        <ele>141.6</ele>
        <time>2024-08-06T09:01:33Z</time>
      </trkpt>
      <trkpt lat="43.64729" lon="3.38826">
        <ele>141.7</ele>
        <time>2024-08-06T09:01:34Z</time>
      </trkpt>
      <trkpt lat="43.64726" lon="3.38826">
        <ele>141.8</ele>
        <time>2024-08-06T09:01:35Z</time>
      </trkpt>
      <trkpt lat="43.64724" lon="3.38827">
        <ele>141.9</ele>
        <time>2024-08-06T09:01:36Z</time>
      </trkpt>
      <trkpt lat="43.64722" lon="3.38829">
        <ele>142</ele>
        <time>2024-08-06T09:01:37Z</time>
      </trkpt>
      <trkpt lat="43.6472" lon="3.38832">
        <ele>142.1</ele>
        <time>2024-08-06T09:01:38Z</time>
      </trkpt>
      <trkpt lat="43.64718" lon="3.38837">
        <ele>142.2</ele>
        <time>2024-08-06T09:01:39Z</time>
      </trkpt>
      <trkpt lat="43.64717" lon="3.38841">
        <ele>142.2</ele>
        <time>2024-08-06T09:01:40Z</time>
      </trkpt>
      <trkpt lat="43.64717" lon="3.38845">
        <ele>142.2</ele>
        <time>2024-08-06T09:01:41Z</time>
      </trkpt>
      <trkpt lat="43.64717" lon="3.38849">
        <ele>142.2</ele>
        <time>2024-08-06T09:01:42Z</time>
      </trkpt>
      <trkpt lat="43.64716" lon="3.38852">
        <ele>142.2</ele>
        <time>2024-08-06T09:01:43Z</time>
      </trkpt>
      <trkpt lat="43.64716" lon="3.38856">
        <ele>142.2</ele>
        <time>2024-08-06T09:01:44Z</time>
      </trkpt>
      <trkpt lat="43.64715" lon="3.38861">
        <ele>142.3</ele>
        <time>2024-08-06T09:01:45Z</time>
      </trkpt>
      <trkpt lat="43.64714" lon="3.38867">
        <ele>142.3</ele>
        <time>2024-08-06T09:01:46Z</time>
      </trkpt>
      <trkpt lat="43.64712" lon="3.38872">
        <ele>142.4</ele>
        <time>2024-08-06T09:01:47Z</time>
      </trkpt>
      <trkpt lat="43.64711" lon="3.38876">
        <ele>142.4</ele>
        <time>2024-08-06T09:01:48Z</time>
      </trkpt>
      <trkpt lat="43.64709" lon="3.3888">
        <ele>142.5</ele>
        <time>2024-08-06T09:01:49Z</time>
      </trkpt>
      <trkpt lat="43.64708" lon="3.38883">
        <ele>142.5</ele>
        <time>2024-08-06T09:01:50Z</time>
      </trkpt>
      <trkpt lat="43.64706" lon="3.38886">
        <ele>142.6</ele>
        <time>2024-08-06T09:01:51Z</time>
      </trkpt>
      <trkpt lat="43.64704" lon="3.38888">
        <ele>142.7</ele>
        <time>2024-08-06T09:01:52Z</time>
      </trkpt>
      <trkpt lat="43.64702" lon="3.38891">
        <ele>142.7</ele>
        <time>2024-08-06T09:01:53Z</time>
      </trkpt>
      <trkpt lat="43.64698" lon="3.38892">
        <ele>142.9</ele>
        <time>2024-08-06T09:01:54Z</time>
      </trkpt>
      <trkpt lat="43.64693" lon="3.38893">
        <ele>143.1</ele>
        <time>2024-08-06T09:01:55Z</time>
      </trkpt>
      <trkpt lat="43.64688" lon="3.38893">
        <ele>143.2</ele>
        <time>2024-08-06T09:01:56Z</time>
      </trkpt>
      <trkpt lat="43.64684" lon="3.38893">
        <ele>143.4</ele>
        <time>2024-08-06T09:01:57Z</time>
      </trkpt>
      <trkpt lat="43.64681" lon="3.38892">
        <ele>143.5</ele>
        <time>2024-08-06T09:01:58Z</time>
      </trkpt>
      <trkpt lat="43.64677" lon="3.38891">
        <ele>143.6</ele>
        <time>2024-08-06T09:01:59Z</time>
      </trkpt>
      <trkpt lat="43.64674" lon="3.3889">
        <ele>143.7</ele>
        <time>2024-08-06T09:02:00Z</time>
      </trkpt>
      <trkpt lat="43.64671" lon="3.38889">
        <ele>143.8</ele>
        <time>2024-08-06T09:02:01Z</time>
      </trkpt>
      <trkpt lat="43.64668" lon="3.38889">
        <ele>144</ele>
        <time>2024-08-06T09:02:02Z</time>
      </trkpt>
      <trkpt lat="43.64665" lon="3.38889">
        <ele>144</ele>
        <time>2024-08-06T09:02:03Z</time>
      </trkpt>
      <trkpt lat="43.64662" lon="3.38887">
        <ele>143.9</ele>
        <time>2024-08-06T09:02:04Z</time>
      </trkpt>
      <trkpt lat="43.64658" lon="3.38885">
        <ele>143.9</ele>
        <time>2024-08-06T09:02:05Z</time>
      </trkpt>
      <trkpt lat="43.64654" lon="3.38883">
        <ele>143.9</ele>
        <time>2024-08-06T09:02:06Z</time>
      </trkpt>
      <trkpt lat="43.6465" lon="3.38881">
        <ele>143.9</ele>
        <time>2024-08-06T09:02:07Z</time>
      </trkpt>
      <trkpt lat="43.64647" lon="3.38879">
        <ele>143.9</ele>
        <time>2024-08-06T09:02:08Z</time>
      </trkpt>
      <trkpt lat="43.64643" lon="3.38877">
        <ele>143.9</ele>
        <time>2024-08-06T09:02:09Z</time>
      </trkpt>
      <trkpt lat="43.6464" lon="3.38876">
        <ele>144</ele>
        <time>2024-08-06T09:02:10Z</time>
      </trkpt>
      <trkpt lat="43.64636" lon="3.38874">
        <ele>144</ele>
        <time>2024-08-06T09:02:11Z</time>
      </trkpt>
      <trkpt lat="43.64632" lon="3.38872">
        <ele>144</ele>
        <time>2024-08-06T09:02:12Z</time>
      </trkpt>
      <trkpt lat="43.64628" lon="3.38871">
        <ele>144</ele>
        <time>2024-08-06T09:02:13Z</time>
      </trkpt>
      <trkpt lat="43.64625" lon="3.38873">
        <ele>144</ele>
        <time>2024-08-06T09:02:14Z</time>
      </trkpt>
      <trkpt lat="43.64623" lon="3.38878">
        <ele>144</ele>
        <time>2024-08-06T09:02:15Z</time>
      </trkpt>
      <trkpt lat="43.6462" lon="3.38883">
        <ele>144</ele>
        <time>2024-08-06T09:02:16Z</time>
      </trkpt>
      <trkpt lat="43.64617" lon="3.38885">
        <ele>144</ele>
        <time>2024-08-06T09:02:17Z</time>
      </trkpt>
      <trkpt lat="43.64613" lon="3.38888">
        <ele>144</ele>
        <time>2024-08-06T09:02:18Z</time>
      </trkpt>
      <trkpt lat="43.64611" lon="3.38893">
        <ele>144.2</ele>
        <time>2024-08-06T09:02:19Z</time>
      </trkpt>
      <trkpt lat="43.6461" lon="3.38897">
        <ele>144.3</ele>
        <time>2024-08-06T09:02:20Z</time>
      </trkpt>
      <trkpt lat="43.64609" lon="3.38901">
        <ele>144.5</ele>
        <time>2024-08-06T09:02:21Z</time>
      </trkpt>
      <trkpt lat="43.64607" lon="3.38905">
        <ele>144.6</ele>
        <time>2024-08-06T09:02:22Z</time>
      </trkpt>
      <trkpt lat="43.64604" lon="3.3891">
        <ele>144.8</ele>
        <time>2024-08-06T09:02:23Z</time>
      </trkpt>
      <trkpt lat="43.64602" lon="3.38915">
        <ele>145</ele>
        <time>2024-08-06T09:02:24Z</time>
      </trkpt>
      <trkpt lat="43.64599" lon="3.38919">
        <ele>145</ele>
        <time>2024-08-06T09:02:25Z</time>
      </trkpt>
      <trkpt lat="43.64595" lon="3.38921">
        <ele>145.1</ele>
        <time>2024-08-06T09:02:26Z</time>
      </trkpt>
      <trkpt lat="43.64591" lon="3.38921">
        <ele>145.1</ele>
        <time>2024-08-06T09:02:27Z</time>
      </trkpt>
      <trkpt lat="43.64587" lon="3.38924">
        <ele>145.2</ele>
        <time>2024-08-06T09:02:28Z</time>
      </trkpt>
      <trkpt lat="43.64584" lon="3.38929">
        <ele>145.4</ele>
        <time>2024-08-06T09:02:29Z</time>
      </trkpt>
      <trkpt lat="43.64581" lon="3.38933">
        <ele>145.6</ele>
        <time>2024-08-06T09:02:30Z</time>
      </trkpt>
      <trkpt lat="43.64577" lon="3.38937">
        <ele>145.8</ele>
        <time>2024-08-06T09:02:31Z</time>
      </trkpt>
      <trkpt lat="43.64574" lon="3.38941">
        <ele>145.9</ele>
        <time>2024-08-06T09:02:32Z</time>
      </trkpt>
      <trkpt lat="43.64571" lon="3.38944">
        <ele>146</ele>
        <time>2024-08-06T09:02:33Z</time>
      </trkpt>
      <trkpt lat="43.64568" lon="3.38946">
        <ele>146</ele>
        <time>2024-08-06T09:02:34Z</time>
      </trkpt>
      <trkpt lat="43.64565" lon="3.38949">
        <ele>146</ele>
        <time>2024-08-06T09:02:35Z</time>
      </trkpt>
      <trkpt lat="43.64563" lon="3.38952">
        <ele>146</ele>
        <time>2024-08-06T09:02:36Z</time>
      </trkpt>
      <trkpt lat="43.6456" lon="3.38955">
        <ele>146</ele>
        <time>2024-08-06T09:02:37Z</time>
      </trkpt>
      <trkpt lat="43.64558" lon="3.38957">
        <ele>146</ele>
        <time>2024-08-06T09:02:38Z</time>
      </trkpt>
      <trkpt lat="43.64556" lon="3.38959">
        <ele>146</ele>
        <time>2024-08-06T09:02:39Z</time>
      </trkpt>
      <trkpt lat="43.64554" lon="3.38961">
        <ele>146</ele>
        <time>2024-08-06T09:02:40Z</time>
      </trkpt>
      <trkpt lat="43.64552" lon="3.38963">
        <ele>146.1</ele>
        <time>2024-08-06T09:02:41Z</time>
      </trkpt>
      <trkpt lat="43.64551" lon="3.38965">
        <ele>146.1</ele>
        <time>2024-08-06T09:02:42Z</time>
      </trkpt>
      <trkpt lat="43.6455" lon="3.38967">
        <ele>146.2</ele>
        <time>2024-08-06T09:02:43Z</time>
      </trkpt>
      <trkpt lat="43.64511" lon="3.38998">
        <ele>147.6</ele>
        <time>2024-08-06T09:02:44Z</time>
      </trkpt>
    </trkseg>
  </trk>
</gpx>